UPASserial,0013
UPASfirmware,CEAMS_UPASv2_2_AODv1_0-rev94-L152RE_20171101_mbed116.bin compiledNov  4 2017_22:29:27UTC
UPASlogFilename,/sd/AD0013_LOG_2017-11-15T14_37_32UTC_013~_______________039.txt


SETUP SUMMARY

PARAMETER,VALUE,UNITS/NOTES
StartOnNextPowerUp,0,(0=no 1=yes)
StartDateTime,2017-11-15T14:37:32UTC,(YYYY-MM-DDTHH:MM:SSUTC)
GPSUTCOffset,0.00,(hour)
ProgrammedStartDelay,0,(s)
ProgrammedRuntime,173700,(s)
VolumetricFlowRate,2.000000,(L*min^-1)
DutyCycle,100,(%)
DutyCycleWindow,30,(s)
GPSEnabled,1,(0=no 1=yes)
LogFileMode,0,(0=normal 1=debug)
LogInterval,30,(s)
AppVersion,N/A,(i=iOS A=Android)
Latitude,40.59,(decimalDegree)
Longitude,-105.18,(decimalDegree)
SAMPLE SUMMARY

PARAMETER,VALUE,UNITS/NOTES
ShutdownMode,3,(0=unknown error 1=user pushbutton stop 2=depleted battery 3=completed preset sample duration 4=thermal protection shutdown)
SampledVolume, 2204.3,(L)
SampledRuntime,173689,(s)
AverageVolumetricFlow,0.76,(L*min^-1)


SAMPLE LOG

(HH:MM:SS),(s),(YYY-MM-DDTHH:MM:SS),(L*min^-1),(L),(C),(C),(C),(hPa),(hPa),(Pa),(%),(g*L^-1),(integer),(integer),(g*min^-1),(V),(integer),(M),(degree),(degree),(AU),(degrees),(degrees),(degrees),(degrees),(degrees),(V),(V),(V),(V),(-),(-),(-),(-),(ug*m^-3),(ug*m^-3),(ug*m^-3),(ug*m^-3),(ug*m^-3),(ug*m^-3),(integer),(integer),(integer),(integer),(integer),(integer)
SampleTime,UnixTime,UTCDateTime,VolFlow,SampledVolume,PumpT,PCBT,FdpT,PumpP,PCBP,FdpP,PumpRH,AtmoRho,PumpPow,PumpV,MassFlow,BFGvolt,BFGenergy,AirMassFactor,Zenith,Azimuth,Earth2SunDistance,quad_x,quad_y,pitch,roll,heading,v870,v680,v520,v440,AOD870,AOD680,AOD520,AOD440,PM1_0RAW,PM2_5RAW,PM10RAW,PM1_0ADJ,PM2_5ADJ,PM10_0ADJ,CNT0_3,CNT0_5,CNT1_0,CNT2_5,CNT5_0,CNT10
0:00:00,1510756655,2017-11-15T14:37:35,0.000,0.0,21.33,21.14,0.00,837.060,2091.930,0.000000,35.03,2.4708,0,7327,0.00000,4.10,52201,7.103986,82.415489,122.479428,0.989075,1.478916,0.614120,9.669668,-7.292224,-53.823837,0.506194,0.588563,0.301606,0.123319,0.109305,0.101590,0.103568,0.091007,99999,99999,99999,99999,99999,99999,99999,99999,99999,99999,99999,99999
0:00:19,1510756680,2017-11-15T14:38:07,0.811,0.3,21.48,21.15,22.42,835.600,2092.450,130.850006,18.45,2.4720,363,23906,2.00443,4.07,52196,,,,,,,,,,,,,,,,,,99999,99999,99999,99999,99999,99999,99999,99999,99999,99999,99999,99999
0:00:49,1510756710,2017-11-15T14:38:37,0.809,0.7,21.88,21.12,23.06,835.620,2093.850,131.033340,16.95,2.4704,363,23907,1.99887,4.07,52191,,,,,,,,,,,,,,,,,,99999,99999,99999,99999,99999,99999,99999,99999,99999,99999,99999,99999
0:01:19,1510756740,2017-11-15T14:39:07,0.811,1.1,22.12,21.00,23.42,835.620,2094.730,131.133331,16.17,2.4695,363,23902,2.00257,4.07,52186,,,,,,,,,,,,,,,,,,99999,99999,99999,99999,99999,99999,99999,99999,99999,99999,99999,99999
0:01:49,1510756770,2017-11-15T14:39:37,0.805,1.5,22.26,20.84,23.72,835.620,2095.190,129.949997,15.70,2.4689,363,23901,1.98838,4.07,52182,,,,,,,,,,,,,,,,,,99999,99999,99999,99999,99999,99999,99999,99999,99999,99999,99999,99999
0:02:19,1510756800,2017-11-15T14:40:07,0.807,2.0,22.31,20.64,23.92,835.640,2095.420,129.483337,15.68,2.4688,363,23897,1.99331,4.11,52177,,,,,,,,,,,,,,,,,,99999,99999,99999,99999,99999,99999,99999,99999,99999,99999,99999,99999
0:02:49,1510756830,2017-11-15T14:40:37,0.808,2.4,22.29,20.40,23.98,835.670,2095.310,130.666672,15.66,2.4688,363,23892,1.99516,4.07,52172,,,,,,,,,,,,,,,,,,99999,99999,99999,99999,99999,99999,99999,99999,99999,99999,99999,99999
0:03:19,1510756860,2017-11-15T14:41:07,0.808,2.8,22.21,20.16,23.99,835.630,2095.020,129.683334,15.52,2.4692,363,23885,1.99454,4.07,52167,,,,,,,,,,,,,,,,,,99999,99999,99999,99999,99999,99999,99999,99999,99999,99999,99999,99999
0:03:49,1510756890,2017-11-15T14:41:37,0.805,3.2,22.11,19.91,23.98,835.680,2094.670,128.016663,15.55,2.4696,363,23878,1.98900,4.07,52162,,,,,,,,,,,,,,,,,,99999,99999,99999,99999,99999,99999,99999,99999,99999,99999,99999,99999
0:04:19,1510756920,2017-11-15T14:42:07,0.801,3.6,21.97,19.68,23.91,835.680,2094.210,127.466667,15.63,2.4702,363,23871,1.97823,4.07,52157,,,,,,,,,,,,,,,,,,99999,99999,99999,99999,99999,99999,99999,99999,99999,99999,99999,99999
0:04:49,1510756950,2017-11-15T14:42:37,0.804,4.0,21.81,19.43,23.78,835.800,2093.660,130.100006,15.87,2.4709,363,23865,1.98622,4.07,52153,,,,,,,,,,,,,,,,,,99999,99999,99999,99999,99999,99999,99999,99999,99999,99999,99999,99999
0:05:19,1510756980,2017-11-15T14:43:07,0.801,4.4,21.64,19.20,23.72,835.780,2093.080,128.850006,16.02,2.4716,363,23858,1.98007,4.07,52148,,,,,,,,,,,,,,,,,,99999,99999,99999,99999,99999,99999,99999,99999,99999,99999,99999,99999
0:05:49,1510757010,2017-11-15T14:43:37,0.798,4.8,21.46,18.94,23.50,835.800,2092.390,126.550003,16.17,2.4723,363,23848,1.97362,4.07,52143,,,,,,,,,,,,,,,,,,99999,99999,99999,99999,99999,99999,99999,99999,99999,99999,99999,99999
0:06:19,1510757040,2017-11-15T14:44:07,0.797,5.2,21.27,18.69,23.40,835.730,2091.740,126.599998,16.33,2.4732,363,23844,1.97209,4.07,52138,,,,,,,,,,,,,,,,,,99999,99999,99999,99999,99999,99999,99999,99999,99999,99999,99999,99999
0:06:49,1510757070,2017-11-15T14:44:37,0.798,5.6,21.07,18.44,23.25,835.850,2091.050,128.550003,16.26,2.4741,363,23836,1.97332,4.07,52134,,,,,,,,,,,,,,,,,,99999,99999,99999,99999,99999,99999,99999,99999,99999,99999,99999,99999
0:07:19,1510757100,2017-11-15T14:45:07,0.794,6.0,20.85,18.17,23.06,835.710,2090.240,124.983330,16.67,2.4749,363,23827,1.96505,4.07,52129,,,,,,,,,,,,,,,,,,99999,99999,99999,99999,99999,99999,99999,99999,99999,99999,99999,99999
0:07:49,1510757130,2017-11-15T14:45:37,0.793,6.4,20.62,17.90,22.88,835.770,2089.470,125.983330,16.88,2.4760,363,23819,1.96351,4.07,52124,,,,,,,,,,,,,,,,,,99999,99999,99999,99999,99999,99999,99999,99999,99999,99999,99999,99999
0:08:19,1510757160,2017-11-15T14:46:07,0.791,6.8,20.37,17.61,22.68,835.820,2088.610,125.500000,16.93,2.4771,363,23808,1.95954,4.07,52119,,,,,,,,,,,,,,,,,,99999,99999,99999,99999,99999,99999,99999,99999,99999,99999,99999,99999
0:08:49,1510757190,2017-11-15T14:46:37,0.794,7.2,20.13,17.34,22.46,835.740,2087.730,124.099998,17.38,2.4780,363,23801,1.96749,4.07,52115,,,,,,,,,,,,,,,,,,99999,99999,99999,99999,99999,99999,99999,99999,99999,99999,99999,99999
0:09:19,1510757220,2017-11-15T14:47:07,0.791,7.6,19.86,17.03,22.22,835.800,2086.810,124.250000,17.47,2.4792,363,23791,1.96076,4.07,52110,,,,,,,,,,,,,,,,,,99999,99999,99999,99999,99999,99999,99999,99999,99999,99999,99999,99999
0:09:49,1510757250,2017-11-15T14:47:37,0.790,7.9,19.61,16.76,22.02,835.720,2085.940,124.316666,17.69,2.4803,363,23781,1.95893,4.07,52105,,,,,,,,,,,,,,,,,,99999,99999,99999,99999,99999,99999,99999,99999,99999,99999,99999,99999
0:10:19,1510757280,2017-11-15T14:48:07,0.787,8.3,19.35,16.50,21.78,835.800,2085.060,124.033333,18.05,2.4815,363,23780,1.95190,4.13,52102,,,,,,,,,,,,,,,,,,99999,99999,99999,99999,99999,99999,99999,99999,99999,99999,99999,99999
0:10:49,1510757310,2017-11-15T14:48:37,0.784,8.7,19.09,16.26,21.56,835.780,2084.140,122.650002,18.36,2.4826,363,23778,1.94612,4.13,52104,,,,,,,,,,,,,,,,,,99999,99999,99999,99999,99999,99999,99999,99999,99999,99999,99999,99999
0:11:19,1510757340,2017-11-15T14:49:07,0.787,9.1,18.85,16.08,21.33,835.810,2083.270,123.233330,18.50,2.4836,363,23772,1.95435,4.13,52106,,,,,,,,,,,,,,,,,,99999,99999,99999,99999,99999,99999,99999,99999,99999,99999,99999,99999
0:11:49,1510757370,2017-11-15T14:49:37,0.784,9.5,18.61,15.88,21.09,835.780,2082.510,122.849998,18.92,2.4847,363,23759,1.94916,4.07,52102,,,,,,,,,,,,,,,,,,99999,99999,99999,99999,99999,99999,99999,99999,99999,99999,99999,99999
0:12:19,1510757400,2017-11-15T14:50:07,0.783,9.9,18.36,15.63,20.88,835.830,2081.660,121.066666,18.98,2.4859,363,23756,1.94673,4.07,52098,,,,,,,,,,,,,,,,,,99999,99999,99999,99999,99999,99999,99999,99999,99999,99999,99999,99999
0:12:49,1510757430,2017-11-15T14:50:37,0.783,10.3,18.13,15.38,20.67,835.700,2080.780,121.916664,19.28,2.4868,363,23741,1.94612,4.07,52093,,,,,,,,,,,,,,,,,,99999,99999,99999,99999,99999,99999,99999,99999,99999,99999,99999,99999
0:13:19,1510757460,2017-11-15T14:51:07,0.779,10.7,17.92,15.11,20.44,835.800,2080.030,119.916664,19.62,2.4877,363,23736,1.93669,4.07,52088,,,,,,,,,,,,,,,,,,99999,99999,99999,99999,99999,99999,99999,99999,99999,99999,99999,99999
0:13:49,1510757490,2017-11-15T14:51:37,0.780,11.1,17.69,14.89,20.24,835.770,2079.300,122.083336,20.34,2.4887,363,23733,1.94094,4.13,52085,,,,,,,,,,,,,,,,,,99999,99999,99999,99999,99999,99999,99999,99999,99999,99999,99999,99999
0:14:19,1510757520,2017-11-15T14:52:07,0.776,11.5,17.49,14.71,20.04,835.760,2078.590,120.449997,20.28,2.4896,363,23731,1.93123,4.13,52087,,,,,,,,,,,,,,,,,,99999,99999,99999,99999,99999,99999,99999,99999,99999,99999,99999,99999
0:14:49,1510757550,2017-11-15T14:52:37,0.774,11.9,17.31,14.59,19.86,835.820,2077.960,118.833336,20.79,2.4904,363,23727,1.92850,4.13,52090,,,,,,,,,,,,,,,,,,99999,99999,99999,99999,99999,99999,99999,99999,99999,99999,99999,99999
0:15:19,1510757580,2017-11-15T14:53:07,0.774,12.2,17.14,14.48,19.69,835.760,2077.340,119.466667,20.83,2.4911,363,23726,1.92789,4.13,52092,,,,,,,,,,,,,,,,,,99999,99999,99999,99999,99999,99999,99999,99999,99999,99999,99999,99999
0:15:49,1510757610,2017-11-15T14:53:37,0.775,12.6,16.99,14.37,19.55,835.950,2076.810,118.366669,20.14,2.4918,363,23722,1.93123,4.13,52094,,,,,,,,,,,,,,,,,,99999,99999,99999,99999,99999,99999,99999,99999,99999,99999,99999,99999
0:16:19,1510757640,2017-11-15T14:54:07,0.774,13.0,16.85,14.26,19.40,835.850,2076.350,120.216667,21.17,2.4924,363,23718,1.92941,4.13,52096,,,,,,,,,,,,,,,,,,99999,99999,99999,99999,99999,99999,99999,99999,99999,99999,99999,99999
0:16:49,1510757670,2017-11-15T14:54:37,0.772,13.4,16.71,14.17,19.24,835.830,2075.830,117.566666,21.46,2.4930,363,23716,1.92365,4.13,52098,,,,,,,,,,,,,,,,,,99999,99999,99999,99999,99999,99999,99999,99999,99999,99999,99999,99999
0:17:19,1510757700,2017-11-15T14:55:07,0.777,13.8,16.59,14.06,19.14,835.860,2075.430,119.783333,21.73,2.4935,363,23712,1.93699,4.13,52100,,,,,,,,,,,,,,,,,,99999,99999,99999,99999,99999,99999,99999,99999,99999,99999,99999,99999
0:17:49,1510757730,2017-11-15T14:55:37,0.772,14.2,16.47,13.93,19.02,835.910,2074.980,117.633331,22.06,2.4940,363,23703,1.92426,4.07,52097,,,,,,,,,,,,,,,,,,99999,99999,99999,99999,99999,99999,99999,99999,99999,99999,99999,99999
0:18:19,1510757760,2017-11-15T14:56:07,0.776,14.6,16.35,13.76,18.92,835.850,2074.580,119.449997,21.85,2.4946,363,23702,1.93456,4.13,52093,,,,,,,,,,,,,,,,,,99999,99999,99999,99999,99999,99999,99999,99999,99999,99999,99999,99999
0:18:49,1510757790,2017-11-15T14:56:37,0.770,15.0,16.24,13.60,18.80,835.930,2074.290,116.833336,22.09,2.4952,363,23693,1.92153,4.13,52095,,,,,,,,,,,,,,,,,,99999,99999,99999,99999,99999,99999,99999,99999,99999,99999,99999,99999
0:19:19,1510757820,2017-11-15T14:57:07,0.772,15.3,16.13,13.47,18.66,835.930,2073.830,118.733330,22.45,2.4956,363,23693,1.92729,4.14,52099,,,,,,,,,,,,,,,,,,99999,99999,99999,99999,99999,99999,99999,99999,99999,99999,99999,99999
0:19:49,1510757850,2017-11-15T14:57:37,0.771,15.7,16.02,13.35,18.58,835.930,2073.490,118.300003,22.40,2.4961,363,23688,1.92335,4.14,52102,,,,,,,,,,,,,,,,,,99999,99999,99999,99999,99999,99999,99999,99999,99999,99999,99999,99999
0:20:19,1510757880,2017-11-15T14:58:07,0.767,16.1,15.93,13.24,18.48,835.970,2073.140,117.316666,22.30,2.4965,363,23684,1.91579,4.14,52106,,,,,,,,,,,,,,,,,,99999,99999,99999,99999,99999,99999,99999,99999,99999,99999,99999,99999
0:20:49,1510757910,2017-11-15T14:58:37,0.769,16.5,15.84,13.14,18.40,835.960,2072.850,118.650002,22.55,2.4969,363,23683,1.91972,4.14,52109,,,,,,,,,,,,,,,,,,99999,99999,99999,99999,99999,99999,99999,99999,99999,99999,99999,99999
0:21:19,1510757940,2017-11-15T14:59:07,0.771,16.9,15.76,13.02,18.32,835.930,2072.580,118.916664,22.58,2.4973,363,23680,1.92517,4.14,52112,,,,,,,,,,,,,,,,,,99999,99999,99999,99999,99999,99999,99999,99999,99999,99999,99999,99999
0:21:49,1510757970,2017-11-15T14:59:37,0.771,17.3,15.69,12.93,18.22,835.890,2072.280,118.266670,22.86,2.4975,363,23674,1.92547,4.14,52115,,,,,,,,,,,,,,,,,,99999,99999,99999,99999,99999,99999,99999,99999,99999,99999,99999,99999
0:22:19,1510758000,2017-11-15T15:00:07,0.769,17.7,15.62,12.81,18.16,835.850,2072.110,117.533333,22.63,2.4979,363,23669,1.92214,4.14,52118,,,,,,,,,,,,,,,,,,99999,99999,99999,99999,99999,99999,99999,99999,99999,99999,99999,99999
0:22:49,1510758030,2017-11-15T15:00:37,0.765,18.0,15.55,12.68,18.08,835.900,2071.830,117.300003,23.35,2.4981,363,23667,1.91217,4.13,52121,,,,,,,,,,,,,,,,,,99999,99999,99999,99999,99999,99999,99999,99999,99999,99999,99999,99999
0:23:19,1510758060,2017-11-15T15:01:07,0.771,18.4,15.50,12.56,18.05,835.830,2071.660,118.866669,23.37,2.4984,363,23666,1.92607,4.14,52123,,,,,,,,,,,,,,,,,,99999,99999,99999,99999,99999,99999,99999,99999,99999,99999,99999,99999
0:23:49,1510758090,2017-11-15T15:01:37,0.768,18.8,15.44,12.45,17.97,835.870,2071.490,117.166664,23.15,2.4987,363,23659,1.91942,4.13,52126,,,,,,,,,,,,,,,,,,99999,99999,99999,99999,99999,99999,99999,99999,99999,99999,99999,99999
0:24:19,1510758120,2017-11-15T15:02:07,0.770,19.2,15.37,12.33,17.89,835.860,2071.200,118.250000,23.42,2.4990,363,23654,1.92456,4.13,52128,,,,,,,,,,,,,,,,,,99999,99999,99999,99999,99999,99999,99999,99999,99999,99999,99999,99999
0:24:49,1510758150,2017-11-15T15:02:37,0.769,19.6,15.31,12.22,17.85,835.870,2071.030,118.383331,23.50,2.4993,363,23652,1.92305,4.14,52130,,,,,,,,,,,,,,,,,,99999,99999,99999,99999,99999,99999,99999,99999,99999,99999,99999,99999
0:25:19,1510758180,2017-11-15T15:03:07,0.765,20.0,15.24,12.12,17.77,835.910,2070.800,116.083336,24.12,2.4996,363,23650,1.91127,4.14,52133,,,,,,,,,,,,,,,,,,99999,99999,99999,99999,99999,99999,99999,99999,99999,99999,99999,99999
0:25:49,1510758210,2017-11-15T15:03:37,0.767,20.3,15.19,12.06,17.69,835.970,2070.640,117.566666,23.95,2.4998,363,23646,1.91640,4.14,52137,,,,,,,,,,,,,,,,,,99999,99999,99999,99999,99999,99999,99999,99999,99999,99999,99999,99999
0:26:19,1510758240,2017-11-15T15:04:07,0.766,20.7,15.14,12.02,17.64,835.880,2070.410,116.699997,23.76,2.5000,363,23645,1.91610,4.15,52141,,,,,,,,,,,,,,,,,,99999,99999,99999,99999,99999,99999,99999,99999,99999,99999,99999,99999
0:26:49,1510758270,2017-11-15T15:04:37,0.765,21.1,15.10,11.96,17.59,835.890,2070.280,116.083336,23.67,2.5002,363,23646,1.91278,4.15,52145,,,,,,,,,,,,,,,,,,99999,99999,99999,99999,99999,99999,99999,99999,99999,99999,99999,99999
0:27:19,1510758300,2017-11-15T15:05:07,0.767,21.5,15.07,11.93,17.59,835.870,2070.240,117.949997,24.01,2.5004,363,23645,1.91851,4.15,52150,,,,,,,,,,,,,,,,,,99999,99999,99999,99999,99999,99999,99999,99999,99999,99999,99999,99999
0:27:49,1510758330,2017-11-15T15:05:37,0.765,21.9,15.03,11.92,17.53,835.830,2070.010,117.966667,23.83,2.5005,363,23642,1.91338,4.15,52154,,,,,,,,,,,,,,,,,,99999,99999,99999,99999,99999,99999,99999,99999,99999,99999,99999,99999
0:28:19,1510758360,2017-11-15T15:06:07,0.765,22.3,15.01,11.90,17.50,835.890,2069.940,115.383331,23.72,2.5006,363,23645,1.91187,4.15,52159,,,,,,,,,,,,,,,,,,99999,99999,99999,99999,99999,99999,99999,99999,99999,99999,99999,99999
0:28:49,1510758390,2017-11-15T15:06:37,0.768,22.6,15.01,11.88,17.55,835.890,2069.940,117.699997,23.81,2.5006,363,23645,1.92093,4.16,52164,,,,,,,,,,,,,,,,,,99999,99999,99999,99999,99999,99999,99999,99999,99999,99999,99999,99999
0:29:19,1510758420,2017-11-15T15:07:07,0.765,23.0,15.01,11.87,17.51,835.970,2069.940,118.016670,24.48,2.5005,363,23644,1.91338,4.16,52169,,,,,,,,,,,,,,,,,,99999,99999,99999,99999,99999,99999,99999,99999,99999,99999,99999,99999
0:29:49,1510758450,2017-11-15T15:07:37,0.767,23.4,15.01,11.91,17.50,835.890,2069.940,117.250000,24.13,2.5005,363,23642,1.91700,4.16,52174,,,,,,,,,,,,,,,,,,99999,99999,99999,99999,99999,99999,99999,99999,99999,99999,99999,99999
0:30:19,1510758480,2017-11-15T15:08:07,0.769,23.8,15.01,11.89,17.53,836.020,2069.940,117.849998,24.22,2.5005,363,23646,1.92214,4.16,52179,,,,,,,,,,,,,,,,,,99999,99999,99999,99999,99999,99999,99999,99999,99999,99999,99999,99999
0:30:49,1510758510,2017-11-15T15:08:37,0.770,24.2,15.02,11.90,17.53,836.040,2070.010,117.233330,24.00,2.5006,363,23645,1.92456,4.16,52184,,,,,,,,,,,,,,,,,,99999,99999,99999,99999,99999,99999,99999,99999,99999,99999,99999,99999
0:31:19,1510758540,2017-11-15T15:09:07,0.765,24.6,15.03,11.90,17.56,835.960,2070.010,117.583336,23.95,2.5005,363,23643,1.91308,4.16,52189,,,,,,,,,,,,,,,,,,99999,99999,99999,99999,99999,99999,99999,99999,99999,99999,99999,99999
0:31:49,1510758570,2017-11-15T15:09:37,0.769,24.9,15.05,11.90,17.58,836.060,2070.110,118.616669,24.07,2.5004,363,23645,1.92244,4.16,52194,,,,,,,,,,,,,,,,,,99999,99999,99999,99999,99999,99999,99999,99999,99999,99999,99999,99999
0:32:19,1510758600,2017-11-15T15:10:07,0.769,25.3,15.06,11.91,17.59,835.980,2070.170,118.733330,23.80,2.5004,363,23646,1.92244,4.16,52199,,,,,,,,,,,,,,,,,,99999,99999,99999,99999,99999,99999,99999,99999,99999,99999,99999,99999
0:32:49,1510758630,2017-11-15T15:10:37,0.768,25.7,15.07,11.89,17.64,835.980,2070.240,117.533333,23.92,2.5004,363,23647,1.92153,4.16,52204,,,,,,,,,,,,,,,,,,99999,99999,99999,99999,99999,99999,99999,99999,99999,99999,99999,99999
0:33:19,1510758660,2017-11-15T15:11:07,0.765,26.1,15.07,11.88,17.63,835.950,2070.240,114.683334,23.82,2.5004,363,23645,1.91217,4.16,52209,,,,,,,,,,,,,,,,,,99999,99999,99999,99999,99999,99999,99999,99999,99999,99999,99999,99999
0:33:49,1510758690,2017-11-15T15:11:37,0.765,26.5,15.09,11.85,17.64,836.000,2070.280,114.816666,24.11,2.5003,363,23644,1.91308,4.15,52213,,,,,,,,,,,,,,,,,,99999,99999,99999,99999,99999,99999,99999,99999,99999,99999,99999,99999
0:34:19,1510758720,2017-11-15T15:12:07,0.765,26.9,15.09,11.84,17.66,836.020,2070.280,115.916664,24.12,2.5003,363,23644,1.91368,4.15,52217,,,,,,,,,,,,,,,,,,99999,99999,99999,99999,99999,99999,99999,99999,99999,99999,99999,99999
0:34:49,1510758750,2017-11-15T15:12:37,0.765,27.2,15.10,11.78,17.69,836.000,2070.280,116.800003,24.17,2.5002,363,23641,1.91338,4.15,52221,,,,,,,,,,,,,,,,,,99999,99999,99999,99999,99999,99999,99999,99999,99999,99999,99999,99999
0:35:19,1510758780,2017-11-15T15:13:07,0.765,27.6,15.11,11.77,17.67,835.990,2070.340,117.300003,24.60,2.5001,363,23638,1.91217,4.15,52225,,,,,,,,,,,,,,,,,,99999,99999,99999,99999,99999,99999,99999,99999,99999,99999,99999,99999
0:35:49,1510758810,2017-11-15T15:13:37,0.767,28.0,15.11,11.74,17.69,835.990,2070.340,116.083336,24.18,2.5001,363,23638,1.91730,4.15,52229,,,,,,,,,,,,,,,,,,99999,99999,99999,99999,99999,99999,99999,99999,99999,99999,99999,99999
0:36:19,1510758840,2017-11-15T15:14:07,0.767,28.4,15.13,11.71,17.70,835.940,2070.410,117.300003,24.09,2.5001,363,23638,1.91791,4.15,52233,,,,,,,,,,,,,,,,,,99999,99999,99999,99999,99999,99999,99999,99999,99999,99999,99999,99999
0:36:49,1510758870,2017-11-15T15:14:37,0.763,28.8,15.14,11.70,17.72,835.880,2070.410,117.316666,24.30,2.5000,363,23637,1.90705,4.15,52237,,,,,,,,,,,,,,,,,,99999,99999,99999,99999,99999,99999,99999,99999,99999,99999,99999,99999
0:37:19,1510758900,2017-11-15T15:15:07,0.766,29.2,15.16,11.69,17.70,835.880,2070.440,117.733330,23.79,2.4999,363,23638,1.91489,4.15,52241,,,,,,,,,,,,,,,,,,99999,99999,99999,99999,99999,99999,99999,99999,99999,99999,99999,99999
0:37:49,1510758930,2017-11-15T15:15:37,0.769,29.5,15.18,11.67,17.74,835.870,2070.570,118.633331,23.68,2.4998,363,23636,1.92184,4.15,52245,,,,,,,,,,,,,,,,,,99999,99999,99999,99999,99999,99999,99999,99999,99999,99999,99999,99999
0:38:19,1510758960,2017-11-15T15:16:07,0.770,29.9,15.18,11.64,17.77,835.920,2070.570,117.216667,23.97,2.4998,363,23630,1.92517,4.08,52246,,,,,,,,,,,,,,,,,,99999,99999,99999,99999,99999,99999,99999,99999,99999,99999,99999,99999
0:38:49,1510758990,2017-11-15T15:16:37,0.764,30.3,15.19,11.60,17.75,835.890,2070.640,115.166664,24.11,2.4998,363,23633,1.90916,4.14,52247,,,,,,,,,,,,,,,,,,99999,99999,99999,99999,99999,99999,99999,99999,99999,99999,99999,99999
0:39:19,1510759020,2017-11-15T15:17:07,0.766,30.7,15.17,11.56,17.75,835.850,2070.570,116.116669,24.06,2.4999,363,23626,1.91610,4.08,52244,,,,,,,,,,,,,,,,,,99999,99999,99999,99999,99999,99999,99999,99999,99999,99999,99999,99999
0:39:49,1510759050,2017-11-15T15:17:37,0.769,31.1,15.14,11.46,17.72,835.780,2070.410,117.966667,24.08,2.5000,363,23623,1.92275,4.08,52240,,,,,,,,,,,,,,,,,,99999,99999,99999,99999,99999,99999,99999,99999,99999,99999,99999,99999
0:40:19,1510759080,2017-11-15T15:18:07,0.768,31.5,15.10,11.33,17.70,835.780,2070.280,116.050003,24.36,2.5001,363,23621,1.92033,4.07,52235,,,,,,,,,,,,,,,,,,99999,99999,99999,99999,99999,99999,99999,99999,99999,99999,99999,99999
0:40:49,1510759110,2017-11-15T15:18:37,0.766,31.8,15.06,11.22,17.69,835.840,2070.170,117.316666,24.72,2.5003,363,23614,1.91428,4.07,52231,,,,,,,,,,,,,,,,,,99999,99999,99999,99999,99999,99999,99999,99999,99999,99999,99999,99999
0:41:19,1510759140,2017-11-15T15:19:07,0.764,32.2,15.01,11.13,17.61,835.830,2069.940,116.233330,24.42,2.5005,363,23611,1.91036,4.07,52228,,,,,,,,,,,,,,,,,,99999,99999,99999,99999,99999,99999,99999,99999,99999,99999,99999,99999
0:41:49,1510759170,2017-11-15T15:19:37,0.764,32.6,14.97,11.07,17.51,835.810,2069.820,115.316666,24.39,2.5007,363,23611,1.91006,4.07,52223,,,,,,,,,,,,,,,,,,99999,99999,99999,99999,99999,99999,99999,99999,99999,99999,99999,99999
0:42:19,1510759200,2017-11-15T15:20:07,0.767,33.0,14.93,10.99,17.48,835.820,2069.720,115.750000,23.99,2.5010,363,23611,1.91730,4.13,52224,,,,,,,,,,,,,,,,,,99999,99999,99999,99999,99999,99999,99999,99999,99999,99999,99999,99999
0:42:49,1510759230,2017-11-15T15:20:37,0.765,33.4,14.86,10.95,17.39,835.710,2069.420,115.133331,24.48,2.5012,363,23611,1.91248,4.13,52224,,,,,,,,,,,,,,,,,,99999,99999,99999,99999,99999,99999,99999,99999,99999,99999,99999,99999
0:43:19,1510759260,2017-11-15T15:21:07,0.764,33.8,14.78,10.90,17.35,835.800,2069.190,116.116669,24.23,2.5017,363,23604,1.91006,4.07,52220,,,,,,,,,,,,,,,,,,99999,99999,99999,99999,99999,99999,99999,99999,99999,99999,99999,99999
0:43:49,1510759290,2017-11-15T15:21:37,0.768,34.1,14.71,10.79,17.28,835.770,2068.920,115.983330,24.44,2.5019,363,23601,1.92123,4.07,52215,,,,,,,,,,,,,,,,,,99999,99999,99999,99999,99999,99999,99999,99999,99999,99999,99999,99999
0:44:19,1510759320,2017-11-15T15:22:07,0.764,34.5,14.63,10.71,17.16,835.700,2068.630,116.783333,24.73,2.5023,363,23599,1.91278,4.07,52211,,,,,,,,,,,,,,,,,,99999,99999,99999,99999,99999,99999,99999,99999,99999,99999,99999,99999
0:44:49,1510759350,2017-11-15T15:22:37,0.765,34.9,14.55,10.62,17.11,835.770,2068.400,116.800003,24.79,2.5027,363,23598,1.91519,4.07,52206,,,,,,,,,,,,,,,,,,99999,99999,99999,99999,99999,99999,99999,99999,99999,99999,99999,99999
0:45:19,1510759380,2017-11-15T15:23:07,0.762,35.3,14.44,10.50,16.98,835.750,2068.000,114.066666,25.08,2.5032,363,23595,1.90735,4.07,52202,,,,,,,,,,,,,,,,,,99999,99999,99999,99999,99999,99999,99999,99999,99999,99999,99999,99999
0:45:49,1510759410,2017-11-15T15:23:37,0.760,35.7,14.38,10.44,16.89,835.810,2067.840,113.066666,24.94,2.5035,363,23593,1.90193,4.07,52197,,,,,,,,,,,,,,,,,,99999,99999,99999,99999,99999,99999,99999,99999,99999,99999,99999,99999
0:46:19,1510759440,2017-11-15T15:24:07,0.764,36.0,14.28,10.37,16.78,835.780,2067.480,116.016670,25.29,2.5039,363,23591,1.91368,4.07,52193,,,,,,,,,,,,,,,,,,99999,99999,99999,99999,99999,99999,99999,99999,99999,99999,99999,99999
0:46:49,1510759470,2017-11-15T15:24:37,0.764,36.4,14.18,10.29,16.67,835.830,2067.090,116.199997,25.42,2.5043,363,23589,1.91338,4.07,52188,,,,,,,,,,,,,,,,,,99999,99999,99999,99999,99999,99999,99999,99999,99999,99999,99999,99999
0:47:19,1510759500,2017-11-15T15:25:07,0.760,36.8,14.10,10.24,16.58,835.790,2066.820,113.699997,25.37,2.5047,363,23585,1.90404,4.07,52186,,,,,,,,,,,,,,,,,,99999,99999,99999,99999,99999,99999,99999,99999,99999,99999,99999,99999
0:47:49,1510759530,2017-11-15T15:25:37,0.764,37.2,14.01,10.16,16.48,835.760,2066.520,114.550003,25.53,2.5051,363,23584,1.91338,4.07,52182,,,,,,,,,,,,,,,,,,99999,99999,99999,99999,99999,99999,99999,99999,99999,99999,99999,99999
0:48:19,1510759560,2017-11-15T15:26:07,0.762,37.6,13.92,10.09,16.39,835.780,2066.190,115.349998,25.68,2.5055,363,23580,1.90946,4.07,52177,,,,,,,,,,,,,,,,,,99999,99999,99999,99999,99999,99999,99999,99999,99999,99999,99999,99999
0:48:49,1510759590,2017-11-15T15:26:37,0.757,37.9,13.82,10.02,16.24,835.750,2065.830,113.116669,25.73,2.5060,363,23579,1.89623,4.07,52173,,,,,,,,,,,,,,,,,,99999,99999,99999,99999,99999,99999,99999,99999,99999,99999,99999,99999
0:49:19,1510759620,2017-11-15T15:27:07,0.761,38.3,13.72,9.95,16.19,835.720,2065.500,115.383331,26.01,2.5064,363,23582,1.90705,4.13,52170,,,,,,,,,,,,,,,,,,99999,99999,99999,99999,99999,99999,99999,99999,99999,99999,99999,99999
0:49:49,1510759650,2017-11-15T15:27:37,0.760,38.7,13.64,9.95,16.08,835.740,2065.210,114.433334,26.34,2.5067,363,23582,1.90404,4.13,52173,,,,,,,,,,,,,,,,,,99999,99999,99999,99999,99999,99999,99999,99999,99999,99999,99999,99999
0:50:19,1510759680,2017-11-15T15:28:07,0.760,39.1,13.57,10.00,16.01,835.730,2065.000,115.133331,26.94,2.5071,363,23583,1.90464,4.14,52175,,,,,,,,,,,,,,,,,,99999,99999,99999,99999,99999,99999,99999,99999,99999,99999,99999,99999
0:50:49,1510759710,2017-11-15T15:28:37,0.761,39.5,13.50,10.04,15.90,835.690,2064.770,114.583336,27.32,2.5074,363,23585,1.90886,4.14,52179,,,,,,,,,,,,,,,,,,99999,99999,99999,99999,99999,99999,99999,99999,99999,99999,99999,99999
0:51:19,1510759740,2017-11-15T15:29:07,0.754,39.8,13.46,10.13,15.85,835.730,2064.600,113.366669,26.91,2.5076,363,23590,1.89083,4.13,52182,,,,,,,,,,,,,,,,,,99999,99999,99999,99999,99999,99999,99999,99999,99999,99999,99999,99999
0:51:49,1510759770,2017-11-15T15:29:37,0.760,40.2,13.42,10.16,15.82,835.710,2064.480,116.133331,27.27,2.5077,363,23583,1.90585,4.07,52179,,,,,,,,,,,,,,,,,,99999,99999,99999,99999,99999,99999,99999,99999,99999,99999,99999,99999
0:52:19,1510759800,2017-11-15T15:30:07,0.755,40.6,13.38,10.09,15.77,835.690,2064.380,113.983330,27.01,2.5080,363,23582,1.89413,4.10,52176,,,,,,,,,,,,,,,,,,99999,99999,99999,99999,99999,99999,99999,99999,99999,99999,99999,99999
0:52:49,1510759830,2017-11-15T15:30:37,0.755,41.0,13.34,10.02,15.73,835.720,2064.150,113.866669,26.63,2.5081,363,23580,1.89322,4.10,52174,,,,,,,,,,,,,,,,,,99999,99999,99999,99999,99999,99999,99999,99999,99999,99999,99999,99999
0:53:19,1510759860,2017-11-15T15:31:07,0.758,41.4,13.29,9.95,15.74,835.710,2064.020,114.583336,26.64,2.5084,363,23576,1.90103,4.09,52172,,,,,,,,,,,,,,,,,,99999,99999,99999,99999,99999,99999,99999,99999,99999,99999,99999,99999
0:53:49,1510759890,2017-11-15T15:31:37,0.757,41.7,13.24,9.86,15.63,835.670,2063.850,115.316666,26.96,2.5086,363,23572,1.89863,4.09,52170,,,,,,,,,,,,,,,,,,99999,99999,99999,99999,99999,99999,99999,99999,99999,99999,99999,99999
0:54:19,1510759920,2017-11-15T15:32:07,0.757,42.1,13.18,9.77,15.56,835.610,2063.620,114.566666,27.20,2.5088,363,23569,1.89923,4.09,52168,,,,,,,,,,,,,,,,,,99999,99999,99999,99999,99999,99999,99999,99999,99999,99999,99999,99999
0:54:49,1510759950,2017-11-15T15:32:37,0.755,42.5,13.13,9.70,15.50,835.720,2063.460,113.099998,27.12,2.5091,363,23569,1.89473,4.09,52165,,,,,,,,,,,,,,,,,,99999,99999,99999,99999,99999,99999,99999,99999,99999,99999,99999,99999
0:55:19,1510759980,2017-11-15T15:33:07,0.756,42.9,13.05,9.63,15.47,835.690,2063.180,114.599998,27.48,2.5094,363,23568,1.89833,4.09,52163,,,,,,,,,,,,,,,,,,99999,99999,99999,99999,99999,99999,99999,99999,99999,99999,99999,99999
0:55:49,1510760010,2017-11-15T15:33:37,0.754,43.2,13.01,9.55,15.40,835.670,2063.060,111.783333,28.08,2.5096,363,23564,1.89322,4.09,52160,,,,,,,,,,,,,,,,,,99999,99999,99999,99999,99999,99999,99999,99999,99999,99999,99999,99999
0:56:19,1510760040,2017-11-15T15:34:07,0.757,43.6,12.94,9.49,15.29,835.660,2062.790,114.333336,28.01,2.5099,363,23563,1.90103,4.09,52158,,,,,,,,,,,,,,,,,,99999,99999,99999,99999,99999,99999,99999,99999,99999,99999,99999,99999
0:56:49,1510760070,2017-11-15T15:34:37,0.756,44.0,12.88,9.45,15.19,835.650,2062.600,115.566666,28.56,2.5102,363,23563,1.89863,4.09,52156,,,,,,,,,,,,,,,,,,99999,99999,99999,99999,99999,99999,99999,99999,99999,99999,99999,99999
0:57:19,1510760100,2017-11-15T15:35:07,0.752,44.4,12.81,9.39,15.11,835.710,2062.330,114.400002,28.20,2.5105,363,23559,1.88753,4.09,52154,,,,,,,,,,,,,,,,,,99999,99999,99999,99999,99999,99999,99999,99999,99999,99999,99999,99999
0:57:49,1510760130,2017-11-15T15:35:37,0.749,44.7,12.74,9.33,15.02,835.700,2062.100,112.150002,28.24,2.5108,363,23556,1.88065,4.09,52152,,,,,,,,,,,,,,,,,,99999,99999,99999,99999,99999,99999,99999,99999,99999,99999,99999,99999
0:58:19,1510760160,2017-11-15T15:36:07,0.750,45.1,12.67,9.29,14.94,835.640,2061.870,112.866669,28.69,2.5111,363,23555,1.88364,4.09,52149,,,,,,,,,,,,,,,,,,99999,99999,99999,99999,99999,99999,99999,99999,99999,99999,99999,99999
0:58:49,1510760190,2017-11-15T15:36:37,0.751,45.5,12.60,9.23,14.85,835.660,2061.640,113.216667,28.53,2.5115,363,23553,1.88693,4.09,52147,,,,,,,,,,,,,,,,,,99999,99999,99999,99999,99999,99999,99999,99999,99999,99999,99999,99999
0:59:19,1510760220,2017-11-15T15:37:07,0.749,45.9,12.52,9.17,14.73,835.700,2061.370,111.783333,28.61,2.5119,363,23552,1.88065,4.09,52144,,,,,,,,,,,,,,,,,,99999,99999,99999,99999,99999,99999,99999,99999,99999,99999,99999,99999
0:59:49,1510760250,2017-11-15T15:37:37,0.754,46.3,12.47,9.11,14.66,835.660,2061.200,112.849998,28.43,2.5121,363,23549,1.89532,4.09,52142,,,,,,,,,,,,,,,,,,99999,99999,99999,99999,99999,99999,99999,99999,99999,99999,99999,99999
1:00:19,1510760280,2017-11-15T15:38:07,0.755,46.6,12.39,9.04,14.58,835.700,2060.910,113.400002,28.56,2.5125,363,23550,1.89623,4.09,52140,,,,,,,,,,,,,,,,,,99999,99999,99999,99999,99999,99999,99999,99999,99999,99999,99999,99999
1:00:49,1510760310,2017-11-15T15:38:37,0.754,47.0,12.33,9.00,14.47,835.710,2060.680,111.216667,28.42,2.5127,363,23546,1.89532,4.09,52137,,,,,,,,,,,,,,,,,,99999,99999,99999,99999,99999,99999,99999,99999,99999,99999,99999,99999
1:01:19,1510760340,2017-11-15T15:39:07,0.752,47.4,12.25,8.96,14.44,835.680,2060.410,114.633331,27.56,2.5132,363,23544,1.89053,4.09,52135,,,,,,,,,,,,,,,,,,99999,99999,99999,99999,99999,99999,99999,99999,99999,99999,99999,99999
1:01:49,1510760370,2017-11-15T15:39:37,0.747,47.8,12.17,8.92,14.34,835.650,2060.180,111.333336,27.77,2.5136,363,23544,1.87856,4.09,52133,,,,,,,,,,,,,,,,,,99999,99999,99999,99999,99999,99999,99999,99999,99999,99999,99999,99999
1:02:19,1510760400,2017-11-15T15:40:07,0.746,48.1,12.12,8.90,14.24,835.610,2059.950,110.966667,26.62,2.5138,363,23544,1.87588,4.09,52132,,,,,,,,,,,,,,,,,,99999,99999,99999,99999,99999,99999,99999,99999,99999,99999,99999,99999
1:02:49,1510760430,2017-11-15T15:40:37,0.743,48.5,12.06,8.86,14.16,835.620,2059.790,114.400002,27.18,2.5141,363,23544,1.86694,4.10,52130,,,,,,,,,,,,,,,,,,99999,99999,99999,99999,99999,99999,99999,99999,99999,99999,99999,99999
1:03:19,1510760460,2017-11-15T15:41:07,0.750,48.9,12.02,8.86,14.13,835.680,2059.620,114.733330,27.06,2.5143,363,23544,1.88574,4.10,52128,,,,,,,,,,,,,,,,,,99999,99999,99999,99999,99999,99999,99999,99999,99999,99999,99999,99999
1:03:49,1510760490,2017-11-15T15:41:37,0.753,49.3,11.96,8.86,14.05,835.800,2059.450,113.266670,27.04,2.5146,363,23542,1.89233,4.09,52126,,,,,,,,,,,,,,,,,,99999,99999,99999,99999,99999,99999,99999,99999,99999,99999,99999,99999
1:04:19,1510760520,2017-11-15T15:42:07,0.746,49.6,11.92,8.83,14.00,835.670,2059.260,111.449997,28.28,2.5147,363,23544,1.87647,4.10,52125,,,,,,,,,,,,,,,,,,99999,99999,99999,99999,99999,99999,99999,99999,99999,99999,99999,99999
1:04:49,1510760550,2017-11-15T15:42:37,0.745,50.0,11.88,8.86,13.94,835.680,2059.090,110.283333,27.52,2.5149,363,23543,1.87290,4.10,52123,,,,,,,,,,,,,,,,,,99999,99999,99999,99999,99999,99999,99999,99999,99999,99999,99999,99999
1:05:19,1510760580,2017-11-15T15:43:07,0.749,50.4,11.84,8.85,13.85,835.610,2058.990,113.416664,27.41,2.5151,363,23545,1.88454,4.10,52122,,,,,,,,,,,,,,,,,,99999,99999,99999,99999,99999,99999,99999,99999,99999,99999,99999,99999
1:05:49,1510760610,2017-11-15T15:43:37,0.747,50.7,11.83,8.87,13.85,835.560,2058.990,118.250000,28.29,2.5152,363,23543,1.87976,4.10,52121,,,,,,,,,,,,,,,,,,99999,99999,99999,99999,99999,99999,99999,99999,99999,99999,99999,99999
1:06:19,1510760640,2017-11-15T15:44:07,0.750,51.1,11.80,8.86,13.81,835.750,2058.890,111.666664,28.72,2.5153,363,23544,1.88693,4.10,52120,,,,,,,,,,,,,,,,,,99999,99999,99999,99999,99999,99999,99999,99999,99999,99999,99999,99999
1:06:49,1510760670,2017-11-15T15:44:37,0.746,51.5,11.79,8.86,13.79,835.670,2058.820,109.916664,28.46,2.5153,363,23545,1.87647,4.10,52119,,,,,,,,,,,,,,,,,,99999,99999,99999,99999,99999,99999,99999,99999,99999,99999,99999,99999
1:07:19,1510760700,2017-11-15T15:45:07,0.751,51.9,11.76,8.89,13.71,835.630,2058.700,114.166664,27.14,2.5155,363,23543,1.88903,4.07,52117,,,,,,,,,,,,,,,,,,99999,99999,99999,99999,99999,99999,99999,99999,99999,99999,99999,99999
1:07:49,1510760730,2017-11-15T15:45:37,0.752,52.2,11.76,8.90,13.74,835.660,2058.700,112.833336,28.23,2.5154,363,23546,1.89113,4.13,52114,,,,,,,,,,,,,,,,,,99999,99999,99999,99999,99999,99999,99999,99999,99999,99999,99999,99999
1:08:19,1510760760,2017-11-15T15:46:07,0.748,52.6,11.73,8.99,13.71,835.510,2058.590,114.616669,28.34,2.5156,363,23549,1.88095,4.14,52117,,,,,,,,,,,,,,,,,,99999,99999,99999,99999,99999,99999,99999,99999,99999,99999,99999,99999
1:08:49,1510760790,2017-11-15T15:46:37,0.750,53.0,11.75,9.09,13.76,835.580,2058.660,116.466667,27.41,2.5155,363,23551,1.88544,4.07,52116,,,,,,,,,,,,,,,,,,99999,99999,99999,99999,99999,99999,99999,99999,99999,99999,99999,99999
1:09:19,1510760820,2017-11-15T15:47:07,0.747,53.4,11.76,9.12,13.73,835.610,2058.700,112.349998,26.57,2.5155,363,23551,1.87976,4.10,52114,,,,,,,,,,,,,,,,,,99999,99999,99999,99999,99999,99999,99999,99999,99999,99999,99999,99999
1:09:49,1510760850,2017-11-15T15:47:37,0.747,53.7,11.78,9.12,13.71,835.520,2058.820,116.416664,26.66,2.5155,363,23551,1.87886,4.10,52113,,,,,,,,,,,,,,,,,,99999,99999,99999,99999,99999,99999,99999,99999,99999,99999,99999,99999
1:10:19,1510760880,2017-11-15T15:48:07,0.747,54.1,11.79,9.11,13.76,835.540,2058.820,111.750000,25.82,2.5155,363,23550,1.87916,4.11,52112,,,,,,,,,,,,,,,,,,99999,99999,99999,99999,99999,99999,99999,99999,99999,99999,99999,99999
1:10:49,1510760910,2017-11-15T15:48:37,0.749,54.5,11.79,9.11,13.79,835.490,2058.820,115.116669,26.68,2.5154,363,23549,1.88484,4.07,52108,,,,,,,,,,,,,,,,,,99999,99999,99999,99999,99999,99999,99999,99999,99999,99999,99999,99999
1:11:19,1510760940,2017-11-15T15:49:07,0.747,54.9,11.82,9.11,13.77,835.410,2058.930,115.616669,25.88,2.5153,363,23548,1.87856,4.07,52104,,,,,,,,,,,,,,,,,,99999,99999,99999,99999,99999,99999,99999,99999,99999,99999,99999,99999
1:11:49,1510760970,2017-11-15T15:49:37,0.750,55.2,11.83,9.12,13.79,835.510,2058.990,117.033333,25.19,2.5154,363,23548,1.88634,4.07,52099,,,,,,,,,,,,,,,,,,99999,99999,99999,99999,99999,99999,99999,99999,99999,99999,99999,99999
1:12:19,1510761000,2017-11-15T15:50:07,0.743,55.6,11.85,9.14,13.79,835.530,2059.050,114.033333,24.96,2.5153,363,23552,1.86902,4.13,52100,,,,,,,,,,,,,,,,,,99999,99999,99999,99999,99999,99999,99999,99999,99999,99999,99999,99999
1:12:49,1510761030,2017-11-15T15:50:37,0.743,56.0,11.88,9.18,13.84,835.550,2059.090,113.916664,25.85,2.5150,363,23552,1.86962,4.13,52102,,,,,,,,,,,,,,,,,,99999,99999,99999,99999,99999,99999,99999,99999,99999,99999,99999,99999
1:13:19,1510761060,2017-11-15T15:51:07,0.746,56.4,11.91,9.22,13.84,835.460,2059.260,110.483330,25.42,2.5150,363,23556,1.87588,4.13,52104,,,,,,,,,,,,,,,,,,99999,99999,99999,99999,99999,99999,99999,99999,99999,99999,99999,99999
1:13:49,1510761090,2017-11-15T15:51:37,0.749,56.7,11.93,9.26,13.90,835.490,2059.320,115.483330,24.83,2.5149,363,23556,1.88334,4.14,52107,,,,,,,,,,,,,,,,,,99999,99999,99999,99999,99999,99999,99999,99999,99999,99999,99999,99999
1:14:19,1510761120,2017-11-15T15:52:07,0.750,57.1,11.96,9.36,13.87,835.480,2059.450,117.183334,24.71,2.5148,363,23561,1.88514,4.14,52110,,,,,,,,,,,,,,,,,,99999,99999,99999,99999,99999,99999,99999,99999,99999,99999,99999,99999
1:14:49,1510761150,2017-11-15T15:52:37,0.751,57.5,12.01,9.50,13.95,835.500,2059.560,114.883331,25.71,2.5144,363,23568,1.88873,4.14,52114,,,,,,,,,,,,,,,,,,99999,99999,99999,99999,99999,99999,99999,99999,99999,99999,99999,99999
1:15:19,1510761180,2017-11-15T15:53:07,0.753,57.9,12.04,9.60,14.00,835.490,2059.720,115.266670,25.84,2.5143,363,23568,1.89263,4.13,52117,,,,,,,,,,,,,,,,,,99999,99999,99999,99999,99999,99999,99999,99999,99999,99999,99999,99999
1:15:49,1510761210,2017-11-15T15:53:37,0.747,58.2,12.10,9.68,14.06,835.450,2059.890,122.666664,24.67,2.5141,363,23574,1.87767,4.14,52120,,,,,,,,,,,,,,,,,,99999,99999,99999,99999,99999,99999,99999,99999,99999,99999,99999,99999
1:16:19,1510761240,2017-11-15T15:54:07,0.748,58.6,12.15,9.80,14.08,835.360,2060.060,111.366669,24.87,2.5138,363,23576,1.87976,4.14,52124,,,,,,,,,,,,,,,,,,99999,99999,99999,99999,99999,99999,99999,99999,99999,99999,99999,99999
1:16:49,1510761270,2017-11-15T15:54:37,0.751,59.0,12.22,9.90,14.15,835.370,2060.290,115.916664,24.85,2.5135,363,23579,1.88753,4.14,52128,,,,,,,,,,,,,,,,,,99999,99999,99999,99999,99999,99999,99999,99999,99999,99999,99999,99999
1:17:19,1510761300,2017-11-15T15:55:07,0.746,59.4,12.27,9.99,14.24,835.410,2060.450,122.150002,24.52,2.5133,363,23585,1.87379,4.15,52132,,,,,,,,,,,,,,,,,,99999,99999,99999,99999,99999,99999,99999,99999,99999,99999,99999,99999
1:17:49,1510761330,2017-11-15T15:55:37,0.753,59.7,12.34,10.13,14.26,835.420,2060.740,116.900002,24.89,2.5130,363,23586,1.89203,4.16,52137,,,,,,,,,,,,,,,,,,99999,99999,99999,99999,99999,99999,99999,99999,99999,99999,99999,99999
1:18:19,1510761360,2017-11-15T15:56:07,0.750,60.1,12.39,10.22,14.32,835.360,2060.910,117.783333,24.87,2.5127,363,23593,1.88364,4.15,52143,,,,,,,,,,,,,,,,,,99999,99999,99999,99999,99999,99999,99999,99999,99999,99999,99999,99999
1:18:49,1510761390,2017-11-15T15:56:37,0.749,60.5,12.48,10.32,14.40,835.390,2061.200,122.883331,25.03,2.5123,363,23596,1.88215,4.15,52147,,,,,,,,,,,,,,,,,,99999,99999,99999,99999,99999,99999,99999,99999,99999,99999,99999,99999
1:19:19,1510761420,2017-11-15T15:57:07,0.751,60.9,12.53,10.41,14.52,835.510,2061.370,112.616669,25.17,2.5120,363,23597,1.88604,4.16,52151,,,,,,,,,,,,,,,,,,99999,99999,99999,99999,99999,99999,99999,99999,99999,99999,99999,99999
1:19:49,1510761450,2017-11-15T15:57:37,0.751,61.2,12.60,10.49,14.60,835.390,2061.640,117.233330,25.01,2.5117,363,23599,1.88544,4.16,52156,,,,,,,,,,,,,,,,,,99999,99999,99999,99999,99999,99999,99999,99999,99999,99999,99999,99999
1:20:19,1510761480,2017-11-15T15:58:07,0.748,61.6,12.69,10.59,14.65,835.400,2061.990,119.616669,24.88,2.5114,363,23604,1.87886,4.17,52162,,,,,,,,,,,,,,,,,,99999,99999,99999,99999,99999,99999,99999,99999,99999,99999,99999,99999
1:20:49,1510761510,2017-11-15T15:58:37,0.753,62.0,12.76,10.73,14.71,835.430,2062.160,115.483330,24.99,2.5109,363,23610,1.89023,4.17,52168,,,,,,,,,,,,,,,,,,99999,99999,99999,99999,99999,99999,99999,99999,99999,99999,99999,99999
1:21:19,1510761540,2017-11-15T15:59:07,0.754,62.4,12.84,10.86,14.84,835.440,2062.500,114.033333,23.84,2.5107,363,23614,1.89322,4.17,52175,,,,,,,,,,,,,,,,,,99999,99999,99999,99999,99999,99999,99999,99999,99999,99999,99999,99999
1:21:49,1510761570,2017-11-15T15:59:37,0.756,62.7,12.92,11.00,14.89,835.320,2062.730,119.116669,23.85,2.5103,363,23618,1.89773,4.17,52181,,,,,,,,,,,,,,,,,,99999,99999,99999,99999,99999,99999,99999,99999,99999,99999,99999,99999
1:22:19,1510761600,2017-11-15T16:00:07,0.754,63.1,13.01,11.11,15.00,835.300,2063.060,113.900002,23.78,2.5099,363,23619,1.89173,4.16,52187,,,,,,,,,,,,,,,,,,99999,99999,99999,99999,99999,99999,99999,99999,99999,99999,99999,99999
1:22:49,1510761630,2017-11-15T16:00:37,0.754,63.5,13.09,11.20,15.08,835.330,2063.350,116.449997,23.75,2.5095,363,23621,1.89113,4.16,52193,,,,,,,,,,,,,,,,,,99999,99999,99999,99999,99999,99999,99999,99999,99999,99999,99999,99999
1:23:19,1510761660,2017-11-15T16:01:07,0.754,63.9,13.15,11.25,15.18,835.210,2063.520,119.699997,23.14,2.5093,363,23626,1.89263,4.17,52198,,,,,,,,,,,,,,,,,,99999,99999,99999,99999,99999,99999,99999,99999,99999,99999,99999,99999
1:23:49,1510761690,2017-11-15T16:01:37,0.752,64.2,13.25,11.32,15.26,835.350,2063.910,118.699997,23.30,2.5088,363,23626,1.88783,4.16,52204,,,,,,,,,,,,,,,,,,99999,99999,99999,99999,99999,99999,99999,99999,99999,99999,99999,99999
1:24:19,1510761720,2017-11-15T16:02:07,0.758,64.6,13.32,11.36,15.37,835.380,2064.080,117.000000,23.46,2.5084,363,23630,1.90223,4.16,52209,,,,,,,,,,,,,,,,,,99999,99999,99999,99999,99999,99999,99999,99999,99999,99999,99999,99999
1:24:49,1510761750,2017-11-15T16:02:37,0.758,65.0,13.38,11.39,15.44,835.240,2064.380,121.083336,23.09,2.5083,363,23631,1.90073,4.16,52215,,,,,,,,,,,,,,,,,,99999,99999,99999,99999,99999,99999,99999,99999,99999,99999,99999,99999
1:25:19,1510761780,2017-11-15T16:03:07,0.759,65.4,13.45,11.46,15.50,835.040,2064.540,120.933334,22.91,2.5079,363,23631,1.90434,4.17,52220,,,,,,,,,,,,,,,,,,99999,99999,99999,99999,99999,99999,99999,99999,99999,99999,99999,99999
1:25:49,1510761810,2017-11-15T16:03:37,0.756,65.8,13.49,11.50,15.52,835.190,2064.710,124.150002,23.14,2.5077,363,23631,1.89623,4.16,52226,,,,,,,,,,,,,,,,,,99999,99999,99999,99999,99999,99999,99999,99999,99999,99999,99999,99999
1:26:19,1510761840,2017-11-15T16:04:07,0.755,66.1,13.55,11.52,15.60,835.150,2064.940,119.199997,22.28,2.5075,363,23632,1.89353,4.17,52231,,,,,,,,,,,,,,,,,,99999,99999,99999,99999,99999,99999,99999,99999,99999,99999,99999,99999
1:26:49,1510761870,2017-11-15T16:04:37,0.759,66.5,13.60,11.56,15.65,835.290,2065.040,119.816666,23.67,2.5071,363,23632,1.90284,4.16,52236,,,,,,,,,,,,,,,,,,99999,99999,99999,99999,99999,99999,99999,99999,99999,99999,99999,99999
1:27:19,1510761900,2017-11-15T16:05:07,0.761,66.9,13.65,11.63,15.69,835.120,2065.270,118.233330,23.71,2.5069,363,23635,1.90826,4.16,52241,,,,,,,,,,,,,,,,,,99999,99999,99999,99999,99999,99999,99999,99999,99999,99999,99999,99999
1:27:49,1510761930,2017-11-15T16:05:37,0.755,67.3,13.70,11.67,15.77,835.170,2065.440,121.683334,22.87,2.5067,363,23638,1.89203,4.17,52248,,,,,,,,,,,,,,,,,,99999,99999,99999,99999,99999,99999,99999,99999,99999,99999,99999,99999
1:28:19,1510761960,2017-11-15T16:06:07,0.755,67.6,13.75,11.74,15.81,835.210,2065.630,119.349998,23.08,2.5065,363,23638,1.89292,4.17,52254,,,,,,,,,,,,,,,,,,99999,99999,99999,99999,99999,99999,99999,99999,99999,99999,99999,99999
1:28:49,1510761990,2017-11-15T16:06:37,0.756,68.0,13.81,11.78,15.82,835.120,2065.790,123.199997,22.32,2.5062,363,23639,1.89473,4.16,52260,,,,,,,,,,,,,,,,,,99999,99999,99999,99999,99999,99999,99999,99999,99999,99999,99999,99999
1:29:19,1510762020,2017-11-15T16:07:07,0.754,68.4,13.87,11.85,15.91,835.050,2066.070,128.016663,22.19,2.5061,363,23642,1.88993,4.17,52265,,,,,,,,,,,,,,,,,,99999,99999,99999,99999,99999,99999,99999,99999,99999,99999,99999,99999
1:29:49,1510762050,2017-11-15T16:07:37,0.757,68.8,13.92,11.89,15.95,834.960,2066.190,127.066666,22.46,2.5057,363,23644,1.89593,4.17,52271,,,,,,,,,,,,,,,,,,99999,99999,99999,99999,99999,99999,99999,99999,99999,99999,99999,99999
1:30:19,1510762080,2017-11-15T16:08:07,0.751,69.2,13.98,11.95,16.03,835.080,2066.420,125.216667,22.13,2.5055,363,23644,1.88125,4.17,52277,,,,,,,,,,,,,,,,,,99999,99999,99999,99999,99999,99999,99999,99999,99999,99999,99999,99999
1:30:49,1510762110,2017-11-15T16:08:37,0.760,69.5,14.00,12.00,16.01,835.080,2066.520,116.083336,22.31,2.5054,363,23649,1.90404,4.17,52283,,,,,,,,,,,,,,,,,,99999,99999,99999,99999,99999,99999,99999,99999,99999,99999,99999,99999
1:31:19,1510762140,2017-11-15T16:09:07,0.759,69.9,14.05,12.03,16.13,834.980,2066.650,123.983330,22.76,2.5051,363,23650,1.90254,4.17,52289,,,,,,,,,,,,,,,,,,99999,99999,99999,99999,99999,99999,99999,99999,99999,99999,99999,99999
1:31:49,1510762170,2017-11-15T16:09:37,0.763,70.3,14.09,12.07,16.11,835.050,2066.750,120.250000,22.42,2.5049,363,23650,1.91217,4.17,52295,,,,,,,,,,,,,,,,,,99999,99999,99999,99999,99999,99999,99999,99999,99999,99999,99999,99999
1:32:19,1510762200,2017-11-15T16:10:07,0.760,70.7,14.14,12.12,16.20,834.990,2066.980,116.066666,22.81,2.5047,363,23653,1.90404,4.17,52301,,,,,,,,,,,,,,,,,,99999,99999,99999,99999,99999,99999,99999,99999,99999,99999,99999,99999
1:32:49,1510762230,2017-11-15T16:10:37,0.759,71.1,14.18,12.19,16.25,835.010,2067.090,118.466667,22.67,2.5045,363,23653,1.90193,4.17,52307,,,,,,,,,,,,,,,,,,99999,99999,99999,99999,99999,99999,99999,99999,99999,99999,99999,99999
1:33:19,1510762260,2017-11-15T16:11:07,0.747,71.4,14.24,12.24,16.29,834.890,2067.270,133.800003,21.64,2.5043,363,23655,1.87021,4.17,52313,,,,,,,,,,,,,,,,,,99999,99999,99999,99999,99999,99999,99999,99999,99999,99999,99999,99999
1:33:49,1510762290,2017-11-15T16:11:37,0.753,71.8,14.29,12.25,16.37,834.960,2067.480,126.833336,21.76,2.5041,363,23655,1.88544,4.17,52319,,,,,,,,,,,,,,,,,,99999,99999,99999,99999,99999,99999,99999,99999,99999,99999,99999,99999
1:34:19,1510762320,2017-11-15T16:12:07,0.763,72.2,14.32,12.22,16.39,835.010,2067.610,118.199997,21.87,2.5040,363,23652,1.91006,4.17,52325,,,,,,,,,,,,,,,,,,99999,99999,99999,99999,99999,99999,99999,99999,99999,99999,99999,99999
1:34:49,1510762350,2017-11-15T16:12:37,0.766,72.6,14.36,12.19,16.43,835.040,2067.710,116.099998,21.53,2.5038,363,23651,1.91821,4.17,52332,,,,,,,,,,,,,,,,,,99999,99999,99999,99999,99999,99999,99999,99999,99999,99999,99999,99999
1:35:19,1510762380,2017-11-15T16:13:07,0.755,73.0,14.39,12.18,16.47,834.960,2067.840,123.916664,22.77,2.5036,363,23652,1.89143,4.17,52338,,,,,,,,,,,,,,,,,,99999,99999,99999,99999,99999,99999,99999,99999,99999,99999,99999,99999
1:35:49,1510762410,2017-11-15T16:13:37,0.755,73.3,14.43,12.16,16.50,834.980,2068.000,122.933334,21.70,2.5035,363,23649,1.89053,4.17,52344,,,,,,,,,,,,,,,,,,99999,99999,99999,99999,99999,99999,99999,99999,99999,99999,99999,99999
1:36:19,1510762440,2017-11-15T16:14:07,0.764,73.7,14.46,12.16,16.53,834.970,2068.070,121.483330,21.77,2.5033,363,23649,1.91157,4.17,52350,,,,,,,,,,,,,,,,,,99999,99999,99999,99999,99999,99999,99999,99999,99999,99999,99999,99999
1:36:49,1510762470,2017-11-15T16:14:37,0.763,74.1,14.50,12.17,16.56,834.910,2068.170,119.216667,21.77,2.5031,363,23649,1.90946,4.17,52356,,,,,,,,,,,,,,,,,,99999,99999,99999,99999,99999,99999,99999,99999,99999,99999,99999,99999
1:37:19,1510762500,2017-11-15T16:15:07,0.765,74.5,14.51,12.16,16.58,834.960,2068.300,116.599998,21.66,2.5032,363,23651,1.91459,4.17,52362,,,,,,,,,,,,,,,,,,99999,99999,99999,99999,99999,99999,99999,99999,99999,99999,99999,99999
1:37:49,1510762530,2017-11-15T16:15:37,0.758,74.9,14.55,12.16,16.67,835.000,2068.400,118.966667,21.59,2.5029,363,23651,1.89833,4.17,52368,,,,,,,,,,,,,,,,,,99999,99999,99999,99999,99999,99999,99999,99999,99999,99999,99999,99999
1:38:19,1510762560,2017-11-15T16:16:07,0.761,75.2,14.57,12.17,16.66,835.000,2068.470,118.449997,21.96,2.5028,363,23651,1.90555,4.17,52374,,,,,,,,,,,,,,,,,,99999,99999,99999,99999,99999,99999,99999,99999,99999,99999,99999,99999
1:38:49,1510762590,2017-11-15T16:16:37,0.762,75.6,14.59,12.16,16.73,834.860,2068.520,115.866669,22.22,2.5027,363,23652,1.90735,4.17,52380,,,,,,,,,,,,,,,,,,99999,99999,99999,99999,99999,99999,99999,99999,99999,99999,99999,99999
1:39:19,1510762620,2017-11-15T16:17:07,0.758,76.0,14.63,12.18,16.75,834.850,2068.630,125.133331,22.10,2.5025,363,23650,1.89743,4.17,52386,,,,,,,,,,,,,,,,,,99999,99999,99999,99999,99999,99999,99999,99999,99999,99999,99999,99999
1:39:49,1510762650,2017-11-15T16:17:37,0.757,76.4,14.65,12.18,16.77,834.850,2068.760,121.683334,21.69,2.5025,363,23651,1.89442,4.17,52392,,,,,,,,,,,,,,,,,,99999,99999,99999,99999,99999,99999,99999,99999,99999,99999,99999,99999
1:40:19,1510762680,2017-11-15T16:18:07,0.767,76.8,14.67,12.20,16.75,834.870,2068.800,116.400002,22.02,2.5023,363,23650,1.92002,4.17,52398,,,,,,,,,,,,,,,,,,99999,99999,99999,99999,99999,99999,99999,99999,99999,99999,99999,99999
1:40:49,1510762710,2017-11-15T16:18:37,0.758,77.1,14.71,12.21,16.78,834.780,2068.920,129.683334,21.20,2.5022,363,23651,1.89623,4.17,52404,,,,,,,,,,,,,,,,,,99999,99999,99999,99999,99999,99999,99999,99999,99999,99999,99999,99999
1:41:19,1510762740,2017-11-15T16:19:07,0.762,77.5,14.74,12.24,16.85,834.850,2069.030,125.916664,21.83,2.5020,363,23652,1.90615,4.17,52410,,,,,,,,,,,,,,,,,,99999,99999,99999,99999,99999,99999,99999,99999,99999,99999,99999,99999
1:41:49,1510762770,2017-11-15T16:19:37,0.763,77.9,14.76,12.24,16.89,834.880,2069.090,123.283333,21.97,2.5019,363,23652,1.90946,4.17,52416,,,,,,,,,,,,,,,,,,99999,99999,99999,99999,99999,99999,99999,99999,99999,99999,99999,99999
1:42:19,1510762800,2017-11-15T16:20:07,0.762,78.3,14.79,12.26,16.89,834.870,2069.260,118.916664,21.20,2.5019,363,23654,1.90765,4.17,52421,,,,,,,,,,,,,,,,,,99999,99999,99999,99999,99999,99999,99999,99999,99999,99999,99999,99999
1:42:49,1510762830,2017-11-15T16:20:37,0.759,78.7,14.81,12.28,16.92,834.970,2069.320,122.916664,21.27,2.5018,363,23651,1.89833,4.17,52427,,,,,,,,,,,,,,,,,,99999,99999,99999,99999,99999,99999,99999,99999,99999,99999,99999,99999
1:43:19,1510762860,2017-11-15T16:21:07,0.754,79.0,14.83,12.28,16.97,834.910,2069.380,126.633331,21.25,2.5017,363,23653,1.88544,4.17,52433,,,,,,,,,,,,,,,,,,99999,99999,99999,99999,99999,99999,99999,99999,99999,99999,99999,99999
1:43:49,1510762890,2017-11-15T16:21:37,0.761,79.4,14.84,12.28,16.97,834.910,2069.380,122.583336,21.45,2.5016,363,23655,1.90314,4.17,52439,,,,,,,,,,,,,,,,,,99999,99999,99999,99999,99999,99999,99999,99999,99999,99999,99999,99999
1:44:19,1510762920,2017-11-15T16:22:07,0.759,79.8,14.85,12.29,16.98,834.750,2069.420,121.349998,21.62,2.5015,363,23655,1.89833,4.17,52445,,,,,,,,,,,,,,,,,,99999,99999,99999,99999,99999,99999,99999,99999,99999,99999,99999,99999
1:44:49,1510762950,2017-11-15T16:22:37,0.766,80.2,14.88,12.30,17.00,834.770,2069.490,121.483330,21.62,2.5013,363,23655,1.91489,4.17,52451,,,,,,,,,,,,,,,,,,99999,99999,99999,99999,99999,99999,99999,99999,99999,99999,99999,99999
1:45:19,1510762980,2017-11-15T16:23:07,0.762,80.6,14.90,12.33,17.03,834.790,2069.650,117.783333,20.71,2.5014,363,23655,1.90585,4.17,52457,,,,,,,,,,,,,,,,,,99999,99999,99999,99999,99999,99999,99999,99999,99999,99999,99999,99999
1:45:49,1510763010,2017-11-15T16:23:37,0.769,80.9,14.92,12.33,17.03,834.820,2069.720,116.283333,21.04,2.5013,363,23657,1.92275,4.17,52462,,,,,,,,,,,,,,,,,,99999,99999,99999,99999,99999,99999,99999,99999,99999,99999,99999,99999
1:46:19,1510763040,2017-11-15T16:24:07,0.762,81.3,14.94,12.35,17.03,834.890,2069.780,121.166664,21.75,2.5012,363,23657,1.90494,4.17,52468,,,,,,,,,,,,,,,,,,99999,99999,99999,99999,99999,99999,99999,99999,99999,99999,99999,99999
1:46:49,1510763070,2017-11-15T16:24:37,0.757,81.7,14.98,12.36,17.08,834.710,2069.890,126.233330,21.27,2.5010,363,23657,1.89442,4.17,52474,,,,,,,,,,,,,,,,,,99999,99999,99999,99999,99999,99999,99999,99999,99999,99999,99999,99999
1:47:19,1510763100,2017-11-15T16:25:07,0.760,82.1,14.99,12.40,17.11,834.830,2069.890,121.833336,21.70,2.5009,363,23657,1.90073,4.17,52480,,,,,,,,,,,,,,,,,,99999,99999,99999,99999,99999,99999,99999,99999,99999,99999,99999,99999
1:47:49,1510763130,2017-11-15T16:25:37,0.763,82.5,15.03,12.42,17.14,834.820,2070.010,120.050003,21.23,2.5007,363,23659,1.90916,4.17,52486,,,,,,,,,,,,,,,,,,99999,99999,99999,99999,99999,99999,99999,99999,99999,99999,99999,99999
1:48:19,1510763160,2017-11-15T16:26:07,0.762,82.9,15.05,12.44,17.19,834.840,2070.110,119.849998,20.71,2.5007,363,23659,1.90524,4.17,52491,,,,,,,,,,,,,,,,,,99999,99999,99999,99999,99999,99999,99999,99999,99999,99999,99999,99999
1:48:49,1510763190,2017-11-15T16:26:37,0.762,83.2,15.08,12.46,17.22,834.810,2070.240,128.800003,21.29,2.5005,363,23657,1.90494,4.17,52497,,,,,,,,,,,,,,,,,,99999,99999,99999,99999,99999,99999,99999,99999,99999,99999,99999,99999
1:49:19,1510763220,2017-11-15T16:27:07,0.769,83.6,15.10,12.48,17.22,834.770,2070.280,117.916664,20.71,2.5004,363,23659,1.92335,4.17,52503,,,,,,,,,,,,,,,,,,99999,99999,99999,99999,99999,99999,99999,99999,99999,99999,99999,99999
1:49:49,1510763250,2017-11-15T16:27:37,0.766,84.0,15.13,12.51,17.25,834.690,2070.410,121.866669,20.26,2.5004,363,23662,1.91610,4.17,52509,,,,,,,,,,,,,,,,,,99999,99999,99999,99999,99999,99999,99999,99999,99999,99999,99999,99999
1:50:19,1510763280,2017-11-15T16:28:07,0.761,84.4,15.15,12.51,17.32,834.770,2070.440,121.849998,20.77,2.5002,363,23663,1.90163,4.17,52514,,,,,,,,,,,,,,,,,,99999,99999,99999,99999,99999,99999,99999,99999,99999,99999,99999,99999
1:50:49,1510763310,2017-11-15T16:28:37,0.762,84.8,15.18,12.53,17.31,834.840,2070.570,122.183334,20.23,2.5001,363,23660,1.90555,4.17,52520,,,,,,,,,,,,,,,,,,99999,99999,99999,99999,99999,99999,99999,99999,99999,99999,99999,99999
1:51:19,1510763340,2017-11-15T16:29:07,0.765,85.1,15.19,12.56,17.31,834.810,2070.640,122.383331,20.61,2.5001,363,23661,1.91157,4.17,52526,,,,,,,,,,,,,,,,,,99999,99999,99999,99999,99999,99999,99999,99999,99999,99999,99999,99999
1:51:49,1510763370,2017-11-15T16:29:37,0.757,85.5,15.21,12.57,17.36,834.830,2070.680,132.016663,20.50,2.5000,363,23661,1.89353,4.17,52532,,,,,,,,,,,,,,,,,,99999,99999,99999,99999,99999,99999,99999,99999,99999,99999,99999,99999
1:52:19,1510763400,2017-11-15T16:30:07,0.767,85.9,15.23,12.57,17.35,834.960,2070.740,117.716667,20.12,2.4999,363,23662,1.91640,4.17,52537,,,,,,,,,,,,,,,,,,99999,99999,99999,99999,99999,99999,99999,99999,99999,99999,99999,99999
1:52:49,1510763430,2017-11-15T16:30:37,0.767,86.3,15.24,12.56,17.39,835.010,2070.800,120.800003,20.15,2.4999,363,23663,1.91670,4.18,52543,,,,,,,,,,,,,,,,,,99999,99999,99999,99999,99999,99999,99999,99999,99999,99999,99999,99999
1:53:19,1510763460,2017-11-15T16:31:07,0.768,86.7,15.25,12.58,17.40,834.900,2070.800,120.199997,19.93,2.4998,363,23661,1.91881,4.18,52549,,,,,,,,,,,,,,,,,,99999,99999,99999,99999,99999,99999,99999,99999,99999,99999,99999,99999
1:53:49,1510763490,2017-11-15T16:31:37,0.761,87.0,15.27,12.61,17.39,834.730,2070.860,127.849998,20.00,2.4997,363,23661,1.90103,4.18,52554,,,,,,,,,,,,,,,,,,99999,99999,99999,99999,99999,99999,99999,99999,99999,99999,99999,99999
1:54:19,1510763520,2017-11-15T16:32:07,0.759,87.4,15.28,12.61,17.40,834.700,2070.910,121.933334,20.43,2.4996,363,23663,1.89713,4.18,52560,,,,,,,,,,,,,,,,,,99999,99999,99999,99999,99999,99999,99999,99999,99999,99999,99999,99999
1:54:49,1510763550,2017-11-15T16:32:37,0.763,87.8,15.29,12.65,17.42,834.760,2070.910,119.516670,20.19,2.4996,363,23665,1.90705,4.18,52566,,,,,,,,,,,,,,,,,,99999,99999,99999,99999,99999,99999,99999,99999,99999,99999,99999,99999
1:55:19,1510763580,2017-11-15T16:33:07,0.764,88.2,15.30,12.66,17.48,834.840,2071.030,119.833336,20.08,2.4996,363,23666,1.91036,4.18,52571,,,,,,,,,,,,,,,,,,99999,99999,99999,99999,99999,99999,99999,99999,99999,99999,99999,99999
1:55:49,1510763610,2017-11-15T16:33:37,0.753,88.6,15.33,12.68,17.48,834.670,2071.090,134.966660,19.67,2.4995,363,23664,1.88215,4.18,52577,,,,,,,,,,,,,,,,,,99999,99999,99999,99999,99999,99999,99999,99999,99999,99999,99999,99999
1:56:19,1510763640,2017-11-15T16:34:07,0.766,89.0,15.34,12.69,17.48,834.770,2071.140,124.516670,20.02,2.4994,363,23666,1.91368,4.17,52583,,,,,,,,,,,,,,,,,,99999,99999,99999,99999,99999,99999,99999,99999,99999,99999,99999,99999
1:56:49,1510763670,2017-11-15T16:34:37,0.762,89.3,15.35,12.69,17.47,834.800,2071.140,119.433334,19.93,2.4993,363,23668,1.90494,4.17,52588,,,,,,,,,,,,,,,,,,99999,99999,99999,99999,99999,99999,99999,99999,99999,99999,99999,99999
1:57:19,1510763700,2017-11-15T16:35:07,0.764,89.7,15.37,12.71,17.51,834.690,2071.200,123.766670,19.64,2.4993,363,23668,1.91036,4.18,52594,,,,,,,,,,,,,,,,,,99999,99999,99999,99999,99999,99999,99999,99999,99999,99999,99999,99999
1:57:49,1510763730,2017-11-15T16:35:37,0.762,90.1,15.39,12.73,17.56,834.760,2071.320,120.183334,20.03,2.4992,363,23665,1.90434,4.18,52599,,,,,,,,,,,,,,,,,,99999,99999,99999,99999,99999,99999,99999,99999,99999,99999,99999,99999
1:58:19,1510763760,2017-11-15T16:36:07,0.768,90.5,15.40,12.75,17.55,834.700,2071.320,122.833336,20.07,2.4991,363,23665,1.92002,4.18,52605,,,,,,,,,,,,,,,,,,99999,99999,99999,99999,99999,99999,99999,99999,99999,99999,99999,99999
1:58:49,1510763790,2017-11-15T16:36:37,0.768,90.9,15.41,12.79,17.55,834.560,2071.360,121.383331,19.69,2.4991,363,23668,1.91972,4.18,52610,,,,,,,,,,,,,,,,,,99999,99999,99999,99999,99999,99999,99999,99999,99999,99999,99999,99999
1:59:19,1510763820,2017-11-15T16:37:07,0.761,91.2,15.43,12.78,17.58,834.670,2071.490,128.616669,20.15,2.4990,363,23669,1.90254,4.18,52616,,,,,,,,,,,,,,,,,,99999,99999,99999,99999,99999,99999,99999,99999,99999,99999,99999,99999
1:59:49,1510763850,2017-11-15T16:37:37,0.759,91.6,15.44,12.78,17.58,834.720,2071.490,124.316666,20.24,2.4990,363,23667,1.89713,4.18,52621,,,,,,,,,,,,,,,,,,99999,99999,99999,99999,99999,99999,99999,99999,99999,99999,99999,99999
2:00:19,1510763880,2017-11-15T16:38:07,0.763,92.0,15.46,12.80,17.61,834.830,2071.530,120.033333,19.94,2.4988,363,23668,1.90765,4.18,52627,,,,,,,,,,,,,,,,,,99999,99999,99999,99999,99999,99999,99999,99999,99999,99999,99999,99999
2:00:49,1510763910,2017-11-15T16:38:37,0.765,92.4,15.47,12.80,17.64,834.770,2071.590,122.266670,20.39,2.4988,363,23671,1.91157,4.18,52632,,,,,,,,,,,,,,,,,,99999,99999,99999,99999,99999,99999,99999,99999,99999,99999,99999,99999
2:01:19,1510763940,2017-11-15T16:39:07,0.761,92.8,15.49,12.84,17.63,834.730,2071.660,123.533333,21.00,2.4987,363,23670,1.90103,4.18,52638,,,,,,,,,,,,,,,,,,99999,99999,99999,99999,99999,99999,99999,99999,99999,99999,99999,99999
2:01:49,1510763970,2017-11-15T16:39:37,0.758,93.2,15.50,12.85,17.66,834.790,2071.660,128.100006,20.01,2.4986,363,23670,1.89502,4.18,52643,,,,,,,,,,,,,,,,,,99999,99999,99999,99999,99999,99999,99999,99999,99999,99999,99999,99999
2:02:19,1510764000,2017-11-15T16:40:07,0.760,93.5,15.52,12.88,17.66,834.760,2071.720,127.133331,20.28,2.4985,363,23671,1.89833,4.18,52649,,,,,,,,,,,,,,,,,,99999,99999,99999,99999,99999,99999,99999,99999,99999,99999,99999,99999
2:02:49,1510764030,2017-11-15T16:40:37,0.766,93.9,15.54,12.89,17.70,834.750,2071.830,119.199997,19.49,2.4985,363,23672,1.91338,4.18,52654,,,,,,,,,,,,,,,,,,99999,99999,99999,99999,99999,99999,99999,99999,99999,99999,99999,99999
2:03:19,1510764060,2017-11-15T16:41:07,0.763,94.3,15.55,12.90,17.70,834.600,2071.830,123.783333,20.29,2.4984,363,23671,1.90735,4.18,52660,,,,,,,,,,,,,,,,,,99999,99999,99999,99999,99999,99999,99999,99999,99999,99999,99999,99999
2:03:49,1510764090,2017-11-15T16:41:37,0.766,94.7,15.57,12.90,17.70,834.750,2071.950,117.949997,20.54,2.4983,363,23673,1.91278,4.18,52665,,,,,,,,,,,,,,,,,,99999,99999,99999,99999,99999,99999,99999,99999,99999,99999,99999,99999
2:04:19,1510764120,2017-11-15T16:42:07,0.770,95.1,15.60,12.91,17.75,834.770,2072.060,121.000000,19.73,2.4983,363,23672,1.92426,4.18,52671,,,,,,,,,,,,,,,,,,99999,99999,99999,99999,99999,99999,99999,99999,99999,99999,99999,99999
2:04:49,1510764150,2017-11-15T16:42:37,0.755,95.4,15.61,12.93,17.75,834.610,2072.060,132.783340,20.59,2.4981,363,23673,1.88693,4.18,52676,,,,,,,,,,,,,,,,,,99999,99999,99999,99999,99999,99999,99999,99999,99999,99999,99999,99999
2:05:19,1510764180,2017-11-15T16:43:07,0.759,95.8,15.62,12.94,17.74,834.730,2072.110,124.633331,20.27,2.4981,363,23674,1.89563,4.18,52682,,,,,,,,,,,,,,,,,,99999,99999,99999,99999,99999,99999,99999,99999,99999,99999,99999,99999
2:05:49,1510764210,2017-11-15T16:43:37,0.766,96.2,15.62,12.95,17.75,834.730,2072.110,122.233330,21.26,2.4980,363,23675,1.91308,4.18,52687,,,,,,,,,,,,,,,,,,99999,99999,99999,99999,99999,99999,99999,99999,99999,99999,99999,99999
2:06:19,1510764240,2017-11-15T16:44:07,0.763,96.6,15.64,12.97,17.75,834.700,2072.180,120.650002,19.82,2.4981,363,23674,1.90705,4.18,52692,,,,,,,,,,,,,,,,,,99999,99999,99999,99999,99999,99999,99999,99999,99999,99999,99999,99999
2:06:49,1510764270,2017-11-15T16:44:37,0.764,97.0,15.66,12.97,17.80,834.750,2072.220,121.099998,19.82,2.4979,363,23673,1.90826,4.18,52698,,,,,,,,,,,,,,,,,,99999,99999,99999,99999,99999,99999,99999,99999,99999,99999,99999,99999
2:07:19,1510764300,2017-11-15T16:45:07,0.771,97.4,15.67,12.97,17.83,834.700,2072.220,119.000000,21.06,2.4978,363,23676,1.92486,4.18,52703,,,,,,,,,,,,,,,,,,99999,99999,99999,99999,99999,99999,99999,99999,99999,99999,99999,99999
2:07:49,1510764330,2017-11-15T16:45:37,0.761,97.7,15.68,12.99,17.85,834.670,2072.280,124.666664,20.21,2.4978,363,23675,1.90103,4.18,52708,,,,,,,,,,,,,,,,,,99999,99999,99999,99999,99999,99999,99999,99999,99999,99999,99999,99999
2:08:19,1510764360,2017-11-15T16:46:07,0.762,98.1,15.70,13.02,17.85,834.610,2072.410,125.383331,19.70,2.4978,363,23677,1.90314,4.18,52714,,,,,,,,,,,,,,,,,,99999,99999,99999,99999,99999,99999,99999,99999,99999,99999,99999,99999
2:08:49,1510764390,2017-11-15T16:46:37,0.760,98.5,15.71,13.03,17.89,834.710,2072.450,127.983330,20.25,2.4977,363,23675,1.89893,4.18,52719,,,,,,,,,,,,,,,,,,99999,99999,99999,99999,99999,99999,99999,99999,99999,99999,99999,99999
2:09:19,1510764420,2017-11-15T16:47:07,0.768,98.9,15.73,13.03,17.89,834.700,2072.510,123.800003,20.33,2.4976,363,23677,1.91700,4.18,52725,,,,,,,,,,,,,,,,,,99999,99999,99999,99999,99999,99999,99999,99999,99999,99999,99999,99999
2:09:49,1510764450,2017-11-15T16:47:37,0.755,99.3,15.74,13.03,17.86,834.700,2072.510,131.933334,19.87,2.4976,363,23676,1.88604,4.18,52730,,,,,,,,,,,,,,,,,,99999,99999,99999,99999,99999,99999,99999,99999,99999,99999,99999,99999
2:10:19,1510764480,2017-11-15T16:48:07,0.765,99.7,15.74,13.05,17.92,834.790,2072.510,119.016670,20.46,2.4975,363,23676,1.91127,4.18,52735,,,,,,,,,,,,,,,,,,99999,99999,99999,99999,99999,99999,99999,99999,99999,99999,99999,99999
2:10:49,1510764510,2017-11-15T16:48:37,0.769,100.0,15.75,13.05,17.92,834.760,2072.580,122.616669,21.47,2.4975,363,23677,1.92033,4.18,52741,,,,,,,,,,,,,,,,,,99999,99999,99999,99999,99999,99999,99999,99999,99999,99999,99999,99999
2:11:19,1510764540,2017-11-15T16:49:07,0.768,100.4,15.76,13.07,17.92,834.680,2072.580,122.883331,21.35,2.4974,363,23679,1.91821,4.18,52746,,,,,,,,,,,,,,,,,,99999,99999,99999,99999,99999,99999,99999,99999,99999,99999,99999,99999
2:11:49,1510764570,2017-11-15T16:49:37,0.768,100.8,15.79,13.08,17.93,834.800,2072.680,125.349998,21.17,2.4972,363,23677,1.91912,4.18,52751,,,,,,,,,,,,,,,,,,99999,99999,99999,99999,99999,99999,99999,99999,99999,99999,99999,99999
2:12:19,1510764600,2017-11-15T16:50:07,0.757,101.2,15.81,13.11,17.97,834.620,2072.740,128.733337,21.25,2.4971,363,23679,1.89143,4.18,52756,,,,,,,,,,,,,,,,,,99999,99999,99999,99999,99999,99999,99999,99999,99999,99999,99999,99999
2:12:49,1510764630,2017-11-15T16:50:37,0.767,101.6,15.83,13.14,18.01,834.530,2072.850,119.516670,20.94,2.4971,363,23679,1.91428,4.18,52762,,,,,,,,,,,,,,,,,,99999,99999,99999,99999,99999,99999,99999,99999,99999,99999,99999,99999
2:13:19,1510764660,2017-11-15T16:51:07,0.762,102.0,15.85,13.14,17.98,834.530,2072.910,125.766670,20.70,2.4970,363,23678,1.90223,4.18,52767,,,,,,,,,,,,,,,,,,99999,99999,99999,99999,99999,99999,99999,99999,99999,99999,99999,99999
2:13:49,1510764690,2017-11-15T16:51:37,0.770,102.3,15.88,13.17,18.03,834.760,2073.030,118.683334,21.11,2.4969,363,23681,1.92244,4.18,52772,,,,,,,,,,,,,,,,,,99999,99999,99999,99999,99999,99999,99999,99999,99999,99999,99999,99999
2:14:19,1510764720,2017-11-15T16:52:07,0.770,102.7,15.88,13.16,18.05,834.720,2073.030,119.416664,21.16,2.4969,363,23681,1.92214,4.18,52777,,,,,,,,,,,,,,,,,,99999,99999,99999,99999,99999,99999,99999,99999,99999,99999,99999,99999
2:14:49,1510764750,2017-11-15T16:52:37,0.770,103.1,15.91,13.17,18.06,834.650,2073.100,120.466667,20.64,2.4967,363,23679,1.92305,4.18,52783,,,,,,,,,,,,,,,,,,99999,99999,99999,99999,99999,99999,99999,99999,99999,99999,99999,99999
2:15:19,1510764780,2017-11-15T16:53:07,0.768,103.5,15.92,13.18,18.09,834.640,2073.140,124.766670,20.95,2.4967,363,23683,1.91791,4.18,52788,,,,,,,,,,,,,,,,,,99999,99999,99999,99999,99999,99999,99999,99999,99999,99999,99999,99999
2:15:49,1510764810,2017-11-15T16:53:37,0.774,103.9,15.94,13.18,18.11,834.710,2073.200,120.300003,21.26,2.4966,363,23679,1.93123,4.18,52793,,,,,,,,,,,,,,,,,,99999,99999,99999,99999,99999,99999,99999,99999,99999,99999,99999,99999
2:16:19,1510764840,2017-11-15T16:54:07,0.767,104.3,15.95,13.18,18.13,834.590,2073.200,119.916664,21.27,2.4965,363,23681,1.91399,4.18,52798,,,,,,,,,,,,,,,,,,99999,99999,99999,99999,99999,99999,99999,99999,99999,99999,99999,99999
2:16:49,1510764870,2017-11-15T16:54:37,0.765,104.6,15.97,13.20,18.14,834.540,2073.310,126.816666,21.62,2.4964,363,23682,1.90886,4.18,52804,,,,,,,,,,,,,,,,,,99999,99999,99999,99999,99999,99999,99999,99999,99999,99999,99999,99999
2:17:19,1510764900,2017-11-15T16:55:07,0.762,105.0,15.99,13.21,18.14,834.660,2073.370,125.366669,21.34,2.4963,363,23682,1.90344,4.18,52809,,,,,,,,,,,,,,,,,,99999,99999,99999,99999,99999,99999,99999,99999,99999,99999,99999,99999
2:17:49,1510764930,2017-11-15T16:55:37,0.759,105.4,16.00,13.23,18.17,834.480,2073.430,129.183334,20.74,2.4963,363,23680,1.89502,4.18,52814,,,,,,,,,,,,,,,,,,99999,99999,99999,99999,99999,99999,99999,99999,99999,99999,99999,99999
2:18:19,1510764960,2017-11-15T16:56:07,0.765,105.8,16.01,13.24,18.17,834.650,2073.430,123.099998,21.00,2.4962,363,23680,1.91006,4.18,52819,,,,,,,,,,,,,,,,,,99999,99999,99999,99999,99999,99999,99999,99999,99999,99999,99999,99999
2:18:49,1510764990,2017-11-15T16:56:37,0.764,106.2,16.03,13.26,18.22,834.670,2073.530,125.033333,20.49,2.4962,363,23683,1.90705,4.18,52824,,,,,,,,,,,,,,,,,,99999,99999,99999,99999,99999,99999,99999,99999,99999,99999,99999,99999
2:19:19,1510765020,2017-11-15T16:57:07,0.766,106.6,16.03,13.25,18.20,834.620,2073.530,121.300003,20.51,2.4962,363,23684,1.91187,4.18,52829,,,,,,,,,,,,,,,,,,99999,99999,99999,99999,99999,99999,99999,99999,99999,99999,99999,99999
2:19:49,1510765050,2017-11-15T16:57:37,0.770,106.9,16.04,13.26,18.24,834.590,2073.530,124.199997,21.17,2.4961,363,23686,1.92305,4.18,52835,,,,,,,,,,,,,,,,,,99999,99999,99999,99999,99999,99999,99999,99999,99999,99999,99999,99999
2:20:19,1510765080,2017-11-15T16:58:07,0.771,107.3,16.04,13.26,18.24,834.460,2073.530,119.466667,21.09,2.4961,363,23684,1.92335,4.18,52840,,,,,,,,,,,,,,,,,,99999,99999,99999,99999,99999,99999,99999,99999,99999,99999,99999,99999
2:20:49,1510765110,2017-11-15T16:58:37,0.766,107.7,16.07,13.29,18.22,834.390,2073.660,121.366669,21.17,2.4960,363,23685,1.91157,4.18,52845,,,,,,,,,,,,,,,,,,99999,99999,99999,99999,99999,99999,99999,99999,99999,99999,99999,99999
2:21:19,1510765140,2017-11-15T16:59:07,0.769,108.1,16.06,13.28,18.25,834.430,2073.600,124.150002,20.34,2.4961,363,23685,1.91972,4.18,52850,,,,,,,,,,,,,,,,,,99999,99999,99999,99999,99999,99999,99999,99999,99999,99999,99999,99999
2:21:49,1510765170,2017-11-15T16:59:37,0.773,108.5,16.07,13.30,18.24,834.330,2073.660,120.916664,20.76,2.4960,363,23686,1.92910,4.18,52855,,,,,,,,,,,,,,,,,,99999,99999,99999,99999,99999,99999,99999,99999,99999,99999,99999,99999
2:22:19,1510765200,2017-11-15T17:00:07,0.767,108.9,16.08,13.30,18.25,834.390,2073.660,124.400002,20.53,2.4959,363,23683,1.91519,4.18,52860,,,,,,,,,,,,,,,,,,99999,99999,99999,99999,99999,99999,99999,99999,99999,99999,99999,99999
2:22:49,1510765230,2017-11-15T17:00:37,0.765,109.2,16.10,13.28,18.28,834.330,2073.760,122.483330,20.87,2.4959,363,23686,1.91036,4.18,52865,,,,,,,,,,,,,,,,,,99999,99999,99999,99999,99999,99999,99999,99999,99999,99999,99999,99999
2:23:19,1510765260,2017-11-15T17:01:07,0.766,109.6,16.10,13.30,18.27,834.460,2073.760,120.849998,21.65,2.4958,363,23687,1.91248,4.18,52870,,,,,,,,,,,,,,,,,,99999,99999,99999,99999,99999,99999,99999,99999,99999,99999,99999,99999
2:23:49,1510765290,2017-11-15T17:01:37,0.767,110.0,16.11,13.33,18.27,834.440,2073.830,121.983330,21.19,2.4958,363,23685,1.91428,4.18,52875,,,,,,,,,,,,,,,,,,99999,99999,99999,99999,99999,99999,99999,99999,99999,99999,99999,99999
2:24:19,1510765320,2017-11-15T17:02:07,0.767,110.4,16.11,13.31,18.28,834.410,2073.830,122.400002,21.36,2.4958,363,23685,1.91428,4.18,52880,,,,,,,,,,,,,,,,,,99999,99999,99999,99999,99999,99999,99999,99999,99999,99999,99999,99999
2:24:49,1510765350,2017-11-15T17:02:37,0.762,110.8,16.11,13.31,18.25,834.330,2073.830,127.816666,20.69,2.4959,363,23687,1.90193,4.18,52885,,,,,,,,,,,,,,,,,,99999,99999,99999,99999,99999,99999,99999,99999,99999,99999,99999,99999
2:25:19,1510765380,2017-11-15T17:03:07,0.764,111.2,16.10,13.30,18.28,834.330,2073.760,123.316666,20.70,2.4959,363,23685,1.90795,4.18,52890,,,,,,,,,,,,,,,,,,99999,99999,99999,99999,99999,99999,99999,99999,99999,99999,99999,99999
2:25:49,1510765410,2017-11-15T17:03:37,0.759,111.5,16.10,13.31,18.25,834.370,2073.760,130.333328,21.17,2.4958,363,23687,1.89353,4.18,52895,,,,,,,,,,,,,,,,,,99999,99999,99999,99999,99999,99999,99999,99999,99999,99999,99999,99999
2:26:19,1510765440,2017-11-15T17:04:07,0.755,111.9,16.10,13.29,18.30,834.220,2073.760,141.216660,20.49,2.4959,363,23686,1.88484,4.18,52900,,,,,,,,,,,,,,,,,,99999,99999,99999,99999,99999,99999,99999,99999,99999,99999,99999,99999
2:26:49,1510765470,2017-11-15T17:04:37,0.767,112.3,16.07,13.29,18.28,834.410,2073.660,128.149994,21.20,2.4960,363,23688,1.91519,4.18,52905,,,,,,,,,,,,,,,,,,99999,99999,99999,99999,99999,99999,99999,99999,99999,99999,99999,99999
2:27:19,1510765500,2017-11-15T17:05:07,0.765,112.7,16.07,13.27,18.20,834.450,2073.660,121.816666,21.48,2.4960,363,23686,1.91036,4.18,52910,,,,,,,,,,,,,,,,,,99999,99999,99999,99999,99999,99999,99999,99999,99999,99999,99999,99999
2:27:49,1510765530,2017-11-15T17:05:37,0.768,113.1,16.05,13.28,18.20,834.430,2073.530,120.683334,21.33,2.4960,363,23685,1.91640,4.18,52915,,,,,,,,,,,,,,,,,,99999,99999,99999,99999,99999,99999,99999,99999,99999,99999,99999,99999
2:28:19,1510765560,2017-11-15T17:06:07,0.764,113.5,16.05,13.26,18.25,834.230,2073.530,125.383331,21.12,2.4960,363,23684,1.90735,4.18,52920,,,,,,,,,,,,,,,,,,99999,99999,99999,99999,99999,99999,99999,99999,99999,99999,99999,99999
2:28:49,1510765590,2017-11-15T17:06:37,0.766,113.8,16.05,13.26,18.22,834.350,2073.530,122.683334,21.34,2.4960,363,23687,1.91127,4.18,52925,,,,,,,,,,,,,,,,,,99999,99999,99999,99999,99999,99999,99999,99999,99999,99999,99999,99999
2:29:19,1510765620,2017-11-15T17:07:07,0.763,114.2,16.03,13.24,18.19,834.270,2073.530,133.199997,21.67,2.4961,363,23685,1.90464,4.18,52930,,,,,,,,,,,,,,,,,,99999,99999,99999,99999,99999,99999,99999,99999,99999,99999,99999,99999
2:29:49,1510765650,2017-11-15T17:07:37,0.762,114.6,16.02,13.24,18.16,834.360,2073.490,133.783340,21.88,2.4962,363,23684,1.90193,4.18,52935,,,,,,,,,,,,,,,,,,99999,99999,99999,99999,99999,99999,99999,99999,99999,99999,99999,99999
2:30:19,1510765680,2017-11-15T17:08:07,0.765,115.0,16.00,13.24,18.17,834.330,2073.430,129.583328,21.89,2.4963,363,23683,1.91067,4.18,52940,,,,,,,,,,,,,,,,,,99999,99999,99999,99999,99999,99999,99999,99999,99999,99999,99999,99999
2:30:49,1510765710,2017-11-15T17:08:37,0.763,115.4,16.00,13.23,18.19,834.360,2073.430,122.666664,21.36,2.4963,363,23681,1.90585,4.18,52945,,,,,,,,,,,,,,,,,,99999,99999,99999,99999,99999,99999,99999,99999,99999,99999,99999,99999
2:31:19,1510765740,2017-11-15T17:09:07,0.766,115.7,15.99,13.22,18.14,834.460,2073.370,125.033333,21.94,2.4963,363,23683,1.91157,4.18,52950,,,,,,,,,,,,,,,,,,99999,99999,99999,99999,99999,99999,99999,99999,99999,99999,99999,99999
2:31:49,1510765770,2017-11-15T17:09:37,0.771,116.1,15.99,13.24,18.17,834.370,2073.370,120.316666,21.50,2.4963,363,23683,1.92547,4.18,52955,,,,,,,,,,,,,,,,,,99999,99999,99999,99999,99999,99999,99999,99999,99999,99999,99999,99999
2:32:19,1510765800,2017-11-15T17:10:07,0.772,116.5,15.98,13.23,18.17,834.370,2073.370,122.816666,22.17,2.4963,363,23685,1.92789,4.18,52960,,,,,,,,,,,,,,,,,,99999,99999,99999,99999,99999,99999,99999,99999,99999,99999,99999,99999
2:32:49,1510765830,2017-11-15T17:10:37,0.759,116.9,16.00,13.26,18.17,834.280,2073.430,137.016663,21.87,2.4963,363,23684,1.89413,4.18,52964,,,,,,,,,,,,,,,,,,99999,99999,99999,99999,99999,99999,99999,99999,99999,99999,99999,99999
2:33:19,1510765860,2017-11-15T17:11:07,0.774,117.3,16.01,13.26,18.19,834.380,2073.430,120.433334,21.99,2.4962,363,23685,1.93153,4.18,52969,,,,,,,,,,,,,,,,,,99999,99999,99999,99999,99999,99999,99999,99999,99999,99999,99999,99999
2:33:49,1510765890,2017-11-15T17:11:37,0.763,117.7,16.02,13.27,18.17,834.520,2073.490,123.449997,21.54,2.4962,363,23684,1.90374,4.18,52974,,,,,,,,,,,,,,,,,,99999,99999,99999,99999,99999,99999,99999,99999,99999,99999,99999,99999
2:34:19,1510765920,2017-11-15T17:12:07,0.770,118.0,16.04,13.30,18.20,834.460,2073.530,121.500000,21.74,2.4960,363,23686,1.92214,4.18,52979,,,,,,,,,,,,,,,,,,99999,99999,99999,99999,99999,99999,99999,99999,99999,99999,99999,99999
2:34:49,1510765950,2017-11-15T17:12:37,0.765,118.4,16.04,13.30,18.20,834.350,2073.530,124.583336,21.51,2.4961,363,23683,1.90826,4.18,52984,,,,,,,,,,,,,,,,,,99999,99999,99999,99999,99999,99999,99999,99999,99999,99999,99999,99999
2:35:19,1510765980,2017-11-15T17:13:07,0.770,118.8,16.06,13.32,18.24,834.390,2073.600,118.349998,21.93,2.4959,363,23688,1.92244,4.18,52988,,,,,,,,,,,,,,,,,,99999,99999,99999,99999,99999,99999,99999,99999,99999,99999,99999,99999
2:35:49,1510766010,2017-11-15T17:13:37,0.762,119.2,16.08,13.32,18.22,834.390,2073.660,125.483330,21.95,2.4958,363,23686,1.90254,4.18,52993,,,,,,,,,,,,,,,,,,99999,99999,99999,99999,99999,99999,99999,99999,99999,99999,99999,99999
2:36:19,1510766040,2017-11-15T17:14:07,0.771,119.6,16.09,13.35,18.22,834.330,2073.760,124.233330,21.74,2.4959,363,23687,1.92486,4.18,52998,,,,,,,,,,,,,,,,,,99999,99999,99999,99999,99999,99999,99999,99999,99999,99999,99999,99999
2:36:49,1510766070,2017-11-15T17:14:37,0.762,120.0,16.12,13.34,18.24,834.440,2073.830,126.083336,21.32,2.4957,363,23688,1.90223,4.18,53003,,,,,,,,,,,,,,,,,,99999,99999,99999,99999,99999,99999,99999,99999,99999,99999,99999,99999
2:37:19,1510766100,2017-11-15T17:15:07,0.762,120.3,16.13,13.37,18.25,834.410,2073.830,126.800003,21.74,2.4956,363,23688,1.90073,4.18,53008,,,,,,,,,,,,,,,,,,99999,99999,99999,99999,99999,99999,99999,99999,99999,99999,99999,99999
2:37:49,1510766130,2017-11-15T17:15:37,0.764,120.7,16.15,13.39,18.30,834.240,2073.950,124.349998,21.35,2.4956,363,23684,1.90735,4.18,53012,,,,,,,,,,,,,,,,,,99999,99999,99999,99999,99999,99999,99999,99999,99999,99999,99999,99999
2:38:19,1510766160,2017-11-15T17:16:07,0.766,121.1,16.17,13.40,18.32,834.390,2074.000,120.383331,21.87,2.4955,363,23688,1.91127,4.18,53017,,,,,,,,,,,,,,,,,,99999,99999,99999,99999,99999,99999,99999,99999,99999,99999,99999,99999
2:38:49,1510766190,2017-11-15T17:16:37,0.772,121.5,16.18,13.41,18.36,834.370,2074.000,121.716667,21.34,2.4954,363,23689,1.92607,4.18,53022,,,,,,,,,,,,,,,,,,99999,99999,99999,99999,99999,99999,99999,99999,99999,99999,99999,99999
2:39:19,1510766220,2017-11-15T17:17:07,0.767,121.9,16.21,13.45,18.33,834.300,2074.120,120.716667,21.33,2.4953,363,23687,1.91399,4.18,53026,,,,,,,,,,,,,,,,,,99999,99999,99999,99999,99999,99999,99999,99999,99999,99999,99999,99999
2:39:49,1510766250,2017-11-15T17:17:37,0.773,122.3,16.23,13.46,18.38,834.140,2074.230,122.449997,21.43,2.4952,363,23687,1.92789,4.18,53031,,,,,,,,,,,,,,,,,,99999,99999,99999,99999,99999,99999,99999,99999,99999,99999,99999,99999
2:40:19,1510766280,2017-11-15T17:18:07,0.765,122.7,16.25,13.46,18.44,834.220,2074.290,125.466667,22.03,2.4951,363,23690,1.90765,4.18,53036,,,,,,,,,,,,,,,,,,99999,99999,99999,99999,99999,99999,99999,99999,99999,99999,99999,99999
2:40:49,1510766310,2017-11-15T17:18:37,0.771,123.0,16.28,13.48,18.44,834.140,2074.410,124.150002,21.60,2.4950,363,23689,1.92275,4.18,53040,,,,,,,,,,,,,,,,,,99999,99999,99999,99999,99999,99999,99999,99999,99999,99999,99999,99999
2:41:19,1510766340,2017-11-15T17:19:07,0.768,123.4,16.29,13.48,18.40,834.380,2074.410,119.033333,21.91,2.4949,363,23691,1.91640,4.18,53045,,,,,,,,,,,,,,,,,,99999,99999,99999,99999,99999,99999,99999,99999,99999,99999,99999,99999
2:41:49,1510766370,2017-11-15T17:19:37,0.762,123.8,16.30,13.51,18.43,834.270,2074.410,126.916664,21.27,2.4949,363,23690,1.90043,4.18,53050,,,,,,,,,,,,,,,,,,99999,99999,99999,99999,99999,99999,99999,99999,99999,99999,99999,99999
2:42:19,1510766400,2017-11-15T17:20:07,0.766,124.2,16.33,13.52,18.47,834.220,2074.520,125.199997,21.16,2.4947,363,23692,1.91097,4.18,53054,,,,,,,,,,,,,,,,,,99999,99999,99999,99999,99999,99999,99999,99999,99999,99999,99999,99999
2:42:49,1510766430,2017-11-15T17:20:37,0.771,124.6,16.34,13.54,18.48,834.250,2074.580,118.916664,21.74,2.4947,363,23689,1.92395,4.18,53059,,,,,,,,,,,,,,,,,,99999,99999,99999,99999,99999,99999,99999,99999,99999,99999,99999,99999
2:43:19,1510766460,2017-11-15T17:21:07,0.766,125.0,16.36,13.54,18.47,834.440,2074.680,124.666664,21.26,2.4947,363,23690,1.91036,4.18,53063,,,,,,,,,,,,,,,,,,99999,99999,99999,99999,99999,99999,99999,99999,99999,99999,99999,99999
2:43:49,1510766490,2017-11-15T17:21:37,0.767,125.3,16.38,13.57,18.52,834.240,2074.750,123.550003,21.95,2.4945,363,23693,1.91248,4.18,53068,,,,,,,,,,,,,,,,,,99999,99999,99999,99999,99999,99999,99999,99999,99999,99999,99999,99999
2:44:19,1510766520,2017-11-15T17:22:07,0.764,125.7,16.41,13.57,18.55,834.270,2074.870,127.833336,20.68,2.4945,363,23694,1.90675,4.18,53073,,,,,,,,,,,,,,,,,,99999,99999,99999,99999,99999,99999,99999,99999,99999,99999,99999,99999
2:44:49,1510766550,2017-11-15T17:22:37,0.768,126.1,16.44,13.61,18.58,834.230,2074.920,129.533340,20.98,2.4943,363,23692,1.91549,4.18,53077,,,,,,,,,,,,,,,,,,99999,99999,99999,99999,99999,99999,99999,99999,99999,99999,99999,99999
2:45:19,1510766580,2017-11-15T17:23:07,0.766,126.5,16.45,13.63,18.61,834.310,2074.980,123.483330,20.45,2.4943,363,23694,1.91127,4.18,53082,,,,,,,,,,,,,,,,,,99999,99999,99999,99999,99999,99999,99999,99999,99999,99999,99999,99999
2:45:49,1510766610,2017-11-15T17:23:37,0.772,126.9,16.48,13.64,18.61,834.380,2075.040,120.133331,21.48,2.4940,363,23695,1.92517,4.18,53086,,,,,,,,,,,,,,,,,,99999,99999,99999,99999,99999,99999,99999,99999,99999,99999,99999,99999
2:46:19,1510766640,2017-11-15T17:24:07,0.768,127.3,16.51,13.67,18.63,834.270,2075.200,128.183334,20.79,2.4940,363,23695,1.91610,4.18,53091,,,,,,,,,,,,,,,,,,99999,99999,99999,99999,99999,99999,99999,99999,99999,99999,99999,99999
2:46:49,1510766670,2017-11-15T17:24:37,0.774,127.6,16.55,13.70,18.67,834.370,2075.330,123.033333,20.89,2.4938,363,23698,1.93123,4.18,53095,,,,,,,,,,,,,,,,,,99999,99999,99999,99999,99999,99999,99999,99999,99999,99999,99999,99999
2:47:19,1510766700,2017-11-15T17:25:07,0.772,128.0,16.59,13.73,18.70,834.140,2075.430,122.266670,20.93,2.4936,363,23697,1.92486,4.18,53100,,,,,,,,,,,,,,,,,,99999,99999,99999,99999,99999,99999,99999,99999,99999,99999,99999,99999
2:47:49,1510766730,2017-11-15T17:25:37,0.770,128.4,16.61,13.75,18.72,834.360,2075.500,119.666664,20.62,2.4935,363,23696,1.92093,4.17,53104,,,,,,,,,,,,,,,,,,99999,99999,99999,99999,99999,99999,99999,99999,99999,99999,99999,99999
2:48:19,1510766760,2017-11-15T17:26:07,0.772,128.8,16.64,13.78,18.75,834.300,2075.670,126.150002,20.75,2.4935,363,23697,1.92426,4.18,53108,,,,,,,,,,,,,,,,,,99999,99999,99999,99999,99999,99999,99999,99999,99999,99999,99999,99999
2:48:49,1510766790,2017-11-15T17:26:37,0.770,129.2,16.66,13.77,18.80,834.390,2075.730,122.516670,21.19,2.4933,363,23697,1.91942,4.17,53112,,,,,,,,,,,,,,,,,,99999,99999,99999,99999,99999,99999,99999,99999,99999,99999,99999,99999
2:49:19,1510766820,2017-11-15T17:27:07,0.767,129.6,16.69,13.77,18.78,834.360,2075.790,123.866669,20.30,2.4932,363,23693,1.91187,4.17,53116,,,,,,,,,,,,,,,,,,99999,99999,99999,99999,99999,99999,99999,99999,99999,99999,99999,99999
2:49:49,1510766850,2017-11-15T17:27:37,0.763,130.0,16.71,13.76,18.80,834.300,2075.830,132.266663,20.34,2.4931,363,23696,1.90223,4.17,53119,,,,,,,,,,,,,,,,,,99999,99999,99999,99999,99999,99999,99999,99999,99999,99999,99999,99999
2:50:19,1510766880,2017-11-15T17:28:07,0.765,130.3,16.72,13.78,18.83,834.330,2075.900,127.750000,19.80,2.4931,363,23701,1.90735,4.18,53123,,,,,,,,,,,,,,,,,,99999,99999,99999,99999,99999,99999,99999,99999,99999,99999,99999,99999
2:50:49,1510766910,2017-11-15T17:28:37,0.771,130.7,16.73,13.76,18.85,834.380,2075.960,127.050003,19.93,2.4931,363,23696,1.92335,4.18,53128,,,,,,,,,,,,,,,,,,99999,99999,99999,99999,99999,99999,99999,99999,99999,99999,99999,99999
2:51:19,1510766940,2017-11-15T17:29:07,0.766,131.1,16.72,13.79,18.86,834.300,2075.900,128.050003,20.35,2.4931,363,23699,1.90886,4.19,53132,,,,,,,,,,,,,,,,,,99999,99999,99999,99999,99999,99999,99999,99999,99999,99999,99999,99999
2:51:49,1510766970,2017-11-15T17:29:37,0.765,131.5,16.73,13.80,18.86,834.240,2075.960,132.699997,19.50,2.4931,363,23700,1.90795,4.19,53137,,,,,,,,,,,,,,,,,,99999,99999,99999,99999,99999,99999,99999,99999,99999,99999,99999,99999
2:52:19,1510767000,2017-11-15T17:30:07,0.773,131.9,16.72,13.82,18.88,834.250,2075.900,126.716667,19.88,2.4931,363,23699,1.92819,4.18,53142,,,,,,,,,,,,,,,,,,99999,99999,99999,99999,99999,99999,99999,99999,99999,99999,99999,99999
2:52:49,1510767030,2017-11-15T17:30:37,0.775,132.3,16.73,13.81,18.90,834.240,2075.960,123.566666,19.58,2.4931,363,23700,1.93335,4.17,53145,,,,,,,,,,,,,,,,,,99999,99999,99999,99999,99999,99999,99999,99999,99999,99999,99999,99999
2:53:19,1510767060,2017-11-15T17:31:07,0.771,132.6,16.73,13.81,18.85,834.120,2075.960,124.416664,19.98,2.4931,363,23698,1.92123,4.19,53149,,,,,,,,,,,,,,,,,,99999,99999,99999,99999,99999,99999,99999,99999,99999,99999,99999,99999
2:53:49,1510767090,2017-11-15T17:31:37,0.775,133.0,16.73,13.82,18.88,834.300,2075.960,119.199997,19.38,2.4931,363,23701,1.93274,4.18,53154,,,,,,,,,,,,,,,,,,99999,99999,99999,99999,99999,99999,99999,99999,99999,99999,99999,99999
2:54:19,1510767120,2017-11-15T17:32:07,0.771,133.4,16.74,13.85,18.90,834.220,2075.960,127.866669,19.53,2.4930,363,23702,1.92335,4.18,53159,,,,,,,,,,,,,,,,,,99999,99999,99999,99999,99999,99999,99999,99999,99999,99999,99999,99999
2:54:49,1510767150,2017-11-15T17:32:37,0.770,133.8,16.75,13.86,18.86,834.050,2076.060,129.199997,19.38,2.4931,363,23702,1.92002,4.18,53163,,,,,,,,,,,,,,,,,,99999,99999,99999,99999,99999,99999,99999,99999,99999,99999,99999,99999
2:55:19,1510767180,2017-11-15T17:33:07,0.771,134.2,16.76,13.87,18.90,834.230,2076.060,121.283333,19.99,2.4929,363,23702,1.92093,4.18,53168,,,,,,,,,,,,,,,,,,99999,99999,99999,99999,99999,99999,99999,99999,99999,99999,99999,99999
2:55:49,1510767210,2017-11-15T17:33:37,0.769,134.6,16.78,13.90,18.94,834.130,2076.120,126.349998,19.49,2.4929,363,23703,1.91730,4.18,53172,,,,,,,,,,,,,,,,,,99999,99999,99999,99999,99999,99999,99999,99999,99999,99999,99999,99999
2:56:19,1510767240,2017-11-15T17:34:07,0.765,135.0,16.79,13.90,18.94,834.230,2076.190,131.766663,19.17,2.4929,363,23701,1.90795,4.17,53175,,,,,,,,,,,,,,,,,,99999,99999,99999,99999,99999,99999,99999,99999,99999,99999,99999,99999
2:56:49,1510767270,2017-11-15T17:34:37,0.772,135.3,16.79,13.86,18.90,834.210,2076.190,127.599998,19.34,2.4929,363,23694,1.92365,4.11,53175,,,,,,,,,,,,,,,,,,99999,99999,99999,99999,99999,99999,99999,99999,99999,99999,99999,99999
2:57:19,1510767300,2017-11-15T17:35:07,0.764,135.7,16.79,13.78,18.93,834.010,2076.190,128.333328,19.18,2.4929,363,23691,1.90555,4.10,53171,,,,,,,,,,,,,,,,,,99999,99999,99999,99999,99999,99999,99999,99999,99999,99999,99999,99999
2:57:49,1510767330,2017-11-15T17:35:37,0.765,136.1,16.75,13.69,18.86,834.190,2076.060,131.750000,19.46,2.4931,363,23687,1.90765,4.10,53166,,,,,,,,,,,,,,,,,,99999,99999,99999,99999,99999,99999,99999,99999,99999,99999,99999,99999
2:58:19,1510767360,2017-11-15T17:36:07,0.767,136.5,16.72,13.62,18.85,834.220,2075.900,123.583336,19.51,2.4931,363,23686,1.91278,4.10,53161,,,,,,,,,,,,,,,,,,99999,99999,99999,99999,99999,99999,99999,99999,99999,99999,99999,99999
2:58:49,1510767390,2017-11-15T17:36:37,0.770,136.9,16.70,13.56,18.85,834.040,2075.830,128.266663,19.06,2.4933,363,23687,1.92063,4.10,53157,,,,,,,,,,,,,,,,,,99999,99999,99999,99999,99999,99999,99999,99999,99999,99999,99999,99999
2:59:19,1510767420,2017-11-15T17:37:07,0.771,137.3,16.68,13.52,18.83,834.210,2075.790,125.449997,19.41,2.4934,363,23683,1.92305,4.10,53152,,,,,,,,,,,,,,,,,,99999,99999,99999,99999,99999,99999,99999,99999,99999,99999,99999,99999
2:59:49,1510767450,2017-11-15T17:37:37,0.772,137.6,16.67,13.49,18.78,834.230,2075.730,123.966667,19.53,2.4934,363,23679,1.92547,4.10,53147,,,,,,,,,,,,,,,,,,99999,99999,99999,99999,99999,99999,99999,99999,99999,99999,99999,99999
3:00:19,1510767480,2017-11-15T17:38:07,0.765,138.0,16.66,13.48,18.74,834.150,2075.730,124.599998,20.31,2.4934,363,23680,1.90795,4.10,53143,,,,,,,,,,,,,,,,,,99999,99999,99999,99999,99999,99999,99999,99999,99999,99999,99999,99999
3:00:49,1510767510,2017-11-15T17:38:37,0.772,138.4,16.65,13.46,18.75,834.210,2075.670,123.383331,19.86,2.4934,363,23680,1.92607,4.10,53138,,,,,,,,,,,,,,,,,,99999,99999,99999,99999,99999,99999,99999,99999,99999,99999,99999,99999
3:01:19,1510767540,2017-11-15T17:39:07,0.770,138.8,16.66,13.44,18.74,834.270,2075.730,124.699997,20.31,2.4934,363,23681,1.92063,4.10,53133,,,,,,,,,,,,,,,,,,99999,99999,99999,99999,99999,99999,99999,99999,99999,99999,99999,99999
3:01:49,1510767570,2017-11-15T17:39:37,0.772,139.2,16.68,13.45,18.77,834.090,2075.790,123.833336,19.84,2.4933,363,23676,1.92547,4.10,53129,,,,,,,,,,,,,,,,,,99999,99999,99999,99999,99999,99999,99999,99999,99999,99999,99999,99999
3:02:19,1510767600,2017-11-15T17:40:07,0.759,139.6,16.70,13.49,18.77,834.200,2075.830,136.766663,20.64,2.4931,363,23688,1.89203,4.17,53132,,,,,,,,,,,,,,,,,,99999,99999,99999,99999,99999,99999,99999,99999,99999,99999,99999,99999
3:02:49,1510767630,2017-11-15T17:40:37,0.774,140.0,16.70,13.60,18.82,834.220,2075.830,117.933334,21.22,2.4931,363,23693,1.92850,4.18,53136,,,,,,,,,,,,,,,,,,99999,99999,99999,99999,99999,99999,99999,99999,99999,99999,99999,99999
3:03:19,1510767660,2017-11-15T17:41:07,0.769,140.3,16.72,13.74,18.85,834.140,2075.900,129.116669,20.64,2.4930,363,23698,1.91730,4.18,53140,,,,,,,,,,,,,,,,,,99999,99999,99999,99999,99999,99999,99999,99999,99999,99999,99999,99999
3:03:49,1510767690,2017-11-15T17:41:37,0.769,140.7,16.75,13.81,18.85,834.070,2076.060,133.283340,20.65,2.4930,363,23703,1.91700,4.18,53144,,,,,,,,,,,,,,,,,,99999,99999,99999,99999,99999,99999,99999,99999,99999,99999,99999,99999
3:04:19,1510767720,2017-11-15T17:42:07,0.767,141.1,16.77,13.93,18.88,834.020,2076.120,128.766663,20.12,2.4929,363,23706,1.91308,4.18,53148,,,,,,,,,,,,,,,,,,99999,99999,99999,99999,99999,99999,99999,99999,99999,99999,99999,99999
3:04:49,1510767750,2017-11-15T17:42:37,0.768,141.5,16.80,13.98,18.92,834.040,2076.190,128.266663,19.87,2.4928,363,23707,1.91368,4.18,53152,,,,,,,,,,,,,,,,,,99999,99999,99999,99999,99999,99999,99999,99999,99999,99999,99999,99999
3:05:19,1510767780,2017-11-15T17:43:07,0.770,141.9,16.84,14.06,18.93,834.060,2076.290,123.449997,19.64,2.4926,363,23711,1.91881,4.18,53156,,,,,,,,,,,,,,,,,,99999,99999,99999,99999,99999,99999,99999,99999,99999,99999,99999,99999
3:05:49,1510767810,2017-11-15T17:43:37,0.770,142.3,16.86,14.14,18.96,834.160,2076.350,125.300003,21.00,2.4923,363,23713,1.92033,4.18,53160,,,,,,,,,,,,,,,,,,99999,99999,99999,99999,99999,99999,99999,99999,99999,99999,99999,99999
3:06:19,1510767840,2017-11-15T17:44:07,0.772,142.6,16.88,14.22,18.98,834.110,2076.420,122.533333,20.62,2.4923,363,23714,1.92365,4.18,53165,,,,,,,,,,,,,,,,,,99999,99999,99999,99999,99999,99999,99999,99999,99999,99999,99999,99999
3:06:49,1510767870,2017-11-15T17:44:37,0.771,143.0,16.92,14.26,19.01,834.090,2076.650,120.849998,20.71,2.4922,363,23717,1.92244,4.18,53169,,,,,,,,,,,,,,,,,,99999,99999,99999,99999,99999,99999,99999,99999,99999,99999,99999,99999
3:07:19,1510767900,2017-11-15T17:45:07,0.773,143.4,16.95,14.28,19.06,834.200,2076.710,127.216667,21.28,2.4920,363,23716,1.92607,4.18,53173,,,,,,,,,,,,,,,,,,99999,99999,99999,99999,99999,99999,99999,99999,99999,99999,99999,99999
3:07:49,1510767930,2017-11-15T17:45:37,0.773,143.8,16.97,14.33,19.08,834.080,2076.750,125.949997,20.22,2.4919,363,23720,1.92607,4.18,53177,,,,,,,,,,,,,,,,,,99999,99999,99999,99999,99999,99999,99999,99999,99999,99999,99999,99999
3:08:19,1510767960,2017-11-15T17:46:07,0.777,144.2,17.01,14.38,19.13,834.190,2076.870,121.516670,21.36,2.4916,363,23717,1.93578,4.18,53181,,,,,,,,,,,,,,,,,,99999,99999,99999,99999,99999,99999,99999,99999,99999,99999,99999,99999
3:08:49,1510767990,2017-11-15T17:46:37,0.778,144.6,17.04,14.41,19.16,834.090,2077.040,121.633331,20.52,2.4916,363,23722,1.93912,4.18,53184,,,,,,,,,,,,,,,,,,99999,99999,99999,99999,99999,99999,99999,99999,99999,99999,99999,99999
3:09:19,1510768020,2017-11-15T17:47:07,0.774,145.0,17.07,14.45,19.17,834.160,2077.170,119.416664,20.87,2.4915,363,23721,1.92759,4.18,53188,,,,,,,,,,,,,,,,,,99999,99999,99999,99999,99999,99999,99999,99999,99999,99999,99999,99999
3:09:49,1510768050,2017-11-15T17:47:37,0.778,145.4,17.11,14.51,19.20,834.140,2077.270,124.383331,21.50,2.4912,363,23724,1.93851,4.18,53193,,,,,,,,,,,,,,,,,,99999,99999,99999,99999,99999,99999,99999,99999,99999,99999,99999,99999
3:10:19,1510768080,2017-11-15T17:48:07,0.773,145.7,17.16,14.55,19.27,834.060,2077.440,127.516670,21.34,2.4910,363,23724,1.92486,4.17,53197,,,,,,,,,,,,,,,,,,99999,99999,99999,99999,99999,99999,99999,99999,99999,99999,99999,99999
3:10:49,1510768110,2017-11-15T17:48:37,0.772,146.1,17.21,14.59,19.32,834.030,2077.570,126.949997,21.35,2.4907,363,23722,1.92305,4.16,53199,,,,,,,,,,,,,,,,,,99999,99999,99999,99999,99999,99999,99999,99999,99999,99999,99999,99999
3:11:19,1510768140,2017-11-15T17:49:07,0.775,146.5,17.26,14.55,19.35,834.170,2077.790,122.283333,20.92,2.4906,363,23718,1.93001,4.10,53194,,,,,,,,,,,,,,,,,,99999,99999,99999,99999,99999,99999,99999,99999,99999,99999,99999,99999
3:11:49,1510768170,2017-11-15T17:49:37,0.776,146.9,17.29,14.47,19.36,834.120,2077.900,126.750000,20.62,2.4905,363,23714,1.93304,4.10,53190,,,,,,,,,,,,,,,,,,99999,99999,99999,99999,99999,99999,99999,99999,99999,99999,99999,99999
3:12:19,1510768200,2017-11-15T17:50:07,0.777,147.3,17.31,14.40,19.38,834.140,2077.960,124.849998,21.19,2.4903,363,23711,1.93608,4.10,53185,,,,,,,,,,,,,,,,,,99999,99999,99999,99999,99999,99999,99999,99999,99999,99999,99999,99999
3:12:49,1510768230,2017-11-15T17:50:37,0.768,147.7,17.33,14.32,19.43,834.190,2078.020,128.616669,21.23,2.4902,363,23707,1.91368,4.10,53180,,,,,,,,,,,,,,,,,,99999,99999,99999,99999,99999,99999,99999,99999,99999,99999,99999,99999
3:13:19,1510768260,2017-11-15T17:51:07,0.778,148.1,17.35,14.26,19.46,834.070,2078.090,121.716667,21.07,2.4902,363,23707,1.93851,4.10,53175,,,,,,,,,,,,,,,,,,99999,99999,99999,99999,99999,99999,99999,99999,99999,99999,99999,99999
3:13:49,1510768290,2017-11-15T17:51:37,0.774,148.5,17.38,14.21,19.48,834.070,2078.130,124.966667,21.21,2.4899,363,23705,1.92729,4.10,53171,,,,,,,,,,,,,,,,,,99999,99999,99999,99999,99999,99999,99999,99999,99999,99999,99999,99999
3:14:19,1510768320,2017-11-15T17:52:07,0.780,148.8,17.40,14.18,19.51,834.040,2078.250,122.383331,21.41,2.4899,363,23700,1.94155,4.10,53166,,,,,,,,,,,,,,,,,,99999,99999,99999,99999,99999,99999,99999,99999,99999,99999,99999,99999
3:14:49,1510768350,2017-11-15T17:52:37,0.776,149.2,17.42,14.15,19.51,834.030,2078.360,120.083336,19.87,2.4900,363,23705,1.93153,4.10,53161,,,,,,,,,,,,,,,,,,99999,99999,99999,99999,99999,99999,99999,99999,99999,99999,99999,99999
3:15:19,1510768380,2017-11-15T17:53:07,0.778,149.6,17.45,14.14,19.58,834.050,2078.490,123.533333,20.21,2.4898,363,23704,1.93821,4.10,53157,,,,,,,,,,,,,,,,,,99999,99999,99999,99999,99999,99999,99999,99999,99999,99999,99999,99999
3:15:49,1510768410,2017-11-15T17:53:37,0.776,150.0,17.47,14.11,19.58,834.020,2078.490,124.033333,21.32,2.4896,363,23702,1.93123,4.10,53152,,,,,,,,,,,,,,,,,,99999,99999,99999,99999,99999,99999,99999,99999,99999,99999,99999,99999
3:16:19,1510768440,2017-11-15T17:54:07,0.776,150.4,17.49,14.13,19.63,833.940,2078.590,126.266670,20.73,2.4896,363,23707,1.93153,4.17,53155,,,,,,,,,,,,,,,,,,99999,99999,99999,99999,99999,99999,99999,99999,99999,99999,99999,99999
3:16:49,1510768470,2017-11-15T17:54:37,0.777,150.8,17.53,14.17,19.63,833.980,2078.710,125.616669,20.50,2.4894,363,23711,1.93487,4.17,53159,,,,,,,,,,,,,,,,,,99999,99999,99999,99999,99999,99999,99999,99999,99999,99999,99999,99999
3:17:19,1510768500,2017-11-15T17:55:07,0.769,151.2,17.57,14.25,19.70,833.920,2078.880,133.716660,19.68,2.4893,363,23714,1.91459,4.17,53162,,,,,,,,,,,,,,,,,,99999,99999,99999,99999,99999,99999,99999,99999,99999,99999,99999,99999
3:17:49,1510768530,2017-11-15T17:55:37,0.770,151.6,17.59,14.30,19.72,833.890,2078.940,136.433334,20.46,2.4891,363,23713,1.91670,4.17,53166,,,,,,,,,,,,,,,,,,99999,99999,99999,99999,99999,99999,99999,99999,99999,99999,99999,99999
3:18:19,1510768560,2017-11-15T17:56:07,0.779,151.9,17.62,14.34,19.74,833.930,2079.040,123.300003,20.21,2.4890,363,23718,1.93790,4.17,53169,,,,,,,,,,,,,,,,,,99999,99999,99999,99999,99999,99999,99999,99999,99999,99999,99999,99999
3:18:49,1510768590,2017-11-15T17:56:37,0.770,152.3,17.65,14.36,19.75,834.010,2079.110,128.966660,20.69,2.4888,363,23717,1.91519,4.17,53173,,,,,,,,,,,,,,,,,,99999,99999,99999,99999,99999,99999,99999,99999,99999,99999,99999,99999
3:19:19,1510768620,2017-11-15T17:57:07,0.779,152.7,17.65,14.41,19.77,833.900,2079.110,123.783333,20.81,2.4888,363,23719,1.93882,4.17,53176,,,,,,,,,,,,,,,,,,99999,99999,99999,99999,99999,99999,99999,99999,99999,99999,99999,99999
3:19:49,1510768650,2017-11-15T17:57:37,0.776,153.1,17.69,14.46,19.77,833.970,2079.300,128.966660,20.76,2.4887,363,23718,1.93062,4.17,53179,,,,,,,,,,,,,,,,,,99999,99999,99999,99999,99999,99999,99999,99999,99999,99999,99999,99999
3:20:19,1510768680,2017-11-15T17:58:07,0.779,153.5,17.72,14.48,19.85,833.940,2079.340,122.800003,19.98,2.4885,363,23718,1.93912,4.17,53183,,,,,,,,,,,,,,,,,,99999,99999,99999,99999,99999,99999,99999,99999,99999,99999,99999,99999
3:20:49,1510768710,2017-11-15T17:58:37,0.777,153.9,17.74,14.51,19.85,833.880,2079.460,124.250000,20.38,2.4885,363,23721,1.93426,4.17,53186,,,,,,,,,,,,,,,,,,99999,99999,99999,99999,99999,99999,99999,99999,99999,99999,99999,99999
3:21:19,1510768740,2017-11-15T17:59:07,0.775,154.3,17.77,14.52,19.90,833.840,2079.570,125.233330,18.94,2.4885,363,23721,1.92880,4.17,53189,,,,,,,,,,,,,,,,,,99999,99999,99999,99999,99999,99999,99999,99999,99999,99999,99999,99999
3:21:49,1510768770,2017-11-15T17:59:37,0.774,154.7,17.79,14.56,19.88,833.870,2079.690,126.666664,19.04,2.4884,363,23722,1.92517,4.17,53191,,,,,,,,,,,,,,,,,,99999,99999,99999,99999,99999,99999,99999,99999,99999,99999,99999,99999
3:22:19,1510768800,2017-11-15T18:00:07,0.775,155.0,17.81,14.57,19.92,833.840,2079.760,124.650002,19.67,2.4883,363,23723,1.92759,4.17,53194,,,,,,,,,,,,,,,,,,99999,99999,99999,99999,99999,99999,99999,99999,99999,99999,99999,99999
3:22:49,1510768830,2017-11-15T18:00:37,0.782,155.4,17.82,14.58,19.94,833.970,2079.760,122.566666,19.94,2.4882,363,23724,1.94459,4.17,53197,,,,,,,,,,,,,,,,,,99999,99999,99999,99999,99999,99999,99999,99999,99999,99999,99999,99999
3:23:19,1510768860,2017-11-15T18:01:07,0.777,155.8,17.82,14.58,19.92,833.810,2079.760,127.666664,18.90,2.4883,363,23720,1.93335,4.17,53200,,,,,,,,,,,,,,,,,,99999,99999,99999,99999,99999,99999,99999,99999,99999,99999,99999,99999
3:23:49,1510768890,2017-11-15T18:01:37,0.776,156.2,17.83,14.58,19.90,833.760,2079.800,128.483337,18.98,2.4882,363,23722,1.93183,4.17,53203,,,,,,,,,,,,,,,,,,99999,99999,99999,99999,99999,99999,99999,99999,99999,99999,99999,99999
3:24:19,1510768920,2017-11-15T18:02:07,0.774,156.6,17.85,14.59,19.93,833.620,2079.860,129.033340,19.29,2.4881,363,23723,1.92607,4.16,53205,,,,,,,,,,,,,,,,,,99999,99999,99999,99999,99999,99999,99999,99999,99999,99999,99999,99999
3:24:49,1510768950,2017-11-15T18:02:37,0.771,157.0,17.83,14.60,19.93,833.860,2079.800,129.100006,19.47,2.4882,363,23724,1.91730,4.16,53208,,,,,,,,,,,,,,,,,,99999,99999,99999,99999,99999,99999,99999,99999,99999,99999,99999,99999
3:25:19,1510768980,2017-11-15T18:03:07,0.775,157.4,17.84,14.59,19.93,833.800,2079.800,123.416664,19.25,2.4881,363,23722,1.92729,4.17,53210,,,,,,,,,,,,,,,,,,99999,99999,99999,99999,99999,99999,99999,99999,99999,99999,99999,99999
3:25:49,1510769010,2017-11-15T18:03:37,0.777,157.8,17.85,14.59,19.92,833.750,2079.860,119.266670,19.23,2.4881,363,23725,1.93396,4.17,53213,,,,,,,,,,,,,,,,,,99999,99999,99999,99999,99999,99999,99999,99999,99999,99999,99999,99999
3:26:19,1510769040,2017-11-15T18:04:07,0.777,158.1,17.84,14.60,19.94,833.830,2079.800,123.150002,19.05,2.4881,363,23722,1.93274,4.16,53215,,,,,,,,,,,,,,,,,,99999,99999,99999,99999,99999,99999,99999,99999,99999,99999,99999,99999
3:26:49,1510769070,2017-11-15T18:04:37,0.778,158.5,17.85,14.58,19.93,833.720,2079.860,128.850006,19.63,2.4881,363,23723,1.93487,4.17,53218,,,,,,,,,,,,,,,,,,99999,99999,99999,99999,99999,99999,99999,99999,99999,99999,99999,99999
3:27:19,1510769100,2017-11-15T18:05:07,0.770,158.9,17.84,14.60,19.92,833.720,2079.800,128.533340,19.57,2.4881,363,23725,1.91579,4.16,53220,,,,,,,,,,,,,,,,,,99999,99999,99999,99999,99999,99999,99999,99999,99999,99999,99999,99999
3:27:49,1510769130,2017-11-15T18:05:37,0.776,159.3,17.85,14.61,19.93,833.750,2079.860,127.666664,19.44,2.4881,363,23722,1.93183,4.16,53222,,,,,,,,,,,,,,,,,,99999,99999,99999,99999,99999,99999,99999,99999,99999,99999,99999,99999
3:28:19,1510769160,2017-11-15T18:06:07,0.776,159.7,17.82,14.58,19.90,833.730,2079.760,121.699997,20.08,2.4882,363,23721,1.93062,4.16,53224,,,,,,,,,,,,,,,,,,99999,99999,99999,99999,99999,99999,99999,99999,99999,99999,99999,99999
3:28:49,1510769190,2017-11-15T18:06:37,0.777,160.1,17.83,14.60,19.90,833.700,2079.800,129.616669,19.47,2.4882,363,23721,1.93244,4.16,53227,,,,,,,,,,,,,,,,,,99999,99999,99999,99999,99999,99999,99999,99999,99999,99999,99999,99999
3:29:19,1510769220,2017-11-15T18:07:07,0.777,160.5,17.83,14.62,19.86,833.810,2079.800,125.566666,19.87,2.4881,363,23722,1.93213,4.17,53229,,,,,,,,,,,,,,,,,,99999,99999,99999,99999,99999,99999,99999,99999,99999,99999,99999,99999
3:29:49,1510769250,2017-11-15T18:07:37,0.776,160.9,17.83,14.62,19.92,833.620,2079.800,126.233330,18.62,2.4883,363,23725,1.93092,4.16,53231,,,,,,,,,,,,,,,,,,99999,99999,99999,99999,99999,99999,99999,99999,99999,99999,99999,99999
3:30:19,1510769280,2017-11-15T18:08:07,0.775,161.2,17.83,14.62,19.90,833.620,2079.800,132.866669,19.09,2.4882,363,23717,1.92759,4.10,53229,,,,,,,,,,,,,,,,,,99999,99999,99999,99999,99999,99999,99999,99999,99999,99999,99999,99999
3:30:49,1510769310,2017-11-15T18:08:37,0.772,161.6,17.84,14.59,19.94,833.640,2079.800,126.433334,18.98,2.4881,363,23716,1.92184,4.10,53224,,,,,,,,,,,,,,,,,,99999,99999,99999,99999,99999,99999,99999,99999,99999,99999,99999,99999
3:31:19,1510769340,2017-11-15T18:09:07,0.775,162.0,17.83,14.56,19.88,833.760,2079.800,123.216667,19.79,2.4882,363,23716,1.92729,4.10,53220,,,,,,,,,,,,,,,,,,99999,99999,99999,99999,99999,99999,99999,99999,99999,99999,99999,99999
3:31:49,1510769370,2017-11-15T18:09:37,0.771,162.4,17.83,14.53,19.92,833.620,2079.800,134.149994,18.84,2.4882,363,23713,1.91942,4.10,53215,,,,,,,,,,,,,,,,,,99999,99999,99999,99999,99999,99999,99999,99999,99999,99999,99999,99999
3:32:19,1510769400,2017-11-15T18:10:07,0.777,162.8,17.82,14.51,19.86,833.730,2079.760,123.966667,19.13,2.4883,363,23713,1.93244,4.10,53210,,,,,,,,,,,,,,,,,,99999,99999,99999,99999,99999,99999,99999,99999,99999,99999,99999,99999
3:32:49,1510769430,2017-11-15T18:10:37,0.771,163.2,17.81,14.48,19.90,833.650,2079.760,134.433334,19.42,2.4883,363,23714,1.91761,4.10,53205,,,,,,,,,,,,,,,,,,99999,99999,99999,99999,99999,99999,99999,99999,99999,99999,99999,99999
3:33:19,1510769460,2017-11-15T18:11:07,0.776,163.6,17.80,14.45,19.88,833.680,2079.690,123.599998,19.01,2.4884,363,23712,1.93062,4.10,53201,,,,,,,,,,,,,,,,,,99999,99999,99999,99999,99999,99999,99999,99999,99999,99999,99999,99999
3:33:49,1510769490,2017-11-15T18:11:37,0.775,164.0,17.80,14.42,19.85,833.580,2079.690,127.533333,19.38,2.4883,363,23712,1.92789,4.10,53196,,,,,,,,,,,,,,,,,,99999,99999,99999,99999,99999,99999,99999,99999,99999,99999,99999,99999
3:34:19,1510769520,2017-11-15T18:12:07,0.776,164.3,17.79,14.42,19.86,833.710,2079.690,128.600006,19.38,2.4884,363,23711,1.93001,4.10,53191,,,,,,,,,,,,,,,,,,99999,99999,99999,99999,99999,99999,99999,99999,99999,99999,99999,99999
3:34:49,1510769550,2017-11-15T18:12:37,0.774,164.7,17.80,14.42,19.90,833.600,2079.690,131.800003,19.14,2.4883,363,23710,1.92607,4.10,53186,,,,,,,,,,,,,,,,,,99999,99999,99999,99999,99999,99999,99999,99999,99999,99999,99999,99999
3:35:19,1510769580,2017-11-15T18:13:07,0.772,165.1,17.80,14.43,19.88,833.600,2079.690,126.933334,19.64,2.4883,363,23709,1.92153,4.10,53182,,,,,,,,,,,,,,,,,,99999,99999,99999,99999,99999,99999,99999,99999,99999,99999,99999,99999
3:35:49,1510769610,2017-11-15T18:13:37,0.775,165.5,17.82,14.42,19.88,833.570,2079.760,130.583328,18.73,2.4883,363,23710,1.92729,4.10,53177,,,,,,,,,,,,,,,,,,99999,99999,99999,99999,99999,99999,99999,99999,99999,99999,99999,99999
3:36:19,1510769640,2017-11-15T18:14:07,0.776,165.9,17.82,14.42,19.85,833.620,2079.760,125.866669,18.97,2.4883,363,23709,1.93213,4.10,53173,,,,,,,,,,,,,,,,,,99999,99999,99999,99999,99999,99999,99999,99999,99999,99999,99999,99999
3:36:49,1510769670,2017-11-15T18:14:37,0.779,166.3,17.82,14.42,19.90,833.680,2079.760,125.216667,19.71,2.4882,363,23708,1.93760,4.10,53168,,,,,,,,,,,,,,,,,,99999,99999,99999,99999,99999,99999,99999,99999,99999,99999,99999,99999
3:37:19,1510769700,2017-11-15T18:15:07,0.772,166.7,17.82,14.40,19.90,833.650,2079.760,125.500000,19.27,2.4882,363,23709,1.92123,4.10,53163,,,,,,,,,,,,,,,,,,99999,99999,99999,99999,99999,99999,99999,99999,99999,99999,99999,99999
3:37:49,1510769730,2017-11-15T18:15:37,0.776,167.1,17.82,14.41,19.88,833.680,2079.760,121.083336,19.89,2.4882,363,23709,1.93183,4.10,53159,,,,,,,,,,,,,,,,,,99999,99999,99999,99999,99999,99999,99999,99999,99999,99999,99999,99999
3:38:19,1510769760,2017-11-15T18:16:07,0.779,167.5,17.83,14.44,19.88,833.600,2079.800,123.783333,18.76,2.4882,363,23708,1.93942,4.12,53154,,,,,,,,,,,,,,,,,,99999,99999,99999,99999,99999,99999,99999,99999,99999,99999,99999,99999
3:38:49,1510769790,2017-11-15T18:16:37,0.776,167.8,17.83,14.44,19.90,833.600,2079.800,127.716667,18.96,2.4882,363,23709,1.93062,4.10,53150,,,,,,,,,,,,,,,,,,99999,99999,99999,99999,99999,99999,99999,99999,99999,99999,99999,99999
3:39:19,1510769820,2017-11-15T18:17:07,0.768,168.2,17.83,14.44,19.92,833.600,2079.800,132.983337,19.18,2.4882,363,23712,1.91067,4.10,53145,,,,,,,,,,,,,,,,,,99999,99999,99999,99999,99999,99999,99999,99999,99999,99999,99999,99999
3:39:49,1510769850,2017-11-15T18:17:37,0.774,168.6,17.83,14.45,19.88,833.600,2079.800,129.716660,18.91,2.4882,363,23711,1.92638,4.10,53140,,,,,,,,,,,,,,,,,,99999,99999,99999,99999,99999,99999,99999,99999,99999,99999,99999,99999
3:40:19,1510769880,2017-11-15T18:18:07,0.772,169.0,17.82,14.43,19.90,833.620,2079.760,133.916672,19.04,2.4883,363,23710,1.92033,4.10,53136,,,,,,,,,,,,,,,,,,99999,99999,99999,99999,99999,99999,99999,99999,99999,99999,99999,99999
3:40:49,1510769910,2017-11-15T18:18:37,0.774,169.4,17.82,14.42,19.85,833.700,2079.760,127.166664,18.98,2.4883,363,23710,1.92486,4.10,53131,,,,,,,,,,,,,,,,,,99999,99999,99999,99999,99999,99999,99999,99999,99999,99999,99999,99999
3:41:19,1510769940,2017-11-15T18:19:07,0.773,169.8,17.80,14.42,19.90,833.660,2079.690,128.533340,19.05,2.4883,363,23709,1.92275,4.10,53128,,,,,,,,,,,,,,,,,,99999,99999,99999,99999,99999,99999,99999,99999,99999,99999,99999,99999
3:41:49,1510769970,2017-11-15T18:19:37,0.776,170.2,17.80,14.42,19.85,833.630,2079.690,128.649994,19.13,2.4883,363,23710,1.93123,4.10,53124,,,,,,,,,,,,,,,,,,99999,99999,99999,99999,99999,99999,99999,99999,99999,99999,99999,99999
3:42:19,1510770000,2017-11-15T18:20:07,0.772,170.6,17.78,14.38,19.85,833.550,2079.570,128.566666,18.74,2.4884,363,23709,1.92002,4.10,53119,,,,,,,,,,,,,,,,,,99999,99999,99999,99999,99999,99999,99999,99999,99999,99999,99999,99999
3:42:49,1510770030,2017-11-15T18:20:37,0.779,170.9,17.74,14.38,19.83,833.540,2079.460,124.150002,19.12,2.4886,363,23708,1.93942,4.10,53114,,,,,,,,,,,,,,,,,,99999,99999,99999,99999,99999,99999,99999,99999,99999,99999,99999,99999
3:43:19,1510770060,2017-11-15T18:21:07,0.774,171.3,17.72,14.36,19.78,833.540,2079.340,125.033333,19.51,2.4886,363,23710,1.92668,4.10,53110,,,,,,,,,,,,,,,,,,99999,99999,99999,99999,99999,99999,99999,99999,99999,99999,99999,99999
3:43:49,1510770090,2017-11-15T18:21:37,0.772,171.7,17.69,14.36,19.77,833.520,2079.300,125.133331,19.60,2.4888,363,23707,1.92123,4.10,53105,,,,,,,,,,,,,,,,,,99999,99999,99999,99999,99999,99999,99999,99999,99999,99999,99999,99999
3:44:19,1510770120,2017-11-15T18:22:07,0.779,172.1,17.67,14.35,19.70,833.520,2079.170,123.366669,19.61,2.4888,363,23707,1.93790,4.10,53100,,,,,,,,,,,,,,,,,,99999,99999,99999,99999,99999,99999,99999,99999,99999,99999,99999,99999
3:44:49,1510770150,2017-11-15T18:22:37,0.770,172.5,17.63,14.36,19.69,833.510,2079.040,131.750000,20.28,2.4889,363,23705,1.91640,4.10,53096,,,,,,,,,,,,,,,,,,99999,99999,99999,99999,99999,99999,99999,99999,99999,99999,99999,99999
3:45:19,1510770180,2017-11-15T18:23:07,0.775,172.9,17.60,14.34,19.63,833.510,2079.010,123.233330,20.23,2.4892,363,23708,1.92789,4.10,53092,,,,,,,,,,,,,,,,,,99999,99999,99999,99999,99999,99999,99999,99999,99999,99999,99999,99999
3:45:49,1510770210,2017-11-15T18:23:37,0.773,173.3,17.58,14.34,19.58,833.520,2078.940,127.400002,20.03,2.4893,363,23707,1.92365,4.10,53088,,,,,,,,,,,,,,,,,,99999,99999,99999,99999,99999,99999,99999,99999,99999,99999,99999,99999
3:46:19,1510770240,2017-11-15T18:24:07,0.769,173.6,17.56,14.34,19.56,833.440,2078.820,136.483337,19.55,2.4893,363,23708,1.91338,4.10,53083,,,,,,,,,,,,,,,,,,99999,99999,99999,99999,99999,99999,99999,99999,99999,99999,99999,99999
3:46:49,1510770270,2017-11-15T18:24:37,0.778,174.0,17.53,14.34,19.55,833.420,2078.710,126.000000,19.57,2.4895,363,23708,1.93669,4.10,53078,,,,,,,,,,,,,,,,,,99999,99999,99999,99999,99999,99999,99999,99999,99999,99999,99999,99999
3:47:19,1510770300,2017-11-15T18:25:07,0.772,174.4,17.52,14.34,19.48,833.530,2078.650,129.666672,19.91,2.4895,363,23706,1.92214,4.10,53074,,,,,,,,,,,,,,,,,,99999,99999,99999,99999,99999,99999,99999,99999,99999,99999,99999,99999
3:47:49,1510770330,2017-11-15T18:25:37,0.777,174.8,17.50,14.36,19.48,833.480,2078.590,122.716667,19.69,2.4896,363,23707,1.93517,4.10,53069,,,,,,,,,,,,,,,,,,99999,99999,99999,99999,99999,99999,99999,99999,99999,99999,99999,99999
3:48:19,1510770360,2017-11-15T18:26:07,0.768,175.2,17.51,14.37,19.50,833.370,2078.650,127.833336,19.75,2.4896,363,23706,1.91187,4.09,53065,,,,,,,,,,,,,,,,,,99999,99999,99999,99999,99999,99999,99999,99999,99999,99999,99999,99999
3:48:49,1510770390,2017-11-15T18:26:37,0.766,175.6,17.52,14.38,19.44,833.470,2078.650,135.083328,19.70,2.4895,363,23709,1.90795,4.09,53060,,,,,,,,,,,,,,,,,,99999,99999,99999,99999,99999,99999,99999,99999,99999,99999,99999,99999
3:49:19,1510770420,2017-11-15T18:27:07,0.773,176.0,17.53,14.40,19.51,833.370,2078.710,129.399994,19.16,2.4895,363,23712,1.92547,4.09,53055,,,,,,,,,,,,,,,,,,99999,99999,99999,99999,99999,99999,99999,99999,99999,99999,99999,99999
3:49:49,1510770450,2017-11-15T18:27:37,0.775,176.4,17.54,14.42,19.51,833.420,2078.710,126.616669,19.31,2.4894,363,23710,1.92910,4.09,53051,,,,,,,,,,,,,,,,,,99999,99999,99999,99999,99999,99999,99999,99999,99999,99999,99999,99999
3:50:19,1510770480,2017-11-15T18:28:07,0.770,176.7,17.55,14.41,19.52,833.310,2078.710,127.383331,19.37,2.4893,363,23711,1.91579,4.09,53046,,,,,,,,,,,,,,,,,,99999,99999,99999,99999,99999,99999,99999,99999,99999,99999,99999,99999
3:50:49,1510770510,2017-11-15T18:28:37,0.774,177.1,17.57,14.41,19.58,833.420,2078.880,124.833336,19.47,2.4893,363,23710,1.92607,4.09,53042,,,,,,,,,,,,,,,,,,99999,99999,99999,99999,99999,99999,99999,99999,99999,99999,99999,99999
3:51:19,1510770540,2017-11-15T18:29:07,0.765,177.5,17.59,14.41,19.58,833.200,2078.940,132.883331,19.49,2.4892,363,23717,1.90374,4.09,53037,,,,,,,,,,,,,,,,,,99999,99999,99999,99999,99999,99999,99999,99999,99999,99999,99999,99999
3:51:49,1510770570,2017-11-15T18:29:37,0.766,177.9,17.61,14.42,19.60,833.290,2079.010,130.516663,19.43,2.4891,363,23710,1.90735,4.09,53032,,,,,,,,,,,,,,,,,,99999,99999,99999,99999,99999,99999,99999,99999,99999,99999,99999,99999
3:52:19,1510770600,2017-11-15T18:30:07,0.779,178.3,17.63,14.45,19.64,833.370,2079.040,124.733330,19.80,2.4890,363,23717,1.93851,4.15,53034,,,,,,,,,,,,,,,,,,99999,99999,99999,99999,99999,99999,99999,99999,99999,99999,99999,99999
3:52:49,1510770630,2017-11-15T18:30:37,0.771,178.7,17.66,14.51,19.66,833.260,2079.170,125.000000,19.20,2.4889,363,23719,1.92002,4.15,53036,,,,,,,,,,,,,,,,,,99999,99999,99999,99999,99999,99999,99999,99999,99999,99999,99999,99999
3:53:19,1510770660,2017-11-15T18:31:07,0.777,179.1,17.70,14.61,19.67,833.250,2079.340,123.916664,19.56,2.4888,363,23722,1.93304,4.15,53038,,,,,,,,,,,,,,,,,,99999,99999,99999,99999,99999,99999,99999,99999,99999,99999,99999,99999
3:53:49,1510770690,2017-11-15T18:31:37,0.776,179.5,17.73,14.70,19.72,833.300,2079.400,125.983330,19.76,2.4885,363,23724,1.93153,4.15,53040,,,,,,,,,,,,,,,,,,99999,99999,99999,99999,99999,99999,99999,99999,99999,99999,99999,99999
3:54:19,1510770720,2017-11-15T18:32:07,0.781,179.8,17.77,14.75,19.77,833.310,2079.570,124.349998,19.23,2.4884,363,23726,1.94368,4.15,53042,,,,,,,,,,,,,,,,,,99999,99999,99999,99999,99999,99999,99999,99999,99999,99999,99999,99999
3:54:49,1510770750,2017-11-15T18:32:37,0.780,180.2,17.81,14.81,19.78,833.220,2079.760,119.800003,19.46,2.4883,363,23730,1.94155,4.15,53044,,,,,,,,,,,,,,,,,,99999,99999,99999,99999,99999,99999,99999,99999,99999,99999,99999,99999
3:55:19,1510770780,2017-11-15T18:33:07,0.782,180.6,17.83,14.86,19.83,833.280,2079.800,121.266670,19.66,2.4882,363,23730,1.94673,4.15,53046,,,,,,,,,,,,,,,,,,99999,99999,99999,99999,99999,99999,99999,99999,99999,99999,99999,99999
3:55:49,1510770810,2017-11-15T18:33:37,0.783,181.0,17.88,14.90,19.90,833.290,2079.920,123.550003,20.05,2.4878,363,23734,1.94703,4.15,53048,,,,,,,,,,,,,,,,,,99999,99999,99999,99999,99999,99999,99999,99999,99999,99999,99999,99999
3:56:19,1510770840,2017-11-15T18:34:07,0.775,181.4,17.93,14.95,19.92,833.230,2080.160,123.449997,20.40,2.4877,363,23734,1.92759,4.15,53050,,,,,,,,,,,,,,,,,,99999,99999,99999,99999,99999,99999,99999,99999,99999,99999,99999,99999
3:56:49,1510770870,2017-11-15T18:34:37,0.774,181.8,17.97,14.99,19.92,833.140,2080.260,126.550003,19.67,2.4875,363,23731,1.92517,4.10,53047,,,,,,,,,,,,,,,,,,99999,99999,99999,99999,99999,99999,99999,99999,99999,99999,99999,99999
3:57:19,1510770900,2017-11-15T18:35:07,0.776,182.2,18.02,14.98,20.04,833.130,2080.450,124.066666,18.74,2.4874,363,23730,1.93001,4.10,53044,,,,,,,,,,,,,,,,,,99999,99999,99999,99999,99999,99999,99999,99999,99999,99999,99999,99999
3:57:49,1510770930,2017-11-15T18:35:37,0.778,182.6,18.06,14.97,20.04,833.140,2080.610,129.183334,19.62,2.4871,363,23726,1.93517,4.09,53039,,,,,,,,,,,,,,,,,,99999,99999,99999,99999,99999,99999,99999,99999,99999,99999,99999,99999
3:58:19,1510770960,2017-11-15T18:36:07,0.780,183.0,18.10,14.95,20.08,833.210,2080.740,126.866669,19.77,2.4869,363,23729,1.94094,4.09,53036,,,,,,,,,,,,,,,,,,99999,99999,99999,99999,99999,99999,99999,99999,99999,99999,99999,99999
3:58:49,1510770990,2017-11-15T18:36:37,0.783,183.3,18.13,14.95,20.13,833.150,2080.780,124.233330,19.85,2.4867,363,23726,1.94612,4.09,53032,,,,,,,,,,,,,,,,,,99999,99999,99999,99999,99999,99999,99999,99999,99999,99999,99999,99999
3:59:19,1510771020,2017-11-15T18:37:07,0.779,183.7,18.18,14.93,20.14,833.240,2080.970,122.449997,19.71,2.4865,363,23725,1.93578,4.09,53027,,,,,,,,,,,,,,,,,,99999,99999,99999,99999,99999,99999,99999,99999,99999,99999,99999,99999
3:59:49,1510771050,2017-11-15T18:37:37,0.785,184.1,18.21,14.95,20.22,833.160,2081.070,121.699997,19.18,2.4864,363,23727,1.95099,4.09,53022,,,,,,,,,,,,,,,,,,99999,99999,99999,99999,99999,99999,99999,99999,99999,99999,99999,99999
4:00:19,1510771080,2017-11-15T18:38:07,0.777,184.5,18.26,14.93,20.25,833.200,2081.240,127.466667,19.05,2.4862,363,23727,1.93274,4.09,53018,,,,,,,,,,,,,,,,,,99999,99999,99999,99999,99999,99999,99999,99999,99999,99999,99999,99999
4:00:49,1510771110,2017-11-15T18:38:37,0.779,184.9,18.29,14.94,20.32,833.040,2081.360,125.416664,18.54,2.4862,363,23729,1.93669,4.09,53013,,,,,,,,,,,,,,,,,,99999,99999,99999,99999,99999,99999,99999,99999,99999,99999,99999,99999
4:01:19,1510771140,2017-11-15T18:39:07,0.769,185.3,18.33,14.93,20.32,833.020,2081.530,132.316666,18.68,2.4860,363,23726,1.91097,4.09,53008,,,,,,,,,,,,,,,,,,99999,99999,99999,99999,99999,99999,99999,99999,99999,99999,99999,99999
4:01:49,1510771170,2017-11-15T18:39:37,0.781,185.7,18.34,14.94,20.35,833.050,2081.600,123.400002,18.19,2.4860,363,23723,1.94064,4.09,53004,,,,,,,,,,,,,,,,,,99999,99999,99999,99999,99999,99999,99999,99999,99999,99999,99999,99999
4:02:19,1510771200,2017-11-15T18:40:07,0.771,186.1,18.35,14.93,20.36,833.050,2081.600,130.583328,18.56,2.4859,363,23726,1.91700,4.09,52999,,,,,,,,,,,,,,,,,,99999,99999,99999,99999,99999,99999,99999,99999,99999,99999,99999,99999
4:02:49,1510771230,2017-11-15T18:40:37,0.780,186.4,18.37,14.91,20.40,833.070,2081.660,128.350006,18.58,2.4858,363,23725,1.93942,4.09,52995,,,,,,,,,,,,,,,,,,99999,99999,99999,99999,99999,99999,99999,99999,99999,99999,99999,99999
4:03:19,1510771260,2017-11-15T18:41:07,0.775,186.8,18.39,14.92,20.42,833.010,2081.720,127.766670,18.81,2.4857,363,23726,1.92577,4.09,52990,,,,,,,,,,,,,,,,,,99999,99999,99999,99999,99999,99999,99999,99999,99999,99999,99999,99999
4:03:49,1510771290,2017-11-15T18:41:37,0.776,187.2,18.39,14.93,20.40,833.040,2081.720,134.416672,18.34,2.4857,363,23725,1.92789,4.09,52985,,,,,,,,,,,,,,,,,,99999,99999,99999,99999,99999,99999,99999,99999,99999,99999,99999,99999
4:04:19,1510771320,2017-11-15T18:42:07,0.778,187.6,18.40,14.91,20.42,832.990,2081.760,128.133331,18.58,2.4857,363,23723,1.93335,4.09,52981,,,,,,,,,,,,,,,,,,99999,99999,99999,99999,99999,99999,99999,99999,99999,99999,99999,99999
4:04:49,1510771350,2017-11-15T18:42:37,0.775,188.0,18.39,14.92,20.42,833.070,2081.720,131.050003,18.92,2.4857,363,23723,1.92547,4.09,52976,,,,,,,,,,,,,,,,,,99999,99999,99999,99999,99999,99999,99999,99999,99999,99999,99999,99999
4:05:19,1510771380,2017-11-15T18:43:07,0.778,188.4,18.40,14.90,20.40,832.960,2081.760,123.766670,19.07,2.4856,363,23725,1.93426,4.09,52972,,,,,,,,,,,,,,,,,,99999,99999,99999,99999,99999,99999,99999,99999,99999,99999,99999,99999
4:05:49,1510771410,2017-11-15T18:43:37,0.783,188.8,18.42,14.93,20.43,832.900,2081.830,123.900002,19.01,2.4855,363,23726,1.94581,4.09,52967,,,,,,,,,,,,,,,,,,99999,99999,99999,99999,99999,99999,99999,99999,99999,99999,99999,99999
4:06:19,1510771440,2017-11-15T18:44:07,0.777,189.2,18.43,14.93,20.42,832.930,2081.830,125.633331,19.30,2.4854,363,23727,1.93001,4.09,52962,,,,,,,,,,,,,,,,,,99999,99999,99999,99999,99999,99999,99999,99999,99999,99999,99999,99999
4:06:49,1510771470,2017-11-15T18:44:37,0.779,189.6,18.46,14.95,20.48,832.920,2081.880,127.866669,18.55,2.4853,363,23725,1.93517,4.09,52958,,,,,,,,,,,,,,,,,,99999,99999,99999,99999,99999,99999,99999,99999,99999,99999,99999,99999
4:07:19,1510771500,2017-11-15T18:45:07,0.781,190.0,18.47,14.97,20.46,832.990,2081.990,123.083336,19.16,2.4853,363,23724,1.94125,4.09,52953,,,,,,,,,,,,,,,,,,99999,99999,99999,99999,99999,99999,99999,99999,99999,99999,99999,99999
4:07:49,1510771530,2017-11-15T18:45:37,0.780,190.3,18.51,14.98,20.54,832.910,2082.180,129.983337,18.72,2.4852,363,23728,1.93942,4.09,52948,,,,,,,,,,,,,,,,,,99999,99999,99999,99999,99999,99999,99999,99999,99999,99999,99999,99999
4:08:19,1510771560,2017-11-15T18:46:07,0.778,190.7,18.53,15.01,20.56,832.960,2082.220,124.816666,18.51,2.4851,363,23729,1.93365,4.09,52944,,,,,,,,,,,,,,,,,,99999,99999,99999,99999,99999,99999,99999,99999,99999,99999,99999,99999
4:08:49,1510771590,2017-11-15T18:46:37,0.779,191.1,18.56,15.03,20.58,832.950,2082.280,123.166664,18.75,2.4849,363,23726,1.93669,4.09,52939,,,,,,,,,,,,,,,,,,99999,99999,99999,99999,99999,99999,99999,99999,99999,99999,99999,99999
4:09:19,1510771620,2017-11-15T18:47:07,0.778,191.5,18.58,15.04,20.59,832.780,2082.350,129.866669,18.59,2.4848,363,23731,1.93335,4.09,52935,,,,,,,,,,,,,,,,,,99999,99999,99999,99999,99999,99999,99999,99999,99999,99999,99999,99999
4:09:49,1510771650,2017-11-15T18:47:37,0.777,191.9,18.61,15.05,20.60,832.700,2082.510,126.966667,18.39,2.4848,363,23729,1.93032,4.09,52930,,,,,,,,,,,,,,,,,,99999,99999,99999,99999,99999,99999,99999,99999,99999,99999,99999,99999
4:10:19,1510771680,2017-11-15T18:48:07,0.783,192.3,18.62,15.08,20.66,832.880,2082.510,128.083328,18.86,2.4846,363,23729,1.94520,4.09,52925,,,,,,,,,,,,,,,,,,99999,99999,99999,99999,99999,99999,99999,99999,99999,99999,99999,99999
4:10:49,1510771710,2017-11-15T18:48:37,0.780,192.7,18.65,15.07,20.68,832.820,2082.640,123.150002,18.70,2.4846,363,23730,1.93699,4.09,52921,,,,,,,,,,,,,,,,,,99999,99999,99999,99999,99999,99999,99999,99999,99999,99999,99999,99999
4:11:19,1510771740,2017-11-15T18:49:07,0.781,193.1,18.68,15.10,20.72,832.820,2082.700,123.383331,18.60,2.4844,363,23733,1.94064,4.09,52916,,,,,,,,,,,,,,,,,,99999,99999,99999,99999,99999,99999,99999,99999,99999,99999,99999,99999
4:11:49,1510771770,2017-11-15T18:49:37,0.780,193.5,18.72,15.09,20.70,832.730,2082.800,130.433334,18.46,2.4842,363,23733,1.93790,4.09,52912,,,,,,,,,,,,,,,,,,99999,99999,99999,99999,99999,99999,99999,99999,99999,99999,99999,99999
4:12:19,1510771800,2017-11-15T18:50:07,0.785,193.9,18.74,15.14,20.75,832.780,2082.970,125.333336,18.94,2.4842,363,23734,1.94947,4.09,52907,,,,,,,,,,,,,,,,,,99999,99999,99999,99999,99999,99999,99999,99999,99999,99999,99999,99999
4:12:49,1510771830,2017-11-15T18:50:37,0.776,194.2,18.77,15.15,20.76,832.740,2083.030,135.649994,19.12,2.4840,363,23732,1.92789,4.09,52902,,,,,,,,,,,,,,,,,,99999,99999,99999,99999,99999,99999,99999,99999,99999,99999,99999,99999
4:13:19,1510771860,2017-11-15T18:51:07,0.777,194.6,18.81,15.18,20.85,832.710,2083.160,131.266663,18.15,2.4839,363,23734,1.92880,4.14,52898,,,,,,,,,,,,,,,,,,99999,99999,99999,99999,99999,99999,99999,99999,99999,99999,99999,99999
4:13:49,1510771890,2017-11-15T18:51:37,0.772,195.0,18.82,15.20,20.83,832.750,2083.200,134.783340,18.39,2.4838,363,23734,1.91791,4.09,52893,,,,,,,,,,,,,,,,,,99999,99999,99999,99999,99999,99999,99999,99999,99999,99999,99999,99999
4:14:19,1510771920,2017-11-15T18:52:07,0.779,195.4,18.85,15.23,20.85,832.830,2083.270,127.733330,18.21,2.4836,363,23734,1.93426,4.09,52888,,,,,,,,,,,,,,,,,,99999,99999,99999,99999,99999,99999,99999,99999,99999,99999,99999,99999
4:14:49,1510771950,2017-11-15T18:52:37,0.780,195.8,18.86,15.23,20.90,832.720,2083.390,125.816666,17.47,2.4838,363,23735,1.93760,4.09,52884,,,,,,,,,,,,,,,,,,99999,99999,99999,99999,99999,99999,99999,99999,99999,99999,99999,99999
4:15:19,1510771980,2017-11-15T18:53:07,0.781,196.2,18.89,15.25,20.88,832.720,2083.500,129.316666,17.83,2.4836,363,23735,1.93942,4.09,52879,,,,,,,,,,,,,,,,,,99999,99999,99999,99999,99999,99999,99999,99999,99999,99999,99999,99999
4:15:49,1510772010,2017-11-15T18:53:37,0.781,196.6,18.92,15.26,20.93,832.890,2083.560,123.433334,18.54,2.4833,363,23735,1.93973,4.09,52874,,,,,,,,,,,,,,,,,,99999,99999,99999,99999,99999,99999,99999,99999,99999,99999,99999,99999
4:16:19,1510772040,2017-11-15T18:54:07,0.786,197.0,18.94,15.26,20.96,832.780,2083.620,124.150002,18.32,2.4833,363,23740,1.95252,4.09,52870,,,,,,,,,,,,,,,,,,99999,99999,99999,99999,99999,99999,99999,99999,99999,99999,99999,99999
4:16:49,1510772070,2017-11-15T18:54:37,0.780,197.4,18.95,15.30,20.98,832.760,2083.680,132.033340,17.51,2.4833,363,23737,1.93790,4.09,52865,,,,,,,,,,,,,,,,,,99999,99999,99999,99999,99999,99999,99999,99999,99999,99999,99999,99999
4:17:19,1510772100,2017-11-15T18:55:07,0.783,197.8,18.97,15.29,20.94,832.640,2083.680,123.449997,18.10,2.4831,363,23740,1.94398,4.09,52861,,,,,,,,,,,,,,,,,,99999,99999,99999,99999,99999,99999,99999,99999,99999,99999,99999,99999
4:17:49,1510772130,2017-11-15T18:55:37,0.783,198.1,18.97,15.31,21.00,832.670,2083.680,125.333336,17.77,2.4831,363,23739,1.94338,4.09,52856,,,,,,,,,,,,,,,,,,99999,99999,99999,99999,99999,99999,99999,99999,99999,99999,99999,99999
4:18:19,1510772160,2017-11-15T18:56:07,0.786,198.5,18.98,15.33,21.00,832.750,2083.720,124.866669,18.17,2.4831,363,23738,1.95160,4.09,52851,,,,,,,,,,,,,,,,,,99999,99999,99999,99999,99999,99999,99999,99999,99999,99999,99999,99999
4:18:49,1510772190,2017-11-15T18:56:37,0.786,198.9,18.98,15.32,21.00,832.640,2083.720,124.900002,18.51,2.4830,363,23738,1.95252,4.09,52847,,,,,,,,,,,,,,,,,,99999,99999,99999,99999,99999,99999,99999,99999,99999,99999,99999,99999
4:19:19,1510772220,2017-11-15T18:57:07,0.784,199.3,18.98,15.33,20.98,832.670,2083.720,125.916664,17.83,2.4831,363,23738,1.94612,4.09,52842,,,,,,,,,,,,,,,,,,99999,99999,99999,99999,99999,99999,99999,99999,99999,99999,99999,99999
4:19:49,1510772250,2017-11-15T18:57:37,0.784,199.7,18.98,15.34,21.00,832.610,2083.720,126.533333,17.92,2.4831,363,23740,1.94733,4.09,52837,,,,,,,,,,,,,,,,,,99999,99999,99999,99999,99999,99999,99999,99999,99999,99999,99999,99999
4:20:19,1510772280,2017-11-15T18:58:07,0.784,200.1,18.99,15.35,21.00,832.690,2083.850,122.650002,18.31,2.4831,363,23738,1.94703,4.09,52833,,,,,,,,,,,,,,,,,,99999,99999,99999,99999,99999,99999,99999,99999,99999,99999,99999,99999
4:20:49,1510772310,2017-11-15T18:58:37,0.785,200.5,18.98,15.34,21.00,832.590,2083.720,125.383331,18.55,2.4830,363,23734,1.94794,4.09,52828,,,,,,,,,,,,,,,,,,99999,99999,99999,99999,99999,99999,99999,99999,99999,99999,99999,99999
4:21:19,1510772340,2017-11-15T18:59:07,0.786,200.9,19.00,15.38,21.01,832.610,2083.850,123.966667,18.32,2.4830,363,23738,1.95160,4.09,52823,,,,,,,,,,,,,,,,,,99999,99999,99999,99999,99999,99999,99999,99999,99999,99999,99999,99999
4:21:49,1510772370,2017-11-15T18:59:37,0.782,201.3,19.03,15.40,21.02,832.470,2083.970,126.099998,17.89,2.4830,363,23741,1.94094,4.09,52819,,,,,,,,,,,,,,,,,,99999,99999,99999,99999,99999,99999,99999,99999,99999,99999,99999,99999
4:22:19,1510772400,2017-11-15T19:00:07,0.785,201.7,19.04,15.41,21.04,832.440,2083.970,126.650002,17.89,2.4829,363,23739,1.94855,4.09,52814,,,,,,,,,,,,,,,,,,99999,99999,99999,99999,99999,99999,99999,99999,99999,99999,99999,99999
4:22:49,1510772430,2017-11-15T19:00:37,0.781,202.0,19.06,15.42,21.09,832.650,2084.020,126.533333,17.72,2.4828,363,23741,1.93790,4.09,52809,,,,,,,,,,,,,,,,,,99999,99999,99999,99999,99999,99999,99999,99999,99999,99999,99999,99999
4:23:19,1510772460,2017-11-15T19:01:07,0.780,202.4,19.07,15.45,21.08,832.430,2084.080,131.983337,17.96,2.4827,363,23744,1.93578,4.09,52805,,,,,,,,,,,,,,,,,,99999,99999,99999,99999,99999,99999,99999,99999,99999,99999,99999,99999
4:23:49,1510772490,2017-11-15T19:01:37,0.785,202.8,19.09,15.47,21.14,832.590,2084.140,127.716667,17.94,2.4826,363,23744,1.94764,4.09,52800,,,,,,,,,,,,,,,,,,99999,99999,99999,99999,99999,99999,99999,99999,99999,99999,99999,99999
4:24:19,1510772520,2017-11-15T19:02:07,0.788,203.2,19.10,15.49,21.10,832.510,2084.200,122.116669,17.70,2.4826,363,23746,1.95587,4.08,52796,,,,,,,,,,,,,,,,,,99999,99999,99999,99999,99999,99999,99999,99999,99999,99999,99999,99999
4:24:49,1510772550,2017-11-15T19:02:37,0.785,203.6,19.10,15.47,21.10,832.450,2084.200,126.250000,17.91,2.4826,363,23747,1.94977,4.09,52791,,,,,,,,,,,,,,,,,,99999,99999,99999,99999,99999,99999,99999,99999,99999,99999,99999,99999
4:25:19,1510772580,2017-11-15T19:03:07,0.780,204.0,19.12,15.53,21.14,832.500,2084.310,124.466667,17.59,2.4826,363,23743,1.93669,4.08,52786,,,,,,,,,,,,,,,,,,99999,99999,99999,99999,99999,99999,99999,99999,99999,99999,99999,99999
4:25:49,1510772610,2017-11-15T19:03:37,0.782,204.4,19.15,15.53,21.16,832.470,2084.370,123.216667,17.96,2.4824,363,23744,1.94216,4.09,52782,,,,,,,,,,,,,,,,,,99999,99999,99999,99999,99999,99999,99999,99999,99999,99999,99999,99999
4:26:19,1510772640,2017-11-15T19:04:07,0.786,204.8,19.16,15.55,21.18,832.550,2084.430,125.099998,18.20,2.4824,363,23742,1.95038,4.08,52777,,,,,,,,,,,,,,,,,,99999,99999,99999,99999,99999,99999,99999,99999,99999,99999,99999,99999
4:26:49,1510772670,2017-11-15T19:04:37,0.784,205.2,19.18,15.56,21.22,832.540,2084.470,121.766670,18.56,2.4822,363,23747,1.94490,4.08,52772,,,,,,,,,,,,,,,,,,99999,99999,99999,99999,99999,99999,99999,99999,99999,99999,99999,99999
4:27:19,1510772700,2017-11-15T19:05:07,0.787,205.6,19.20,15.60,21.22,832.640,2084.540,123.816666,18.27,2.4821,363,23748,1.95282,4.08,52768,,,,,,,,,,,,,,,,,,99999,99999,99999,99999,99999,99999,99999,99999,99999,99999,99999,99999
4:27:49,1510772730,2017-11-15T19:05:37,0.782,206.0,19.23,15.63,21.26,832.530,2084.600,126.266670,18.04,2.4820,363,23746,1.94186,4.08,52763,,,,,,,,,,,,,,,,,,99999,99999,99999,99999,99999,99999,99999,99999,99999,99999,99999,99999
4:28:19,1510772760,2017-11-15T19:06:07,0.787,206.4,19.28,15.66,21.28,832.630,2084.830,125.966667,18.10,2.4818,363,23746,1.95435,4.08,52758,,,,,,,,,,,,,,,,,,99999,99999,99999,99999,99999,99999,99999,99999,99999,99999,99999,99999
4:28:49,1510772790,2017-11-15T19:06:37,0.786,206.7,19.32,15.70,21.32,832.540,2084.950,125.116669,17.41,2.4817,363,23750,1.95008,4.08,52754,,,,,,,,,,,,,,,,,,99999,99999,99999,99999,99999,99999,99999,99999,99999,99999,99999,99999
4:29:19,1510772820,2017-11-15T19:07:07,0.784,207.1,19.36,15.72,21.33,832.580,2085.060,130.266663,18.06,2.4814,363,23750,1.94581,4.08,52749,,,,,,,,,,,,,,,,,,99999,99999,99999,99999,99999,99999,99999,99999,99999,99999,99999,99999
4:29:49,1510772850,2017-11-15T19:07:37,0.783,207.5,19.39,15.74,21.38,832.600,2085.230,126.650002,17.52,2.4814,363,23752,1.94398,4.08,52744,,,,,,,,,,,,,,,,,,99999,99999,99999,99999,99999,99999,99999,99999,99999,99999,99999,99999
4:30:19,1510772880,2017-11-15T19:08:07,0.782,207.9,19.41,15.76,21.41,832.520,2085.290,129.149994,17.84,2.4813,363,23754,1.93942,4.08,52740,,,,,,,,,,,,,,,,,,99999,99999,99999,99999,99999,99999,99999,99999,99999,99999,99999,99999
4:30:49,1510772910,2017-11-15T19:08:37,0.786,208.3,19.45,15.79,21.43,832.560,2085.420,128.199997,17.46,2.4811,363,23754,1.95069,4.08,52735,,,,,,,,,,,,,,,,,,99999,99999,99999,99999,99999,99999,99999,99999,99999,99999,99999,99999
4:31:19,1510772940,2017-11-15T19:09:07,0.789,208.7,19.47,15.82,21.46,832.460,2085.420,125.583336,17.66,2.4809,363,23754,1.95740,4.08,52730,,,,,,,,,,,,,,,,,,99999,99999,99999,99999,99999,99999,99999,99999,99999,99999,99999,99999
4:31:49,1510772970,2017-11-15T19:09:37,0.785,209.1,19.50,15.84,21.48,832.470,2085.580,127.366669,18.04,2.4808,363,23756,1.94855,4.08,52726,,,,,,,,,,,,,,,,,,99999,99999,99999,99999,99999,99999,99999,99999,99999,99999,99999,99999
4:32:19,1510773000,2017-11-15T19:10:07,0.783,209.5,19.52,15.87,21.52,832.390,2085.710,131.483337,17.58,2.4808,363,23753,1.94277,4.08,52721,,,,,,,,,,,,,,,,,,99999,99999,99999,99999,99999,99999,99999,99999,99999,99999,99999,99999
4:32:49,1510773030,2017-11-15T19:10:37,0.781,209.9,19.55,15.87,21.51,832.330,2085.750,128.649994,17.16,2.4807,363,23755,1.93669,4.08,52716,,,,,,,,,,,,,,,,,,99999,99999,99999,99999,99999,99999,99999,99999,99999,99999,99999,99999
4:33:19,1510773060,2017-11-15T19:11:07,0.788,210.3,19.55,15.87,21.52,832.510,2085.750,121.966667,17.20,2.4807,363,23757,1.95496,4.08,52712,,,,,,,,,,,,,,,,,,99999,99999,99999,99999,99999,99999,99999,99999,99999,99999,99999,99999
4:33:49,1510773090,2017-11-15T19:11:37,0.784,210.7,19.55,15.88,21.52,832.330,2085.750,125.449997,17.39,2.4807,363,23757,1.94551,4.08,52707,,,,,,,,,,,,,,,,,,99999,99999,99999,99999,99999,99999,99999,99999,99999,99999,99999,99999
4:34:19,1510773120,2017-11-15T19:12:07,0.786,211.1,19.57,15.87,21.56,832.350,2085.810,128.016663,17.54,2.4805,363,23753,1.95069,4.10,52702,,,,,,,,,,,,,,,,,,99999,99999,99999,99999,99999,99999,99999,99999,99999,99999,99999,99999
4:34:49,1510773150,2017-11-15T19:12:37,0.783,211.5,19.58,15.88,21.54,832.370,2085.870,130.016663,17.79,2.4805,363,23758,1.94307,4.08,52697,,,,,,,,,,,,,,,,,,99999,99999,99999,99999,99999,99999,99999,99999,99999,99999,99999,99999
4:35:19,1510773180,2017-11-15T19:13:07,0.785,211.8,19.59,15.90,21.58,832.400,2085.870,130.733337,17.27,2.4805,363,23757,1.94794,4.08,52693,,,,,,,,,,,,,,,,,,99999,99999,99999,99999,99999,99999,99999,99999,99999,99999,99999,99999
4:35:49,1510773210,2017-11-15T19:13:37,0.786,212.2,19.59,15.91,21.60,832.370,2085.870,125.300003,17.22,2.4805,363,23757,1.94916,4.08,52688,,,,,,,,,,,,,,,,,,99999,99999,99999,99999,99999,99999,99999,99999,99999,99999,99999,99999
4:36:19,1510773240,2017-11-15T19:14:07,0.785,212.6,19.60,15.93,21.59,832.340,2085.940,132.116669,17.09,2.4805,363,23757,1.94703,4.08,52683,,,,,,,,,,,,,,,,,,99999,99999,99999,99999,99999,99999,99999,99999,99999,99999,99999,99999
4:36:49,1510773270,2017-11-15T19:14:37,0.782,213.0,19.61,15.93,21.59,832.420,2085.940,127.550003,17.01,2.4804,363,23758,1.93912,4.08,52679,,,,,,,,,,,,,,,,,,99999,99999,99999,99999,99999,99999,99999,99999,99999,99999,99999,99999
4:37:19,1510773300,2017-11-15T19:15:07,0.780,213.4,19.61,15.93,21.58,832.340,2085.940,129.649994,17.05,2.4804,363,23758,1.93426,4.08,52674,,,,,,,,,,,,,,,,,,99999,99999,99999,99999,99999,99999,99999,99999,99999,99999,99999,99999
4:37:49,1510773330,2017-11-15T19:15:37,0.785,213.8,19.61,15.91,21.64,832.320,2085.940,130.733337,17.68,2.4803,363,23756,1.94733,4.08,52669,,,,,,,,,,,,,,,,,,99999,99999,99999,99999,99999,99999,99999,99999,99999,99999,99999,99999
4:38:19,1510773360,2017-11-15T19:16:07,0.789,214.2,19.60,15.93,21.58,832.290,2085.940,126.300003,17.78,2.4804,363,23758,1.95587,4.08,52665,,,,,,,,,,,,,,,,,,99999,99999,99999,99999,99999,99999,99999,99999,99999,99999,99999,99999
4:38:49,1510773390,2017-11-15T19:16:37,0.789,214.6,19.61,15.94,21.62,832.340,2085.940,128.033340,17.76,2.4803,363,23758,1.95587,4.08,52660,,,,,,,,,,,,,,,,,,99999,99999,99999,99999,99999,99999,99999,99999,99999,99999,99999,99999
4:39:19,1510773420,2017-11-15T19:17:07,0.789,215.0,19.61,15.93,21.59,832.260,2085.940,127.449997,17.84,2.4803,363,23758,1.95740,4.08,52655,,,,,,,,,,,,,,,,,,99999,99999,99999,99999,99999,99999,99999,99999,99999,99999,99999,99999
4:39:49,1510773450,2017-11-15T19:17:37,0.790,215.4,19.62,15.95,21.58,832.360,2086.000,126.916664,17.53,2.4803,363,23760,1.95832,4.08,52651,,,,,,,,,,,,,,,,,,99999,99999,99999,99999,99999,99999,99999,99999,99999,99999,99999,99999
4:40:19,1510773480,2017-11-15T19:18:07,0.783,215.8,19.61,15.94,21.59,832.230,2085.940,128.533340,17.31,2.4804,363,23760,1.94277,4.12,52646,,,,,,,,,,,,,,,,,,99999,99999,99999,99999,99999,99999,99999,99999,99999,99999,99999,99999
4:40:49,1510773510,2017-11-15T19:18:37,0.785,216.2,19.61,15.94,21.59,832.260,2085.940,124.349998,17.64,2.4803,363,23760,1.94612,4.08,52641,,,,,,,,,,,,,,,,,,99999,99999,99999,99999,99999,99999,99999,99999,99999,99999,99999,99999
4:41:19,1510773540,2017-11-15T19:19:07,0.785,216.6,19.62,15.93,21.64,832.330,2086.000,127.316666,17.74,2.4803,363,23755,1.94703,4.08,52637,,,,,,,,,,,,,,,,,,99999,99999,99999,99999,99999,99999,99999,99999,99999,99999,99999,99999
4:41:49,1510773570,2017-11-15T19:19:37,0.785,216.9,19.62,15.94,21.60,832.310,2086.000,123.000000,17.69,2.4803,363,23757,1.94764,4.08,52632,,,,,,,,,,,,,,,,,,99999,99999,99999,99999,99999,99999,99999,99999,99999,99999,99999,99999
4:42:19,1510773600,2017-11-15T19:20:07,0.785,217.3,19.63,15.96,21.62,832.150,2086.000,130.816666,17.45,2.4803,363,23757,1.94794,4.08,52627,,,,,,,,,,,,,,,,,,99999,99999,99999,99999,99999,99999,99999,99999,99999,99999,99999,99999
4:42:49,1510773630,2017-11-15T19:20:37,0.786,217.7,19.64,15.95,21.60,832.170,2086.040,131.250000,17.72,2.4802,363,23756,1.94977,4.08,52622,,,,,,,,,,,,,,,,,,99999,99999,99999,99999,99999,99999,99999,99999,99999,99999,99999,99999
4:43:19,1510773660,2017-11-15T19:21:07,0.782,218.1,19.63,15.97,21.62,832.200,2086.000,131.016663,17.63,2.4802,363,23761,1.94003,4.08,52618,,,,,,,,,,,,,,,,,,99999,99999,99999,99999,99999,99999,99999,99999,99999,99999,99999,99999
4:43:49,1510773690,2017-11-15T19:21:37,0.787,218.5,19.65,15.95,21.64,832.140,2086.040,123.916664,18.07,2.4801,363,23756,1.95160,4.08,52613,,,,,,,,,,,,,,,,,,99999,99999,99999,99999,99999,99999,99999,99999,99999,99999,99999,99999
4:44:19,1510773720,2017-11-15T19:22:07,0.784,218.9,19.65,15.98,21.64,832.170,2086.040,125.716667,17.71,2.4801,363,23759,1.94398,4.08,52608,,,,,,,,,,,,,,,,,,99999,99999,99999,99999,99999,99999,99999,99999,99999,99999,99999,99999
4:44:49,1510773750,2017-11-15T19:22:37,0.783,219.3,19.66,16.00,21.66,832.270,2086.170,127.000000,17.33,2.4802,363,23759,1.94246,4.08,52604,,,,,,,,,,,,,,,,,,99999,99999,99999,99999,99999,99999,99999,99999,99999,99999,99999,99999
4:45:19,1510773780,2017-11-15T19:23:07,0.787,219.7,19.67,15.99,21.64,832.270,2086.230,124.383331,17.31,2.4802,363,23756,1.95282,4.08,52599,,,,,,,,,,,,,,,,,,99999,99999,99999,99999,99999,99999,99999,99999,99999,99999,99999,99999
4:45:49,1510773810,2017-11-15T19:23:37,0.782,220.1,19.68,16.01,21.68,832.210,2086.230,133.366669,17.75,2.4801,363,23760,1.94003,4.08,52594,,,,,,,,,,,,,,,,,,99999,99999,99999,99999,99999,99999,99999,99999,99999,99999,99999,99999
4:46:19,1510773840,2017-11-15T19:24:07,0.786,220.5,19.68,16.01,21.66,832.190,2086.230,129.850006,17.96,2.4800,363,23760,1.94916,4.12,52590,,,,,,,,,,,,,,,,,,99999,99999,99999,99999,99999,99999,99999,99999,99999,99999,99999,99999
4:46:49,1510773870,2017-11-15T19:24:37,0.785,220.9,19.69,16.01,21.67,832.240,2086.270,124.783333,17.78,2.4800,363,23762,1.94733,4.08,52585,,,,,,,,,,,,,,,,,,99999,99999,99999,99999,99999,99999,99999,99999,99999,99999,99999,99999
4:47:19,1510773900,2017-11-15T19:25:07,0.790,221.3,19.70,16.02,21.67,832.210,2086.270,125.349998,17.60,2.4800,363,23761,1.95893,4.08,52580,,,,,,,,,,,,,,,,,,99999,99999,99999,99999,99999,99999,99999,99999,99999,99999,99999,99999
4:47:49,1510773930,2017-11-15T19:25:37,0.782,221.7,19.71,16.03,21.67,832.130,2086.270,127.483330,17.64,2.4799,363,23762,1.93942,4.08,52575,,,,,,,,,,,,,,,,,,99999,99999,99999,99999,99999,99999,99999,99999,99999,99999,99999,99999
4:48:19,1510773960,2017-11-15T19:26:07,0.786,222.0,19.72,16.04,21.68,832.160,2086.340,126.650002,17.80,2.4799,363,23763,1.95038,4.08,52571,,,,,,,,,,,,,,,,,,99999,99999,99999,99999,99999,99999,99999,99999,99999,99999,99999,99999
4:48:49,1510773990,2017-11-15T19:26:37,0.788,222.4,19.73,16.05,21.72,832.180,2086.390,127.883331,17.23,2.4799,363,23761,1.95435,4.08,52566,,,,,,,,,,,,,,,,,,99999,99999,99999,99999,99999,99999,99999,99999,99999,99999,99999,99999
4:49:19,1510774020,2017-11-15T19:27:07,0.780,222.8,19.74,16.05,21.70,832.120,2086.390,133.533340,17.00,2.4798,363,23762,1.93487,4.08,52561,,,,,,,,,,,,,,,,,,99999,99999,99999,99999,99999,99999,99999,99999,99999,99999,99999,99999
4:49:49,1510774050,2017-11-15T19:27:37,0.787,223.2,19.75,16.07,21.72,832.090,2086.460,127.516670,17.39,2.4798,363,23763,1.95069,4.08,52557,,,,,,,,,,,,,,,,,,99999,99999,99999,99999,99999,99999,99999,99999,99999,99999,99999,99999
4:50:19,1510774080,2017-11-15T19:28:07,0.783,223.6,19.75,16.06,21.72,832.170,2086.460,126.800003,17.09,2.4798,363,23763,1.94186,4.08,52552,,,,,,,,,,,,,,,,,,99999,99999,99999,99999,99999,99999,99999,99999,99999,99999,99999,99999
4:50:49,1510774110,2017-11-15T19:28:37,0.783,224.0,19.76,16.06,21.68,832.120,2086.460,126.449997,17.07,2.4797,363,23762,1.94125,4.08,52547,,,,,,,,,,,,,,,,,,99999,99999,99999,99999,99999,99999,99999,99999,99999,99999,99999,99999
4:51:19,1510774140,2017-11-15T19:29:07,0.785,224.4,19.77,16.06,21.75,832.110,2086.520,129.199997,17.40,2.4797,363,23762,1.94612,4.08,52542,,,,,,,,,,,,,,,,,,99999,99999,99999,99999,99999,99999,99999,99999,99999,99999,99999,99999
4:51:49,1510774170,2017-11-15T19:29:37,0.789,224.8,19.77,16.05,21.74,832.140,2086.520,125.333336,16.66,2.4798,363,23765,1.95557,4.08,52538,,,,,,,,,,,,,,,,,,99999,99999,99999,99999,99999,99999,99999,99999,99999,99999,99999,99999
4:52:19,1510774200,2017-11-15T19:30:07,0.783,225.2,19.77,16.04,21.75,832.170,2086.520,131.716660,17.44,2.4797,363,23762,1.94277,4.08,52533,,,,,,,,,,,,,,,,,,99999,99999,99999,99999,99999,99999,99999,99999,99999,99999,99999,99999
4:52:49,1510774230,2017-11-15T19:30:37,0.780,225.6,19.76,16.07,21.75,832.010,2086.460,130.033340,16.84,2.4798,363,23764,1.93396,4.08,52528,,,,,,,,,,,,,,,,,,99999,99999,99999,99999,99999,99999,99999,99999,99999,99999,99999,99999
4:53:19,1510774260,2017-11-15T19:31:07,0.785,226.0,19.76,16.04,21.74,832.120,2086.460,131.800003,17.07,2.4797,363,23762,1.94764,4.08,52524,,,,,,,,,,,,,,,,,,99999,99999,99999,99999,99999,99999,99999,99999,99999,99999,99999,99999
4:53:49,1510774290,2017-11-15T19:31:37,0.781,226.4,19.75,16.05,21.72,832.170,2086.460,131.033340,16.94,2.4798,363,23764,1.93638,4.08,52519,,,,,,,,,,,,,,,,,,99999,99999,99999,99999,99999,99999,99999,99999,99999,99999,99999,99999
4:54:19,1510774320,2017-11-15T19:32:07,0.784,226.8,19.74,16.03,21.74,832.100,2086.390,132.850006,17.81,2.4797,363,23761,1.94307,4.11,52514,,,,,,,,,,,,,,,,,,99999,99999,99999,99999,99999,99999,99999,99999,99999,99999,99999,99999
4:54:49,1510774350,2017-11-15T19:32:37,0.788,227.2,19.73,16.02,21.72,832.100,2086.390,127.566666,17.54,2.4799,363,23761,1.95496,4.08,52509,,,,,,,,,,,,,,,,,,99999,99999,99999,99999,99999,99999,99999,99999,99999,99999,99999,99999
4:55:19,1510774380,2017-11-15T19:33:07,0.787,227.5,19.71,16.00,21.67,832.130,2086.270,125.266670,17.42,2.4799,363,23764,1.95099,4.08,52505,,,,,,,,,,,,,,,,,,99999,99999,99999,99999,99999,99999,99999,99999,99999,99999,99999,99999
4:55:49,1510774410,2017-11-15T19:33:37,0.785,227.9,19.70,16.00,21.67,832.100,2086.270,122.933334,17.13,2.4800,363,23759,1.94733,4.08,52500,,,,,,,,,,,,,,,,,,99999,99999,99999,99999,99999,99999,99999,99999,99999,99999,99999,99999
4:56:19,1510774440,2017-11-15T19:34:07,0.782,228.3,19.69,15.99,21.67,832.140,2086.270,126.533333,17.01,2.4801,363,23760,1.93912,4.08,52495,,,,,,,,,,,,,,,,,,99999,99999,99999,99999,99999,99999,99999,99999,99999,99999,99999,99999
4:56:49,1510774470,2017-11-15T19:34:37,0.788,228.7,19.68,15.98,21.64,832.160,2086.230,126.666664,17.31,2.4801,363,23758,1.95496,4.08,52491,,,,,,,,,,,,,,,,,,99999,99999,99999,99999,99999,99999,99999,99999,99999,99999,99999,99999
4:57:19,1510774500,2017-11-15T19:35:07,0.781,229.1,19.67,15.98,21.62,832.170,2086.230,127.550003,17.29,2.4802,363,23760,1.93730,4.08,52486,,,,,,,,,,,,,,,,,,99999,99999,99999,99999,99999,99999,99999,99999,99999,99999,99999,99999
4:57:49,1510774530,2017-11-15T19:35:37,0.783,229.5,19.66,15.96,21.60,832.110,2086.170,127.566666,16.77,2.4803,363,23760,1.94216,4.08,52481,,,,,,,,,,,,,,,,,,99999,99999,99999,99999,99999,99999,99999,99999,99999,99999,99999,99999
4:58:19,1510774560,2017-11-15T19:36:07,0.784,229.9,19.64,15.98,21.62,832.200,2086.040,129.516663,17.32,2.4802,363,23757,1.94551,4.08,52476,,,,,,,,,,,,,,,,,,99999,99999,99999,99999,99999,99999,99999,99999,99999,99999,99999,99999
4:58:49,1510774590,2017-11-15T19:36:37,0.786,230.3,19.64,15.96,21.60,832.170,2086.040,125.633331,17.33,2.4802,363,23761,1.94855,4.08,52472,,,,,,,,,,,,,,,,,,99999,99999,99999,99999,99999,99999,99999,99999,99999,99999,99999,99999
4:59:19,1510774620,2017-11-15T19:37:07,0.784,230.7,19.64,15.99,21.62,832.040,2086.040,130.600006,17.13,2.4803,363,23757,1.94520,4.08,52467,,,,,,,,,,,,,,,,,,99999,99999,99999,99999,99999,99999,99999,99999,99999,99999,99999,99999
4:59:49,1510774650,2017-11-15T19:37:37,0.779,231.1,19.65,15.99,21.59,832.120,2086.040,132.149994,17.49,2.4801,363,23760,1.93304,4.08,52462,,,,,,,,,,,,,,,,,,99999,99999,99999,99999,99999,99999,99999,99999,99999,99999,99999,99999
5:00:19,1510774680,2017-11-15T19:38:07,0.787,231.5,19.64,16.01,21.60,832.090,2086.040,128.116669,17.06,2.4803,363,23762,1.95252,4.08,52458,,,,,,,,,,,,,,,,,,99999,99999,99999,99999,99999,99999,99999,99999,99999,99999,99999,99999
5:00:49,1510774710,2017-11-15T19:38:37,0.787,231.9,19.64,16.01,21.60,832.120,2086.040,125.416664,17.40,2.4802,363,23761,1.95313,4.08,52453,,,,,,,,,,,,,,,,,,99999,99999,99999,99999,99999,99999,99999,99999,99999,99999,99999,99999
5:01:19,1510774740,2017-11-15T19:39:07,0.780,232.3,19.64,16.02,21.59,832.040,2086.040,128.966660,16.71,2.4803,363,23764,1.93456,4.08,52449,,,,,,,,,,,,,,,,,,99999,99999,99999,99999,99999,99999,99999,99999,99999,99999,99999,99999
5:01:49,1510774770,2017-11-15T19:39:37,0.788,232.6,19.64,16.02,21.60,832.140,2086.040,125.199997,16.63,2.4803,363,23765,1.95557,4.10,52446,,,,,,,,,,,,,,,,,,99999,99999,99999,99999,99999,99999,99999,99999,99999,99999,99999,99999
5:02:19,1510774800,2017-11-15T19:40:07,0.783,233.0,19.65,16.03,21.60,832.120,2086.040,128.616669,17.07,2.4802,363,23763,1.94094,4.11,52443,,,,,,,,,,,,,,,,,,99999,99999,99999,99999,99999,99999,99999,99999,99999,99999,99999,99999
5:02:49,1510774830,2017-11-15T19:40:37,0.784,233.4,19.65,16.05,21.60,832.040,2086.040,124.583336,17.85,2.4801,363,23764,1.94520,4.11,52442,,,,,,,,,,,,,,,,,,99999,99999,99999,99999,99999,99999,99999,99999,99999,99999,99999,99999
5:03:19,1510774860,2017-11-15T19:41:07,0.785,233.8,19.65,16.06,21.60,832.040,2086.040,130.300003,17.52,2.4801,363,23763,1.94703,4.10,52440,,,,,,,,,,,,,,,,,,99999,99999,99999,99999,99999,99999,99999,99999,99999,99999,99999,99999
5:03:49,1510774890,2017-11-15T19:41:37,0.784,234.2,19.66,16.08,21.59,832.110,2086.170,125.816666,18.38,2.4801,363,23763,1.94459,4.10,52438,,,,,,,,,,,,,,,,,,99999,99999,99999,99999,99999,99999,99999,99999,99999,99999,99999,99999
5:04:19,1510774920,2017-11-15T19:42:07,0.786,234.6,19.67,16.10,21.59,832.030,2086.230,127.883331,17.58,2.4802,363,23765,1.95008,4.10,52437,,,,,,,,,,,,,,,,,,99999,99999,99999,99999,99999,99999,99999,99999,99999,99999,99999,99999
5:04:49,1510774950,2017-11-15T19:42:37,0.781,235.0,19.68,16.11,21.60,832.030,2086.230,126.300003,17.21,2.4801,363,23765,1.93821,4.10,52435,,,,,,,,,,,,,,,,,,99999,99999,99999,99999,99999,99999,99999,99999,99999,99999,99999,99999
5:05:19,1510774980,2017-11-15T19:43:06,0.785,235.4,19.69,16.12,21.62,832.060,2086.270,131.466660,17.21,2.4801,363,23766,1.94794,4.10,52434,,,,,,,,,,,,,,,,,,99999,99999,99999,99999,99999,99999,99999,99999,99999,99999,99999,99999
5:05:49,1510775010,2017-11-15T19:43:36,0.784,235.8,19.68,16.14,21.62,832.080,2086.230,131.483337,17.05,2.4801,363,23765,1.94429,4.10,52432,,,,,,,,,,,,,,,,,,99999,99999,99999,99999,99999,99999,99999,99999,99999,99999,99999,99999
5:06:19,1510775040,2017-11-15T19:44:06,0.786,236.2,19.68,16.10,21.64,832.110,2086.230,130.516663,17.26,2.4801,363,23767,1.94916,4.10,52431,,,,,,,,,,,,,,,,,,99999,99999,99999,99999,99999,99999,99999,99999,99999,99999,99999,99999
5:06:49,1510775070,2017-11-15T19:44:37,0.783,236.6,19.65,16.11,21.60,832.060,2086.040,126.383331,17.29,2.4802,363,23770,1.94307,4.10,52430,,,,,,,,,,,,,,,,,,99999,99999,99999,99999,99999,99999,99999,99999,99999,99999,99999,99999
5:07:19,1510775100,2017-11-15T19:45:06,0.785,237.0,19.65,16.12,21.59,832.090,2086.040,129.666672,16.98,2.4802,363,23770,1.94764,4.10,52428,,,,,,,,,,,,,,,,,,99999,99999,99999,99999,99999,99999,99999,99999,99999,99999,99999,99999
5:07:49,1510775130,2017-11-15T19:45:36,0.782,237.3,19.64,16.10,21.56,832.120,2086.040,128.016663,17.21,2.4802,363,23766,1.93973,4.10,52427,,,,,,,,,,,,,,,,,,99999,99999,99999,99999,99999,99999,99999,99999,99999,99999,99999,99999
5:08:19,1510775160,2017-11-15T19:46:06,0.783,237.7,19.62,16.11,21.58,831.990,2086.000,127.250000,17.13,2.4804,363,23767,1.94246,4.10,52425,,,,,,,,,,,,,,,,,,99999,99999,99999,99999,99999,99999,99999,99999,99999,99999,99999,99999
5:08:49,1510775190,2017-11-15T19:46:36,0.789,238.1,19.61,16.11,21.56,832.070,2085.940,125.599998,17.93,2.4803,363,23766,1.95740,4.10,52424,,,,,,,,,,,,,,,,,,99999,99999,99999,99999,99999,99999,99999,99999,99999,99999,99999,99999
5:09:19,1510775220,2017-11-15T19:47:06,0.787,238.5,19.60,16.11,21.54,832.020,2085.940,126.500000,17.32,2.4805,363,23766,1.95221,4.10,52422,,,,,,,,,,,,,,,,,,99999,99999,99999,99999,99999,99999,99999,99999,99999,99999,99999,99999
5:09:49,1510775250,2017-11-15T19:47:36,0.788,238.9,19.59,16.09,21.52,831.920,2085.870,128.266663,18.09,2.4804,363,23766,1.95374,4.10,52421,,,,,,,,,,,,,,,,,,99999,99999,99999,99999,99999,99999,99999,99999,99999,99999,99999,99999
5:10:19,1510775280,2017-11-15T19:48:06,0.784,239.3,19.59,16.08,21.49,831.940,2085.870,132.699997,18.11,2.4804,363,23765,1.94398,4.10,52419,,,,,,,,,,,,,,,,,,99999,99999,99999,99999,99999,99999,99999,99999,99999,99999,99999,99999
5:10:49,1510775310,2017-11-15T19:48:36,0.782,239.7,19.57,16.09,21.51,831.890,2085.810,126.766670,17.78,2.4805,363,23764,1.93942,4.10,52417,,,,,,,,,,,,,,,,,,99999,99999,99999,99999,99999,99999,99999,99999,99999,99999,99999,99999
5:11:19,1510775340,2017-11-15T19:49:06,0.787,240.1,19.56,16.07,21.48,831.790,2085.810,126.016670,17.44,2.4806,363,23764,1.95282,4.10,52415,,,,,,,,,,,,,,,,,,99999,99999,99999,99999,99999,99999,99999,99999,99999,99999,99999,99999
5:11:49,1510775370,2017-11-15T19:49:36,0.788,240.5,19.55,16.07,21.46,831.950,2085.750,127.800003,17.27,2.4807,363,23766,1.95496,4.10,52413,,,,,,,,,,,,,,,,,,99999,99999,99999,99999,99999,99999,99999,99999,99999,99999,99999,99999
5:12:19,1510775400,2017-11-15T19:50:06,0.785,240.9,19.53,16.07,21.44,831.820,2085.710,130.633331,18.11,2.4807,363,23763,1.94703,4.10,52411,,,,,,,,,,,,,,,,,,99999,99999,99999,99999,99999,99999,99999,99999,99999,99999,99999,99999
5:12:49,1510775430,2017-11-15T19:50:36,0.782,241.3,19.54,16.05,21.44,831.840,2085.750,125.849998,17.41,2.4807,363,23766,1.93942,4.10,52409,,,,,,,,,,,,,,,,,,99999,99999,99999,99999,99999,99999,99999,99999,99999,99999,99999,99999
5:13:19,1510775460,2017-11-15T19:51:06,0.786,241.7,19.52,16.04,21.43,831.910,2085.710,127.750000,17.41,2.4809,363,23762,1.94886,4.10,52407,,,,,,,,,,,,,,,,,,99999,99999,99999,99999,99999,99999,99999,99999,99999,99999,99999,99999
5:13:49,1510775490,2017-11-15T19:51:36,0.785,242.1,19.52,16.03,21.44,831.770,2085.710,124.533333,17.70,2.4808,363,23763,1.94642,4.10,52405,,,,,,,,,,,,,,,,,,99999,99999,99999,99999,99999,99999,99999,99999,99999,99999,99999,99999
5:14:19,1510775520,2017-11-15T19:52:06,0.786,242.4,19.51,16.02,21.41,831.850,2085.580,126.616669,17.92,2.4807,363,23763,1.94977,4.10,52403,,,,,,,,,,,,,,,,,,99999,99999,99999,99999,99999,99999,99999,99999,99999,99999,99999,99999
5:14:49,1510775550,2017-11-15T19:52:36,0.788,242.8,19.50,16.02,21.41,831.860,2085.580,125.983330,17.46,2.4809,363,23765,1.95374,4.10,52401,,,,,,,,,,,,,,,,,,99999,99999,99999,99999,99999,99999,99999,99999,99999,99999,99999,99999
5:15:19,1510775580,2017-11-15T19:53:06,0.784,243.2,19.49,16.02,21.40,831.860,2085.520,123.716667,17.76,2.4809,363,23764,1.94429,4.10,52399,,,,,,,,,,,,,,,,,,99999,99999,99999,99999,99999,99999,99999,99999,99999,99999,99999,99999
5:15:49,1510775610,2017-11-15T19:53:36,0.784,243.6,19.47,16.01,21.38,831.710,2085.420,127.949997,18.00,2.4809,363,23761,1.94398,4.10,52398,,,,,,,,,,,,,,,,,,99999,99999,99999,99999,99999,99999,99999,99999,99999,99999,99999,99999
5:16:19,1510775640,2017-11-15T19:54:06,0.782,244.0,19.47,15.99,21.36,831.730,2085.420,125.349998,18.27,2.4809,363,23763,1.93912,4.10,52396,,,,,,,,,,,,,,,,,,99999,99999,99999,99999,99999,99999,99999,99999,99999,99999,99999,99999
5:16:49,1510775670,2017-11-15T19:54:36,0.782,244.4,19.46,15.99,21.34,831.730,2085.420,128.100006,18.20,2.4810,363,23761,1.93973,4.10,52394,,,,,,,,,,,,,,,,,,99999,99999,99999,99999,99999,99999,99999,99999,99999,99999,99999,99999
5:17:19,1510775700,2017-11-15T19:55:06,0.786,244.8,19.47,16.01,21.36,831.710,2085.420,128.766663,18.12,2.4809,363,23763,1.95008,4.10,52392,,,,,,,,,,,,,,,,,,99999,99999,99999,99999,99999,99999,99999,99999,99999,99999,99999,99999
5:17:49,1510775730,2017-11-15T19:55:36,0.786,245.2,19.46,16.00,21.36,831.710,2085.420,127.466667,18.34,2.4809,363,23764,1.95069,4.10,52390,,,,,,,,,,,,,,,,,,99999,99999,99999,99999,99999,99999,99999,99999,99999,99999,99999,99999
5:18:19,1510775760,2017-11-15T19:56:06,0.784,245.6,19.47,16.01,21.34,831.550,2085.420,126.283333,17.37,2.4809,363,23760,1.94490,4.10,52388,,,,,,,,,,,,,,,,,,99999,99999,99999,99999,99999,99999,99999,99999,99999,99999,99999,99999
5:18:49,1510775790,2017-11-15T19:56:36,0.781,246.0,19.48,16.02,21.38,831.750,2085.520,125.550003,17.44,2.4810,363,23763,1.93882,4.10,52386,,,,,,,,,,,,,,,,,,99999,99999,99999,99999,99999,99999,99999,99999,99999,99999,99999,99999
5:19:19,1510775820,2017-11-15T19:57:06,0.783,246.4,19.48,16.01,21.34,831.730,2085.520,124.533333,17.49,2.4810,363,23765,1.94277,4.10,52384,,,,,,,,,,,,,,,,,,99999,99999,99999,99999,99999,99999,99999,99999,99999,99999,99999,99999
5:19:49,1510775850,2017-11-15T19:57:36,0.780,246.8,19.48,16.03,21.33,831.700,2085.520,127.716667,17.58,2.4810,363,23761,1.93578,4.10,52382,,,,,,,,,,,,,,,,,,99999,99999,99999,99999,99999,99999,99999,99999,99999,99999,99999,99999
5:20:19,1510775880,2017-11-15T19:58:06,0.778,247.1,19.47,16.00,21.36,831.600,2085.420,133.000000,17.30,2.4810,363,23763,1.92910,4.10,52380,,,,,,,,,,,,,,,,,,99999,99999,99999,99999,99999,99999,99999,99999,99999,99999,99999,99999
5:20:49,1510775910,2017-11-15T19:58:36,0.782,247.5,19.45,15.99,21.36,831.680,2085.420,126.083336,17.86,2.4811,363,23762,1.93942,4.10,52378,,,,,,,,,,,,,,,,,,99999,99999,99999,99999,99999,99999,99999,99999,99999,99999,99999,99999
5:21:19,1510775940,2017-11-15T19:59:06,0.787,247.9,19.45,16.00,21.33,831.650,2085.420,126.666664,17.38,2.4811,363,23764,1.95374,4.10,52376,,,,,,,,,,,,,,,,,,99999,99999,99999,99999,99999,99999,99999,99999,99999,99999,99999,99999
5:21:49,1510775970,2017-11-15T19:59:36,0.782,248.3,19.45,16.00,21.33,831.650,2085.420,124.233330,17.86,2.4811,363,23763,1.94094,4.10,52374,,,,,,,,,,,,,,,,,,99999,99999,99999,99999,99999,99999,99999,99999,99999,99999,99999,99999
5:22:19,1510776000,2017-11-15T20:00:06,0.783,248.7,19.44,16.02,21.33,831.600,2085.350,123.966667,17.67,2.4811,363,23762,1.94368,4.10,52372,,,,,,,,,,,,,,,,,,99999,99999,99999,99999,99999,99999,99999,99999,99999,99999,99999,99999
5:22:49,1510776030,2017-11-15T20:00:36,0.785,249.1,19.46,16.01,21.34,831.650,2085.420,125.500000,18.30,2.4809,363,23764,1.94764,4.10,52370,,,,,,,,,,,,,,,,,,99999,99999,99999,99999,99999,99999,99999,99999,99999,99999,99999,99999
5:23:19,1510776060,2017-11-15T20:01:06,0.782,249.5,19.48,16.01,21.34,831.750,2085.520,123.966667,18.00,2.4809,363,23763,1.94033,4.10,52367,,,,,,,,,,,,,,,,,,99999,99999,99999,99999,99999,99999,99999,99999,99999,99999,99999,99999
5:23:49,1510776090,2017-11-15T20:01:36,0.787,249.9,19.49,16.02,21.41,831.720,2085.520,126.666664,18.26,2.4808,363,23764,1.95221,4.10,52365,,,,,,,,,,,,,,,,,,99999,99999,99999,99999,99999,99999,99999,99999,99999,99999,99999,99999
5:24:19,1510776120,2017-11-15T20:02:06,0.782,250.3,19.51,16.04,21.38,831.690,2085.580,125.133331,17.16,2.4808,363,23764,1.93882,4.10,52363,,,,,,,,,,,,,,,,,,99999,99999,99999,99999,99999,99999,99999,99999,99999,99999,99999,99999
5:24:49,1510776150,2017-11-15T20:02:36,0.785,250.7,19.52,16.04,21.36,831.750,2085.710,127.933334,17.38,2.4809,363,23762,1.94794,4.10,52361,,,,,,,,,,,,,,,,,,99999,99999,99999,99999,99999,99999,99999,99999,99999,99999,99999,99999
5:25:19,1510776180,2017-11-15T20:03:06,0.779,251.1,19.55,16.06,21.41,831.660,2085.750,128.633331,17.82,2.4806,363,23763,1.93123,4.09,52358,,,,,,,,,,,,,,,,,,99999,99999,99999,99999,99999,99999,99999,99999,99999,99999,99999,99999
5:25:49,1510776210,2017-11-15T20:03:36,0.785,251.5,19.57,16.06,21.41,831.730,2085.810,126.550003,17.86,2.4805,363,23759,1.94764,4.09,52356,,,,,,,,,,,,,,,,,,99999,99999,99999,99999,99999,99999,99999,99999,99999,99999,99999,99999
5:26:19,1510776240,2017-11-15T20:04:06,0.786,251.8,19.58,16.07,21.43,831.680,2085.870,127.733330,17.45,2.4805,363,23764,1.94977,4.09,52353,,,,,,,,,,,,,,,,,,99999,99999,99999,99999,99999,99999,99999,99999,99999,99999,99999,99999
5:26:49,1510776270,2017-11-15T20:04:36,0.782,252.2,19.59,16.07,21.46,831.600,2085.870,128.949997,17.19,2.4805,363,23763,1.93942,4.09,52350,,,,,,,,,,,,,,,,,,99999,99999,99999,99999,99999,99999,99999,99999,99999,99999,99999,99999
5:27:19,1510776300,2017-11-15T20:05:06,0.785,252.6,19.60,16.08,21.46,831.700,2085.940,124.449997,18.06,2.4804,363,23764,1.94764,4.09,52347,,,,,,,,,,,,,,,,,,99999,99999,99999,99999,99999,99999,99999,99999,99999,99999,99999,99999
5:27:49,1510776330,2017-11-15T20:05:36,0.783,253.0,19.62,16.07,21.48,831.660,2086.000,125.366669,17.00,2.4804,363,23767,1.94125,4.08,52343,,,,,,,,,,,,,,,,,,99999,99999,99999,99999,99999,99999,99999,99999,99999,99999,99999,99999
5:28:19,1510776360,2017-11-15T20:06:06,0.784,253.4,19.61,16.07,21.46,831.570,2085.940,131.433334,17.31,2.4804,363,23761,1.94398,4.08,52340,,,,,,,,,,,,,,,,,,99999,99999,99999,99999,99999,99999,99999,99999,99999,99999,99999,99999
5:28:49,1510776390,2017-11-15T20:06:36,0.786,253.8,19.63,16.06,21.48,831.690,2086.000,127.933334,17.95,2.4802,363,23761,1.94886,4.08,52336,,,,,,,,,,,,,,,,,,99999,99999,99999,99999,99999,99999,99999,99999,99999,99999,99999,99999
5:29:19,1510776420,2017-11-15T20:07:06,0.787,254.2,19.63,16.06,21.51,831.690,2086.000,125.166664,17.22,2.4803,363,23761,1.95190,4.08,52332,,,,,,,,,,,,,,,,,,99999,99999,99999,99999,99999,99999,99999,99999,99999,99999,99999,99999
5:29:49,1510776450,2017-11-15T20:07:36,0.784,254.6,19.64,16.06,21.49,831.660,2086.040,127.666664,17.46,2.4802,363,23761,1.94338,4.08,52328,,,,,,,,,,,,,,,,,,99999,99999,99999,99999,99999,99999,99999,99999,99999,99999,99999,99999
5:30:19,1510776480,2017-11-15T20:08:06,0.786,255.0,19.65,16.04,21.49,831.740,2086.040,126.949997,17.68,2.4801,363,23761,1.94825,4.08,52324,,,,,,,,,,,,,,,,,,99999,99999,99999,99999,99999,99999,99999,99999,99999,99999,99999,99999
5:30:49,1510776510,2017-11-15T20:08:36,0.787,255.4,19.65,16.04,21.49,831.580,2086.040,127.083336,17.54,2.4801,363,23760,1.95130,4.08,52321,,,,,,,,,,,,,,,,,,99999,99999,99999,99999,99999,99999,99999,99999,99999,99999,99999,99999
5:31:19,1510776540,2017-11-15T20:09:06,0.783,255.8,19.66,16.03,21.52,831.630,2086.170,132.050003,17.02,2.4802,363,23762,1.94186,4.08,52317,,,,,,,,,,,,,,,,,,99999,99999,99999,99999,99999,99999,99999,99999,99999,99999,99999,99999
5:31:49,1510776570,2017-11-15T20:09:36,0.784,256.2,19.67,16.04,21.52,831.630,2086.230,128.633331,16.63,2.4803,363,23763,1.94490,4.08,52313,,,,,,,,,,,,,,,,,,99999,99999,99999,99999,99999,99999,99999,99999,99999,99999,99999,99999
5:32:19,1510776600,2017-11-15T20:10:06,0.788,256.6,19.67,16.04,21.51,831.630,2086.230,124.166664,17.05,2.4802,363,23763,1.95496,4.08,52309,,,,,,,,,,,,,,,,,,99999,99999,99999,99999,99999,99999,99999,99999,99999,99999,99999,99999
5:32:49,1510776630,2017-11-15T20:10:36,0.779,256.9,19.66,16.01,21.56,831.600,2086.170,131.050003,17.03,2.4802,363,23761,1.93244,4.08,52305,,,,,,,,,,,,,,,,,,99999,99999,99999,99999,99999,99999,99999,99999,99999,99999,99999,99999
5:33:19,1510776660,2017-11-15T20:11:06,0.783,257.3,19.66,16.00,21.52,831.630,2086.170,125.766670,17.59,2.4802,363,23762,1.94216,4.08,52301,,,,,,,,,,,,,,,,,,99999,99999,99999,99999,99999,99999,99999,99999,99999,99999,99999,99999
5:33:49,1510776690,2017-11-15T20:11:36,0.787,257.7,19.66,15.99,21.48,831.660,2086.170,127.116669,17.87,2.4802,363,23759,1.95221,4.08,52297,,,,,,,,,,,,,,,,,,99999,99999,99999,99999,99999,99999,99999,99999,99999,99999,99999,99999
5:34:19,1510776720,2017-11-15T20:12:06,0.788,258.1,19.66,15.99,21.51,831.760,2086.170,125.966667,17.07,2.4802,363,23762,1.95374,4.08,52293,,,,,,,,,,,,,,,,,,99999,99999,99999,99999,99999,99999,99999,99999,99999,99999,99999,99999
5:34:49,1510776750,2017-11-15T20:12:36,0.788,258.5,19.65,15.99,21.49,831.630,2086.040,123.816666,17.59,2.4801,363,23760,1.95374,4.08,52289,,,,,,,,,,,,,,,,,,99999,99999,99999,99999,99999,99999,99999,99999,99999,99999,99999,99999
5:35:19,1510776780,2017-11-15T20:13:06,0.786,258.9,19.64,15.97,21.51,831.690,2086.040,125.666664,17.08,2.4803,363,23761,1.94855,4.08,52285,,,,,,,,,,,,,,,,,,99999,99999,99999,99999,99999,99999,99999,99999,99999,99999,99999,99999
5:35:49,1510776810,2017-11-15T20:13:36,0.784,259.3,19.63,15.96,21.49,831.560,2086.000,129.466660,17.01,2.4803,363,23759,1.94338,4.08,52282,,,,,,,,,,,,,,,,,,99999,99999,99999,99999,99999,99999,99999,99999,99999,99999,99999,99999
5:36:19,1510776840,2017-11-15T20:14:06,0.785,259.7,19.62,15.95,21.51,831.690,2086.000,124.050003,17.42,2.4803,363,23761,1.94612,4.08,52278,,,,,,,,,,,,,,,,,,99999,99999,99999,99999,99999,99999,99999,99999,99999,99999,99999,99999
5:36:49,1510776870,2017-11-15T20:14:36,0.789,260.1,19.59,15.93,21.44,831.650,2085.870,124.816666,17.98,2.4804,363,23760,1.95587,4.08,52274,,,,,,,,,,,,,,,,,,99999,99999,99999,99999,99999,99999,99999,99999,99999,99999,99999,99999
5:37:19,1510776900,2017-11-15T20:15:06,0.783,260.5,19.57,15.90,21.41,831.600,2085.810,124.000000,18.26,2.4805,363,23759,1.94307,4.08,52270,,,,,,,,,,,,,,,,,,99999,99999,99999,99999,99999,99999,99999,99999,99999,99999,99999,99999
5:37:49,1510776930,2017-11-15T20:15:36,0.785,260.9,19.54,15.90,21.44,831.600,2085.750,126.183334,17.79,2.4807,363,23757,1.94764,4.08,52266,,,,,,,,,,,,,,,,,,99999,99999,99999,99999,99999,99999,99999,99999,99999,99999,99999,99999
5:38:19,1510776960,2017-11-15T20:16:06,0.780,261.3,19.52,15.89,21.36,831.560,2085.710,128.583328,17.46,2.4809,363,23760,1.93547,4.08,52262,,,,,,,,,,,,,,,,,,99999,99999,99999,99999,99999,99999,99999,99999,99999,99999,99999,99999
5:38:49,1510776990,2017-11-15T20:16:36,0.786,261.6,19.48,15.87,21.38,831.590,2085.520,125.666664,17.73,2.4809,363,23758,1.94916,4.08,52258,,,,,,,,,,,,,,,,,,99999,99999,99999,99999,99999,99999,99999,99999,99999,99999,99999,99999
5:39:19,1510777020,2017-11-15T20:17:06,0.788,262.0,19.45,15.87,21.34,831.520,2085.420,126.099998,17.36,2.4811,363,23757,1.95435,4.08,52254,,,,,,,,,,,,,,,,,,99999,99999,99999,99999,99999,99999,99999,99999,99999,99999,99999,99999
5:39:49,1510777050,2017-11-15T20:17:36,0.783,262.4,19.40,15.88,21.30,831.560,2085.250,129.600006,16.98,2.4814,363,23756,1.94338,4.08,52251,,,,,,,,,,,,,,,,,,99999,99999,99999,99999,99999,99999,99999,99999,99999,99999,99999,99999
5:40:19,1510777080,2017-11-15T20:18:06,0.782,262.8,19.35,15.86,21.24,831.620,2085.060,128.149994,17.40,2.4815,363,23756,1.94155,4.08,52247,,,,,,,,,,,,,,,,,,99999,99999,99999,99999,99999,99999,99999,99999,99999,99999,99999,99999
5:40:49,1510777110,2017-11-15T20:18:36,0.786,263.2,19.31,15.83,21.22,831.530,2084.950,126.416664,17.67,2.4817,363,23756,1.95008,4.08,52243,,,,,,,,,,,,,,,,,,99999,99999,99999,99999,99999,99999,99999,99999,99999,99999,99999,99999
5:41:19,1510777140,2017-11-15T20:19:06,0.778,263.6,19.26,15.82,21.14,831.560,2084.770,128.850006,18.02,2.4819,363,23756,1.93123,4.08,52239,,,,,,,,,,,,,,,,,,99999,99999,99999,99999,99999,99999,99999,99999,99999,99999,99999,99999
5:41:49,1510777170,2017-11-15T20:19:36,0.781,264.0,19.18,15.79,21.08,831.440,2084.470,126.566666,17.62,2.4823,363,23757,1.93912,4.08,52235,,,,,,,,,,,,,,,,,,99999,99999,99999,99999,99999,99999,99999,99999,99999,99999,99999,99999
5:42:19,1510777200,2017-11-15T20:20:06,0.785,264.4,19.12,15.79,21.08,831.490,2084.310,126.000000,17.88,2.4826,363,23759,1.94977,4.08,52231,,,,,,,,,,,,,,,,,,99999,99999,99999,99999,99999,99999,99999,99999,99999,99999,99999,99999
5:42:49,1510777230,2017-11-15T20:20:36,0.783,264.8,19.07,15.77,21.00,831.500,2084.080,122.133331,18.51,2.4827,363,23756,1.94338,4.08,52227,,,,,,,,,,,,,,,,,,99999,99999,99999,99999,99999,99999,99999,99999,99999,99999,99999,99999
5:43:19,1510777260,2017-11-15T20:21:06,0.781,265.2,19.00,15.75,20.94,831.510,2083.850,122.599998,17.82,2.4831,363,23756,1.93973,4.08,52223,,,,,,,,,,,,,,,,,,99999,99999,99999,99999,99999,99999,99999,99999,99999,99999,99999,99999
5:43:49,1510777290,2017-11-15T20:21:36,0.784,265.6,18.96,15.75,20.86,831.530,2083.680,122.566666,18.39,2.4832,363,23751,1.94703,4.08,52219,,,,,,,,,,,,,,,,,,99999,99999,99999,99999,99999,99999,99999,99999,99999,99999,99999,99999
5:44:19,1510777320,2017-11-15T20:22:06,0.780,265.9,18.92,15.75,20.83,831.450,2083.560,126.466667,17.89,2.4834,363,23751,1.93699,4.08,52215,,,,,,,,,,,,,,,,,,99999,99999,99999,99999,99999,99999,99999,99999,99999,99999,99999,99999
5:44:49,1510777350,2017-11-15T20:22:36,0.779,266.3,18.86,15.73,20.78,831.470,2083.390,125.550003,18.13,2.4837,363,23753,1.93456,4.08,52212,,,,,,,,,,,,,,,,,,99999,99999,99999,99999,99999,99999,99999,99999,99999,99999,99999,99999
5:45:19,1510777380,2017-11-15T20:23:06,0.785,266.7,18.83,15.72,20.72,831.530,2083.200,122.783333,18.45,2.4837,363,23751,1.94916,4.08,52208,,,,,,,,,,,,,,,,,,99999,99999,99999,99999,99999,99999,99999,99999,99999,99999,99999,99999
5:45:49,1510777410,2017-11-15T20:23:36,0.778,267.1,18.79,15.72,20.68,831.510,2083.100,124.166664,18.13,2.4840,363,23753,1.93153,4.08,52204,,,,,,,,,,,,,,,,,,99999,99999,99999,99999,99999,99999,99999,99999,99999,99999,99999,99999
5:46:19,1510777440,2017-11-15T20:24:06,0.776,267.5,18.77,15.72,20.66,831.560,2083.030,125.866669,18.68,2.4840,363,23753,1.92819,4.08,52200,,,,,,,,,,,,,,,,,,99999,99999,99999,99999,99999,99999,99999,99999,99999,99999,99999,99999
5:46:49,1510777470,2017-11-15T20:24:36,0.779,267.9,18.75,15.72,20.64,831.490,2082.970,126.783333,19.13,2.4841,363,23753,1.93608,4.08,52196,,,,,,,,,,,,,,,,,,99999,99999,99999,99999,99999,99999,99999,99999,99999,99999,99999,99999
5:47:19,1510777500,2017-11-15T20:25:06,0.781,268.3,18.73,15.71,20.59,831.500,2082.930,127.016670,19.08,2.4842,363,23752,1.93942,4.08,52192,,,,,,,,,,,,,,,,,,99999,99999,99999,99999,99999,99999,99999,99999,99999,99999,99999,99999
5:47:49,1510777530,2017-11-15T20:25:36,0.781,268.7,18.73,15.72,20.59,831.500,2082.930,124.533333,19.36,2.4842,363,23751,1.94033,4.08,52188,,,,,,,,,,,,,,,,,,99999,99999,99999,99999,99999,99999,99999,99999,99999,99999,99999,99999
5:48:19,1510777560,2017-11-15T20:26:06,0.780,269.1,18.74,15.72,20.54,831.440,2082.970,128.983337,18.07,2.4842,363,23752,1.93699,4.08,52184,,,,,,,,,,,,,,,,,,99999,99999,99999,99999,99999,99999,99999,99999,99999,99999,99999,99999
5:48:49,1510777590,2017-11-15T20:26:36,0.778,269.5,18.73,15.71,20.54,831.520,2082.930,128.083328,18.26,2.4843,363,23754,1.93213,4.08,52180,,,,,,,,,,,,,,,,,,99999,99999,99999,99999,99999,99999,99999,99999,99999,99999,99999,99999
5:49:19,1510777620,2017-11-15T20:27:06,0.783,269.9,18.73,15.71,20.58,831.500,2082.930,123.966667,18.91,2.4842,363,23752,1.94520,4.08,52176,,,,,,,,,,,,,,,,,,99999,99999,99999,99999,99999,99999,99999,99999,99999,99999,99999,99999
5:49:49,1510777650,2017-11-15T20:27:36,0.783,270.2,18.74,15.74,20.54,831.520,2082.970,120.949997,18.16,2.4842,363,23752,1.94459,4.08,52172,,,,,,,,,,,,,,,,,,99999,99999,99999,99999,99999,99999,99999,99999,99999,99999,99999,99999
5:50:19,1510777680,2017-11-15T20:28:06,0.780,270.6,18.75,15.72,20.54,831.590,2082.970,121.633331,18.97,2.4841,363,23753,1.93851,4.08,52168,,,,,,,,,,,,,,,,,,99999,99999,99999,99999,99999,99999,99999,99999,99999,99999,99999,99999
5:50:49,1510777710,2017-11-15T20:28:36,0.776,271.0,18.78,15.74,20.58,831.510,2083.100,125.949997,18.32,2.4840,363,23749,1.92850,4.08,52164,,,,,,,,,,,,,,,,,,99999,99999,99999,99999,99999,99999,99999,99999,99999,99999,99999,99999
5:51:19,1510777740,2017-11-15T20:29:06,0.781,271.4,18.79,15.74,20.58,831.530,2083.100,123.349998,18.08,2.4840,363,23753,1.94064,4.08,52160,,,,,,,,,,,,,,,,,,99999,99999,99999,99999,99999,99999,99999,99999,99999,99999,99999,99999
5:51:49,1510777770,2017-11-15T20:29:36,0.782,271.8,18.82,15.74,20.59,831.500,2083.200,124.083336,18.39,2.4838,363,23749,1.94338,4.08,52156,,,,,,,,,,,,,,,,,,99999,99999,99999,99999,99999,99999,99999,99999,99999,99999,99999,99999
5:52:19,1510777800,2017-11-15T20:30:06,0.780,272.2,18.85,15.77,20.58,831.520,2083.270,127.733330,18.87,2.4836,363,23755,1.93790,4.08,52152,,,,,,,,,,,,,,,,,,99999,99999,99999,99999,99999,99999,99999,99999,99999,99999,99999,99999
5:52:49,1510777830,2017-11-15T20:30:36,0.781,272.6,18.87,15.77,20.66,831.440,2083.390,128.183334,18.25,2.4836,363,23752,1.93851,4.08,52148,,,,,,,,,,,,,,,,,,99999,99999,99999,99999,99999,99999,99999,99999,99999,99999,99999,99999
5:53:19,1510777860,2017-11-15T20:31:06,0.781,273.0,18.91,15.77,20.64,831.450,2083.560,124.566666,18.64,2.4834,363,23755,1.94064,4.08,52144,,,,,,,,,,,,,,,,,,99999,99999,99999,99999,99999,99999,99999,99999,99999,99999,99999,99999
5:53:49,1510777890,2017-11-15T20:31:36,0.785,273.4,18.94,15.78,20.66,831.500,2083.620,124.216667,18.20,2.4833,363,23753,1.95008,4.08,52141,,,,,,,,,,,,,,,,,,99999,99999,99999,99999,99999,99999,99999,99999,99999,99999,99999,99999
5:54:19,1510777920,2017-11-15T20:32:06,0.780,273.8,18.96,15.80,20.72,831.370,2083.680,131.016663,17.80,2.4832,363,23752,1.93699,4.07,52137,,,,,,,,,,,,,,,,,,99999,99999,99999,99999,99999,99999,99999,99999,99999,99999,99999,99999
5:54:49,1510777950,2017-11-15T20:32:36,0.781,274.1,18.98,15.81,20.70,831.490,2083.720,123.983330,18.14,2.4831,363,23753,1.93973,4.07,52133,,,,,,,,,,,,,,,,,,99999,99999,99999,99999,99999,99999,99999,99999,99999,99999,99999,99999
5:55:19,1510777980,2017-11-15T20:33:06,0.785,274.5,18.99,15.81,20.75,831.490,2083.850,123.383331,19.27,2.4830,363,23757,1.94794,4.07,52128,,,,,,,,,,,,,,,,,,99999,99999,99999,99999,99999,99999,99999,99999,99999,99999,99999,99999
5:55:49,1510778010,2017-11-15T20:33:36,0.779,274.9,19.02,15.79,20.78,831.460,2083.910,126.066666,18.42,2.4829,363,23754,1.93517,4.07,52124,,,,,,,,,,,,,,,,,,99999,99999,99999,99999,99999,99999,99999,99999,99999,99999,99999,99999
5:56:19,1510778040,2017-11-15T20:34:06,0.785,275.3,19.03,15.78,20.80,831.530,2083.970,125.166664,17.87,2.4830,363,23756,1.94977,4.07,52120,,,,,,,,,,,,,,,,,,99999,99999,99999,99999,99999,99999,99999,99999,99999,99999,99999,99999
5:56:49,1510778070,2017-11-15T20:34:36,0.782,275.7,19.06,15.79,20.80,831.500,2084.020,124.233330,18.06,2.4827,363,23750,1.94033,4.07,52116,,,,,,,,,,,,,,,,,,99999,99999,99999,99999,99999,99999,99999,99999,99999,99999,99999,99999
5:57:19,1510778100,2017-11-15T20:35:06,0.780,276.1,19.08,15.76,20.80,831.360,2084.140,129.683334,17.43,2.4828,363,23751,1.93669,4.07,52112,,,,,,,,,,,,,,,,,,99999,99999,99999,99999,99999,99999,99999,99999,99999,99999,99999,99999
5:57:49,1510778130,2017-11-15T20:35:36,0.778,276.5,19.06,15.78,20.82,831.530,2084.020,127.616669,17.39,2.4828,363,23752,1.93213,4.07,52108,,,,,,,,,,,,,,,,,,99999,99999,99999,99999,99999,99999,99999,99999,99999,99999,99999,99999
5:58:19,1510778160,2017-11-15T20:36:06,0.780,276.9,19.07,15.75,20.82,831.520,2084.080,125.183334,17.85,2.4827,363,23753,1.93760,4.07,52104,,,,,,,,,,,,,,,,,,99999,99999,99999,99999,99999,99999,99999,99999,99999,99999,99999,99999
5:58:49,1510778190,2017-11-15T20:36:36,0.786,277.3,19.06,15.74,20.80,831.470,2084.020,123.050003,17.52,2.4828,363,23754,1.95099,4.07,52100,,,,,,,,,,,,,,,,,,99999,99999,99999,99999,99999,99999,99999,99999,99999,99999,99999,99999
5:59:19,1510778220,2017-11-15T20:37:06,0.781,277.7,19.02,15.71,20.80,831.410,2083.910,130.033340,17.66,2.4830,363,23752,1.93821,4.07,52096,,,,,,,,,,,,,,,,,,99999,99999,99999,99999,99999,99999,99999,99999,99999,99999,99999,99999
5:59:49,1510778250,2017-11-15T20:37:36,0.780,278.1,18.99,15.71,20.75,831.540,2083.850,122.699997,17.60,2.4832,363,23751,1.93790,4.07,52092,,,,,,,,,,,,,,,,,,99999,99999,99999,99999,99999,99999,99999,99999,99999,99999,99999,99999
6:00:19,1510778280,2017-11-15T20:38:06,0.782,278.4,18.94,15.70,20.75,831.470,2083.620,124.599998,18.25,2.4833,363,23749,1.94277,4.07,52088,,,,,,,,,,,,,,,,,,99999,99999,99999,99999,99999,99999,99999,99999,99999,99999,99999,99999
6:00:49,1510778310,2017-11-15T20:38:36,0.784,278.8,18.91,15.66,20.68,831.400,2083.560,126.550003,17.91,2.4835,363,23750,1.94673,4.07,52083,,,,,,,,,,,,,,,,,,99999,99999,99999,99999,99999,99999,99999,99999,99999,99999,99999,99999
6:01:19,1510778340,2017-11-15T20:39:06,0.783,279.2,18.85,15.65,20.62,831.360,2083.270,125.599998,18.31,2.4836,363,23751,1.94490,4.07,52079,,,,,,,,,,,,,,,,,,99999,99999,99999,99999,99999,99999,99999,99999,99999,99999,99999,99999
6:01:49,1510778370,2017-11-15T20:39:36,0.781,279.6,18.79,15.64,20.54,831.530,2083.100,126.666664,18.47,2.4839,363,23746,1.93973,4.07,52075,,,,,,,,,,,,,,,,,,99999,99999,99999,99999,99999,99999,99999,99999,99999,99999,99999,99999
6:02:19,1510778400,2017-11-15T20:40:06,0.782,280.0,18.73,15.61,20.52,831.420,2082.930,126.433334,18.17,2.4843,363,23749,1.94246,4.07,52071,,,,,,,,,,,,,,,,,,99999,99999,99999,99999,99999,99999,99999,99999,99999,99999,99999,99999
6:02:49,1510778430,2017-11-15T20:40:36,0.781,280.4,18.66,15.59,20.48,831.480,2082.640,121.449997,18.27,2.4845,363,23749,1.93973,4.07,52067,,,,,,,,,,,,,,,,,,99999,99999,99999,99999,99999,99999,99999,99999,99999,99999,99999,99999
6:03:19,1510778460,2017-11-15T20:41:06,0.784,280.8,18.58,15.57,20.38,831.450,2082.350,123.516670,18.13,2.4849,363,23747,1.94703,4.07,52063,,,,,,,,,,,,,,,,,,99999,99999,99999,99999,99999,99999,99999,99999,99999,99999,99999,99999
6:03:49,1510778490,2017-11-15T20:41:36,0.777,281.2,18.51,15.54,20.33,831.520,2082.180,123.966667,17.84,2.4853,363,23746,1.93062,4.07,52059,,,,,,,,,,,,,,,,,,99999,99999,99999,99999,99999,99999,99999,99999,99999,99999,99999,99999
6:04:19,1510778520,2017-11-15T20:42:06,0.777,281.6,18.43,15.51,20.27,831.510,2081.830,123.433334,18.25,2.4855,363,23746,1.93092,4.07,52055,,,,,,,,,,,,,,,,,,99999,99999,99999,99999,99999,99999,99999,99999,99999,99999,99999,99999
6:04:49,1510778550,2017-11-15T20:42:36,0.780,282.0,18.37,15.48,20.18,831.490,2081.660,123.616669,18.86,2.4858,363,23745,1.93973,4.07,52051,,,,,,,,,,,,,,,,,,99999,99999,99999,99999,99999,99999,99999,99999,99999,99999,99999,99999
6:05:19,1510778580,2017-11-15T20:43:06,0.780,282.3,18.31,15.47,20.10,831.460,2081.430,120.183334,19.57,2.4860,363,23743,1.93851,4.07,52046,,,,,,,,,,,,,,,,,,99999,99999,99999,99999,99999,99999,99999,99999,99999,99999,99999,99999
6:05:49,1510778610,2017-11-15T20:43:36,0.777,282.7,18.25,15.46,20.02,831.470,2081.240,121.150002,18.58,2.4864,363,23745,1.93213,4.07,52042,,,,,,,,,,,,,,,,,,99999,99999,99999,99999,99999,99999,99999,99999,99999,99999,99999,99999
6:06:19,1510778640,2017-11-15T20:44:06,0.776,283.1,18.19,15.45,20.01,831.510,2081.070,123.016670,19.26,2.4866,363,23745,1.92850,4.07,52038,,,,,,,,,,,,,,,,,,99999,99999,99999,99999,99999,99999,99999,99999,99999,99999,99999,99999
6:06:49,1510778670,2017-11-15T20:44:36,0.775,283.5,18.13,15.43,19.92,831.470,2080.780,123.650002,18.39,2.4869,363,23740,1.92819,4.07,52034,,,,,,,,,,,,,,,,,,99999,99999,99999,99999,99999,99999,99999,99999,99999,99999,99999,99999
6:07:19,1510778700,2017-11-15T20:45:06,0.781,283.9,18.07,15.43,19.86,831.460,2080.610,122.199997,18.88,2.4871,363,23741,1.94307,4.07,52030,,,,,,,,,,,,,,,,,,99999,99999,99999,99999,99999,99999,99999,99999,99999,99999,99999,99999
6:07:49,1510778730,2017-11-15T20:45:36,0.780,284.3,18.02,15.39,19.82,831.420,2080.450,123.300003,19.51,2.4873,363,23741,1.94033,4.07,52026,,,,,,,,,,,,,,,,,,99999,99999,99999,99999,99999,99999,99999,99999,99999,99999,99999,99999
6:08:19,1510778760,2017-11-15T20:46:06,0.778,284.7,17.97,15.38,19.72,831.400,2080.260,121.966667,18.94,2.4876,363,23740,1.93578,4.07,52022,,,,,,,,,,,,,,,,,,99999,99999,99999,99999,99999,99999,99999,99999,99999,99999,99999,99999
6:08:49,1510778790,2017-11-15T20:46:36,0.776,285.1,17.92,15.36,19.70,831.440,2080.030,120.966667,18.84,2.4877,363,23741,1.93032,4.07,52018,,,,,,,,,,,,,,,,,,99999,99999,99999,99999,99999,99999,99999,99999,99999,99999,99999,99999
6:09:19,1510778820,2017-11-15T20:47:06,0.778,285.5,17.87,15.34,19.64,831.480,2079.920,125.699997,20.22,2.4879,363,23737,1.93547,4.07,52014,,,,,,,,,,,,,,,,,,99999,99999,99999,99999,99999,99999,99999,99999,99999,99999,99999,99999
6:09:49,1510778850,2017-11-15T20:47:36,0.778,285.8,17.83,15.33,19.64,831.440,2079.800,123.449997,19.46,2.4882,363,23736,1.93699,4.07,52010,,,,,,,,,,,,,,,,,,99999,99999,99999,99999,99999,99999,99999,99999,99999,99999,99999,99999
6:10:19,1510778880,2017-11-15T20:48:06,0.776,286.2,17.79,15.30,19.56,831.440,2079.690,127.616669,19.60,2.4884,363,23737,1.93032,4.07,52006,,,,,,,,,,,,,,,,,,99999,99999,99999,99999,99999,99999,99999,99999,99999,99999,99999,99999
6:10:49,1510778910,2017-11-15T20:48:36,0.776,286.6,17.74,15.27,19.56,831.410,2079.460,121.650002,19.43,2.4886,363,23737,1.93123,4.07,52002,,,,,,,,,,,,,,,,,,99999,99999,99999,99999,99999,99999,99999,99999,99999,99999,99999,99999
6:11:19,1510778940,2017-11-15T20:49:06,0.773,287.0,17.71,15.25,19.48,831.440,2079.340,120.616669,19.83,2.4886,363,23739,1.92426,4.07,51998,,,,,,,,,,,,,,,,,,99999,99999,99999,99999,99999,99999,99999,99999,99999,99999,99999,99999
6:11:49,1510778970,2017-11-15T20:49:36,0.776,287.4,17.68,15.23,19.44,831.500,2079.300,119.016670,19.85,2.4888,363,23738,1.93213,4.07,51993,,,,,,,,,,,,,,,,,,99999,99999,99999,99999,99999,99999,99999,99999,99999,99999,99999,99999
6:12:19,1510779000,2017-11-15T20:50:06,0.777,287.8,17.64,15.20,19.38,831.530,2079.110,123.366669,19.61,2.4890,363,23736,1.93365,4.07,51989,,,,,,,,,,,,,,,,,,99999,99999,99999,99999,99999,99999,99999,99999,99999,99999,99999,99999
6:12:49,1510779030,2017-11-15T20:50:36,0.773,288.2,17.61,15.19,19.38,831.510,2079.010,122.666664,19.15,2.4892,363,23733,1.92335,4.07,51985,,,,,,,,,,,,,,,,,,99999,99999,99999,99999,99999,99999,99999,99999,99999,99999,99999,99999
6:13:19,1510779060,2017-11-15T20:51:06,0.770,288.6,17.58,15.17,19.35,831.440,2078.940,124.966667,19.94,2.4893,363,23732,1.91761,4.07,51981,,,,,,,,,,,,,,,,,,99999,99999,99999,99999,99999,99999,99999,99999,99999,99999,99999,99999
6:13:49,1510779090,2017-11-15T20:51:36,0.773,289.0,17.54,15.15,19.32,831.530,2078.710,120.699997,19.20,2.4894,363,23732,1.92486,4.07,51977,,,,,,,,,,,,,,,,,,99999,99999,99999,99999,99999,99999,99999,99999,99999,99999,99999,99999
6:14:19,1510779120,2017-11-15T20:52:06,0.773,289.3,17.52,15.10,19.24,831.420,2078.650,121.416664,20.75,2.4894,363,23732,1.92547,4.07,51973,,,,,,,,,,,,,,,,,,99999,99999,99999,99999,99999,99999,99999,99999,99999,99999,99999,99999
6:14:49,1510779150,2017-11-15T20:52:36,0.774,289.7,17.48,15.10,19.27,831.480,2078.540,119.266670,19.62,2.4897,363,23732,1.92638,4.07,51969,,,,,,,,,,,,,,,,,,99999,99999,99999,99999,99999,99999,99999,99999,99999,99999,99999,99999
6:15:19,1510779180,2017-11-15T20:53:06,0.773,290.1,17.47,15.09,19.24,831.460,2078.490,120.933334,19.95,2.4897,363,23734,1.92335,4.07,51966,,,,,,,,,,,,,,,,,,99999,99999,99999,99999,99999,99999,99999,99999,99999,99999,99999,99999
6:15:49,1510779210,2017-11-15T20:53:36,0.777,290.5,17.45,15.08,19.20,831.470,2078.490,121.066666,20.09,2.4899,363,23734,1.93578,4.07,51962,,,,,,,,,,,,,,,,,,99999,99999,99999,99999,99999,99999,99999,99999,99999,99999,99999,99999
6:16:19,1510779240,2017-11-15T20:54:06,0.773,290.9,17.41,15.05,19.14,831.400,2078.360,121.216667,20.72,2.4900,363,23730,1.92365,4.07,51958,,,,,,,,,,,,,,,,,,99999,99999,99999,99999,99999,99999,99999,99999,99999,99999,99999,99999
6:16:49,1510779270,2017-11-15T20:54:36,0.776,291.3,17.40,15.06,19.17,831.400,2078.250,122.500000,19.94,2.4900,363,23731,1.93123,4.07,51954,,,,,,,,,,,,,,,,,,99999,99999,99999,99999,99999,99999,99999,99999,99999,99999,99999,99999
6:17:19,1510779300,2017-11-15T20:55:06,0.776,291.7,17.39,15.03,19.13,831.400,2078.190,123.066666,20.59,2.4900,363,23729,1.93244,4.07,51950,,,,,,,,,,,,,,,,,,99999,99999,99999,99999,99999,99999,99999,99999,99999,99999,99999,99999
6:17:49,1510779330,2017-11-15T20:55:36,0.775,292.1,17.38,15.05,19.13,831.430,2078.130,122.083336,20.39,2.4900,363,23728,1.93001,4.07,51946,,,,,,,,,,,,,,,,,,99999,99999,99999,99999,99999,99999,99999,99999,99999,99999,99999,99999
6:18:19,1510779360,2017-11-15T20:56:06,0.779,292.4,17.37,15.03,19.13,831.430,2078.130,122.716667,19.77,2.4901,363,23729,1.93882,4.07,51942,,,,,,,,,,,,,,,,,,99999,99999,99999,99999,99999,99999,99999,99999,99999,99999,99999,99999
6:18:49,1510779390,2017-11-15T20:56:36,0.774,292.8,17.36,15.03,19.09,831.540,2078.130,120.483330,20.44,2.4902,363,23731,1.92850,4.07,51938,,,,,,,,,,,,,,,,,,99999,99999,99999,99999,99999,99999,99999,99999,99999,99999,99999,99999
6:19:19,1510779420,2017-11-15T20:57:06,0.773,293.2,17.35,15.03,19.13,831.460,2078.090,119.783333,19.92,2.4903,363,23730,1.92486,4.07,51935,,,,,,,,,,,,,,,,,,99999,99999,99999,99999,99999,99999,99999,99999,99999,99999,99999,99999
6:19:49,1510779450,2017-11-15T20:57:36,0.774,293.6,17.35,15.03,19.09,831.430,2078.090,124.500000,19.48,2.4903,363,23727,1.92638,4.07,51931,,,,,,,,,,,,,,,,,,99999,99999,99999,99999,99999,99999,99999,99999,99999,99999,99999,99999
6:20:19,1510779480,2017-11-15T20:58:06,0.776,294.0,17.35,15.05,19.09,831.410,2078.090,123.616669,19.49,2.4903,363,23731,1.93183,4.07,51927,,,,,,,,,,,,,,,,,,99999,99999,99999,99999,99999,99999,99999,99999,99999,99999,99999,99999
6:20:49,1510779510,2017-11-15T20:58:36,0.777,294.4,17.34,15.04,19.05,831.440,2078.090,121.566666,20.22,2.4903,363,23729,1.93608,4.07,51923,,,,,,,,,,,,,,,,,,99999,99999,99999,99999,99999,99999,99999,99999,99999,99999,99999,99999
6:21:19,1510779540,2017-11-15T20:59:06,0.772,294.8,17.34,15.05,19.06,831.440,2078.090,120.183334,19.53,2.4904,363,23728,1.92214,4.07,51919,,,,,,,,,,,,,,,,,,99999,99999,99999,99999,99999,99999,99999,99999,99999,99999,99999,99999
6:21:49,1510779570,2017-11-15T20:59:36,0.778,295.2,17.33,15.04,19.06,831.520,2078.020,122.616669,19.46,2.4904,363,23729,1.93669,4.07,51915,,,,,,,,,,,,,,,,,,99999,99999,99999,99999,99999,99999,99999,99999,99999,99999,99999,99999
6:22:19,1510779600,2017-11-15T21:00:06,0.773,295.5,17.33,15.06,19.09,831.440,2078.020,121.716667,20.44,2.4903,363,23731,1.92395,4.07,51912,,,,,,,,,,,,,,,,,,99999,99999,99999,99999,99999,99999,99999,99999,99999,99999,99999,99999
6:22:49,1510779630,2017-11-15T21:00:36,0.771,295.9,17.32,15.04,19.05,831.420,2078.020,121.083336,19.83,2.4904,363,23731,1.92033,4.07,51908,,,,,,,,,,,,,,,,,,99999,99999,99999,99999,99999,99999,99999,99999,99999,99999,99999,99999
6:23:19,1510779660,2017-11-15T21:01:06,0.778,296.3,17.33,15.05,19.06,831.440,2078.020,121.516670,20.41,2.4903,363,23731,1.93638,4.07,51904,,,,,,,,,,,,,,,,,,99999,99999,99999,99999,99999,99999,99999,99999,99999,99999,99999,99999
6:23:49,1510779690,2017-11-15T21:01:36,0.772,296.7,17.34,15.07,19.06,831.520,2078.090,119.166664,19.88,2.4903,363,23731,1.92365,4.07,51900,,,,,,,,,,,,,,,,,,99999,99999,99999,99999,99999,99999,99999,99999,99999,99999,99999,99999
6:24:19,1510779720,2017-11-15T21:02:06,0.773,297.1,17.33,15.06,19.06,831.460,2078.020,121.566666,19.65,2.4904,363,23729,1.92547,4.07,51897,,,,,,,,,,,,,,,,,,99999,99999,99999,99999,99999,99999,99999,99999,99999,99999,99999,99999
6:24:49,1510779750,2017-11-15T21:02:36,0.771,297.5,17.33,15.06,19.06,831.520,2078.020,121.716667,19.84,2.4904,363,23729,1.92002,4.07,51893,,,,,,,,,,,,,,,,,,99999,99999,99999,99999,99999,99999,99999,99999,99999,99999,99999,99999
6:25:19,1510779780,2017-11-15T21:03:06,0.774,297.9,17.33,15.05,19.02,831.520,2078.020,121.300003,20.01,2.4903,363,23730,1.92850,4.07,51889,,,,,,,,,,,,,,,,,,99999,99999,99999,99999,99999,99999,99999,99999,99999,99999,99999,99999
6:25:49,1510779810,2017-11-15T21:03:36,0.773,298.3,17.32,15.07,19.05,831.500,2078.020,119.233330,20.11,2.4904,363,23731,1.92395,4.07,51885,,,,,,,,,,,,,,,,,,99999,99999,99999,99999,99999,99999,99999,99999,99999,99999,99999,99999
6:26:19,1510779840,2017-11-15T21:04:06,0.777,298.6,17.32,15.06,19.02,831.340,2078.020,123.066666,19.27,2.4905,363,23728,1.93487,4.07,51881,,,,,,,,,,,,,,,,,,99999,99999,99999,99999,99999,99999,99999,99999,99999,99999,99999,99999
6:26:49,1510779870,2017-11-15T21:04:36,0.776,299.0,17.33,15.04,19.02,831.490,2078.020,120.433334,20.30,2.4903,363,23730,1.93274,4.07,51878,,,,,,,,,,,,,,,,,,99999,99999,99999,99999,99999,99999,99999,99999,99999,99999,99999,99999
6:27:19,1510779900,2017-11-15T21:05:06,0.773,299.4,17.33,15.07,19.06,831.410,2078.020,120.466667,20.58,2.4903,363,23731,1.92456,4.07,51874,,,,,,,,,,,,,,,,,,99999,99999,99999,99999,99999,99999,99999,99999,99999,99999,99999,99999
6:27:49,1510779930,2017-11-15T21:05:36,0.778,299.8,17.33,15.07,19.06,831.410,2078.020,122.083336,19.88,2.4903,363,23729,1.93638,4.07,51870,,,,,,,,,,,,,,,,,,99999,99999,99999,99999,99999,99999,99999,99999,99999,99999,99999,99999
6:28:19,1510779960,2017-11-15T21:06:06,0.776,300.2,17.35,15.07,19.09,831.430,2078.090,120.250000,19.88,2.4903,363,23731,1.93244,4.07,51866,,,,,,,,,,,,,,,,,,99999,99999,99999,99999,99999,99999,99999,99999,99999,99999,99999,99999
6:28:49,1510779990,2017-11-15T21:06:36,0.776,300.6,17.35,15.08,19.06,831.490,2078.090,121.500000,20.10,2.4902,363,23729,1.93213,4.07,51862,,,,,,,,,,,,,,,,,,99999,99999,99999,99999,99999,99999,99999,99999,99999,99999,99999,99999
6:29:19,1510780020,2017-11-15T21:07:06,0.776,301.0,17.37,15.08,19.08,831.430,2078.130,122.150002,19.87,2.4901,363,23731,1.93335,4.07,51858,,,,,,,,,,,,,,,,,,99999,99999,99999,99999,99999,99999,99999,99999,99999,99999,99999,99999
6:29:49,1510780050,2017-11-15T21:07:36,0.775,301.4,17.37,15.10,19.10,831.400,2078.130,120.766670,20.51,2.4901,363,23727,1.93092,4.07,51854,,,,,,,,,,,,,,,,,,99999,99999,99999,99999,99999,99999,99999,99999,99999,99999,99999,99999
6:30:19,1510780080,2017-11-15T21:08:06,0.776,301.7,17.38,15.11,19.09,831.380,2078.130,121.500000,19.93,2.4900,363,23730,1.93183,4.07,51851,,,,,,,,,,,,,,,,,,99999,99999,99999,99999,99999,99999,99999,99999,99999,99999,99999,99999
6:30:49,1510780110,2017-11-15T21:08:36,0.779,302.1,17.38,15.13,19.09,831.380,2078.130,120.550003,20.10,2.4900,363,23731,1.93973,4.07,51847,,,,,,,,,,,,,,,,,,99999,99999,99999,99999,99999,99999,99999,99999,99999,99999,99999,99999
6:31:19,1510780140,2017-11-15T21:09:06,0.778,302.5,17.38,15.13,19.09,831.480,2078.130,122.050003,20.92,2.4900,363,23731,1.93821,4.07,51843,,,,,,,,,,,,,,,,,,99999,99999,99999,99999,99999,99999,99999,99999,99999,99999,99999,99999
6:31:49,1510780170,2017-11-15T21:09:36,0.779,302.9,17.40,15.17,19.10,831.350,2078.250,120.816666,20.28,2.4900,363,23732,1.93973,4.07,51839,,,,,,,,,,,,,,,,,,99999,99999,99999,99999,99999,99999,99999,99999,99999,99999,99999,99999
6:32:19,1510780200,2017-11-15T21:10:06,0.772,303.3,17.41,15.18,19.10,831.370,2078.360,124.699997,19.93,2.4901,363,23732,1.92184,4.07,51836,,,,,,,,,,,,,,,,,,99999,99999,99999,99999,99999,99999,99999,99999,99999,99999,99999,99999
6:32:49,1510780230,2017-11-15T21:10:36,0.774,303.7,17.41,15.19,19.13,831.340,2078.360,120.633331,20.07,2.4900,363,23731,1.92789,4.07,51832,,,,,,,,,,,,,,,,,,99999,99999,99999,99999,99999,99999,99999,99999,99999,99999,99999,99999
6:33:19,1510780260,2017-11-15T21:11:06,0.776,304.1,17.42,15.20,19.16,831.400,2078.360,118.599998,19.98,2.4900,363,23734,1.93304,4.07,51829,,,,,,,,,,,,,,,,,,99999,99999,99999,99999,99999,99999,99999,99999,99999,99999,99999,99999
6:33:49,1510780290,2017-11-15T21:11:36,0.775,304.5,17.44,15.22,19.14,831.340,2078.420,120.750000,20.34,2.4898,363,23735,1.92941,4.07,51825,,,,,,,,,,,,,,,,,,99999,99999,99999,99999,99999,99999,99999,99999,99999,99999,99999,99999
6:34:19,1510780320,2017-11-15T21:12:06,0.778,304.8,17.44,15.23,19.14,831.360,2078.420,121.250000,19.85,2.4899,363,23735,1.93699,4.07,51822,,,,,,,,,,,,,,,,,,99999,99999,99999,99999,99999,99999,99999,99999,99999,99999,99999,99999
6:34:49,1510780350,2017-11-15T21:12:36,0.777,305.2,17.45,15.26,19.16,831.390,2078.490,121.900002,19.99,2.4899,363,23734,1.93547,4.07,51818,,,,,,,,,,,,,,,,,,99999,99999,99999,99999,99999,99999,99999,99999,99999,99999,99999,99999
6:35:19,1510780380,2017-11-15T21:13:06,0.778,305.6,17.47,15.25,19.17,831.430,2078.490,123.683334,20.20,2.4897,363,23736,1.93638,4.07,51814,,,,,,,,,,,,,,,,,,99999,99999,99999,99999,99999,99999,99999,99999,99999,99999,99999,99999
6:35:49,1510780410,2017-11-15T21:13:36,0.775,306.0,17.48,15.28,19.17,831.320,2078.540,120.050003,20.57,2.4896,363,23735,1.92971,4.07,51811,,,,,,,,,,,,,,,,,,99999,99999,99999,99999,99999,99999,99999,99999,99999,99999,99999,99999
6:36:19,1510780440,2017-11-15T21:14:06,0.775,306.4,17.49,15.31,19.24,831.400,2078.590,119.449997,20.52,2.4896,363,23738,1.93062,4.07,51807,,,,,,,,,,,,,,,,,,99999,99999,99999,99999,99999,99999,99999,99999,99999,99999,99999,99999
6:36:49,1510780470,2017-11-15T21:14:36,0.775,306.8,17.50,15.32,19.19,831.400,2078.590,120.466667,20.35,2.4895,363,23735,1.93062,4.07,51804,,,,,,,,,,,,,,,,,,99999,99999,99999,99999,99999,99999,99999,99999,99999,99999,99999,99999
6:37:19,1510780500,2017-11-15T21:15:06,0.776,307.2,17.53,15.33,19.24,831.400,2078.710,122.716667,20.28,2.4894,363,23737,1.93123,4.07,51800,,,,,,,,,,,,,,,,,,99999,99999,99999,99999,99999,99999,99999,99999,99999,99999,99999,99999
6:37:49,1510780530,2017-11-15T21:15:36,0.778,307.6,17.54,15.36,19.20,831.450,2078.710,122.266670,20.07,2.4893,363,23737,1.93790,4.07,51796,,,,,,,,,,,,,,,,,,99999,99999,99999,99999,99999,99999,99999,99999,99999,99999,99999,99999
6:38:19,1510780560,2017-11-15T21:16:06,0.778,308.0,17.56,15.36,19.25,831.410,2078.820,120.766670,19.43,2.4894,363,23737,1.93760,4.07,51793,,,,,,,,,,,,,,,,,,99999,99999,99999,99999,99999,99999,99999,99999,99999,99999,99999,99999
6:38:49,1510780590,2017-11-15T21:16:36,0.775,308.3,17.57,15.38,19.28,831.360,2078.880,120.483330,19.58,2.4893,363,23739,1.92971,4.07,51789,,,,,,,,,,,,,,,,,,99999,99999,99999,99999,99999,99999,99999,99999,99999,99999,99999,99999
6:39:19,1510780620,2017-11-15T21:17:06,0.776,308.7,17.59,15.42,19.25,831.410,2078.940,120.266670,19.35,2.4892,363,23743,1.93092,4.07,51785,,,,,,,,,,,,,,,,,,99999,99999,99999,99999,99999,99999,99999,99999,99999,99999,99999,99999
6:39:49,1510780650,2017-11-15T21:17:36,0.777,309.1,17.61,15.44,19.30,831.400,2079.010,121.333336,19.39,2.4892,363,23741,1.93426,4.07,51782,,,,,,,,,,,,,,,,,,99999,99999,99999,99999,99999,99999,99999,99999,99999,99999,99999,99999
6:40:19,1510780680,2017-11-15T21:18:06,0.777,309.5,17.63,15.46,19.35,831.350,2079.040,118.983330,20.17,2.4889,363,23741,1.93365,4.07,51778,,,,,,,,,,,,,,,,,,99999,99999,99999,99999,99999,99999,99999,99999,99999,99999,99999,99999
6:40:49,1510780710,2017-11-15T21:18:36,0.775,309.9,17.63,15.47,19.36,831.350,2079.040,120.416664,19.33,2.4890,363,23740,1.92850,4.07,51774,,,,,,,,,,,,,,,,,,99999,99999,99999,99999,99999,99999,99999,99999,99999,99999,99999,99999
6:41:19,1510780740,2017-11-15T21:19:06,0.779,310.3,17.66,15.48,19.33,831.310,2079.170,121.516670,19.80,2.4889,363,23742,1.93851,4.07,51771,,,,,,,,,,,,,,,,,,99999,99999,99999,99999,99999,99999,99999,99999,99999,99999,99999,99999
6:41:49,1510780770,2017-11-15T21:19:36,0.777,310.7,17.67,15.52,19.38,831.310,2079.170,121.633331,20.02,2.4888,363,23745,1.93456,4.07,51767,,,,,,,,,,,,,,,,,,99999,99999,99999,99999,99999,99999,99999,99999,99999,99999,99999,99999
6:42:19,1510780800,2017-11-15T21:20:06,0.778,311.1,17.69,15.52,19.36,831.330,2079.300,120.349998,19.38,2.4888,363,23745,1.93608,4.07,51763,,,,,,,,,,,,,,,,,,99999,99999,99999,99999,99999,99999,99999,99999,99999,99999,99999,99999
6:42:49,1510780830,2017-11-15T21:20:36,0.781,311.5,17.71,15.52,19.40,831.360,2079.340,122.733330,19.32,2.4887,363,23742,1.94307,4.07,51760,,,,,,,,,,,,,,,,,,99999,99999,99999,99999,99999,99999,99999,99999,99999,99999,99999,99999
6:43:19,1510780860,2017-11-15T21:21:06,0.780,311.8,17.71,15.50,19.38,831.330,2079.340,120.583336,19.33,2.4887,363,23744,1.94186,4.07,51756,,,,,,,,,,,,,,,,,,99999,99999,99999,99999,99999,99999,99999,99999,99999,99999,99999,99999
6:43:49,1510780890,2017-11-15T21:21:36,0.781,312.2,17.71,15.50,19.42,831.280,2079.340,121.266670,19.38,2.4887,363,23743,1.94338,4.07,51752,,,,,,,,,,,,,,,,,,99999,99999,99999,99999,99999,99999,99999,99999,99999,99999,99999,99999
6:44:19,1510780920,2017-11-15T21:22:06,0.778,312.6,17.71,15.48,19.43,831.250,2079.340,120.066666,19.59,2.4887,363,23742,1.93638,4.07,51748,,,,,,,,,,,,,,,,,,99999,99999,99999,99999,99999,99999,99999,99999,99999,99999,99999,99999
6:44:49,1510780950,2017-11-15T21:22:36,0.775,313.0,17.70,15.45,19.42,831.230,2079.340,120.833336,19.47,2.4888,363,23742,1.92910,4.07,51745,,,,,,,,,,,,,,,,,,99999,99999,99999,99999,99999,99999,99999,99999,99999,99999,99999,99999
6:45:19,1510780980,2017-11-15T21:23:06,0.780,313.4,17.69,15.43,19.43,831.300,2079.300,123.216667,19.85,2.4888,363,23739,1.94155,4.07,51741,,,,,,,,,,,,,,,,,,99999,99999,99999,99999,99999,99999,99999,99999,99999,99999,99999,99999
6:45:49,1510781010,2017-11-15T21:23:36,0.780,313.8,17.68,15.40,19.38,831.280,2079.300,121.550003,20.45,2.4888,363,23738,1.94064,4.07,51737,,,,,,,,,,,,,,,,,,99999,99999,99999,99999,99999,99999,99999,99999,99999,99999,99999,99999
6:46:19,1510781040,2017-11-15T21:24:06,0.780,314.2,17.67,15.37,19.36,831.390,2079.170,122.533333,20.32,2.4887,363,23739,1.94155,4.07,51734,,,,,,,,,,,,,,,,,,99999,99999,99999,99999,99999,99999,99999,99999,99999,99999,99999,99999
6:46:49,1510781070,2017-11-15T21:24:36,0.775,314.6,17.66,15.34,19.36,831.310,2079.170,119.866669,20.60,2.4888,363,23737,1.92880,4.07,51730,,,,,,,,,,,,,,,,,,99999,99999,99999,99999,99999,99999,99999,99999,99999,99999,99999,99999
6:47:19,1510781100,2017-11-15T21:25:06,0.778,315.0,17.64,15.32,19.38,831.320,2079.110,121.183334,19.98,2.4890,363,23737,1.93547,4.07,51726,,,,,,,,,,,,,,,,,,99999,99999,99999,99999,99999,99999,99999,99999,99999,99999,99999,99999
6:47:49,1510781130,2017-11-15T21:25:36,0.779,315.3,17.63,15.29,19.33,831.350,2079.040,120.500000,19.94,2.4890,363,23734,1.93912,4.07,51722,,,,,,,,,,,,,,,,,,99999,99999,99999,99999,99999,99999,99999,99999,99999,99999,99999,99999
6:48:19,1510781160,2017-11-15T21:26:06,0.781,315.7,17.62,15.25,19.32,831.400,2079.040,122.199997,20.22,2.4890,363,23735,1.94429,4.07,51719,,,,,,,,,,,,,,,,,,99999,99999,99999,99999,99999,99999,99999,99999,99999,99999,99999,99999
6:48:49,1510781190,2017-11-15T21:26:36,0.776,316.1,17.61,15.25,19.30,831.350,2079.010,119.400002,20.48,2.4891,363,23736,1.93274,4.07,51715,,,,,,,,,,,,,,,,,,99999,99999,99999,99999,99999,99999,99999,99999,99999,99999,99999,99999
6:49:19,1510781220,2017-11-15T21:27:06,0.777,316.5,17.60,15.24,19.33,831.350,2079.010,121.750000,20.84,2.4891,363,23731,1.93304,4.07,51711,,,,,,,,,,,,,,,,,,99999,99999,99999,99999,99999,99999,99999,99999,99999,99999,99999,99999
6:49:49,1510781250,2017-11-15T21:27:36,0.779,316.9,17.59,15.24,19.32,831.310,2078.940,123.666664,20.06,2.4892,363,23734,1.93851,4.07,51707,,,,,,,,,,,,,,,,,,99999,99999,99999,99999,99999,99999,99999,99999,99999,99999,99999,99999
6:50:19,1510781280,2017-11-15T21:28:06,0.779,317.3,17.58,15.22,19.30,831.360,2078.940,121.599998,20.86,2.4892,363,23731,1.94003,4.07,51704,,,,,,,,,,,,,,,,,,99999,99999,99999,99999,99999,99999,99999,99999,99999,99999,99999,99999
6:50:49,1510781310,2017-11-15T21:28:36,0.778,317.7,17.57,15.21,19.28,831.360,2078.880,122.433334,20.06,2.4893,363,23734,1.93608,4.07,51700,,,,,,,,,,,,,,,,,,99999,99999,99999,99999,99999,99999,99999,99999,99999,99999,99999,99999
6:51:19,1510781340,2017-11-15T21:29:06,0.774,318.1,17.57,15.21,19.27,831.260,2078.880,121.800003,19.59,2.4893,363,23732,1.92699,4.07,51696,,,,,,,,,,,,,,,,,,99999,99999,99999,99999,99999,99999,99999,99999,99999,99999,99999,99999
6:51:49,1510781370,2017-11-15T21:29:36,0.776,318.5,17.56,15.20,19.27,831.280,2078.820,120.516670,19.46,2.4894,363,23733,1.93092,4.07,51692,,,,,,,,,,,,,,,,,,99999,99999,99999,99999,99999,99999,99999,99999,99999,99999,99999,99999
6:52:19,1510781400,2017-11-15T21:30:06,0.776,318.8,17.55,15.20,19.24,831.260,2078.710,123.599998,20.22,2.4892,363,23732,1.93183,4.07,51689,,,,,,,,,,,,,,,,,,99999,99999,99999,99999,99999,99999,99999,99999,99999,99999,99999,99999
6:52:49,1510781430,2017-11-15T21:30:36,0.778,319.2,17.53,15.17,19.22,831.320,2078.710,120.516670,19.70,2.4895,363,23734,1.93760,4.07,51685,,,,,,,,,,,,,,,,,,99999,99999,99999,99999,99999,99999,99999,99999,99999,99999,99999,99999
6:53:19,1510781460,2017-11-15T21:31:06,0.779,319.6,17.50,15.14,19.24,831.320,2078.590,120.733330,19.33,2.4896,363,23732,1.93942,4.07,51681,,,,,,,,,,,,,,,,,,99999,99999,99999,99999,99999,99999,99999,99999,99999,99999,99999,99999
6:53:49,1510781490,2017-11-15T21:31:36,0.775,320.0,17.49,15.11,19.19,831.270,2078.590,119.266670,19.07,2.4897,363,23734,1.92941,4.07,51677,,,,,,,,,,,,,,,,,,99999,99999,99999,99999,99999,99999,99999,99999,99999,99999,99999,99999
6:54:19,1510781520,2017-11-15T21:32:06,0.774,320.4,17.47,15.09,19.19,831.350,2078.490,120.216667,19.92,2.4897,363,23730,1.92759,4.07,51673,,,,,,,,,,,,,,,,,,99999,99999,99999,99999,99999,99999,99999,99999,99999,99999,99999,99999
6:54:49,1510781550,2017-11-15T21:32:36,0.778,320.8,17.46,15.06,19.14,831.340,2078.490,121.000000,19.50,2.4898,363,23729,1.93821,4.07,51669,,,,,,,,,,,,,,,,,,99999,99999,99999,99999,99999,99999,99999,99999,99999,99999,99999,99999
6:55:19,1510781580,2017-11-15T21:33:06,0.776,321.2,17.43,15.04,19.16,831.340,2078.420,120.949997,20.22,2.4899,363,23726,1.93153,4.07,51666,,,,,,,,,,,,,,,,,,99999,99999,99999,99999,99999,99999,99999,99999,99999,99999,99999,99999
6:55:49,1510781610,2017-11-15T21:33:36,0.774,321.6,17.42,15.01,19.13,831.370,2078.360,119.633331,19.80,2.4900,363,23730,1.92819,4.07,51662,,,,,,,,,,,,,,,,,,99999,99999,99999,99999,99999,99999,99999,99999,99999,99999,99999,99999
6:56:19,1510781640,2017-11-15T21:34:06,0.780,321.9,17.40,15.01,19.10,831.290,2078.250,121.066666,20.14,2.4900,363,23728,1.94246,4.07,51658,,,,,,,,,,,,,,,,,,99999,99999,99999,99999,99999,99999,99999,99999,99999,99999,99999,99999
6:56:49,1510781670,2017-11-15T21:34:36,0.776,322.3,17.39,15.00,19.10,831.290,2078.190,120.183334,19.48,2.4901,363,23729,1.93183,4.07,51654,,,,,,,,,,,,,,,,,,99999,99999,99999,99999,99999,99999,99999,99999,99999,99999,99999,99999
6:57:19,1510781700,2017-11-15T21:35:06,0.776,322.7,17.38,14.98,19.09,831.320,2078.130,121.916664,20.69,2.4900,363,23727,1.93153,4.07,51650,,,,,,,,,,,,,,,,,,99999,99999,99999,99999,99999,99999,99999,99999,99999,99999,99999,99999
6:57:49,1510781730,2017-11-15T21:35:36,0.774,323.1,17.37,14.98,19.08,831.270,2078.130,119.816666,19.48,2.4902,363,23727,1.92668,4.07,51646,,,,,,,,,,,,,,,,,,99999,99999,99999,99999,99999,99999,99999,99999,99999,99999,99999,99999
6:58:19,1510781760,2017-11-15T21:36:06,0.775,323.5,17.36,14.96,19.06,831.270,2078.130,118.383331,19.97,2.4902,363,23730,1.92941,4.07,51643,,,,,,,,,,,,,,,,,,99999,99999,99999,99999,99999,99999,99999,99999,99999,99999,99999,99999
6:58:49,1510781790,2017-11-15T21:36:36,0.774,323.9,17.35,14.96,19.06,831.270,2078.090,122.316666,20.09,2.4902,363,23725,1.92850,4.07,51639,,,,,,,,,,,,,,,,,,99999,99999,99999,99999,99999,99999,99999,99999,99999,99999,99999,99999
6:59:19,1510781820,2017-11-15T21:37:06,0.776,324.3,17.34,14.94,19.08,831.170,2078.090,122.166664,20.35,2.4903,363,23726,1.93213,4.06,51635,,,,,,,,,,,,,,,,,,99999,99999,99999,99999,99999,99999,99999,99999,99999,99999,99999,99999
6:59:49,1510781850,2017-11-15T21:37:36,0.774,324.7,17.33,14.95,19.06,831.170,2078.020,120.266670,20.49,2.4903,363,23725,1.92729,4.06,51631,,,,,,,,,,,,,,,,,,99999,99999,99999,99999,99999,99999,99999,99999,99999,99999,99999,99999
7:00:19,1510781880,2017-11-15T21:38:06,0.779,325.1,17.32,14.94,19.06,831.200,2078.020,120.933334,19.95,2.4904,363,23724,1.94033,4.06,51627,,,,,,,,,,,,,,,,,,99999,99999,99999,99999,99999,99999,99999,99999,99999,99999,99999,99999
7:00:49,1510781910,2017-11-15T21:38:36,0.775,325.4,17.31,14.90,19.02,831.150,2077.960,119.966667,20.44,2.4904,363,23723,1.93032,4.06,51623,,,,,,,,,,,,,,,,,,99999,99999,99999,99999,99999,99999,99999,99999,99999,99999,99999,99999
7:01:19,1510781940,2017-11-15T21:39:06,0.773,325.8,17.30,14.87,19.00,831.180,2077.900,119.849998,21.37,2.4903,363,23723,1.92456,4.06,51619,,,,,,,,,,,,,,,,,,99999,99999,99999,99999,99999,99999,99999,99999,99999,99999,99999,99999
7:01:49,1510781970,2017-11-15T21:39:36,0.779,326.2,17.28,14.83,19.01,831.210,2077.900,120.583336,20.42,2.4906,363,23721,1.93973,4.06,51615,,,,,,,,,,,,,,,,,,99999,99999,99999,99999,99999,99999,99999,99999,99999,99999,99999,99999
7:02:19,1510782000,2017-11-15T21:40:06,0.772,326.6,17.26,14.82,18.98,831.220,2077.790,120.683334,20.48,2.4906,363,23724,1.92365,4.06,51611,,,,,,,,,,,,,,,,,,99999,99999,99999,99999,99999,99999,99999,99999,99999,99999,99999,99999
7:02:49,1510782030,2017-11-15T21:40:36,0.779,327.0,17.25,14.79,18.96,831.190,2077.730,120.500000,20.10,2.4907,363,23721,1.94064,4.06,51608,,,,,,,,,,,,,,,,,,99999,99999,99999,99999,99999,99999,99999,99999,99999,99999,99999,99999
7:03:19,1510782060,2017-11-15T21:41:06,0.777,327.4,17.23,14.77,18.94,831.280,2077.670,121.566666,21.17,2.4907,363,23719,1.93608,4.06,51604,,,,,,,,,,,,,,,,,,99999,99999,99999,99999,99999,99999,99999,99999,99999,99999,99999,99999
7:03:49,1510782090,2017-11-15T21:41:36,0.776,327.8,17.20,14.76,18.94,831.150,2077.570,121.949997,20.53,2.4909,363,23718,1.93213,4.06,51600,,,,,,,,,,,,,,,,,,99999,99999,99999,99999,99999,99999,99999,99999,99999,99999,99999,99999
7:04:19,1510782120,2017-11-15T21:42:06,0.776,328.2,17.19,14.72,18.90,831.150,2077.570,123.099998,20.32,2.4910,363,23718,1.93183,4.06,51596,,,,,,,,,,,,,,,,,,99999,99999,99999,99999,99999,99999,99999,99999,99999,99999,99999,99999
7:04:49,1510782150,2017-11-15T21:42:36,0.773,328.5,17.18,14.71,18.88,831.180,2077.500,119.866669,20.48,2.4910,363,23718,1.92668,4.06,51592,,,,,,,,,,,,,,,,,,99999,99999,99999,99999,99999,99999,99999,99999,99999,99999,99999,99999
7:05:19,1510782180,2017-11-15T21:43:06,0.771,328.9,17.16,14.69,18.88,831.190,2077.440,121.283333,20.57,2.4911,363,23715,1.92033,4.06,51588,,,,,,,,,,,,,,,,,,99999,99999,99999,99999,99999,99999,99999,99999,99999,99999,99999,99999
7:05:49,1510782210,2017-11-15T21:43:36,0.776,329.3,17.15,14.69,18.90,831.140,2077.440,123.400002,20.48,2.4912,363,23716,1.93426,4.06,51584,,,,,,,,,,,,,,,,,,99999,99999,99999,99999,99999,99999,99999,99999,99999,99999,99999,99999
7:06:19,1510782240,2017-11-15T21:44:06,0.777,329.7,17.14,14.66,18.85,831.190,2077.340,122.766670,21.09,2.4911,363,23718,1.93547,4.06,51580,,,,,,,,,,,,,,,,,,99999,99999,99999,99999,99999,99999,99999,99999,99999,99999,99999,99999
7:06:49,1510782270,2017-11-15T21:44:36,0.774,330.1,17.11,14.62,18.86,831.200,2077.270,121.816666,20.54,2.4913,363,23715,1.92850,4.06,51577,,,,,,,,,,,,,,,,,,99999,99999,99999,99999,99999,99999,99999,99999,99999,99999,99999,99999
7:07:19,1510782300,2017-11-15T21:45:06,0.777,330.5,17.10,14.63,18.83,831.200,2077.210,120.566666,20.67,2.4913,363,23717,1.93547,4.06,51573,,,,,,,,,,,,,,,,,,99999,99999,99999,99999,99999,99999,99999,99999,99999,99999,99999,99999
7:07:49,1510782330,2017-11-15T21:45:36,0.772,330.9,17.08,14.60,18.80,831.180,2077.170,120.349998,20.59,2.4914,363,23714,1.92365,4.06,51569,,,,,,,,,,,,,,,,,,99999,99999,99999,99999,99999,99999,99999,99999,99999,99999,99999,99999
7:08:19,1510782360,2017-11-15T21:46:06,0.778,331.3,17.08,14.57,18.77,831.180,2077.170,120.500000,20.77,2.4914,363,23713,1.93730,4.06,51565,,,,,,,,,,,,,,,,,,99999,99999,99999,99999,99999,99999,99999,99999,99999,99999,99999,99999
7:08:49,1510782390,2017-11-15T21:46:36,0.774,331.6,17.04,14.55,18.75,831.210,2077.040,120.516670,20.82,2.4916,363,23713,1.92910,4.06,51561,,,,,,,,,,,,,,,,,,99999,99999,99999,99999,99999,99999,99999,99999,99999,99999,99999,99999
7:09:19,1510782420,2017-11-15T21:47:06,0.771,332.0,17.03,14.54,18.74,831.190,2076.980,121.016670,21.06,2.4916,363,23712,1.92123,4.06,51557,,,,,,,,,,,,,,,,,,99999,99999,99999,99999,99999,99999,99999,99999,99999,99999,99999,99999
7:09:49,1510782450,2017-11-15T21:47:36,0.773,332.4,17.02,14.52,18.75,831.170,2076.980,120.183334,20.74,2.4917,363,23714,1.92668,4.06,51553,,,,,,,,,,,,,,,,,,99999,99999,99999,99999,99999,99999,99999,99999,99999,99999,99999,99999
7:10:19,1510782480,2017-11-15T21:48:06,0.777,332.8,17.01,14.50,18.69,831.170,2076.870,120.983330,20.24,2.4917,363,23709,1.93487,4.06,51549,,,,,,,,,,,,,,,,,,99999,99999,99999,99999,99999,99999,99999,99999,99999,99999,99999,99999
7:10:49,1510782510,2017-11-15T21:48:36,0.774,333.2,17.00,14.51,18.69,831.250,2076.870,119.616669,20.70,2.4918,363,23712,1.92759,4.06,51545,,,,,,,,,,,,,,,,,,99999,99999,99999,99999,99999,99999,99999,99999,99999,99999,99999,99999
7:11:19,1510782540,2017-11-15T21:49:06,0.771,333.6,16.99,14.51,18.69,831.220,2076.810,119.433334,20.35,2.4918,363,23712,1.92033,4.06,51542,,,,,,,,,,,,,,,,,,99999,99999,99999,99999,99999,99999,99999,99999,99999,99999,99999,99999
7:11:49,1510782570,2017-11-15T21:49:36,0.775,334.0,16.99,14.50,18.67,831.280,2076.810,119.783333,20.71,2.4918,363,23713,1.93123,4.06,51538,,,,,,,,,,,,,,,,,,99999,99999,99999,99999,99999,99999,99999,99999,99999,99999,99999,99999
7:12:19,1510782600,2017-11-15T21:50:06,0.774,334.4,16.98,14.50,18.66,831.230,2076.810,116.900002,21.52,2.4918,363,23710,1.92971,4.06,51534,,,,,,,,,,,,,,,,,,99999,99999,99999,99999,99999,99999,99999,99999,99999,99999,99999,99999
7:12:49,1510782630,2017-11-15T21:50:36,0.770,334.7,16.98,14.48,18.66,831.150,2076.810,121.300003,20.59,2.4919,363,23711,1.91791,4.06,51530,,,,,,,,,,,,,,,,,,99999,99999,99999,99999,99999,99999,99999,99999,99999,99999,99999,99999
7:13:19,1510782660,2017-11-15T21:51:06,0.770,335.1,16.96,14.48,18.67,831.100,2076.710,119.266670,20.53,2.4919,363,23712,1.91942,4.06,51526,,,,,,,,,,,,,,,,,,99999,99999,99999,99999,99999,99999,99999,99999,99999,99999,99999,99999
7:13:49,1510782690,2017-11-15T21:51:36,0.773,335.5,16.95,14.48,18.63,831.100,2076.710,122.116669,20.71,2.4920,363,23712,1.92699,4.06,51522,,,,,,,,,,,,,,,,,,99999,99999,99999,99999,99999,99999,99999,99999,99999,99999,99999,99999
7:14:19,1510782720,2017-11-15T21:52:06,0.778,335.9,16.95,14.46,18.66,831.130,2076.710,119.566666,20.74,2.4920,363,23711,1.93790,4.06,51518,,,,,,,,,,,,,,,,,,99999,99999,99999,99999,99999,99999,99999,99999,99999,99999,99999,99999
7:14:49,1510782750,2017-11-15T21:52:36,0.774,336.3,16.92,14.43,18.63,831.110,2076.650,118.699997,20.67,2.4922,363,23710,1.92789,4.06,51514,,,,,,,,,,,,,,,,,,99999,99999,99999,99999,99999,99999,99999,99999,99999,99999,99999,99999
7:15:19,1510782780,2017-11-15T21:53:06,0.775,336.7,16.91,14.42,18.63,831.080,2076.580,119.099998,20.24,2.4922,363,23711,1.93153,4.06,51510,,,,,,,,,,,,,,,,,,99999,99999,99999,99999,99999,99999,99999,99999,99999,99999,99999,99999
7:15:49,1510782810,2017-11-15T21:53:36,0.770,337.1,16.90,14.39,18.58,831.160,2076.580,120.150002,20.62,2.4923,363,23709,1.91881,4.06,51506,,,,,,,,,,,,,,,,,,99999,99999,99999,99999,99999,99999,99999,99999,99999,99999,99999,99999
7:16:19,1510782840,2017-11-15T21:54:06,0.775,337.4,16.87,14.37,18.58,831.040,2076.420,120.083336,21.16,2.4923,363,23708,1.93062,4.06,51502,,,,,,,,,,,,,,,,,,99999,99999,99999,99999,99999,99999,99999,99999,99999,99999,99999,99999
7:16:49,1510782870,2017-11-15T21:54:36,0.775,337.8,16.86,14.38,18.56,831.100,2076.350,120.199997,20.65,2.4924,363,23708,1.93183,4.06,51498,,,,,,,,,,,,,,,,,,99999,99999,99999,99999,99999,99999,99999,99999,99999,99999,99999,99999
7:17:19,1510782900,2017-11-15T21:55:06,0.771,338.2,16.84,14.35,18.52,831.100,2076.290,122.716667,20.77,2.4925,363,23707,1.92244,4.06,51494,,,,,,,,,,,,,,,,,,99999,99999,99999,99999,99999,99999,99999,99999,99999,99999,99999,99999
7:17:49,1510782930,2017-11-15T21:55:36,0.769,338.6,16.84,14.35,18.52,831.070,2076.290,119.583336,21.25,2.4924,363,23705,1.91791,4.06,51490,,,,,,,,,,,,,,,,,,99999,99999,99999,99999,99999,99999,99999,99999,99999,99999,99999,99999
7:18:19,1510782960,2017-11-15T21:56:06,0.771,339.0,16.83,14.33,18.51,831.130,2076.290,118.133331,21.58,2.4925,363,23707,1.92093,4.06,51486,,,,,,,,,,,,,,,,,,99999,99999,99999,99999,99999,99999,99999,99999,99999,99999,99999,99999
7:18:49,1510782990,2017-11-15T21:56:36,0.776,339.4,16.82,14.35,18.52,831.130,2076.250,120.816666,21.82,2.4925,363,23705,1.93456,4.06,51482,,,,,,,,,,,,,,,,,,99999,99999,99999,99999,99999,99999,99999,99999,99999,99999,99999,99999
7:19:19,1510783020,2017-11-15T21:57:06,0.776,339.8,16.80,14.32,18.50,831.080,2076.190,120.583336,21.07,2.4927,363,23708,1.93396,4.06,51478,,,,,,,,,,,,,,,,,,99999,99999,99999,99999,99999,99999,99999,99999,99999,99999,99999,99999
7:19:49,1510783050,2017-11-15T21:57:36,0.770,340.2,16.80,14.34,18.48,831.110,2076.190,119.199997,21.42,2.4926,363,23709,1.91881,4.06,51474,,,,,,,,,,,,,,,,,,99999,99999,99999,99999,99999,99999,99999,99999,99999,99999,99999,99999
7:20:19,1510783080,2017-11-15T21:58:06,0.769,340.5,16.80,14.32,18.50,831.140,2076.190,120.666664,20.23,2.4927,363,23709,1.91700,4.06,51470,,,,,,,,,,,,,,,,,,99999,99999,99999,99999,99999,99999,99999,99999,99999,99999,99999,99999
7:20:49,1510783110,2017-11-15T21:58:36,0.775,340.9,16.79,14.31,18.48,831.160,2076.190,118.300003,21.18,2.4927,363,23707,1.93244,4.06,51466,,,,,,,,,,,,,,,,,,99999,99999,99999,99999,99999,99999,99999,99999,99999,99999,99999,99999
7:21:19,1510783140,2017-11-15T21:59:06,0.771,341.3,16.77,14.30,18.47,831.090,2076.120,118.000000,21.38,2.4928,363,23705,1.92093,4.06,51462,,,,,,,,,,,,,,,,,,99999,99999,99999,99999,99999,99999,99999,99999,99999,99999,99999,99999
7:21:49,1510783170,2017-11-15T21:59:36,0.771,341.7,16.75,14.27,18.48,831.090,2076.060,120.400002,20.46,2.4930,363,23704,1.92214,4.06,51458,,,,,,,,,,,,,,,,,,99999,99999,99999,99999,99999,99999,99999,99999,99999,99999,99999,99999
7:22:19,1510783200,2017-11-15T22:00:06,0.769,342.1,16.74,14.27,18.43,831.130,2075.960,118.349998,20.65,2.4929,363,23704,1.91761,4.06,51454,,,,,,,,,,,,,,,,,,99999,99999,99999,99999,99999,99999,99999,99999,99999,99999,99999,99999
7:22:49,1510783230,2017-11-15T22:00:36,0.774,342.5,16.74,14.25,18.42,831.210,2075.960,119.316666,20.90,2.4929,363,23705,1.93062,4.06,51450,,,,,,,,,,,,,,,,,,99999,99999,99999,99999,99999,99999,99999,99999,99999,99999,99999,99999
7:23:19,1510783260,2017-11-15T22:01:06,0.774,342.9,16.72,14.24,18.40,831.160,2075.900,120.300003,21.22,2.4930,363,23705,1.93032,4.06,51446,,,,,,,,,,,,,,,,,,99999,99999,99999,99999,99999,99999,99999,99999,99999,99999,99999,99999
7:23:49,1510783290,2017-11-15T22:01:36,0.776,343.2,16.71,14.23,18.36,831.130,2075.830,120.816666,20.86,2.4930,363,23704,1.93335,4.06,51442,,,,,,,,,,,,,,,,,,99999,99999,99999,99999,99999,99999,99999,99999,99999,99999,99999,99999
7:24:19,1510783320,2017-11-15T22:02:06,0.771,343.6,16.70,14.24,18.42,831.240,2075.830,119.283333,21.03,2.4931,363,23704,1.92244,4.06,51438,,,,,,,,,,,,,,,,,,99999,99999,99999,99999,99999,99999,99999,99999,99999,99999,99999,99999
7:24:49,1510783350,2017-11-15T22:02:36,0.773,344.0,16.70,14.24,18.38,831.210,2075.830,119.516670,21.13,2.4931,363,23703,1.92729,4.06,51434,,,,,,,,,,,,,,,,,,99999,99999,99999,99999,99999,99999,99999,99999,99999,99999,99999,99999
7:25:19,1510783380,2017-11-15T22:03:06,0.769,344.4,16.70,14.24,18.38,831.270,2075.830,119.583336,21.27,2.4931,363,23704,1.91791,4.06,51429,,,,,,,,,,,,,,,,,,99999,99999,99999,99999,99999,99999,99999,99999,99999,99999,99999,99999
7:25:49,1510783410,2017-11-15T22:03:36,0.772,344.8,16.69,14.24,18.36,831.210,2075.790,120.216667,21.30,2.4931,363,23706,1.92577,4.06,51425,,,,,,,,,,,,,,,,,,99999,99999,99999,99999,99999,99999,99999,99999,99999,99999,99999,99999
7:26:19,1510783440,2017-11-15T22:04:06,0.770,345.2,16.69,14.26,18.33,831.270,2075.790,118.866669,22.01,2.4931,363,23705,1.91912,4.06,51421,,,,,,,,,,,,,,,,,,99999,99999,99999,99999,99999,99999,99999,99999,99999,99999,99999,99999
7:26:49,1510783470,2017-11-15T22:04:36,0.773,345.6,16.70,14.27,18.38,831.240,2075.830,119.550003,23.01,2.4929,363,23705,1.92699,4.06,51417,,,,,,,,,,,,,,,,,,99999,99999,99999,99999,99999,99999,99999,99999,99999,99999,99999,99999
7:27:19,1510783500,2017-11-15T22:05:06,0.772,345.9,16.69,14.27,18.35,831.190,2075.790,120.266670,22.47,2.4930,363,23704,1.92426,4.06,51413,,,,,,,,,,,,,,,,,,99999,99999,99999,99999,99999,99999,99999,99999,99999,99999,99999,99999
7:27:49,1510783530,2017-11-15T22:05:36,0.774,346.3,16.70,14.27,18.36,831.210,2075.830,121.666664,21.48,2.4931,363,23705,1.92910,4.06,51409,,,,,,,,,,,,,,,,,,99999,99999,99999,99999,99999,99999,99999,99999,99999,99999,99999,99999
7:28:19,1510783560,2017-11-15T22:06:06,0.770,346.7,16.69,14.28,18.33,831.290,2075.790,118.266670,22.37,2.4930,363,23703,1.92002,4.06,51405,,,,,,,,,,,,,,,,,,99999,99999,99999,99999,99999,99999,99999,99999,99999,99999,99999,99999
7:28:49,1510783590,2017-11-15T22:06:36,0.772,347.1,16.69,14.29,18.35,831.270,2075.790,119.033333,21.05,2.4931,363,23704,1.92456,4.06,51401,,,,,,,,,,,,,,,,,,99999,99999,99999,99999,99999,99999,99999,99999,99999,99999,99999,99999
7:29:19,1510783620,2017-11-15T22:07:06,0.770,347.5,16.69,14.27,18.33,831.320,2075.790,119.000000,20.73,2.4932,363,23701,1.91881,4.06,51397,,,,,,,,,,,,,,,,,,99999,99999,99999,99999,99999,99999,99999,99999,99999,99999,99999,99999
7:29:49,1510783650,2017-11-15T22:07:36,0.776,347.9,16.68,14.24,18.30,831.220,2075.790,120.433334,20.41,2.4933,363,23704,1.93365,4.06,51393,,,,,,,,,,,,,,,,,,99999,99999,99999,99999,99999,99999,99999,99999,99999,99999,99999,99999
7:30:19,1510783680,2017-11-15T22:08:06,0.770,348.3,16.66,14.22,18.33,831.270,2075.730,118.866669,20.79,2.4934,363,23704,1.91942,4.06,51389,,,,,,,,,,,,,,,,,,99999,99999,99999,99999,99999,99999,99999,99999,99999,99999,99999,99999
7:30:49,1510783710,2017-11-15T22:08:36,0.774,348.6,16.65,14.20,18.33,831.270,2075.670,118.966667,20.90,2.4934,363,23702,1.93032,4.06,51384,,,,,,,,,,,,,,,,,,99999,99999,99999,99999,99999,99999,99999,99999,99999,99999,99999,99999
7:31:19,1510783740,2017-11-15T22:09:06,0.770,349.0,16.65,14.18,18.30,831.330,2075.670,119.133331,21.44,2.4933,363,23701,1.92002,4.06,51380,,,,,,,,,,,,,,,,,,99999,99999,99999,99999,99999,99999,99999,99999,99999,99999,99999,99999
7:31:49,1510783770,2017-11-15T22:09:36,0.773,349.4,16.63,14.17,18.32,831.260,2075.600,120.250000,20.66,2.4935,363,23700,1.92819,4.06,51376,,,,,,,,,,,,,,,,,,99999,99999,99999,99999,99999,99999,99999,99999,99999,99999,99999,99999
7:32:19,1510783800,2017-11-15T22:10:06,0.773,349.8,16.61,14.16,18.30,831.230,2075.500,122.500000,20.32,2.4936,363,23700,1.92850,4.06,51372,,,,,,,,,,,,,,,,,,99999,99999,99999,99999,99999,99999,99999,99999,99999,99999,99999,99999
7:32:49,1510783830,2017-11-15T22:10:36,0.772,350.2,16.60,14.15,18.28,831.290,2075.500,119.533333,20.49,2.4936,363,23700,1.92456,4.06,51368,,,,,,,,,,,,,,,,,,99999,99999,99999,99999,99999,99999,99999,99999,99999,99999,99999,99999
7:33:19,1510783860,2017-11-15T22:11:06,0.774,350.6,16.59,14.12,18.25,831.210,2075.430,120.833336,20.62,2.4936,363,23699,1.93092,4.06,51363,,,,,,,,,,,,,,,,,,99999,99999,99999,99999,99999,99999,99999,99999,99999,99999,99999,99999
7:33:49,1510783890,2017-11-15T22:11:36,0.775,351.0,16.57,14.08,18.24,831.240,2075.370,118.300003,21.30,2.4937,363,23700,1.93365,4.06,51359,,,,,,,,,,,,,,,,,,99999,99999,99999,99999,99999,99999,99999,99999,99999,99999,99999,99999
7:34:19,1510783920,2017-11-15T22:12:06,0.774,351.3,16.53,14.06,18.20,831.140,2075.270,120.533333,21.00,2.4939,363,23699,1.93092,4.06,51355,,,,,,,,,,,,,,,,,,99999,99999,99999,99999,99999,99999,99999,99999,99999,99999,99999,99999
7:34:49,1510783950,2017-11-15T22:12:36,0.772,351.7,16.52,14.04,18.20,831.200,2075.200,120.233330,21.00,2.4939,363,23699,1.92456,4.06,51351,,,,,,,,,,,,,,,,,,99999,99999,99999,99999,99999,99999,99999,99999,99999,99999,99999,99999
7:35:19,1510783980,2017-11-15T22:13:06,0.775,352.1,16.48,14.00,18.16,831.130,2075.040,120.083336,21.39,2.4940,363,23696,1.93183,4.06,51346,,,,,,,,,,,,,,,,,,99999,99999,99999,99999,99999,99999,99999,99999,99999,99999,99999,99999
7:35:49,1510784010,2017-11-15T22:13:36,0.771,352.5,16.46,13.98,18.14,831.110,2074.980,118.416664,21.59,2.4941,363,23695,1.92305,4.06,51342,,,,,,,,,,,,,,,,,,99999,99999,99999,99999,99999,99999,99999,99999,99999,99999,99999,99999
7:36:19,1510784040,2017-11-15T22:14:06,0.774,352.9,16.44,13.96,18.13,831.140,2074.920,121.366669,21.83,2.4942,363,23695,1.92971,4.06,51338,,,,,,,,,,,,,,,,,,99999,99999,99999,99999,99999,99999,99999,99999,99999,99999,99999,99999
7:36:49,1510784070,2017-11-15T22:14:36,0.770,353.3,16.42,13.93,18.09,831.150,2074.870,118.833336,21.80,2.4943,363,23693,1.91942,4.06,51334,,,,,,,,,,,,,,,,,,99999,99999,99999,99999,99999,99999,99999,99999,99999,99999,99999,99999
7:37:19,1510784100,2017-11-15T22:15:06,0.772,353.7,16.40,13.92,18.09,831.230,2074.810,119.650002,21.70,2.4944,363,23695,1.92486,4.06,51329,,,,,,,,,,,,,,,,,,99999,99999,99999,99999,99999,99999,99999,99999,99999,99999,99999,99999
7:37:49,1510784130,2017-11-15T22:15:36,0.770,354.0,16.38,13.88,18.05,831.150,2074.750,119.766670,21.13,2.4946,363,23693,1.92033,4.06,51325,,,,,,,,,,,,,,,,,,99999,99999,99999,99999,99999,99999,99999,99999,99999,99999,99999,99999
7:38:19,1510784160,2017-11-15T22:16:06,0.773,354.4,16.36,13.88,18.06,831.160,2074.680,119.466667,21.71,2.4946,363,23692,1.92759,4.06,51321,,,,,,,,,,,,,,,,,,99999,99999,99999,99999,99999,99999,99999,99999,99999,99999,99999,99999
7:38:49,1510784190,2017-11-15T22:16:36,0.767,354.8,16.33,13.86,17.97,831.130,2074.520,117.883331,21.80,2.4947,363,23691,1.91368,4.06,51317,,,,,,,,,,,,,,,,,,99999,99999,99999,99999,99999,99999,99999,99999,99999,99999,99999,99999
7:39:19,1510784220,2017-11-15T22:17:06,0.771,355.2,16.30,13.86,18.00,831.100,2074.410,119.183334,21.47,2.4948,363,23693,1.92335,4.06,51312,,,,,,,,,,,,,,,,,,99999,99999,99999,99999,99999,99999,99999,99999,99999,99999,99999,99999
7:39:49,1510784250,2017-11-15T22:17:36,0.767,355.6,16.28,13.82,18.00,831.200,2074.410,117.516670,22.52,2.4949,363,23691,1.91368,4.06,51308,,,,,,,,,,,,,,,,,,99999,99999,99999,99999,99999,99999,99999,99999,99999,99999,99999,99999
7:40:19,1510784280,2017-11-15T22:18:06,0.771,356.0,16.27,13.81,17.94,831.180,2074.350,118.733330,21.40,2.4950,363,23692,1.92456,4.06,51304,,,,,,,,,,,,,,,,,,99999,99999,99999,99999,99999,99999,99999,99999,99999,99999,99999,99999
7:40:49,1510784310,2017-11-15T22:18:36,0.767,356.4,16.24,13.77,17.93,831.210,2074.290,119.983330,21.03,2.4953,363,23687,1.91428,4.06,51300,,,,,,,,,,,,,,,,,,99999,99999,99999,99999,99999,99999,99999,99999,99999,99999,99999,99999
7:41:19,1510784340,2017-11-15T22:19:06,0.770,356.7,16.23,13.77,17.89,831.160,2074.230,120.316666,21.52,2.4952,363,23688,1.92184,4.05,51295,,,,,,,,,,,,,,,,,,99999,99999,99999,99999,99999,99999,99999,99999,99999,99999,99999,99999
7:41:49,1510784370,2017-11-15T22:19:36,0.769,357.1,16.19,13.75,17.86,831.170,2074.060,118.400002,21.56,2.4954,363,23687,1.91851,4.05,51291,,,,,,,,,,,,,,,,,,99999,99999,99999,99999,99999,99999,99999,99999,99999,99999,99999,99999
7:42:19,1510784400,2017-11-15T22:20:06,0.767,357.5,16.17,13.73,17.85,831.150,2074.000,118.283333,21.79,2.4955,363,23688,1.91399,4.05,51287,,,,,,,,,,,,,,,,,,99999,99999,99999,99999,99999,99999,99999,99999,99999,99999,99999,99999
7:42:49,1510784430,2017-11-15T22:20:36,0.772,357.9,16.15,13.71,17.82,831.180,2073.950,120.550003,21.57,2.4956,363,23688,1.92699,4.05,51283,,,,,,,,,,,,,,,,,,99999,99999,99999,99999,99999,99999,99999,99999,99999,99999,99999,99999
7:43:19,1510784460,2017-11-15T22:21:06,0.769,358.3,16.12,13.71,17.80,831.110,2073.830,117.116669,21.75,2.4957,363,23685,1.91881,4.05,51278,,,,,,,,,,,,,,,,,,99999,99999,99999,99999,99999,99999,99999,99999,99999,99999,99999,99999
7:43:49,1510784490,2017-11-15T22:21:36,0.768,358.7,16.11,13.68,17.78,831.160,2073.830,118.583336,21.38,2.4958,363,23686,1.91700,4.05,51274,,,,,,,,,,,,,,,,,,99999,99999,99999,99999,99999,99999,99999,99999,99999,99999,99999,99999
7:44:19,1510784520,2017-11-15T22:22:06,0.771,359.0,16.09,13.66,17.70,831.190,2073.760,117.983330,21.65,2.4959,363,23685,1.92486,4.05,51270,,,,,,,,,,,,,,,,,,99999,99999,99999,99999,99999,99999,99999,99999,99999,99999,99999,99999
7:44:49,1510784550,2017-11-15T22:22:36,0.772,359.4,16.09,13.66,17.72,831.190,2073.760,119.966667,21.95,2.4959,363,23685,1.92668,4.05,51266,,,,,,,,,,,,,,,,,,99999,99999,99999,99999,99999,99999,99999,99999,99999,99999,99999,99999
7:45:19,1510784580,2017-11-15T22:23:06,0.771,359.8,16.06,13.65,17.75,831.200,2073.600,119.216667,21.86,2.4959,363,23685,1.92517,4.05,51261,,,,,,,,,,,,,,,,,,99999,99999,99999,99999,99999,99999,99999,99999,99999,99999,99999,99999
7:45:49,1510784610,2017-11-15T22:23:36,0.772,360.2,16.05,13.65,17.72,831.150,2073.530,119.300003,22.44,2.4959,363,23685,1.92607,4.05,51257,,,,,,,,,,,,,,,,,,99999,99999,99999,99999,99999,99999,99999,99999,99999,99999,99999,99999
7:46:19,1510784640,2017-11-15T22:24:06,0.770,360.6,16.05,13.66,17.75,831.180,2073.530,119.216667,22.89,2.4959,363,23684,1.92063,4.05,51253,,,,,,,,,,,,,,,,,,99999,99999,99999,99999,99999,99999,99999,99999,99999,99999,99999,99999
7:46:49,1510784670,2017-11-15T22:24:36,0.766,361.0,16.02,13.64,17.69,831.130,2073.490,118.349998,22.68,2.4961,363,23686,1.91217,4.05,51249,,,,,,,,,,,,,,,,,,99999,99999,99999,99999,99999,99999,99999,99999,99999,99999,99999,99999
7:47:19,1510784700,2017-11-15T22:25:06,0.768,361.4,16.02,13.66,17.70,831.180,2073.490,118.449997,21.67,2.4962,363,23687,1.91670,4.05,51245,,,,,,,,,,,,,,,,,,99999,99999,99999,99999,99999,99999,99999,99999,99999,99999,99999,99999
7:47:49,1510784730,2017-11-15T22:25:36,0.771,361.7,16.00,13.65,17.70,831.080,2073.430,119.916664,22.41,2.4962,363,23684,1.92365,4.05,51240,,,,,,,,,,,,,,,,,,99999,99999,99999,99999,99999,99999,99999,99999,99999,99999,99999,99999
7:48:19,1510784760,2017-11-15T22:26:06,0.766,362.1,16.00,13.64,17.69,831.160,2073.430,118.166664,22.74,2.4962,363,23686,1.91127,4.05,51236,,,,,,,,,,,,,,,,,,99999,99999,99999,99999,99999,99999,99999,99999,99999,99999,99999,99999
7:48:49,1510784790,2017-11-15T22:26:36,0.769,362.5,16.00,13.63,17.67,831.110,2073.430,120.333336,22.77,2.4962,363,23684,1.92033,4.05,51232,,,,,,,,,,,,,,,,,,99999,99999,99999,99999,99999,99999,99999,99999,99999,99999,99999,99999
7:49:19,1510784820,2017-11-15T22:27:06,0.771,362.9,15.99,13.64,17.66,831.110,2073.370,119.500000,22.43,2.4962,363,23684,1.92456,4.05,51228,,,,,,,,,,,,,,,,,,99999,99999,99999,99999,99999,99999,99999,99999,99999,99999,99999,99999
7:49:49,1510784850,2017-11-15T22:27:36,0.766,363.3,15.98,13.64,17.66,831.170,2073.370,117.866669,23.40,2.4962,363,23685,1.91278,4.05,51224,,,,,,,,,,,,,,,,,,99999,99999,99999,99999,99999,99999,99999,99999,99999,99999,99999,99999
7:50:19,1510784880,2017-11-15T22:28:06,0.772,363.7,15.97,13.64,17.64,831.170,2073.310,117.733330,22.96,2.4963,363,23685,1.92699,4.05,51219,,,,,,,,,,,,,,,,,,99999,99999,99999,99999,99999,99999,99999,99999,99999,99999,99999,99999
7:50:49,1510784910,2017-11-15T22:28:36,0.772,364.0,15.97,13.64,17.64,831.120,2073.310,119.833336,22.14,2.4964,363,23682,1.92729,4.05,51215,,,,,,,,,,,,,,,,,,99999,99999,99999,99999,99999,99999,99999,99999,99999,99999,99999,99999
7:51:19,1510784940,2017-11-15T22:29:06,0.765,364.4,15.97,13.63,17.63,831.120,2073.310,118.250000,22.96,2.4963,363,23683,1.91067,4.05,51211,,,,,,,,,,,,,,,,,,99999,99999,99999,99999,99999,99999,99999,99999,99999,99999,99999,99999
7:51:49,1510784970,2017-11-15T22:29:36,0.772,364.8,15.97,13.63,17.61,831.120,2073.310,119.866669,23.08,2.4963,363,23687,1.92607,4.05,51207,,,,,,,,,,,,,,,,,,99999,99999,99999,99999,99999,99999,99999,99999,99999,99999,99999,99999
7:52:19,1510785000,2017-11-15T22:30:06,0.767,365.2,15.97,13.63,17.63,831.220,2073.310,116.900002,22.52,2.4963,363,23686,1.91368,4.05,51203,,,,,,,,,,,,,,,,,,99999,99999,99999,99999,99999,99999,99999,99999,99999,99999,99999,99999
7:52:49,1510785030,2017-11-15T22:30:36,0.768,365.6,15.95,13.64,17.63,831.150,2073.200,120.066666,22.93,2.4963,363,23684,1.91610,4.05,51199,,,,,,,,,,,,,,,,,,99999,99999,99999,99999,99999,99999,99999,99999,99999,99999,99999,99999
7:53:19,1510785060,2017-11-15T22:31:06,0.772,366.0,15.96,13.64,17.63,831.140,2073.310,119.883331,22.79,2.4964,363,23684,1.92668,4.05,51194,,,,,,,,,,,,,,,,,,99999,99999,99999,99999,99999,99999,99999,99999,99999,99999,99999,99999
7:53:49,1510785090,2017-11-15T22:31:36,0.772,366.4,15.95,13.62,17.58,831.120,2073.200,119.666664,21.76,2.4964,363,23685,1.92699,4.05,51190,,,,,,,,,,,,,,,,,,99999,99999,99999,99999,99999,99999,99999,99999,99999,99999,99999,99999
7:54:19,1510785120,2017-11-15T22:32:06,0.765,366.7,15.93,13.61,17.58,831.150,2073.140,117.666664,21.97,2.4965,363,23686,1.90946,4.05,51186,,,,,,,,,,,,,,,,,,99999,99999,99999,99999,99999,99999,99999,99999,99999,99999,99999,99999
7:54:49,1510785150,2017-11-15T22:32:36,0.768,367.1,15.93,13.61,17.63,831.150,2073.140,117.550003,22.05,2.4965,363,23683,1.91640,4.05,51182,,,,,,,,,,,,,,,,,,99999,99999,99999,99999,99999,99999,99999,99999,99999,99999,99999,99999
7:55:19,1510785180,2017-11-15T22:33:06,0.772,367.5,15.93,13.62,17.56,831.200,2073.140,119.300003,22.55,2.4965,363,23688,1.92729,4.05,51178,,,,,,,,,,,,,,,,,,99999,99999,99999,99999,99999,99999,99999,99999,99999,99999,99999,99999
7:55:49,1510785210,2017-11-15T22:33:36,0.772,367.9,15.93,13.61,17.58,831.180,2073.140,119.150002,21.75,2.4965,363,23685,1.92699,4.05,51174,,,,,,,,,,,,,,,,,,99999,99999,99999,99999,99999,99999,99999,99999,99999,99999,99999,99999
7:56:19,1510785240,2017-11-15T22:34:06,0.771,368.3,15.92,13.62,17.61,831.200,2073.140,118.766670,22.26,2.4966,363,23686,1.92486,4.05,51169,,,,,,,,,,,,,,,,,,99999,99999,99999,99999,99999,99999,99999,99999,99999,99999,99999,99999
7:56:49,1510785270,2017-11-15T22:34:36,0.770,368.7,15.92,13.62,17.58,831.200,2073.140,119.283333,22.33,2.4966,363,23684,1.92244,4.05,51165,,,,,,,,,,,,,,,,,,99999,99999,99999,99999,99999,99999,99999,99999,99999,99999,99999,99999
7:57:19,1510785300,2017-11-15T22:35:06,0.765,369.0,15.92,13.60,17.58,831.180,2073.140,119.266670,22.89,2.4965,363,23683,1.91036,4.05,51161,,,,,,,,,,,,,,,,,,99999,99999,99999,99999,99999,99999,99999,99999,99999,99999,99999,99999
7:57:49,1510785330,2017-11-15T22:35:36,0.769,369.4,15.92,13.61,17.56,831.180,2073.140,117.699997,21.82,2.4966,363,23685,1.91881,4.05,51157,,,,,,,,,,,,,,,,,,99999,99999,99999,99999,99999,99999,99999,99999,99999,99999,99999,99999
7:58:19,1510785360,2017-11-15T22:36:06,0.766,369.8,15.92,13.60,17.59,831.200,2073.140,120.233330,21.79,2.4966,363,23682,1.91278,4.05,51153,,,,,,,,,,,,,,,,,,99999,99999,99999,99999,99999,99999,99999,99999,99999,99999,99999,99999
7:58:49,1510785390,2017-11-15T22:36:36,0.769,370.2,15.92,13.60,17.56,831.100,2073.140,118.783333,22.34,2.4966,363,23682,1.92063,4.05,51148,,,,,,,,,,,,,,,,,,99999,99999,99999,99999,99999,99999,99999,99999,99999,99999,99999,99999
7:59:19,1510785420,2017-11-15T22:37:06,0.772,370.6,15.92,13.57,17.55,831.100,2073.140,119.000000,23.13,2.4965,363,23684,1.92699,4.05,51144,,,,,,,,,,,,,,,,,,99999,99999,99999,99999,99999,99999,99999,99999,99999,99999,99999,99999
7:59:49,1510785450,2017-11-15T22:37:36,0.767,371.0,15.91,13.57,17.55,831.130,2073.100,119.166664,22.89,2.4966,363,23684,1.91579,4.05,51140,,,,,,,,,,,,,,,,,,99999,99999,99999,99999,99999,99999,99999,99999,99999,99999,99999,99999
8:00:19,1510785480,2017-11-15T22:38:06,0.765,371.3,15.92,13.58,17.55,831.200,2073.140,116.900002,22.22,2.4966,363,23681,1.91097,4.05,51136,,,,,,,,,,,,,,,,,,99999,99999,99999,99999,99999,99999,99999,99999,99999,99999,99999,99999
8:00:49,1510785510,2017-11-15T22:38:36,0.772,371.7,15.92,13.59,17.55,831.120,2073.140,119.699997,22.10,2.4966,363,23684,1.92759,4.05,51132,,,,,,,,,,,,,,,,,,99999,99999,99999,99999,99999,99999,99999,99999,99999,99999,99999,99999
8:01:19,1510785540,2017-11-15T22:39:06,0.768,372.1,15.91,13.58,17.56,831.100,2073.100,118.000000,21.63,2.4967,363,23683,1.91640,4.05,51127,,,,,,,,,,,,,,,,,,99999,99999,99999,99999,99999,99999,99999,99999,99999,99999,99999,99999
8:01:49,1510785570,2017-11-15T22:39:36,0.771,372.5,15.90,13.58,17.55,831.130,2073.100,119.183334,21.59,2.4968,363,23683,1.92395,4.05,51123,,,,,,,,,,,,,,,,,,99999,99999,99999,99999,99999,99999,99999,99999,99999,99999,99999,99999
8:02:19,1510785600,2017-11-15T22:40:06,0.773,372.9,15.89,13.60,17.56,831.100,2073.030,119.900002,22.15,2.4967,363,23683,1.92880,4.05,51119,,,,,,,,,,,,,,,,,,99999,99999,99999,99999,99999,99999,99999,99999,99999,99999,99999,99999
8:02:49,1510785630,2017-11-15T22:40:36,0.771,373.3,15.88,13.57,17.55,831.050,2073.030,119.949997,22.56,2.4968,363,23683,1.92607,4.05,51115,,,,,,,,,,,,,,,,,,99999,99999,99999,99999,99999,99999,99999,99999,99999,99999,99999,99999
8:03:19,1510785660,2017-11-15T22:41:06,0.773,373.7,15.90,13.57,17.55,831.070,2073.100,118.983330,22.67,2.4967,363,23686,1.92880,4.05,51110,,,,,,,,,,,,,,,,,,99999,99999,99999,99999,99999,99999,99999,99999,99999,99999,99999,99999
8:03:49,1510785690,2017-11-15T22:41:36,0.772,374.0,15.89,13.60,17.56,831.020,2073.030,119.250000,22.86,2.4967,363,23683,1.92759,4.05,51106,,,,,,,,,,,,,,,,,,99999,99999,99999,99999,99999,99999,99999,99999,99999,99999,99999,99999
8:04:19,1510785720,2017-11-15T22:42:06,0.773,374.4,15.88,13.57,17.55,831.020,2073.030,119.266670,22.33,2.4968,363,23683,1.92880,4.05,51102,,,,,,,,,,,,,,,,,,99999,99999,99999,99999,99999,99999,99999,99999,99999,99999,99999,99999
8:04:49,1510785750,2017-11-15T22:42:36,0.766,374.8,15.87,13.56,17.51,830.980,2072.970,117.250000,22.27,2.4968,363,23684,1.91278,4.05,51098,,,,,,,,,,,,,,,,,,99999,99999,99999,99999,99999,99999,99999,99999,99999,99999,99999,99999
8:05:19,1510785780,2017-11-15T22:43:06,0.772,375.2,15.88,13.55,17.56,831.050,2073.030,119.716667,22.99,2.4967,363,23684,1.92729,4.05,51093,,,,,,,,,,,,,,,,,,99999,99999,99999,99999,99999,99999,99999,99999,99999,99999,99999,99999
8:05:49,1510785810,2017-11-15T22:43:36,0.768,375.6,15.87,13.55,17.53,831.030,2072.970,118.666664,22.28,2.4968,363,23681,1.91821,4.05,51089,,,,,,,,,,,,,,,,,,99999,99999,99999,99999,99999,99999,99999,99999,99999,99999,99999,99999
8:06:19,1510785840,2017-11-15T22:44:06,0.769,376.0,15.85,13.53,17.51,831.060,2072.910,118.566666,22.56,2.4969,363,23682,1.91912,4.05,51085,,,,,,,,,,,,,,,,,,99999,99999,99999,99999,99999,99999,99999,99999,99999,99999,99999,99999
8:06:49,1510785870,2017-11-15T22:44:36,0.770,376.3,15.85,13.54,17.50,831.040,2072.910,118.199997,22.53,2.4969,363,23682,1.92305,4.05,51081,,,,,,,,,,,,,,,,,,99999,99999,99999,99999,99999,99999,99999,99999,99999,99999,99999,99999
8:07:19,1510785900,2017-11-15T22:45:06,0.767,376.7,15.83,13.53,17.50,831.040,2072.850,118.016670,22.77,2.4970,363,23682,1.91519,4.05,51076,,,,,,,,,,,,,,,,,,99999,99999,99999,99999,99999,99999,99999,99999,99999,99999,99999,99999
8:07:49,1510785930,2017-11-15T22:45:36,0.767,377.1,15.82,13.50,17.50,830.940,2072.740,119.716667,22.11,2.4970,363,23681,1.91428,4.05,51072,,,,,,,,,,,,,,,,,,99999,99999,99999,99999,99999,99999,99999,99999,99999,99999,99999,99999
8:08:19,1510785960,2017-11-15T22:46:06,0.771,377.5,15.81,13.49,17.50,831.040,2072.740,118.000000,21.71,2.4971,363,23683,1.92426,4.05,51068,,,,,,,,,,,,,,,,,,99999,99999,99999,99999,99999,99999,99999,99999,99999,99999,99999,99999
8:08:49,1510785990,2017-11-15T22:46:36,0.767,377.9,15.80,13.48,17.43,830.970,2072.680,116.966667,21.96,2.4971,363,23681,1.91610,4.05,51063,,,,,,,,,,,,,,,,,,99999,99999,99999,99999,99999,99999,99999,99999,99999,99999,99999,99999
8:09:19,1510786020,2017-11-15T22:47:06,0.767,378.3,15.79,13.47,17.43,830.990,2072.680,119.483330,22.65,2.4971,363,23681,1.91519,4.05,51059,,,,,,,,,,,,,,,,,,99999,99999,99999,99999,99999,99999,99999,99999,99999,99999,99999,99999
8:09:49,1510786050,2017-11-15T22:47:36,0.766,378.6,15.78,13.45,17.43,831.080,2072.640,118.050003,22.56,2.4972,363,23681,1.91248,4.05,51055,,,,,,,,,,,,,,,,,,99999,99999,99999,99999,99999,99999,99999,99999,99999,99999,99999,99999
8:10:19,1510786080,2017-11-15T22:48:06,0.771,379.0,15.76,13.42,17.43,830.950,2072.580,119.816666,22.61,2.4973,363,23679,1.92547,4.05,51050,,,,,,,,,,,,,,,,,,99999,99999,99999,99999,99999,99999,99999,99999,99999,99999,99999,99999
8:10:49,1510786110,2017-11-15T22:48:36,0.767,379.4,15.75,13.42,17.42,831.110,2072.580,118.166664,23.32,2.4973,363,23678,1.91459,4.05,51046,,,,,,,,,,,,,,,,,,99999,99999,99999,99999,99999,99999,99999,99999,99999,99999,99999,99999
8:11:19,1510786140,2017-11-15T22:49:06,0.768,379.8,15.73,13.40,17.39,831.010,2072.510,116.400002,22.90,2.4974,363,23678,1.91730,4.05,51042,,,,,,,,,,,,,,,,,,99999,99999,99999,99999,99999,99999,99999,99999,99999,99999,99999,99999
8:11:49,1510786170,2017-11-15T22:49:36,0.772,380.2,15.72,13.39,17.39,831.040,2072.450,119.016670,22.24,2.4975,363,23677,1.92759,4.05,51037,,,,,,,,,,,,,,,,,,99999,99999,99999,99999,99999,99999,99999,99999,99999,99999,99999,99999
8:12:19,1510786200,2017-11-15T22:50:06,0.771,380.6,15.71,13.37,17.35,831.070,2072.450,118.683334,22.95,2.4975,363,23677,1.92607,4.05,51033,,,,,,,,,,,,,,,,,,99999,99999,99999,99999,99999,99999,99999,99999,99999,99999,99999,99999
8:12:49,1510786230,2017-11-15T22:50:36,0.765,381.0,15.69,13.36,17.35,830.990,2072.280,116.083336,22.67,2.4975,363,23676,1.90976,4.05,51029,,,,,,,,,,,,,,,,,,99999,99999,99999,99999,99999,99999,99999,99999,99999,99999,99999,99999
8:13:19,1510786260,2017-11-15T22:51:06,0.768,381.3,15.69,13.35,17.32,830.990,2072.280,118.550003,22.31,2.4975,363,23676,1.91912,4.05,51024,,,,,,,,,,,,,,,,,,99999,99999,99999,99999,99999,99999,99999,99999,99999,99999,99999,99999
8:13:49,1510786290,2017-11-15T22:51:36,0.767,381.7,15.67,13.34,17.31,831.050,2072.220,117.416664,22.47,2.4976,363,23678,1.91640,4.05,51020,,,,,,,,,,,,,,,,,,99999,99999,99999,99999,99999,99999,99999,99999,99999,99999,99999,99999
8:14:19,1510786320,2017-11-15T22:52:06,0.768,382.1,15.66,13.32,17.32,831.050,2072.220,118.750000,22.57,2.4977,363,23676,1.91942,4.05,51016,,,,,,,,,,,,,,,,,,99999,99999,99999,99999,99999,99999,99999,99999,99999,99999,99999,99999
8:14:49,1510786350,2017-11-15T22:52:36,0.764,382.5,15.65,13.31,17.28,831.110,2072.180,116.366669,21.80,2.4978,363,23675,1.90946,4.05,51011,,,,,,,,,,,,,,,,,,99999,99999,99999,99999,99999,99999,99999,99999,99999,99999,99999,99999
8:15:19,1510786380,2017-11-15T22:53:06,0.769,382.9,15.64,13.31,17.31,831.000,2072.180,118.983330,22.15,2.4979,363,23676,1.91972,4.05,51007,,,,,,,,,,,,,,,,,,99999,99999,99999,99999,99999,99999,99999,99999,99999,99999,99999,99999
8:15:49,1510786410,2017-11-15T22:53:36,0.769,383.3,15.63,13.30,17.25,831.010,2072.110,117.733330,22.68,2.4978,363,23678,1.92184,4.05,51003,,,,,,,,,,,,,,,,,,99999,99999,99999,99999,99999,99999,99999,99999,99999,99999,99999,99999
8:16:19,1510786440,2017-11-15T22:54:06,0.770,383.6,15.62,13.29,17.20,830.950,2072.110,119.216667,22.37,2.4980,363,23677,1.92244,4.05,50998,,,,,,,,,,,,,,,,,,99999,99999,99999,99999,99999,99999,99999,99999,99999,99999,99999,99999
8:16:49,1510786470,2017-11-15T22:54:36,0.764,384.0,15.61,13.28,17.27,830.980,2072.060,116.500000,22.39,2.4980,363,23674,1.90826,4.05,50994,,,,,,,,,,,,,,,,,,99999,99999,99999,99999,99999,99999,99999,99999,99999,99999,99999,99999
8:17:19,1510786500,2017-11-15T22:55:06,0.763,384.4,15.61,13.27,17.24,830.980,2072.060,117.233330,22.46,2.4980,363,23674,1.90705,4.05,50989,,,,,,,,,,,,,,,,,,99999,99999,99999,99999,99999,99999,99999,99999,99999,99999,99999,99999
8:17:49,1510786530,2017-11-15T22:55:36,0.771,384.8,15.59,13.26,17.20,830.940,2071.990,117.683334,22.35,2.4981,363,23674,1.92699,4.05,50985,,,,,,,,,,,,,,,,,,99999,99999,99999,99999,99999,99999,99999,99999,99999,99999,99999,99999
8:18:19,1510786560,2017-11-15T22:56:06,0.768,385.2,15.57,13.23,17.19,830.890,2071.950,117.733330,22.33,2.4982,363,23671,1.91912,4.05,50981,,,,,,,,,,,,,,,,,,99999,99999,99999,99999,99999,99999,99999,99999,99999,99999,99999,99999
8:18:49,1510786590,2017-11-15T22:56:36,0.768,385.6,15.56,13.20,17.19,830.990,2071.950,119.866669,22.52,2.4983,363,23671,1.91972,4.05,50976,,,,,,,,,,,,,,,,,,99999,99999,99999,99999,99999,99999,99999,99999,99999,99999,99999,99999
8:19:19,1510786620,2017-11-15T22:57:06,0.768,385.9,15.53,13.20,17.16,830.900,2071.760,119.416664,22.67,2.4983,363,23671,1.91912,4.05,50972,,,,,,,,,,,,,,,,,,99999,99999,99999,99999,99999,99999,99999,99999,99999,99999,99999,99999
8:19:49,1510786650,2017-11-15T22:57:36,0.766,386.3,15.52,13.17,17.14,830.900,2071.720,116.466667,22.93,2.4983,363,23670,1.91489,4.05,50968,,,,,,,,,,,,,,,,,,99999,99999,99999,99999,99999,99999,99999,99999,99999,99999,99999,99999
8:20:19,1510786680,2017-11-15T22:58:06,0.765,386.7,15.50,13.15,17.16,830.900,2071.660,116.083336,22.73,2.4984,363,23668,1.91067,4.05,50963,,,,,,,,,,,,,,,,,,99999,99999,99999,99999,99999,99999,99999,99999,99999,99999,99999,99999
8:20:49,1510786710,2017-11-15T22:58:36,0.770,387.1,15.49,13.14,17.13,830.900,2071.660,118.066666,23.48,2.4985,363,23670,1.92275,4.05,50959,,,,,,,,,,,,,,,,,,99999,99999,99999,99999,99999,99999,99999,99999,99999,99999,99999,99999
8:21:19,1510786740,2017-11-15T22:59:06,0.763,387.5,15.47,13.10,17.11,830.880,2071.590,116.250000,22.73,2.4986,363,23669,1.90524,4.05,50954,,,,,,,,,,,,,,,,,,99999,99999,99999,99999,99999,99999,99999,99999,99999,99999,99999,99999
8:21:49,1510786770,2017-11-15T22:59:36,0.763,387.9,15.45,13.08,17.09,830.910,2071.530,116.466667,22.80,2.4987,363,23668,1.90765,4.05,50950,,,,,,,,,,,,,,,,,,99999,99999,99999,99999,99999,99999,99999,99999,99999,99999,99999,99999
8:22:19,1510786800,2017-11-15T23:00:06,0.764,388.2,15.44,13.08,17.09,830.870,2071.490,115.833336,22.70,2.4988,363,23671,1.90795,4.05,50945,,,,,,,,,,,,,,,,,,99999,99999,99999,99999,99999,99999,99999,99999,99999,99999,99999,99999
8:22:49,1510786830,2017-11-15T23:00:36,0.769,388.6,15.42,13.06,17.06,830.900,2071.360,117.916664,22.88,2.4988,363,23664,1.92184,4.05,50941,,,,,,,,,,,,,,,,,,99999,99999,99999,99999,99999,99999,99999,99999,99999,99999,99999,99999
8:23:19,1510786860,2017-11-15T23:01:06,0.763,389.0,15.40,13.06,17.01,830.930,2071.320,116.883331,22.85,2.4989,363,23667,1.90645,4.05,50937,,,,,,,,,,,,,,,,,,99999,99999,99999,99999,99999,99999,99999,99999,99999,99999,99999,99999
8:23:49,1510786890,2017-11-15T23:01:36,0.766,389.4,15.39,13.02,17.00,830.870,2071.320,116.266670,22.92,2.4990,363,23667,1.91459,4.05,50932,,,,,,,,,,,,,,,,,,99999,99999,99999,99999,99999,99999,99999,99999,99999,99999,99999,99999
8:24:19,1510786920,2017-11-15T23:02:06,0.766,389.8,15.38,13.01,17.01,830.960,2071.260,117.916664,22.84,2.4990,363,23665,1.91368,4.05,50928,,,,,,,,,,,,,,,,,,99999,99999,99999,99999,99999,99999,99999,99999,99999,99999,99999,99999
8:24:49,1510786950,2017-11-15T23:02:36,0.769,390.2,15.37,13.01,17.01,830.930,2071.200,118.033333,23.01,2.4990,363,23666,1.92123,4.05,50923,,,,,,,,,,,,,,,,,,99999,99999,99999,99999,99999,99999,99999,99999,99999,99999,99999,99999
8:25:19,1510786980,2017-11-15T23:03:06,0.766,390.5,15.36,13.00,16.95,830.930,2071.200,116.083336,22.83,2.4991,363,23668,1.91549,4.05,50919,,,,,,,,,,,,,,,,,,99999,99999,99999,99999,99999,99999,99999,99999,99999,99999,99999,99999
8:25:49,1510787010,2017-11-15T23:03:36,0.764,390.9,15.34,12.97,16.95,830.910,2071.140,115.300003,23.30,2.4992,363,23669,1.91006,4.05,50914,,,,,,,,,,,,,,,,,,99999,99999,99999,99999,99999,99999,99999,99999,99999,99999,99999,99999
8:26:19,1510787040,2017-11-15T23:04:06,0.769,391.3,15.33,12.97,16.95,830.890,2071.090,117.716667,23.11,2.4992,363,23667,1.92093,4.05,50910,,,,,,,,,,,,,,,,,,99999,99999,99999,99999,99999,99999,99999,99999,99999,99999,99999,99999
8:26:49,1510787070,2017-11-15T23:04:36,0.764,391.7,15.31,12.95,16.89,830.920,2071.030,117.800003,23.18,2.4993,363,23663,1.90916,4.05,50906,,,,,,,,,,,,,,,,,,99999,99999,99999,99999,99999,99999,99999,99999,99999,99999,99999,99999
8:27:19,1510787100,2017-11-15T23:05:06,0.767,392.1,15.29,12.93,16.92,830.980,2070.910,118.816666,23.17,2.4993,363,23667,1.91730,4.05,50901,,,,,,,,,,,,,,,,,,99999,99999,99999,99999,99999,99999,99999,99999,99999,99999,99999,99999
8:27:49,1510787130,2017-11-15T23:05:36,0.766,392.5,15.26,12.90,16.87,831.010,2070.860,117.199997,23.23,2.4995,363,23664,1.91399,4.05,50897,,,,,,,,,,,,,,,,,,99999,99999,99999,99999,99999,99999,99999,99999,99999,99999,99999,99999
8:28:19,1510787160,2017-11-15T23:06:06,0.763,392.8,15.25,12.89,16.92,830.960,2070.800,115.900002,23.36,2.4995,363,23663,1.90826,4.05,50892,,,,,,,,,,,,,,,,,,99999,99999,99999,99999,99999,99999,99999,99999,99999,99999,99999,99999
8:28:49,1510787190,2017-11-15T23:06:36,0.764,393.2,15.23,12.84,16.85,831.020,2070.740,116.433334,23.47,2.4996,363,23662,1.91097,4.05,50888,,,,,,,,,,,,,,,,,,99999,99999,99999,99999,99999,99999,99999,99999,99999,99999,99999,99999
8:29:19,1510787220,2017-11-15T23:07:06,0.763,393.6,15.20,12.85,16.81,830.970,2070.640,117.466667,23.81,2.4997,363,23663,1.90795,4.05,50883,,,,,,,,,,,,,,,,,,99999,99999,99999,99999,99999,99999,99999,99999,99999,99999,99999,99999
8:29:49,1510787250,2017-11-15T23:07:36,0.769,394.0,15.18,12.80,16.82,830.980,2070.570,117.349998,23.61,2.4999,363,23662,1.92123,4.05,50879,,,,,,,,,,,,,,,,,,99999,99999,99999,99999,99999,99999,99999,99999,99999,99999,99999,99999
8:30:19,1510787280,2017-11-15T23:08:06,0.765,394.4,15.16,12.79,16.77,830.900,2070.440,115.216667,23.44,2.4999,363,23660,1.91187,4.05,50874,,,,,,,,,,,,,,,,,,99999,99999,99999,99999,99999,99999,99999,99999,99999,99999,99999,99999
8:30:49,1510787310,2017-11-15T23:08:36,0.767,394.8,15.13,12.77,16.70,830.990,2070.410,118.133331,23.83,2.5001,363,23659,1.91761,4.05,50870,,,,,,,,,,,,,,,,,,99999,99999,99999,99999,99999,99999,99999,99999,99999,99999,99999,99999
8:31:19,1510787340,2017-11-15T23:09:06,0.763,395.1,15.11,12.76,16.74,831.020,2070.340,114.783333,23.89,2.5002,363,23661,1.90675,4.04,50866,,,,,,,,,,,,,,,,,,99999,99999,99999,99999,99999,99999,99999,99999,99999,99999,99999,99999
8:31:49,1510787370,2017-11-15T23:09:36,0.761,395.5,15.10,12.71,16.70,831.020,2070.280,115.116669,23.99,2.5002,363,23659,1.90223,4.04,50861,,,,,,,,,,,,,,,,,,99999,99999,99999,99999,99999,99999,99999,99999,99999,99999,99999,99999
8:32:19,1510787400,2017-11-15T23:10:06,0.768,395.9,15.07,12.69,16.67,831.110,2070.240,117.283333,24.03,2.5004,363,23658,1.92063,4.04,50857,,,,,,,,,,,,,,,,,,99999,99999,99999,99999,99999,99999,99999,99999,99999,99999,99999,99999
8:32:49,1510787430,2017-11-15T23:10:36,0.761,396.3,15.05,12.66,16.64,831.030,2070.110,115.599998,23.70,2.5004,363,23657,1.90193,4.04,50852,,,,,,,,,,,,,,,,,,99999,99999,99999,99999,99999,99999,99999,99999,99999,99999,99999,99999
8:33:19,1510787460,2017-11-15T23:11:06,0.761,396.7,15.02,12.64,16.61,830.990,2070.010,115.800003,23.92,2.5006,363,23657,1.90344,4.04,50848,,,,,,,,,,,,,,,,,,99999,99999,99999,99999,99999,99999,99999,99999,99999,99999,99999,99999
8:33:49,1510787490,2017-11-15T23:11:36,0.765,397.0,15.00,12.62,16.58,830.940,2069.940,116.016670,24.06,2.5006,363,23655,1.91217,4.04,50843,,,,,,,,,,,,,,,,,,99999,99999,99999,99999,99999,99999,99999,99999,99999,99999,99999,99999
8:34:19,1510787520,2017-11-15T23:12:06,0.763,397.4,14.98,12.59,16.59,830.940,2069.890,117.116669,23.85,2.5008,363,23654,1.90705,4.04,50839,,,,,,,,,,,,,,,,,,99999,99999,99999,99999,99999,99999,99999,99999,99999,99999,99999,99999
8:34:49,1510787550,2017-11-15T23:12:36,0.767,397.8,14.95,12.55,16.55,830.950,2069.780,116.550003,24.04,2.5009,363,23654,1.91761,4.04,50834,,,,,,,,,,,,,,,,,,99999,99999,99999,99999,99999,99999,99999,99999,99999,99999,99999,99999
8:35:19,1510787580,2017-11-15T23:13:06,0.762,398.2,14.92,12.53,16.51,830.960,2069.720,115.199997,24.13,2.5011,363,23652,1.90645,4.04,50830,,,,,,,,,,,,,,,,,,99999,99999,99999,99999,99999,99999,99999,99999,99999,99999,99999,99999
8:35:49,1510787610,2017-11-15T23:13:36,0.761,398.6,14.90,12.52,16.50,830.990,2069.650,114.833336,24.00,2.5012,363,23652,1.90223,4.04,50825,,,,,,,,,,,,,,,,,,99999,99999,99999,99999,99999,99999,99999,99999,99999,99999,99999,99999
8:36:19,1510787640,2017-11-15T23:14:06,0.765,399.0,14.88,12.49,16.51,830.970,2069.490,115.900002,24.41,2.5011,363,23651,1.91338,4.04,50821,,,,,,,,,,,,,,,,,,99999,99999,99999,99999,99999,99999,99999,99999,99999,99999,99999,99999
8:36:49,1510787670,2017-11-15T23:14:36,0.764,399.3,14.83,12.46,16.43,830.870,2069.380,117.849998,24.31,2.5014,363,23649,1.91006,4.04,50816,,,,,,,,,,,,,,,,,,99999,99999,99999,99999,99999,99999,99999,99999,99999,99999,99999,99999
8:37:19,1510787700,2017-11-15T23:15:06,0.766,399.7,14.81,12.43,16.45,830.930,2069.320,117.066666,24.24,2.5016,363,23648,1.91730,4.04,50812,,,,,,,,,,,,,,,,,,99999,99999,99999,99999,99999,99999,99999,99999,99999,99999,99999,99999
8:37:49,1510787730,2017-11-15T23:15:36,0.766,400.1,14.79,12.41,16.37,830.900,2069.260,116.983330,24.67,2.5016,363,23649,1.91610,4.04,50807,,,,,,,,,,,,,,,,,,99999,99999,99999,99999,99999,99999,99999,99999,99999,99999,99999,99999
8:38:19,1510787760,2017-11-15T23:16:06,0.765,400.5,14.78,12.38,16.35,830.990,2069.190,117.533333,24.75,2.5016,363,23645,1.91338,4.04,50802,,,,,,,,,,,,,,,,,,99999,99999,99999,99999,99999,99999,99999,99999,99999,99999,99999,99999
8:38:49,1510787790,2017-11-15T23:16:36,0.760,400.9,14.75,12.36,16.37,830.970,2069.090,114.483330,24.87,2.5018,363,23646,1.90103,4.04,50798,,,,,,,,,,,,,,,,,,99999,99999,99999,99999,99999,99999,99999,99999,99999,99999,99999,99999
8:39:19,1510787820,2017-11-15T23:17:06,0.763,401.2,14.73,12.34,16.33,830.950,2068.970,118.016670,25.15,2.5018,363,23645,1.90795,4.04,50793,,,,,,,,,,,,,,,,,,99999,99999,99999,99999,99999,99999,99999,99999,99999,99999,99999,99999
8:39:49,1510787850,2017-11-15T23:17:36,0.762,401.6,14.70,12.31,16.31,830.950,2068.920,117.550003,25.02,2.5020,363,23643,1.90645,4.04,50789,,,,,,,,,,,,,,,,,,99999,99999,99999,99999,99999,99999,99999,99999,99999,99999,99999,99999
8:40:19,1510787880,2017-11-15T23:18:06,0.760,402.0,14.68,12.30,16.25,830.980,2068.860,114.766670,25.16,2.5021,363,23643,1.90043,4.04,50784,,,,,,,,,,,,,,,,,,99999,99999,99999,99999,99999,99999,99999,99999,99999,99999,99999,99999
8:40:49,1510787910,2017-11-15T23:18:36,0.764,402.4,14.67,12.26,16.25,830.990,2068.800,117.566666,25.26,2.5021,363,23643,1.91036,4.04,50780,,,,,,,,,,,,,,,,,,99999,99999,99999,99999,99999,99999,99999,99999,99999,99999,99999,99999
8:41:19,1510787940,2017-11-15T23:19:06,0.763,402.8,14.64,12.23,16.25,830.990,2068.740,117.166664,25.63,2.5022,363,23640,1.90946,4.04,50775,,,,,,,,,,,,,,,,,,99999,99999,99999,99999,99999,99999,99999,99999,99999,99999,99999,99999
8:41:49,1510787970,2017-11-15T23:19:36,0.762,403.1,14.61,12.21,16.20,830.950,2068.570,114.483330,25.69,2.5023,363,23640,1.90585,4.04,50771,,,,,,,,,,,,,,,,,,99999,99999,99999,99999,99999,99999,99999,99999,99999,99999,99999,99999
8:42:19,1510788000,2017-11-15T23:20:06,0.759,403.5,14.57,12.18,16.17,830.930,2068.470,114.766670,25.68,2.5025,363,23639,1.90043,4.04,50766,,,,,,,,,,,,,,,,,,99999,99999,99999,99999,99999,99999,99999,99999,99999,99999,99999,99999
8:42:49,1510788030,2017-11-15T23:20:36,0.765,403.9,14.56,12.17,16.16,830.940,2068.400,117.366669,25.52,2.5025,363,23641,1.91338,4.04,50762,,,,,,,,,,,,,,,,,,99999,99999,99999,99999,99999,99999,99999,99999,99999,99999,99999,99999
8:43:19,1510788060,2017-11-15T23:21:06,0.765,404.3,14.53,12.12,16.15,831.100,2068.340,118.000000,25.77,2.5027,363,23636,1.91459,4.04,50757,,,,,,,,,,,,,,,,,,99999,99999,99999,99999,99999,99999,99999,99999,99999,99999,99999,99999
8:43:49,1510788090,2017-11-15T23:21:36,0.759,404.7,14.49,12.09,16.09,831.030,2068.170,115.783333,25.66,2.5029,363,23636,1.89983,4.04,50753,,,,,,,,,,,,,,,,,,99999,99999,99999,99999,99999,99999,99999,99999,99999,99999,99999,99999
8:44:19,1510788120,2017-11-15T23:22:06,0.764,405.1,14.46,12.07,16.05,831.010,2068.070,116.650002,25.83,2.5030,363,23637,1.91308,4.04,50748,,,,,,,,,,,,,,,,,,99999,99999,99999,99999,99999,99999,99999,99999,99999,99999,99999,99999
8:44:49,1510788150,2017-11-15T23:22:36,0.758,405.4,14.44,12.02,16.05,830.990,2068.000,114.433334,25.90,2.5031,363,23635,1.89683,4.04,50743,,,,,,,,,,,,,,,,,,99999,99999,99999,99999,99999,99999,99999,99999,99999,99999,99999,99999
8:45:19,1510788180,2017-11-15T23:23:06,0.758,405.8,14.41,12.00,16.01,830.940,2067.900,115.349998,26.08,2.5032,363,23634,1.89833,4.04,50739,,,,,,,,,,,,,,,,,,99999,99999,99999,99999,99999,99999,99999,99999,99999,99999,99999,99999
8:45:49,1510788210,2017-11-15T23:23:36,0.764,406.2,14.37,11.95,15.98,830.870,2067.710,117.099998,26.09,2.5033,363,23636,1.91157,4.04,50734,,,,,,,,,,,,,,,,,,99999,99999,99999,99999,99999,99999,99999,99999,99999,99999,99999,99999
8:46:19,1510788240,2017-11-15T23:24:06,0.762,406.6,14.34,11.94,15.90,830.910,2067.670,116.599998,26.25,2.5035,363,23633,1.90735,4.04,50730,,,,,,,,,,,,,,,,,,99999,99999,99999,99999,99999,99999,99999,99999,99999,99999,99999,99999
8:46:49,1510788270,2017-11-15T23:24:36,0.764,407.0,14.31,11.89,15.91,830.970,2067.550,116.449997,26.68,2.5036,363,23634,1.91308,4.04,50725,,,,,,,,,,,,,,,,,,99999,99999,99999,99999,99999,99999,99999,99999,99999,99999,99999,99999
8:47:19,1510788300,2017-11-15T23:25:06,0.763,407.3,14.29,11.86,15.87,830.920,2067.480,117.333336,26.50,2.5037,363,23630,1.90976,4.04,50721,,,,,,,,,,,,,,,,,,99999,99999,99999,99999,99999,99999,99999,99999,99999,99999,99999,99999
8:47:49,1510788330,2017-11-15T23:25:36,0.757,407.7,14.25,11.83,15.85,830.870,2067.380,114.166664,26.53,2.5040,363,23633,1.89623,4.04,50716,,,,,,,,,,,,,,,,,,99999,99999,99999,99999,99999,99999,99999,99999,99999,99999,99999,99999
8:48:19,1510788360,2017-11-15T23:26:06,0.757,408.1,14.22,11.81,15.81,830.880,2067.210,115.083336,26.84,2.5040,363,23631,1.89502,4.04,50712,,,,,,,,,,,,,,,,,,99999,99999,99999,99999,99999,99999,99999,99999,99999,99999,99999,99999
8:48:49,1510788390,2017-11-15T23:26:36,0.757,408.5,14.19,11.78,15.79,830.910,2067.150,113.933334,26.95,2.5042,363,23628,1.89442,4.04,50707,,,,,,,,,,,,,,,,,,99999,99999,99999,99999,99999,99999,99999,99999,99999,99999,99999,99999
8:49:19,1510788420,2017-11-15T23:27:06,0.763,408.9,14.16,11.75,15.74,830.920,2067.050,116.483330,27.11,2.5043,363,23629,1.91187,4.04,50702,,,,,,,,,,,,,,,,,,99999,99999,99999,99999,99999,99999,99999,99999,99999,99999,99999,99999
8:49:49,1510788450,2017-11-15T23:27:36,0.762,409.2,14.13,11.72,15.74,830.880,2066.980,115.666664,27.21,2.5045,363,23625,1.90856,4.04,50698,,,,,,,,,,,,,,,,,,99999,99999,99999,99999,99999,99999,99999,99999,99999,99999,99999,99999
8:50:19,1510788480,2017-11-15T23:28:06,0.763,409.6,14.10,11.70,15.73,830.830,2066.820,115.416664,26.95,2.5046,363,23623,1.91097,4.04,50693,,,,,,,,,,,,,,,,,,99999,99999,99999,99999,99999,99999,99999,99999,99999,99999,99999,99999
8:50:49,1510788510,2017-11-15T23:28:36,0.758,410.0,14.07,11.66,15.68,830.860,2066.690,115.833336,26.80,2.5047,363,23625,1.89803,4.04,50689,,,,,,,,,,,,,,,,,,99999,99999,99999,99999,99999,99999,99999,99999,99999,99999,99999,99999
8:51:19,1510788540,2017-11-15T23:29:06,0.762,410.4,14.04,11.63,15.65,830.790,2066.630,116.133331,26.97,2.5049,363,23622,1.90826,4.04,50684,,,,,,,,,,,,,,,,,,99999,99999,99999,99999,99999,99999,99999,99999,99999,99999,99999,99999
8:51:49,1510788570,2017-11-15T23:29:36,0.758,410.7,14.01,11.59,15.65,830.900,2066.520,115.650002,26.90,2.5050,363,23620,1.89833,4.04,50680,,,,,,,,,,,,,,,,,,99999,99999,99999,99999,99999,99999,99999,99999,99999,99999,99999,99999
8:52:19,1510788600,2017-11-15T23:30:06,0.760,411.1,13.98,11.54,15.53,830.750,2066.420,114.099998,26.95,2.5052,363,23621,1.90314,4.04,50675,,,,,,,,,,,,,,,,,,99999,99999,99999,99999,99999,99999,99999,99999,99999,99999,99999,99999
8:52:49,1510788630,2017-11-15T23:30:36,0.758,411.5,13.95,11.51,15.52,830.890,2066.300,113.933334,26.86,2.5053,363,23621,1.89893,4.04,50670,,,,,,,,,,,,,,,,,,99999,99999,99999,99999,99999,99999,99999,99999,99999,99999,99999,99999
8:53:19,1510788660,2017-11-15T23:31:06,0.761,411.9,13.91,11.49,15.53,830.870,2066.190,115.916664,26.79,2.5055,363,23619,1.90555,4.04,50666,,,,,,,,,,,,,,,,,,99999,99999,99999,99999,99999,99999,99999,99999,99999,99999,99999,99999
8:53:49,1510788690,2017-11-15T23:31:36,0.760,412.3,13.87,11.43,15.47,830.830,2066.070,115.233330,26.71,2.5057,363,23614,1.90555,4.04,50661,,,,,,,,,,,,,,,,,,99999,99999,99999,99999,99999,99999,99999,99999,99999,99999,99999,99999
8:54:19,1510788720,2017-11-15T23:32:06,0.757,412.6,13.84,11.40,15.47,830.940,2065.900,114.050003,26.90,2.5058,363,23618,1.89803,4.04,50657,,,,,,,,,,,,,,,,,,99999,99999,99999,99999,99999,99999,99999,99999,99999,99999,99999,99999
8:54:49,1510788750,2017-11-15T23:32:36,0.758,413.0,13.81,11.37,15.37,830.820,2065.790,113.633331,26.94,2.5059,363,23618,1.89863,4.04,50652,,,,,,,,,,,,,,,,,,99999,99999,99999,99999,99999,99999,99999,99999,99999,99999,99999,99999
8:55:19,1510788780,2017-11-15T23:33:06,0.755,413.4,13.77,11.35,15.35,830.960,2065.670,113.883331,27.24,2.5061,363,23619,1.89233,4.04,50647,,,,,,,,,,,,,,,,,,99999,99999,99999,99999,99999,99999,99999,99999,99999,99999,99999,99999
8:55:49,1510788810,2017-11-15T23:33:36,0.757,413.8,13.73,11.28,15.34,830.970,2065.500,113.433334,27.27,2.5062,363,23613,1.89713,4.04,50643,,,,,,,,,,,,,,,,,,99999,99999,99999,99999,99999,99999,99999,99999,99999,99999,99999,99999
8:56:19,1510788840,2017-11-15T23:34:06,0.756,414.2,13.69,11.26,15.31,830.970,2065.400,114.300003,27.56,2.5064,363,23614,1.89593,4.04,50638,,,,,,,,,,,,,,,,,,99999,99999,99999,99999,99999,99999,99999,99999,99999,99999,99999,99999
8:56:49,1510788870,2017-11-15T23:34:36,0.755,414.5,13.67,11.22,15.24,830.980,2065.330,115.550003,27.81,2.5065,363,23611,1.89322,4.04,50634,,,,,,,,,,,,,,,,,,99999,99999,99999,99999,99999,99999,99999,99999,99999,99999,99999,99999
8:57:19,1510788900,2017-11-15T23:35:06,0.754,414.9,13.63,11.18,15.21,831.020,2065.210,113.033333,27.94,2.5067,363,23610,1.88903,4.04,50629,,,,,,,,,,,,,,,,,,99999,99999,99999,99999,99999,99999,99999,99999,99999,99999,99999,99999
8:57:49,1510788930,2017-11-15T23:35:36,0.760,415.3,13.59,11.15,15.18,830.950,2065.040,115.283333,28.02,2.5069,363,23609,1.90615,4.04,50624,,,,,,,,,,,,,,,,,,99999,99999,99999,99999,99999,99999,99999,99999,99999,99999,99999,99999
8:58:19,1510788960,2017-11-15T23:36:06,0.759,415.7,13.56,11.12,15.13,830.930,2064.940,115.633331,28.00,2.5070,363,23608,1.90344,4.04,50620,,,,,,,,,,,,,,,,,,99999,99999,99999,99999,99999,99999,99999,99999,99999,99999,99999,99999
8:58:49,1510788990,2017-11-15T23:36:36,0.755,416.1,13.51,11.09,15.10,830.910,2064.770,114.599998,28.06,2.5072,363,23607,1.89173,4.04,50615,,,,,,,,,,,,,,,,,,99999,99999,99999,99999,99999,99999,99999,99999,99999,99999,99999,99999
8:59:19,1510789020,2017-11-15T23:37:06,0.759,416.4,13.48,11.04,15.03,831.000,2064.710,114.966667,27.95,2.5074,363,23606,1.90434,4.04,50611,,,,,,,,,,,,,,,,,,99999,99999,99999,99999,99999,99999,99999,99999,99999,99999,99999,99999
8:59:49,1510789050,2017-11-15T23:37:36,0.757,416.8,13.44,11.00,15.02,830.900,2064.540,116.133331,28.05,2.5076,363,23606,1.89863,4.04,50606,,,,,,,,,,,,,,,,,,99999,99999,99999,99999,99999,99999,99999,99999,99999,99999,99999,99999
9:00:19,1510789080,2017-11-15T23:38:06,0.755,417.2,13.41,10.95,15.00,831.010,2064.410,112.800003,28.12,2.5077,363,23603,1.89382,4.04,50601,,,,,,,,,,,,,,,,,,99999,99999,99999,99999,99999,99999,99999,99999,99999,99999,99999,99999
9:00:49,1510789110,2017-11-15T23:38:36,0.756,417.6,13.36,10.94,14.95,830.870,2064.250,113.949997,28.15,2.5079,363,23601,1.89593,4.04,50597,,,,,,,,,,,,,,,,,,99999,99999,99999,99999,99999,99999,99999,99999,99999,99999,99999,99999
9:01:19,1510789140,2017-11-15T23:39:06,0.758,417.9,13.34,10.88,14.89,830.840,2064.150,114.500000,28.27,2.5080,363,23603,1.90103,4.04,50592,,,,,,,,,,,,,,,,,,99999,99999,99999,99999,99999,99999,99999,99999,99999,99999,99999,99999
9:01:49,1510789170,2017-11-15T23:39:36,0.752,418.3,13.28,10.83,14.90,830.830,2063.980,112.949997,28.05,2.5083,363,23600,1.88604,4.04,50587,,,,,,,,,,,,,,,,,,99999,99999,99999,99999,99999,99999,99999,99999,99999,99999,99999,99999
9:02:19,1510789200,2017-11-15T23:40:06,0.756,418.7,13.24,10.79,14.84,830.840,2063.850,113.733330,27.94,2.5085,363,23599,1.89743,4.04,50583,,,,,,,,,,,,,,,,,,99999,99999,99999,99999,99999,99999,99999,99999,99999,99999,99999,99999
9:02:49,1510789230,2017-11-15T23:40:36,0.754,419.1,13.22,10.75,14.79,830.820,2063.790,112.849998,28.09,2.5086,363,23597,1.89083,4.04,50578,,,,,,,,,,,,,,,,,,99999,99999,99999,99999,99999,99999,99999,99999,99999,99999,99999,99999
9:03:19,1510789260,2017-11-15T23:41:06,0.757,419.5,13.17,10.71,14.76,830.780,2063.580,115.099998,28.13,2.5088,363,23597,1.89863,4.04,50574,,,,,,,,,,,,,,,,,,99999,99999,99999,99999,99999,99999,99999,99999,99999,99999,99999,99999
9:03:49,1510789290,2017-11-15T23:41:36,0.758,419.8,13.13,10.64,14.69,830.790,2063.460,114.716667,28.10,2.5090,363,23593,1.90133,4.04,50569,,,,,,,,,,,,,,,,,,99999,99999,99999,99999,99999,99999,99999,99999,99999,99999,99999,99999
9:04:19,1510789320,2017-11-15T23:42:06,0.753,420.2,13.10,10.60,14.68,830.740,2063.390,114.416664,28.34,2.5092,363,23590,1.88933,4.04,50564,,,,,,,,,,,,,,,,,,99999,99999,99999,99999,99999,99999,99999,99999,99999,99999,99999,99999
9:04:49,1510789350,2017-11-15T23:42:36,0.752,420.6,13.06,10.56,14.66,830.700,2063.180,113.716667,28.34,2.5093,363,23593,1.88813,4.04,50560,,,,,,,,,,,,,,,,,,99999,99999,99999,99999,99999,99999,99999,99999,99999,99999,99999,99999
9:05:19,1510789380,2017-11-15T23:43:06,0.756,421.0,13.03,10.51,14.60,830.730,2063.120,113.633331,28.65,2.5095,363,23588,1.89653,4.04,50555,,,,,,,,,,,,,,,,,,99999,99999,99999,99999,99999,99999,99999,99999,99999,99999,99999,99999
9:05:49,1510789410,2017-11-15T23:43:36,0.756,421.3,12.99,10.48,14.55,830.720,2063.000,114.300003,28.81,2.5097,363,23587,1.89773,4.04,50551,,,,,,,,,,,,,,,,,,99999,99999,99999,99999,99999,99999,99999,99999,99999,99999,99999,99999
9:06:19,1510789440,2017-11-15T23:44:06,0.750,421.7,12.95,10.43,14.53,830.720,2062.890,112.683334,28.86,2.5099,363,23586,1.88215,4.04,50546,,,,,,,,,,,,,,,,,,99999,99999,99999,99999,99999,99999,99999,99999,99999,99999,99999,99999
9:06:49,1510789470,2017-11-15T23:44:36,0.749,422.1,12.90,10.37,14.45,830.760,2062.660,112.449997,28.78,2.5101,363,23585,1.88065,4.04,50541,,,,,,,,,,,,,,,,,,99999,99999,99999,99999,99999,99999,99999,99999,99999,99999,99999,99999
9:07:19,1510789500,2017-11-15T23:45:06,0.751,422.5,12.87,10.34,14.47,830.740,2062.560,112.283333,28.90,2.5102,363,23582,1.88544,4.04,50537,,,,,,,,,,,,,,,,,,99999,99999,99999,99999,99999,99999,99999,99999,99999,99999,99999,99999
9:07:49,1510789530,2017-11-15T23:45:36,0.756,422.8,12.82,10.29,14.42,830.670,2062.430,113.783333,29.03,2.5105,363,23581,1.89893,4.04,50532,,,,,,,,,,,,,,,,,,99999,99999,99999,99999,99999,99999,99999,99999,99999,99999,99999,99999
9:08:19,1510789560,2017-11-15T23:46:06,0.755,423.2,12.79,10.23,14.35,830.710,2062.260,114.183334,29.00,2.5105,363,23579,1.89593,4.04,50528,,,,,,,,,,,,,,,,,,99999,99999,99999,99999,99999,99999,99999,99999,99999,99999,99999,99999
9:08:49,1510789590,2017-11-15T23:46:36,0.755,423.6,12.75,10.20,14.31,830.640,2062.160,114.349998,29.09,2.5108,363,23577,1.89653,4.04,50523,,,,,,,,,,,,,,,,,,99999,99999,99999,99999,99999,99999,99999,99999,99999,99999,99999,99999
9:09:19,1510789620,2017-11-15T23:47:06,0.750,424.0,12.71,10.16,14.26,830.750,2062.040,111.916664,29.10,2.5110,363,23577,1.88334,4.04,50518,,,,,,,,,,,,,,,,,,99999,99999,99999,99999,99999,99999,99999,99999,99999,99999,99999,99999
9:09:49,1510789650,2017-11-15T23:47:36,0.750,424.3,12.67,10.10,14.23,830.710,2061.870,113.466667,29.16,2.5111,363,23576,1.88364,4.04,50514,,,,,,,,,,,,,,,,,,99999,99999,99999,99999,99999,99999,99999,99999,99999,99999,99999,99999
9:10:19,1510789680,2017-11-15T23:48:06,0.750,424.7,12.62,10.07,14.16,830.690,2061.710,111.733330,29.33,2.5114,363,23578,1.88304,4.04,50509,,,,,,,,,,,,,,,,,,99999,99999,99999,99999,99999,99999,99999,99999,99999,99999,99999,99999
9:10:49,1510789710,2017-11-15T23:48:36,0.751,425.1,12.58,10.01,14.13,830.710,2061.600,112.233330,29.24,2.5116,363,23572,1.88574,4.04,50505,,,,,,,,,,,,,,,,,,99999,99999,99999,99999,99999,99999,99999,99999,99999,99999,99999,99999
9:11:19,1510789740,2017-11-15T23:49:06,0.748,425.5,12.54,9.98,14.11,830.710,2061.410,111.516670,29.53,2.5117,363,23572,1.87767,4.04,50500,,,,,,,,,,,,,,,,,,99999,99999,99999,99999,99999,99999,99999,99999,99999,99999,99999,99999
9:11:49,1510789770,2017-11-15T23:49:36,0.748,425.8,12.49,9.92,14.03,830.720,2061.240,112.000000,29.73,2.5119,363,23572,1.87946,4.04,50496,,,,,,,,,,,,,,,,,,99999,99999,99999,99999,99999,99999,99999,99999,99999,99999,99999,99999
9:12:19,1510789800,2017-11-15T23:50:06,0.754,426.2,12.45,9.90,13.98,830.760,2061.140,114.050003,29.63,2.5122,363,23569,1.89382,4.04,50491,,,,,,,,,,,,,,,,,,99999,99999,99999,99999,99999,99999,99999,99999,99999,99999,99999,99999
9:12:49,1510789830,2017-11-15T23:50:36,0.746,426.6,12.41,9.83,13.95,830.740,2060.970,112.000000,29.74,2.5123,363,23568,1.87528,4.04,50486,,,,,,,,,,,,,,,,,,99999,99999,99999,99999,99999,99999,99999,99999,99999,99999,99999,99999
9:13:19,1510789860,2017-11-15T23:51:06,0.745,427.0,12.37,9.81,13.92,830.720,2060.850,111.333336,29.98,2.5125,363,23566,1.87290,4.04,50482,,,,,,,,,,,,,,,,,,99999,99999,99999,99999,99999,99999,99999,99999,99999,99999,99999,99999
9:13:49,1510789890,2017-11-15T23:51:36,0.746,427.3,12.33,9.75,13.85,830.860,2060.680,112.750000,29.93,2.5126,363,23564,1.87468,4.04,50477,,,,,,,,,,,,,,,,,,99999,99999,99999,99999,99999,99999,99999,99999,99999,99999,99999,99999
9:14:19,1510789920,2017-11-15T23:52:06,0.753,427.7,12.28,9.72,13.82,830.770,2060.510,114.033333,30.52,2.5128,363,23565,1.89173,4.04,50473,,,,,,,,,,,,,,,,,,99999,99999,99999,99999,99999,99999,99999,99999,99999,99999,99999,99999
9:14:49,1510789950,2017-11-15T23:52:36,0.746,428.1,12.24,9.67,13.76,830.810,2060.410,110.900002,30.45,2.5131,363,23563,1.87528,4.04,50468,,,,,,,,,,,,,,,,,,99999,99999,99999,99999,99999,99999,99999,99999,99999,99999,99999,99999
9:15:19,1510789980,2017-11-15T23:53:06,0.751,428.5,12.19,9.62,13.73,830.850,2060.220,113.483330,30.42,2.5133,363,23562,1.88634,4.04,50464,,,,,,,,,,,,,,,,,,99999,99999,99999,99999,99999,99999,99999,99999,99999,99999,99999,99999
9:15:49,1510790010,2017-11-15T23:53:36,0.746,428.8,12.15,9.58,13.69,830.880,2060.060,112.016670,30.52,2.5135,363,23559,1.87409,4.04,50459,,,,,,,,,,,,,,,,,,99999,99999,99999,99999,99999,99999,99999,99999,99999,99999,99999,99999
9:16:19,1510790040,2017-11-15T23:54:06,0.745,429.2,12.09,9.53,13.65,830.760,2059.890,110.616669,30.54,2.5138,363,23559,1.87319,4.04,50455,,,,,,,,,,,,,,,,,,99999,99999,99999,99999,99999,99999,99999,99999,99999,99999,99999,99999
9:16:49,1510790070,2017-11-15T23:54:36,0.744,429.6,12.05,9.48,13.65,830.850,2059.720,111.233330,30.50,2.5139,363,23558,1.87051,4.04,50450,,,,,,,,,,,,,,,,,,99999,99999,99999,99999,99999,99999,99999,99999,99999,99999,99999,99999
9:17:19,1510790100,2017-11-15T23:55:06,0.750,430.0,12.01,9.44,13.58,830.760,2059.560,113.183334,30.42,2.5141,363,23556,1.88454,4.04,50445,,,,,,,,,,,,,,,,,,99999,99999,99999,99999,99999,99999,99999,99999,99999,99999,99999,99999
9:17:49,1510790130,2017-11-15T23:55:36,0.744,430.3,11.96,9.38,13.53,830.820,2059.450,111.400002,30.64,2.5144,363,23552,1.87081,4.04,50441,,,,,,,,,,,,,,,,,,99999,99999,99999,99999,99999,99999,99999,99999,99999,99999,99999,99999
9:18:19,1510790160,2017-11-15T23:56:06,0.747,430.7,11.93,9.36,13.47,830.830,2059.320,112.449997,30.78,2.5145,363,23552,1.87946,4.04,50436,,,,,,,,,,,,,,,,,,99999,99999,99999,99999,99999,99999,99999,99999,99999,99999,99999,99999
9:18:49,1510790190,2017-11-15T23:56:36,0.746,431.1,11.88,9.30,13.44,830.680,2059.090,112.416664,31.08,2.5147,363,23552,1.87588,4.03,50432,,,,,,,,,,,,,,,,,,99999,99999,99999,99999,99999,99999,99999,99999,99999,99999,99999,99999
9:19:19,1510790220,2017-11-15T23:57:06,0.750,431.5,11.83,9.26,13.42,830.720,2058.990,112.816666,30.87,2.5150,363,23550,1.88723,4.04,50427,,,,,,,,,,,,,,,,,,99999,99999,99999,99999,99999,99999,99999,99999,99999,99999,99999,99999
9:19:49,1510790250,2017-11-15T23:57:36,0.746,431.8,11.79,9.25,13.34,830.700,2058.820,111.650002,30.76,2.5151,363,23552,1.87618,4.04,50423,,,,,,,,,,,,,,,,,,99999,99999,99999,99999,99999,99999,99999,99999,99999,99999,99999,99999
9:20:19,1510790280,2017-11-15T23:58:06,0.744,432.2,11.75,9.20,13.32,830.790,2058.660,111.099998,31.14,2.5153,363,23548,1.87081,4.04,50418,,,,,,,,,,,,,,,,,,99999,99999,99999,99999,99999,99999,99999,99999,99999,99999,99999,99999
9:20:49,1510790310,2017-11-15T23:58:36,0.743,432.6,11.72,9.16,13.27,830.830,2058.590,111.916664,30.85,2.5155,363,23548,1.86932,4.04,50414,,,,,,,,,,,,,,,,,,99999,99999,99999,99999,99999,99999,99999,99999,99999,99999,99999,99999
9:21:19,1510790340,2017-11-15T23:59:06,0.746,433.0,11.68,9.13,13.23,830.750,2058.490,110.766670,30.74,2.5157,363,23544,1.87677,4.03,50409,,,,,,,,,,,,,,,,,,99999,99999,99999,99999,99999,99999,99999,99999,99999,99999,99999,99999
9:21:49,1510790370,2017-11-15T23:59:36,0.745,433.3,11.63,9.07,13.19,830.790,2058.260,109.616669,30.78,2.5159,363,23545,1.87468,4.03,50404,,,,,,,,,,,,,,,,,,99999,99999,99999,99999,99999,99999,99999,99999,99999,99999,99999,99999
9:22:19,1510790400,2017-11-16T00:00:06,0.744,433.7,11.60,9.06,13.18,830.720,2058.140,111.599998,30.97,2.5160,363,23542,1.87170,4.04,50400,,,,,,,,,,,,,,,,,,99999,99999,99999,99999,99999,99999,99999,99999,99999,99999,99999,99999
9:22:49,1510790430,2017-11-16T00:00:36,0.746,434.1,11.57,9.01,13.15,830.810,2058.090,109.699997,31.34,2.5162,363,23541,1.87618,4.03,50395,,,,,,,,,,,,,,,,,,99999,99999,99999,99999,99999,99999,99999,99999,99999,99999,99999,99999
9:23:19,1510790460,2017-11-16T00:01:06,0.745,434.5,11.53,8.97,13.08,830.790,2057.920,110.166664,31.49,2.5163,363,23540,1.87349,4.03,50391,,,,,,,,,,,,,,,,,,99999,99999,99999,99999,99999,99999,99999,99999,99999,99999,99999,99999
9:23:49,1510790490,2017-11-16T00:01:36,0.745,434.8,11.48,8.94,13.05,830.770,2057.740,110.816666,31.66,2.5165,363,23539,1.87409,4.03,50386,,,,,,,,,,,,,,,,,,99999,99999,99999,99999,99999,99999,99999,99999,99999,99999,99999,99999
9:24:19,1510790520,2017-11-16T00:02:06,0.750,435.2,11.45,8.88,12.98,830.860,2057.640,111.550003,31.49,2.5167,363,23540,1.88723,4.03,50382,,,,,,,,,,,,,,,,,,99999,99999,99999,99999,99999,99999,99999,99999,99999,99999,99999,99999
9:24:49,1510790550,2017-11-16T00:02:36,0.740,435.6,11.41,8.82,12.94,830.850,2057.530,110.183334,31.49,2.5169,363,23537,1.86367,4.03,50377,,,,,,,,,,,,,,,,,,99999,99999,99999,99999,99999,99999,99999,99999,99999,99999,99999,99999
9:25:19,1510790580,2017-11-16T00:03:06,0.742,435.9,11.37,8.81,12.90,830.800,2057.370,109.300003,31.65,2.5171,363,23535,1.86783,4.03,50373,,,,,,,,,,,,,,,,,,99999,99999,99999,99999,99999,99999,99999,99999,99999,99999,99999,99999
9:25:49,1510790610,2017-11-16T00:03:36,0.742,436.3,11.32,8.77,12.84,830.760,2057.170,110.866669,31.46,2.5173,363,23536,1.86843,4.03,50368,,,,,,,,,,,,,,,,,,99999,99999,99999,99999,99999,99999,99999,99999,99999,99999,99999,99999
9:26:19,1510790640,2017-11-16T00:04:06,0.742,436.7,11.29,8.74,12.81,830.770,2057.130,109.449997,31.43,2.5175,363,23536,1.86723,4.03,50364,,,,,,,,,,,,,,,,,,99999,99999,99999,99999,99999,99999,99999,99999,99999,99999,99999,99999
9:26:49,1510790670,2017-11-16T00:04:36,0.744,437.1,11.25,8.71,12.81,830.800,2056.900,111.400002,31.47,2.5176,363,23535,1.87319,4.03,50359,,,,,,,,,,,,,,,,,,99999,99999,99999,99999,99999,99999,99999,99999,99999,99999,99999,99999
9:27:19,1510790700,2017-11-16T00:05:06,0.740,437.4,11.21,8.67,12.76,830.760,2056.800,109.583336,31.74,2.5178,363,23530,1.86278,4.03,50355,,,,,,,,,,,,,,,,,,99999,99999,99999,99999,99999,99999,99999,99999,99999,99999,99999,99999
9:27:49,1510790730,2017-11-16T00:05:36,0.742,437.8,11.17,8.61,12.73,830.770,2056.670,111.133331,31.57,2.5180,363,23531,1.86723,4.03,50350,,,,,,,,,,,,,,,,,,99999,99999,99999,99999,99999,99999,99999,99999,99999,99999,99999,99999
9:28:19,1510790760,2017-11-16T00:06:06,0.746,438.2,11.14,8.61,12.69,830.770,2056.610,111.216667,31.47,2.5182,363,23529,1.87976,4.03,50346,,,,,,,,,,,,,,,,,,99999,99999,99999,99999,99999,99999,99999,99999,99999,99999,99999,99999
9:28:49,1510790790,2017-11-16T00:06:36,0.745,438.5,11.11,8.57,12.65,830.700,2056.450,111.116669,31.65,2.5183,363,23531,1.87588,4.03,50341,,,,,,,,,,,,,,,,,,99999,99999,99999,99999,99999,99999,99999,99999,99999,99999,99999,99999
9:29:19,1510790820,2017-11-16T00:07:06,0.747,438.9,11.07,8.53,12.63,830.660,2056.340,111.050003,31.93,2.5185,363,23526,1.88065,4.03,50337,,,,,,,,,,,,,,,,,,99999,99999,99999,99999,99999,99999,99999,99999,99999,99999,99999,99999
9:29:49,1510790850,2017-11-16T00:07:36,0.746,439.3,11.04,8.49,12.55,830.670,2056.240,109.983330,31.83,2.5187,363,23527,1.87797,4.03,50332,,,,,,,,,,,,,,,,,,99999,99999,99999,99999,99999,99999,99999,99999,99999,99999,99999,99999
9:30:19,1510790880,2017-11-16T00:08:06,0.743,439.7,11.00,8.47,12.56,830.680,2056.110,110.750000,32.07,2.5188,363,23524,1.87200,4.03,50328,,,,,,,,,,,,,,,,,,99999,99999,99999,99999,99999,99999,99999,99999,99999,99999,99999,99999
9:30:49,1510790910,2017-11-16T00:08:36,0.740,440.0,10.96,8.41,12.53,830.630,2055.950,111.000000,32.03,2.5190,363,23522,1.86337,4.03,50323,,,,,,,,,,,,,,,,,,99999,99999,99999,99999,99999,99999,99999,99999,99999,99999,99999,99999
9:31:19,1510790940,2017-11-16T00:09:06,0.739,440.4,10.93,8.39,12.48,830.800,2055.840,109.949997,32.14,2.5191,363,23522,1.86248,4.03,50319,,,,,,,,,,,,,,,,,,99999,99999,99999,99999,99999,99999,99999,99999,99999,99999,99999,99999
9:31:49,1510790970,2017-11-16T00:09:36,0.740,440.8,10.90,8.37,12.40,830.730,2055.780,109.733330,32.01,2.5193,363,23520,1.86337,4.03,50314,,,,,,,,,,,,,,,,,,99999,99999,99999,99999,99999,99999,99999,99999,99999,99999,99999,99999
9:32:19,1510791000,2017-11-16T00:10:06,0.746,441.1,10.84,8.30,12.40,830.720,2055.500,111.433334,32.21,2.5195,363,23520,1.87856,4.03,50309,,,,,,,,,,,,,,,,,,99999,99999,99999,99999,99999,99999,99999,99999,99999,99999,99999,99999
9:32:49,1510791030,2017-11-16T00:10:36,0.741,441.5,10.79,8.25,12.37,830.800,2055.380,111.366669,32.25,2.5198,363,23518,1.86723,4.03,50305,,,,,,,,,,,,,,,,,,99999,99999,99999,99999,99999,99999,99999,99999,99999,99999,99999,99999
9:33:19,1510791060,2017-11-16T00:11:06,0.743,441.9,10.76,8.24,12.31,830.730,2055.280,110.283333,32.21,2.5200,363,23519,1.87349,4.03,50300,,,,,,,,,,,,,,,,,,99999,99999,99999,99999,99999,99999,99999,99999,99999,99999,99999,99999
9:33:49,1510791090,2017-11-16T00:11:36,0.742,442.3,10.73,8.17,12.24,830.740,2055.220,110.949997,32.03,2.5202,363,23518,1.86902,4.03,50296,,,,,,,,,,,,,,,,,,99999,99999,99999,99999,99999,99999,99999,99999,99999,99999,99999,99999
9:34:19,1510791120,2017-11-16T00:12:06,0.745,442.6,10.68,8.14,12.23,830.770,2054.980,111.933334,31.98,2.5203,363,23518,1.87737,4.03,50291,,,,,,,,,,,,,,,,,,99999,99999,99999,99999,99999,99999,99999,99999,99999,99999,99999,99999
9:34:49,1510791150,2017-11-16T00:12:36,0.737,443.0,10.65,8.10,12.21,830.760,2054.880,109.466667,32.00,2.5205,363,23514,1.85862,4.03,50287,,,,,,,,,,,,,,,,,,99999,99999,99999,99999,99999,99999,99999,99999,99999,99999,99999,99999
9:35:19,1510791180,2017-11-16T00:13:06,0.740,443.4,10.63,8.07,12.16,830.710,2054.820,110.150002,31.88,2.5206,363,23512,1.86545,4.03,50282,,,,,,,,,,,,,,,,,,99999,99999,99999,99999,99999,99999,99999,99999,99999,99999,99999,99999
9:35:49,1510791210,2017-11-16T00:13:36,0.737,443.7,10.59,8.05,12.13,830.670,2054.650,108.516670,31.95,2.5207,363,23512,1.85773,4.03,50278,,,,,,,,,,,,,,,,,,99999,99999,99999,99999,99999,99999,99999,99999,99999,99999,99999,99999
9:36:19,1510791240,2017-11-16T00:14:06,0.737,444.1,10.56,8.01,12.13,830.730,2054.550,108.966667,32.17,2.5209,363,23512,1.85743,4.03,50274,,,,,,,,,,,,,,,,,,99999,99999,99999,99999,99999,99999,99999,99999,99999,99999,99999,99999
9:36:49,1510791270,2017-11-16T00:14:36,0.736,444.5,10.53,8.01,12.06,830.700,2054.480,108.383331,32.37,2.5211,363,23512,1.85506,4.03,50269,,,,,,,,,,,,,,,,,,99999,99999,99999,99999,99999,99999,99999,99999,99999,99999,99999,99999
9:37:19,1510791300,2017-11-16T00:15:06,0.743,444.9,10.51,7.98,12.08,830.710,2054.420,110.566666,32.47,2.5212,363,23512,1.87438,4.03,50265,,,,,,,,,,,,,,,,,,99999,99999,99999,99999,99999,99999,99999,99999,99999,99999,99999,99999
9:37:49,1510791330,2017-11-16T00:15:36,0.741,445.2,10.48,7.94,12.03,830.770,2054.250,110.750000,32.58,2.5212,363,23508,1.86902,4.03,50260,,,,,,,,,,,,,,,,,,99999,99999,99999,99999,99999,99999,99999,99999,99999,99999,99999,99999
9:38:19,1510791360,2017-11-16T00:16:06,0.738,445.6,10.45,7.93,11.98,830.700,2054.150,108.216667,32.84,2.5213,363,23509,1.85980,4.03,50256,,,,,,,,,,,,,,,,,,99999,99999,99999,99999,99999,99999,99999,99999,99999,99999,99999,99999
9:38:49,1510791390,2017-11-16T00:16:36,0.739,446.0,10.43,7.92,11.97,830.730,2054.090,110.266670,33.18,2.5214,363,23509,1.86367,4.03,50251,,,,,,,,,,,,,,,,,,99999,99999,99999,99999,99999,99999,99999,99999,99999,99999,99999,99999
9:39:19,1510791420,2017-11-16T00:17:06,0.736,446.3,10.40,7.87,11.94,830.600,2054.030,108.233330,33.52,2.5216,363,23506,1.85654,4.03,50247,,,,,,,,,,,,,,,,,,99999,99999,99999,99999,99999,99999,99999,99999,99999,99999,99999,99999
9:39:49,1510791450,2017-11-16T00:17:36,0.735,446.7,10.38,7.85,11.90,830.690,2053.980,108.616669,33.25,2.5217,363,23507,1.85417,4.03,50242,,,,,,,,,,,,,,,,,,99999,99999,99999,99999,99999,99999,99999,99999,99999,99999,99999,99999
9:40:19,1510791480,2017-11-16T00:18:06,0.743,447.1,10.36,7.83,11.90,830.770,2053.920,110.050003,34.02,2.5218,363,23507,1.87319,4.03,50238,,,,,,,,,,,,,,,,,,99999,99999,99999,99999,99999,99999,99999,99999,99999,99999,99999,99999
9:40:49,1510791510,2017-11-16T00:18:36,0.741,447.4,10.33,7.79,11.85,830.650,2053.750,108.683334,33.91,2.5219,363,23503,1.86843,4.03,50233,,,,,,,,,,,,,,,,,,99999,99999,99999,99999,99999,99999,99999,99999,99999,99999,99999,99999
9:41:19,1510791540,2017-11-16T00:19:06,0.742,447.8,10.29,7.78,11.87,830.680,2053.650,110.216667,33.76,2.5221,363,23503,1.87081,4.03,50229,,,,,,,,,,,,,,,,,,99999,99999,99999,99999,99999,99999,99999,99999,99999,99999,99999,99999
9:41:49,1510791570,2017-11-16T00:19:36,0.740,448.2,10.26,7.75,11.82,830.660,2053.530,108.916664,33.61,2.5222,363,23504,1.86723,4.03,50224,,,,,,,,,,,,,,,,,,99999,99999,99999,99999,99999,99999,99999,99999,99999,99999,99999,99999
9:42:19,1510791600,2017-11-16T00:20:06,0.743,448.5,10.23,7.71,11.79,830.750,2053.360,110.266670,33.69,2.5223,363,23503,1.87468,4.03,50220,,,,,,,,,,,,,,,,,,99999,99999,99999,99999,99999,99999,99999,99999,99999,99999,99999,99999
9:42:49,1510791630,2017-11-16T00:20:36,0.735,448.9,10.21,7.67,11.71,830.650,2053.360,108.599998,33.51,2.5225,363,23499,1.85358,4.03,50215,,,,,,,,,,,,,,,,,,99999,99999,99999,99999,99999,99999,99999,99999,99999,99999,99999,99999
9:43:19,1510791660,2017-11-16T00:21:06,0.738,449.3,10.19,7.63,11.74,830.660,2053.250,110.433334,33.54,2.5225,363,23499,1.86188,4.03,50211,,,,,,,,,,,,,,,,,,99999,99999,99999,99999,99999,99999,99999,99999,99999,99999,99999,99999
9:43:49,1510791690,2017-11-16T00:21:36,0.739,449.7,10.15,7.62,11.68,830.690,2053.130,110.250000,33.65,2.5227,363,23499,1.86426,4.03,50206,,,,,,,,,,,,,,,,,,99999,99999,99999,99999,99999,99999,99999,99999,99999,99999,99999,99999
9:44:19,1510791720,2017-11-16T00:22:06,0.737,450.0,10.12,7.58,11.66,830.690,2053.090,107.283333,33.54,2.5230,363,23496,1.85891,4.03,50202,,,,,,,,,,,,,,,,,,99999,99999,99999,99999,99999,99999,99999,99999,99999,99999,99999,99999
9:44:49,1510791750,2017-11-16T00:22:36,0.734,450.4,10.09,7.54,11.61,830.700,2052.920,108.400002,33.58,2.5230,363,23498,1.85150,4.03,50197,,,,,,,,,,,,,,,,,,99999,99999,99999,99999,99999,99999,99999,99999,99999,99999,99999,99999
9:45:19,1510791780,2017-11-16T00:23:06,0.736,450.8,10.07,7.55,11.58,830.790,2052.860,109.300003,33.31,2.5232,363,23495,1.85802,4.03,50193,,,,,,,,,,,,,,,,,,99999,99999,99999,99999,99999,99999,99999,99999,99999,99999,99999,99999
9:45:49,1510791810,2017-11-16T00:23:36,0.740,451.1,10.04,7.49,11.60,830.690,2052.750,109.150002,33.51,2.5233,363,23495,1.86753,4.03,50188,,,,,,,,,,,,,,,,,,99999,99999,99999,99999,99999,99999,99999,99999,99999,99999,99999,99999
9:46:19,1510791840,2017-11-16T00:24:06,0.739,451.5,10.01,7.46,11.56,830.670,2052.690,108.050003,33.47,2.5235,363,23496,1.86456,4.03,50184,,,,,,,,,,,,,,,,,,99999,99999,99999,99999,99999,99999,99999,99999,99999,99999,99999,99999
9:46:49,1510791870,2017-11-16T00:24:36,0.740,451.9,9.98,7.43,11.53,830.630,2052.560,109.016670,33.38,2.5236,363,23494,1.86694,4.03,50179,,,,,,,,,,,,,,,,,,99999,99999,99999,99999,99999,99999,99999,99999,99999,99999,99999,99999
9:47:19,1510791900,2017-11-16T00:25:06,0.733,452.2,9.96,7.42,11.48,830.760,2052.460,108.599998,33.39,2.5237,363,23492,1.85091,4.03,50175,,,,,,,,,,,,,,,,,,99999,99999,99999,99999,99999,99999,99999,99999,99999,99999,99999,99999
9:47:49,1510791930,2017-11-16T00:25:36,0.740,452.6,9.94,7.41,11.45,830.690,2052.360,110.133331,33.34,2.5237,363,23495,1.86843,4.03,50170,,,,,,,,,,,,,,,,,,99999,99999,99999,99999,99999,99999,99999,99999,99999,99999,99999,99999
9:48:19,1510791960,2017-11-16T00:26:06,0.734,453.0,9.93,7.37,11.42,830.690,2052.360,108.000000,33.33,2.5238,363,23490,1.85150,4.03,50166,,,,,,,,,,,,,,,,,,99999,99999,99999,99999,99999,99999,99999,99999,99999,99999,99999,99999
9:48:49,1510791990,2017-11-16T00:26:36,0.737,453.3,9.90,7.35,11.42,830.750,2052.230,109.066666,33.55,2.5239,363,23491,1.86070,4.03,50161,,,,,,,,,,,,,,,,,,99999,99999,99999,99999,99999,99999,99999,99999,99999,99999,99999,99999
9:49:19,1510792020,2017-11-16T00:27:06,0.734,453.7,9.88,7.29,11.38,830.750,2052.230,108.283333,33.66,2.5241,363,23489,1.85209,4.03,50157,,,,,,,,,,,,,,,,,,99999,99999,99999,99999,99999,99999,99999,99999,99999,99999,99999,99999
9:49:49,1510792050,2017-11-16T00:27:36,0.740,454.1,9.85,7.29,11.35,830.680,2052.130,109.383331,33.85,2.5242,363,23488,1.86872,4.03,50153,,,,,,,,,,,,,,,,,,99999,99999,99999,99999,99999,99999,99999,99999,99999,99999,99999,99999
9:50:19,1510792080,2017-11-16T00:28:06,0.739,454.4,9.83,7.27,11.34,830.760,2052.020,109.583336,34.01,2.5243,363,23490,1.86664,4.03,50148,,,,,,,,,,,,,,,,,,99999,99999,99999,99999,99999,99999,99999,99999,99999,99999,99999,99999
9:50:49,1510792110,2017-11-16T00:28:36,0.735,454.8,9.81,7.27,11.32,830.710,2051.960,108.416664,33.60,2.5244,363,23487,1.85595,4.03,50144,,,,,,,,,,,,,,,,,,99999,99999,99999,99999,99999,99999,99999,99999,99999,99999,99999,99999
9:51:19,1510792140,2017-11-16T00:29:06,0.735,455.2,9.79,7.20,11.29,830.750,2051.900,107.266670,33.41,2.5245,363,23488,1.85595,4.03,50139,,,,,,,,,,,,,,,,,,99999,99999,99999,99999,99999,99999,99999,99999,99999,99999,99999,99999
9:51:49,1510792170,2017-11-16T00:29:36,0.732,455.6,9.77,7.22,11.27,830.650,2051.860,107.766670,33.52,2.5246,363,23486,1.84825,4.03,50135,,,,,,,,,,,,,,,,,,99999,99999,99999,99999,99999,99999,99999,99999,99999,99999,99999,99999
9:52:19,1510792200,2017-11-16T00:30:06,0.732,455.9,9.74,7.17,11.29,830.710,2051.730,107.683334,33.54,2.5247,363,23487,1.84825,4.03,50130,,,,,,,,,,,,,,,,,,99999,99999,99999,99999,99999,99999,99999,99999,99999,99999,99999,99999
9:52:49,1510792230,2017-11-16T00:30:36,0.734,456.3,9.73,7.14,11.24,830.660,2051.670,107.966667,33.67,2.5247,363,23485,1.85358,4.03,50126,,,,,,,,,,,,,,,,,,99999,99999,99999,99999,99999,99999,99999,99999,99999,99999,99999,99999
9:53:19,1510792260,2017-11-16T00:31:06,0.737,456.7,9.71,7.14,11.19,830.690,2051.670,108.183334,34.77,2.5249,363,23482,1.86010,4.03,50121,,,,,,,,,,,,,,,,,,99999,99999,99999,99999,99999,99999,99999,99999,99999,99999,99999,99999
9:53:49,1510792290,2017-11-16T00:31:36,0.732,457.0,9.69,7.11,11.21,830.640,2051.500,107.616669,34.86,2.5248,363,23483,1.84854,4.03,50117,,,,,,,,,,,,,,,,,,99999,99999,99999,99999,99999,99999,99999,99999,99999,99999,99999,99999
9:54:19,1510792320,2017-11-16T00:32:06,0.738,457.4,9.67,7.09,11.18,830.670,2051.460,109.833336,34.85,2.5250,363,23484,1.86396,4.03,50112,,,,,,,,,,,,,,,,,,99999,99999,99999,99999,99999,99999,99999,99999,99999,99999,99999,99999
9:54:49,1510792350,2017-11-16T00:32:36,0.735,457.8,9.64,7.10,11.18,830.670,2051.400,108.666664,34.87,2.5252,363,23483,1.85595,4.03,50108,,,,,,,,,,,,,,,,,,99999,99999,99999,99999,99999,99999,99999,99999,99999,99999,99999,99999
9:55:19,1510792380,2017-11-16T00:33:06,0.739,458.1,9.62,7.06,11.15,830.660,2051.330,109.266670,34.63,2.5253,363,23482,1.86545,4.03,50103,,,,,,,,,,,,,,,,,,99999,99999,99999,99999,99999,99999,99999,99999,99999,99999,99999,99999
9:55:49,1510792410,2017-11-16T00:33:36,0.731,458.5,9.60,7.01,11.09,830.640,2051.290,107.283333,34.55,2.5254,363,23481,1.84707,4.03,50099,,,,,,,,,,,,,,,,,,99999,99999,99999,99999,99999,99999,99999,99999,99999,99999,99999,99999
9:56:19,1510792440,2017-11-16T00:34:06,0.731,458.9,9.57,7.01,11.06,830.670,2051.130,107.383331,34.30,2.5255,363,23480,1.84736,4.03,50095,,,,,,,,,,,,,,,,,,99999,99999,99999,99999,99999,99999,99999,99999,99999,99999,99999,99999
9:56:49,1510792470,2017-11-16T00:34:36,0.733,459.2,9.56,6.97,11.06,830.700,2051.060,106.566666,34.17,2.5255,363,23479,1.85002,4.03,50090,,,,,,,,,,,,,,,,,,99999,99999,99999,99999,99999,99999,99999,99999,99999,99999,99999,99999
9:57:19,1510792500,2017-11-16T00:35:06,0.731,459.6,9.53,6.95,11.06,830.730,2051.000,107.116669,34.10,2.5257,363,23478,1.84588,4.03,50086,,,,,,,,,,,,,,,,,,99999,99999,99999,99999,99999,99999,99999,99999,99999,99999,99999,99999
9:57:49,1510792530,2017-11-16T00:35:36,0.739,460.0,9.51,6.91,10.98,830.650,2050.960,109.133331,34.24,2.5258,363,23479,1.86664,4.03,50081,,,,,,,,,,,,,,,,,,99999,99999,99999,99999,99999,99999,99999,99999,99999,99999,99999,99999
9:58:19,1510792560,2017-11-16T00:36:06,0.735,460.3,9.48,6.90,10.98,830.620,2050.830,107.983330,34.06,2.5260,363,23478,1.85565,4.03,50077,,,,,,,,,,,,,,,,,,99999,99999,99999,99999,99999,99999,99999,99999,99999,99999,99999,99999
9:58:49,1510792590,2017-11-16T00:36:36,0.735,460.7,9.46,6.88,11.02,830.640,2050.790,108.199997,33.83,2.5261,363,23480,1.85624,4.03,50072,,,,,,,,,,,,,,,,,,99999,99999,99999,99999,99999,99999,99999,99999,99999,99999,99999,99999
9:59:19,1510792620,2017-11-16T00:37:06,0.737,461.1,9.45,6.85,10.97,830.620,2050.770,108.416664,34.13,2.5261,363,23477,1.86158,4.03,50068,,,,,,,,,,,,,,,,,,99999,99999,99999,99999,99999,99999,99999,99999,99999,99999,99999,99999
9:59:49,1510792650,2017-11-16T00:37:36,0.738,461.4,9.43,6.82,10.90,830.650,2050.630,109.500000,34.10,2.5262,363,23476,1.86545,4.03,50063,,,,,,,,,,,,,,,,,,99999,99999,99999,99999,99999,99999,99999,99999,99999,99999,99999,99999
10:00:19,1510792680,2017-11-16T00:38:06,0.733,461.8,9.42,6.82,10.90,830.620,2050.610,109.016670,34.14,2.5262,363,23475,1.85209,4.03,50059,,,,,,,,,,,,,,,,,,99999,99999,99999,99999,99999,99999,99999,99999,99999,99999,99999,99999
10:00:49,1510792710,2017-11-16T00:38:36,0.736,462.2,9.39,6.81,10.92,830.600,2050.500,108.783333,34.37,2.5263,363,23472,1.86010,4.03,50054,,,,,,,,,,,,,,,,,,99999,99999,99999,99999,99999,99999,99999,99999,99999,99999,99999,99999
10:01:19,1510792740,2017-11-16T00:39:06,0.735,462.5,9.37,6.77,10.88,830.580,2050.440,108.466667,34.43,2.5265,363,23471,1.85743,4.03,50050,,,,,,,,,,,,,,,,,,99999,99999,99999,99999,99999,99999,99999,99999,99999,99999,99999,99999
10:01:49,1510792770,2017-11-16T00:39:36,0.737,462.9,9.37,6.78,10.85,830.480,2050.440,109.000000,34.53,2.5264,363,23472,1.86278,4.03,50046,,,,,,,,,,,,,,,,,,99999,99999,99999,99999,99999,99999,99999,99999,99999,99999,99999,99999
10:02:19,1510792800,2017-11-16T00:40:06,0.734,463.3,9.35,6.75,10.84,830.540,2050.400,109.016670,35.28,2.5265,363,23475,1.85536,4.03,50041,,,,,,,,,,,,,,,,,,99999,99999,99999,99999,99999,99999,99999,99999,99999,99999,99999,99999
10:02:49,1510792830,2017-11-16T00:40:36,0.730,463.6,9.33,6.71,10.85,830.570,2050.330,106.550003,34.89,2.5267,363,23473,1.84470,4.03,50037,,,,,,,,,,,,,,,,,,99999,99999,99999,99999,99999,99999,99999,99999,99999,99999,99999,99999
10:03:19,1510792860,2017-11-16T00:41:06,0.737,464.0,9.31,6.70,10.82,830.680,2050.230,107.849998,34.51,2.5267,363,23472,1.86337,4.03,50032,,,,,,,,,,,,,,,,,,99999,99999,99999,99999,99999,99999,99999,99999,99999,99999,99999,99999
10:03:49,1510792890,2017-11-16T00:41:36,0.733,464.4,9.29,6.70,10.80,830.630,2050.160,105.716667,34.33,2.5268,363,23471,1.85209,4.03,50028,,,,,,,,,,,,,,,,,,99999,99999,99999,99999,99999,99999,99999,99999,99999,99999,99999,99999
10:04:19,1510792920,2017-11-16T00:42:06,0.737,464.7,9.29,6.68,10.77,830.650,2050.160,106.949997,34.72,2.5268,363,23472,1.86158,4.03,50023,,,,,,,,,,,,,,,,,,99999,99999,99999,99999,99999,99999,99999,99999,99999,99999,99999,99999
10:04:49,1510792950,2017-11-16T00:42:36,0.732,465.1,9.27,6.67,10.76,830.680,2050.110,108.650002,34.25,2.5270,363,23469,1.84943,4.03,50019,,,,,,,,,,,,,,,,,,99999,99999,99999,99999,99999,99999,99999,99999,99999,99999,99999,99999
10:05:19,1510792980,2017-11-16T00:43:06,0.731,465.5,9.24,6.66,10.74,830.610,2050.000,106.816666,34.27,2.5271,363,23469,1.84736,4.03,50014,,,,,,,,,,,,,,,,,,99999,99999,99999,99999,99999,99999,99999,99999,99999,99999,99999,99999
10:05:49,1510793010,2017-11-16T00:43:36,0.731,465.8,9.24,6.62,10.73,830.640,2050.000,107.583336,34.46,2.5271,363,23468,1.84618,4.03,50010,,,,,,,,,,,,,,,,,,99999,99999,99999,99999,99999,99999,99999,99999,99999,99999,99999,99999
10:06:19,1510793040,2017-11-16T00:44:06,0.733,466.2,9.22,6.63,10.71,830.570,2049.940,107.216667,34.52,2.5272,363,23467,1.85121,4.03,50006,,,,,,,,,,,,,,,,,,99999,99999,99999,99999,99999,99999,99999,99999,99999,99999,99999,99999
10:06:49,1510793070,2017-11-16T00:44:36,0.733,466.6,9.21,6.62,10.68,830.550,2049.940,109.500000,34.40,2.5273,363,23467,1.85328,4.03,50001,,,,,,,,,,,,,,,,,,99999,99999,99999,99999,99999,99999,99999,99999,99999,99999,99999,99999
10:07:19,1510793100,2017-11-16T00:45:06,0.729,466.9,9.21,6.59,10.68,830.520,2049.940,106.133331,33.95,2.5273,363,23468,1.84352,4.03,49997,,,,,,,,,,,,,,,,,,99999,99999,99999,99999,99999,99999,99999,99999,99999,99999,99999,99999
10:07:49,1510793130,2017-11-16T00:45:36,0.732,467.3,9.20,6.57,10.68,830.390,2049.890,107.533333,33.75,2.5274,363,23468,1.84973,4.03,49992,,,,,,,,,,,,,,,,,,99999,99999,99999,99999,99999,99999,99999,99999,99999,99999,99999,99999
10:08:19,1510793160,2017-11-16T00:46:06,0.734,467.7,9.20,6.57,10.68,830.490,2049.890,108.716667,33.77,2.5274,363,23468,1.85476,4.03,49988,,,,,,,,,,,,,,,,,,99999,99999,99999,99999,99999,99999,99999,99999,99999,99999,99999,99999
10:08:49,1510793190,2017-11-16T00:46:36,0.731,468.0,9.18,6.56,10.65,830.550,2049.770,107.683334,34.17,2.5274,363,23467,1.84795,4.03,49983,,,,,,,,,,,,,,,,,,99999,99999,99999,99999,99999,99999,99999,99999,99999,99999,99999,99999
10:09:19,1510793220,2017-11-16T00:47:06,0.731,468.4,9.19,6.55,10.66,830.500,2049.770,107.816666,34.48,2.5273,363,23467,1.84766,4.03,49979,,,,,,,,,,,,,,,,,,99999,99999,99999,99999,99999,99999,99999,99999,99999,99999,99999,99999
10:09:49,1510793250,2017-11-16T00:47:36,0.733,468.8,9.19,6.53,10.66,830.420,2049.770,108.016670,34.20,2.5273,363,23463,1.85328,4.03,49974,,,,,,,,,,,,,,,,,,99999,99999,99999,99999,99999,99999,99999,99999,99999,99999,99999,99999
10:10:19,1510793280,2017-11-16T00:48:06,0.737,469.1,9.17,6.53,10.61,830.500,2049.730,108.666664,34.61,2.5274,363,23465,1.86248,4.03,49970,,,,,,,,,,,,,,,,,,99999,99999,99999,99999,99999,99999,99999,99999,99999,99999,99999,99999
10:10:49,1510793310,2017-11-16T00:48:36,0.733,469.5,9.17,6.52,10.65,830.500,2049.730,106.716667,34.61,2.5274,363,23466,1.85358,4.03,49965,,,,,,,,,,,,,,,,,,99999,99999,99999,99999,99999,99999,99999,99999,99999,99999,99999,99999
10:11:19,1510793340,2017-11-16T00:49:06,0.730,469.9,9.16,6.52,10.61,830.500,2049.730,107.016670,34.69,2.5275,363,23464,1.84441,4.03,49961,,,,,,,,,,,,,,,,,,99999,99999,99999,99999,99999,99999,99999,99999,99999,99999,99999,99999
10:11:49,1510793370,2017-11-16T00:49:36,0.729,470.2,9.15,6.50,10.65,830.530,2049.660,106.650002,34.67,2.5275,363,23465,1.84352,4.03,49957,,,,,,,,,,,,,,,,,,99999,99999,99999,99999,99999,99999,99999,99999,99999,99999,99999,99999
10:12:19,1510793400,2017-11-16T00:50:06,0.729,470.6,9.13,6.50,10.65,830.510,2049.610,106.349998,34.71,2.5276,363,23461,1.84204,4.03,49952,,,,,,,,,,,,,,,,,,99999,99999,99999,99999,99999,99999,99999,99999,99999,99999,99999,99999
10:12:49,1510793430,2017-11-16T00:50:36,0.733,471.0,9.11,6.44,10.59,830.440,2049.540,108.483330,34.44,2.5277,363,23463,1.85209,4.03,49948,,,,,,,,,,,,,,,,,,99999,99999,99999,99999,99999,99999,99999,99999,99999,99999,99999,99999
10:13:19,1510793460,2017-11-16T00:51:06,0.732,471.3,9.11,6.44,10.60,830.440,2049.540,108.166664,34.32,2.5277,363,23462,1.85121,4.03,49943,,,,,,,,,,,,,,,,,,99999,99999,99999,99999,99999,99999,99999,99999,99999,99999,99999,99999
10:13:49,1510793490,2017-11-16T00:51:36,0.732,471.7,9.10,6.47,10.56,830.510,2049.540,107.316666,34.35,2.5278,363,23462,1.85002,4.03,49939,,,,,,,,,,,,,,,,,,99999,99999,99999,99999,99999,99999,99999,99999,99999,99999,99999,99999
10:14:19,1510793520,2017-11-16T00:52:06,0.734,472.1,9.09,6.42,10.56,830.510,2049.500,107.316666,34.96,2.5278,363,23461,1.85506,4.03,49934,,,,,,,,,,,,,,,,,,99999,99999,99999,99999,99999,99999,99999,99999,99999,99999,99999,99999
10:14:49,1510793550,2017-11-16T00:52:36,0.729,472.4,9.08,6.42,10.55,830.520,2049.500,106.616669,34.97,2.5279,363,23463,1.84175,4.03,49930,,,,,,,,,,,,,,,,,,99999,99999,99999,99999,99999,99999,99999,99999,99999,99999,99999,99999
10:15:19,1510793580,2017-11-16T00:53:06,0.734,472.8,9.07,6.39,10.53,830.550,2049.440,107.133331,34.85,2.5279,363,23462,1.85447,4.03,49925,,,,,,,,,,,,,,,,,,99999,99999,99999,99999,99999,99999,99999,99999,99999,99999,99999,99999
10:15:49,1510793610,2017-11-16T00:53:36,0.733,473.2,9.04,6.39,10.53,830.480,2049.270,106.316666,34.61,2.5280,363,23459,1.85328,4.03,49921,,,,,,,,,,,,,,,,,,99999,99999,99999,99999,99999,99999,99999,99999,99999,99999,99999,99999
10:16:19,1510793640,2017-11-16T00:54:06,0.732,473.5,9.04,6.42,10.51,830.480,2049.270,108.000000,34.86,2.5280,363,23460,1.84943,4.03,49917,,,,,,,,,,,,,,,,,,99999,99999,99999,99999,99999,99999,99999,99999,99999,99999,99999,99999
10:16:49,1510793670,2017-11-16T00:54:36,0.737,473.9,9.03,6.38,10.52,830.500,2049.270,106.633331,34.54,2.5281,363,23460,1.86218,4.03,49912,,,,,,,,,,,,,,,,,,99999,99999,99999,99999,99999,99999,99999,99999,99999,99999,99999,99999
10:17:19,1510793700,2017-11-16T00:55:06,0.728,474.3,9.02,6.35,10.53,830.430,2049.210,106.966667,34.43,2.5281,363,23458,1.84027,4.03,49908,,,,,,,,,,,,,,,,,,99999,99999,99999,99999,99999,99999,99999,99999,99999,99999,99999,99999
10:17:49,1510793730,2017-11-16T00:55:36,0.728,474.6,9.00,6.31,10.51,830.510,2049.160,106.916664,34.56,2.5282,363,23461,1.83968,4.03,49903,,,,,,,,,,,,,,,,,,99999,99999,99999,99999,99999,99999,99999,99999,99999,99999,99999,99999
10:18:19,1510793760,2017-11-16T00:56:06,0.728,475.0,9.00,6.34,10.47,830.640,2049.160,106.533333,34.37,2.5282,363,23459,1.83998,4.03,49899,,,,,,,,,,,,,,,,,,99999,99999,99999,99999,99999,99999,99999,99999,99999,99999,99999,99999
10:18:49,1510793790,2017-11-16T00:56:36,0.737,475.4,8.98,6.31,10.45,830.570,2049.100,106.883331,35.05,2.5283,363,23460,1.86218,4.03,49894,,,,,,,,,,,,,,,,,,99999,99999,99999,99999,99999,99999,99999,99999,99999,99999,99999,99999
10:19:19,1510793820,2017-11-16T00:57:06,0.734,475.7,8.98,6.30,10.45,830.600,2049.100,106.183334,35.46,2.5283,363,23457,1.85595,4.03,49890,,,,,,,,,,,,,,,,,,99999,99999,99999,99999,99999,99999,99999,99999,99999,99999,99999,99999
10:19:49,1510793850,2017-11-16T00:57:36,0.736,476.1,8.97,6.30,10.44,830.630,2049.100,107.266670,34.76,2.5284,363,23458,1.86099,4.02,49885,,,,,,,,,,,,,,,,,,99999,99999,99999,99999,99999,99999,99999,99999,99999,99999,99999,99999
10:20:19,1510793880,2017-11-16T00:58:06,0.731,476.5,8.96,6.27,10.42,830.570,2049.040,107.250000,34.80,2.5284,363,23458,1.84854,4.02,49881,,,,,,,,,,,,,,,,,,99999,99999,99999,99999,99999,99999,99999,99999,99999,99999,99999,99999
10:20:49,1510793910,2017-11-16T00:58:36,0.735,476.8,8.94,6.28,10.45,830.560,2048.870,106.516670,34.87,2.5284,363,23455,1.85862,4.02,49877,,,,,,,,,,,,,,,,,,99999,99999,99999,99999,99999,99999,99999,99999,99999,99999,99999,99999
10:21:19,1510793940,2017-11-16T00:59:06,0.730,477.2,8.94,6.28,10.40,830.560,2048.870,104.666664,34.65,2.5284,363,23457,1.84677,4.02,49872,,,,,,,,,,,,,,,,,,99999,99999,99999,99999,99999,99999,99999,99999,99999,99999,99999,99999
10:21:49,1510793970,2017-11-16T00:59:36,0.734,477.6,8.93,6.24,10.39,830.560,2048.870,106.900002,34.70,2.5285,363,23456,1.85624,4.02,49868,,,,,,,,,,,,,,,,,,99999,99999,99999,99999,99999,99999,99999,99999,99999,99999,99999,99999
10:22:19,1510794000,2017-11-16T01:00:06,0.729,477.9,8.93,6.24,10.40,830.580,2048.870,105.466667,34.78,2.5285,363,23455,1.84234,4.02,49863,,,,,,,,,,,,,,,,,,99999,99999,99999,99999,99999,99999,99999,99999,99999,99999,99999,99999
10:22:49,1510794030,2017-11-16T01:00:36,0.730,478.3,8.92,6.22,10.38,830.640,2048.870,106.666664,34.68,2.5286,363,23454,1.84559,4.02,49859,,,,,,,,,,,,,,,,,,99999,99999,99999,99999,99999,99999,99999,99999,99999,99999,99999,99999
10:23:19,1510794060,2017-11-16T01:01:06,0.734,478.7,8.91,6.20,10.38,830.610,2048.830,108.483330,34.98,2.5286,363,23457,1.85624,4.02,49854,,,,,,,,,,,,,,,,,,99999,99999,99999,99999,99999,99999,99999,99999,99999,99999,99999,99999
10:23:49,1510794090,2017-11-16T01:01:36,0.736,479.0,8.91,6.23,10.38,830.610,2048.830,108.166664,34.59,2.5286,363,23457,1.86040,4.02,49850,,,,,,,,,,,,,,,,,,99999,99999,99999,99999,99999,99999,99999,99999,99999,99999,99999,99999
10:24:19,1510794120,2017-11-16T01:02:06,0.735,479.4,8.90,6.23,10.40,830.620,2048.770,107.449997,34.35,2.5287,363,23457,1.85951,4.02,49846,,,,,,,,,,,,,,,,,,99999,99999,99999,99999,99999,99999,99999,99999,99999,99999,99999,99999
10:24:49,1510794150,2017-11-16T01:02:36,0.735,479.8,8.90,6.20,10.36,830.640,2048.770,107.866669,34.54,2.5287,363,23455,1.85891,4.02,49841,,,,,,,,,,,,,,,,,,99999,99999,99999,99999,99999,99999,99999,99999,99999,99999,99999,99999
10:25:19,1510794180,2017-11-16T01:03:06,0.731,480.1,8.90,6.19,10.38,830.540,2048.770,106.866669,34.85,2.5286,363,23454,1.84736,4.02,49837,,,,,,,,,,,,,,,,,,99999,99999,99999,99999,99999,99999,99999,99999,99999,99999,99999,99999
10:25:49,1510794210,2017-11-16T01:03:36,0.735,480.5,8.89,6.20,10.32,830.590,2048.770,106.983330,34.23,2.5288,363,23455,1.85743,4.02,49832,,,,,,,,,,,,,,,,,,99999,99999,99999,99999,99999,99999,99999,99999,99999,99999,99999,99999
10:26:19,1510794240,2017-11-16T01:04:06,0.734,480.9,8.89,6.20,10.36,830.560,2048.770,108.283333,34.26,2.5288,363,23455,1.85624,4.02,49828,,,,,,,,,,,,,,,,,,99999,99999,99999,99999,99999,99999,99999,99999,99999,99999,99999,99999
10:26:49,1510794270,2017-11-16T01:04:36,0.727,481.2,8.88,6.20,10.36,830.570,2048.770,106.216667,33.92,2.5289,363,23454,1.83909,4.02,49823,,,,,,,,,,,,,,,,,,99999,99999,99999,99999,99999,99999,99999,99999,99999,99999,99999,99999
10:27:19,1510794300,2017-11-16T01:05:06,0.730,481.6,8.88,6.20,10.34,830.520,2048.770,106.199997,34.22,2.5289,363,23457,1.84707,4.02,49819,,,,,,,,,,,,,,,,,,99999,99999,99999,99999,99999,99999,99999,99999,99999,99999,99999,99999
10:27:49,1510794330,2017-11-16T01:05:36,0.735,482.0,8.88,6.15,10.36,830.620,2048.770,107.883331,34.25,2.5288,363,23457,1.85980,4.02,49815,,,,,,,,,,,,,,,,,,99999,99999,99999,99999,99999,99999,99999,99999,99999,99999,99999,99999
10:28:19,1510794360,2017-11-16T01:06:06,0.734,482.3,8.87,6.19,10.31,830.520,2048.710,107.550003,34.11,2.5289,363,23456,1.85714,4.02,49810,,,,,,,,,,,,,,,,,,99999,99999,99999,99999,99999,99999,99999,99999,99999,99999,99999,99999
10:28:49,1510794390,2017-11-16T01:06:36,0.729,482.7,8.86,6.15,10.32,830.570,2048.660,106.349998,34.01,2.5289,363,23454,1.84293,4.02,49806,,,,,,,,,,,,,,,,,,99999,99999,99999,99999,99999,99999,99999,99999,99999,99999,99999,99999
10:29:19,1510794420,2017-11-16T01:07:06,0.735,483.0,8.86,6.13,10.34,830.650,2048.660,108.449997,33.79,2.5289,363,23455,1.85773,4.02,49801,,,,,,,,,,,,,,,,,,99999,99999,99999,99999,99999,99999,99999,99999,99999,99999,99999,99999
10:29:49,1510794450,2017-11-16T01:07:36,0.731,483.4,8.86,6.13,10.31,830.570,2048.660,108.416664,33.96,2.5289,363,23452,1.84973,4.02,49797,,,,,,,,,,,,,,,,,,99999,99999,99999,99999,99999,99999,99999,99999,99999,99999,99999,99999
10:30:19,1510794480,2017-11-16T01:08:06,0.734,483.8,8.86,6.13,10.24,830.520,2048.660,107.800003,33.77,2.5289,363,23454,1.85565,4.02,49792,,,,,,,,,,,,,,,,,,99999,99999,99999,99999,99999,99999,99999,99999,99999,99999,99999,99999
10:30:49,1510794510,2017-11-16T01:08:36,0.728,484.1,8.85,6.13,10.26,830.650,2048.660,106.949997,33.95,2.5290,363,23452,1.84086,4.02,49788,,,,,,,,,,,,,,,,,,99999,99999,99999,99999,99999,99999,99999,99999,99999,99999,99999,99999
10:31:19,1510794540,2017-11-16T01:09:06,0.734,484.5,8.84,6.13,10.31,830.600,2048.660,108.216667,34.20,2.5291,363,23454,1.85654,4.02,49783,,,,,,,,,,,,,,,,,,99999,99999,99999,99999,99999,99999,99999,99999,99999,99999,99999,99999
10:31:49,1510794570,2017-11-16T01:09:36,0.731,484.9,8.83,6.13,10.27,830.600,2048.600,106.216667,34.78,2.5291,363,23454,1.84795,4.02,49779,,,,,,,,,,,,,,,,,,99999,99999,99999,99999,99999,99999,99999,99999,99999,99999,99999,99999
10:32:19,1510794600,2017-11-16T01:10:06,0.727,485.2,8.83,6.11,10.27,830.550,2048.600,106.783333,34.85,2.5291,363,23453,1.83879,4.02,49775,,,,,,,,,,,,,,,,,,99999,99999,99999,99999,99999,99999,99999,99999,99999,99999,99999,99999
10:32:49,1510794630,2017-11-16T01:10:36,0.731,485.6,8.82,6.11,10.26,830.550,2048.600,108.433334,34.51,2.5292,363,23453,1.84973,4.02,49770,,,,,,,,,,,,,,,,,,99999,99999,99999,99999,99999,99999,99999,99999,99999,99999,99999,99999
10:33:19,1510794660,2017-11-16T01:11:06,0.729,486.0,8.82,6.10,10.30,830.530,2048.600,105.916664,34.87,2.5292,363,23454,1.84293,4.02,49766,,,,,,,,,,,,,,,,,,99999,99999,99999,99999,99999,99999,99999,99999,99999,99999,99999,99999
10:33:49,1510794690,2017-11-16T01:11:36,0.734,486.3,8.81,6.11,10.30,830.610,2048.540,108.583336,34.98,2.5292,363,23452,1.85624,4.02,49761,,,,,,,,,,,,,,,,,,99999,99999,99999,99999,99999,99999,99999,99999,99999,99999,99999,99999
10:34:19,1510794720,2017-11-16T01:12:06,0.729,486.7,8.80,6.10,10.30,830.540,2048.440,105.900002,35.21,2.5291,363,23453,1.84411,4.02,49757,,,,,,,,,,,,,,,,,,99999,99999,99999,99999,99999,99999,99999,99999,99999,99999,99999,99999
10:34:49,1510794750,2017-11-16T01:12:36,0.727,487.1,8.79,6.10,10.26,830.510,2048.440,105.366669,35.22,2.5292,363,23451,1.83998,4.02,49752,,,,,,,,,,,,,,,,,,99999,99999,99999,99999,99999,99999,99999,99999,99999,99999,99999,99999
10:35:19,1510794780,2017-11-16T01:13:06,0.731,487.4,8.77,6.10,10.26,830.520,2048.370,106.849998,35.34,2.5293,363,23454,1.84825,4.02,49748,,,,,,,,,,,,,,,,,,99999,99999,99999,99999,99999,99999,99999,99999,99999,99999,99999,99999
10:35:49,1510794810,2017-11-16T01:13:36,0.727,487.8,8.76,6.04,10.21,830.520,2048.330,105.633331,35.26,2.5293,363,23452,1.83821,4.02,49744,,,,,,,,,,,,,,,,,,99999,99999,99999,99999,99999,99999,99999,99999,99999,99999,99999,99999
10:36:19,1510794840,2017-11-16T01:14:06,0.734,488.2,8.74,6.06,10.23,830.490,2048.270,108.116669,35.26,2.5295,363,23450,1.85684,4.02,49739,,,,,,,,,,,,,,,,,,99999,99999,99999,99999,99999,99999,99999,99999,99999,99999,99999,99999
10:36:49,1510794870,2017-11-16T01:14:36,0.728,488.5,8.73,6.05,10.19,830.470,2048.210,105.583336,35.17,2.5295,363,23451,1.84056,4.02,49735,,,,,,,,,,,,,,,,,,99999,99999,99999,99999,99999,99999,99999,99999,99999,99999,99999,99999
10:37:19,1510794900,2017-11-16T01:15:06,0.734,488.9,8.71,6.04,10.19,830.450,2048.210,107.516670,35.17,2.5297,363,23450,1.85565,4.02,49730,,,,,,,,,,,,,,,,,,99999,99999,99999,99999,99999,99999,99999,99999,99999,99999,99999,99999
10:37:49,1510794930,2017-11-16T01:15:36,0.733,489.3,8.70,6.02,10.19,830.610,2048.140,106.650002,35.30,2.5297,363,23448,1.85298,4.02,49726,,,,,,,,,,,,,,,,,,99999,99999,99999,99999,99999,99999,99999,99999,99999,99999,99999,99999
10:38:19,1510794960,2017-11-16T01:16:06,0.732,489.6,8.69,6.00,10.16,830.610,2048.100,107.066666,35.62,2.5297,363,23449,1.85239,4.02,49722,,,,,,,,,,,,,,,,,,99999,99999,99999,99999,99999,99999,99999,99999,99999,99999,99999,99999
10:38:49,1510794990,2017-11-16T01:16:36,0.728,490.0,8.68,6.00,10.16,830.530,2048.100,105.916664,35.72,2.5298,363,23449,1.84086,4.02,49717,,,,,,,,,,,,,,,,,,99999,99999,99999,99999,99999,99999,99999,99999,99999,99999,99999,99999
10:39:19,1510795020,2017-11-16T01:17:06,0.730,490.4,8.66,5.95,10.10,830.570,2047.980,106.866669,35.41,2.5298,363,23448,1.84736,4.02,49713,,,,,,,,,,,,,,,,,,99999,99999,99999,99999,99999,99999,99999,99999,99999,99999,99999,99999
10:39:49,1510795050,2017-11-16T01:17:36,0.727,490.7,8.64,5.97,10.15,830.570,2047.940,105.800003,35.35,2.5299,363,23447,1.83821,4.02,49708,,,,,,,,,,,,,,,,,,99999,99999,99999,99999,99999,99999,99999,99999,99999,99999,99999,99999
10:40:19,1510795080,2017-11-16T01:18:06,0.733,491.1,8.64,5.93,10.09,830.600,2047.940,107.849998,35.52,2.5299,363,23447,1.85536,4.02,49704,,,,,,,,,,,,,,,,,,99999,99999,99999,99999,99999,99999,99999,99999,99999,99999,99999,99999
10:40:49,1510795110,2017-11-16T01:18:36,0.732,491.5,8.62,5.94,10.10,830.600,2047.870,107.349998,35.37,2.5300,363,23446,1.85269,4.02,49699,,,,,,,,,,,,,,,,,,99999,99999,99999,99999,99999,99999,99999,99999,99999,99999,99999,99999
10:41:19,1510795140,2017-11-16T01:19:06,0.728,491.8,8.62,5.93,10.06,830.580,2047.870,107.199997,35.42,2.5300,363,23444,1.84204,4.02,49695,,,,,,,,,,,,,,,,,,99999,99999,99999,99999,99999,99999,99999,99999,99999,99999,99999,99999
10:41:49,1510795170,2017-11-16T01:19:36,0.726,492.2,8.60,5.94,10.05,830.550,2047.810,106.050003,35.45,2.5301,363,23444,1.83614,4.02,49691,,,,,,,,,,,,,,,,,,99999,99999,99999,99999,99999,99999,99999,99999,99999,99999,99999,99999
10:42:19,1510795200,2017-11-16T01:20:06,0.731,492.5,8.59,5.90,10.05,830.530,2047.770,107.083336,35.00,2.5302,363,23446,1.84884,4.02,49686,,,,,,,,,,,,,,,,,,99999,99999,99999,99999,99999,99999,99999,99999,99999,99999,99999,99999
10:42:49,1510795230,2017-11-16T01:20:36,0.727,492.9,8.57,5.92,10.05,830.530,2047.710,105.050003,35.10,2.5303,363,23444,1.83850,4.02,49682,,,,,,,,,,,,,,,,,,99999,99999,99999,99999,99999,99999,99999,99999,99999,99999,99999,99999
10:43:19,1510795260,2017-11-16T01:21:06,0.727,493.3,8.57,5.93,10.01,830.530,2047.710,106.666664,34.82,2.5303,363,23446,1.83998,4.02,49677,,,,,,,,,,,,,,,,,,99999,99999,99999,99999,99999,99999,99999,99999,99999,99999,99999,99999
10:43:49,1510795290,2017-11-16T01:21:36,0.729,493.6,8.55,5.89,10.02,830.490,2047.640,106.416664,35.57,2.5304,363,23446,1.84588,4.02,49673,,,,,,,,,,,,,,,,,,99999,99999,99999,99999,99999,99999,99999,99999,99999,99999,99999,99999
10:44:19,1510795320,2017-11-16T01:22:06,0.725,494.0,8.55,5.88,10.02,830.460,2047.640,105.516670,34.87,2.5304,363,23445,1.83437,4.02,49668,,,,,,,,,,,,,,,,,,99999,99999,99999,99999,99999,99999,99999,99999,99999,99999,99999,99999
10:44:49,1510795350,2017-11-16T01:22:36,0.728,494.4,8.54,5.89,10.01,830.590,2047.540,106.133331,35.20,2.5304,363,23446,1.84086,4.02,49664,,,,,,,,,,,,,,,,,,99999,99999,99999,99999,99999,99999,99999,99999,99999,99999,99999,99999
10:45:19,1510795380,2017-11-16T01:23:06,0.728,494.7,8.54,5.87,10.01,830.510,2047.540,105.366669,35.20,2.5304,363,23445,1.84263,4.02,49660,,,,,,,,,,,,,,,,,,99999,99999,99999,99999,99999,99999,99999,99999,99999,99999,99999,99999
10:45:49,1510795410,2017-11-16T01:23:36,0.730,495.1,8.53,5.85,9.98,830.520,2047.540,105.750000,35.24,2.5305,363,23444,1.84795,4.02,49655,,,,,,,,,,,,,,,,,,99999,99999,99999,99999,99999,99999,99999,99999,99999,99999,99999,99999
10:46:19,1510795440,2017-11-16T01:24:06,0.732,495.5,8.53,5.89,9.97,830.550,2047.540,106.483330,35.14,2.5305,363,23446,1.85209,4.02,49651,,,,,,,,,,,,,,,,,,99999,99999,99999,99999,99999,99999,99999,99999,99999,99999,99999,99999
10:46:49,1510795470,2017-11-16T01:24:36,0.733,495.8,8.53,5.85,9.98,830.470,2047.540,106.633331,35.01,2.5305,363,23445,1.85447,4.02,49646,,,,,,,,,,,,,,,,,,99999,99999,99999,99999,99999,99999,99999,99999,99999,99999,99999,99999
10:47:19,1510795500,2017-11-16T01:25:06,0.732,496.2,8.52,5.84,9.97,830.520,2047.480,107.483330,35.30,2.5305,363,23445,1.85328,4.02,49642,,,,,,,,,,,,,,,,,,99999,99999,99999,99999,99999,99999,99999,99999,99999,99999,99999,99999
10:47:49,1510795530,2017-11-16T01:25:36,0.733,496.6,8.51,5.85,9.95,830.500,2047.480,107.866669,35.17,2.5306,363,23443,1.85417,4.02,49637,,,,,,,,,,,,,,,,,,99999,99999,99999,99999,99999,99999,99999,99999,99999,99999,99999,99999
10:48:19,1510795560,2017-11-16T01:26:06,0.733,496.9,8.51,5.87,9.94,830.470,2047.480,106.966667,35.25,2.5306,363,23445,1.85595,4.02,49633,,,,,,,,,,,,,,,,,,99999,99999,99999,99999,99999,99999,99999,99999,99999,99999,99999,99999
10:48:49,1510795590,2017-11-16T01:26:36,0.729,497.3,8.50,5.85,9.92,830.470,2047.440,106.433334,35.20,2.5306,363,23442,1.84470,4.02,49629,,,,,,,,,,,,,,,,,,99999,99999,99999,99999,99999,99999,99999,99999,99999,99999,99999,99999
10:49:19,1510795620,2017-11-16T01:27:06,0.729,497.7,8.50,5.87,9.95,830.470,2047.440,107.699997,35.24,2.5306,363,23442,1.84529,4.02,49624,,,,,,,,,,,,,,,,,,99999,99999,99999,99999,99999,99999,99999,99999,99999,99999,99999,99999
10:49:49,1510795650,2017-11-16T01:27:36,0.732,498.0,8.50,5.87,9.95,830.520,2047.440,107.216667,35.24,2.5306,363,23444,1.85209,4.02,49620,,,,,,,,,,,,,,,,,,99999,99999,99999,99999,99999,99999,99999,99999,99999,99999,99999,99999
10:50:19,1510795680,2017-11-16T01:28:06,0.733,498.4,8.49,5.85,9.97,830.530,2047.440,107.349998,35.16,2.5307,363,23442,1.85565,4.02,49615,,,,,,,,,,,,,,,,,,99999,99999,99999,99999,99999,99999,99999,99999,99999,99999,99999,99999
10:50:49,1510795710,2017-11-16T01:28:36,0.730,498.7,8.49,5.85,9.92,830.530,2047.440,107.933334,35.46,2.5307,363,23444,1.84825,4.02,49611,,,,,,,,,,,,,,,,,,99999,99999,99999,99999,99999,99999,99999,99999,99999,99999,99999,99999
10:51:19,1510795740,2017-11-16T01:29:06,0.730,499.1,8.48,5.85,9.94,830.430,2047.370,107.449997,35.97,2.5307,363,23445,1.84854,4.02,49607,,,,,,,,,,,,,,,,,,99999,99999,99999,99999,99999,99999,99999,99999,99999,99999,99999,99999
10:51:49,1510795770,2017-11-16T01:29:36,0.731,499.5,8.48,5.83,9.94,830.480,2047.370,107.566666,35.72,2.5307,363,23442,1.84913,4.02,49602,,,,,,,,,,,,,,,,,,99999,99999,99999,99999,99999,99999,99999,99999,99999,99999,99999,99999
10:52:19,1510795800,2017-11-16T01:30:06,0.726,499.8,8.48,5.81,9.98,830.530,2047.370,108.050003,35.57,2.5307,363,23443,1.83821,4.02,49598,,,,,,,,,,,,,,,,,,99999,99999,99999,99999,99999,99999,99999,99999,99999,99999,99999,99999
10:52:49,1510795830,2017-11-16T01:30:36,0.726,500.2,8.46,5.83,9.92,830.510,2047.310,105.900002,35.58,2.5308,363,23442,1.83732,4.02,49593,,,,,,,,,,,,,,,,,,99999,99999,99999,99999,99999,99999,99999,99999,99999,99999,99999,99999
10:53:19,1510795860,2017-11-16T01:31:06,0.732,500.6,8.47,5.81,9.90,830.590,2047.370,107.683334,36.14,2.5308,363,23443,1.85269,4.02,49589,,,,,,,,,,,,,,,,,,99999,99999,99999,99999,99999,99999,99999,99999,99999,99999,99999,99999
10:53:49,1510795890,2017-11-16T01:31:36,0.727,500.9,8.46,5.81,9.90,830.510,2047.310,106.266670,35.97,2.5308,363,23441,1.83909,4.02,49584,,,,,,,,,,,,,,,,,,99999,99999,99999,99999,99999,99999,99999,99999,99999,99999,99999,99999
10:54:19,1510795920,2017-11-16T01:32:06,0.732,501.3,8.45,5.84,9.89,830.480,2047.310,106.066666,35.05,2.5309,363,23443,1.85150,4.02,49580,,,,,,,,,,,,,,,,,,99999,99999,99999,99999,99999,99999,99999,99999,99999,99999,99999,99999
10:54:49,1510795950,2017-11-16T01:32:36,0.725,501.7,8.44,5.80,9.88,830.510,2047.210,105.050003,35.31,2.5309,363,23442,1.83467,4.02,49576,,,,,,,,,,,,,,,,,,99999,99999,99999,99999,99999,99999,99999,99999,99999,99999,99999,99999
10:55:19,1510795980,2017-11-16T01:33:06,0.725,502.0,8.44,5.82,9.89,830.540,2047.210,104.516670,35.72,2.5308,363,23442,1.83467,4.02,49571,,,,,,,,,,,,,,,,,,99999,99999,99999,99999,99999,99999,99999,99999,99999,99999,99999,99999
10:55:49,1510796010,2017-11-16T01:33:36,0.725,502.4,8.44,5.78,9.92,830.460,2047.210,105.599998,35.15,2.5309,363,23441,1.83437,4.02,49567,,,,,,,,,,,,,,,,,,99999,99999,99999,99999,99999,99999,99999,99999,99999,99999,99999,99999
10:56:19,1510796040,2017-11-16T01:34:06,0.728,502.8,8.44,5.80,9.90,830.490,2047.210,105.900002,34.81,2.5309,363,23444,1.84175,4.02,49562,,,,,,,,,,,,,,,,,,99999,99999,99999,99999,99999,99999,99999,99999,99999,99999,99999,99999
10:56:49,1510796070,2017-11-16T01:34:36,0.733,503.1,8.44,5.79,9.90,830.490,2047.210,107.216667,35.28,2.5309,363,23442,1.85387,4.02,49558,,,,,,,,,,,,,,,,,,99999,99999,99999,99999,99999,99999,99999,99999,99999,99999,99999,99999
10:57:19,1510796100,2017-11-16T01:35:06,0.730,503.5,8.44,5.78,9.89,830.490,2047.210,107.550003,36.92,2.5308,363,23441,1.84795,4.02,49553,,,,,,,,,,,,,,,,,,99999,99999,99999,99999,99999,99999,99999,99999,99999,99999,99999,99999
10:57:49,1510796130,2017-11-16T01:35:36,0.726,503.8,8.44,5.77,9.89,830.570,2047.210,106.583336,36.64,2.5308,363,23444,1.83791,4.02,49549,,,,,,,,,,,,,,,,,,99999,99999,99999,99999,99999,99999,99999,99999,99999,99999,99999,99999
10:58:19,1510796160,2017-11-16T01:36:06,0.726,504.2,8.44,5.78,9.89,830.440,2047.210,106.900002,36.49,2.5308,363,23440,1.83821,4.02,49545,,,,,,,,,,,,,,,,,,99999,99999,99999,99999,99999,99999,99999,99999,99999,99999,99999,99999
10:58:49,1510796190,2017-11-16T01:36:36,0.725,504.6,8.43,5.79,9.89,830.490,2047.210,106.699997,35.86,2.5309,363,23443,1.83555,4.02,49540,,,,,,,,,,,,,,,,,,99999,99999,99999,99999,99999,99999,99999,99999,99999,99999,99999,99999
10:59:19,1510796220,2017-11-16T01:37:06,0.729,504.9,8.42,5.77,9.89,830.440,2047.210,104.449997,35.62,2.5310,363,23443,1.84559,4.02,49536,,,,,,,,,,,,,,,,,,99999,99999,99999,99999,99999,99999,99999,99999,99999,99999,99999,99999
10:59:49,1510796250,2017-11-16T01:37:36,0.732,505.3,8.42,5.74,9.89,830.550,2047.210,107.400002,36.22,2.5310,363,23443,1.85150,4.02,49531,,,,,,,,,,,,,,,,,,99999,99999,99999,99999,99999,99999,99999,99999,99999,99999,99999,99999
11:00:19,1510796280,2017-11-16T01:38:06,0.732,505.7,8.42,5.76,9.88,830.490,2047.210,107.500000,35.37,2.5310,363,23442,1.85269,4.02,49527,,,,,,,,,,,,,,,,,,99999,99999,99999,99999,99999,99999,99999,99999,99999,99999,99999,99999
11:00:49,1510796310,2017-11-16T01:38:36,0.732,506.0,8.41,5.75,9.88,830.600,2047.100,107.266670,35.67,2.5310,363,23441,1.85239,4.02,49523,,,,,,,,,,,,,,,,,,99999,99999,99999,99999,99999,99999,99999,99999,99999,99999,99999,99999
11:01:19,1510796340,2017-11-16T01:39:06,0.732,506.4,8.41,5.76,9.89,830.540,2047.100,107.699997,35.08,2.5310,363,23441,1.85239,4.02,49518,,,,,,,,,,,,,,,,,,99999,99999,99999,99999,99999,99999,99999,99999,99999,99999,99999,99999
11:01:49,1510796370,2017-11-16T01:39:36,0.733,506.8,8.40,5.75,9.86,830.470,2047.040,107.933334,35.14,2.5310,363,23440,1.85476,4.02,49514,,,,,,,,,,,,,,,,,,99999,99999,99999,99999,99999,99999,99999,99999,99999,99999,99999,99999
11:02:19,1510796400,2017-11-16T01:40:06,0.727,507.1,8.41,5.79,9.86,830.650,2047.100,106.349998,35.35,2.5310,363,23438,1.83968,4.02,49509,,,,,,,,,,,,,,,,,,99999,99999,99999,99999,99999,99999,99999,99999,99999,99999,99999,99999
11:02:49,1510796430,2017-11-16T01:40:36,0.725,507.5,8.39,5.73,9.86,830.500,2047.040,105.683334,35.26,2.5311,363,23440,1.83408,4.02,49505,,,,,,,,,,,,,,,,,,99999,99999,99999,99999,99999,99999,99999,99999,99999,99999,99999,99999
11:03:19,1510796460,2017-11-16T01:41:06,0.730,507.9,8.40,5.74,9.86,830.520,2047.040,106.783333,35.26,2.5310,363,23440,1.84707,4.02,49500,,,,,,,,,,,,,,,,,,99999,99999,99999,99999,99999,99999,99999,99999,99999,99999,99999,99999
11:03:49,1510796490,2017-11-16T01:41:36,0.733,508.2,8.40,5.77,9.86,830.420,2047.040,108.133331,35.61,2.5310,363,23439,1.85506,4.02,49496,,,,,,,,,,,,,,,,,,99999,99999,99999,99999,99999,99999,99999,99999,99999,99999,99999,99999
11:04:19,1510796520,2017-11-16T01:42:06,0.725,508.6,8.40,5.73,9.88,830.470,2047.040,104.849998,35.26,2.5310,363,23440,1.83555,4.02,49492,,,,,,,,,,,,,,,,,,99999,99999,99999,99999,99999,99999,99999,99999,99999,99999,99999,99999
11:04:49,1510796550,2017-11-16T01:42:36,0.731,509.0,8.39,5.74,9.86,830.440,2047.040,108.183334,35.26,2.5311,363,23440,1.85150,4.02,49487,,,,,,,,,,,,,,,,,,99999,99999,99999,99999,99999,99999,99999,99999,99999,99999,99999,99999
11:05:19,1510796580,2017-11-16T01:43:06,0.725,509.3,8.41,5.73,9.86,830.460,2047.100,106.766670,34.93,2.5310,363,23440,1.83614,4.02,49483,,,,,,,,,,,,,,,,,,99999,99999,99999,99999,99999,99999,99999,99999,99999,99999,99999,99999
11:05:49,1510796610,2017-11-16T01:43:36,0.730,509.7,8.41,5.72,9.84,830.460,2047.100,106.583336,35.22,2.5310,363,23438,1.84707,4.02,49478,,,,,,,,,,,,,,,,,,99999,99999,99999,99999,99999,99999,99999,99999,99999,99999,99999,99999
11:06:19,1510796640,2017-11-16T01:44:06,0.731,510.0,8.41,5.73,9.84,830.410,2047.100,108.400002,35.27,2.5310,363,23439,1.85091,4.02,49474,,,,,,,,,,,,,,,,,,99999,99999,99999,99999,99999,99999,99999,99999,99999,99999,99999,99999
11:06:49,1510796670,2017-11-16T01:44:36,0.723,510.4,8.39,5.73,9.89,830.360,2047.040,106.683334,35.17,2.5311,363,23439,1.82996,4.02,49470,,,,,,,,,,,,,,,,,,99999,99999,99999,99999,99999,99999,99999,99999,99999,99999,99999,99999
11:07:19,1510796700,2017-11-16T01:45:06,0.733,510.8,8.39,5.73,9.84,830.390,2047.040,106.966667,35.28,2.5311,363,23439,1.85536,4.02,49465,,,,,,,,,,,,,,,,,,99999,99999,99999,99999,99999,99999,99999,99999,99999,99999,99999,99999
11:07:49,1510796730,2017-11-16T01:45:36,0.725,511.1,8.41,5.73,9.86,830.390,2047.100,105.716667,36.60,2.5309,363,23440,1.83555,4.02,49461,,,,,,,,,,,,,,,,,,99999,99999,99999,99999,99999,99999,99999,99999,99999,99999,99999,99999
11:08:19,1510796760,2017-11-16T01:46:06,0.728,511.5,8.41,5.70,9.88,830.440,2047.100,106.400002,36.58,2.5309,363,23440,1.84175,4.02,49456,,,,,,,,,,,,,,,,,,99999,99999,99999,99999,99999,99999,99999,99999,99999,99999,99999,99999
11:08:49,1510796790,2017-11-16T01:46:36,0.726,511.9,8.39,5.72,9.84,830.360,2047.040,105.866669,35.93,2.5311,363,23442,1.83850,4.02,49452,,,,,,,,,,,,,,,,,,99999,99999,99999,99999,99999,99999,99999,99999,99999,99999,99999,99999
11:09:19,1510796820,2017-11-16T01:47:06,0.724,512.2,8.39,5.69,9.82,830.390,2047.040,105.916664,36.16,2.5311,363,23439,1.83143,4.02,49447,,,,,,,,,,,,,,,,,,99999,99999,99999,99999,99999,99999,99999,99999,99999,99999,99999,99999
11:09:49,1510796850,2017-11-16T01:47:36,0.726,512.6,8.37,5.69,9.82,830.370,2046.970,104.716667,36.21,2.5312,363,23439,1.83791,4.02,49443,,,,,,,,,,,,,,,,,,99999,99999,99999,99999,99999,99999,99999,99999,99999,99999,99999,99999
11:10:19,1510796880,2017-11-16T01:48:06,0.732,513.0,8.36,5.71,9.82,830.240,2046.940,108.166664,36.13,2.5312,363,23438,1.85209,4.02,49439,,,,,,,,,,,,,,,,,,99999,99999,99999,99999,99999,99999,99999,99999,99999,99999,99999,99999
11:10:49,1510796910,2017-11-16T01:48:36,0.727,513.3,8.36,5.70,9.82,830.270,2046.940,107.650002,36.38,2.5312,363,23437,1.84086,4.02,49434,,,,,,,,,,,,,,,,,,99999,99999,99999,99999,99999,99999,99999,99999,99999,99999,99999,99999
11:11:19,1510796940,2017-11-16T01:49:06,0.730,513.7,8.35,5.67,9.81,830.300,2046.940,106.099998,36.20,2.5313,363,23437,1.84766,4.02,49430,,,,,,,,,,,,,,,,,,99999,99999,99999,99999,99999,99999,99999,99999,99999,99999,99999,99999
11:11:49,1510796970,2017-11-16T01:49:36,0.724,514.1,8.33,5.67,9.80,830.250,2046.870,105.800003,36.46,2.5314,363,23438,1.83261,4.01,49425,,,,,,,,,,,,,,,,,,99999,99999,99999,99999,99999,99999,99999,99999,99999,99999,99999,99999
11:12:19,1510797000,2017-11-16T01:50:06,0.732,514.4,8.33,5.66,9.76,830.280,2046.870,108.083336,36.34,2.5314,363,23439,1.85269,4.01,49421,,,,,,,,,,,,,,,,,,99999,99999,99999,99999,99999,99999,99999,99999,99999,99999,99999,99999
11:12:49,1510797030,2017-11-16T01:50:36,0.724,514.8,8.32,5.66,9.80,830.330,2046.810,105.400002,36.13,2.5314,363,23438,1.83349,4.01,49417,,,,,,,,,,,,,,,,,,99999,99999,99999,99999,99999,99999,99999,99999,99999,99999,99999,99999
11:13:19,1510797060,2017-11-16T01:51:06,0.729,515.1,8.31,5.62,9.76,830.330,2046.810,106.216667,35.95,2.5315,363,23439,1.84441,4.01,49412,,,,,,,,,,,,,,,,,,99999,99999,99999,99999,99999,99999,99999,99999,99999,99999,99999,99999
11:13:49,1510797090,2017-11-16T01:51:36,0.730,515.5,8.31,5.63,9.74,830.280,2046.810,107.366669,36.03,2.5315,363,23438,1.84766,4.01,49408,,,,,,,,,,,,,,,,,,99999,99999,99999,99999,99999,99999,99999,99999,99999,99999,99999,99999
11:14:19,1510797120,2017-11-16T01:52:06,0.724,515.9,8.30,5.63,9.74,830.360,2046.770,106.183334,36.16,2.5316,363,23440,1.83349,4.01,49403,,,,,,,,,,,,,,,,,,99999,99999,99999,99999,99999,99999,99999,99999,99999,99999,99999,99999
11:14:49,1510797150,2017-11-16T01:52:36,0.731,516.2,8.29,5.59,9.73,830.340,2046.770,107.150002,35.92,2.5317,363,23437,1.85061,4.01,49399,,,,,,,,,,,,,,,,,,99999,99999,99999,99999,99999,99999,99999,99999,99999,99999,99999,99999
11:15:19,1510797180,2017-11-16T01:53:06,0.723,516.6,8.28,5.61,9.74,830.340,2046.640,104.650002,36.15,2.5316,363,23437,1.83143,4.01,49394,,,,,,,,,,,,,,,,,,99999,99999,99999,99999,99999,99999,99999,99999,99999,99999,99999,99999
11:15:49,1510797210,2017-11-16T01:53:36,0.725,517.0,8.27,5.59,9.72,830.320,2046.640,106.449997,36.33,2.5317,363,23436,1.83496,4.01,49390,,,,,,,,,,,,,,,,,,99999,99999,99999,99999,99999,99999,99999,99999,99999,99999,99999,99999
11:16:19,1510797240,2017-11-16T01:54:06,0.727,517.3,8.26,5.59,9.72,830.340,2046.600,106.616669,36.38,2.5317,363,23437,1.83968,4.01,49386,,,,,,,,,,,,,,,,,,99999,99999,99999,99999,99999,99999,99999,99999,99999,99999,99999,99999
11:16:49,1510797270,2017-11-16T01:54:36,0.724,517.7,8.25,5.61,9.72,830.220,2046.600,105.500000,36.35,2.5318,363,23435,1.83408,4.01,49381,,,,,,,,,,,,,,,,,,99999,99999,99999,99999,99999,99999,99999,99999,99999,99999,99999,99999
11:17:19,1510797300,2017-11-16T01:55:06,0.732,518.1,8.24,5.58,9.73,830.240,2046.540,107.050003,36.80,2.5318,363,23435,1.85239,4.01,49377,,,,,,,,,,,,,,,,,,99999,99999,99999,99999,99999,99999,99999,99999,99999,99999,99999,99999
11:17:49,1510797330,2017-11-16T01:55:36,0.724,518.4,8.22,5.58,9.66,830.250,2046.470,105.116669,36.51,2.5319,363,23436,1.83261,4.01,49372,,,,,,,,,,,,,,,,,,99999,99999,99999,99999,99999,99999,99999,99999,99999,99999,99999,99999
11:18:19,1510797360,2017-11-16T01:56:06,0.723,518.8,8.22,5.55,9.73,830.270,2046.470,106.166664,36.49,2.5319,363,23433,1.83055,4.01,49368,,,,,,,,,,,,,,,,,,99999,99999,99999,99999,99999,99999,99999,99999,99999,99999,99999,99999
11:18:49,1510797390,2017-11-16T01:56:36,0.724,519.1,8.21,5.52,9.68,830.200,2046.470,105.283333,36.56,2.5320,363,23434,1.83202,4.01,49364,,,,,,,,,,,,,,,,,,99999,99999,99999,99999,99999,99999,99999,99999,99999,99999,99999,99999
11:19:19,1510797420,2017-11-16T01:57:06,0.724,519.5,8.20,5.53,9.66,830.230,2046.430,106.333336,36.21,2.5320,363,23433,1.83437,4.01,49359,,,,,,,,,,,,,,,,,,99999,99999,99999,99999,99999,99999,99999,99999,99999,99999,99999,99999
11:19:49,1510797450,2017-11-16T01:57:36,0.729,519.9,8.19,5.55,9.61,830.180,2046.370,107.033333,36.26,2.5321,363,23436,1.84470,4.01,49355,,,,,,,,,,,,,,,,,,99999,99999,99999,99999,99999,99999,99999,99999,99999,99999,99999,99999
11:20:19,1510797480,2017-11-16T01:58:06,0.727,520.2,8.18,5.49,9.65,830.180,2046.370,106.783333,36.25,2.5322,363,23434,1.84116,4.01,49350,,,,,,,,,,,,,,,,,,99999,99999,99999,99999,99999,99999,99999,99999,99999,99999,99999,99999
11:20:49,1510797510,2017-11-16T01:58:36,0.723,520.6,8.15,5.49,9.61,830.160,2046.200,105.166664,36.13,2.5322,363,23431,1.83173,4.01,49346,,,,,,,,,,,,,,,,,,99999,99999,99999,99999,99999,99999,99999,99999,99999,99999,99999,99999
11:21:19,1510797540,2017-11-16T01:59:06,0.724,521.0,8.15,5.49,9.59,830.210,2046.200,104.933334,35.91,2.5322,363,23431,1.83379,4.01,49342,,,,,,,,,,,,,,,,,,99999,99999,99999,99999,99999,99999,99999,99999,99999,99999,99999,99999
11:21:49,1510797570,2017-11-16T01:59:36,0.727,521.3,8.14,5.46,9.60,830.140,2046.200,105.883331,36.28,2.5323,363,23431,1.84175,4.01,49337,,,,,,,,,,,,,,,,,,99999,99999,99999,99999,99999,99999,99999,99999,99999,99999,99999,99999
11:22:19,1510797600,2017-11-16T02:00:06,0.731,521.7,8.13,5.47,9.55,830.320,2046.140,105.550003,36.77,2.5323,363,23430,1.85002,4.01,49333,,,,,,,,,,,,,,,,,,99999,99999,99999,99999,99999,99999,99999,99999,99999,99999,99999,99999
11:22:49,1510797630,2017-11-16T02:00:36,0.730,522.1,8.11,5.48,9.57,830.180,2046.100,105.016670,36.70,2.5324,363,23429,1.84854,4.01,49328,,,,,,,,,,,,,,,,,,99999,99999,99999,99999,99999,99999,99999,99999,99999,99999,99999,99999
11:23:19,1510797660,2017-11-16T02:01:06,0.729,522.4,8.11,5.46,9.60,830.150,2046.100,106.666664,36.78,2.5324,363,23430,1.84707,4.01,49324,,,,,,,,,,,,,,,,,,99999,99999,99999,99999,99999,99999,99999,99999,99999,99999,99999,99999
11:23:49,1510797690,2017-11-16T02:01:36,0.731,522.8,8.08,5.45,9.53,830.150,2046.040,106.300003,36.75,2.5326,363,23428,1.85150,4.01,49319,,,,,,,,,,,,,,,,,,99999,99999,99999,99999,99999,99999,99999,99999,99999,99999,99999,99999
11:24:19,1510797720,2017-11-16T02:02:06,0.730,523.1,8.08,5.43,9.55,830.130,2046.040,106.133331,36.54,2.5326,363,23428,1.84913,4.01,49315,,,,,,,,,,,,,,,,,,99999,99999,99999,99999,99999,99999,99999,99999,99999,99999,99999,99999
11:24:49,1510797750,2017-11-16T02:02:36,0.723,523.5,8.07,5.42,9.57,830.180,2045.970,104.533333,36.99,2.5326,363,23429,1.83114,4.01,49311,,,,,,,,,,,,,,,,,,99999,99999,99999,99999,99999,99999,99999,99999,99999,99999,99999,99999
11:25:19,1510797780,2017-11-16T02:03:06,0.730,523.9,8.07,5.42,9.52,830.180,2045.970,107.150002,36.98,2.5326,363,23428,1.84973,4.01,49306,,,,,,,,,,,,,,,,,,99999,99999,99999,99999,99999,99999,99999,99999,99999,99999,99999,99999
11:25:49,1510797810,2017-11-16T02:03:36,0.727,524.2,8.06,5.42,9.53,830.290,2045.930,105.616669,36.40,2.5327,363,23428,1.84204,4.01,49302,,,,,,,,,,,,,,,,,,99999,99999,99999,99999,99999,99999,99999,99999,99999,99999,99999,99999
11:26:19,1510797840,2017-11-16T02:04:06,0.725,524.6,8.05,5.43,9.48,830.110,2045.910,105.266670,35.88,2.5328,363,23429,1.83732,4.01,49297,,,,,,,,,,,,,,,,,,99999,99999,99999,99999,99999,99999,99999,99999,99999,99999,99999,99999
11:26:49,1510797870,2017-11-16T02:04:36,0.729,525.0,8.05,5.37,9.52,830.240,2045.910,106.550003,35.97,2.5328,363,23427,1.84736,4.01,49293,,,,,,,,,,,,,,,,,,99999,99999,99999,99999,99999,99999,99999,99999,99999,99999,99999,99999
11:27:19,1510797900,2017-11-16T02:05:06,0.728,525.3,8.04,5.38,9.51,830.050,2045.870,107.166664,36.00,2.5328,363,23429,1.84411,4.01,49289,,,,,,,,,,,,,,,,,,99999,99999,99999,99999,99999,99999,99999,99999,99999,99999,99999,99999
11:27:49,1510797930,2017-11-16T02:05:36,0.723,525.7,8.04,5.38,9.52,830.190,2045.870,104.949997,35.97,2.5328,363,23430,1.83143,4.01,49284,,,,,,,,,,,,,,,,,,99999,99999,99999,99999,99999,99999,99999,99999,99999,99999,99999,99999
11:28:19,1510797960,2017-11-16T02:06:06,0.729,526.1,8.05,5.38,9.53,830.160,2045.910,106.516670,36.16,2.5328,363,23429,1.84707,4.01,49280,,,,,,,,,,,,,,,,,,99999,99999,99999,99999,99999,99999,99999,99999,99999,99999,99999,99999
11:28:49,1510797990,2017-11-16T02:06:36,0.724,526.4,8.04,5.38,9.48,830.130,2045.870,105.883331,36.27,2.5328,363,23429,1.83408,4.01,49275,,,,,,,,,,,,,,,,,,99999,99999,99999,99999,99999,99999,99999,99999,99999,99999,99999,99999
11:29:19,1510798020,2017-11-16T02:07:06,0.729,526.8,8.04,5.36,9.51,830.160,2045.870,106.016670,36.23,2.5328,363,23428,1.84618,4.01,49271,,,,,,,,,,,,,,,,,,99999,99999,99999,99999,99999,99999,99999,99999,99999,99999,99999,99999
11:29:49,1510798050,2017-11-16T02:07:36,0.726,527.1,8.05,5.39,9.48,830.130,2045.910,106.816666,36.17,2.5328,363,23430,1.83968,4.01,49267,,,,,,,,,,,,,,,,,,99999,99999,99999,99999,99999,99999,99999,99999,99999,99999,99999,99999
11:30:19,1510798080,2017-11-16T02:08:06,0.725,527.5,8.05,5.37,9.51,830.110,2045.910,104.550003,36.07,2.5328,363,23429,1.83644,4.01,49262,,,,,,,,,,,,,,,,,,99999,99999,99999,99999,99999,99999,99999,99999,99999,99999,99999,99999
11:30:49,1510798110,2017-11-16T02:08:36,0.730,527.9,8.05,5.39,9.51,830.050,2045.910,107.316666,35.78,2.5328,363,23430,1.84795,4.01,49258,,,,,,,,,,,,,,,,,,99999,99999,99999,99999,99999,99999,99999,99999,99999,99999,99999,99999
11:31:19,1510798140,2017-11-16T02:09:06,0.722,528.2,8.06,5.37,9.47,830.080,2045.930,105.466667,35.53,2.5327,363,23431,1.82908,4.01,49253,,,,,,,,,,,,,,,,,,99999,99999,99999,99999,99999,99999,99999,99999,99999,99999,99999,99999
11:31:49,1510798170,2017-11-16T02:09:36,0.725,528.6,8.07,5.38,9.52,830.130,2045.970,105.150002,35.76,2.5327,363,23430,1.83673,4.01,49249,,,,,,,,,,,,,,,,,,99999,99999,99999,99999,99999,99999,99999,99999,99999,99999,99999,99999
11:32:19,1510798200,2017-11-16T02:10:06,0.730,529.0,8.06,5.39,9.51,830.100,2045.930,107.250000,36.11,2.5327,363,23431,1.84854,4.01,49244,,,,,,,,,,,,,,,,,,99999,99999,99999,99999,99999,99999,99999,99999,99999,99999,99999,99999
11:32:49,1510798230,2017-11-16T02:10:36,0.724,529.3,8.07,5.39,9.53,830.050,2045.970,105.483330,35.97,2.5327,363,23429,1.83349,4.01,49240,,,,,,,,,,,,,,,,,,99999,99999,99999,99999,99999,99999,99999,99999,99999,99999,99999,99999
11:33:19,1510798260,2017-11-16T02:11:06,0.729,529.7,8.07,5.37,9.51,830.050,2045.970,106.233330,36.26,2.5327,363,23430,1.84707,4.01,49236,,,,,,,,,,,,,,,,,,99999,99999,99999,99999,99999,99999,99999,99999,99999,99999,99999,99999
11:33:49,1510798290,2017-11-16T02:11:36,0.727,530.0,8.07,5.36,9.52,830.080,2045.970,106.849998,35.67,2.5327,363,23430,1.84145,4.01,49231,,,,,,,,,,,,,,,,,,99999,99999,99999,99999,99999,99999,99999,99999,99999,99999,99999,99999
11:34:19,1510798320,2017-11-16T02:12:06,0.722,530.4,8.07,5.37,9.53,830.000,2045.970,104.933334,35.54,2.5327,363,23432,1.82937,4.01,49227,,,,,,,,,,,,,,,,,,99999,99999,99999,99999,99999,99999,99999,99999,99999,99999,99999,99999
11:34:49,1510798350,2017-11-16T02:12:36,0.724,530.8,8.08,5.37,9.52,830.020,2046.040,105.033333,37.46,2.5326,363,23430,1.83320,4.01,49222,,,,,,,,,,,,,,,,,,99999,99999,99999,99999,99999,99999,99999,99999,99999,99999,99999,99999
11:35:19,1510798380,2017-11-16T02:13:06,0.723,531.1,8.08,5.36,9.52,830.070,2046.040,104.050003,36.32,2.5327,363,23430,1.83173,4.01,49218,,,,,,,,,,,,,,,,,,99999,99999,99999,99999,99999,99999,99999,99999,99999,99999,99999,99999
11:35:49,1510798410,2017-11-16T02:13:36,0.724,531.5,8.08,5.38,9.52,830.100,2046.040,104.000000,36.84,2.5326,363,23431,1.83290,4.01,49214,,,,,,,,,,,,,,,,,,99999,99999,99999,99999,99999,99999,99999,99999,99999,99999,99999,99999
11:36:19,1510798440,2017-11-16T02:14:06,0.730,531.9,8.08,5.36,9.51,830.050,2046.040,106.150002,36.94,2.5326,363,23431,1.84795,4.01,49209,,,,,,,,,,,,,,,,,,99999,99999,99999,99999,99999,99999,99999,99999,99999,99999,99999,99999
11:36:49,1510798470,2017-11-16T02:14:36,0.730,532.2,8.07,5.32,9.52,830.100,2045.970,106.633331,36.93,2.5326,363,23428,1.84795,4.01,49205,,,,,,,,,,,,,,,,,,99999,99999,99999,99999,99999,99999,99999,99999,99999,99999,99999,99999
11:37:19,1510798500,2017-11-16T02:15:06,0.723,532.6,8.07,5.36,9.51,830.290,2045.970,105.233330,37.19,2.5326,363,23428,1.83026,4.01,49200,,,,,,,,,,,,,,,,,,99999,99999,99999,99999,99999,99999,99999,99999,99999,99999,99999,99999
11:37:49,1510798530,2017-11-16T02:15:36,0.722,533.0,8.05,5.36,9.52,830.160,2045.910,104.533333,36.32,2.5328,363,23425,1.82849,4.01,49196,,,,,,,,,,,,,,,,,,99999,99999,99999,99999,99999,99999,99999,99999,99999,99999,99999,99999
11:38:19,1510798560,2017-11-16T02:16:06,0.724,533.3,8.06,5.33,9.48,830.130,2045.930,106.150002,36.23,2.5327,363,23429,1.83437,4.01,49192,,,,,,,,,,,,,,,,,,99999,99999,99999,99999,99999,99999,99999,99999,99999,99999,99999,99999
11:38:49,1510798590,2017-11-16T02:16:36,0.729,533.7,8.05,5.31,9.48,830.160,2045.910,106.849998,36.21,2.5328,363,23430,1.84588,4.01,49187,,,,,,,,,,,,,,,,,,99999,99999,99999,99999,99999,99999,99999,99999,99999,99999,99999,99999
11:39:19,1510798620,2017-11-16T02:17:06,0.730,534.0,8.05,5.32,9.48,830.160,2045.910,107.233330,36.57,2.5328,363,23428,1.84854,4.01,49183,,,,,,,,,,,,,,,,,,99999,99999,99999,99999,99999,99999,99999,99999,99999,99999,99999,99999
11:39:49,1510798650,2017-11-16T02:17:36,0.727,534.4,8.05,5.36,9.51,830.190,2045.910,106.083336,36.66,2.5327,363,23428,1.84027,4.01,49178,,,,,,,,,,,,,,,,,,99999,99999,99999,99999,99999,99999,99999,99999,99999,99999,99999,99999
11:40:19,1510798680,2017-11-16T02:18:06,0.727,534.8,8.04,5.33,9.47,830.190,2045.870,106.849998,36.69,2.5328,363,23428,1.84116,4.01,49174,,,,,,,,,,,,,,,,,,99999,99999,99999,99999,99999,99999,99999,99999,99999,99999,99999,99999
11:40:49,1510798710,2017-11-16T02:18:36,0.722,535.1,8.03,5.33,9.52,830.110,2045.870,104.616669,36.49,2.5329,363,23427,1.82820,4.01,49169,,,,,,,,,,,,,,,,,,99999,99999,99999,99999,99999,99999,99999,99999,99999,99999,99999,99999
11:41:19,1510798740,2017-11-16T02:19:06,0.726,535.5,8.03,5.29,9.51,830.140,2045.870,105.933334,36.22,2.5329,363,23426,1.83821,4.01,49165,,,,,,,,,,,,,,,,,,99999,99999,99999,99999,99999,99999,99999,99999,99999,99999,99999,99999
11:41:49,1510798770,2017-11-16T02:19:36,0.729,535.9,8.02,5.31,9.48,830.110,2045.770,106.849998,36.51,2.5329,363,23425,1.84736,4.01,49161,,,,,,,,,,,,,,,,,,99999,99999,99999,99999,99999,99999,99999,99999,99999,99999,99999,99999
11:42:19,1510798800,2017-11-16T02:20:06,0.722,536.2,8.01,5.29,9.45,830.140,2045.770,104.766670,36.27,2.5330,363,23426,1.82908,4.01,49156,,,,,,,,,,,,,,,,,,99999,99999,99999,99999,99999,99999,99999,99999,99999,99999,99999,99999
11:42:49,1510798830,2017-11-16T02:20:36,0.729,536.6,7.99,5.32,9.45,830.120,2045.700,106.983330,36.66,2.5330,363,23425,1.84677,4.01,49152,,,,,,,,,,,,,,,,,,99999,99999,99999,99999,99999,99999,99999,99999,99999,99999,99999,99999
11:43:19,1510798860,2017-11-16T02:21:06,0.723,536.9,7.99,5.32,9.43,830.120,2045.700,105.516670,37.19,2.5330,363,23423,1.83231,4.01,49147,,,,,,,,,,,,,,,,,,99999,99999,99999,99999,99999,99999,99999,99999,99999,99999,99999,99999
11:43:49,1510798890,2017-11-16T02:21:36,0.730,537.3,7.99,5.32,9.43,830.040,2045.700,106.983330,37.32,2.5330,363,23424,1.84943,4.01,49143,,,,,,,,,,,,,,,,,,99999,99999,99999,99999,99999,99999,99999,99999,99999,99999,99999,99999
11:44:19,1510798920,2017-11-16T02:22:06,0.721,537.7,7.99,5.28,9.40,830.040,2045.700,105.349998,37.23,2.5330,363,23426,1.82732,4.01,49139,,,,,,,,,,,,,,,,,,99999,99999,99999,99999,99999,99999,99999,99999,99999,99999,99999,99999
11:44:49,1510798950,2017-11-16T02:22:36,0.729,538.0,7.97,5.29,9.39,830.070,2045.640,106.166664,37.32,2.5331,363,23422,1.84766,4.01,49134,,,,,,,,,,,,,,,,,,99999,99999,99999,99999,99999,99999,99999,99999,99999,99999,99999,99999
11:45:19,1510798980,2017-11-16T02:23:06,0.724,538.4,7.96,5.26,9.39,830.000,2045.580,104.800003,37.26,2.5331,363,23424,1.83320,4.01,49130,,,,,,,,,,,,,,,,,,99999,99999,99999,99999,99999,99999,99999,99999,99999,99999,99999,99999
11:45:49,1510799010,2017-11-16T02:23:36,0.726,538.8,7.95,5.25,9.39,830.000,2045.540,106.533333,37.13,2.5332,363,23426,1.83791,4.01,49125,,,,,,,,,,,,,,,,,,99999,99999,99999,99999,99999,99999,99999,99999,99999,99999,99999,99999
11:46:19,1510799040,2017-11-16T02:24:06,0.730,539.1,7.93,5.26,9.38,830.110,2045.470,106.783333,36.87,2.5333,363,23423,1.84854,4.01,49121,,,,,,,,,,,,,,,,,,99999,99999,99999,99999,99999,99999,99999,99999,99999,99999,99999,99999
11:46:49,1510799070,2017-11-16T02:24:36,0.729,539.5,7.93,5.20,9.38,829.980,2045.470,106.666664,37.02,2.5333,363,23423,1.84559,4.01,49117,,,,,,,,,,,,,,,,,,99999,99999,99999,99999,99999,99999,99999,99999,99999,99999,99999,99999
11:47:19,1510799100,2017-11-16T02:25:06,0.730,539.8,7.91,5.23,9.32,829.980,2045.410,106.349998,37.06,2.5334,363,23421,1.84913,4.01,49112,,,,,,,,,,,,,,,,,,99999,99999,99999,99999,99999,99999,99999,99999,99999,99999,99999,99999
11:47:49,1510799130,2017-11-16T02:25:36,0.723,540.2,7.90,5.21,9.36,830.140,2045.410,104.300003,37.08,2.5335,363,23424,1.83084,4.01,49108,,,,,,,,,,,,,,,,,,99999,99999,99999,99999,99999,99999,99999,99999,99999,99999,99999,99999
11:48:19,1510799160,2017-11-16T02:26:06,0.727,540.6,7.89,5.17,9.31,830.140,2045.310,105.599998,37.45,2.5334,363,23423,1.84145,4.01,49103,,,,,,,,,,,,,,,,,,99999,99999,99999,99999,99999,99999,99999,99999,99999,99999,99999,99999
11:48:49,1510799190,2017-11-16T02:26:36,0.726,540.9,7.88,5.20,9.36,830.120,2045.310,107.216667,37.48,2.5335,363,23426,1.83939,4.01,49099,,,,,,,,,,,,,,,,,,99999,99999,99999,99999,99999,99999,99999,99999,99999,99999,99999,99999
11:49:19,1510799220,2017-11-16T02:27:06,0.722,541.3,7.86,5.16,9.31,830.230,2045.240,104.616669,37.04,2.5336,363,23424,1.82878,4.01,49094,,,,,,,,,,,,,,,,,,99999,99999,99999,99999,99999,99999,99999,99999,99999,99999,99999,99999
11:49:49,1510799250,2017-11-16T02:27:36,0.723,541.7,7.85,5.17,9.24,830.150,2045.200,105.683334,37.25,2.5337,363,23422,1.83173,4.01,49090,,,,,,,,,,,,,,,,,,99999,99999,99999,99999,99999,99999,99999,99999,99999,99999,99999,99999
11:50:19,1510799280,2017-11-16T02:28:06,0.723,542.0,7.83,5.16,9.26,830.210,2045.140,104.033333,37.25,2.5338,363,23423,1.83114,4.01,49086,,,,,,,,,,,,,,,,,,99999,99999,99999,99999,99999,99999,99999,99999,99999,99999,99999,99999
11:50:49,1510799310,2017-11-16T02:28:36,0.726,542.4,7.80,5.14,9.26,830.140,2045.040,106.500000,37.22,2.5339,363,23422,1.83998,4.01,49081,,,,,,,,,,,,,,,,,,99999,99999,99999,99999,99999,99999,99999,99999,99999,99999,99999,99999
11:51:19,1510799340,2017-11-16T02:29:06,0.727,542.7,7.80,5.15,9.24,830.190,2045.040,106.300003,37.28,2.5339,363,23421,1.84145,4.01,49077,,,,,,,,,,,,,,,,,,99999,99999,99999,99999,99999,99999,99999,99999,99999,99999,99999,99999
11:51:49,1510799370,2017-11-16T02:29:36,0.723,543.1,7.79,5.14,9.24,830.120,2045.040,105.716667,37.48,2.5340,363,23423,1.83261,4.01,49072,,,,,,,,,,,,,,,,,,99999,99999,99999,99999,99999,99999,99999,99999,99999,99999,99999,99999
11:52:19,1510799400,2017-11-16T02:30:06,0.720,543.5,7.78,5.15,9.23,830.170,2044.970,105.949997,37.41,2.5340,363,23423,1.82467,4.01,49068,,,,,,,,,,,,,,,,,,99999,99999,99999,99999,99999,99999,99999,99999,99999,99999,99999,99999
11:52:49,1510799430,2017-11-16T02:30:36,0.723,543.8,7.76,5.10,9.19,830.170,2044.870,104.150002,37.33,2.5341,363,23422,1.83231,4.01,49064,,,,,,,,,,,,,,,,,,99999,99999,99999,99999,99999,99999,99999,99999,99999,99999,99999,99999
11:53:19,1510799460,2017-11-16T02:31:06,0.727,544.2,7.76,5.10,9.19,830.040,2044.870,105.466667,37.17,2.5341,363,23424,1.84116,4.01,49059,,,,,,,,,,,,,,,,,,99999,99999,99999,99999,99999,99999,99999,99999,99999,99999,99999,99999
11:53:49,1510799490,2017-11-16T02:31:36,0.725,544.6,7.73,5.12,9.16,830.080,2044.810,106.766670,36.96,2.5343,363,23421,1.83673,4.01,49055,,,,,,,,,,,,,,,,,,99999,99999,99999,99999,99999,99999,99999,99999,99999,99999,99999,99999
11:54:19,1510799520,2017-11-16T02:32:06,0.728,544.9,7.72,5.10,9.16,830.030,2044.740,106.250000,37.32,2.5343,363,23421,1.84500,4.01,49050,,,,,,,,,,,,,,,,,,99999,99999,99999,99999,99999,99999,99999,99999,99999,99999,99999,99999
11:54:49,1510799550,2017-11-16T02:32:36,0.728,545.3,7.72,5.08,9.19,830.050,2044.740,106.066666,37.29,2.5343,363,23423,1.84500,4.01,49046,,,,,,,,,,,,,,,,,,99999,99999,99999,99999,99999,99999,99999,99999,99999,99999,99999,99999
11:55:19,1510799580,2017-11-16T02:33:06,0.725,545.6,7.70,5.03,9.14,829.950,2044.700,106.166664,36.81,2.5344,363,23420,1.83850,4.01,49042,,,,,,,,,,,,,,,,,,99999,99999,99999,99999,99999,99999,99999,99999,99999,99999,99999,99999
11:55:49,1510799610,2017-11-16T02:33:36,0.724,546.0,7.69,5.07,9.16,830.030,2044.640,104.616669,36.98,2.5344,363,23417,1.83437,4.01,49037,,,,,,,,,,,,,,,,,,99999,99999,99999,99999,99999,99999,99999,99999,99999,99999,99999,99999
11:56:19,1510799640,2017-11-16T02:34:06,0.721,546.4,7.67,5.06,9.11,829.930,2044.580,105.250000,37.02,2.5346,363,23419,1.82673,4.01,49033,,,,,,,,,,,,,,,,,,99999,99999,99999,99999,99999,99999,99999,99999,99999,99999,99999,99999
11:56:49,1510799670,2017-11-16T02:34:36,0.726,546.7,7.67,5.07,9.15,830.040,2044.580,105.933334,36.90,2.5346,363,23419,1.83939,4.01,49028,,,,,,,,,,,,,,,,,,99999,99999,99999,99999,99999,99999,99999,99999,99999,99999,99999,99999
11:57:19,1510799700,2017-11-16T02:35:06,0.726,547.1,7.67,5.03,9.10,829.960,2044.580,106.599998,36.89,2.5346,363,23417,1.84027,4.01,49024,,,,,,,,,,,,,,,,,,99999,99999,99999,99999,99999,99999,99999,99999,99999,99999,99999,99999
11:57:49,1510799730,2017-11-16T02:35:36,0.722,547.5,7.66,5.00,9.07,829.990,2044.580,105.183334,36.82,2.5347,363,23418,1.83026,4.01,49020,,,,,,,,,,,,,,,,,,99999,99999,99999,99999,99999,99999,99999,99999,99999,99999,99999,99999
11:58:19,1510799760,2017-11-16T02:36:06,0.722,547.8,7.64,5.04,9.14,830.050,2044.540,104.900002,36.82,2.5348,363,23419,1.83114,4.01,49015,,,,,,,,,,,,,,,,,,99999,99999,99999,99999,99999,99999,99999,99999,99999,99999,99999,99999
11:58:49,1510799790,2017-11-16T02:36:36,0.725,548.2,7.64,5.02,9.09,830.050,2044.540,105.599998,37.15,2.5348,363,23419,1.83732,4.01,49011,,,,,,,,,,,,,,,,,,99999,99999,99999,99999,99999,99999,99999,99999,99999,99999,99999,99999
11:59:19,1510799820,2017-11-16T02:37:06,0.724,548.5,7.63,5.01,9.07,830.020,2044.410,104.366669,36.80,2.5347,363,23415,1.83437,4.01,49006,,,,,,,,,,,,,,,,,,99999,99999,99999,99999,99999,99999,99999,99999,99999,99999,99999,99999
11:59:49,1510799850,2017-11-16T02:37:36,0.724,548.9,7.63,5.01,9.07,830.100,2044.410,105.333336,37.17,2.5347,363,23418,1.83555,4.01,49002,,,,,,,,,,,,,,,,,,99999,99999,99999,99999,99999,99999,99999,99999,99999,99999,99999,99999
12:00:19,1510799880,2017-11-16T02:38:06,0.728,549.3,7.63,4.99,9.10,830.020,2044.410,105.233330,37.04,2.5347,363,23418,1.84529,4.00,48997,,,,,,,,,,,,,,,,,,99999,99999,99999,99999,99999,99999,99999,99999,99999,99999,99999,99999
12:00:49,1510799910,2017-11-16T02:38:36,0.721,549.6,7.62,5.00,9.07,830.180,2044.410,103.533333,36.93,2.5348,363,23420,1.82702,4.00,48993,,,,,,,,,,,,,,,,,,99999,99999,99999,99999,99999,99999,99999,99999,99999,99999,99999,99999
12:01:19,1510799940,2017-11-16T02:39:06,0.721,550.0,7.62,4.98,9.07,830.180,2044.410,104.266670,37.56,2.5348,363,23417,1.82790,4.00,48989,,,,,,,,,,,,,,,,,,99999,99999,99999,99999,99999,99999,99999,99999,99999,99999,99999,99999
12:01:49,1510799970,2017-11-16T02:39:36,0.721,550.4,7.62,4.96,9.05,830.150,2044.410,104.666664,37.76,2.5348,363,23414,1.82761,4.00,48984,,,,,,,,,,,,,,,,,,99999,99999,99999,99999,99999,99999,99999,99999,99999,99999,99999,99999
12:02:19,1510800000,2017-11-16T02:40:06,0.723,550.7,7.61,5.00,9.07,830.110,2044.370,105.066666,37.40,2.5348,363,23417,1.83320,4.00,48980,,,,,,,,,,,,,,,,,,99999,99999,99999,99999,99999,99999,99999,99999,99999,99999,99999,99999
12:02:49,1510800030,2017-11-16T02:40:36,0.725,551.1,7.62,4.97,9.09,830.100,2044.410,106.216667,38.01,2.5348,363,23417,1.83762,4.00,48975,,,,,,,,,,,,,,,,,,99999,99999,99999,99999,99999,99999,99999,99999,99999,99999,99999,99999
12:03:19,1510800060,2017-11-16T02:41:06,0.727,551.4,7.61,4.99,9.02,830.190,2044.370,105.816666,37.99,2.5348,363,23417,1.84175,4.00,48971,,,,,,,,,,,,,,,,,,99999,99999,99999,99999,99999,99999,99999,99999,99999,99999,99999,99999
12:03:49,1510800090,2017-11-16T02:41:36,0.720,551.8,7.61,4.96,9.01,830.190,2044.370,104.733330,38.01,2.5348,363,23415,1.82408,4.00,48967,,,,,,,,,,,,,,,,,,99999,99999,99999,99999,99999,99999,99999,99999,99999,99999,99999,99999
12:04:19,1510800120,2017-11-16T02:42:06,0.728,552.2,7.60,4.97,9.03,830.030,2044.300,106.449997,38.19,2.5348,363,23417,1.84441,4.00,48962,,,,,,,,,,,,,,,,,,99999,99999,99999,99999,99999,99999,99999,99999,99999,99999,99999,99999
12:04:49,1510800150,2017-11-16T02:42:36,0.723,552.5,7.60,4.97,9.03,830.110,2044.300,104.966667,37.97,2.5348,363,23413,1.83143,4.00,48958,,,,,,,,,,,,,,,,,,99999,99999,99999,99999,99999,99999,99999,99999,99999,99999,99999,99999
12:05:19,1510800180,2017-11-16T02:43:06,0.725,552.9,7.59,4.94,9.05,830.110,2044.300,106.449997,38.04,2.5349,363,23418,1.83791,4.00,48953,,,,,,,,,,,,,,,,,,99999,99999,99999,99999,99999,99999,99999,99999,99999,99999,99999,99999
12:05:49,1510800210,2017-11-16T02:43:36,0.719,553.3,7.58,4.92,9.02,830.060,2044.240,104.583336,38.10,2.5349,363,23415,1.82291,4.00,48949,,,,,,,,,,,,,,,,,,99999,99999,99999,99999,99999,99999,99999,99999,99999,99999,99999,99999
12:06:19,1510800240,2017-11-16T02:44:06,0.724,553.6,7.58,4.95,9.01,830.030,2044.240,105.933334,38.02,2.5349,363,23415,1.83555,4.00,48945,,,,,,,,,,,,,,,,,,99999,99999,99999,99999,99999,99999,99999,99999,99999,99999,99999,99999
12:06:49,1510800270,2017-11-16T02:44:36,0.726,554.0,7.58,4.94,9.01,830.060,2044.240,106.349998,38.07,2.5349,363,23415,1.83909,4.00,48940,,,,,,,,,,,,,,,,,,99999,99999,99999,99999,99999,99999,99999,99999,99999,99999,99999,99999
12:07:19,1510800300,2017-11-16T02:45:06,0.726,554.3,7.57,4.94,9.03,830.010,2044.240,105.183334,37.87,2.5350,363,23417,1.84056,4.00,48936,,,,,,,,,,,,,,,,,,99999,99999,99999,99999,99999,99999,99999,99999,99999,99999,99999,99999
12:07:49,1510800330,2017-11-16T02:45:36,0.719,554.7,7.57,4.93,9.02,830.060,2044.240,103.383331,37.73,2.5350,363,23415,1.82379,4.00,48931,,,,,,,,,,,,,,,,,,99999,99999,99999,99999,99999,99999,99999,99999,99999,99999,99999,99999
12:08:19,1510800360,2017-11-16T02:46:06,0.727,555.1,7.56,4.93,8.99,830.110,2044.200,106.916664,38.87,2.5350,363,23414,1.84263,4.00,48927,,,,,,,,,,,,,,,,,,99999,99999,99999,99999,99999,99999,99999,99999,99999,99999,99999,99999
12:08:49,1510800390,2017-11-16T02:46:36,0.720,555.4,7.54,4.90,9.02,830.090,2044.140,104.599998,39.11,2.5351,363,23415,1.82614,4.00,48923,,,,,,,,,,,,,,,,,,99999,99999,99999,99999,99999,99999,99999,99999,99999,99999,99999,99999
12:09:19,1510800420,2017-11-16T02:47:06,0.720,555.8,7.53,4.89,8.94,830.100,2044.140,104.133331,38.78,2.5352,363,23415,1.82614,4.00,48918,,,,,,,,,,,,,,,,,,99999,99999,99999,99999,99999,99999,99999,99999,99999,99999,99999,99999
12:09:49,1510800450,2017-11-16T02:47:36,0.723,556.1,7.50,4.87,8.95,830.030,2043.970,103.983330,37.76,2.5353,363,23413,1.83261,4.00,48914,,,,,,,,,,,,,,,,,,99999,99999,99999,99999,99999,99999,99999,99999,99999,99999,99999,99999
12:10:19,1510800480,2017-11-16T02:48:06,0.722,556.5,7.48,4.84,8.94,830.060,2043.910,104.449997,37.62,2.5354,363,23416,1.82996,4.00,48909,,,,,,,,,,,,,,,,,,99999,99999,99999,99999,99999,99999,99999,99999,99999,99999,99999,99999
12:10:49,1510800510,2017-11-16T02:48:36,0.720,556.9,7.47,4.85,8.94,830.060,2043.870,103.699997,37.79,2.5355,363,23414,1.82643,4.00,48905,,,,,,,,,,,,,,,,,,99999,99999,99999,99999,99999,99999,99999,99999,99999,99999,99999,99999
12:11:19,1510800540,2017-11-16T02:49:06,0.726,557.2,7.45,4.84,8.93,830.110,2043.800,104.599998,37.78,2.5356,363,23415,1.84116,4.00,48901,,,,,,,,,,,,,,,,,,99999,99999,99999,99999,99999,99999,99999,99999,99999,99999,99999,99999
12:11:49,1510800570,2017-11-16T02:49:36,0.721,557.6,7.44,4.81,8.89,830.040,2043.800,104.000000,38.06,2.5356,363,23413,1.82732,4.00,48896,,,,,,,,,,,,,,,,,,99999,99999,99999,99999,99999,99999,99999,99999,99999,99999,99999,99999
12:12:19,1510800600,2017-11-16T02:50:06,0.723,558.0,7.43,4.81,8.85,830.090,2043.740,104.750000,37.95,2.5357,363,23414,1.83379,4.00,48892,,,,,,,,,,,,,,,,,,99999,99999,99999,99999,99999,99999,99999,99999,99999,99999,99999,99999
12:12:49,1510800630,2017-11-16T02:50:36,0.726,558.3,7.42,4.80,8.89,829.990,2043.740,105.483330,37.75,2.5358,363,23413,1.84145,4.00,48887,,,,,,,,,,,,,,,,,,99999,99999,99999,99999,99999,99999,99999,99999,99999,99999,99999,99999
12:13:19,1510800660,2017-11-16T02:51:06,0.722,558.7,7.40,4.80,8.88,829.950,2043.700,103.516670,38.14,2.5359,363,23413,1.83143,4.00,48883,,,,,,,,,,,,,,,,,,99999,99999,99999,99999,99999,99999,99999,99999,99999,99999,99999,99999
12:13:49,1510800690,2017-11-16T02:51:36,0.724,559.0,7.40,4.78,8.85,829.970,2043.700,106.000000,38.03,2.5359,363,23412,1.83526,4.00,48879,,,,,,,,,,,,,,,,,,99999,99999,99999,99999,99999,99999,99999,99999,99999,99999,99999,99999
12:14:19,1510800720,2017-11-16T02:52:06,0.723,559.4,7.39,4.77,8.85,829.900,2043.640,104.266670,38.25,2.5359,363,23413,1.83349,4.00,48874,,,,,,,,,,,,,,,,,,99999,99999,99999,99999,99999,99999,99999,99999,99999,99999,99999,99999
12:14:49,1510800750,2017-11-16T02:52:36,0.724,559.8,7.37,4.73,8.88,829.930,2043.540,105.150002,38.26,2.5360,363,23410,1.83496,4.00,48870,,,,,,,,,,,,,,,,,,99999,99999,99999,99999,99999,99999,99999,99999,99999,99999,99999,99999
12:15:19,1510800780,2017-11-16T02:53:06,0.725,560.1,7.37,4.74,8.81,829.950,2043.540,105.383331,37.89,2.5360,363,23411,1.83879,4.00,48865,,,,,,,,,,,,,,,,,,99999,99999,99999,99999,99999,99999,99999,99999,99999,99999,99999,99999
12:15:49,1510800810,2017-11-16T02:53:36,0.720,560.5,7.37,4.74,8.82,829.980,2043.540,104.650002,37.92,2.5360,363,23411,1.82467,4.00,48861,,,,,,,,,,,,,,,,,,99999,99999,99999,99999,99999,99999,99999,99999,99999,99999,99999,99999
12:16:19,1510800840,2017-11-16T02:54:06,0.718,560.8,7.36,4.75,8.78,830.060,2043.470,104.466667,37.87,2.5360,363,23411,1.82174,4.00,48857,,,,,,,,,,,,,,,,,,99999,99999,99999,99999,99999,99999,99999,99999,99999,99999,99999,99999
12:16:49,1510800870,2017-11-16T02:54:36,0.719,561.2,7.34,4.73,8.80,830.010,2043.410,103.949997,37.95,2.5361,363,23411,1.82291,4.00,48852,,,,,,,,,,,,,,,,,,99999,99999,99999,99999,99999,99999,99999,99999,99999,99999,99999,99999
12:17:19,1510800900,2017-11-16T02:55:06,0.727,561.6,7.33,4.73,8.80,830.040,2043.410,104.966667,38.00,2.5362,363,23410,1.84352,4.00,48848,,,,,,,,,,,,,,,,,,99999,99999,99999,99999,99999,99999,99999,99999,99999,99999,99999,99999
12:17:49,1510800930,2017-11-16T02:55:36,0.719,561.9,7.33,4.70,8.80,830.010,2043.410,104.283333,38.53,2.5361,363,23407,1.82438,4.00,48843,,,,,,,,,,,,,,,,,,99999,99999,99999,99999,99999,99999,99999,99999,99999,99999,99999,99999
12:18:19,1510800960,2017-11-16T02:56:06,0.726,562.3,7.32,4.70,8.76,830.010,2043.370,105.133331,38.32,2.5362,363,23408,1.84116,4.00,48839,,,,,,,,,,,,,,,,,,99999,99999,99999,99999,99999,99999,99999,99999,99999,99999,99999,99999
12:18:49,1510800990,2017-11-16T02:56:36,0.724,562.6,7.30,4.68,8.76,829.920,2043.300,103.866669,38.00,2.5363,363,23410,1.83703,4.00,48835,,,,,,,,,,,,,,,,,,99999,99999,99999,99999,99999,99999,99999,99999,99999,99999,99999,99999
12:19:19,1510801020,2017-11-16T02:57:06,0.725,563.0,7.30,4.70,8.76,829.920,2043.300,104.833336,38.18,2.5363,363,23408,1.83998,4.00,48830,,,,,,,,,,,,,,,,,,99999,99999,99999,99999,99999,99999,99999,99999,99999,99999,99999,99999
12:19:49,1510801050,2017-11-16T02:57:36,0.718,563.4,7.28,4.66,8.72,829.950,2043.240,103.666664,37.91,2.5364,363,23411,1.82115,4.00,48826,,,,,,,,,,,,,,,,,,99999,99999,99999,99999,99999,99999,99999,99999,99999,99999,99999,99999
12:20:19,1510801080,2017-11-16T02:58:06,0.721,563.7,7.28,4.67,8.70,829.890,2043.240,105.083336,37.83,2.5364,363,23408,1.82878,4.00,48821,,,,,,,,,,,,,,,,,,99999,99999,99999,99999,99999,99999,99999,99999,99999,99999,99999,99999
12:20:49,1510801110,2017-11-16T02:58:36,0.723,564.1,7.27,4.66,8.73,829.890,2043.240,105.849998,37.79,2.5365,363,23407,1.83408,4.00,48817,,,,,,,,,,,,,,,,,,99999,99999,99999,99999,99999,99999,99999,99999,99999,99999,99999,99999
12:21:19,1510801140,2017-11-16T02:59:06,0.719,564.5,7.27,4.66,8.74,829.820,2043.240,105.233330,38.17,2.5365,363,23408,1.82261,4.00,48813,,,,,,,,,,,,,,,,,,99999,99999,99999,99999,99999,99999,99999,99999,99999,99999,99999,99999
12:21:49,1510801170,2017-11-16T02:59:36,0.719,564.8,7.27,4.65,8.70,829.840,2043.240,105.583336,38.40,2.5365,363,23408,1.82261,4.00,48808,,,,,,,,,,,,,,,,,,99999,99999,99999,99999,99999,99999,99999,99999,99999,99999,99999,99999
12:22:19,1510801200,2017-11-16T03:00:06,0.723,565.2,7.25,4.63,8.70,829.800,2043.100,105.383331,38.32,2.5365,363,23408,1.83290,4.00,48804,,,,,,,,,,,,,,,,,,99999,99999,99999,99999,99999,99999,99999,99999,99999,99999,99999,99999
12:22:49,1510801230,2017-11-16T03:00:36,0.722,565.5,7.25,4.65,8.72,829.880,2043.100,104.699997,38.10,2.5365,363,23407,1.83202,4.00,48799,,,,,,,,,,,,,,,,,,99999,99999,99999,99999,99999,99999,99999,99999,99999,99999,99999,99999
12:23:19,1510801260,2017-11-16T03:01:06,0.722,565.9,7.24,4.63,8.70,829.910,2043.100,104.516670,38.25,2.5366,363,23407,1.83084,4.00,48795,,,,,,,,,,,,,,,,,,99999,99999,99999,99999,99999,99999,99999,99999,99999,99999,99999,99999
12:23:49,1510801290,2017-11-16T03:01:36,0.717,566.3,7.23,4.63,8.70,829.930,2043.040,104.099998,38.30,2.5366,363,23408,1.81910,4.00,48791,,,,,,,,,,,,,,,,,,99999,99999,99999,99999,99999,99999,99999,99999,99999,99999,99999,99999
12:24:19,1510801320,2017-11-16T03:02:06,0.720,566.6,7.23,4.62,8.65,830.040,2043.040,103.933334,38.37,2.5366,363,23406,1.82732,4.00,48786,,,,,,,,,,,,,,,,,,99999,99999,99999,99999,99999,99999,99999,99999,99999,99999,99999,99999
12:24:49,1510801350,2017-11-16T03:02:36,0.725,567.0,7.21,4.62,8.65,830.040,2042.970,106.099998,38.24,2.5367,363,23405,1.83791,4.00,48782,,,,,,,,,,,,,,,,,,99999,99999,99999,99999,99999,99999,99999,99999,99999,99999,99999,99999
12:25:19,1510801380,2017-11-16T03:03:06,0.720,567.3,7.21,4.61,8.65,830.090,2042.970,104.333336,38.17,2.5367,363,23407,1.82761,4.00,48777,,,,,,,,,,,,,,,,,,99999,99999,99999,99999,99999,99999,99999,99999,99999,99999,99999,99999
12:25:49,1510801410,2017-11-16T03:03:36,0.717,567.7,7.19,4.58,8.68,830.080,2042.910,103.916664,38.09,2.5368,363,23403,1.81998,4.00,48773,,,,,,,,,,,,,,,,,,99999,99999,99999,99999,99999,99999,99999,99999,99999,99999,99999,99999
12:26:19,1510801440,2017-11-16T03:04:06,0.718,568.1,7.19,4.57,8.65,830.130,2042.910,103.966667,38.26,2.5368,363,23403,1.82232,4.00,48769,,,,,,,,,,,,,,,,,,99999,99999,99999,99999,99999,99999,99999,99999,99999,99999,99999,99999
12:26:49,1510801470,2017-11-16T03:04:36,0.718,568.4,7.18,4.57,8.65,830.020,2042.910,103.483330,38.17,2.5369,363,23404,1.82086,4.00,48764,,,,,,,,,,,,,,,,,,99999,99999,99999,99999,99999,99999,99999,99999,99999,99999,99999,99999
12:27:19,1510801500,2017-11-16T03:05:06,0.717,568.8,7.18,4.57,8.65,830.050,2042.910,103.666664,38.37,2.5369,363,23404,1.81998,4.00,48760,,,,,,,,,,,,,,,,,,99999,99999,99999,99999,99999,99999,99999,99999,99999,99999,99999,99999
12:27:49,1510801530,2017-11-16T03:05:36,0.723,569.1,7.17,4.57,8.64,830.000,2042.870,104.733330,38.14,2.5370,363,23407,1.83467,4.00,48755,,,,,,,,,,,,,,,,,,99999,99999,99999,99999,99999,99999,99999,99999,99999,99999,99999,99999
12:28:19,1510801560,2017-11-16T03:06:06,0.718,569.5,7.17,4.55,8.64,830.160,2042.870,103.883331,38.10,2.5370,363,23404,1.82144,4.00,48751,,,,,,,,,,,,,,,,,,99999,99999,99999,99999,99999,99999,99999,99999,99999,99999,99999,99999
12:28:49,1510801590,2017-11-16T03:06:36,0.721,569.9,7.16,4.58,8.60,829.970,2042.870,104.416664,38.37,2.5370,363,23405,1.82908,4.00,48747,,,,,,,,,,,,,,,,,,99999,99999,99999,99999,99999,99999,99999,99999,99999,99999,99999,99999
12:29:19,1510801620,2017-11-16T03:07:06,0.724,570.2,7.16,4.55,8.64,830.050,2042.870,105.983330,38.32,2.5370,363,23403,1.83673,4.00,48742,,,,,,,,,,,,,,,,,,99999,99999,99999,99999,99999,99999,99999,99999,99999,99999,99999,99999
12:29:49,1510801650,2017-11-16T03:07:36,0.725,570.6,7.16,4.54,8.60,830.050,2042.870,105.083336,38.34,2.5370,363,23404,1.83879,4.00,48738,,,,,,,,,,,,,,,,,,99999,99999,99999,99999,99999,99999,99999,99999,99999,99999,99999,99999
12:30:19,1510801680,2017-11-16T03:08:06,0.717,570.9,7.16,4.56,8.60,830.050,2042.870,103.033333,38.25,2.5370,363,23402,1.81822,4.00,48733,,,,,,,,,,,,,,,,,,99999,99999,99999,99999,99999,99999,99999,99999,99999,99999,99999,99999
12:30:49,1510801710,2017-11-16T03:08:36,0.722,571.3,7.15,4.58,8.57,830.060,2042.800,105.483330,38.74,2.5370,363,23403,1.83261,4.00,48729,,,,,,,,,,,,,,,,,,99999,99999,99999,99999,99999,99999,99999,99999,99999,99999,99999,99999
12:31:19,1510801740,2017-11-16T03:09:06,0.721,571.7,7.14,4.54,8.53,830.030,2042.800,104.949997,38.83,2.5371,363,23404,1.82996,4.00,48725,,,,,,,,,,,,,,,,,,99999,99999,99999,99999,99999,99999,99999,99999,99999,99999,99999,99999
12:31:49,1510801770,2017-11-16T03:09:36,0.719,572.0,7.15,4.51,8.57,829.900,2042.800,104.333336,38.73,2.5370,363,23406,1.82320,4.00,48720,,,,,,,,,,,,,,,,,,99999,99999,99999,99999,99999,99999,99999,99999,99999,99999,99999,99999
12:32:19,1510801800,2017-11-16T03:10:06,0.716,572.4,7.14,4.55,8.59,829.930,2042.800,103.566666,38.33,2.5371,363,23404,1.81763,4.00,48716,,,,,,,,,,,,,,,,,,99999,99999,99999,99999,99999,99999,99999,99999,99999,99999,99999,99999
12:32:49,1510801830,2017-11-16T03:10:36,0.718,572.7,7.13,4.52,8.57,829.930,2042.700,104.016670,38.48,2.5371,363,23403,1.82056,4.00,48712,,,,,,,,,,,,,,,,,,99999,99999,99999,99999,99999,99999,99999,99999,99999,99999,99999,99999
12:33:19,1510801860,2017-11-16T03:11:06,0.723,573.1,7.14,4.51,8.60,829.930,2042.800,105.216667,37.92,2.5372,363,23401,1.83555,4.00,48707,,,,,,,,,,,,,,,,,,99999,99999,99999,99999,99999,99999,99999,99999,99999,99999,99999,99999
12:33:49,1510801890,2017-11-16T03:11:36,0.722,573.5,7.14,4.53,8.60,829.980,2042.800,104.183334,37.79,2.5372,363,23403,1.83084,4.00,48703,,,,,,,,,,,,,,,,,,99999,99999,99999,99999,99999,99999,99999,99999,99999,99999,99999,99999
12:34:19,1510801920,2017-11-16T03:12:06,0.717,573.8,7.14,4.53,8.59,830.030,2042.800,104.000000,38.16,2.5371,363,23402,1.81939,4.00,48698,,,,,,,,,,,,,,,,,,99999,99999,99999,99999,99999,99999,99999,99999,99999,99999,99999,99999
12:34:49,1510801950,2017-11-16T03:12:36,0.718,574.2,7.14,4.51,8.57,830.000,2042.800,104.000000,38.48,2.5371,363,23403,1.82144,4.00,48694,,,,,,,,,,,,,,,,,,99999,99999,99999,99999,99999,99999,99999,99999,99999,99999,99999,99999
12:35:19,1510801980,2017-11-16T03:13:06,0.716,574.6,7.15,4.55,8.60,829.980,2042.800,104.166664,38.28,2.5370,363,23403,1.81705,4.00,48690,,,,,,,,,,,,,,,,,,99999,99999,99999,99999,99999,99999,99999,99999,99999,99999,99999,99999
12:35:49,1510802010,2017-11-16T03:13:36,0.722,574.9,7.14,4.52,8.59,829.980,2042.800,106.133331,38.04,2.5372,363,23403,1.83114,4.00,48685,,,,,,,,,,,,,,,,,,99999,99999,99999,99999,99999,99999,99999,99999,99999,99999,99999,99999
12:36:19,1510802040,2017-11-16T03:14:06,0.724,575.3,7.14,4.53,8.57,830.030,2042.800,105.683334,38.12,2.5371,363,23400,1.83791,4.00,48681,,,,,,,,,,,,,,,,,,99999,99999,99999,99999,99999,99999,99999,99999,99999,99999,99999,99999
12:36:49,1510802070,2017-11-16T03:14:36,0.724,575.6,7.13,4.52,8.59,829.960,2042.700,105.933334,38.20,2.5371,363,23404,1.83585,4.00,48676,,,,,,,,,,,,,,,,,,99999,99999,99999,99999,99999,99999,99999,99999,99999,99999,99999,99999
12:37:19,1510802100,2017-11-16T03:15:06,0.717,576.0,7.13,4.52,8.57,829.900,2042.700,103.949997,38.52,2.5371,363,23405,1.81881,4.00,48672,,,,,,,,,,,,,,,,,,99999,99999,99999,99999,99999,99999,99999,99999,99999,99999,99999,99999
12:37:49,1510802130,2017-11-16T03:15:36,0.725,576.4,7.14,4.53,8.57,830.000,2042.800,105.866669,38.61,2.5371,363,23404,1.83850,4.00,48668,,,,,,,,,,,,,,,,,,99999,99999,99999,99999,99999,99999,99999,99999,99999,99999,99999,99999
12:38:19,1510802160,2017-11-16T03:16:06,0.718,576.7,7.14,4.52,8.57,830.000,2042.800,103.266670,38.06,2.5372,363,23405,1.82115,4.00,48663,,,,,,,,,,,,,,,,,,99999,99999,99999,99999,99999,99999,99999,99999,99999,99999,99999,99999
12:38:49,1510802190,2017-11-16T03:16:36,0.719,577.1,7.14,4.50,8.57,830.000,2042.800,103.833336,37.87,2.5372,363,23403,1.82467,4.00,48659,,,,,,,,,,,,,,,,,,99999,99999,99999,99999,99999,99999,99999,99999,99999,99999,99999,99999
12:39:19,1510802220,2017-11-16T03:17:06,0.724,577.4,7.14,4.53,8.56,830.000,2042.800,105.616669,37.82,2.5372,363,23403,1.83791,4.00,48655,,,,,,,,,,,,,,,,,,99999,99999,99999,99999,99999,99999,99999,99999,99999,99999,99999,99999
12:39:49,1510802250,2017-11-16T03:17:36,0.724,577.8,7.14,4.52,8.59,830.030,2042.800,105.083336,37.79,2.5372,363,23405,1.83703,4.00,48650,,,,,,,,,,,,,,,,,,99999,99999,99999,99999,99999,99999,99999,99999,99999,99999,99999,99999
12:40:19,1510802280,2017-11-16T03:18:06,0.724,578.2,7.15,4.54,8.56,829.930,2042.800,104.933334,37.90,2.5371,363,23405,1.83762,4.00,48646,,,,,,,,,,,,,,,,,,99999,99999,99999,99999,99999,99999,99999,99999,99999,99999,99999,99999
12:40:49,1510802310,2017-11-16T03:18:36,0.724,578.5,7.14,4.53,8.53,830.000,2042.800,105.716667,37.99,2.5372,363,23404,1.83732,4.00,48641,,,,,,,,,,,,,,,,,,99999,99999,99999,99999,99999,99999,99999,99999,99999,99999,99999,99999
12:41:19,1510802340,2017-11-16T03:19:06,0.722,578.9,7.15,4.54,8.59,829.950,2042.800,105.683334,37.88,2.5371,363,23403,1.83290,4.00,48637,,,,,,,,,,,,,,,,,,99999,99999,99999,99999,99999,99999,99999,99999,99999,99999,99999,99999
12:41:49,1510802370,2017-11-16T03:19:36,0.720,579.2,7.15,4.54,8.57,829.870,2042.800,105.800003,37.91,2.5371,363,23404,1.82761,4.00,48633,,,,,,,,,,,,,,,,,,99999,99999,99999,99999,99999,99999,99999,99999,99999,99999,99999,99999
12:42:19,1510802400,2017-11-16T03:20:06,0.720,579.6,7.14,4.52,8.59,829.850,2042.800,105.449997,37.98,2.5372,363,23405,1.82761,4.00,48628,,,,,,,,,,,,,,,,,,99999,99999,99999,99999,99999,99999,99999,99999,99999,99999,99999,99999
12:42:49,1510802430,2017-11-16T03:20:36,0.724,580.0,7.16,4.53,8.57,829.840,2042.870,106.066666,38.12,2.5371,363,23405,1.83673,4.00,48624,,,,,,,,,,,,,,,,,,99999,99999,99999,99999,99999,99999,99999,99999,99999,99999,99999,99999
12:43:19,1510802460,2017-11-16T03:21:06,0.723,580.3,7.15,4.56,8.60,829.720,2042.800,105.583336,38.71,2.5370,363,23404,1.83408,4.00,48619,,,,,,,,,,,,,,,,,,99999,99999,99999,99999,99999,99999,99999,99999,99999,99999,99999,99999
12:43:49,1510802490,2017-11-16T03:21:36,0.718,580.7,7.15,4.59,8.59,829.770,2042.800,104.633331,38.77,2.5370,363,23404,1.82115,4.00,48615,,,,,,,,,,,,,,,,,,99999,99999,99999,99999,99999,99999,99999,99999,99999,99999,99999,99999
12:44:19,1510802520,2017-11-16T03:22:06,0.724,581.0,7.15,4.55,8.57,829.770,2042.800,105.066666,38.52,2.5370,363,23405,1.83762,4.00,48611,,,,,,,,,,,,,,,,,,99999,99999,99999,99999,99999,99999,99999,99999,99999,99999,99999,99999
12:44:49,1510802550,2017-11-16T03:22:36,0.717,581.4,7.15,4.55,8.59,829.850,2042.800,103.050003,38.45,2.5370,363,23405,1.81910,4.00,48606,,,,,,,,,,,,,,,,,,99999,99999,99999,99999,99999,99999,99999,99999,99999,99999,99999,99999
12:45:19,1510802580,2017-11-16T03:23:06,0.723,581.8,7.15,4.53,8.60,829.870,2042.800,104.733330,38.63,2.5370,363,23405,1.83320,4.00,48602,,,,,,,,,,,,,,,,,,99999,99999,99999,99999,99999,99999,99999,99999,99999,99999,99999,99999
12:45:49,1510802610,2017-11-16T03:23:36,0.717,582.1,7.15,4.55,8.56,829.870,2042.800,104.599998,38.36,2.5370,363,23404,1.81881,3.99,48597,,,,,,,,,,,,,,,,,,99999,99999,99999,99999,99999,99999,99999,99999,99999,99999,99999,99999
12:46:19,1510802640,2017-11-16T03:24:06,0.725,582.5,7.14,4.53,8.61,829.820,2042.800,105.416664,38.97,2.5371,363,23403,1.83939,4.00,48593,,,,,,,,,,,,,,,,,,99999,99999,99999,99999,99999,99999,99999,99999,99999,99999,99999,99999
12:46:49,1510802670,2017-11-16T03:24:36,0.721,582.8,7.14,4.52,8.57,829.870,2042.800,104.416664,38.88,2.5371,363,23405,1.82878,3.99,48589,,,,,,,,,,,,,,,,,,99999,99999,99999,99999,99999,99999,99999,99999,99999,99999,99999,99999
12:47:19,1510802700,2017-11-16T03:25:06,0.718,583.2,7.13,4.55,8.57,829.800,2042.700,103.050003,38.76,2.5371,363,23406,1.82261,4.00,48584,,,,,,,,,,,,,,,,,,99999,99999,99999,99999,99999,99999,99999,99999,99999,99999,99999,99999
12:47:49,1510802730,2017-11-16T03:25:36,0.720,583.6,7.13,4.54,8.57,829.830,2042.700,103.500000,38.81,2.5371,363,23403,1.82614,4.00,48580,,,,,,,,,,,,,,,,,,99999,99999,99999,99999,99999,99999,99999,99999,99999,99999,99999,99999
12:48:19,1510802760,2017-11-16T03:26:06,0.724,583.9,7.12,4.53,8.57,829.770,2042.640,105.333336,38.63,2.5371,363,23402,1.83732,4.00,48575,,,,,,,,,,,,,,,,,,99999,99999,99999,99999,99999,99999,99999,99999,99999,99999,99999,99999
12:48:49,1510802790,2017-11-16T03:26:36,0.719,584.3,7.12,4.54,8.56,829.770,2042.640,104.333336,38.64,2.5371,363,23404,1.82526,3.99,48571,,,,,,,,,,,,,,,,,,99999,99999,99999,99999,99999,99999,99999,99999,99999,99999,99999,99999
12:49:19,1510802820,2017-11-16T03:27:06,0.717,584.6,7.11,4.52,8.52,829.700,2042.640,104.966667,38.50,2.5372,363,23403,1.82027,3.99,48567,,,,,,,,,,,,,,,,,,99999,99999,99999,99999,99999,99999,99999,99999,99999,99999,99999,99999
12:49:49,1510802850,2017-11-16T03:27:36,0.725,585.0,7.11,4.56,8.56,829.780,2042.640,104.300003,38.83,2.5372,363,23404,1.83998,3.99,48562,,,,,,,,,,,,,,,,,,99999,99999,99999,99999,99999,99999,99999,99999,99999,99999,99999,99999
12:50:19,1510802880,2017-11-16T03:28:06,0.719,585.4,7.11,4.50,8.52,829.750,2042.640,103.566666,38.69,2.5372,363,23402,1.82320,3.99,48558,,,,,,,,,,,,,,,,,,99999,99999,99999,99999,99999,99999,99999,99999,99999,99999,99999,99999
12:50:49,1510802910,2017-11-16T03:28:36,0.717,585.7,7.10,4.52,8.53,829.750,2042.600,105.199997,39.13,2.5372,363,23403,1.81968,3.99,48554,,,,,,,,,,,,,,,,,,99999,99999,99999,99999,99999,99999,99999,99999,99999,99999,99999,99999
12:51:19,1510802940,2017-11-16T03:29:06,0.718,586.1,7.10,4.50,8.53,829.810,2042.600,103.900002,39.39,2.5372,363,23404,1.82203,3.99,48549,,,,,,,,,,,,,,,,,,99999,99999,99999,99999,99999,99999,99999,99999,99999,99999,99999,99999
12:51:49,1510802970,2017-11-16T03:29:36,0.723,586.4,7.08,4.49,8.51,829.760,2042.540,105.983330,38.84,2.5373,363,23404,1.83496,3.99,48545,,,,,,,,,,,,,,,,,,99999,99999,99999,99999,99999,99999,99999,99999,99999,99999,99999,99999
12:52:19,1510803000,2017-11-16T03:30:06,0.723,586.8,7.08,4.51,8.53,829.730,2042.540,106.083336,38.36,2.5374,363,23405,1.83496,3.99,48540,,,,,,,,,,,,,,,,,,99999,99999,99999,99999,99999,99999,99999,99999,99999,99999,99999,99999
12:52:49,1510803030,2017-11-16T03:30:36,0.716,587.2,7.07,4.49,8.53,829.760,2042.540,103.666664,38.22,2.5375,363,23401,1.81646,3.99,48536,,,,,,,,,,,,,,,,,,99999,99999,99999,99999,99999,99999,99999,99999,99999,99999,99999,99999
12:53:19,1510803060,2017-11-16T03:31:06,0.724,587.5,7.07,4.50,8.51,829.730,2042.540,105.449997,38.63,2.5374,363,23404,1.83673,3.99,48532,,,,,,,,,,,,,,,,,,99999,99999,99999,99999,99999,99999,99999,99999,99999,99999,99999,99999
12:53:49,1510803090,2017-11-16T03:31:36,0.717,587.9,7.07,4.48,8.52,829.810,2042.540,103.466667,38.81,2.5374,363,23406,1.81910,3.99,48527,,,,,,,,,,,,,,,,,,99999,99999,99999,99999,99999,99999,99999,99999,99999,99999,99999,99999
12:54:19,1510803120,2017-11-16T03:32:06,0.719,588.2,7.05,4.46,8.51,829.690,2042.470,103.416664,39.08,2.5375,363,23401,1.82496,3.99,48523,,,,,,,,,,,,,,,,,,99999,99999,99999,99999,99999,99999,99999,99999,99999,99999,99999,99999
12:54:49,1510803150,2017-11-16T03:32:36,0.723,588.6,7.04,4.50,8.49,829.800,2042.430,105.283333,38.70,2.5376,363,23400,1.83349,3.99,48518,,,,,,,,,,,,,,,,,,99999,99999,99999,99999,99999,99999,99999,99999,99999,99999,99999,99999
12:55:19,1510803180,2017-11-16T03:33:06,0.717,589.0,7.04,4.48,8.49,829.740,2042.430,102.933334,38.48,2.5376,363,23401,1.81822,3.99,48514,,,,,,,,,,,,,,,,,,99999,99999,99999,99999,99999,99999,99999,99999,99999,99999,99999,99999
12:55:49,1510803210,2017-11-16T03:33:36,0.723,589.3,7.03,4.44,8.44,829.870,2042.410,105.550003,38.85,2.5376,363,23403,1.83437,3.99,48510,,,,,,,,,,,,,,,,,,99999,99999,99999,99999,99999,99999,99999,99999,99999,99999,99999,99999
12:56:19,1510803240,2017-11-16T03:34:06,0.719,589.7,7.03,4.46,8.45,829.850,2042.410,103.183334,38.69,2.5376,363,23401,1.82526,3.99,48505,,,,,,,,,,,,,,,,,,99999,99999,99999,99999,99999,99999,99999,99999,99999,99999,99999,99999
12:56:49,1510803270,2017-11-16T03:34:36,0.717,590.0,7.02,4.45,8.45,829.850,2042.370,102.599998,39.03,2.5377,363,23401,1.81968,3.99,48501,,,,,,,,,,,,,,,,,,99999,99999,99999,99999,99999,99999,99999,99999,99999,99999,99999,99999
12:57:19,1510803300,2017-11-16T03:35:06,0.716,590.4,7.01,4.45,8.44,829.750,2042.260,103.650002,39.05,2.5376,363,23402,1.81734,3.99,48497,,,,,,,,,,,,,,,,,,99999,99999,99999,99999,99999,99999,99999,99999,99999,99999,99999,99999
12:57:49,1510803330,2017-11-16T03:35:36,0.722,590.8,6.99,4.45,8.45,829.700,2042.200,103.783333,38.86,2.5377,363,23403,1.83290,3.99,48492,,,,,,,,,,,,,,,,,,99999,99999,99999,99999,99999,99999,99999,99999,99999,99999,99999,99999
12:58:19,1510803360,2017-11-16T03:36:06,0.720,591.1,6.99,4.42,8.45,829.670,2042.200,106.050003,39.25,2.5377,363,23401,1.82702,3.99,48488,,,,,,,,,,,,,,,,,,99999,99999,99999,99999,99999,99999,99999,99999,99999,99999,99999,99999
12:58:49,1510803390,2017-11-16T03:36:36,0.717,591.5,6.98,4.42,8.45,829.630,2042.200,105.400002,39.10,2.5378,363,23398,1.82056,3.99,48483,,,,,,,,,,,,,,,,,,99999,99999,99999,99999,99999,99999,99999,99999,99999,99999,99999,99999
12:59:19,1510803420,2017-11-16T03:37:06,0.718,591.8,6.97,4.40,8.43,829.680,2042.140,103.583336,38.93,2.5379,363,23400,1.82144,3.99,48479,,,,,,,,,,,,,,,,,,99999,99999,99999,99999,99999,99999,99999,99999,99999,99999,99999,99999
12:59:49,1510803450,2017-11-16T03:37:36,0.721,592.2,6.96,4.42,8.43,829.660,2042.140,105.766670,38.83,2.5379,363,23400,1.82908,3.99,48475,,,,,,,,,,,,,,,,,,99999,99999,99999,99999,99999,99999,99999,99999,99999,99999,99999,99999
13:00:19,1510803480,2017-11-16T03:38:06,0.724,592.6,6.94,4.41,8.39,829.660,2042.100,104.800003,39.04,2.5381,363,23399,1.83762,3.99,48470,,,,,,,,,,,,,,,,,,99999,99999,99999,99999,99999,99999,99999,99999,99999,99999,99999,99999
13:00:49,1510803510,2017-11-16T03:38:36,0.722,592.9,6.94,4.40,8.36,829.630,2042.100,105.333336,39.16,2.5381,363,23399,1.83320,3.99,48466,,,,,,,,,,,,,,,,,,99999,99999,99999,99999,99999,99999,99999,99999,99999,99999,99999,99999
13:01:19,1510803540,2017-11-16T03:39:06,0.715,593.3,6.92,4.39,8.38,829.590,2042.030,103.883331,39.14,2.5382,363,23399,1.81383,3.99,48461,,,,,,,,,,,,,,,,,,99999,99999,99999,99999,99999,99999,99999,99999,99999,99999,99999,99999
13:01:49,1510803570,2017-11-16T03:39:36,0.723,593.6,6.91,4.37,8.38,829.640,2041.970,105.466667,39.11,2.5382,363,23397,1.83408,3.99,48457,,,,,,,,,,,,,,,,,,99999,99999,99999,99999,99999,99999,99999,99999,99999,99999,99999,99999
13:02:19,1510803600,2017-11-16T03:40:06,0.723,594.0,6.89,4.34,8.35,829.620,2041.930,104.833336,38.68,2.5383,363,23396,1.83526,3.99,48453,,,,,,,,,,,,,,,,,,99999,99999,99999,99999,99999,99999,99999,99999,99999,99999,99999,99999
13:02:49,1510803630,2017-11-16T03:40:36,0.722,594.4,6.89,4.33,8.35,829.700,2041.930,105.150002,38.27,2.5384,363,23395,1.83261,3.99,48448,,,,,,,,,,,,,,,,,,99999,99999,99999,99999,99999,99999,99999,99999,99999,99999,99999,99999
13:03:19,1510803660,2017-11-16T03:41:06,0.714,594.7,6.89,4.33,8.35,829.620,2041.930,103.266670,38.18,2.5384,363,23396,1.81324,3.99,48444,,,,,,,,,,,,,,,,,,99999,99999,99999,99999,99999,99999,99999,99999,99999,99999,99999,99999
13:03:49,1510803690,2017-11-16T03:41:36,0.721,595.1,6.87,4.34,8.31,829.570,2041.800,105.250000,38.08,2.5384,363,23398,1.83143,3.99,48440,,,,,,,,,,,,,,,,,,99999,99999,99999,99999,99999,99999,99999,99999,99999,99999,99999,99999
13:04:19,1510803720,2017-11-16T03:42:06,0.721,595.4,6.89,4.32,8.35,829.590,2041.930,104.400002,37.94,2.5384,363,23398,1.83055,3.99,48435,,,,,,,,,,,,,,,,,,99999,99999,99999,99999,99999,99999,99999,99999,99999,99999,99999,99999
13:04:49,1510803750,2017-11-16T03:42:36,0.719,595.8,6.87,4.33,8.32,829.520,2041.800,105.083336,38.15,2.5384,363,23397,1.82614,3.99,48431,,,,,,,,,,,,,,,,,,99999,99999,99999,99999,99999,99999,99999,99999,99999,99999,99999,99999
13:05:19,1510803780,2017-11-16T03:43:06,0.720,596.2,6.89,4.32,8.31,829.620,2041.930,102.983330,37.96,2.5384,363,23399,1.82732,3.99,48426,,,,,,,,,,,,,,,,,,99999,99999,99999,99999,99999,99999,99999,99999,99999,99999,99999,99999
13:05:49,1510803810,2017-11-16T03:43:36,0.715,596.5,6.87,4.33,8.32,829.570,2041.800,104.466667,37.99,2.5384,363,23400,1.81558,3.99,48422,,,,,,,,,,,,,,,,,,99999,99999,99999,99999,99999,99999,99999,99999,99999,99999,99999,99999
13:06:19,1510803840,2017-11-16T03:44:06,0.723,596.9,6.89,4.33,8.31,829.510,2041.930,105.116669,38.12,2.5384,363,23397,1.83408,3.99,48418,,,,,,,,,,,,,,,,,,99999,99999,99999,99999,99999,99999,99999,99999,99999,99999,99999,99999
13:06:49,1510803870,2017-11-16T03:44:36,0.722,597.2,6.89,4.31,8.36,829.570,2041.930,104.849998,38.02,2.5384,363,23400,1.83379,3.99,48413,,,,,,,,,,,,,,,,,,99999,99999,99999,99999,99999,99999,99999,99999,99999,99999,99999,99999
13:07:19,1510803900,2017-11-16T03:45:06,0.721,597.6,6.90,4.35,8.35,829.640,2041.930,105.216667,38.71,2.5382,363,23399,1.83114,3.99,48409,,,,,,,,,,,,,,,,,,99999,99999,99999,99999,99999,99999,99999,99999,99999,99999,99999,99999
13:07:49,1510803930,2017-11-16T03:45:36,0.716,598.0,6.90,4.32,8.35,829.590,2041.930,104.099998,39.24,2.5382,363,23399,1.81676,3.99,48404,,,,,,,,,,,,,,,,,,99999,99999,99999,99999,99999,99999,99999,99999,99999,99999,99999,99999
13:08:19,1510803960,2017-11-16T03:46:06,0.720,598.3,6.91,4.33,8.35,829.540,2041.970,106.133331,39.07,2.5382,363,23399,1.82820,3.99,48400,,,,,,,,,,,,,,,,,,99999,99999,99999,99999,99999,99999,99999,99999,99999,99999,99999,99999
13:08:49,1510803990,2017-11-16T03:46:36,0.717,598.7,6.90,4.31,8.35,829.560,2041.930,103.400002,39.24,2.5382,363,23399,1.81939,3.99,48396,,,,,,,,,,,,,,,,,,99999,99999,99999,99999,99999,99999,99999,99999,99999,99999,99999,99999
13:09:19,1510804020,2017-11-16T03:47:06,0.722,599.0,6.89,4.31,8.32,829.570,2041.930,105.050003,38.89,2.5383,363,23400,1.83290,3.99,48391,,,,,,,,,,,,,,,,,,99999,99999,99999,99999,99999,99999,99999,99999,99999,99999,99999,99999
13:09:49,1510804050,2017-11-16T03:47:36,0.718,599.4,6.89,4.28,8.36,829.540,2041.930,104.900002,38.88,2.5383,363,23398,1.82144,3.99,48387,,,,,,,,,,,,,,,,,,99999,99999,99999,99999,99999,99999,99999,99999,99999,99999,99999,99999
13:10:19,1510804080,2017-11-16T03:48:06,0.716,599.8,6.87,4.31,8.36,829.490,2041.800,103.316666,38.64,2.5384,363,23397,1.81676,3.99,48383,,,,,,,,,,,,,,,,,,99999,99999,99999,99999,99999,99999,99999,99999,99999,99999,99999,99999
13:10:49,1510804110,2017-11-16T03:48:36,0.722,600.1,6.86,4.28,8.35,829.550,2041.760,104.099998,38.72,2.5384,363,23397,1.83231,3.99,48378,,,,,,,,,,,,,,,,,,99999,99999,99999,99999,99999,99999,99999,99999,99999,99999,99999,99999
13:11:19,1510804140,2017-11-16T03:49:06,0.719,600.5,6.87,4.28,8.31,829.600,2041.800,104.466667,38.42,2.5384,363,23395,1.82438,3.99,48374,,,,,,,,,,,,,,,,,,99999,99999,99999,99999,99999,99999,99999,99999,99999,99999,99999,99999
13:11:49,1510804170,2017-11-16T03:49:36,0.716,600.8,6.85,4.27,8.32,829.570,2041.760,102.883331,38.48,2.5385,363,23398,1.81851,3.99,48369,,,,,,,,,,,,,,,,,,99999,99999,99999,99999,99999,99999,99999,99999,99999,99999,99999,99999
13:12:19,1510804200,2017-11-16T03:50:06,0.720,601.2,6.85,4.26,8.31,829.600,2041.760,103.750000,38.34,2.5385,363,23396,1.82761,3.99,48365,,,,,,,,,,,,,,,,,,99999,99999,99999,99999,99999,99999,99999,99999,99999,99999,99999,99999
13:12:49,1510804230,2017-11-16T03:50:36,0.722,601.6,6.85,4.26,8.30,829.600,2041.760,104.683334,38.40,2.5385,363,23396,1.83261,3.99,48361,,,,,,,,,,,,,,,,,,99999,99999,99999,99999,99999,99999,99999,99999,99999,99999,99999,99999
13:13:19,1510804260,2017-11-16T03:51:06,0.716,601.9,6.84,4.25,8.31,829.660,2041.700,104.050003,38.23,2.5385,363,23394,1.81881,3.99,48356,,,,,,,,,,,,,,,,,,99999,99999,99999,99999,99999,99999,99999,99999,99999,99999,99999,99999
13:13:49,1510804290,2017-11-16T03:51:36,0.716,602.3,6.84,4.23,8.31,829.580,2041.700,103.633331,38.39,2.5385,363,23394,1.81793,3.99,48352,,,,,,,,,,,,,,,,,,99999,99999,99999,99999,99999,99999,99999,99999,99999,99999,99999,99999
13:14:19,1510804320,2017-11-16T03:52:06,0.722,602.6,6.84,4.21,8.28,829.530,2041.700,103.866669,38.27,2.5385,363,23394,1.83320,3.99,48347,,,,,,,,,,,,,,,,,,99999,99999,99999,99999,99999,99999,99999,99999,99999,99999,99999,99999
13:14:49,1510804350,2017-11-16T03:52:36,0.722,603.0,6.84,4.23,8.30,829.610,2041.700,104.449997,38.23,2.5385,363,23394,1.83320,3.99,48343,,,,,,,,,,,,,,,,,,99999,99999,99999,99999,99999,99999,99999,99999,99999,99999,99999,99999
13:15:19,1510804380,2017-11-16T03:53:06,0.715,603.3,6.83,4.22,8.24,829.610,2041.700,103.033333,38.50,2.5386,363,23393,1.81529,3.99,48339,,,,,,,,,,,,,,,,,,99999,99999,99999,99999,99999,99999,99999,99999,99999,99999,99999,99999
13:15:49,1510804410,2017-11-16T03:53:36,0.721,603.7,6.83,4.21,8.26,829.530,2041.700,104.650002,38.51,2.5386,363,23394,1.82996,3.99,48334,,,,,,,,,,,,,,,,,,99999,99999,99999,99999,99999,99999,99999,99999,99999,99999,99999,99999
13:16:19,1510804440,2017-11-16T03:54:06,0.715,604.1,6.83,4.24,8.24,829.640,2041.700,103.183334,38.51,2.5386,363,23394,1.81500,3.99,48330,,,,,,,,,,,,,,,,,,99999,99999,99999,99999,99999,99999,99999,99999,99999,99999,99999,99999
13:16:49,1510804470,2017-11-16T03:54:36,0.723,604.4,6.83,4.22,8.26,829.660,2041.700,104.583336,38.34,2.5386,363,23391,1.83496,3.99,48325,,,,,,,,,,,,,,,,,,99999,99999,99999,99999,99999,99999,99999,99999,99999,99999,99999,99999
13:17:19,1510804500,2017-11-16T03:55:06,0.721,604.8,6.83,4.24,8.28,829.580,2041.700,103.116669,38.32,2.5386,363,23393,1.83143,3.99,48321,,,,,,,,,,,,,,,,,,99999,99999,99999,99999,99999,99999,99999,99999,99999,99999,99999,99999
13:17:49,1510804530,2017-11-16T03:55:36,0.721,605.1,6.83,4.21,8.30,829.580,2041.700,103.583336,38.60,2.5386,363,23394,1.83055,3.99,48317,,,,,,,,,,,,,,,,,,99999,99999,99999,99999,99999,99999,99999,99999,99999,99999,99999,99999
13:18:19,1510804560,2017-11-16T03:56:06,0.719,605.5,6.83,4.21,8.30,829.640,2041.700,103.833336,38.87,2.5386,363,23390,1.82585,3.99,48312,,,,,,,,,,,,,,,,,,99999,99999,99999,99999,99999,99999,99999,99999,99999,99999,99999,99999
13:18:49,1510804590,2017-11-16T03:56:36,0.721,605.9,6.83,4.23,8.28,829.640,2041.700,104.150002,38.49,2.5386,363,23394,1.83084,3.99,48308,,,,,,,,,,,,,,,,,,99999,99999,99999,99999,99999,99999,99999,99999,99999,99999,99999,99999
13:19:19,1510804620,2017-11-16T03:57:06,0.722,606.2,6.82,4.18,8.23,829.590,2041.640,105.383331,39.23,2.5386,363,23394,1.83231,3.99,48304,,,,,,,,,,,,,,,,,,99999,99999,99999,99999,99999,99999,99999,99999,99999,99999,99999,99999
13:19:49,1510804650,2017-11-16T03:57:36,0.720,606.6,6.82,4.22,8.26,829.610,2041.640,104.233330,39.44,2.5386,363,23393,1.82790,3.99,48299,,,,,,,,,,,,,,,,,,99999,99999,99999,99999,99999,99999,99999,99999,99999,99999,99999,99999
13:20:19,1510804680,2017-11-16T03:58:06,0.718,606.9,6.81,4.20,8.26,829.640,2041.640,103.699997,38.77,2.5387,363,23395,1.82320,3.99,48295,,,,,,,,,,,,,,,,,,99999,99999,99999,99999,99999,99999,99999,99999,99999,99999,99999,99999
13:20:49,1510804710,2017-11-16T03:58:36,0.714,607.3,6.81,4.19,8.23,829.610,2041.640,103.333336,38.51,2.5387,363,23394,1.81149,3.99,48290,,,,,,,,,,,,,,,,,,99999,99999,99999,99999,99999,99999,99999,99999,99999,99999,99999,99999
13:21:19,1510804740,2017-11-16T03:59:06,0.715,607.7,6.81,4.18,8.26,829.590,2041.640,104.083336,38.46,2.5387,363,23390,1.81412,3.99,48286,,,,,,,,,,,,,,,,,,99999,99999,99999,99999,99999,99999,99999,99999,99999,99999,99999,99999
13:21:49,1510804770,2017-11-16T03:59:36,0.717,608.0,6.78,4.16,8.23,829.570,2041.530,104.800003,38.45,2.5389,363,23395,1.82115,3.99,48282,,,,,,,,,,,,,,,,,,99999,99999,99999,99999,99999,99999,99999,99999,99999,99999,99999,99999
13:22:19,1510804800,2017-11-16T04:00:06,0.715,608.4,6.77,4.13,8.24,829.540,2041.470,103.516670,38.46,2.5389,363,23390,1.81558,3.99,48277,,,,,,,,,,,,,,,,,,99999,99999,99999,99999,99999,99999,99999,99999,99999,99999,99999,99999
13:22:49,1510804830,2017-11-16T04:00:36,0.715,608.7,6.78,4.15,8.22,829.540,2041.530,104.000000,38.62,2.5389,363,23394,1.81587,3.99,48273,,,,,,,,,,,,,,,,,,99999,99999,99999,99999,99999,99999,99999,99999,99999,99999,99999,99999
13:23:19,1510804860,2017-11-16T04:01:06,0.722,609.1,6.77,4.19,8.22,829.540,2041.470,105.000000,38.87,2.5389,363,23392,1.83261,3.99,48268,,,,,,,,,,,,,,,,,,99999,99999,99999,99999,99999,99999,99999,99999,99999,99999,99999,99999
13:23:49,1510804890,2017-11-16T04:01:36,0.719,609.5,6.77,4.16,8.22,829.620,2041.470,103.683334,39.04,2.5389,363,23393,1.82438,3.99,48264,,,,,,,,,,,,,,,,,,99999,99999,99999,99999,99999,99999,99999,99999,99999,99999,99999,99999
13:24:19,1510804920,2017-11-16T04:02:06,0.714,609.8,6.76,4.17,8.18,829.520,2041.470,102.849998,38.89,2.5389,363,23391,1.81266,3.99,48260,,,,,,,,,,,,,,,,,,99999,99999,99999,99999,99999,99999,99999,99999,99999,99999,99999,99999
13:24:49,1510804950,2017-11-16T04:02:36,0.715,610.2,6.76,4.17,8.22,829.490,2041.470,103.333336,38.92,2.5389,363,23389,1.81558,3.99,48255,,,,,,,,,,,,,,,,,,99999,99999,99999,99999,99999,99999,99999,99999,99999,99999,99999,99999
13:25:19,1510804980,2017-11-16T04:03:06,0.720,610.5,6.75,4.15,8.18,829.520,2041.370,104.949997,39.04,2.5389,363,23390,1.82732,3.99,48251,,,,,,,,,,,,,,,,,,99999,99999,99999,99999,99999,99999,99999,99999,99999,99999,99999,99999
13:25:49,1510805010,2017-11-16T04:03:36,0.718,610.9,6.75,4.13,8.20,829.570,2041.370,103.333336,39.13,2.5389,363,23394,1.82232,3.99,48246,,,,,,,,,,,,,,,,,,99999,99999,99999,99999,99999,99999,99999,99999,99999,99999,99999,99999
13:26:19,1510805040,2017-11-16T04:04:06,0.721,611.3,6.75,4.13,8.20,829.550,2041.370,104.000000,39.07,2.5389,363,23392,1.83173,3.99,48242,,,,,,,,,,,,,,,,,,99999,99999,99999,99999,99999,99999,99999,99999,99999,99999,99999,99999
13:26:49,1510805070,2017-11-16T04:04:36,0.721,611.6,6.74,4.14,8.18,829.500,2041.370,104.699997,39.19,2.5390,363,23392,1.82967,3.99,48238,,,,,,,,,,,,,,,,,,99999,99999,99999,99999,99999,99999,99999,99999,99999,99999,99999,99999
13:27:19,1510805100,2017-11-16T04:05:06,0.714,612.0,6.74,4.11,8.20,829.580,2041.370,103.216667,39.05,2.5390,363,23392,1.81324,3.99,48233,,,,,,,,,,,,,,,,,,99999,99999,99999,99999,99999,99999,99999,99999,99999,99999,99999,99999
13:27:49,1510805130,2017-11-16T04:05:36,0.722,612.3,6.72,4.10,8.16,829.550,2041.300,103.983330,39.32,2.5391,363,23390,1.83261,3.99,48229,,,,,,,,,,,,,,,,,,99999,99999,99999,99999,99999,99999,99999,99999,99999,99999,99999,99999
13:28:19,1510805160,2017-11-16T04:06:06,0.714,612.7,6.73,4.11,8.18,829.500,2041.300,103.500000,39.27,2.5390,363,23390,1.81266,3.99,48225,,,,,,,,,,,,,,,,,,99999,99999,99999,99999,99999,99999,99999,99999,99999,99999,99999,99999
13:28:49,1510805190,2017-11-16T04:06:36,0.722,613.0,6.72,4.10,8.16,829.530,2041.300,104.699997,39.21,2.5391,363,23392,1.83202,3.99,48220,,,,,,,,,,,,,,,,,,99999,99999,99999,99999,99999,99999,99999,99999,99999,99999,99999,99999
13:29:19,1510805220,2017-11-16T04:07:06,0.717,613.4,6.71,4.09,8.16,829.480,2041.260,105.050003,39.75,2.5391,363,23392,1.82115,3.99,48216,,,,,,,,,,,,,,,,,,99999,99999,99999,99999,99999,99999,99999,99999,99999,99999,99999,99999
13:29:49,1510805250,2017-11-16T04:07:36,0.713,613.8,6.70,4.11,8.14,829.460,2041.260,103.833336,39.29,2.5392,363,23390,1.81149,3.99,48211,,,,,,,,,,,,,,,,,,99999,99999,99999,99999,99999,99999,99999,99999,99999,99999,99999,99999
13:30:19,1510805280,2017-11-16T04:08:06,0.716,614.1,6.70,4.06,8.14,829.480,2041.260,104.416664,39.16,2.5392,363,23390,1.81734,3.99,48207,,,,,,,,,,,,,,,,,,99999,99999,99999,99999,99999,99999,99999,99999,99999,99999,99999,99999
13:30:49,1510805310,2017-11-16T04:08:36,0.721,614.5,6.69,4.05,8.15,829.490,2041.200,104.433334,39.20,2.5392,363,23390,1.83143,3.99,48203,,,,,,,,,,,,,,,,,,99999,99999,99999,99999,99999,99999,99999,99999,99999,99999,99999,99999
13:31:19,1510805340,2017-11-16T04:09:06,0.719,614.8,6.68,4.04,8.10,829.510,2041.200,104.033333,38.98,2.5393,363,23389,1.82673,3.99,48198,,,,,,,,,,,,,,,,,,99999,99999,99999,99999,99999,99999,99999,99999,99999,99999,99999,99999
13:31:49,1510805370,2017-11-16T04:09:36,0.718,615.2,6.67,4.04,8.11,829.540,2041.140,103.666664,38.72,2.5394,363,23389,1.82350,3.99,48194,,,,,,,,,,,,,,,,,,99999,99999,99999,99999,99999,99999,99999,99999,99999,99999,99999,99999
13:32:19,1510805400,2017-11-16T04:10:06,0.718,615.6,6.66,4.01,8.10,829.490,2041.100,104.099998,38.91,2.5394,363,23392,1.82379,3.99,48189,,,,,,,,,,,,,,,,,,99999,99999,99999,99999,99999,99999,99999,99999,99999,99999,99999,99999
13:32:49,1510805430,2017-11-16T04:10:36,0.719,615.9,6.65,4.04,8.10,829.520,2041.100,104.716667,39.15,2.5395,363,23388,1.82496,3.99,48185,,,,,,,,,,,,,,,,,,99999,99999,99999,99999,99999,99999,99999,99999,99999,99999,99999,99999
13:33:19,1510805460,2017-11-16T04:11:06,0.718,616.3,6.64,4.02,8.03,829.470,2041.030,104.716667,39.07,2.5395,363,23387,1.82350,3.99,48181,,,,,,,,,,,,,,,,,,99999,99999,99999,99999,99999,99999,99999,99999,99999,99999,99999,99999
13:33:49,1510805490,2017-11-16T04:11:36,0.718,616.6,6.64,4.04,8.07,829.450,2041.030,103.966667,39.34,2.5395,363,23387,1.82291,3.99,48176,,,,,,,,,,,,,,,,,,99999,99999,99999,99999,99999,99999,99999,99999,99999,99999,99999,99999
13:34:19,1510805520,2017-11-16T04:12:06,0.715,617.0,6.64,4.02,8.07,829.500,2041.030,103.650002,39.03,2.5395,363,23389,1.81587,3.99,48172,,,,,,,,,,,,,,,,,,99999,99999,99999,99999,99999,99999,99999,99999,99999,99999,99999,99999
13:34:49,1510805550,2017-11-16T04:12:36,0.714,617.4,6.62,4.00,8.07,829.530,2040.930,103.516670,39.16,2.5396,363,23387,1.81383,3.99,48168,,,,,,,,,,,,,,,,,,99999,99999,99999,99999,99999,99999,99999,99999,99999,99999,99999,99999
13:35:19,1510805580,2017-11-16T04:13:06,0.720,617.7,6.61,4.01,8.06,829.550,2040.930,104.066666,38.67,2.5397,363,23387,1.82790,3.99,48163,,,,,,,,,,,,,,,,,,99999,99999,99999,99999,99999,99999,99999,99999,99999,99999,99999,99999
13:35:49,1510805610,2017-11-16T04:13:36,0.718,618.1,6.61,3.98,8.06,829.500,2040.930,105.433334,39.22,2.5396,363,23386,1.82467,3.99,48159,,,,,,,,,,,,,,,,,,99999,99999,99999,99999,99999,99999,99999,99999,99999,99999,99999,99999
13:36:19,1510805640,2017-11-16T04:14:06,0.713,618.4,6.60,4.01,8.06,829.510,2040.870,103.000000,39.42,2.5397,363,23389,1.81120,3.98,48154,,,,,,,,,,,,,,,,,,99999,99999,99999,99999,99999,99999,99999,99999,99999,99999,99999,99999
13:36:49,1510805670,2017-11-16T04:14:36,0.721,618.8,6.60,3.99,8.03,829.380,2040.870,105.033333,40.03,2.5396,363,23388,1.83084,3.98,48150,,,,,,,,,,,,,,,,,,99999,99999,99999,99999,99999,99999,99999,99999,99999,99999,99999,99999
13:37:19,1510805700,2017-11-16T04:15:06,0.713,619.1,6.59,4.00,8.06,829.430,2040.870,104.233330,40.34,2.5397,363,23387,1.81207,3.98,48146,,,,,,,,,,,,,,,,,,99999,99999,99999,99999,99999,99999,99999,99999,99999,99999,99999,99999
13:37:49,1510805730,2017-11-16T04:15:36,0.719,619.5,6.58,3.96,8.03,829.380,2040.800,104.099998,40.20,2.5397,363,23388,1.82702,3.98,48141,,,,,,,,,,,,,,,,,,99999,99999,99999,99999,99999,99999,99999,99999,99999,99999,99999,99999
13:38:19,1510805760,2017-11-16T04:16:06,0.713,619.9,6.56,3.95,8.01,829.310,2040.760,102.916664,39.95,2.5399,363,23385,1.81178,3.98,48137,,,,,,,,,,,,,,,,,,99999,99999,99999,99999,99999,99999,99999,99999,99999,99999,99999,99999
13:38:49,1510805790,2017-11-16T04:16:36,0.717,620.2,6.54,3.93,8.01,829.390,2040.700,103.516670,40.01,2.5400,363,23384,1.82086,3.98,48132,,,,,,,,,,,,,,,,,,99999,99999,99999,99999,99999,99999,99999,99999,99999,99999,99999,99999
13:39:19,1510805820,2017-11-16T04:17:06,0.718,620.6,6.54,3.91,7.99,829.390,2040.700,105.316666,39.26,2.5400,363,23384,1.82379,3.98,48128,,,,,,,,,,,,,,,,,,99999,99999,99999,99999,99999,99999,99999,99999,99999,99999,99999,99999
13:39:49,1510805850,2017-11-16T04:17:36,0.714,620.9,6.52,3.90,7.99,829.390,2040.640,103.866669,39.63,2.5401,363,23385,1.81324,3.98,48124,,,,,,,,,,,,,,,,,,99999,99999,99999,99999,99999,99999,99999,99999,99999,99999,99999,99999
13:40:19,1510805880,2017-11-16T04:18:06,0.715,621.3,6.52,3.90,7.97,829.420,2040.640,102.349998,39.71,2.5401,363,23382,1.81500,3.98,48119,,,,,,,,,,,,,,,,,,99999,99999,99999,99999,99999,99999,99999,99999,99999,99999,99999,99999
13:40:49,1510805910,2017-11-16T04:18:36,0.718,621.7,6.49,3.92,7.94,829.400,2040.470,103.666664,39.39,2.5402,363,23384,1.82408,3.98,48115,,,,,,,,,,,,,,,,,,99999,99999,99999,99999,99999,99999,99999,99999,99999,99999,99999,99999
13:41:19,1510805940,2017-11-16T04:19:06,0.719,622.0,6.48,3.89,7.89,829.400,2040.470,105.199997,39.34,2.5403,363,23386,1.82643,3.98,48110,,,,,,,,,,,,,,,,,,99999,99999,99999,99999,99999,99999,99999,99999,99999,99999,99999,99999
13:41:49,1510805970,2017-11-16T04:19:36,0.716,622.4,6.47,3.87,7.94,829.460,2040.430,103.349998,39.46,2.5403,363,23382,1.81968,3.98,48106,,,,,,,,,,,,,,,,,,99999,99999,99999,99999,99999,99999,99999,99999,99999,99999,99999,99999
13:42:19,1510806000,2017-11-16T04:20:06,0.717,622.7,6.46,3.86,7.93,829.330,2040.430,102.633331,39.24,2.5404,363,23384,1.82027,3.98,48102,,,,,,,,,,,,,,,,,,99999,99999,99999,99999,99999,99999,99999,99999,99999,99999,99999,99999
13:42:49,1510806030,2017-11-16T04:20:36,0.719,623.1,6.46,3.87,7.93,829.430,2040.430,103.949997,39.47,2.5404,363,23382,1.82702,3.98,48097,,,,,,,,,,,,,,,,,,99999,99999,99999,99999,99999,99999,99999,99999,99999,99999,99999,99999
13:43:19,1510806060,2017-11-16T04:21:06,0.715,623.4,6.45,3.85,7.89,829.440,2040.370,104.983330,39.05,2.5404,363,23383,1.81705,3.98,48093,,,,,,,,,,,,,,,,,,99999,99999,99999,99999,99999,99999,99999,99999,99999,99999,99999,99999
13:43:49,1510806090,2017-11-16T04:21:36,0.714,623.8,6.43,3.84,7.91,829.410,2040.300,102.183334,39.02,2.5405,363,23383,1.81412,3.98,48089,,,,,,,,,,,,,,,,,,99999,99999,99999,99999,99999,99999,99999,99999,99999,99999,99999,99999
13:44:19,1510806120,2017-11-16T04:22:06,0.719,624.2,6.43,3.83,7.86,829.440,2040.300,104.583336,38.89,2.5405,363,23380,1.82614,3.98,48084,,,,,,,,,,,,,,,,,,99999,99999,99999,99999,99999,99999,99999,99999,99999,99999,99999,99999
13:44:49,1510806150,2017-11-16T04:22:36,0.718,624.5,6.43,3.84,7.91,829.410,2040.300,104.449997,39.08,2.5405,363,23383,1.82467,3.98,48080,,,,,,,,,,,,,,,,,,99999,99999,99999,99999,99999,99999,99999,99999,99999,99999,99999,99999
13:45:19,1510806180,2017-11-16T04:23:06,0.713,624.9,6.44,3.85,7.88,829.410,2040.300,102.300003,39.08,2.5404,363,23384,1.81178,3.98,48075,,,,,,,,,,,,,,,,,,99999,99999,99999,99999,99999,99999,99999,99999,99999,99999,99999,99999
13:45:49,1510806210,2017-11-16T04:23:36,0.717,625.2,6.44,3.86,7.88,829.410,2040.300,104.033333,39.02,2.5404,363,23383,1.82174,3.98,48071,,,,,,,,,,,,,,,,,,99999,99999,99999,99999,99999,99999,99999,99999,99999,99999,99999,99999
13:46:19,1510806240,2017-11-16T04:24:06,0.717,625.6,6.46,3.87,7.89,829.350,2040.430,103.066666,38.98,2.5404,363,23385,1.82056,3.98,48067,,,,,,,,,,,,,,,,,,99999,99999,99999,99999,99999,99999,99999,99999,99999,99999,99999,99999
13:46:49,1510806270,2017-11-16T04:24:36,0.719,626.0,6.45,3.88,7.91,829.330,2040.370,104.716667,38.95,2.5404,363,23384,1.82673,3.98,48062,,,,,,,,,,,,,,,,,,99999,99999,99999,99999,99999,99999,99999,99999,99999,99999,99999,99999
13:47:19,1510806300,2017-11-16T04:25:06,0.711,626.3,6.46,3.88,7.89,829.380,2040.430,103.599998,38.76,2.5404,363,23386,1.80711,3.98,48058,,,,,,,,,,,,,,,,,,99999,99999,99999,99999,99999,99999,99999,99999,99999,99999,99999,99999
13:47:49,1510806330,2017-11-16T04:25:36,0.717,626.7,6.47,3.86,7.89,829.350,2040.430,103.916664,38.67,2.5403,363,23385,1.82056,3.98,48053,,,,,,,,,,,,,,,,,,99999,99999,99999,99999,99999,99999,99999,99999,99999,99999,99999,99999
13:48:19,1510806360,2017-11-16T04:26:06,0.719,627.0,6.48,3.91,7.93,829.370,2040.470,103.466667,39.73,2.5402,363,23388,1.82555,3.98,48049,,,,,,,,,,,,,,,,,,99999,99999,99999,99999,99999,99999,99999,99999,99999,99999,99999,99999
13:48:49,1510806390,2017-11-16T04:26:36,0.717,627.4,6.48,3.84,7.93,829.350,2040.470,103.066666,39.31,2.5403,363,23383,1.82144,3.98,48045,,,,,,,,,,,,,,,,,,99999,99999,99999,99999,99999,99999,99999,99999,99999,99999,99999,99999
13:49:19,1510806420,2017-11-16T04:27:06,0.719,627.7,6.48,3.89,7.91,829.320,2040.470,104.699997,39.35,2.5403,363,23384,1.82673,3.98,48040,,,,,,,,,,,,,,,,,,99999,99999,99999,99999,99999,99999,99999,99999,99999,99999,99999,99999
13:49:49,1510806450,2017-11-16T04:27:36,0.713,628.1,6.48,3.89,7.91,829.370,2040.470,102.783333,39.38,2.5403,363,23384,1.81090,3.98,48036,,,,,,,,,,,,,,,,,,99999,99999,99999,99999,99999,99999,99999,99999,99999,99999,99999,99999
13:50:19,1510806480,2017-11-16T04:28:06,0.712,628.5,6.46,3.85,7.91,829.350,2040.430,103.050003,39.28,2.5404,363,23383,1.80769,3.98,48032,,,,,,,,,,,,,,,,,,99999,99999,99999,99999,99999,99999,99999,99999,99999,99999,99999,99999
13:50:49,1510806510,2017-11-16T04:28:36,0.712,628.8,6.47,3.88,7.94,829.300,2040.430,103.500000,39.21,2.5403,363,23383,1.80974,3.98,48027,,,,,,,,,,,,,,,,,,99999,99999,99999,99999,99999,99999,99999,99999,99999,99999,99999,99999
13:51:19,1510806540,2017-11-16T04:29:06,0.712,629.2,6.46,3.85,7.91,829.350,2040.430,101.966667,39.09,2.5404,363,23382,1.80798,3.98,48023,,,,,,,,,,,,,,,,,,99999,99999,99999,99999,99999,99999,99999,99999,99999,99999,99999,99999
13:51:49,1510806570,2017-11-16T04:29:36,0.713,629.5,6.44,3.86,7.89,829.360,2040.300,102.599998,39.00,2.5404,363,23384,1.81207,3.98,48018,,,,,,,,,,,,,,,,,,99999,99999,99999,99999,99999,99999,99999,99999,99999,99999,99999,99999
13:52:19,1510806600,2017-11-16T04:30:06,0.715,629.9,6.45,3.85,7.91,829.360,2040.370,102.316666,39.20,2.5404,363,23383,1.81646,3.98,48014,,,,,,,,,,,,,,,,,,99999,99999,99999,99999,99999,99999,99999,99999,99999,99999,99999,99999
13:52:49,1510806630,2017-11-16T04:30:36,0.717,630.2,6.41,3.83,7.91,829.340,2040.260,102.883331,39.43,2.5406,363,23381,1.82115,3.98,48010,,,,,,,,,,,,,,,,,,99999,99999,99999,99999,99999,99999,99999,99999,99999,99999,99999,99999
13:53:19,1510806660,2017-11-16T04:31:06,0.719,630.6,6.42,3.81,7.89,829.320,2040.260,102.849998,39.20,2.5406,363,23381,1.82702,3.98,48005,,,,,,,,,,,,,,,,,,99999,99999,99999,99999,99999,99999,99999,99999,99999,99999,99999,99999
13:53:49,1510806690,2017-11-16T04:31:36,0.714,631.0,6.43,3.83,7.89,829.310,2040.300,102.666664,39.09,2.5405,363,23382,1.81500,3.98,48001,,,,,,,,,,,,,,,,,,99999,99999,99999,99999,99999,99999,99999,99999,99999,99999,99999,99999
13:54:19,1510806720,2017-11-16T04:32:06,0.720,631.3,6.42,3.82,7.86,829.340,2040.260,103.666664,39.00,2.5406,363,23383,1.82878,3.98,47996,,,,,,,,,,,,,,,,,,99999,99999,99999,99999,99999,99999,99999,99999,99999,99999,99999,99999
13:54:49,1510806750,2017-11-16T04:32:36,0.716,631.7,6.41,3.80,7.86,829.290,2040.260,102.050003,39.01,2.5407,363,23379,1.81998,3.98,47992,,,,,,,,,,,,,,,,,,99999,99999,99999,99999,99999,99999,99999,99999,99999,99999,99999,99999
13:55:19,1510806780,2017-11-16T04:33:06,0.717,632.0,6.41,3.81,7.88,829.260,2040.260,102.050003,39.22,2.5406,363,23381,1.82086,3.98,47988,,,,,,,,,,,,,,,,,,99999,99999,99999,99999,99999,99999,99999,99999,99999,99999,99999,99999
13:55:49,1510806810,2017-11-16T04:33:36,0.717,632.4,6.41,3.79,7.88,829.290,2040.260,103.650002,39.61,2.5406,363,23381,1.82144,3.98,47983,,,,,,,,,,,,,,,,,,99999,99999,99999,99999,99999,99999,99999,99999,99999,99999,99999,99999
13:56:19,1510806840,2017-11-16T04:34:06,0.713,632.8,6.41,3.79,7.86,829.240,2040.260,102.416664,39.52,2.5406,363,23383,1.81178,3.98,47979,,,,,,,,,,,,,,,,,,99999,99999,99999,99999,99999,99999,99999,99999,99999,99999,99999,99999
13:56:49,1510806870,2017-11-16T04:34:36,0.716,633.1,6.41,3.78,7.84,829.190,2040.260,105.183334,39.13,2.5407,363,23380,1.81881,3.98,47975,,,,,,,,,,,,,,,,,,99999,99999,99999,99999,99999,99999,99999,99999,99999,99999,99999,99999
13:57:19,1510806900,2017-11-16T04:35:06,0.720,633.5,6.41,3.81,7.84,829.110,2040.260,103.099998,38.98,2.5407,363,23381,1.82849,3.98,47970,,,,,,,,,,,,,,,,,,99999,99999,99999,99999,99999,99999,99999,99999,99999,99999,99999,99999
13:57:49,1510806930,2017-11-16T04:35:36,0.718,633.8,6.41,3.77,7.86,829.190,2040.260,104.133331,38.96,2.5407,363,23380,1.82408,3.98,47966,,,,,,,,,,,,,,,,,,99999,99999,99999,99999,99999,99999,99999,99999,99999,99999,99999,99999
13:58:19,1510806960,2017-11-16T04:36:06,0.714,634.2,6.40,3.78,7.88,829.240,2040.200,103.216667,39.17,2.5407,363,23378,1.81441,3.98,47961,,,,,,,,,,,,,,,,,,99999,99999,99999,99999,99999,99999,99999,99999,99999,99999,99999,99999
13:58:49,1510806990,2017-11-16T04:36:36,0.712,634.5,6.40,3.79,7.81,829.240,2040.200,102.016670,39.30,2.5407,363,23380,1.80886,3.98,47957,,,,,,,,,,,,,,,,,,99999,99999,99999,99999,99999,99999,99999,99999,99999,99999,99999,99999
13:59:19,1510807020,2017-11-16T04:37:06,0.719,634.9,6.40,3.76,7.86,829.240,2040.200,104.716667,39.01,2.5407,363,23382,1.82732,3.98,47953,,,,,,,,,,,,,,,,,,99999,99999,99999,99999,99999,99999,99999,99999,99999,99999,99999,99999
13:59:49,1510807050,2017-11-16T04:37:36,0.712,635.3,6.39,3.79,7.86,829.240,2040.200,102.816666,38.83,2.5408,363,23379,1.80856,3.98,47948,,,,,,,,,,,,,,,,,,99999,99999,99999,99999,99999,99999,99999,99999,99999,99999,99999,99999
14:00:19,1510807080,2017-11-16T04:38:06,0.720,635.6,6.39,3.79,7.84,829.320,2040.200,103.183334,38.79,2.5408,363,23380,1.82878,3.98,47944,,,,,,,,,,,,,,,,,,99999,99999,99999,99999,99999,99999,99999,99999,99999,99999,99999,99999
14:00:49,1510807110,2017-11-16T04:38:36,0.714,636.0,6.40,3.79,7.84,829.300,2040.200,103.266670,38.65,2.5407,363,23379,1.81470,3.98,47940,,,,,,,,,,,,,,,,,,99999,99999,99999,99999,99999,99999,99999,99999,99999,99999,99999,99999
14:01:19,1510807140,2017-11-16T04:39:06,0.715,636.3,6.39,3.78,7.84,829.220,2040.200,102.949997,38.56,2.5408,363,23379,1.81734,3.98,47935,,,,,,,,,,,,,,,,,,99999,99999,99999,99999,99999,99999,99999,99999,99999,99999,99999,99999
14:01:49,1510807170,2017-11-16T04:39:36,0.713,636.7,6.39,3.77,7.82,829.190,2040.200,102.599998,38.49,2.5408,363,23379,1.81090,3.98,47931,,,,,,,,,,,,,,,,,,99999,99999,99999,99999,99999,99999,99999,99999,99999,99999,99999,99999
14:02:19,1510807200,2017-11-16T04:40:06,0.712,637.0,6.40,3.80,7.81,829.190,2040.200,101.949997,38.41,2.5407,363,23381,1.80798,3.98,47926,,,,,,,,,,,,,,,,,,99999,99999,99999,99999,99999,99999,99999,99999,99999,99999,99999,99999
14:02:49,1510807230,2017-11-16T04:40:36,0.719,637.4,6.40,3.79,7.84,829.220,2040.200,103.516670,38.00,2.5407,363,23380,1.82673,3.98,47922,,,,,,,,,,,,,,,,,,99999,99999,99999,99999,99999,99999,99999,99999,99999,99999,99999,99999
14:03:19,1510807260,2017-11-16T04:41:06,0.715,637.8,6.41,3.78,7.84,829.210,2040.260,102.250000,38.07,2.5407,363,23380,1.81763,3.98,47918,,,,,,,,,,,,,,,,,,99999,99999,99999,99999,99999,99999,99999,99999,99999,99999,99999,99999
14:03:49,1510807290,2017-11-16T04:41:36,0.714,638.1,6.41,3.79,7.82,829.190,2040.260,101.500000,38.37,2.5407,363,23379,1.81324,3.98,47913,,,,,,,,,,,,,,,,,,99999,99999,99999,99999,99999,99999,99999,99999,99999,99999,99999,99999
14:04:19,1510807320,2017-11-16T04:42:06,0.717,638.5,6.42,3.80,7.86,829.240,2040.260,102.266670,38.30,2.5406,363,23382,1.82203,3.98,47909,,,,,,,,,,,,,,,,,,99999,99999,99999,99999,99999,99999,99999,99999,99999,99999,99999,99999
14:04:49,1510807350,2017-11-16T04:42:36,0.719,638.8,6.44,3.78,7.88,829.280,2040.300,104.599998,38.46,2.5405,363,23379,1.82761,3.98,47905,,,,,,,,,,,,,,,,,,99999,99999,99999,99999,99999,99999,99999,99999,99999,99999,99999,99999
14:05:19,1510807380,2017-11-16T04:43:06,0.714,639.2,6.44,3.82,7.84,829.250,2040.300,102.250000,38.06,2.5405,363,23380,1.81354,3.98,47900,,,,,,,,,,,,,,,,,,99999,99999,99999,99999,99999,99999,99999,99999,99999,99999,99999,99999
14:05:49,1510807410,2017-11-16T04:43:36,0.714,639.6,6.46,3.82,7.88,829.250,2040.430,104.300003,38.33,2.5404,363,23381,1.81354,3.98,47896,,,,,,,,,,,,,,,,,,99999,99999,99999,99999,99999,99999,99999,99999,99999,99999,99999,99999
14:06:19,1510807440,2017-11-16T04:44:06,0.717,639.9,6.48,3.83,7.89,829.240,2040.470,104.366669,38.99,2.5403,363,23380,1.82232,3.98,47891,,,,,,,,,,,,,,,,,,99999,99999,99999,99999,99999,99999,99999,99999,99999,99999,99999,99999
14:06:49,1510807470,2017-11-16T04:44:36,0.720,640.3,6.49,3.83,7.91,829.220,2040.470,104.716667,38.44,2.5402,363,23381,1.82790,3.98,47887,,,,,,,,,,,,,,,,,,99999,99999,99999,99999,99999,99999,99999,99999,99999,99999,99999,99999
14:07:19,1510807500,2017-11-16T04:45:06,0.714,640.6,6.50,3.82,7.91,829.290,2040.600,102.566666,38.55,2.5403,363,23383,1.81383,3.98,47883,,,,,,,,,,,,,,,,,,99999,99999,99999,99999,99999,99999,99999,99999,99999,99999,99999,99999
14:07:49,1510807530,2017-11-16T04:45:36,0.716,641.0,6.51,3.85,7.91,829.270,2040.600,104.816666,38.51,2.5402,363,23381,1.81910,3.98,47878,,,,,,,,,,,,,,,,,,99999,99999,99999,99999,99999,99999,99999,99999,99999,99999,99999,99999
14:08:19,1510807560,2017-11-16T04:46:06,0.716,641.3,6.51,3.87,7.94,829.240,2040.600,103.383331,38.38,2.5402,363,23383,1.81910,3.98,47874,,,,,,,,,,,,,,,,,,99999,99999,99999,99999,99999,99999,99999,99999,99999,99999,99999,99999
14:08:49,1510807590,2017-11-16T04:46:36,0.714,641.7,6.52,3.83,7.93,829.130,2040.640,103.650002,38.75,2.5401,363,23381,1.81470,3.98,47869,,,,,,,,,,,,,,,,,,99999,99999,99999,99999,99999,99999,99999,99999,99999,99999,99999,99999
14:09:19,1510807620,2017-11-16T04:47:06,0.721,642.1,6.53,3.88,7.94,829.160,2040.640,104.383331,38.60,2.5400,363,23385,1.83026,3.98,47865,,,,,,,,,,,,,,,,,,99999,99999,99999,99999,99999,99999,99999,99999,99999,99999,99999,99999
14:09:49,1510807650,2017-11-16T04:47:36,0.718,642.4,6.54,3.89,7.95,829.050,2040.700,103.833336,38.34,2.5400,363,23383,1.82467,3.98,47861,,,,,,,,,,,,,,,,,,99999,99999,99999,99999,99999,99999,99999,99999,99999,99999,99999,99999
14:10:19,1510807680,2017-11-16T04:48:06,0.712,642.8,6.55,3.89,7.97,828.940,2040.700,103.966667,38.14,2.5400,363,23383,1.80944,3.98,47856,,,,,,,,,,,,,,,,,,99999,99999,99999,99999,99999,99999,99999,99999,99999,99999,99999,99999
14:10:49,1510807710,2017-11-16T04:48:36,0.714,643.1,6.57,3.88,7.99,829.010,2040.800,103.433334,38.20,2.5399,363,23383,1.81324,3.98,47852,,,,,,,,,,,,,,,,,,99999,99999,99999,99999,99999,99999,99999,99999,99999,99999,99999,99999
14:11:19,1510807740,2017-11-16T04:49:06,0.718,643.5,6.57,3.91,7.99,828.980,2040.800,104.516670,38.33,2.5399,363,23385,1.82261,3.98,47848,,,,,,,,,,,,,,,,,,99999,99999,99999,99999,99999,99999,99999,99999,99999,99999,99999,99999
14:11:49,1510807770,2017-11-16T04:49:36,0.721,643.9,6.58,3.93,7.97,828.930,2040.800,105.333336,38.44,2.5398,363,23384,1.83026,3.98,47843,,,,,,,,,,,,,,,,,,99999,99999,99999,99999,99999,99999,99999,99999,99999,99999,99999,99999
14:12:19,1510807800,2017-11-16T04:50:06,0.716,644.2,6.58,3.91,8.01,828.930,2040.800,102.733330,38.12,2.5398,363,23384,1.81851,3.98,47839,,,,,,,,,,,,,,,,,,99999,99999,99999,99999,99999,99999,99999,99999,99999,99999,99999,99999
14:12:49,1510807830,2017-11-16T04:50:36,0.718,644.6,6.60,3.93,8.01,828.980,2040.870,103.283333,38.24,2.5397,363,23384,1.82467,3.98,47834,,,,,,,,,,,,,,,,,,99999,99999,99999,99999,99999,99999,99999,99999,99999,99999,99999,99999
14:13:19,1510807860,2017-11-16T04:51:06,0.720,644.9,6.60,3.94,8.03,828.980,2040.870,105.466667,38.05,2.5397,363,23385,1.82908,3.98,47830,,,,,,,,,,,,,,,,,,99999,99999,99999,99999,99999,99999,99999,99999,99999,99999,99999,99999
14:13:49,1510807890,2017-11-16T04:51:36,0.713,645.3,6.61,3.94,8.03,829.000,2040.930,102.933334,37.99,2.5397,363,23384,1.81149,3.98,47826,,,,,,,,,,,,,,,,,,99999,99999,99999,99999,99999,99999,99999,99999,99999,99999,99999,99999
14:14:19,1510807920,2017-11-16T04:52:06,0.721,645.6,6.63,3.95,8.06,828.950,2041.030,104.500000,37.74,2.5397,363,23385,1.83143,3.98,47821,,,,,,,,,,,,,,,,,,99999,99999,99999,99999,99999,99999,99999,99999,99999,99999,99999,99999
14:14:49,1510807950,2017-11-16T04:52:36,0.713,646.0,6.65,3.97,8.07,828.890,2041.100,103.050003,37.84,2.5395,363,23385,1.81032,3.98,47817,,,,,,,,,,,,,,,,,,99999,99999,99999,99999,99999,99999,99999,99999,99999,99999,99999,99999
14:15:19,1510807980,2017-11-16T04:53:06,0.716,646.4,6.66,3.98,8.07,828.990,2041.100,103.566666,39.33,2.5394,363,23389,1.81793,3.98,47812,,,,,,,,,,,,,,,,,,99999,99999,99999,99999,99999,99999,99999,99999,99999,99999,99999,99999
14:15:49,1510808010,2017-11-16T04:53:36,0.714,646.7,6.67,3.98,8.06,828.970,2041.140,103.366669,38.79,2.5394,363,23385,1.81383,3.98,47808,,,,,,,,,,,,,,,,,,99999,99999,99999,99999,99999,99999,99999,99999,99999,99999,99999,99999
14:16:19,1510808040,2017-11-16T04:54:06,0.722,647.1,6.67,4.00,8.10,829.020,2041.140,104.250000,38.15,2.5394,363,23388,1.83408,3.98,47804,,,,,,,,,,,,,,,,,,99999,99999,99999,99999,99999,99999,99999,99999,99999,99999,99999,99999
14:16:49,1510808070,2017-11-16T04:54:36,0.719,647.4,6.68,4.00,8.10,829.040,2041.200,105.566666,37.95,2.5394,363,23385,1.82614,3.98,47799,,,,,,,,,,,,,,,,,,99999,99999,99999,99999,99999,99999,99999,99999,99999,99999,99999,99999
14:17:19,1510808100,2017-11-16T04:55:06,0.715,647.8,6.68,4.00,8.09,829.040,2041.200,104.400002,38.31,2.5394,363,23386,1.81676,3.98,47795,,,,,,,,,,,,,,,,,,99999,99999,99999,99999,99999,99999,99999,99999,99999,99999,99999,99999
14:17:49,1510808130,2017-11-16T04:55:36,0.717,648.2,6.67,4.01,8.11,828.970,2041.140,104.233330,38.08,2.5394,363,23386,1.82144,3.98,47790,,,,,,,,,,,,,,,,,,99999,99999,99999,99999,99999,99999,99999,99999,99999,99999,99999,99999
14:18:19,1510808160,2017-11-16T04:56:06,0.721,648.5,6.69,4.00,8.11,829.040,2041.200,105.050003,38.02,2.5393,363,23389,1.83143,3.98,47786,,,,,,,,,,,,,,,,,,99999,99999,99999,99999,99999,99999,99999,99999,99999,99999,99999,99999
14:18:49,1510808190,2017-11-16T04:56:36,0.719,648.9,6.69,3.99,8.09,829.020,2041.200,104.333336,38.00,2.5393,363,23385,1.82614,3.98,47782,,,,,,,,,,,,,,,,,,99999,99999,99999,99999,99999,99999,99999,99999,99999,99999,99999,99999
14:19:19,1510808220,2017-11-16T04:57:06,0.722,649.2,6.68,4.02,8.09,829.020,2041.200,104.750000,38.56,2.5394,363,23386,1.83261,3.98,47777,,,,,,,,,,,,,,,,,,99999,99999,99999,99999,99999,99999,99999,99999,99999,99999,99999,99999
14:19:49,1510808250,2017-11-16T04:57:36,0.716,649.6,6.67,4.01,8.06,828.970,2041.140,104.016670,38.40,2.5394,363,23387,1.81705,3.98,47773,,,,,,,,,,,,,,,,,,99999,99999,99999,99999,99999,99999,99999,99999,99999,99999,99999,99999
14:20:19,1510808280,2017-11-16T04:58:06,0.718,650.0,6.67,4.00,8.07,828.860,2041.140,104.616669,38.13,2.5394,363,23387,1.82261,3.98,47768,,,,,,,,,,,,,,,,,,99999,99999,99999,99999,99999,99999,99999,99999,99999,99999,99999,99999
14:20:49,1510808310,2017-11-16T04:58:36,0.715,650.3,6.67,4.00,8.10,828.860,2041.140,103.783333,38.33,2.5394,363,23387,1.81470,3.98,47764,,,,,,,,,,,,,,,,,,99999,99999,99999,99999,99999,99999,99999,99999,99999,99999,99999,99999
14:21:19,1510808340,2017-11-16T04:59:06,0.717,650.7,6.66,3.98,8.09,828.940,2041.100,105.016670,38.52,2.5394,363,23388,1.82144,3.98,47760,,,,,,,,,,,,,,,,,,99999,99999,99999,99999,99999,99999,99999,99999,99999,99999,99999,99999
14:21:49,1510808370,2017-11-16T04:59:36,0.718,651.0,6.64,3.98,8.07,828.870,2041.030,104.916664,38.66,2.5395,363,23388,1.82291,3.98,47755,,,,,,,,,,,,,,,,,,99999,99999,99999,99999,99999,99999,99999,99999,99999,99999,99999,99999
14:22:19,1510808400,2017-11-16T05:00:06,0.719,651.4,6.63,4.01,8.07,828.840,2041.030,104.216667,38.50,2.5396,363,23387,1.82585,3.97,47751,,,,,,,,,,,,,,,,,,99999,99999,99999,99999,99999,99999,99999,99999,99999,99999,99999,99999
14:22:49,1510808430,2017-11-16T05:00:36,0.719,651.7,6.62,3.94,8.07,828.930,2040.930,104.133331,38.67,2.5396,363,23389,1.82643,3.97,47747,,,,,,,,,,,,,,,,,,99999,99999,99999,99999,99999,99999,99999,99999,99999,99999,99999,99999
14:23:19,1510808460,2017-11-16T05:01:06,0.721,652.1,6.61,3.98,8.06,828.850,2040.930,104.383331,38.72,2.5397,363,23386,1.83055,3.97,47742,,,,,,,,,,,,,,,,,,99999,99999,99999,99999,99999,99999,99999,99999,99999,99999,99999,99999
14:23:49,1510808490,2017-11-16T05:01:36,0.720,652.5,6.61,3.96,8.03,828.820,2040.930,103.433334,38.19,2.5397,363,23387,1.82967,3.97,47738,,,,,,,,,,,,,,,,,,99999,99999,99999,99999,99999,99999,99999,99999,99999,99999,99999,99999
14:24:19,1510808520,2017-11-16T05:02:06,0.713,652.8,6.60,3.93,8.06,828.850,2040.870,102.933334,38.44,2.5397,363,23386,1.80974,3.97,47733,,,,,,,,,,,,,,,,,,99999,99999,99999,99999,99999,99999,99999,99999,99999,99999,99999,99999
14:24:49,1510808550,2017-11-16T05:02:36,0.720,653.2,6.60,3.94,8.03,828.830,2040.870,104.616669,38.14,2.5397,363,23383,1.82937,3.97,47729,,,,,,,,,,,,,,,,,,99999,99999,99999,99999,99999,99999,99999,99999,99999,99999,99999,99999
14:25:19,1510808580,2017-11-16T05:03:06,0.717,653.5,6.59,3.97,8.06,828.830,2040.870,103.683334,38.28,2.5398,363,23387,1.82086,3.97,47725,,,,,,,,,,,,,,,,,,99999,99999,99999,99999,99999,99999,99999,99999,99999,99999,99999,99999
14:25:49,1510808610,2017-11-16T05:03:36,0.714,653.9,6.58,3.94,8.01,828.720,2040.800,103.616669,38.50,2.5398,363,23385,1.81324,3.97,47720,,,,,,,,,,,,,,,,,,99999,99999,99999,99999,99999,99999,99999,99999,99999,99999,99999,99999
14:26:19,1510808640,2017-11-16T05:04:06,0.712,654.3,6.59,3.95,7.99,828.750,2040.870,102.349998,38.30,2.5398,363,23385,1.80944,3.97,47716,,,,,,,,,,,,,,,,,,99999,99999,99999,99999,99999,99999,99999,99999,99999,99999,99999,99999
14:26:49,1510808670,2017-11-16T05:04:36,0.716,654.6,6.59,3.94,8.06,828.690,2040.870,104.133331,38.37,2.5398,363,23386,1.81793,3.97,47711,,,,,,,,,,,,,,,,,,99999,99999,99999,99999,99999,99999,99999,99999,99999,99999,99999,99999
14:27:19,1510808700,2017-11-16T05:05:06,0.720,655.0,6.59,3.98,7.99,828.800,2040.870,104.966667,38.36,2.5398,363,23386,1.82761,3.97,47707,,,,,,,,,,,,,,,,,,99999,99999,99999,99999,99999,99999,99999,99999,99999,99999,99999,99999
14:27:49,1510808730,2017-11-16T05:05:36,0.720,655.3,6.59,3.95,8.06,828.750,2040.870,104.699997,38.11,2.5398,363,23389,1.82908,3.97,47703,,,,,,,,,,,,,,,,,,99999,99999,99999,99999,99999,99999,99999,99999,99999,99999,99999,99999
14:28:19,1510808760,2017-11-16T05:06:06,0.717,655.7,6.60,3.96,8.06,828.770,2040.870,104.199997,38.28,2.5397,363,23386,1.82144,3.97,47698,,,,,,,,,,,,,,,,,,99999,99999,99999,99999,99999,99999,99999,99999,99999,99999,99999,99999
14:28:49,1510808790,2017-11-16T05:06:36,0.713,656.0,6.60,3.95,8.06,828.830,2040.870,103.183334,38.46,2.5397,363,23385,1.81032,3.97,47694,,,,,,,,,,,,,,,,,,99999,99999,99999,99999,99999,99999,99999,99999,99999,99999,99999,99999
14:29:19,1510808820,2017-11-16T05:07:06,0.714,656.4,6.60,3.97,8.03,828.850,2040.870,103.849998,38.57,2.5397,363,23387,1.81383,3.97,47689,,,,,,,,,,,,,,,,,,99999,99999,99999,99999,99999,99999,99999,99999,99999,99999,99999,99999
14:29:49,1510808850,2017-11-16T05:07:36,0.721,656.8,6.60,3.98,8.02,828.750,2040.870,104.750000,38.89,2.5397,363,23388,1.82996,3.97,47685,,,,,,,,,,,,,,,,,,99999,99999,99999,99999,99999,99999,99999,99999,99999,99999,99999,99999
14:30:19,1510808880,2017-11-16T05:08:06,0.717,657.1,6.61,3.95,8.02,828.770,2040.930,103.650002,38.91,2.5397,363,23386,1.82174,3.97,47681,,,,,,,,,,,,,,,,,,99999,99999,99999,99999,99999,99999,99999,99999,99999,99999,99999,99999
14:30:49,1510808910,2017-11-16T05:08:36,0.714,657.5,6.60,3.95,8.03,828.750,2040.870,103.483330,38.94,2.5397,363,23385,1.81295,3.97,47676,,,,,,,,,,,,,,,,,,99999,99999,99999,99999,99999,99999,99999,99999,99999,99999,99999,99999
14:31:19,1510808940,2017-11-16T05:09:06,0.720,657.8,6.60,3.97,8.06,828.750,2040.870,105.283333,38.80,2.5397,363,23389,1.82790,3.97,47672,,,,,,,,,,,,,,,,,,99999,99999,99999,99999,99999,99999,99999,99999,99999,99999,99999,99999
14:31:49,1510808970,2017-11-16T05:09:36,0.717,658.2,6.59,3.94,8.03,828.720,2040.870,103.683334,38.61,2.5398,363,23387,1.81998,3.97,47667,,,,,,,,,,,,,,,,,,99999,99999,99999,99999,99999,99999,99999,99999,99999,99999,99999,99999
14:32:19,1510809000,2017-11-16T05:10:06,0.715,658.6,6.60,3.97,8.03,828.620,2040.870,105.033333,38.58,2.5397,363,23382,1.81470,3.97,47663,,,,,,,,,,,,,,,,,,99999,99999,99999,99999,99999,99999,99999,99999,99999,99999,99999,99999
14:32:49,1510809030,2017-11-16T05:10:36,0.720,658.9,6.60,3.98,8.02,828.670,2040.870,104.666664,39.31,2.5397,363,23386,1.82732,3.97,47659,,,,,,,,,,,,,,,,,,99999,99999,99999,99999,99999,99999,99999,99999,99999,99999,99999,99999
14:33:19,1510809060,2017-11-16T05:11:06,0.713,659.3,6.59,3.97,8.03,828.750,2040.870,102.833336,38.83,2.5398,363,23385,1.81120,3.97,47654,,,,,,,,,,,,,,,,,,99999,99999,99999,99999,99999,99999,99999,99999,99999,99999,99999,99999
14:33:49,1510809090,2017-11-16T05:11:36,0.721,659.6,6.58,3.96,8.01,828.720,2040.800,105.150002,38.84,2.5398,363,23387,1.83055,3.97,47650,,,,,,,,,,,,,,,,,,99999,99999,99999,99999,99999,99999,99999,99999,99999,99999,99999,99999
14:34:19,1510809120,2017-11-16T05:12:06,0.721,660.0,6.58,3.94,7.99,828.780,2040.800,104.449997,38.93,2.5398,363,23387,1.83026,3.97,47645,,,,,,,,,,,,,,,,,,99999,99999,99999,99999,99999,99999,99999,99999,99999,99999,99999,99999
14:34:49,1510809150,2017-11-16T05:12:36,0.719,660.3,6.58,3.94,8.01,828.670,2040.800,104.916664,38.99,2.5398,363,23383,1.82555,3.97,47641,,,,,,,,,,,,,,,,,,99999,99999,99999,99999,99999,99999,99999,99999,99999,99999,99999,99999
14:35:19,1510809180,2017-11-16T05:13:06,0.713,660.7,6.57,3.94,8.01,828.800,2040.800,103.849998,38.99,2.5399,363,23384,1.81149,3.97,47637,,,,,,,,,,,,,,,,,,99999,99999,99999,99999,99999,99999,99999,99999,99999,99999,99999,99999
14:35:49,1510809210,2017-11-16T05:13:36,0.712,661.1,6.56,3.96,8.02,828.810,2040.760,103.650002,38.82,2.5399,363,23385,1.80944,3.97,47632,,,,,,,,,,,,,,,,,,99999,99999,99999,99999,99999,99999,99999,99999,99999,99999,99999,99999
14:36:19,1510809240,2017-11-16T05:14:06,0.716,661.4,6.56,3.91,7.99,828.760,2040.760,103.449997,38.85,2.5399,363,23384,1.81968,3.97,47628,,,,,,,,,,,,,,,,,,99999,99999,99999,99999,99999,99999,99999,99999,99999,99999,99999,99999
14:36:49,1510809270,2017-11-16T05:14:36,0.719,661.8,6.56,3.94,7.99,828.780,2040.760,104.883331,38.84,2.5399,363,23385,1.82643,3.97,47623,,,,,,,,,,,,,,,,,,99999,99999,99999,99999,99999,99999,99999,99999,99999,99999,99999,99999
14:37:19,1510809300,2017-11-16T05:15:06,0.712,662.1,6.55,3.96,8.02,828.780,2040.700,102.666664,39.08,2.5399,363,23383,1.80798,3.97,47619,,,,,,,,,,,,,,,,,,99999,99999,99999,99999,99999,99999,99999,99999,99999,99999,99999,99999
14:37:49,1510809330,2017-11-16T05:15:36,0.720,662.5,6.55,3.94,7.99,828.730,2040.700,104.750000,39.21,2.5399,363,23384,1.82761,3.97,47615,,,,,,,,,,,,,,,,,,99999,99999,99999,99999,99999,99999,99999,99999,99999,99999,99999,99999
14:38:19,1510809360,2017-11-16T05:16:06,0.719,662.9,6.55,3.93,7.95,828.710,2040.700,105.199997,39.63,2.5399,363,23386,1.82673,3.97,47610,,,,,,,,,,,,,,,,,,99999,99999,99999,99999,99999,99999,99999,99999,99999,99999,99999,99999
14:38:49,1510809390,2017-11-16T05:16:36,0.714,663.2,6.54,3.94,7.99,828.680,2040.700,105.633331,40.05,2.5400,363,23385,1.81324,3.97,47606,,,,,,,,,,,,,,,,,,99999,99999,99999,99999,99999,99999,99999,99999,99999,99999,99999,99999
14:39:19,1510809420,2017-11-16T05:17:06,0.713,663.6,6.55,3.94,8.01,828.680,2040.700,102.900002,40.25,2.5399,363,23382,1.81003,3.97,47602,,,,,,,,,,,,,,,,,,99999,99999,99999,99999,99999,99999,99999,99999,99999,99999,99999,99999
14:39:49,1510809450,2017-11-16T05:17:36,0.714,663.9,6.53,3.96,7.99,828.760,2040.640,102.800003,39.79,2.5400,363,23384,1.81354,3.97,47597,,,,,,,,,,,,,,,,,,99999,99999,99999,99999,99999,99999,99999,99999,99999,99999,99999,99999
14:40:19,1510809480,2017-11-16T05:18:06,0.718,664.3,6.52,3.92,8.01,828.770,2040.640,104.233330,39.96,2.5401,363,23383,1.82408,3.97,47593,,,,,,,,,,,,,,,,,,99999,99999,99999,99999,99999,99999,99999,99999,99999,99999,99999,99999
14:40:49,1510809510,2017-11-16T05:18:36,0.718,664.6,6.51,3.89,7.95,828.720,2040.600,104.800003,39.89,2.5401,363,23384,1.82496,3.97,47588,,,,,,,,,,,,,,,,,,99999,99999,99999,99999,99999,99999,99999,99999,99999,99999,99999,99999
14:41:19,1510809540,2017-11-16T05:19:06,0.720,665.0,6.50,3.90,7.94,828.770,2040.600,104.449997,39.81,2.5402,363,23383,1.82908,3.97,47584,,,,,,,,,,,,,,,,,,99999,99999,99999,99999,99999,99999,99999,99999,99999,99999,99999,99999
14:41:49,1510809570,2017-11-16T05:19:36,0.718,665.4,6.48,3.89,7.93,828.750,2040.470,103.533333,39.82,2.5402,363,23384,1.82379,3.97,47580,,,,,,,,,,,,,,,,,,99999,99999,99999,99999,99999,99999,99999,99999,99999,99999,99999,99999
14:42:19,1510809600,2017-11-16T05:20:06,0.717,665.7,6.47,3.82,7.94,828.750,2040.430,102.616669,39.69,2.5403,363,23381,1.82086,3.97,47575,,,,,,,,,,,,,,,,,,99999,99999,99999,99999,99999,99999,99999,99999,99999,99999,99999,99999
14:42:49,1510809630,2017-11-16T05:20:36,0.712,666.1,6.45,3.84,7.93,828.860,2040.370,102.583336,39.81,2.5404,363,23381,1.80769,3.97,47571,,,,,,,,,,,,,,,,,,99999,99999,99999,99999,99999,99999,99999,99999,99999,99999,99999,99999
14:43:19,1510809660,2017-11-16T05:21:06,0.715,666.4,6.42,3.81,7.91,828.790,2040.260,102.433334,40.00,2.5405,363,23383,1.81646,3.97,47566,,,,,,,,,,,,,,,,,,99999,99999,99999,99999,99999,99999,99999,99999,99999,99999,99999,99999
14:43:49,1510809690,2017-11-16T05:21:36,0.719,666.8,6.41,3.81,7.89,828.770,2040.260,104.133331,39.93,2.5406,363,23382,1.82643,3.97,47562,,,,,,,,,,,,,,,,,,99999,99999,99999,99999,99999,99999,99999,99999,99999,99999,99999,99999
14:44:19,1510809720,2017-11-16T05:22:06,0.714,667.2,6.40,3.82,7.84,828.770,2040.200,102.516670,39.40,2.5407,363,23382,1.81324,3.97,47558,,,,,,,,,,,,,,,,,,99999,99999,99999,99999,99999,99999,99999,99999,99999,99999,99999,99999
14:44:49,1510809750,2017-11-16T05:22:36,0.712,667.5,6.40,3.81,7.84,828.720,2040.200,102.783333,39.77,2.5406,363,23382,1.80886,3.97,47553,,,,,,,,,,,,,,,,,,99999,99999,99999,99999,99999,99999,99999,99999,99999,99999,99999,99999
14:45:19,1510809780,2017-11-16T05:23:06,0.711,667.9,6.38,3.77,7.82,828.720,2040.130,103.316666,39.55,2.5407,363,23380,1.80769,3.97,47549,,,,,,,,,,,,,,,,,,99999,99999,99999,99999,99999,99999,99999,99999,99999,99999,99999,99999
14:45:49,1510809810,2017-11-16T05:23:36,0.713,668.2,6.36,3.75,7.86,828.750,2040.030,102.866669,39.71,2.5408,363,23382,1.81207,3.97,47544,,,,,,,,,,,,,,,,,,99999,99999,99999,99999,99999,99999,99999,99999,99999,99999,99999,99999
14:46:19,1510809840,2017-11-16T05:24:06,0.718,668.6,6.37,3.77,7.82,828.770,2040.130,103.783333,39.92,2.5408,363,23382,1.82350,3.97,47540,,,,,,,,,,,,,,,,,,99999,99999,99999,99999,99999,99999,99999,99999,99999,99999,99999,99999
14:46:49,1510809870,2017-11-16T05:24:36,0.719,668.9,6.35,3.77,7.81,828.750,2040.030,104.216667,40.18,2.5409,363,23384,1.82732,3.97,47536,,,,,,,,,,,,,,,,,,99999,99999,99999,99999,99999,99999,99999,99999,99999,99999,99999,99999
14:47:19,1510809900,2017-11-16T05:25:06,0.719,669.3,6.34,3.78,7.82,828.730,2039.990,104.349998,39.88,2.5409,363,23382,1.82643,3.97,47531,,,,,,,,,,,,,,,,,,99999,99999,99999,99999,99999,99999,99999,99999,99999,99999,99999,99999
14:47:49,1510809930,2017-11-16T05:25:36,0.718,669.7,6.33,3.78,7.80,828.700,2039.970,103.216667,39.77,2.5410,363,23382,1.82438,3.97,47527,,,,,,,,,,,,,,,,,,99999,99999,99999,99999,99999,99999,99999,99999,99999,99999,99999,99999
14:48:19,1510809960,2017-11-16T05:26:06,0.717,670.0,6.32,3.76,7.80,828.710,2039.930,103.566666,39.39,2.5411,363,23377,1.82261,3.97,47522,,,,,,,,,,,,,,,,,,99999,99999,99999,99999,99999,99999,99999,99999,99999,99999,99999,99999
14:48:49,1510809990,2017-11-16T05:26:36,0.717,670.4,6.31,3.75,7.78,828.660,2039.870,104.533333,39.00,2.5411,363,23378,1.82144,3.97,47518,,,,,,,,,,,,,,,,,,99999,99999,99999,99999,99999,99999,99999,99999,99999,99999,99999,99999
14:49:19,1510810020,2017-11-16T05:27:06,0.716,670.7,6.31,3.75,7.76,828.710,2039.870,103.550003,39.89,2.5411,363,23378,1.81910,3.97,47514,,,,,,,,,,,,,,,,,,99999,99999,99999,99999,99999,99999,99999,99999,99999,99999,99999,99999
14:49:49,1510810050,2017-11-16T05:27:36,0.715,671.1,6.31,3.72,7.76,828.790,2039.870,103.666664,39.72,2.5411,363,23380,1.81734,3.97,47509,,,,,,,,,,,,,,,,,,99999,99999,99999,99999,99999,99999,99999,99999,99999,99999,99999,99999
14:50:19,1510810080,2017-11-16T05:28:06,0.711,671.4,6.31,3.73,7.78,828.790,2039.870,102.233330,40.04,2.5410,363,23379,1.80769,3.97,47505,,,,,,,,,,,,,,,,,,99999,99999,99999,99999,99999,99999,99999,99999,99999,99999,99999,99999
14:50:49,1510810110,2017-11-16T05:28:36,0.715,671.8,6.31,3.73,7.78,828.790,2039.870,104.099998,39.67,2.5411,363,23377,1.81793,3.97,47500,,,,,,,,,,,,,,,,,,99999,99999,99999,99999,99999,99999,99999,99999,99999,99999,99999,99999
14:51:19,1510810140,2017-11-16T05:29:06,0.717,672.2,6.30,3.72,7.78,828.760,2039.870,103.666664,39.42,2.5412,363,23379,1.82115,3.97,47496,,,,,,,,,,,,,,,,,,99999,99999,99999,99999,99999,99999,99999,99999,99999,99999,99999,99999
14:51:49,1510810170,2017-11-16T05:29:36,0.712,672.5,6.30,3.72,7.78,828.870,2039.870,103.233330,39.46,2.5412,363,23379,1.81032,3.97,47492,,,,,,,,,,,,,,,,,,99999,99999,99999,99999,99999,99999,99999,99999,99999,99999,99999,99999
14:52:19,1510810200,2017-11-16T05:30:06,0.717,672.9,6.30,3.73,7.78,828.760,2039.870,103.666664,39.53,2.5412,363,23378,1.82203,3.97,47487,,,,,,,,,,,,,,,,,,99999,99999,99999,99999,99999,99999,99999,99999,99999,99999,99999,99999
14:52:49,1510810230,2017-11-16T05:30:36,0.711,673.2,6.32,3.73,7.74,828.860,2039.930,101.816666,39.59,2.5410,363,23377,1.80769,3.97,47483,,,,,,,,,,,,,,,,,,99999,99999,99999,99999,99999,99999,99999,99999,99999,99999,99999,99999
14:53:19,1510810260,2017-11-16T05:31:06,0.717,673.6,6.31,3.74,7.74,828.840,2039.870,103.400002,39.59,2.5411,363,23380,1.82291,3.97,47478,,,,,,,,,,,,,,,,,,99999,99999,99999,99999,99999,99999,99999,99999,99999,99999,99999,99999
14:53:49,1510810290,2017-11-16T05:31:36,0.719,673.9,6.31,3.74,7.80,828.840,2039.870,104.150002,39.37,2.5411,363,23379,1.82761,3.97,47474,,,,,,,,,,,,,,,,,,99999,99999,99999,99999,99999,99999,99999,99999,99999,99999,99999,99999
14:54:19,1510810320,2017-11-16T05:32:06,0.718,674.3,6.33,3.75,7.80,828.890,2039.970,103.133331,39.57,2.5410,363,23380,1.82320,3.97,47470,,,,,,,,,,,,,,,,,,99999,99999,99999,99999,99999,99999,99999,99999,99999,99999,99999,99999
14:54:49,1510810350,2017-11-16T05:32:36,0.717,674.7,6.33,3.75,7.80,828.760,2039.970,103.683334,39.49,2.5410,363,23379,1.82232,3.97,47465,,,,,,,,,,,,,,,,,,99999,99999,99999,99999,99999,99999,99999,99999,99999,99999,99999,99999
14:55:19,1510810380,2017-11-16T05:33:06,0.716,675.0,6.34,3.73,7.76,828.730,2039.990,103.133331,39.30,2.5410,363,23381,1.82027,3.97,47461,,,,,,,,,,,,,,,,,,99999,99999,99999,99999,99999,99999,99999,99999,99999,99999,99999,99999
14:55:49,1510810410,2017-11-16T05:33:36,0.719,675.4,6.35,3.70,7.80,828.620,2040.030,104.633331,39.37,2.5409,363,23379,1.82614,3.97,47457,,,,,,,,,,,,,,,,,,99999,99999,99999,99999,99999,99999,99999,99999,99999,99999,99999,99999
14:56:19,1510810440,2017-11-16T05:34:06,0.713,675.7,6.36,3.77,7.80,828.570,2040.030,103.183334,39.58,2.5408,363,23376,1.81090,3.97,47452,,,,,,,,,,,,,,,,,,99999,99999,99999,99999,99999,99999,99999,99999,99999,99999,99999,99999
14:56:49,1510810470,2017-11-16T05:34:36,0.714,676.1,6.36,3.76,7.80,828.600,2040.030,102.550003,39.46,2.5408,363,23377,1.81383,3.97,47448,,,,,,,,,,,,,,,,,,99999,99999,99999,99999,99999,99999,99999,99999,99999,99999,99999,99999
14:57:19,1510810500,2017-11-16T05:35:06,0.718,676.5,6.37,3.78,7.82,828.510,2040.130,104.333336,39.21,2.5409,363,23376,1.82320,3.97,47443,,,,,,,,,,,,,,,,,,99999,99999,99999,99999,99999,99999,99999,99999,99999,99999,99999,99999
14:57:49,1510810530,2017-11-16T05:35:36,0.717,676.8,6.38,3.79,7.81,828.460,2040.130,105.133331,39.16,2.5408,363,23378,1.82174,3.97,47439,,,,,,,,,,,,,,,,,,99999,99999,99999,99999,99999,99999,99999,99999,99999,99999,99999,99999
14:58:19,1510810560,2017-11-16T05:36:06,0.712,677.2,6.39,3.78,7.82,828.540,2040.200,103.666664,39.04,2.5408,363,23378,1.80856,3.97,47435,,,,,,,,,,,,,,,,,,99999,99999,99999,99999,99999,99999,99999,99999,99999,99999,99999,99999
14:58:49,1510810590,2017-11-16T05:36:36,0.712,677.5,6.40,3.79,7.86,828.610,2040.200,102.616669,39.27,2.5407,363,23379,1.80886,3.97,47430,,,,,,,,,,,,,,,,,,99999,99999,99999,99999,99999,99999,99999,99999,99999,99999,99999,99999
14:59:19,1510810620,2017-11-16T05:37:06,0.713,677.9,6.41,3.77,7.84,828.660,2040.260,102.916664,39.61,2.5406,363,23381,1.81090,3.97,47426,,,,,,,,,,,,,,,,,,99999,99999,99999,99999,99999,99999,99999,99999,99999,99999,99999,99999
14:59:49,1510810650,2017-11-16T05:37:36,0.717,678.2,6.41,3.79,7.84,828.580,2040.260,103.316666,39.37,2.5406,363,23382,1.82056,3.97,47421,,,,,,,,,,,,,,,,,,99999,99999,99999,99999,99999,99999,99999,99999,99999,99999,99999,99999
15:00:19,1510810680,2017-11-16T05:38:06,0.719,678.6,6.42,3.78,7.88,828.640,2040.260,104.716667,39.08,2.5406,363,23383,1.82555,3.97,47417,,,,,,,,,,,,,,,,,,99999,99999,99999,99999,99999,99999,99999,99999,99999,99999,99999,99999
15:00:49,1510810710,2017-11-16T05:38:36,0.717,679.0,6.41,3.79,7.86,828.660,2040.260,104.433334,39.10,2.5407,363,23381,1.82261,3.97,47413,,,,,,,,,,,,,,,,,,99999,99999,99999,99999,99999,99999,99999,99999,99999,99999,99999,99999
15:01:19,1510810740,2017-11-16T05:39:06,0.716,679.3,6.42,3.82,7.89,828.640,2040.260,103.216667,39.54,2.5405,363,23382,1.81910,3.97,47408,,,,,,,,,,,,,,,,,,99999,99999,99999,99999,99999,99999,99999,99999,99999,99999,99999,99999
15:01:49,1510810770,2017-11-16T05:39:36,0.716,679.7,6.42,3.79,7.88,828.580,2040.260,104.133331,39.48,2.5405,363,23378,1.82027,3.97,47404,,,,,,,,,,,,,,,,,,99999,99999,99999,99999,99999,99999,99999,99999,99999,99999,99999,99999
15:02:19,1510810800,2017-11-16T05:40:06,0.719,680.0,6.41,3.79,7.88,828.660,2040.260,104.150002,39.00,2.5407,363,23379,1.82555,3.97,47399,,,,,,,,,,,,,,,,,,99999,99999,99999,99999,99999,99999,99999,99999,99999,99999,99999,99999
15:02:49,1510810830,2017-11-16T05:40:36,0.716,680.4,6.44,3.78,7.88,828.620,2040.300,104.016670,39.15,2.5404,363,23377,1.81822,3.97,47395,,,,,,,,,,,,,,,,,,99999,99999,99999,99999,99999,99999,99999,99999,99999,99999,99999,99999
15:03:19,1510810860,2017-11-16T05:41:06,0.713,680.7,6.44,3.79,7.88,828.490,2040.300,103.783333,39.42,2.5404,363,23379,1.81120,3.97,47391,,,,,,,,,,,,,,,,,,99999,99999,99999,99999,99999,99999,99999,99999,99999,99999,99999,99999
15:03:49,1510810890,2017-11-16T05:41:36,0.717,681.1,6.43,3.79,7.86,828.470,2040.300,103.699997,39.62,2.5405,363,23381,1.82203,3.97,47386,,,,,,,,,,,,,,,,,,99999,99999,99999,99999,99999,99999,99999,99999,99999,99999,99999,99999
15:04:19,1510810920,2017-11-16T05:42:06,0.715,681.5,6.43,3.79,7.89,828.500,2040.300,104.233330,39.32,2.5405,363,23380,1.81617,3.97,47382,,,,,,,,,,,,,,,,,,99999,99999,99999,99999,99999,99999,99999,99999,99999,99999,99999,99999
15:04:49,1510810950,2017-11-16T05:42:36,0.714,681.8,6.42,3.76,7.88,828.430,2040.260,102.283333,39.37,2.5405,363,23380,1.81500,3.97,47377,,,,,,,,,,,,,,,,,,99999,99999,99999,99999,99999,99999,99999,99999,99999,99999,99999,99999
15:05:19,1510810980,2017-11-16T05:43:06,0.719,682.2,6.42,3.78,7.84,828.350,2040.260,104.783333,39.47,2.5405,363,23382,1.82732,3.97,47373,,,,,,,,,,,,,,,,,,99999,99999,99999,99999,99999,99999,99999,99999,99999,99999,99999,99999
15:05:49,1510811010,2017-11-16T05:43:36,0.711,682.5,6.42,3.78,7.89,828.430,2040.260,102.883331,39.26,2.5406,363,23380,1.80652,3.97,47368,,,,,,,,,,,,,,,,,,99999,99999,99999,99999,99999,99999,99999,99999,99999,99999,99999,99999
15:06:19,1510811040,2017-11-16T05:44:06,0.711,682.9,6.41,3.76,7.89,828.430,2040.260,103.116669,39.29,2.5406,363,23381,1.80681,3.97,47364,,,,,,,,,,,,,,,,,,99999,99999,99999,99999,99999,99999,99999,99999,99999,99999,99999,99999
15:06:49,1510811070,2017-11-16T05:44:36,0.713,683.2,6.41,3.75,7.86,828.450,2040.260,103.599998,39.29,2.5406,363,23378,1.81090,3.96,47360,,,,,,,,,,,,,,,,,,99999,99999,99999,99999,99999,99999,99999,99999,99999,99999,99999,99999
15:07:19,1510811100,2017-11-16T05:45:06,0.711,683.6,6.40,3.73,7.86,828.430,2040.200,103.033333,39.51,2.5407,363,23378,1.80711,3.96,47355,,,,,,,,,,,,,,,,,,99999,99999,99999,99999,99999,99999,99999,99999,99999,99999,99999,99999
15:07:49,1510811130,2017-11-16T05:45:36,0.711,684.0,6.40,3.77,7.86,828.460,2040.200,103.250000,39.66,2.5406,363,23378,1.80652,3.96,47351,,,,,,,,,,,,,,,,,,99999,99999,99999,99999,99999,99999,99999,99999,99999,99999,99999,99999
15:08:19,1510811160,2017-11-16T05:46:06,0.711,684.3,6.40,3.77,7.82,828.480,2040.200,101.983330,39.82,2.5406,363,23380,1.80711,3.96,47346,,,,,,,,,,,,,,,,,,99999,99999,99999,99999,99999,99999,99999,99999,99999,99999,99999,99999
15:08:49,1510811190,2017-11-16T05:46:36,0.712,684.7,6.39,3.74,7.82,828.510,2040.200,102.516670,39.59,2.5407,363,23380,1.80944,3.96,47342,,,,,,,,,,,,,,,,,,99999,99999,99999,99999,99999,99999,99999,99999,99999,99999,99999,99999
15:09:19,1510811220,2017-11-16T05:47:06,0.714,685.0,6.38,3.73,7.84,828.490,2040.130,103.633331,39.62,2.5407,363,23380,1.81529,3.96,47338,,,,,,,,,,,,,,,,,,99999,99999,99999,99999,99999,99999,99999,99999,99999,99999,99999,99999
15:09:49,1510811250,2017-11-16T05:47:36,0.717,685.4,6.37,3.75,7.84,828.430,2040.130,105.233330,39.54,2.5408,363,23380,1.82291,3.96,47333,,,,,,,,,,,,,,,,,,99999,99999,99999,99999,99999,99999,99999,99999,99999,99999,99999,99999
15:10:19,1510811280,2017-11-16T05:48:06,0.714,685.7,6.37,3.73,7.81,828.430,2040.130,102.516670,39.48,2.5408,363,23378,1.81470,3.96,47329,,,,,,,,,,,,,,,,,,99999,99999,99999,99999,99999,99999,99999,99999,99999,99999,99999,99999
15:10:49,1510811310,2017-11-16T05:48:36,0.714,686.1,6.37,3.72,7.80,828.460,2040.130,103.449997,39.71,2.5408,363,23377,1.81412,3.96,47324,,,,,,,,,,,,,,,,,,99999,99999,99999,99999,99999,99999,99999,99999,99999,99999,99999,99999
15:11:19,1510811340,2017-11-16T05:49:06,0.717,686.5,6.35,3.70,7.81,828.440,2040.030,103.233330,39.93,2.5409,363,23379,1.82144,3.96,47320,,,,,,,,,,,,,,,,,,99999,99999,99999,99999,99999,99999,99999,99999,99999,99999,99999,99999
15:11:49,1510811370,2017-11-16T05:49:36,0.712,686.8,6.35,3.70,7.76,828.570,2040.030,102.616669,39.86,2.5409,363,23378,1.80856,3.96,47316,,,,,,,,,,,,,,,,,,99999,99999,99999,99999,99999,99999,99999,99999,99999,99999,99999,99999
15:12:19,1510811400,2017-11-16T05:50:06,0.712,687.2,6.34,3.68,7.78,828.620,2039.990,102.349998,39.38,2.5409,363,23378,1.80798,3.96,47311,,,,,,,,,,,,,,,,,,99999,99999,99999,99999,99999,99999,99999,99999,99999,99999,99999,99999
15:12:49,1510811430,2017-11-16T05:50:36,0.719,687.5,6.33,3.70,7.80,828.600,2039.970,103.833336,39.38,2.5410,363,23376,1.82702,3.96,47307,,,,,,,,,,,,,,,,,,99999,99999,99999,99999,99999,99999,99999,99999,99999,99999,99999,99999
15:13:19,1510811460,2017-11-16T05:51:06,0.716,687.9,6.33,3.65,7.81,828.650,2039.970,102.483330,39.28,2.5410,363,23377,1.82056,3.96,47302,,,,,,,,,,,,,,,,,,99999,99999,99999,99999,99999,99999,99999,99999,99999,99999,99999,99999
15:13:49,1510811490,2017-11-16T05:51:36,0.716,688.2,6.33,3.65,7.81,828.620,2039.970,104.449997,39.42,2.5410,363,23378,1.81822,3.96,47298,,,,,,,,,,,,,,,,,,99999,99999,99999,99999,99999,99999,99999,99999,99999,99999,99999,99999
15:14:19,1510811520,2017-11-16T05:52:06,0.711,688.6,6.31,3.66,7.76,828.580,2039.870,102.849998,39.75,2.5411,363,23377,1.80565,3.96,47294,,,,,,,,,,,,,,,,,,99999,99999,99999,99999,99999,99999,99999,99999,99999,99999,99999,99999
15:14:49,1510811550,2017-11-16T05:52:36,0.717,689.0,6.31,3.65,7.74,828.530,2039.870,104.116669,39.78,2.5411,363,23377,1.82232,3.96,47289,,,,,,,,,,,,,,,,,,99999,99999,99999,99999,99999,99999,99999,99999,99999,99999,99999,99999
15:15:19,1510811580,2017-11-16T05:53:06,0.714,689.3,6.31,3.67,7.72,828.500,2039.870,103.433334,39.49,2.5411,363,23378,1.81324,3.96,47285,,,,,,,,,,,,,,,,,,99999,99999,99999,99999,99999,99999,99999,99999,99999,99999,99999,99999
15:15:49,1510811610,2017-11-16T05:53:36,0.711,689.7,6.31,3.65,7.76,828.450,2039.870,102.333336,39.80,2.5411,363,23373,1.80681,3.96,47280,,,,,,,,,,,,,,,,,,99999,99999,99999,99999,99999,99999,99999,99999,99999,99999,99999,99999
15:16:19,1510811640,2017-11-16T05:54:06,0.717,690.0,6.30,3.63,7.73,828.450,2039.870,103.783333,39.63,2.5412,363,23374,1.82291,3.96,47276,,,,,,,,,,,,,,,,,,99999,99999,99999,99999,99999,99999,99999,99999,99999,99999,99999,99999
15:16:49,1510811670,2017-11-16T05:54:36,0.719,690.4,6.30,3.66,7.72,828.370,2039.870,102.800003,39.54,2.5412,363,23376,1.82732,3.96,47272,,,,,,,,,,,,,,,,,,99999,99999,99999,99999,99999,99999,99999,99999,99999,99999,99999,99999
15:17:19,1510811700,2017-11-16T05:55:06,0.710,690.7,6.29,3.64,7.70,828.270,2039.820,101.616669,38.10,2.5413,363,23376,1.80448,3.96,47267,,,,,,,,,,,,,,,,,,99999,99999,99999,99999,99999,99999,99999,99999,99999,99999,99999,99999
15:17:49,1510811730,2017-11-16T05:55:36,0.716,691.1,6.30,3.66,7.73,828.350,2039.870,103.433334,38.74,2.5412,363,23375,1.81939,3.96,47263,,,,,,,,,,,,,,,,,,99999,99999,99999,99999,99999,99999,99999,99999,99999,99999,99999,99999
15:18:19,1510811760,2017-11-16T05:56:06,0.712,691.5,6.30,3.67,7.73,828.240,2039.870,103.349998,38.74,2.5412,363,23375,1.80828,3.96,47258,,,,,,,,,,,,,,,,,,99999,99999,99999,99999,99999,99999,99999,99999,99999,99999,99999,99999
15:18:49,1510811790,2017-11-16T05:56:36,0.717,691.8,6.31,3.67,7.72,828.240,2039.870,103.933334,38.70,2.5411,363,23375,1.82320,3.96,47254,,,,,,,,,,,,,,,,,,99999,99999,99999,99999,99999,99999,99999,99999,99999,99999,99999,99999
15:19:19,1510811820,2017-11-16T05:57:06,0.715,692.2,6.32,3.69,7.74,828.240,2039.930,102.750000,38.33,2.5411,363,23378,1.81734,3.96,47250,,,,,,,,,,,,,,,,,,99999,99999,99999,99999,99999,99999,99999,99999,99999,99999,99999,99999
15:19:49,1510811850,2017-11-16T05:57:36,0.718,692.5,6.33,3.69,7.74,828.260,2039.970,103.900002,38.73,2.5410,363,23376,1.82350,3.96,47245,,,,,,,,,,,,,,,,,,99999,99999,99999,99999,99999,99999,99999,99999,99999,99999,99999,99999
15:20:19,1510811880,2017-11-16T05:58:06,0.718,692.9,6.36,3.71,7.80,828.310,2040.030,103.483330,38.96,2.5408,363,23380,1.82379,3.96,47241,,,,,,,,,,,,,,,,,,99999,99999,99999,99999,99999,99999,99999,99999,99999,99999,99999,99999
15:20:49,1510811910,2017-11-16T05:58:36,0.720,693.2,6.38,3.72,7.78,828.300,2040.130,103.550003,39.52,2.5407,363,23380,1.82967,3.96,47237,,,,,,,,,,,,,,,,,,99999,99999,99999,99999,99999,99999,99999,99999,99999,99999,99999,99999
15:21:19,1510811940,2017-11-16T05:59:06,0.714,693.6,6.39,3.75,7.80,828.300,2040.200,105.400002,39.33,2.5408,363,23378,1.81500,3.96,47232,,,,,,,,,,,,,,,,,,99999,99999,99999,99999,99999,99999,99999,99999,99999,99999,99999,99999
15:21:49,1510811970,2017-11-16T05:59:36,0.710,694.0,6.42,3.76,7.84,828.270,2040.260,103.616669,39.12,2.5406,363,23381,1.80448,3.96,47228,,,,,,,,,,,,,,,,,,99999,99999,99999,99999,99999,99999,99999,99999,99999,99999,99999,99999
15:22:19,1510812000,2017-11-16T06:00:06,0.717,694.3,6.43,3.80,7.84,828.310,2040.300,104.250000,39.28,2.5405,363,23381,1.82144,3.96,47223,,,,,,,,,,,,,,,,,,99999,99999,99999,99999,99999,99999,99999,99999,99999,99999,99999,99999
15:22:49,1510812030,2017-11-16T06:00:36,0.715,694.7,6.46,3.77,7.86,828.310,2040.430,103.050003,38.97,2.5404,363,23379,1.81705,3.96,47219,,,,,,,,,,,,,,,,,,99999,99999,99999,99999,99999,99999,99999,99999,99999,99999,99999,99999
15:23:19,1510812060,2017-11-16T06:01:06,0.711,695.0,6.48,3.81,7.88,828.350,2040.470,103.233330,38.80,2.5403,363,23382,1.80652,3.96,47214,,,,,,,,,,,,,,,,,,99999,99999,99999,99999,99999,99999,99999,99999,99999,99999,99999,99999
15:23:49,1510812090,2017-11-16T06:01:36,0.718,695.4,6.50,3.81,7.89,828.270,2040.600,105.333336,38.78,2.5403,363,23382,1.82496,3.96,47210,,,,,,,,,,,,,,,,,,99999,99999,99999,99999,99999,99999,99999,99999,99999,99999,99999,99999
15:24:19,1510812120,2017-11-16T06:02:06,0.712,695.7,6.52,3.85,7.95,828.220,2040.640,102.916664,38.91,2.5401,363,23380,1.80740,3.96,47206,,,,,,,,,,,,,,,,,,99999,99999,99999,99999,99999,99999,99999,99999,99999,99999,99999,99999
15:24:49,1510812150,2017-11-16T06:02:36,0.719,696.1,6.52,3.84,7.94,828.190,2040.640,104.583336,38.94,2.5401,363,23383,1.82673,3.96,47201,,,,,,,,,,,,,,,,,,99999,99999,99999,99999,99999,99999,99999,99999,99999,99999,99999,99999
15:25:19,1510812180,2017-11-16T06:03:06,0.715,696.5,6.55,3.86,7.97,828.260,2040.700,104.500000,39.09,2.5399,363,23380,1.81587,3.96,47197,,,,,,,,,,,,,,,,,,99999,99999,99999,99999,99999,99999,99999,99999,99999,99999,99999,99999
15:25:49,1510812210,2017-11-16T06:03:36,0.713,696.8,6.56,3.89,8.02,828.180,2040.760,103.650002,38.87,2.5399,363,23381,1.81178,3.96,47192,,,,,,,,,,,,,,,,,,99999,99999,99999,99999,99999,99999,99999,99999,99999,99999,99999,99999
15:26:19,1510812240,2017-11-16T06:04:06,0.715,697.2,6.58,3.88,7.94,828.150,2040.800,104.416664,38.96,2.5398,363,23382,1.81529,3.96,47188,,,,,,,,,,,,,,,,,,99999,99999,99999,99999,99999,99999,99999,99999,99999,99999,99999,99999
15:26:49,1510812270,2017-11-16T06:04:36,0.714,697.5,6.59,3.91,8.01,828.170,2040.870,102.133331,38.86,2.5398,363,23384,1.81295,3.96,47184,,,,,,,,,,,,,,,,,,99999,99999,99999,99999,99999,99999,99999,99999,99999,99999,99999,99999
15:27:19,1510812300,2017-11-16T06:05:06,0.712,697.9,6.60,3.91,8.02,828.120,2040.870,103.500000,39.31,2.5397,363,23381,1.80769,3.96,47179,,,,,,,,,,,,,,,,,,99999,99999,99999,99999,99999,99999,99999,99999,99999,99999,99999,99999
15:27:49,1510812330,2017-11-16T06:05:36,0.713,698.3,6.61,3.93,8.02,828.060,2040.930,103.699997,39.05,2.5396,363,23382,1.81061,3.96,47175,,,,,,,,,,,,,,,,,,99999,99999,99999,99999,99999,99999,99999,99999,99999,99999,99999,99999
15:28:19,1510812360,2017-11-16T06:06:06,0.715,698.6,6.61,3.90,8.02,828.010,2040.930,102.300003,39.03,2.5397,363,23382,1.81646,3.96,47170,,,,,,,,,,,,,,,,,,99999,99999,99999,99999,99999,99999,99999,99999,99999,99999,99999,99999
15:28:49,1510812390,2017-11-16T06:06:36,0.716,699.0,6.60,3.90,8.02,827.960,2040.870,104.533333,38.64,2.5397,363,23381,1.81822,3.96,47166,,,,,,,,,,,,,,,,,,99999,99999,99999,99999,99999,99999,99999,99999,99999,99999,99999,99999
15:29:19,1510812420,2017-11-16T06:07:06,0.719,699.3,6.59,3.92,8.02,828.090,2040.870,105.466667,38.84,2.5398,363,23382,1.82643,3.96,47162,,,,,,,,,,,,,,,,,,99999,99999,99999,99999,99999,99999,99999,99999,99999,99999,99999,99999
15:29:49,1510812450,2017-11-16T06:07:36,0.718,699.7,6.61,3.91,8.03,828.110,2040.930,103.099998,38.71,2.5397,363,23382,1.82438,3.96,47157,,,,,,,,,,,,,,,,,,99999,99999,99999,99999,99999,99999,99999,99999,99999,99999,99999,99999
15:30:19,1510812480,2017-11-16T06:08:06,0.720,700.0,6.60,3.92,8.02,828.040,2040.870,105.033333,38.44,2.5397,363,23385,1.82732,3.96,47153,,,,,,,,,,,,,,,,,,99999,99999,99999,99999,99999,99999,99999,99999,99999,99999,99999,99999
15:30:49,1510812510,2017-11-16T06:08:36,0.714,700.4,6.60,3.91,8.03,827.990,2040.870,102.699997,38.65,2.5397,363,23382,1.81383,3.96,47148,,,,,,,,,,,,,,,,,,99999,99999,99999,99999,99999,99999,99999,99999,99999,99999,99999,99999
15:31:19,1510812540,2017-11-16T06:09:06,0.720,700.8,6.59,3.92,8.03,828.140,2040.870,104.000000,38.65,2.5398,363,23381,1.82937,3.96,47144,,,,,,,,,,,,,,,,,,99999,99999,99999,99999,99999,99999,99999,99999,99999,99999,99999,99999
15:31:49,1510812570,2017-11-16T06:09:36,0.713,701.1,6.60,3.91,7.99,828.120,2040.870,102.716667,38.68,2.5397,363,23383,1.81149,3.96,47140,,,,,,,,,,,,,,,,,,99999,99999,99999,99999,99999,99999,99999,99999,99999,99999,99999,99999
15:32:19,1510812600,2017-11-16T06:10:06,0.717,701.5,6.59,3.92,8.02,828.070,2040.870,104.300003,38.46,2.5398,363,23384,1.82203,3.96,47135,,,,,,,,,,,,,,,,,,99999,99999,99999,99999,99999,99999,99999,99999,99999,99999,99999,99999
15:32:49,1510812630,2017-11-16T06:10:36,0.719,701.8,6.59,3.91,8.01,828.090,2040.870,105.133331,38.43,2.5398,363,23379,1.82614,3.96,47131,,,,,,,,,,,,,,,,,,99999,99999,99999,99999,99999,99999,99999,99999,99999,99999,99999,99999
15:33:19,1510812660,2017-11-16T06:11:06,0.720,702.2,6.59,3.92,7.99,828.140,2040.870,104.733330,38.75,2.5398,363,23382,1.82761,3.96,47126,,,,,,,,,,,,,,,,,,99999,99999,99999,99999,99999,99999,99999,99999,99999,99999,99999,99999
15:33:49,1510812690,2017-11-16T06:11:36,0.719,702.6,6.59,3.93,8.02,828.170,2040.870,105.366669,39.01,2.5398,363,23384,1.82643,3.96,47122,,,,,,,,,,,,,,,,,,99999,99999,99999,99999,99999,99999,99999,99999,99999,99999,99999,99999
15:34:19,1510812720,2017-11-16T06:12:06,0.719,702.9,6.58,3.90,8.02,828.230,2040.800,104.666664,38.86,2.5398,363,23381,1.82585,3.96,47117,,,,,,,,,,,,,,,,,,99999,99999,99999,99999,99999,99999,99999,99999,99999,99999,99999,99999
15:34:49,1510812750,2017-11-16T06:12:36,0.715,703.3,6.58,3.90,8.01,828.150,2040.800,104.650002,38.87,2.5398,363,23384,1.81705,3.96,47113,,,,,,,,,,,,,,,,,,99999,99999,99999,99999,99999,99999,99999,99999,99999,99999,99999,99999
15:35:19,1510812780,2017-11-16T06:13:06,0.714,703.6,6.57,3.88,7.99,828.170,2040.800,103.800003,38.65,2.5399,363,23382,1.81470,3.96,47109,,,,,,,,,,,,,,,,,,99999,99999,99999,99999,99999,99999,99999,99999,99999,99999,99999,99999
15:35:49,1510812810,2017-11-16T06:13:36,0.713,704.0,6.57,3.88,7.95,828.120,2040.800,103.099998,38.46,2.5399,363,23383,1.80974,3.96,47104,,,,,,,,,,,,,,,,,,99999,99999,99999,99999,99999,99999,99999,99999,99999,99999,99999,99999
15:36:19,1510812840,2017-11-16T06:14:06,0.713,704.3,6.57,3.92,7.99,828.020,2040.800,103.583336,38.47,2.5399,363,23384,1.80974,3.96,47100,,,,,,,,,,,,,,,,,,99999,99999,99999,99999,99999,99999,99999,99999,99999,99999,99999,99999
15:36:49,1510812870,2017-11-16T06:14:36,0.714,704.7,6.57,3.90,7.99,827.940,2040.800,105.266670,38.96,2.5399,363,23384,1.81295,3.96,47095,,,,,,,,,,,,,,,,,,99999,99999,99999,99999,99999,99999,99999,99999,99999,99999,99999,99999
15:37:19,1510812900,2017-11-16T06:15:06,0.720,705.1,6.58,3.90,7.99,827.970,2040.800,102.866669,39.30,2.5398,363,23384,1.82820,3.96,47091,,,,,,,,,,,,,,,,,,99999,99999,99999,99999,99999,99999,99999,99999,99999,99999,99999,99999
15:37:49,1510812930,2017-11-16T06:15:36,0.713,705.4,6.57,3.88,7.97,827.940,2040.800,104.116669,38.80,2.5399,363,23385,1.81003,3.96,47087,,,,,,,,,,,,,,,,,,99999,99999,99999,99999,99999,99999,99999,99999,99999,99999,99999,99999
15:38:19,1510812960,2017-11-16T06:16:06,0.715,705.8,6.56,3.91,7.97,827.790,2040.760,103.816666,38.70,2.5399,363,23383,1.81705,3.96,47082,,,,,,,,,,,,,,,,,,99999,99999,99999,99999,99999,99999,99999,99999,99999,99999,99999,99999
15:38:49,1510812990,2017-11-16T06:16:36,0.713,706.1,6.54,3.89,7.97,827.850,2040.700,102.966667,38.71,2.5400,363,23386,1.81120,3.96,47078,,,,,,,,,,,,,,,,,,99999,99999,99999,99999,99999,99999,99999,99999,99999,99999,99999,99999
15:39:19,1510813020,2017-11-16T06:17:06,0.715,706.5,6.53,3.87,7.97,827.900,2040.640,103.083336,38.76,2.5400,363,23381,1.81529,3.96,47073,,,,,,,,,,,,,,,,,,99999,99999,99999,99999,99999,99999,99999,99999,99999,99999,99999,99999
15:39:49,1510813050,2017-11-16T06:17:36,0.712,706.9,6.52,3.86,7.95,827.950,2040.640,103.966667,38.65,2.5401,363,23383,1.80915,3.96,47069,,,,,,,,,,,,,,,,,,99999,99999,99999,99999,99999,99999,99999,99999,99999,99999,99999,99999
15:40:19,1510813080,2017-11-16T06:18:06,0.720,707.2,6.51,3.88,7.97,827.960,2040.600,103.283333,39.07,2.5402,363,23382,1.82996,3.96,47065,,,,,,,,,,,,,,,,,,99999,99999,99999,99999,99999,99999,99999,99999,99999,99999,99999,99999
15:40:49,1510813110,2017-11-16T06:18:36,0.719,707.6,6.49,3.83,7.91,827.990,2040.470,103.150002,38.98,2.5402,363,23382,1.82643,3.96,47060,,,,,,,,,,,,,,,,,,99999,99999,99999,99999,99999,99999,99999,99999,99999,99999,99999,99999
15:41:19,1510813140,2017-11-16T06:19:06,0.715,707.9,6.49,3.84,7.93,828.010,2040.470,103.900002,39.34,2.5402,363,23379,1.81529,3.96,47056,,,,,,,,,,,,,,,,,,99999,99999,99999,99999,99999,99999,99999,99999,99999,99999,99999,99999
15:41:49,1510813170,2017-11-16T06:19:36,0.717,708.3,6.48,3.83,7.93,828.040,2040.470,104.366669,39.49,2.5403,363,23380,1.82174,3.96,47051,,,,,,,,,,,,,,,,,,99999,99999,99999,99999,99999,99999,99999,99999,99999,99999,99999,99999
15:42:19,1510813200,2017-11-16T06:20:06,0.714,708.6,6.48,3.83,7.93,828.120,2040.470,103.366669,39.56,2.5403,363,23379,1.81354,3.96,47047,,,,,,,,,,,,,,,,,,99999,99999,99999,99999,99999,99999,99999,99999,99999,99999,99999,99999
15:42:49,1510813230,2017-11-16T06:20:36,0.718,709.0,6.48,3.84,7.94,828.140,2040.470,104.016670,39.69,2.5402,363,23382,1.82320,3.96,47043,,,,,,,,,,,,,,,,,,99999,99999,99999,99999,99999,99999,99999,99999,99999,99999,99999,99999
15:43:19,1510813260,2017-11-16T06:21:06,0.713,709.4,6.47,3.82,7.91,827.990,2040.430,104.533333,39.53,2.5403,363,23379,1.81120,3.96,47038,,,,,,,,,,,,,,,,,,99999,99999,99999,99999,99999,99999,99999,99999,99999,99999,99999,99999
15:43:49,1510813290,2017-11-16T06:21:36,0.718,709.7,6.48,3.84,7.93,827.960,2040.470,103.766670,39.66,2.5402,363,23382,1.82291,3.96,47034,,,,,,,,,,,,,,,,,,99999,99999,99999,99999,99999,99999,99999,99999,99999,99999,99999,99999
15:44:19,1510813320,2017-11-16T06:22:06,0.716,710.1,6.47,3.81,7.93,827.990,2040.430,105.616669,39.57,2.5403,363,23381,1.81939,3.96,47029,,,,,,,,,,,,,,,,,,99999,99999,99999,99999,99999,99999,99999,99999,99999,99999,99999,99999
15:44:49,1510813350,2017-11-16T06:22:36,0.714,710.4,6.47,3.83,7.88,827.940,2040.430,104.033333,39.62,2.5403,363,23381,1.81295,3.96,47025,,,,,,,,,,,,,,,,,,99999,99999,99999,99999,99999,99999,99999,99999,99999,99999,99999,99999
15:45:19,1510813380,2017-11-16T06:23:06,0.712,710.8,6.47,3.83,7.89,828.070,2040.430,104.650002,39.41,2.5403,363,23380,1.80974,3.96,47020,,,,,,,,,,,,,,,,,,99999,99999,99999,99999,99999,99999,99999,99999,99999,99999,99999,99999
15:45:49,1510813410,2017-11-16T06:23:36,0.715,711.1,6.46,3.81,7.89,828.070,2040.430,104.766670,40.01,2.5404,363,23379,1.81705,3.96,47016,,,,,,,,,,,,,,,,,,99999,99999,99999,99999,99999,99999,99999,99999,99999,99999,99999,99999
15:46:19,1510813440,2017-11-16T06:24:06,0.718,711.5,6.47,3.82,7.89,828.100,2040.430,104.733330,39.68,2.5403,363,23380,1.82291,3.96,47012,,,,,,,,,,,,,,,,,,99999,99999,99999,99999,99999,99999,99999,99999,99999,99999,99999,99999
15:46:49,1510813470,2017-11-16T06:24:36,0.712,711.9,6.46,3.84,7.86,828.020,2040.430,103.133331,39.71,2.5404,363,23378,1.80915,3.96,47007,,,,,,,,,,,,,,,,,,99999,99999,99999,99999,99999,99999,99999,99999,99999,99999,99999,99999
15:47:19,1510813500,2017-11-16T06:25:06,0.719,712.2,6.46,3.83,7.89,828.150,2040.430,104.633331,39.87,2.5404,363,23381,1.82585,3.96,47003,,,,,,,,,,,,,,,,,,99999,99999,99999,99999,99999,99999,99999,99999,99999,99999,99999,99999
15:47:49,1510813530,2017-11-16T06:25:36,0.717,712.6,6.45,3.85,7.91,828.050,2040.370,103.400002,39.74,2.5404,363,23379,1.82232,3.96,46998,,,,,,,,,,,,,,,,,,99999,99999,99999,99999,99999,99999,99999,99999,99999,99999,99999,99999
15:48:19,1510813560,2017-11-16T06:26:06,0.711,712.9,6.44,3.82,7.88,828.180,2040.300,103.883331,39.80,2.5404,363,23381,1.80594,3.96,46994,,,,,,,,,,,,,,,,,,99999,99999,99999,99999,99999,99999,99999,99999,99999,99999,99999,99999
15:48:49,1510813590,2017-11-16T06:26:36,0.717,713.3,6.43,3.82,7.84,828.130,2040.300,105.500000,39.46,2.5405,363,23379,1.82027,3.96,46990,,,,,,,,,,,,,,,,,,99999,99999,99999,99999,99999,99999,99999,99999,99999,99999,99999,99999
15:49:19,1510813620,2017-11-16T06:27:06,0.717,713.7,6.40,3.77,7.89,828.090,2040.200,103.349998,39.39,2.5407,363,23382,1.82144,3.96,46985,,,,,,,,,,,,,,,,,,99999,99999,99999,99999,99999,99999,99999,99999,99999,99999,99999,99999
15:49:49,1510813650,2017-11-16T06:27:36,0.714,714.0,6.40,3.81,7.88,828.120,2040.200,102.116669,39.48,2.5407,363,23379,1.81383,3.96,46981,,,,,,,,,,,,,,,,,,99999,99999,99999,99999,99999,99999,99999,99999,99999,99999,99999,99999
15:50:19,1510813680,2017-11-16T06:28:06,0.712,714.4,6.39,3.78,7.86,828.090,2040.200,103.283333,39.43,2.5407,363,23380,1.81003,3.96,46976,,,,,,,,,,,,,,,,,,99999,99999,99999,99999,99999,99999,99999,99999,99999,99999,99999,99999
15:50:49,1510813710,2017-11-16T06:28:36,0.716,714.7,6.38,3.79,7.82,827.990,2040.130,103.849998,39.63,2.5407,363,23380,1.81939,3.96,46972,,,,,,,,,,,,,,,,,,99999,99999,99999,99999,99999,99999,99999,99999,99999,99999,99999,99999
15:51:19,1510813740,2017-11-16T06:29:06,0.717,715.1,6.38,3.79,7.84,828.070,2040.130,104.233330,39.70,2.5407,363,23377,1.82115,3.96,46968,,,,,,,,,,,,,,,,,,99999,99999,99999,99999,99999,99999,99999,99999,99999,99999,99999,99999
15:51:49,1510813770,2017-11-16T06:29:36,0.711,715.4,6.37,3.77,7.81,828.120,2040.130,103.283333,39.90,2.5408,363,23379,1.80594,3.96,46963,,,,,,,,,,,,,,,,,,99999,99999,99999,99999,99999,99999,99999,99999,99999,99999,99999,99999
15:52:19,1510813800,2017-11-16T06:30:06,0.719,715.8,6.36,3.76,7.82,827.990,2040.030,104.333336,40.05,2.5408,363,23379,1.82761,3.96,46959,,,,,,,,,,,,,,,,,,99999,99999,99999,99999,99999,99999,99999,99999,99999,99999,99999,99999
15:52:49,1510813830,2017-11-16T06:30:36,0.712,716.2,6.34,3.76,7.84,828.000,2039.990,102.033333,39.68,2.5409,363,23379,1.80856,3.96,46954,,,,,,,,,,,,,,,,,,99999,99999,99999,99999,99999,99999,99999,99999,99999,99999,99999,99999
15:53:19,1510813860,2017-11-16T06:31:06,0.718,716.5,6.34,3.76,7.78,827.970,2039.990,103.266670,39.62,2.5409,363,23379,1.82379,3.96,46950,,,,,,,,,,,,,,,,,,99999,99999,99999,99999,99999,99999,99999,99999,99999,99999,99999,99999
15:53:49,1510813890,2017-11-16T06:31:36,0.717,716.9,6.34,3.75,7.81,827.840,2039.990,103.266670,39.44,2.5409,363,23379,1.82086,3.96,46946,,,,,,,,,,,,,,,,,,99999,99999,99999,99999,99999,99999,99999,99999,99999,99999,99999,99999
15:54:19,1510813920,2017-11-16T06:32:06,0.714,717.2,6.34,3.74,7.81,827.890,2039.990,102.050003,39.74,2.5409,363,23381,1.81529,3.96,46941,,,,,,,,,,,,,,,,,,99999,99999,99999,99999,99999,99999,99999,99999,99999,99999,99999,99999
15:54:49,1510813950,2017-11-16T06:32:36,0.718,717.6,6.33,3.73,7.78,827.890,2039.970,103.533333,39.78,2.5410,363,23378,1.82379,3.96,46937,,,,,,,,,,,,,,,,,,99999,99999,99999,99999,99999,99999,99999,99999,99999,99999,99999,99999
15:55:19,1510813980,2017-11-16T06:33:06,0.718,717.9,6.33,3.77,7.78,827.940,2039.970,105.833336,39.76,2.5410,363,23377,1.82320,3.95,46932,,,,,,,,,,,,,,,,,,99999,99999,99999,99999,99999,99999,99999,99999,99999,99999,99999,99999
15:55:49,1510814010,2017-11-16T06:33:36,0.715,718.3,6.33,3.78,7.80,827.920,2039.970,105.833336,40.01,2.5410,363,23379,1.81793,3.95,46928,,,,,,,,,,,,,,,,,,99999,99999,99999,99999,99999,99999,99999,99999,99999,99999,99999,99999
15:56:19,1510814040,2017-11-16T06:34:06,0.712,718.7,6.33,3.76,7.78,827.970,2039.970,103.266670,40.24,2.5410,363,23380,1.80944,3.95,46924,,,,,,,,,,,,,,,,,,99999,99999,99999,99999,99999,99999,99999,99999,99999,99999,99999,99999
15:56:49,1510814070,2017-11-16T06:34:36,0.712,719.0,6.34,3.77,7.80,827.940,2039.990,104.166664,40.24,2.5409,363,23380,1.80798,3.95,46919,,,,,,,,,,,,,,,,,,99999,99999,99999,99999,99999,99999,99999,99999,99999,99999,99999,99999
15:57:19,1510814100,2017-11-16T06:35:06,0.717,719.4,6.33,3.77,7.78,827.970,2039.970,102.566666,39.84,2.5410,363,23378,1.82291,3.95,46915,,,,,,,,,,,,,,,,,,99999,99999,99999,99999,99999,99999,99999,99999,99999,99999,99999,99999
15:57:49,1510814130,2017-11-16T06:35:36,0.710,719.7,6.33,3.74,7.78,827.970,2039.970,103.016670,39.73,2.5410,363,23378,1.80361,3.95,46910,,,,,,,,,,,,,,,,,,99999,99999,99999,99999,99999,99999,99999,99999,99999,99999,99999,99999
15:58:19,1510814160,2017-11-16T06:36:06,0.715,720.1,6.32,3.74,7.78,827.970,2039.930,102.666664,39.63,2.5410,363,23380,1.81734,3.95,46906,,,,,,,,,,,,,,,,,,99999,99999,99999,99999,99999,99999,99999,99999,99999,99999,99999,99999
15:58:49,1510814190,2017-11-16T06:36:36,0.715,720.4,6.30,3.70,7.76,827.930,2039.870,104.083336,39.66,2.5412,363,23380,1.81676,3.95,46902,,,,,,,,,,,,,,,,,,99999,99999,99999,99999,99999,99999,99999,99999,99999,99999,99999,99999
15:59:19,1510814220,2017-11-16T06:37:06,0.714,720.8,6.29,3.69,7.73,827.910,2039.820,104.383331,39.71,2.5412,363,23380,1.81470,3.95,46897,,,,,,,,,,,,,,,,,,99999,99999,99999,99999,99999,99999,99999,99999,99999,99999,99999,99999
15:59:49,1510814250,2017-11-16T06:37:36,0.710,721.2,6.27,3.68,7.76,827.860,2039.760,102.666664,39.65,2.5413,363,23377,1.80390,3.95,46893,,,,,,,,,,,,,,,,,,99999,99999,99999,99999,99999,99999,99999,99999,99999,99999,99999,99999
16:00:19,1510814280,2017-11-16T06:38:06,0.710,721.5,6.26,3.67,7.73,827.910,2039.760,103.349998,39.60,2.5414,363,23378,1.80331,3.95,46888,,,,,,,,,,,,,,,,,,99999,99999,99999,99999,99999,99999,99999,99999,99999,99999,99999,99999
16:00:49,1510814310,2017-11-16T06:38:36,0.710,721.9,6.24,3.66,7.73,827.920,2039.700,102.883331,39.49,2.5415,363,23379,1.80506,3.95,46884,,,,,,,,,,,,,,,,,,99999,99999,99999,99999,99999,99999,99999,99999,99999,99999,99999,99999
16:01:19,1510814340,2017-11-16T06:39:06,0.710,722.2,6.23,3.64,7.72,827.920,2039.590,103.333336,39.59,2.5415,363,23378,1.80331,3.95,46879,,,,,,,,,,,,,,,,,,99999,99999,99999,99999,99999,99999,99999,99999,99999,99999,99999,99999
16:01:49,1510814370,2017-11-16T06:39:36,0.712,722.6,6.22,3.64,7.68,827.890,2039.590,103.933334,39.64,2.5415,363,23375,1.80856,3.95,46875,,,,,,,,,,,,,,,,,,99999,99999,99999,99999,99999,99999,99999,99999,99999,99999,99999,99999
16:02:19,1510814400,2017-11-16T06:40:06,0.713,722.9,6.20,3.60,7.65,827.900,2039.490,103.849998,39.53,2.5416,363,23374,1.81178,3.95,46871,,,,,,,,,,,,,,,,,,99999,99999,99999,99999,99999,99999,99999,99999,99999,99999,99999,99999
16:02:49,1510814430,2017-11-16T06:40:36,0.716,723.3,6.19,3.60,7.65,827.820,2039.490,104.966667,39.62,2.5417,363,23375,1.81968,3.95,46866,,,,,,,,,,,,,,,,,,99999,99999,99999,99999,99999,99999,99999,99999,99999,99999,99999,99999
16:03:19,1510814460,2017-11-16T06:41:06,0.717,723.7,6.18,3.60,7.62,827.880,2039.430,104.150002,39.80,2.5417,363,23372,1.82203,3.95,46862,,,,,,,,,,,,,,,,,,99999,99999,99999,99999,99999,99999,99999,99999,99999,99999,99999,99999
16:03:49,1510814490,2017-11-16T06:41:36,0.715,724.0,6.17,3.57,7.62,827.880,2039.430,103.883331,39.86,2.5418,363,23371,1.81822,3.95,46857,,,,,,,,,,,,,,,,,,99999,99999,99999,99999,99999,99999,99999,99999,99999,99999,99999,99999
16:04:19,1510814520,2017-11-16T06:42:06,0.710,724.4,6.16,3.59,7.60,827.780,2039.370,101.666664,39.56,2.5418,363,23371,1.80448,3.95,46853,,,,,,,,,,,,,,,,,,99999,99999,99999,99999,99999,99999,99999,99999,99999,99999,99999,99999
16:04:49,1510814550,2017-11-16T06:42:36,0.709,724.7,6.15,3.60,7.59,827.860,2039.370,102.699997,39.45,2.5419,363,23371,1.80186,3.95,46849,,,,,,,,,,,,,,,,,,99999,99999,99999,99999,99999,99999,99999,99999,99999,99999,99999,99999
16:05:19,1510814580,2017-11-16T06:43:06,0.711,725.1,6.14,3.59,7.62,827.920,2039.320,102.033333,39.75,2.5419,363,23372,1.80740,3.95,46844,,,,,,,,,,,,,,,,,,99999,99999,99999,99999,99999,99999,99999,99999,99999,99999,99999,99999
16:05:49,1510814610,2017-11-16T06:43:36,0.710,725.4,6.14,3.58,7.59,827.860,2039.320,102.016670,40.42,2.5419,363,23372,1.80390,3.95,46840,,,,,,,,,,,,,,,,,,99999,99999,99999,99999,99999,99999,99999,99999,99999,99999,99999,99999
16:06:19,1510814640,2017-11-16T06:44:06,0.716,725.8,6.14,3.57,7.62,827.920,2039.320,104.150002,40.50,2.5419,363,23375,1.81968,3.95,46835,,,,,,,,,,,,,,,,,,99999,99999,99999,99999,99999,99999,99999,99999,99999,99999,99999,99999
16:06:49,1510814670,2017-11-16T06:44:36,0.711,726.2,6.13,3.57,7.57,827.890,2039.320,102.416664,40.01,2.5420,363,23372,1.80681,3.95,46831,,,,,,,,,,,,,,,,,,99999,99999,99999,99999,99999,99999,99999,99999,99999,99999,99999,99999
16:07:19,1510814700,2017-11-16T06:45:06,0.716,726.5,6.13,3.57,7.59,827.970,2039.320,103.383331,39.73,2.5420,363,23372,1.81939,3.95,46827,,,,,,,,,,,,,,,,,,99999,99999,99999,99999,99999,99999,99999,99999,99999,99999,99999,99999
16:07:49,1510814730,2017-11-16T06:45:36,0.716,726.9,6.12,3.56,7.59,827.950,2039.260,104.133331,40.05,2.5420,363,23372,1.81968,3.95,46822,,,,,,,,,,,,,,,,,,99999,99999,99999,99999,99999,99999,99999,99999,99999,99999,99999,99999
16:08:19,1510814760,2017-11-16T06:46:06,0.713,727.2,6.12,3.55,7.60,827.900,2039.260,104.250000,40.16,2.5420,363,23369,1.81354,3.95,46818,,,,,,,,,,,,,,,,,,99999,99999,99999,99999,99999,99999,99999,99999,99999,99999,99999,99999
16:08:49,1510814790,2017-11-16T06:46:36,0.709,727.6,6.12,3.55,7.59,827.900,2039.260,102.599998,39.73,2.5421,363,23371,1.80186,3.95,46813,,,,,,,,,,,,,,,,,,99999,99999,99999,99999,99999,99999,99999,99999,99999,99999,99999,99999
16:09:19,1510814820,2017-11-16T06:47:06,0.710,727.9,6.10,3.54,7.60,827.820,2039.150,101.916664,39.36,2.5421,363,23373,1.80506,3.95,46809,,,,,,,,,,,,,,,,,,99999,99999,99999,99999,99999,99999,99999,99999,99999,99999,99999,99999
16:09:49,1510814850,2017-11-16T06:47:36,0.712,728.3,6.11,3.55,7.55,827.870,2039.260,102.383331,39.34,2.5422,363,23375,1.81090,3.95,46805,,,,,,,,,,,,,,,,,,99999,99999,99999,99999,99999,99999,99999,99999,99999,99999,99999,99999
16:10:19,1510814880,2017-11-16T06:48:06,0.711,728.6,6.13,3.55,7.55,827.920,2039.320,103.266670,39.47,2.5420,363,23373,1.80769,3.95,46800,,,,,,,,,,,,,,,,,,99999,99999,99999,99999,99999,99999,99999,99999,99999,99999,99999,99999
16:10:49,1510814910,2017-11-16T06:48:36,0.711,729.0,6.12,3.56,7.60,827.760,2039.260,102.633331,39.49,2.5421,363,23373,1.80681,3.95,46796,,,,,,,,,,,,,,,,,,99999,99999,99999,99999,99999,99999,99999,99999,99999,99999,99999,99999
16:11:19,1510814940,2017-11-16T06:49:06,0.709,729.4,6.13,3.56,7.60,827.790,2039.320,101.883331,39.53,2.5420,363,23372,1.80302,3.95,46791,,,,,,,,,,,,,,,,,,99999,99999,99999,99999,99999,99999,99999,99999,99999,99999,99999,99999
16:11:49,1510814970,2017-11-16T06:49:36,0.713,729.7,6.14,3.55,7.60,827.810,2039.320,101.383331,39.31,2.5420,363,23372,1.81207,3.95,46787,,,,,,,,,,,,,,,,,,99999,99999,99999,99999,99999,99999,99999,99999,99999,99999,99999,99999
16:12:19,1510815000,2017-11-16T06:50:06,0.715,730.1,6.16,3.58,7.59,827.780,2039.370,104.199997,39.56,2.5418,363,23372,1.81822,3.95,46783,,,,,,,,,,,,,,,,,,99999,99999,99999,99999,99999,99999,99999,99999,99999,99999,99999,99999
16:12:49,1510815030,2017-11-16T06:50:36,0.718,730.4,6.17,3.60,7.62,827.800,2039.430,103.300003,39.69,2.5418,363,23375,1.82467,3.95,46778,,,,,,,,,,,,,,,,,,99999,99999,99999,99999,99999,99999,99999,99999,99999,99999,99999,99999
16:13:19,1510815060,2017-11-16T06:51:06,0.714,730.8,6.17,3.61,7.57,827.800,2039.430,102.766670,39.58,2.5418,363,23373,1.81558,3.95,46774,,,,,,,,,,,,,,,,,,99999,99999,99999,99999,99999,99999,99999,99999,99999,99999,99999,99999
16:13:49,1510815090,2017-11-16T06:51:36,0.713,731.1,6.17,3.59,7.60,827.850,2039.430,102.650002,39.51,2.5418,363,23373,1.81149,3.95,46769,,,,,,,,,,,,,,,,,,99999,99999,99999,99999,99999,99999,99999,99999,99999,99999,99999,99999
16:14:19,1510815120,2017-11-16T06:52:06,0.714,731.5,6.19,3.58,7.62,827.800,2039.490,103.800003,39.89,2.5417,363,23374,1.81558,3.95,46765,,,,,,,,,,,,,,,,,,99999,99999,99999,99999,99999,99999,99999,99999,99999,99999,99999,99999
16:14:49,1510815150,2017-11-16T06:52:36,0.716,731.9,6.20,3.59,7.65,827.900,2039.490,103.166664,40.01,2.5416,363,23374,1.82086,3.95,46760,,,,,,,,,,,,,,,,,,99999,99999,99999,99999,99999,99999,99999,99999,99999,99999,99999,99999
16:15:19,1510815180,2017-11-16T06:53:06,0.715,732.2,6.20,3.60,7.65,827.820,2039.490,102.550003,39.69,2.5416,363,23377,1.81617,3.95,46756,,,,,,,,,,,,,,,,,,99999,99999,99999,99999,99999,99999,99999,99999,99999,99999,99999,99999
16:15:49,1510815210,2017-11-16T06:53:36,0.713,732.6,6.23,3.58,7.65,827.920,2039.590,102.816666,39.13,2.5415,363,23376,1.81207,3.95,46752,,,,,,,,,,,,,,,,,,99999,99999,99999,99999,99999,99999,99999,99999,99999,99999,99999,99999
16:16:19,1510815240,2017-11-16T06:54:06,0.714,732.9,6.22,3.64,7.66,827.840,2039.590,103.933334,39.57,2.5415,363,23374,1.81383,3.95,46747,,,,,,,,,,,,,,,,,,99999,99999,99999,99999,99999,99999,99999,99999,99999,99999,99999,99999
16:16:49,1510815270,2017-11-16T06:54:36,0.716,733.3,6.22,3.63,7.66,827.790,2039.590,103.533333,39.69,2.5415,363,23376,1.82027,3.95,46743,,,,,,,,,,,,,,,,,,99999,99999,99999,99999,99999,99999,99999,99999,99999,99999,99999,99999
16:17:19,1510815300,2017-11-16T06:55:06,0.718,733.6,6.23,3.63,7.66,827.680,2039.590,104.000000,39.58,2.5415,363,23374,1.82467,3.95,46738,,,,,,,,,,,,,,,,,,99999,99999,99999,99999,99999,99999,99999,99999,99999,99999,99999,99999
16:17:49,1510815330,2017-11-16T06:55:36,0.718,734.0,6.23,3.63,7.64,827.660,2039.590,104.366669,39.46,2.5415,363,23375,1.82526,3.95,46734,,,,,,,,,,,,,,,,,,99999,99999,99999,99999,99999,99999,99999,99999,99999,99999,99999,99999
16:18:19,1510815360,2017-11-16T06:56:06,0.717,734.4,6.24,3.60,7.64,827.650,2039.700,104.816666,39.48,2.5415,363,23376,1.82144,3.95,46730,,,,,,,,,,,,,,,,,,99999,99999,99999,99999,99999,99999,99999,99999,99999,99999,99999,99999
16:18:49,1510815390,2017-11-16T06:56:36,0.714,734.7,6.24,3.64,7.66,827.710,2039.700,103.033333,39.32,2.5415,363,23375,1.81383,3.95,46725,,,,,,,,,,,,,,,,,,99999,99999,99999,99999,99999,99999,99999,99999,99999,99999,99999,99999
16:19:19,1510815420,2017-11-16T06:57:06,0.713,735.1,6.25,3.64,7.68,827.680,2039.700,103.483330,39.39,2.5414,363,23374,1.81090,3.95,46721,,,,,,,,,,,,,,,,,,99999,99999,99999,99999,99999,99999,99999,99999,99999,99999,99999,99999
16:19:49,1510815450,2017-11-16T06:57:36,0.717,735.4,6.25,3.63,7.68,827.650,2039.700,104.150002,39.28,2.5414,363,23374,1.82203,3.95,46716,,,,,,,,,,,,,,,,,,99999,99999,99999,99999,99999,99999,99999,99999,99999,99999,99999,99999
16:20:19,1510815480,2017-11-16T06:58:06,0.716,735.8,6.26,3.65,7.68,827.700,2039.760,104.699997,39.25,2.5414,363,23375,1.81851,3.95,46712,,,,,,,,,,,,,,,,,,99999,99999,99999,99999,99999,99999,99999,99999,99999,99999,99999,99999
16:20:49,1510815510,2017-11-16T06:58:36,0.710,736.1,6.26,3.63,7.73,827.650,2039.760,102.650002,39.04,2.5414,363,23375,1.80477,3.95,46708,,,,,,,,,,,,,,,,,,99999,99999,99999,99999,99999,99999,99999,99999,99999,99999,99999,99999
16:21:19,1510815540,2017-11-16T06:59:06,0.717,736.5,6.27,3.64,7.68,827.620,2039.760,103.166664,39.57,2.5413,363,23377,1.82261,3.95,46703,,,,,,,,,,,,,,,,,,99999,99999,99999,99999,99999,99999,99999,99999,99999,99999,99999,99999
16:21:49,1510815570,2017-11-16T06:59:36,0.716,736.9,6.28,3.64,7.72,827.700,2039.820,102.866669,39.55,2.5413,363,23375,1.81968,3.95,46699,,,,,,,,,,,,,,,,,,99999,99999,99999,99999,99999,99999,99999,99999,99999,99999,99999,99999
16:22:19,1510815600,2017-11-16T07:00:06,0.714,737.2,6.27,3.64,7.72,827.650,2039.760,102.833336,39.33,2.5413,363,23376,1.81354,3.95,46694,,,,,,,,,,,,,,,,,,99999,99999,99999,99999,99999,99999,99999,99999,99999,99999,99999,99999
16:22:49,1510815630,2017-11-16T07:00:36,0.716,737.6,6.28,3.67,7.73,827.700,2039.820,103.083336,39.43,2.5413,363,23377,1.82027,3.95,46690,,,,,,,,,,,,,,,,,,99999,99999,99999,99999,99999,99999,99999,99999,99999,99999,99999,99999
16:23:19,1510815660,2017-11-16T07:01:06,0.718,737.9,6.29,3.68,7.73,827.700,2039.820,103.833336,39.65,2.5412,363,23378,1.82555,3.95,46685,,,,,,,,,,,,,,,,,,99999,99999,99999,99999,99999,99999,99999,99999,99999,99999,99999,99999
16:23:49,1510815690,2017-11-16T07:01:36,0.713,738.3,6.28,3.67,7.72,827.570,2039.820,103.866669,39.78,2.5413,363,23373,1.81090,3.95,46681,,,,,,,,,,,,,,,,,,99999,99999,99999,99999,99999,99999,99999,99999,99999,99999,99999,99999
16:24:19,1510815720,2017-11-16T07:02:06,0.710,738.6,6.28,3.67,7.72,827.570,2039.820,102.400002,39.48,2.5413,363,23378,1.80536,3.95,46677,,,,,,,,,,,,,,,,,,99999,99999,99999,99999,99999,99999,99999,99999,99999,99999,99999,99999
16:24:49,1510815750,2017-11-16T07:02:36,0.714,739.0,6.29,3.67,7.70,827.620,2039.820,103.383331,39.41,2.5412,363,23375,1.81383,3.95,46672,,,,,,,,,,,,,,,,,,99999,99999,99999,99999,99999,99999,99999,99999,99999,99999,99999,99999
16:25:19,1510815780,2017-11-16T07:03:06,0.717,739.4,6.28,3.67,7.73,827.590,2039.820,103.983330,39.49,2.5413,363,23375,1.82086,3.95,46668,,,,,,,,,,,,,,,,,,99999,99999,99999,99999,99999,99999,99999,99999,99999,99999,99999,99999
16:25:49,1510815810,2017-11-16T07:03:36,0.712,739.7,6.28,3.65,7.73,827.620,2039.820,102.866669,39.35,2.5413,363,23378,1.81032,3.95,46663,,,,,,,,,,,,,,,,,,99999,99999,99999,99999,99999,99999,99999,99999,99999,99999,99999,99999
16:26:19,1510815840,2017-11-16T07:04:06,0.717,740.1,6.28,3.67,7.76,827.590,2039.820,105.516670,39.54,2.5413,363,23376,1.82232,3.95,46659,,,,,,,,,,,,,,,,,,99999,99999,99999,99999,99999,99999,99999,99999,99999,99999,99999,99999
16:26:49,1510815870,2017-11-16T07:04:36,0.712,740.4,6.29,3.66,7.70,827.540,2039.820,102.116669,39.56,2.5412,363,23378,1.80915,3.95,46655,,,,,,,,,,,,,,,,,,99999,99999,99999,99999,99999,99999,99999,99999,99999,99999,99999,99999
16:27:19,1510815900,2017-11-16T07:05:06,0.714,740.8,6.28,3.67,7.73,827.490,2039.820,103.883331,38.87,2.5413,363,23376,1.81529,3.95,46650,,,,,,,,,,,,,,,,,,99999,99999,99999,99999,99999,99999,99999,99999,99999,99999,99999,99999
16:27:49,1510815930,2017-11-16T07:05:36,0.718,741.1,6.29,3.67,7.73,827.490,2039.820,104.400002,39.38,2.5412,363,23378,1.82496,3.95,46646,,,,,,,,,,,,,,,,,,99999,99999,99999,99999,99999,99999,99999,99999,99999,99999,99999,99999
16:28:19,1510815960,2017-11-16T07:06:06,0.716,741.5,6.29,3.69,7.74,827.520,2039.820,103.449997,39.36,2.5412,363,23376,1.82027,3.95,46641,,,,,,,,,,,,,,,,,,99999,99999,99999,99999,99999,99999,99999,99999,99999,99999,99999,99999
16:28:49,1510815990,2017-11-16T07:06:36,0.712,741.9,6.29,3.67,7.73,827.490,2039.820,103.016670,39.36,2.5412,363,23377,1.80974,3.95,46637,,,,,,,,,,,,,,,,,,99999,99999,99999,99999,99999,99999,99999,99999,99999,99999,99999,99999
16:29:19,1510816020,2017-11-16T07:07:06,0.710,742.2,6.29,3.70,7.73,827.520,2039.820,102.883331,39.28,2.5412,363,23377,1.80536,3.95,46632,,,,,,,,,,,,,,,,,,99999,99999,99999,99999,99999,99999,99999,99999,99999,99999,99999,99999
16:29:49,1510816050,2017-11-16T07:07:36,0.717,742.6,6.30,3.68,7.76,827.610,2039.870,102.683334,39.15,2.5412,363,23376,1.82261,3.95,46628,,,,,,,,,,,,,,,,,,99999,99999,99999,99999,99999,99999,99999,99999,99999,99999,99999,99999
16:30:19,1510816080,2017-11-16T07:08:06,0.715,742.9,6.30,3.72,7.76,827.590,2039.870,103.949997,39.14,2.5412,363,23376,1.81587,3.95,46624,,,,,,,,,,,,,,,,,,99999,99999,99999,99999,99999,99999,99999,99999,99999,99999,99999,99999
16:30:49,1510816110,2017-11-16T07:08:36,0.711,743.3,6.30,3.70,7.73,827.530,2039.870,103.099998,39.12,2.5412,363,23377,1.80681,3.95,46619,,,,,,,,,,,,,,,,,,99999,99999,99999,99999,99999,99999,99999,99999,99999,99999,99999,99999
16:31:19,1510816140,2017-11-16T07:09:06,0.716,743.6,6.31,3.69,7.76,827.610,2039.870,104.599998,39.24,2.5411,363,23376,1.82027,3.95,46615,,,,,,,,,,,,,,,,,,99999,99999,99999,99999,99999,99999,99999,99999,99999,99999,99999,99999
16:31:49,1510816170,2017-11-16T07:09:36,0.715,744.0,6.32,3.70,7.73,827.630,2039.930,103.133331,39.46,2.5411,363,23377,1.81763,3.95,46610,,,,,,,,,,,,,,,,,,99999,99999,99999,99999,99999,99999,99999,99999,99999,99999,99999,99999
16:32:19,1510816200,2017-11-16T07:10:06,0.714,744.4,6.32,3.70,7.78,827.580,2039.930,103.199997,39.31,2.5411,363,23378,1.81354,3.95,46606,,,,,,,,,,,,,,,,,,99999,99999,99999,99999,99999,99999,99999,99999,99999,99999,99999,99999
16:32:49,1510816230,2017-11-16T07:10:36,0.710,744.7,6.32,3.74,7.74,827.610,2039.930,102.699997,39.19,2.5411,363,23378,1.80448,3.95,46602,,,,,,,,,,,,,,,,,,99999,99999,99999,99999,99999,99999,99999,99999,99999,99999,99999,99999
16:33:19,1510816260,2017-11-16T07:11:06,0.718,745.1,6.32,3.68,7.74,827.660,2039.930,104.233330,39.08,2.5411,363,23378,1.82350,3.95,46597,,,,,,,,,,,,,,,,,,99999,99999,99999,99999,99999,99999,99999,99999,99999,99999,99999,99999
16:33:49,1510816290,2017-11-16T07:11:36,0.717,745.4,6.33,3.69,7.76,827.530,2039.970,105.366669,39.85,2.5410,363,23378,1.82232,3.95,46593,,,,,,,,,,,,,,,,,,99999,99999,99999,99999,99999,99999,99999,99999,99999,99999,99999,99999
16:34:19,1510816320,2017-11-16T07:12:06,0.716,745.8,6.34,3.69,7.76,827.600,2039.990,103.949997,39.55,2.5409,363,23379,1.81910,3.95,46588,,,,,,,,,,,,,,,,,,99999,99999,99999,99999,99999,99999,99999,99999,99999,99999,99999,99999
16:34:49,1510816350,2017-11-16T07:12:36,0.714,746.1,6.33,3.70,7.76,827.550,2039.970,103.500000,39.54,2.5410,363,23378,1.81441,3.95,46584,,,,,,,,,,,,,,,,,,99999,99999,99999,99999,99999,99999,99999,99999,99999,99999,99999,99999
16:35:19,1510816380,2017-11-16T07:13:06,0.710,746.5,6.33,3.70,7.80,827.660,2039.970,103.916664,39.40,2.5410,363,23378,1.80331,3.95,46579,,,,,,,,,,,,,,,,,,99999,99999,99999,99999,99999,99999,99999,99999,99999,99999,99999,99999
16:35:49,1510816410,2017-11-16T07:13:36,0.718,746.9,6.32,3.70,7.78,827.630,2039.930,104.099998,39.20,2.5411,363,23377,1.82438,3.95,46575,,,,,,,,,,,,,,,,,,99999,99999,99999,99999,99999,99999,99999,99999,99999,99999,99999,99999
16:36:19,1510816440,2017-11-16T07:14:06,0.710,747.2,6.32,3.71,7.76,827.630,2039.930,102.849998,39.09,2.5411,363,23377,1.80419,3.95,46571,,,,,,,,,,,,,,,,,,99999,99999,99999,99999,99999,99999,99999,99999,99999,99999,99999,99999
16:36:49,1510816470,2017-11-16T07:14:36,0.718,747.6,6.32,3.69,7.74,827.610,2039.930,104.349998,39.54,2.5411,363,23378,1.82350,3.95,46566,,,,,,,,,,,,,,,,,,99999,99999,99999,99999,99999,99999,99999,99999,99999,99999,99999,99999
16:37:19,1510816500,2017-11-16T07:15:06,0.713,747.9,6.30,3.66,7.74,827.560,2039.870,103.866669,39.16,2.5412,363,23377,1.81061,3.94,46562,,,,,,,,,,,,,,,,,,99999,99999,99999,99999,99999,99999,99999,99999,99999,99999,99999,99999
16:37:49,1510816530,2017-11-16T07:15:36,0.710,748.3,6.30,3.69,7.78,827.610,2039.870,102.666664,39.32,2.5412,363,23374,1.80448,3.95,46557,,,,,,,,,,,,,,,,,,99999,99999,99999,99999,99999,99999,99999,99999,99999,99999,99999,99999
16:38:19,1510816560,2017-11-16T07:16:06,0.718,748.6,6.30,3.67,7.74,827.560,2039.870,104.616669,39.47,2.5412,363,23376,1.82496,3.95,46553,,,,,,,,,,,,,,,,,,99999,99999,99999,99999,99999,99999,99999,99999,99999,99999,99999,99999
16:38:49,1510816590,2017-11-16T07:16:36,0.711,749.0,6.28,3.65,7.73,827.590,2039.820,102.550003,39.30,2.5413,363,23376,1.80681,3.95,46548,,,,,,,,,,,,,,,,,,99999,99999,99999,99999,99999,99999,99999,99999,99999,99999,99999,99999
16:39:19,1510816620,2017-11-16T07:17:06,0.715,749.4,6.29,3.66,7.72,827.520,2039.820,104.216667,39.40,2.5412,363,23375,1.81793,3.95,46544,,,,,,,,,,,,,,,,,,99999,99999,99999,99999,99999,99999,99999,99999,99999,99999,99999,99999
16:39:49,1510816650,2017-11-16T07:17:36,0.716,749.7,6.28,3.65,7.68,827.490,2039.820,104.833336,39.36,2.5413,363,23375,1.81998,3.94,46540,,,,,,,,,,,,,,,,,,99999,99999,99999,99999,99999,99999,99999,99999,99999,99999,99999,99999
16:40:19,1510816680,2017-11-16T07:18:06,0.712,750.1,6.27,3.68,7.73,827.440,2039.760,103.983330,39.30,2.5413,363,23374,1.80886,3.95,46535,,,,,,,,,,,,,,,,,,99999,99999,99999,99999,99999,99999,99999,99999,99999,99999,99999,99999
16:40:49,1510816710,2017-11-16T07:18:36,0.712,750.4,6.28,3.63,7.70,827.490,2039.820,102.466667,39.32,2.5413,363,23373,1.80974,3.94,46531,,,,,,,,,,,,,,,,,,99999,99999,99999,99999,99999,99999,99999,99999,99999,99999,99999,99999
16:41:19,1510816740,2017-11-16T07:19:06,0.717,750.8,6.28,3.66,7.72,827.490,2039.820,103.666664,39.44,2.5413,363,23376,1.82291,3.94,46526,,,,,,,,,,,,,,,,,,99999,99999,99999,99999,99999,99999,99999,99999,99999,99999,99999,99999
16:41:49,1510816770,2017-11-16T07:19:36,0.717,751.1,6.26,3.66,7.72,827.440,2039.760,104.116669,39.26,2.5414,363,23377,1.82261,3.94,46522,,,,,,,,,,,,,,,,,,99999,99999,99999,99999,99999,99999,99999,99999,99999,99999,99999,99999
16:42:19,1510816800,2017-11-16T07:20:06,0.717,751.5,6.28,3.66,7.72,827.440,2039.820,104.566666,39.42,2.5413,363,23375,1.82115,3.94,46518,,,,,,,,,,,,,,,,,,99999,99999,99999,99999,99999,99999,99999,99999,99999,99999,99999,99999
16:42:49,1510816830,2017-11-16T07:20:36,0.712,751.9,6.28,3.67,7.73,827.460,2039.820,103.266670,39.49,2.5413,363,23377,1.80828,3.94,46513,,,,,,,,,,,,,,,,,,99999,99999,99999,99999,99999,99999,99999,99999,99999,99999,99999,99999
16:43:19,1510816860,2017-11-16T07:21:06,0.712,752.2,6.27,3.65,7.72,827.410,2039.760,103.583336,39.34,2.5413,363,23374,1.81003,3.94,46509,,,,,,,,,,,,,,,,,,99999,99999,99999,99999,99999,99999,99999,99999,99999,99999,99999,99999
16:43:49,1510816890,2017-11-16T07:21:36,0.718,752.6,6.27,3.66,7.72,827.410,2039.760,105.216667,39.22,2.5413,363,23378,1.82408,3.94,46504,,,,,,,,,,,,,,,,,,99999,99999,99999,99999,99999,99999,99999,99999,99999,99999,99999,99999
16:44:19,1510816920,2017-11-16T07:22:06,0.716,752.9,6.27,3.67,7.74,827.360,2039.760,104.033333,39.09,2.5413,363,23374,1.81968,3.94,46500,,,,,,,,,,,,,,,,,,99999,99999,99999,99999,99999,99999,99999,99999,99999,99999,99999,99999
16:44:49,1510816950,2017-11-16T07:22:36,0.718,753.3,6.27,3.66,7.72,827.390,2039.760,104.066666,39.34,2.5413,363,23374,1.82379,3.94,46495,,,,,,,,,,,,,,,,,,99999,99999,99999,99999,99999,99999,99999,99999,99999,99999,99999,99999
16:45:19,1510816980,2017-11-16T07:23:06,0.715,753.6,6.28,3.65,7.68,827.380,2039.820,104.583336,39.54,2.5413,363,23376,1.81646,3.94,46491,,,,,,,,,,,,,,,,,,99999,99999,99999,99999,99999,99999,99999,99999,99999,99999,99999,99999
16:45:49,1510817010,2017-11-16T07:23:36,0.712,754.0,6.28,3.66,7.70,827.410,2039.820,102.716667,39.27,2.5413,363,23376,1.80856,3.94,46487,,,,,,,,,,,,,,,,,,99999,99999,99999,99999,99999,99999,99999,99999,99999,99999,99999,99999
16:46:19,1510817040,2017-11-16T07:24:06,0.715,754.4,6.27,3.64,7.72,827.340,2039.760,102.199997,38.73,2.5413,363,23374,1.81646,3.94,46482,,,,,,,,,,,,,,,,,,99999,99999,99999,99999,99999,99999,99999,99999,99999,99999,99999,99999
16:46:49,1510817070,2017-11-16T07:24:36,0.712,754.7,6.28,3.66,7.73,827.330,2039.820,104.150002,38.95,2.5413,363,23373,1.81003,3.94,46478,,,,,,,,,,,,,,,,,,99999,99999,99999,99999,99999,99999,99999,99999,99999,99999,99999,99999
16:47:19,1510817100,2017-11-16T07:25:06,0.718,755.1,6.30,3.67,7.72,827.320,2039.870,104.333336,39.02,2.5412,363,23375,1.82467,3.94,46473,,,,,,,,,,,,,,,,,,99999,99999,99999,99999,99999,99999,99999,99999,99999,99999,99999,99999
16:47:49,1510817130,2017-11-16T07:25:36,0.712,755.4,6.30,3.67,7.73,827.300,2039.870,103.766670,39.49,2.5412,363,23375,1.80856,3.94,46469,,,,,,,,,,,,,,,,,,99999,99999,99999,99999,99999,99999,99999,99999,99999,99999,99999,99999
16:48:19,1510817160,2017-11-16T07:26:06,0.718,755.8,6.30,3.69,7.72,827.350,2039.870,104.766670,38.77,2.5412,363,23375,1.82379,3.94,46465,,,,,,,,,,,,,,,,,,99999,99999,99999,99999,99999,99999,99999,99999,99999,99999,99999,99999
16:48:49,1510817190,2017-11-16T07:26:36,0.711,756.1,6.31,3.68,7.72,827.300,2039.870,103.566666,39.28,2.5411,363,23377,1.80711,3.94,46460,,,,,,,,,,,,,,,,,,99999,99999,99999,99999,99999,99999,99999,99999,99999,99999,99999,99999
16:49:19,1510817220,2017-11-16T07:27:06,0.711,756.5,6.31,3.72,7.73,827.320,2039.870,101.833336,39.50,2.5411,363,23373,1.80623,3.94,46456,,,,,,,,,,,,,,,,,,99999,99999,99999,99999,99999,99999,99999,99999,99999,99999,99999,99999
16:49:49,1510817250,2017-11-16T07:27:36,0.714,756.9,6.31,3.71,7.76,827.350,2039.870,104.550003,39.28,2.5411,363,23374,1.81500,3.94,46451,,,,,,,,,,,,,,,,,,99999,99999,99999,99999,99999,99999,99999,99999,99999,99999,99999,99999
16:50:19,1510817280,2017-11-16T07:28:06,0.718,757.2,6.31,3.70,7.73,827.270,2039.870,104.199997,39.18,2.5411,363,23376,1.82379,3.94,46447,,,,,,,,,,,,,,,,,,99999,99999,99999,99999,99999,99999,99999,99999,99999,99999,99999,99999
16:50:49,1510817310,2017-11-16T07:28:36,0.716,757.6,6.32,3.70,7.73,827.370,2039.930,102.500000,39.06,2.5411,363,23375,1.81968,3.94,46442,,,,,,,,,,,,,,,,,,99999,99999,99999,99999,99999,99999,99999,99999,99999,99999,99999,99999
16:51:19,1510817340,2017-11-16T07:29:06,0.713,757.9,6.32,3.69,7.74,827.400,2039.930,102.633331,39.07,2.5411,363,23375,1.81236,3.94,46438,,,,,,,,,,,,,,,,,,99999,99999,99999,99999,99999,99999,99999,99999,99999,99999,99999,99999
16:51:49,1510817370,2017-11-16T07:29:36,0.712,758.3,6.32,3.72,7.73,827.400,2039.930,102.116669,38.83,2.5411,363,23379,1.80974,3.94,46434,,,,,,,,,,,,,,,,,,99999,99999,99999,99999,99999,99999,99999,99999,99999,99999,99999,99999
16:52:19,1510817400,2017-11-16T07:30:06,0.712,758.6,6.33,3.72,7.76,827.450,2039.970,102.283333,38.86,2.5410,363,23376,1.80944,3.94,46429,,,,,,,,,,,,,,,,,,99999,99999,99999,99999,99999,99999,99999,99999,99999,99999,99999,99999
16:52:49,1510817430,2017-11-16T07:30:36,0.714,759.0,6.33,3.69,7.74,827.470,2039.970,101.750000,39.05,2.5410,363,23377,1.81470,3.94,46425,,,,,,,,,,,,,,,,,,99999,99999,99999,99999,99999,99999,99999,99999,99999,99999,99999,99999
16:53:19,1510817460,2017-11-16T07:31:06,0.713,759.4,6.34,3.68,7.74,827.470,2039.990,102.099998,38.95,2.5410,363,23378,1.81266,3.94,46420,,,,,,,,,,,,,,,,,,99999,99999,99999,99999,99999,99999,99999,99999,99999,99999,99999,99999
16:53:49,1510817490,2017-11-16T07:31:36,0.717,759.7,6.34,3.73,7.76,827.420,2039.990,103.416664,38.99,2.5410,363,23376,1.82144,3.94,46416,,,,,,,,,,,,,,,,,,99999,99999,99999,99999,99999,99999,99999,99999,99999,99999,99999,99999
16:54:19,1510817520,2017-11-16T07:32:06,0.718,760.1,6.34,3.70,7.78,827.530,2039.990,104.016670,38.95,2.5410,363,23375,1.82350,3.94,46412,,,,,,,,,,,,,,,,,,99999,99999,99999,99999,99999,99999,99999,99999,99999,99999,99999,99999
16:54:49,1510817550,2017-11-16T07:32:36,0.718,760.4,6.35,3.69,7.78,827.550,2040.030,104.250000,39.40,2.5409,363,23376,1.82408,3.94,46407,,,,,,,,,,,,,,,,,,99999,99999,99999,99999,99999,99999,99999,99999,99999,99999,99999,99999
16:55:19,1510817580,2017-11-16T07:33:06,0.714,760.8,6.35,3.72,7.76,827.550,2040.030,102.766670,39.57,2.5409,363,23375,1.81295,3.94,46403,,,,,,,,,,,,,,,,,,99999,99999,99999,99999,99999,99999,99999,99999,99999,99999,99999,99999
16:55:49,1510817610,2017-11-16T07:33:36,0.717,761.1,6.35,3.72,7.80,827.470,2040.030,104.349998,39.23,2.5409,363,23379,1.82203,3.94,46398,,,,,,,,,,,,,,,,,,99999,99999,99999,99999,99999,99999,99999,99999,99999,99999,99999,99999
16:56:19,1510817640,2017-11-16T07:34:06,0.713,761.5,6.35,3.70,7.76,827.470,2040.030,103.416664,38.70,2.5409,363,23378,1.81207,3.94,46394,,,,,,,,,,,,,,,,,,99999,99999,99999,99999,99999,99999,99999,99999,99999,99999,99999,99999
16:56:49,1510817670,2017-11-16T07:34:36,0.712,761.9,6.35,3.69,7.82,827.310,2040.030,104.033333,38.91,2.5409,363,23379,1.80798,3.94,46389,,,,,,,,,,,,,,,,,,99999,99999,99999,99999,99999,99999,99999,99999,99999,99999,99999,99999
16:57:19,1510817700,2017-11-16T07:35:06,0.714,762.2,6.36,3.71,7.78,827.390,2040.030,104.650002,39.08,2.5408,363,23377,1.81412,3.94,46385,,,,,,,,,,,,,,,,,,99999,99999,99999,99999,99999,99999,99999,99999,99999,99999,99999,99999
16:57:49,1510817730,2017-11-16T07:35:36,0.718,762.6,6.35,3.70,7.78,827.310,2040.030,103.949997,39.61,2.5409,363,23378,1.82496,3.94,46381,,,,,,,,,,,,,,,,,,99999,99999,99999,99999,99999,99999,99999,99999,99999,99999,99999,99999
16:58:19,1510817760,2017-11-16T07:36:06,0.710,762.9,6.34,3.72,7.78,827.210,2039.990,103.400002,39.14,2.5410,363,23378,1.80419,3.94,46376,,,,,,,,,,,,,,,,,,99999,99999,99999,99999,99999,99999,99999,99999,99999,99999,99999,99999
16:58:49,1510817790,2017-11-16T07:36:36,0.714,763.3,6.34,3.69,7.80,827.160,2039.990,105.433334,39.07,2.5410,363,23377,1.81529,3.94,46372,,,,,,,,,,,,,,,,,,99999,99999,99999,99999,99999,99999,99999,99999,99999,99999,99999,99999
16:59:19,1510817820,2017-11-16T07:37:06,0.717,763.6,6.32,3.66,7.78,827.240,2039.930,103.633331,39.00,2.5411,363,23375,1.82115,3.94,46367,,,,,,,,,,,,,,,,,,99999,99999,99999,99999,99999,99999,99999,99999,99999,99999,99999,99999
16:59:49,1510817850,2017-11-16T07:37:36,0.720,764.0,6.31,3.67,7.74,827.350,2039.870,103.316666,38.87,2.5411,363,23378,1.82908,3.94,46363,,,,,,,,,,,,,,,,,,99999,99999,99999,99999,99999,99999,99999,99999,99999,99999,99999,99999
17:00:19,1510817880,2017-11-16T07:38:06,0.718,764.4,6.30,3.65,7.74,827.320,2039.870,103.650002,39.09,2.5412,363,23374,1.82438,3.94,46358,,,,,,,,,,,,,,,,,,99999,99999,99999,99999,99999,99999,99999,99999,99999,99999,99999,99999
17:00:49,1510817910,2017-11-16T07:38:36,0.717,764.7,6.29,3.65,7.73,827.280,2039.820,104.949997,39.08,2.5412,363,23375,1.82203,3.94,46354,,,,,,,,,,,,,,,,,,99999,99999,99999,99999,99999,99999,99999,99999,99999,99999,99999,99999
17:01:19,1510817940,2017-11-16T07:39:06,0.716,765.1,6.27,3.64,7.68,827.310,2039.760,102.949997,39.32,2.5413,363,23374,1.82056,3.94,46350,,,,,,,,,,,,,,,,,,99999,99999,99999,99999,99999,99999,99999,99999,99999,99999,99999,99999
17:01:49,1510817970,2017-11-16T07:39:36,0.717,765.4,6.24,3.62,7.66,827.290,2039.700,103.800003,39.25,2.5415,363,23373,1.82174,3.94,46345,,,,,,,,,,,,,,,,,,99999,99999,99999,99999,99999,99999,99999,99999,99999,99999,99999,99999
17:02:19,1510818000,2017-11-16T07:40:06,0.716,765.8,6.24,3.62,7.68,827.210,2039.700,104.616669,38.95,2.5415,363,23374,1.81998,3.94,46341,,,,,,,,,,,,,,,,,,99999,99999,99999,99999,99999,99999,99999,99999,99999,99999,99999,99999
17:02:49,1510818030,2017-11-16T07:40:36,0.711,766.1,6.22,3.59,7.65,827.160,2039.590,103.133331,38.99,2.5416,363,23375,1.80740,3.94,46336,,,,,,,,,,,,,,,,,,99999,99999,99999,99999,99999,99999,99999,99999,99999,99999,99999,99999
17:03:19,1510818060,2017-11-16T07:41:06,0.712,766.5,6.22,3.57,7.66,827.130,2039.590,104.099998,39.57,2.5415,363,23375,1.80856,3.94,46332,,,,,,,,,,,,,,,,,,99999,99999,99999,99999,99999,99999,99999,99999,99999,99999,99999,99999
17:03:49,1510818090,2017-11-16T07:41:36,0.713,766.9,6.21,3.55,7.65,827.090,2039.530,103.683334,39.64,2.5416,363,23373,1.81207,3.94,46327,,,,,,,,,,,,,,,,,,99999,99999,99999,99999,99999,99999,99999,99999,99999,99999,99999,99999
17:04:19,1510818120,2017-11-16T07:42:06,0.713,767.2,6.20,3.59,7.64,827.140,2039.490,103.483330,39.79,2.5416,363,23373,1.81178,3.94,46323,,,,,,,,,,,,,,,,,,99999,99999,99999,99999,99999,99999,99999,99999,99999,99999,99999,99999
17:04:49,1510818150,2017-11-16T07:42:36,0.712,767.6,6.18,3.57,7.64,827.120,2039.430,104.199997,39.74,2.5417,363,23372,1.81032,3.94,46319,,,,,,,,,,,,,,,,,,99999,99999,99999,99999,99999,99999,99999,99999,99999,99999,99999,99999
17:05:19,1510818180,2017-11-16T07:43:06,0.712,767.9,6.17,3.55,7.64,827.120,2039.430,103.616669,39.65,2.5418,363,23373,1.81003,3.94,46314,,,,,,,,,,,,,,,,,,99999,99999,99999,99999,99999,99999,99999,99999,99999,99999,99999,99999
17:05:49,1510818210,2017-11-16T07:43:36,0.717,768.3,6.14,3.55,7.59,827.160,2039.320,103.583336,39.78,2.5419,363,23375,1.82232,3.94,46310,,,,,,,,,,,,,,,,,,99999,99999,99999,99999,99999,99999,99999,99999,99999,99999,99999,99999
17:06:19,1510818240,2017-11-16T07:44:06,0.709,768.6,6.12,3.54,7.60,827.190,2039.260,102.366669,39.61,2.5421,363,23373,1.80302,3.94,46305,,,,,,,,,,,,,,,,,,99999,99999,99999,99999,99999,99999,99999,99999,99999,99999,99999,99999
17:06:49,1510818270,2017-11-16T07:44:36,0.713,769.0,6.11,3.53,7.55,827.160,2039.260,102.699997,39.32,2.5422,363,23373,1.81178,3.94,46301,,,,,,,,,,,,,,,,,,99999,99999,99999,99999,99999,99999,99999,99999,99999,99999,99999,99999
17:07:19,1510818300,2017-11-16T07:45:06,0.717,769.4,6.10,3.54,7.59,827.270,2039.150,102.699997,39.47,2.5421,363,23371,1.82232,3.94,46297,,,,,,,,,,,,,,,,,,99999,99999,99999,99999,99999,99999,99999,99999,99999,99999,99999,99999
17:07:49,1510818330,2017-11-16T07:45:36,0.717,769.7,6.09,3.49,7.57,827.300,2039.090,102.933334,39.54,2.5421,363,23372,1.82320,3.94,46292,,,,,,,,,,,,,,,,,,99999,99999,99999,99999,99999,99999,99999,99999,99999,99999,99999,99999
17:08:19,1510818360,2017-11-16T07:46:06,0.708,770.1,6.08,3.51,7.49,827.250,2039.090,102.533333,39.52,2.5422,363,23371,1.80098,3.94,46288,,,,,,,,,,,,,,,,,,99999,99999,99999,99999,99999,99999,99999,99999,99999,99999,99999,99999
17:08:49,1510818390,2017-11-16T07:46:36,0.716,770.4,6.08,3.49,7.53,827.250,2039.090,103.183334,40.18,2.5422,363,23368,1.82144,3.94,46283,,,,,,,,,,,,,,,,,,99999,99999,99999,99999,99999,99999,99999,99999,99999,99999,99999,99999
17:09:19,1510818420,2017-11-16T07:47:06,0.715,770.8,6.06,3.52,7.52,827.090,2039.030,102.933334,40.06,2.5423,363,23370,1.81734,3.94,46279,,,,,,,,,,,,,,,,,,99999,99999,99999,99999,99999,99999,99999,99999,99999,99999,99999,99999
17:09:49,1510818450,2017-11-16T07:47:36,0.713,771.1,6.05,3.47,7.52,827.100,2038.990,104.366669,39.87,2.5424,363,23369,1.81295,3.94,46274,,,,,,,,,,,,,,,,,,99999,99999,99999,99999,99999,99999,99999,99999,99999,99999,99999,99999
17:10:19,1510818480,2017-11-16T07:48:06,0.716,771.5,6.04,3.47,7.51,827.100,2038.990,102.616669,40.07,2.5424,363,23369,1.82115,3.94,46270,,,,,,,,,,,,,,,,,,99999,99999,99999,99999,99999,99999,99999,99999,99999,99999,99999,99999
17:10:49,1510818510,2017-11-16T07:48:36,0.713,771.8,6.04,3.46,7.51,827.100,2038.990,102.349998,39.88,2.5424,363,23370,1.81295,3.94,46266,,,,,,,,,,,,,,,,,,99999,99999,99999,99999,99999,99999,99999,99999,99999,99999,99999,99999
17:11:19,1510818540,2017-11-16T07:49:06,0.712,772.2,6.04,3.49,7.49,827.180,2038.990,101.266670,40.14,2.5424,363,23371,1.80944,3.94,46261,,,,,,,,,,,,,,,,,,99999,99999,99999,99999,99999,99999,99999,99999,99999,99999,99999,99999
17:11:49,1510818570,2017-11-16T07:49:36,0.713,772.6,6.04,3.46,7.51,827.150,2038.990,102.599998,39.99,2.5424,363,23371,1.81295,3.94,46257,,,,,,,,,,,,,,,,,,99999,99999,99999,99999,99999,99999,99999,99999,99999,99999,99999,99999
17:12:19,1510818600,2017-11-16T07:50:06,0.716,772.9,6.03,3.46,7.51,827.290,2038.930,103.716667,39.64,2.5425,363,23369,1.82086,3.94,46252,,,,,,,,,,,,,,,,,,99999,99999,99999,99999,99999,99999,99999,99999,99999,99999,99999,99999
17:12:49,1510818630,2017-11-16T07:50:36,0.712,773.3,6.04,3.48,7.51,827.260,2038.990,101.783333,39.96,2.5424,363,23369,1.81120,3.94,46248,,,,,,,,,,,,,,,,,,99999,99999,99999,99999,99999,99999,99999,99999,99999,99999,99999,99999
17:13:19,1510818660,2017-11-16T07:51:06,0.715,773.6,6.05,3.46,7.47,827.260,2038.990,103.983330,39.97,2.5424,363,23371,1.81822,3.94,46244,,,,,,,,,,,,,,,,,,99999,99999,99999,99999,99999,99999,99999,99999,99999,99999,99999,99999
17:13:49,1510818690,2017-11-16T07:51:36,0.708,774.0,6.05,3.48,7.49,827.230,2038.990,102.733330,39.90,2.5424,363,23371,1.79953,3.94,46239,,,,,,,,,,,,,,,,,,99999,99999,99999,99999,99999,99999,99999,99999,99999,99999,99999,99999
17:14:19,1510818720,2017-11-16T07:52:06,0.711,774.3,6.05,3.47,7.51,827.260,2038.990,102.283333,39.78,2.5424,363,23370,1.80828,3.94,46235,,,,,,,,,,,,,,,,,,99999,99999,99999,99999,99999,99999,99999,99999,99999,99999,99999,99999
17:14:49,1510818750,2017-11-16T07:52:36,0.710,774.7,6.05,3.47,7.49,827.200,2038.990,102.750000,39.75,2.5424,363,23369,1.80477,3.94,46230,,,,,,,,,,,,,,,,,,99999,99999,99999,99999,99999,99999,99999,99999,99999,99999,99999,99999
17:15:19,1510818780,2017-11-16T07:53:06,0.712,775.1,6.06,3.49,7.51,827.170,2039.030,103.166664,40.01,2.5423,363,23371,1.80974,3.94,46226,,,,,,,,,,,,,,,,,,99999,99999,99999,99999,99999,99999,99999,99999,99999,99999,99999,99999
17:15:49,1510818810,2017-11-16T07:53:36,0.712,775.4,6.07,3.48,7.51,827.120,2039.030,103.650002,39.94,2.5422,363,23372,1.81120,3.94,46222,,,,,,,,,,,,,,,,,,99999,99999,99999,99999,99999,99999,99999,99999,99999,99999,99999,99999
17:16:19,1510818840,2017-11-16T07:54:06,0.712,775.8,6.07,3.53,7.55,827.120,2039.030,103.783333,39.91,2.5422,363,23370,1.81032,3.94,46217,,,,,,,,,,,,,,,,,,99999,99999,99999,99999,99999,99999,99999,99999,99999,99999,99999,99999
17:16:49,1510818870,2017-11-16T07:54:36,0.716,776.1,6.09,3.51,7.52,827.120,2039.090,104.383331,40.33,2.5421,363,23372,1.82115,3.94,46213,,,,,,,,,,,,,,,,,,99999,99999,99999,99999,99999,99999,99999,99999,99999,99999,99999,99999
17:17:19,1510818900,2017-11-16T07:55:06,0.710,776.5,6.09,3.49,7.51,827.090,2039.090,102.566666,40.07,2.5421,363,23369,1.80536,3.94,46208,,,,,,,,,,,,,,,,,,99999,99999,99999,99999,99999,99999,99999,99999,99999,99999,99999,99999
17:17:49,1510818930,2017-11-16T07:55:36,0.715,776.8,6.08,3.51,7.52,827.040,2039.090,104.133331,40.27,2.5422,363,23370,1.81851,3.94,46204,,,,,,,,,,,,,,,,,,99999,99999,99999,99999,99999,99999,99999,99999,99999,99999,99999,99999
17:18:19,1510818960,2017-11-16T07:56:06,0.714,777.2,6.08,3.55,7.55,827.070,2039.090,103.800003,40.01,2.5422,363,23374,1.81529,3.94,46199,,,,,,,,,,,,,,,,,,99999,99999,99999,99999,99999,99999,99999,99999,99999,99999,99999,99999
17:18:49,1510818990,2017-11-16T07:56:36,0.716,777.5,6.07,3.49,7.53,827.100,2039.030,102.783333,39.97,2.5422,363,23371,1.82027,3.94,46195,,,,,,,,,,,,,,,,,,99999,99999,99999,99999,99999,99999,99999,99999,99999,99999,99999,99999
17:19:19,1510819020,2017-11-16T07:57:06,0.716,777.9,6.07,3.51,7.49,827.070,2039.030,103.416664,40.07,2.5422,363,23371,1.82144,3.94,46191,,,,,,,,,,,,,,,,,,99999,99999,99999,99999,99999,99999,99999,99999,99999,99999,99999,99999
17:19:49,1510819050,2017-11-16T07:57:36,0.716,778.3,6.07,3.46,7.52,827.150,2039.030,104.183334,39.73,2.5422,363,23370,1.81910,3.94,46186,,,,,,,,,,,,,,,,,,99999,99999,99999,99999,99999,99999,99999,99999,99999,99999,99999,99999
17:20:19,1510819080,2017-11-16T07:58:06,0.714,778.6,6.06,3.49,7.53,827.200,2039.030,102.416664,40.11,2.5423,363,23372,1.81529,3.94,46182,,,,,,,,,,,,,,,,,,99999,99999,99999,99999,99999,99999,99999,99999,99999,99999,99999,99999
17:20:49,1510819110,2017-11-16T07:58:36,0.712,779.0,6.06,3.48,7.49,827.330,2039.030,102.500000,40.04,2.5423,363,23372,1.80886,3.94,46177,,,,,,,,,,,,,,,,,,99999,99999,99999,99999,99999,99999,99999,99999,99999,99999,99999,99999
17:21:19,1510819140,2017-11-16T07:59:06,0.716,779.3,6.06,3.44,7.53,827.300,2039.030,104.383331,39.96,2.5423,363,23372,1.81998,3.94,46173,,,,,,,,,,,,,,,,,,99999,99999,99999,99999,99999,99999,99999,99999,99999,99999,99999,99999
17:21:49,1510819170,2017-11-16T07:59:36,0.715,779.7,6.05,3.50,7.51,827.260,2038.990,104.166664,39.91,2.5424,363,23370,1.81793,3.94,46169,,,,,,,,,,,,,,,,,,99999,99999,99999,99999,99999,99999,99999,99999,99999,99999,99999,99999
17:22:19,1510819200,2017-11-16T08:00:06,0.712,780.0,6.06,3.48,7.45,827.300,2039.030,102.683334,40.00,2.5423,363,23371,1.80944,3.94,46164,,,,,,,,,,,,,,,,,,99999,99999,99999,99999,99999,99999,99999,99999,99999,99999,99999,99999
17:22:49,1510819230,2017-11-16T08:00:36,0.717,780.4,6.05,3.48,7.51,827.310,2038.990,103.550003,40.30,2.5423,363,23372,1.82174,3.94,46160,,,,,,,,,,,,,,,,,,99999,99999,99999,99999,99999,99999,99999,99999,99999,99999,99999,99999
17:23:19,1510819260,2017-11-16T08:01:06,0.716,780.8,6.05,3.50,7.52,827.260,2038.990,103.283333,39.69,2.5424,363,23371,1.82056,3.94,46155,,,,,,,,,,,,,,,,,,99999,99999,99999,99999,99999,99999,99999,99999,99999,99999,99999,99999
17:23:49,1510819290,2017-11-16T08:01:36,0.712,781.1,6.05,3.49,7.49,827.230,2038.990,102.933334,39.90,2.5424,363,23372,1.81032,3.94,46151,,,,,,,,,,,,,,,,,,99999,99999,99999,99999,99999,99999,99999,99999,99999,99999,99999,99999
17:24:19,1510819320,2017-11-16T08:02:06,0.715,781.5,6.05,3.50,7.52,827.180,2038.990,102.616669,39.97,2.5424,363,23371,1.81822,3.94,46146,,,,,,,,,,,,,,,,,,99999,99999,99999,99999,99999,99999,99999,99999,99999,99999,99999,99999
17:24:49,1510819350,2017-11-16T08:02:36,0.714,781.8,6.05,3.52,7.49,827.120,2038.990,104.599998,39.87,2.5424,363,23372,1.81470,3.94,46142,,,,,,,,,,,,,,,,,,99999,99999,99999,99999,99999,99999,99999,99999,99999,99999,99999,99999
17:25:19,1510819380,2017-11-16T08:03:06,0.710,782.2,6.03,3.48,7.47,827.160,2038.930,102.083336,39.87,2.5425,363,23370,1.80477,3.94,46138,,,,,,,,,,,,,,,,,,99999,99999,99999,99999,99999,99999,99999,99999,99999,99999,99999,99999
17:25:49,1510819410,2017-11-16T08:03:36,0.710,782.5,6.04,3.45,7.51,827.150,2038.990,103.316666,40.10,2.5424,363,23370,1.80419,3.94,46133,,,,,,,,,,,,,,,,,,99999,99999,99999,99999,99999,99999,99999,99999,99999,99999,99999,99999
17:26:19,1510819440,2017-11-16T08:04:06,0.712,782.9,6.01,3.42,7.47,827.140,2038.870,102.883331,39.96,2.5426,363,23369,1.80944,3.94,46129,,,,,,,,,,,,,,,,,,99999,99999,99999,99999,99999,99999,99999,99999,99999,99999,99999,99999
17:26:49,1510819470,2017-11-16T08:04:36,0.711,783.3,6.01,3.45,7.47,827.160,2038.870,102.900002,40.06,2.5426,363,23369,1.80828,3.94,46124,,,,,,,,,,,,,,,,,,99999,99999,99999,99999,99999,99999,99999,99999,99999,99999,99999,99999
17:27:19,1510819500,2017-11-16T08:05:06,0.715,783.6,6.00,3.42,7.47,827.190,2038.870,103.883331,40.13,2.5427,363,23369,1.81881,3.94,46120,,,,,,,,,,,,,,,,,,99999,99999,99999,99999,99999,99999,99999,99999,99999,99999,99999,99999
17:27:49,1510819530,2017-11-16T08:05:36,0.716,784.0,6.00,3.41,7.44,827.290,2038.870,102.849998,40.11,2.5427,363,23370,1.81998,3.94,46116,,,,,,,,,,,,,,,,,,99999,99999,99999,99999,99999,99999,99999,99999,99999,99999,99999,99999
17:28:19,1510819560,2017-11-16T08:06:06,0.716,784.3,5.98,3.46,7.47,827.280,2038.700,103.633331,40.04,2.5426,363,23370,1.81939,3.93,46111,,,,,,,,,,,,,,,,,,99999,99999,99999,99999,99999,99999,99999,99999,99999,99999,99999,99999
17:28:49,1510819590,2017-11-16T08:06:36,0.716,784.7,5.97,3.46,7.44,827.280,2038.700,103.383331,40.03,2.5427,363,23371,1.81939,3.93,46107,,,,,,,,,,,,,,,,,,99999,99999,99999,99999,99999,99999,99999,99999,99999,99999,99999,99999
17:29:19,1510819620,2017-11-16T08:07:06,0.711,785.0,5.96,3.44,7.41,827.310,2038.650,103.116669,40.02,2.5428,363,23369,1.80681,3.93,46102,,,,,,,,,,,,,,,,,,99999,99999,99999,99999,99999,99999,99999,99999,99999,99999,99999,99999
17:29:49,1510819650,2017-11-16T08:07:36,0.714,785.4,5.97,3.39,7.43,827.280,2038.700,102.900002,40.12,2.5427,363,23368,1.81676,3.93,46098,,,,,,,,,,,,,,,,,,99999,99999,99999,99999,99999,99999,99999,99999,99999,99999,99999,99999
17:30:19,1510819680,2017-11-16T08:08:06,0.709,785.7,5.96,3.45,7.39,827.410,2038.650,102.166664,40.38,2.5427,363,23367,1.80361,3.93,46094,,,,,,,,,,,,,,,,,,99999,99999,99999,99999,99999,99999,99999,99999,99999,99999,99999,99999
17:30:49,1510819710,2017-11-16T08:08:36,0.708,786.1,5.95,3.42,7.39,827.360,2038.650,101.849998,40.49,2.5428,363,23370,1.80157,3.93,46089,,,,,,,,,,,,,,,,,,99999,99999,99999,99999,99999,99999,99999,99999,99999,99999,99999,99999
17:31:19,1510819740,2017-11-16T08:09:06,0.712,786.5,5.95,3.41,7.43,827.230,2038.650,104.016670,40.50,2.5428,363,23369,1.81149,3.93,46085,,,,,,,,,,,,,,,,,,99999,99999,99999,99999,99999,99999,99999,99999,99999,99999,99999,99999
17:31:49,1510819770,2017-11-16T08:09:36,0.714,786.8,5.95,3.38,7.39,827.410,2038.650,103.366669,40.30,2.5428,363,23368,1.81646,3.93,46080,,,,,,,,,,,,,,,,,,99999,99999,99999,99999,99999,99999,99999,99999,99999,99999,99999,99999
17:32:19,1510819800,2017-11-16T08:10:06,0.712,787.2,5.94,3.40,7.41,827.280,2038.590,103.099998,40.34,2.5428,363,23367,1.81003,3.93,46076,,,,,,,,,,,,,,,,,,99999,99999,99999,99999,99999,99999,99999,99999,99999,99999,99999,99999
17:32:49,1510819830,2017-11-16T08:10:36,0.715,787.5,5.92,3.39,7.38,827.180,2038.530,103.816666,40.19,2.5430,363,23368,1.81851,3.93,46072,,,,,,,,,,,,,,,,,,99999,99999,99999,99999,99999,99999,99999,99999,99999,99999,99999,99999
17:33:19,1510819860,2017-11-16T08:11:06,0.714,787.9,5.92,3.37,7.36,827.210,2038.530,103.699997,40.18,2.5430,363,23369,1.81676,3.93,46067,,,,,,,,,,,,,,,,,,99999,99999,99999,99999,99999,99999,99999,99999,99999,99999,99999,99999
17:33:49,1510819890,2017-11-16T08:11:36,0.713,788.2,5.91,3.34,7.36,827.130,2038.530,103.849998,40.09,2.5431,363,23368,1.81354,3.93,46063,,,,,,,,,,,,,,,,,,99999,99999,99999,99999,99999,99999,99999,99999,99999,99999,99999,99999
17:34:19,1510819920,2017-11-16T08:12:06,0.707,788.6,5.90,3.39,7.36,827.110,2038.490,101.366669,40.22,2.5431,363,23367,1.79720,3.93,46058,,,,,,,,,,,,,,,,,,99999,99999,99999,99999,99999,99999,99999,99999,99999,99999,99999,99999
17:34:49,1510819950,2017-11-16T08:12:36,0.714,788.9,5.89,3.34,7.34,827.210,2038.490,103.150002,40.30,2.5432,363,23367,1.81676,3.93,46054,,,,,,,,,,,,,,,,,,99999,99999,99999,99999,99999,99999,99999,99999,99999,99999,99999,99999
17:35:19,1510819980,2017-11-16T08:13:06,0.710,789.3,5.89,3.32,7.36,827.240,2038.490,102.816666,40.19,2.5432,363,23365,1.80652,3.93,46049,,,,,,,,,,,,,,,,,,99999,99999,99999,99999,99999,99999,99999,99999,99999,99999,99999,99999
17:35:49,1510820010,2017-11-16T08:13:36,0.711,789.7,5.87,3.35,7.30,827.250,2038.380,101.483330,40.72,2.5432,363,23365,1.80944,3.93,46045,,,,,,,,,,,,,,,,,,99999,99999,99999,99999,99999,99999,99999,99999,99999,99999,99999,99999
17:36:19,1510820040,2017-11-16T08:14:06,0.712,790.0,5.87,3.34,7.34,827.220,2038.380,102.666664,41.00,2.5432,363,23366,1.81003,3.93,46041,,,,,,,,,,,,,,,,,,99999,99999,99999,99999,99999,99999,99999,99999,99999,99999,99999,99999
17:36:49,1510820070,2017-11-16T08:14:36,0.707,790.4,5.84,3.31,7.31,827.120,2038.260,102.066666,40.83,2.5433,363,23364,1.79807,3.93,46036,,,,,,,,,,,,,,,,,,99999,99999,99999,99999,99999,99999,99999,99999,99999,99999,99999,99999
17:37:19,1510820100,2017-11-16T08:15:06,0.707,790.7,5.84,3.29,7.31,827.150,2038.260,102.783333,40.75,2.5433,363,23367,1.79894,3.93,46032,,,,,,,,,,,,,,,,,,99999,99999,99999,99999,99999,99999,99999,99999,99999,99999,99999,99999
17:37:49,1510820130,2017-11-16T08:15:36,0.710,791.1,5.84,3.30,7.28,827.200,2038.260,102.683334,40.93,2.5433,363,23365,1.80594,3.93,46027,,,,,,,,,,,,,,,,,,99999,99999,99999,99999,99999,99999,99999,99999,99999,99999,99999,99999
17:38:19,1510820160,2017-11-16T08:16:06,0.711,791.4,5.83,3.30,7.28,827.210,2038.220,103.533333,40.62,2.5434,363,23366,1.80886,3.93,46023,,,,,,,,,,,,,,,,,,99999,99999,99999,99999,99999,99999,99999,99999,99999,99999,99999,99999
17:38:49,1510820190,2017-11-16T08:16:36,0.713,791.8,5.83,3.29,7.26,827.260,2038.220,104.066666,40.57,2.5434,363,23363,1.81236,3.93,46019,,,,,,,,,,,,,,,,,,99999,99999,99999,99999,99999,99999,99999,99999,99999,99999,99999,99999
17:39:19,1510820220,2017-11-16T08:17:06,0.713,792.1,5.82,3.28,7.30,827.260,2038.220,103.016670,40.66,2.5435,363,23364,1.81354,3.93,46014,,,,,,,,,,,,,,,,,,99999,99999,99999,99999,99999,99999,99999,99999,99999,99999,99999,99999
17:39:49,1510820250,2017-11-16T08:17:36,0.713,792.5,5.81,3.26,7.24,827.260,2038.150,103.116669,40.59,2.5435,363,23367,1.81383,3.93,46010,,,,,,,,,,,,,,,,,,99999,99999,99999,99999,99999,99999,99999,99999,99999,99999,99999,99999
17:40:19,1510820280,2017-11-16T08:18:06,0.712,792.9,5.81,3.28,7.30,827.370,2038.150,102.349998,40.71,2.5435,363,23362,1.81207,3.93,46005,,,,,,,,,,,,,,,,,,99999,99999,99999,99999,99999,99999,99999,99999,99999,99999,99999,99999
17:40:49,1510820310,2017-11-16T08:18:36,0.713,793.2,5.79,3.27,7.23,827.270,2038.090,102.716667,40.67,2.5436,363,23363,1.81441,3.93,46001,,,,,,,,,,,,,,,,,,99999,99999,99999,99999,99999,99999,99999,99999,99999,99999,99999,99999
17:41:19,1510820340,2017-11-16T08:19:06,0.709,793.6,5.78,3.24,7.26,827.290,2038.090,101.666664,40.56,2.5437,363,23360,1.80302,3.93,45997,,,,,,,,,,,,,,,,,,99999,99999,99999,99999,99999,99999,99999,99999,99999,99999,99999,99999
17:41:49,1510820370,2017-11-16T08:19:36,0.707,793.9,5.80,3.27,7.23,827.370,2038.150,102.166664,40.67,2.5436,363,23363,1.79953,3.93,45992,,,,,,,,,,,,,,,,,,99999,99999,99999,99999,99999,99999,99999,99999,99999,99999,99999,99999
17:42:19,1510820400,2017-11-16T08:20:06,0.709,794.3,5.80,3.28,7.24,827.210,2038.150,101.900002,40.57,2.5436,363,23363,1.80273,3.93,45988,,,,,,,,,,,,,,,,,,99999,99999,99999,99999,99999,99999,99999,99999,99999,99999,99999,99999
17:42:49,1510820430,2017-11-16T08:20:36,0.713,794.6,5.81,3.30,7.24,827.210,2038.150,103.933334,40.99,2.5435,363,23364,1.81470,3.93,45983,,,,,,,,,,,,,,,,,,99999,99999,99999,99999,99999,99999,99999,99999,99999,99999,99999,99999
17:43:19,1510820460,2017-11-16T08:21:06,0.714,795.0,5.77,3.24,7.26,827.190,2038.050,104.099998,40.64,2.5437,363,23363,1.81558,3.93,45979,,,,,,,,,,,,,,,,,,99999,99999,99999,99999,99999,99999,99999,99999,99999,99999,99999,99999
17:43:49,1510820490,2017-11-16T08:21:36,0.713,795.3,5.78,3.28,7.22,827.160,2038.090,103.250000,40.51,2.5437,363,23362,1.81266,3.93,45974,,,,,,,,,,,,,,,,,,99999,99999,99999,99999,99999,99999,99999,99999,99999,99999,99999,99999
17:44:19,1510820520,2017-11-16T08:22:06,0.715,795.7,5.77,3.24,7.23,827.170,2038.050,102.566666,40.74,2.5437,363,23362,1.81881,3.93,45970,,,,,,,,,,,,,,,,,,99999,99999,99999,99999,99999,99999,99999,99999,99999,99999,99999,99999
17:44:49,1510820550,2017-11-16T08:22:36,0.711,796.1,5.76,3.25,7.23,827.090,2037.990,102.150002,40.18,2.5438,363,23361,1.80856,3.93,45966,,,,,,,,,,,,,,,,,,99999,99999,99999,99999,99999,99999,99999,99999,99999,99999,99999,99999
17:45:19,1510820580,2017-11-16T08:23:06,0.714,796.4,5.75,3.23,7.22,827.120,2037.990,102.650002,40.23,2.5439,363,23361,1.81676,3.93,45961,,,,,,,,,,,,,,,,,,99999,99999,99999,99999,99999,99999,99999,99999,99999,99999,99999,99999
17:45:49,1510820610,2017-11-16T08:23:36,0.715,796.8,5.74,3.20,7.23,827.230,2037.930,102.666664,40.29,2.5439,363,23361,1.81968,3.93,45957,,,,,,,,,,,,,,,,,,99999,99999,99999,99999,99999,99999,99999,99999,99999,99999,99999,99999
17:46:19,1510820640,2017-11-16T08:24:06,0.713,797.1,5.74,3.20,7.20,827.230,2037.930,102.483330,40.27,2.5439,363,23360,1.81441,3.93,45952,,,,,,,,,,,,,,,,,,99999,99999,99999,99999,99999,99999,99999,99999,99999,99999,99999,99999
17:46:49,1510820670,2017-11-16T08:24:36,0.711,797.5,5.73,3.22,7.20,827.280,2037.930,101.349998,40.34,2.5440,363,23361,1.80798,3.93,45948,,,,,,,,,,,,,,,,,,99999,99999,99999,99999,99999,99999,99999,99999,99999,99999,99999,99999
17:47:19,1510820700,2017-11-16T08:25:06,0.706,797.8,5.72,3.18,7.20,827.230,2037.820,101.816666,40.70,2.5439,363,23362,1.79516,3.93,45944,,,,,,,,,,,,,,,,,,99999,99999,99999,99999,99999,99999,99999,99999,99999,99999,99999,99999
17:47:49,1510820730,2017-11-16T08:25:36,0.707,798.2,5.72,3.15,7.20,827.230,2037.820,100.933334,41.05,2.5439,363,23361,1.79749,3.93,45939,,,,,,,,,,,,,,,,,,99999,99999,99999,99999,99999,99999,99999,99999,99999,99999,99999,99999
17:48:19,1510820760,2017-11-16T08:26:06,0.707,798.5,5.70,3.18,7.18,827.160,2037.760,102.716667,40.84,2.5440,363,23359,1.79924,3.93,45935,,,,,,,,,,,,,,,,,,99999,99999,99999,99999,99999,99999,99999,99999,99999,99999,99999,99999
17:48:49,1510820790,2017-11-16T08:26:36,0.713,798.9,5.70,3.13,7.20,827.060,2037.760,103.483330,40.78,2.5440,363,23363,1.81470,3.93,45930,,,,,,,,,,,,,,,,,,99999,99999,99999,99999,99999,99999,99999,99999,99999,99999,99999,99999
17:49:19,1510820820,2017-11-16T08:27:06,0.706,799.3,5.70,3.16,7.18,827.030,2037.760,102.216667,40.88,2.5440,363,23359,1.79720,3.93,45926,,,,,,,,,,,,,,,,,,99999,99999,99999,99999,99999,99999,99999,99999,99999,99999,99999,99999
17:49:49,1510820850,2017-11-16T08:27:36,0.713,799.6,5.71,3.19,7.16,827.050,2037.820,102.833336,41.06,2.5440,363,23360,1.81266,3.93,45922,,,,,,,,,,,,,,,,,,99999,99999,99999,99999,99999,99999,99999,99999,99999,99999,99999,99999
17:50:19,1510820880,2017-11-16T08:28:06,0.711,800.0,5.69,3.14,7.16,827.110,2037.760,102.099998,40.77,2.5441,363,23360,1.80828,3.93,45917,,,,,,,,,,,,,,,,,,99999,99999,99999,99999,99999,99999,99999,99999,99999,99999,99999,99999
17:50:49,1510820910,2017-11-16T08:28:36,0.705,800.3,5.68,3.15,7.18,827.080,2037.720,101.566666,40.86,2.5441,363,23358,1.79487,3.93,45913,,,,,,,,,,,,,,,,,,99999,99999,99999,99999,99999,99999,99999,99999,99999,99999,99999,99999
17:51:19,1510820940,2017-11-16T08:29:06,0.714,800.7,5.67,3.15,7.14,827.170,2037.720,102.716667,40.93,2.5442,363,23358,1.81587,3.93,45908,,,,,,,,,,,,,,,,,,99999,99999,99999,99999,99999,99999,99999,99999,99999,99999,99999,99999
17:51:49,1510820970,2017-11-16T08:29:35,0.714,801.0,5.67,3.16,7.14,827.250,2037.720,102.516670,40.99,2.5442,363,23361,1.81617,3.93,45904,,,,,,,,,,,,,,,,,,99999,99999,99999,99999,99999,99999,99999,99999,99999,99999,99999,99999
17:52:19,1510821000,2017-11-16T08:30:05,0.711,801.4,5.66,3.13,7.10,827.300,2037.650,101.099998,41.11,2.5442,363,23358,1.80798,3.93,45900,,,,,,,,,,,,,,,,,,99999,99999,99999,99999,99999,99999,99999,99999,99999,99999,99999,99999
17:52:49,1510821030,2017-11-16T08:30:35,0.708,801.7,5.65,3.09,7.12,827.330,2037.590,102.366669,41.11,2.5442,363,23360,1.80244,3.93,45895,,,,,,,,,,,,,,,,,,99999,99999,99999,99999,99999,99999,99999,99999,99999,99999,99999,99999
17:53:19,1510821060,2017-11-16T08:31:05,0.709,802.1,5.65,3.12,7.14,827.300,2037.590,102.016670,41.03,2.5443,363,23360,1.80477,3.93,45891,,,,,,,,,,,,,,,,,,99999,99999,99999,99999,99999,99999,99999,99999,99999,99999,99999,99999
17:53:49,1510821090,2017-11-16T08:31:35,0.712,802.4,5.64,3.06,7.07,827.270,2037.590,103.233330,40.97,2.5443,363,23359,1.81032,3.93,45886,,,,,,,,,,,,,,,,,,99999,99999,99999,99999,99999,99999,99999,99999,99999,99999,99999,99999
17:54:19,1510821120,2017-11-16T08:32:05,0.712,802.8,5.63,3.11,7.10,827.120,2037.550,103.116669,41.34,2.5444,363,23361,1.81178,3.93,45882,,,,,,,,,,,,,,,,,,99999,99999,99999,99999,99999,99999,99999,99999,99999,99999,99999,99999
17:54:49,1510821150,2017-11-16T08:32:35,0.712,803.2,5.62,3.11,7.05,827.170,2037.550,102.766670,41.23,2.5445,363,23359,1.81149,3.93,45877,,,,,,,,,,,,,,,,,,99999,99999,99999,99999,99999,99999,99999,99999,99999,99999,99999,99999
17:55:19,1510821180,2017-11-16T08:33:05,0.707,803.5,5.61,3.11,7.10,827.150,2037.490,100.883331,41.29,2.5445,363,23358,1.79865,3.93,45873,,,,,,,,,,,,,,,,,,99999,99999,99999,99999,99999,99999,99999,99999,99999,99999,99999,99999
17:55:49,1510821210,2017-11-16T08:33:35,0.710,803.9,5.61,3.10,7.10,827.150,2037.490,101.983330,41.54,2.5445,363,23358,1.80565,3.93,45869,,,,,,,,,,,,,,,,,,99999,99999,99999,99999,99999,99999,99999,99999,99999,99999,99999,99999
17:56:19,1510821240,2017-11-16T08:34:05,0.712,804.2,5.61,3.08,7.09,827.230,2037.490,103.133331,41.50,2.5445,363,23359,1.81236,3.93,45864,,,,,,,,,,,,,,,,,,99999,99999,99999,99999,99999,99999,99999,99999,99999,99999,99999,99999
17:56:49,1510821270,2017-11-16T08:34:35,0.710,804.6,5.59,3.05,7.09,827.130,2037.380,102.216667,41.39,2.5445,363,23358,1.80623,3.93,45860,,,,,,,,,,,,,,,,,,99999,99999,99999,99999,99999,99999,99999,99999,99999,99999,99999,99999
17:57:19,1510821300,2017-11-16T08:35:05,0.709,804.9,5.59,3.06,7.02,827.210,2037.380,101.033333,41.35,2.5445,363,23360,1.80361,3.93,45855,,,,,,,,,,,,,,,,,,99999,99999,99999,99999,99999,99999,99999,99999,99999,99999,99999,99999
17:57:49,1510821330,2017-11-16T08:35:35,0.712,805.3,5.58,3.04,7.07,827.290,2037.380,100.983330,41.37,2.5446,363,23359,1.81149,3.93,45851,,,,,,,,,,,,,,,,,,99999,99999,99999,99999,99999,99999,99999,99999,99999,99999,99999,99999
17:58:19,1510821360,2017-11-16T08:36:05,0.711,805.6,5.56,3.05,7.04,827.250,2037.320,101.349998,41.21,2.5447,363,23360,1.80886,3.93,45847,,,,,,,,,,,,,,,,,,99999,99999,99999,99999,99999,99999,99999,99999,99999,99999,99999,99999
17:58:49,1510821390,2017-11-16T08:36:35,0.706,806.0,5.56,3.02,7.04,827.270,2037.320,100.683334,41.38,2.5447,363,23359,1.79691,3.93,45842,,,,,,,,,,,,,,,,,,99999,99999,99999,99999,99999,99999,99999,99999,99999,99999,99999,99999
17:59:19,1510821420,2017-11-16T08:37:05,0.712,806.3,5.55,3.06,7.02,827.200,2037.280,103.266670,41.52,2.5448,363,23355,1.81090,3.93,45838,,,,,,,,,,,,,,,,,,99999,99999,99999,99999,99999,99999,99999,99999,99999,99999,99999,99999
17:59:49,1510821450,2017-11-16T08:37:35,0.707,806.7,5.54,3.02,6.99,827.220,2037.220,102.099998,41.55,2.5448,363,23356,1.79924,3.93,45833,,,,,,,,,,,,,,,,,,99999,99999,99999,99999,99999,99999,99999,99999,99999,99999,99999,99999
18:00:19,1510821480,2017-11-16T08:38:05,0.712,807.1,5.53,3.02,6.99,827.220,2037.220,102.633331,41.66,2.5449,363,23354,1.81178,3.93,45829,,,,,,,,,,,,,,,,,,99999,99999,99999,99999,99999,99999,99999,99999,99999,99999,99999,99999
18:00:49,1510821510,2017-11-16T08:38:35,0.709,807.4,5.52,3.02,6.99,827.250,2037.150,101.849998,41.72,2.5449,363,23354,1.80331,3.93,45825,,,,,,,,,,,,,,,,,,99999,99999,99999,99999,99999,99999,99999,99999,99999,99999,99999,99999
18:01:19,1510821540,2017-11-16T08:39:05,0.711,807.8,5.51,3.03,7.01,827.230,2037.150,104.483330,41.46,2.5450,363,23353,1.80828,3.93,45820,,,,,,,,,,,,,,,,,,99999,99999,99999,99999,99999,99999,99999,99999,99999,99999,99999,99999
18:01:49,1510821570,2017-11-16T08:39:35,0.705,808.1,5.50,2.98,6.99,827.260,2037.110,101.133331,41.53,2.5450,363,23353,1.79458,3.93,45816,,,,,,,,,,,,,,,,,,99999,99999,99999,99999,99999,99999,99999,99999,99999,99999,99999,99999
18:02:19,1510821600,2017-11-16T08:40:05,0.711,808.5,5.49,2.98,6.97,827.340,2037.110,101.416664,41.45,2.5451,363,23355,1.81061,3.93,45811,,,,,,,,,,,,,,,,,,99999,99999,99999,99999,99999,99999,99999,99999,99999,99999,99999,99999
18:02:49,1510821630,2017-11-16T08:40:35,0.705,808.8,5.49,2.98,6.95,827.310,2037.110,101.050003,41.57,2.5451,363,23354,1.79516,3.93,45807,,,,,,,,,,,,,,,,,,99999,99999,99999,99999,99999,99999,99999,99999,99999,99999,99999,99999
18:03:19,1510821660,2017-11-16T08:41:05,0.707,809.2,5.48,2.99,6.95,827.310,2037.050,101.566666,41.48,2.5451,363,23354,1.79836,3.93,45803,,,,,,,,,,,,,,,,,,99999,99999,99999,99999,99999,99999,99999,99999,99999,99999,99999,99999
18:03:49,1510821690,2017-11-16T08:41:35,0.704,809.5,5.48,3.00,6.95,827.310,2037.050,101.750000,41.75,2.5451,363,23353,1.79110,3.93,45798,,,,,,,,,,,,,,,,,,99999,99999,99999,99999,99999,99999,99999,99999,99999,99999,99999,99999
18:04:19,1510821720,2017-11-16T08:42:05,0.705,809.9,5.48,3.00,6.95,827.310,2037.050,101.900002,41.62,2.5451,363,23353,1.79458,3.93,45794,,,,,,,,,,,,,,,,,,99999,99999,99999,99999,99999,99999,99999,99999,99999,99999,99999,99999
18:04:49,1510821750,2017-11-16T08:42:35,0.713,810.2,5.47,2.96,6.95,827.240,2037.050,103.250000,41.82,2.5452,363,23354,1.81354,3.93,45789,,,,,,,,,,,,,,,,,,99999,99999,99999,99999,99999,99999,99999,99999,99999,99999,99999,99999
18:05:19,1510821780,2017-11-16T08:43:05,0.705,810.6,5.47,2.96,6.94,827.240,2037.050,101.550003,41.57,2.5452,363,23350,1.79342,3.93,45785,,,,,,,,,,,,,,,,,,99999,99999,99999,99999,99999,99999,99999,99999,99999,99999,99999,99999
18:05:49,1510821810,2017-11-16T08:43:35,0.709,811.0,5.46,2.95,6.94,827.160,2036.950,102.050003,41.42,2.5452,363,23354,1.80361,3.93,45781,,,,,,,,,,,,,,,,,,99999,99999,99999,99999,99999,99999,99999,99999,99999,99999,99999,99999
18:06:19,1510821840,2017-11-16T08:44:05,0.711,811.3,5.47,2.95,6.94,827.180,2037.050,103.316666,41.35,2.5452,363,23355,1.81003,3.93,45776,,,,,,,,,,,,,,,,,,99999,99999,99999,99999,99999,99999,99999,99999,99999,99999,99999,99999
18:06:49,1510821870,2017-11-16T08:44:35,0.713,811.7,5.46,2.97,6.94,827.110,2036.950,101.933334,41.31,2.5452,363,23354,1.81500,3.93,45772,,,,,,,,,,,,,,,,,,99999,99999,99999,99999,99999,99999,99999,99999,99999,99999,99999,99999
18:07:19,1510821900,2017-11-16T08:45:05,0.711,812.0,5.46,2.94,6.93,827.080,2036.950,102.883331,41.52,2.5452,363,23354,1.80944,3.93,45767,,,,,,,,,,,,,,,,,,99999,99999,99999,99999,99999,99999,99999,99999,99999,99999,99999,99999
18:07:49,1510821930,2017-11-16T08:45:35,0.712,812.4,5.46,2.96,6.93,827.110,2036.950,102.516670,41.48,2.5452,363,23355,1.81178,3.93,45763,,,,,,,,,,,,,,,,,,99999,99999,99999,99999,99999,99999,99999,99999,99999,99999,99999,99999
18:08:19,1510821960,2017-11-16T08:46:05,0.710,812.7,5.46,2.94,6.91,827.160,2036.950,101.833336,41.44,2.5452,363,23354,1.80681,3.93,45759,,,,,,,,,,,,,,,,,,99999,99999,99999,99999,99999,99999,99999,99999,99999,99999,99999,99999
18:08:49,1510821990,2017-11-16T08:46:35,0.705,813.1,5.46,2.93,6.94,827.160,2036.950,100.833336,41.39,2.5452,363,23355,1.79545,3.93,45754,,,,,,,,,,,,,,,,,,99999,99999,99999,99999,99999,99999,99999,99999,99999,99999,99999,99999
18:09:19,1510822020,2017-11-16T08:47:05,0.713,813.4,5.46,2.96,6.94,827.270,2036.950,102.116669,41.32,2.5452,363,23354,1.81441,3.93,45750,,,,,,,,,,,,,,,,,,99999,99999,99999,99999,99999,99999,99999,99999,99999,99999,99999,99999
18:09:49,1510822050,2017-11-16T08:47:35,0.709,813.8,5.45,2.93,6.95,827.250,2036.950,101.750000,41.47,2.5453,363,23354,1.80565,3.93,45745,,,,,,,,,,,,,,,,,,99999,99999,99999,99999,99999,99999,99999,99999,99999,99999,99999,99999
18:10:19,1510822080,2017-11-16T08:48:05,0.703,814.1,5.45,2.97,6.94,827.270,2036.950,101.433334,41.62,2.5453,363,23356,1.78964,3.93,45741,,,,,,,,,,,,,,,,,,99999,99999,99999,99999,99999,99999,99999,99999,99999,99999,99999,99999
18:10:49,1510822110,2017-11-16T08:48:35,0.711,814.5,5.45,2.93,6.94,827.250,2036.950,103.433334,41.40,2.5453,363,23355,1.80856,3.93,45736,,,,,,,,,,,,,,,,,,99999,99999,99999,99999,99999,99999,99999,99999,99999,99999,99999,99999
18:11:19,1510822140,2017-11-16T08:49:05,0.707,814.9,5.45,2.90,6.94,827.270,2036.950,102.233330,41.65,2.5453,363,23353,1.80040,3.93,45732,,,,,,,,,,,,,,,,,,99999,99999,99999,99999,99999,99999,99999,99999,99999,99999,99999,99999
18:11:49,1510822170,2017-11-16T08:49:35,0.709,815.2,5.45,2.89,6.91,827.300,2036.950,103.566666,41.46,2.5453,363,23355,1.80565,3.93,45728,,,,,,,,,,,,,,,,,,99999,99999,99999,99999,99999,99999,99999,99999,99999,99999,99999,99999
18:12:19,1510822200,2017-11-16T08:50:05,0.705,815.6,5.45,2.94,6.95,827.170,2036.950,101.349998,41.40,2.5453,363,23355,1.79342,3.93,45723,,,,,,,,,,,,,,,,,,99999,99999,99999,99999,99999,99999,99999,99999,99999,99999,99999,99999
18:12:49,1510822230,2017-11-16T08:50:35,0.708,815.9,5.44,2.92,6.94,827.220,2036.880,102.033333,41.43,2.5453,363,23353,1.80157,3.93,45719,,,,,,,,,,,,,,,,,,99999,99999,99999,99999,99999,99999,99999,99999,99999,99999,99999,99999
18:13:19,1510822260,2017-11-16T08:51:05,0.710,816.3,5.44,2.95,6.91,827.140,2036.880,103.033333,41.29,2.5453,363,23351,1.80740,3.93,45714,,,,,,,,,,,,,,,,,,99999,99999,99999,99999,99999,99999,99999,99999,99999,99999,99999,99999
18:13:49,1510822290,2017-11-16T08:51:35,0.711,816.6,5.45,2.91,6.94,827.140,2036.950,102.849998,41.34,2.5453,363,23353,1.81061,3.93,45710,,,,,,,,,,,,,,,,,,99999,99999,99999,99999,99999,99999,99999,99999,99999,99999,99999,99999
18:14:19,1510822320,2017-11-16T08:52:05,0.712,817.0,5.45,2.90,6.91,827.170,2036.950,102.966667,41.43,2.5453,363,23356,1.81120,3.93,45706,,,,,,,,,,,,,,,,,,99999,99999,99999,99999,99999,99999,99999,99999,99999,99999,99999,99999
18:14:49,1510822350,2017-11-16T08:52:35,0.708,817.3,5.46,2.93,6.93,827.210,2036.950,101.949997,41.12,2.5452,363,23354,1.80302,3.93,45701,,,,,,,,,,,,,,,,,,99999,99999,99999,99999,99999,99999,99999,99999,99999,99999,99999,99999
18:15:19,1510822380,2017-11-16T08:53:05,0.711,817.7,5.46,2.95,6.93,827.160,2036.950,103.116669,41.51,2.5452,363,23353,1.81032,3.93,45697,,,,,,,,,,,,,,,,,,99999,99999,99999,99999,99999,99999,99999,99999,99999,99999,99999,99999
18:15:49,1510822410,2017-11-16T08:53:35,0.706,818.0,5.47,2.92,6.91,827.210,2037.050,103.033333,41.41,2.5452,363,23354,1.79720,3.93,45692,,,,,,,,,,,,,,,,,,99999,99999,99999,99999,99999,99999,99999,99999,99999,99999,99999,99999
18:16:19,1510822440,2017-11-16T08:54:05,0.709,818.4,5.47,2.90,6.94,827.110,2037.050,102.849998,41.43,2.5452,363,23356,1.80419,3.92,45688,,,,,,,,,,,,,,,,,,99999,99999,99999,99999,99999,99999,99999,99999,99999,99999,99999,99999
18:16:49,1510822470,2017-11-16T08:54:35,0.704,818.7,5.47,2.93,6.93,827.180,2037.050,101.599998,41.31,2.5452,363,23357,1.79284,3.93,45684,,,,,,,,,,,,,,,,,,99999,99999,99999,99999,99999,99999,99999,99999,99999,99999,99999,99999
18:17:19,1510822500,2017-11-16T08:55:05,0.709,819.1,5.46,2.94,6.94,827.110,2036.950,101.449997,41.38,2.5452,363,23353,1.80448,3.92,45679,,,,,,,,,,,,,,,,,,99999,99999,99999,99999,99999,99999,99999,99999,99999,99999,99999,99999
18:17:49,1510822530,2017-11-16T08:55:35,0.705,819.5,5.46,2.88,6.93,827.110,2036.950,101.416664,41.61,2.5452,363,23352,1.79516,3.92,45675,,,,,,,,,,,,,,,,,,99999,99999,99999,99999,99999,99999,99999,99999,99999,99999,99999,99999
18:18:19,1510822560,2017-11-16T08:56:05,0.706,819.8,5.45,2.91,6.93,827.040,2036.950,100.916664,41.29,2.5453,363,23355,1.79662,3.92,45670,,,,,,,,,,,,,,,,,,99999,99999,99999,99999,99999,99999,99999,99999,99999,99999,99999,99999
18:18:49,1510822590,2017-11-16T08:56:35,0.708,820.2,5.46,2.94,6.94,827.080,2036.950,101.400002,40.96,2.5452,363,23351,1.80244,3.92,45666,,,,,,,,,,,,,,,,,,99999,99999,99999,99999,99999,99999,99999,99999,99999,99999,99999,99999
18:19:19,1510822620,2017-11-16T08:57:05,0.705,820.5,5.46,2.94,6.93,827.060,2036.950,101.199997,41.08,2.5452,363,23354,1.79429,3.92,45661,,,,,,,,,,,,,,,,,,99999,99999,99999,99999,99999,99999,99999,99999,99999,99999,99999,99999
18:19:49,1510822650,2017-11-16T08:57:35,0.712,820.9,5.45,2.93,6.93,826.960,2036.950,102.866669,41.14,2.5453,363,23355,1.81266,3.92,45657,,,,,,,,,,,,,,,,,,99999,99999,99999,99999,99999,99999,99999,99999,99999,99999,99999,99999
18:20:19,1510822680,2017-11-16T08:58:05,0.709,821.2,5.46,2.93,6.93,827.060,2036.950,101.150002,41.13,2.5452,363,23354,1.80361,3.92,45653,,,,,,,,,,,,,,,,,,99999,99999,99999,99999,99999,99999,99999,99999,99999,99999,99999,99999
18:20:49,1510822710,2017-11-16T08:58:35,0.709,821.6,5.46,2.96,6.94,827.140,2036.950,102.016670,41.39,2.5452,363,23355,1.80477,3.92,45648,,,,,,,,,,,,,,,,,,99999,99999,99999,99999,99999,99999,99999,99999,99999,99999,99999,99999
18:21:19,1510822740,2017-11-16T08:59:05,0.707,821.9,5.46,2.94,6.93,827.080,2036.950,101.250000,41.51,2.5452,363,23353,1.79953,3.92,45644,,,,,,,,,,,,,,,,,,99999,99999,99999,99999,99999,99999,99999,99999,99999,99999,99999,99999
18:21:49,1510822770,2017-11-16T08:59:35,0.704,822.3,5.46,2.91,6.95,827.080,2036.950,101.483330,41.54,2.5452,363,23355,1.79168,3.92,45639,,,,,,,,,,,,,,,,,,99999,99999,99999,99999,99999,99999,99999,99999,99999,99999,99999,99999
18:22:19,1510822800,2017-11-16T09:00:05,0.709,822.6,5.47,2.92,6.93,827.130,2037.050,102.633331,41.71,2.5452,363,23353,1.80448,3.92,45635,,,,,,,,,,,,,,,,,,99999,99999,99999,99999,99999,99999,99999,99999,99999,99999,99999,99999
18:22:49,1510822830,2017-11-16T09:00:35,0.708,823.0,5.48,2.95,6.94,827.160,2037.050,102.683334,41.87,2.5451,363,23352,1.80069,3.92,45631,,,,,,,,,,,,,,,,,,99999,99999,99999,99999,99999,99999,99999,99999,99999,99999,99999,99999
18:23:19,1510822860,2017-11-16T09:01:05,0.707,823.3,5.47,2.96,6.95,827.130,2037.050,101.716667,41.82,2.5452,363,23352,1.79894,3.92,45626,,,,,,,,,,,,,,,,,,99999,99999,99999,99999,99999,99999,99999,99999,99999,99999,99999,99999
18:23:49,1510822890,2017-11-16T09:01:35,0.705,823.7,5.47,2.94,6.93,827.180,2037.050,102.216667,41.51,2.5452,363,23354,1.79429,3.92,45622,,,,,,,,,,,,,,,,,,99999,99999,99999,99999,99999,99999,99999,99999,99999,99999,99999,99999
18:24:19,1510822920,2017-11-16T09:02:05,0.709,824.1,5.48,2.95,6.93,827.160,2037.050,101.033333,41.15,2.5451,363,23356,1.80536,3.92,45617,,,,,,,,,,,,,,,,,,99999,99999,99999,99999,99999,99999,99999,99999,99999,99999,99999,99999
18:24:49,1510822950,2017-11-16T09:02:35,0.712,824.4,5.49,2.93,6.95,827.260,2037.110,103.116669,41.04,2.5451,363,23356,1.81236,3.92,45613,,,,,,,,,,,,,,,,,,99999,99999,99999,99999,99999,99999,99999,99999,99999,99999,99999,99999
18:25:19,1510822980,2017-11-16T09:03:05,0.711,824.8,5.49,2.93,6.95,827.180,2037.110,101.949997,41.10,2.5451,363,23355,1.81032,3.92,45609,,,,,,,,,,,,,,,,,,99999,99999,99999,99999,99999,99999,99999,99999,99999,99999,99999,99999
18:25:49,1510823010,2017-11-16T09:03:35,0.710,825.1,5.51,2.94,6.99,827.120,2037.150,102.033333,40.94,2.5450,363,23354,1.80711,3.92,45604,,,,,,,,,,,,,,,,,,99999,99999,99999,99999,99999,99999,99999,99999,99999,99999,99999,99999
18:26:19,1510823040,2017-11-16T09:04:05,0.704,825.5,5.50,2.97,6.95,827.050,2037.110,101.099998,41.02,2.5450,363,23356,1.79284,3.92,45600,,,,,,,,,,,,,,,,,,99999,99999,99999,99999,99999,99999,99999,99999,99999,99999,99999,99999
18:26:49,1510823070,2017-11-16T09:04:35,0.710,825.8,5.53,2.96,6.95,827.010,2037.220,102.133331,41.41,2.5449,363,23353,1.80594,3.92,45595,,,,,,,,,,,,,,,,,,99999,99999,99999,99999,99999,99999,99999,99999,99999,99999,99999,99999
18:27:19,1510823100,2017-11-16T09:05:05,0.709,826.2,5.52,2.99,6.97,827.050,2037.150,101.966667,41.13,2.5449,363,23354,1.80361,3.92,45591,,,,,,,,,,,,,,,,,,99999,99999,99999,99999,99999,99999,99999,99999,99999,99999,99999,99999
18:27:49,1510823130,2017-11-16T09:05:35,0.713,826.5,5.54,2.97,6.99,827.010,2037.220,102.150002,41.57,2.5448,363,23353,1.81441,3.92,45587,,,,,,,,,,,,,,,,,,99999,99999,99999,99999,99999,99999,99999,99999,99999,99999,99999,99999
18:28:19,1510823160,2017-11-16T09:06:05,0.713,826.9,5.54,3.00,6.99,826.860,2037.220,102.666664,40.96,2.5448,363,23354,1.81441,3.92,45582,,,,,,,,,,,,,,,,,,99999,99999,99999,99999,99999,99999,99999,99999,99999,99999,99999,99999
18:28:49,1510823190,2017-11-16T09:06:35,0.712,827.2,5.55,3.00,6.97,826.830,2037.280,103.216667,41.05,2.5448,363,23355,1.81120,3.92,45578,,,,,,,,,,,,,,,,,,99999,99999,99999,99999,99999,99999,99999,99999,99999,99999,99999,99999
18:29:19,1510823220,2017-11-16T09:07:05,0.712,827.6,5.54,2.97,7.01,826.730,2037.220,103.066666,40.85,2.5448,363,23358,1.81236,3.92,45573,,,,,,,,,,,,,,,,,,99999,99999,99999,99999,99999,99999,99999,99999,99999,99999,99999,99999
18:29:49,1510823250,2017-11-16T09:07:35,0.705,828.0,5.54,2.95,6.99,826.620,2037.220,101.716667,40.74,2.5448,363,23358,1.79342,3.92,45569,,,,,,,,,,,,,,,,,,99999,99999,99999,99999,99999,99999,99999,99999,99999,99999,99999,99999
18:30:19,1510823280,2017-11-16T09:08:05,0.712,828.3,5.54,2.97,7.01,826.620,2037.220,102.566666,40.71,2.5448,363,23355,1.81207,3.92,45564,,,,,,,,,,,,,,,,,,99999,99999,99999,99999,99999,99999,99999,99999,99999,99999,99999,99999
18:30:49,1510823310,2017-11-16T09:08:35,0.711,828.7,5.53,3.01,6.97,826.650,2037.220,102.000000,40.58,2.5449,363,23354,1.81061,3.92,45560,,,,,,,,,,,,,,,,,,99999,99999,99999,99999,99999,99999,99999,99999,99999,99999,99999,99999
18:31:19,1510823340,2017-11-16T09:09:05,0.712,829.0,5.54,2.97,6.99,826.620,2037.220,102.099998,40.82,2.5448,363,23354,1.81090,3.92,45556,,,,,,,,,,,,,,,,,,99999,99999,99999,99999,99999,99999,99999,99999,99999,99999,99999,99999
18:31:49,1510823370,2017-11-16T09:09:35,0.709,829.4,5.53,2.98,6.95,826.700,2037.220,102.133331,40.84,2.5449,363,23357,1.80361,3.92,45551,,,,,,,,,,,,,,,,,,99999,99999,99999,99999,99999,99999,99999,99999,99999,99999,99999,99999
18:32:19,1510823400,2017-11-16T09:10:05,0.711,829.7,5.53,2.96,6.99,826.700,2037.220,103.116669,41.10,2.5449,363,23354,1.81061,3.92,45547,,,,,,,,,,,,,,,,,,99999,99999,99999,99999,99999,99999,99999,99999,99999,99999,99999,99999
18:32:49,1510823430,2017-11-16T09:10:35,0.711,830.1,5.53,2.98,6.97,826.810,2037.220,103.033333,41.15,2.5449,363,23355,1.81003,3.92,45542,,,,,,,,,,,,,,,,,,99999,99999,99999,99999,99999,99999,99999,99999,99999,99999,99999,99999
18:33:19,1510823460,2017-11-16T09:11:05,0.713,830.4,5.54,2.99,6.97,826.910,2037.220,102.466667,41.48,2.5448,363,23354,1.81324,3.92,45538,,,,,,,,,,,,,,,,,,99999,99999,99999,99999,99999,99999,99999,99999,99999,99999,99999,99999
18:33:49,1510823490,2017-11-16T09:11:35,0.712,830.8,5.53,2.96,6.99,826.860,2037.220,104.266670,41.05,2.5449,363,23355,1.81295,3.92,45534,,,,,,,,,,,,,,,,,,99999,99999,99999,99999,99999,99999,99999,99999,99999,99999,99999,99999
18:34:19,1510823520,2017-11-16T09:12:05,0.706,831.1,5.54,2.99,6.97,826.910,2037.220,101.116669,40.83,2.5448,363,23355,1.79720,3.92,45529,,,,,,,,,,,,,,,,,,99999,99999,99999,99999,99999,99999,99999,99999,99999,99999,99999,99999
18:34:49,1510823550,2017-11-16T09:12:35,0.712,831.5,5.55,2.99,6.99,826.930,2037.280,103.349998,41.09,2.5448,363,23353,1.81295,3.92,45525,,,,,,,,,,,,,,,,,,99999,99999,99999,99999,99999,99999,99999,99999,99999,99999,99999,99999
18:35:19,1510823580,2017-11-16T09:13:05,0.710,831.9,5.55,3.00,7.01,826.860,2037.280,102.333336,41.10,2.5448,363,23359,1.80623,3.92,45520,,,,,,,,,,,,,,,,,,99999,99999,99999,99999,99999,99999,99999,99999,99999,99999,99999,99999
18:35:49,1510823610,2017-11-16T09:13:35,0.705,832.2,5.56,3.00,6.99,826.800,2037.320,102.016670,41.10,2.5447,363,23353,1.79400,3.92,45516,,,,,,,,,,,,,,,,,,99999,99999,99999,99999,99999,99999,99999,99999,99999,99999,99999,99999
18:36:19,1510823640,2017-11-16T09:14:05,0.709,832.6,5.56,2.99,7.04,826.670,2037.320,102.866669,41.10,2.5447,363,23354,1.80477,3.92,45511,,,,,,,,,,,,,,,,,,99999,99999,99999,99999,99999,99999,99999,99999,99999,99999,99999,99999
18:36:49,1510823670,2017-11-16T09:14:35,0.705,832.9,5.56,3.02,7.04,826.700,2037.320,101.650002,40.94,2.5448,363,23357,1.79342,3.92,45507,,,,,,,,,,,,,,,,,,99999,99999,99999,99999,99999,99999,99999,99999,99999,99999,99999,99999
18:37:19,1510823700,2017-11-16T09:15:05,0.713,833.3,5.59,3.01,7.02,826.740,2037.380,103.183334,40.97,2.5445,363,23357,1.81500,3.92,45503,,,,,,,,,,,,,,,,,,99999,99999,99999,99999,99999,99999,99999,99999,99999,99999,99999,99999
18:37:49,1510823730,2017-11-16T09:15:35,0.708,833.6,5.59,3.04,7.01,826.690,2037.380,102.283333,41.03,2.5445,363,23357,1.80098,3.92,45498,,,,,,,,,,,,,,,,,,99999,99999,99999,99999,99999,99999,99999,99999,99999,99999,99999,99999
18:38:19,1510823760,2017-11-16T09:16:05,0.707,834.0,5.60,3.08,7.07,826.760,2037.490,101.416664,41.11,2.5446,363,23358,1.79807,3.92,45494,,,,,,,,,,,,,,,,,,99999,99999,99999,99999,99999,99999,99999,99999,99999,99999,99999,99999
18:38:49,1510823790,2017-11-16T09:16:35,0.714,834.3,5.61,3.08,7.04,826.760,2037.490,103.216667,41.11,2.5445,363,23358,1.81558,3.92,45489,,,,,,,,,,,,,,,,,,99999,99999,99999,99999,99999,99999,99999,99999,99999,99999,99999,99999
18:39:19,1510823820,2017-11-16T09:17:05,0.705,834.7,5.62,3.08,7.07,826.730,2037.550,102.099998,41.02,2.5445,363,23358,1.79400,3.92,45485,,,,,,,,,,,,,,,,,,99999,99999,99999,99999,99999,99999,99999,99999,99999,99999,99999,99999
18:39:49,1510823850,2017-11-16T09:17:35,0.713,835.0,5.62,3.08,7.07,826.760,2037.550,103.683334,40.93,2.5445,363,23356,1.81441,3.92,45481,,,,,,,,,,,,,,,,,,99999,99999,99999,99999,99999,99999,99999,99999,99999,99999,99999,99999
18:40:19,1510823880,2017-11-16T09:18:05,0.706,835.4,5.63,3.11,7.05,826.780,2037.550,101.516670,40.92,2.5444,363,23356,1.79516,3.92,45476,,,,,,,,,,,,,,,,,,99999,99999,99999,99999,99999,99999,99999,99999,99999,99999,99999,99999
18:40:49,1510823910,2017-11-16T09:18:35,0.710,835.8,5.64,3.09,7.07,826.700,2037.590,102.933334,41.23,2.5443,363,23356,1.80740,3.92,45472,,,,,,,,,,,,,,,,,,99999,99999,99999,99999,99999,99999,99999,99999,99999,99999,99999,99999
18:41:19,1510823940,2017-11-16T09:19:05,0.706,836.1,5.66,3.08,7.09,826.700,2037.650,101.566666,41.21,2.5442,363,23358,1.79545,3.92,45467,,,,,,,,,,,,,,,,,,99999,99999,99999,99999,99999,99999,99999,99999,99999,99999,99999,99999
18:41:49,1510823970,2017-11-16T09:19:35,0.708,836.5,5.66,3.05,7.09,826.590,2037.650,101.233330,41.25,2.5442,363,23360,1.80157,3.92,45463,,,,,,,,,,,,,,,,,,99999,99999,99999,99999,99999,99999,99999,99999,99999,99999,99999,99999
18:42:19,1510824000,2017-11-16T09:20:05,0.709,836.8,5.66,3.13,7.14,826.510,2037.650,101.366669,41.13,2.5442,363,23358,1.80390,3.92,45458,,,,,,,,,,,,,,,,,,99999,99999,99999,99999,99999,99999,99999,99999,99999,99999,99999,99999
18:42:49,1510824030,2017-11-16T09:20:35,0.712,837.2,5.66,3.12,7.09,826.560,2037.650,102.250000,41.03,2.5442,363,23362,1.81236,3.92,45454,,,,,,,,,,,,,,,,,,99999,99999,99999,99999,99999,99999,99999,99999,99999,99999,99999,99999
18:43:19,1510824060,2017-11-16T09:21:05,0.712,837.5,5.67,3.06,7.12,826.510,2037.720,103.150002,40.97,2.5442,363,23361,1.81266,3.92,45450,,,,,,,,,,,,,,,,,,99999,99999,99999,99999,99999,99999,99999,99999,99999,99999,99999,99999
18:43:49,1510824090,2017-11-16T09:21:35,0.709,837.9,5.67,3.13,7.14,826.560,2037.720,102.400002,41.47,2.5442,363,23358,1.80419,3.92,45445,,,,,,,,,,,,,,,,,,99999,99999,99999,99999,99999,99999,99999,99999,99999,99999,99999,99999
18:44:19,1510824120,2017-11-16T09:22:05,0.713,838.2,5.67,3.12,7.10,826.620,2037.720,102.683334,41.29,2.5442,363,23358,1.81529,3.92,45441,,,,,,,,,,,,,,,,,,99999,99999,99999,99999,99999,99999,99999,99999,99999,99999,99999,99999
18:44:49,1510824150,2017-11-16T09:22:35,0.708,838.6,5.67,3.13,7.10,826.620,2037.720,101.083336,40.99,2.5442,363,23355,1.80040,3.92,45436,,,,,,,,,,,,,,,,,,99999,99999,99999,99999,99999,99999,99999,99999,99999,99999,99999,99999
18:45:19,1510824180,2017-11-16T09:23:05,0.706,839.0,5.68,3.10,7.10,826.670,2037.720,101.633331,40.96,2.5441,363,23359,1.79720,3.92,45432,,,,,,,,,,,,,,,,,,99999,99999,99999,99999,99999,99999,99999,99999,99999,99999,99999,99999
18:45:49,1510824210,2017-11-16T09:23:35,0.706,839.3,5.68,3.11,7.09,826.670,2037.720,102.400002,40.81,2.5441,363,23357,1.79691,3.92,45428,,,,,,,,,,,,,,,,,,99999,99999,99999,99999,99999,99999,99999,99999,99999,99999,99999,99999
18:46:19,1510824240,2017-11-16T09:24:05,0.708,839.7,5.68,3.12,7.12,826.550,2037.720,101.783333,40.98,2.5441,363,23357,1.80186,3.92,45423,,,,,,,,,,,,,,,,,,99999,99999,99999,99999,99999,99999,99999,99999,99999,99999,99999,99999
18:46:49,1510824270,2017-11-16T09:24:35,0.710,840.0,5.69,3.13,7.12,826.530,2037.760,103.066666,41.10,2.5441,363,23358,1.80711,3.92,45419,,,,,,,,,,,,,,,,,,99999,99999,99999,99999,99999,99999,99999,99999,99999,99999,99999,99999
18:47:19,1510824300,2017-11-16T09:25:05,0.713,840.4,5.69,3.11,7.14,826.610,2037.760,103.000000,40.88,2.5441,363,23359,1.81412,3.92,45414,,,,,,,,,,,,,,,,,,99999,99999,99999,99999,99999,99999,99999,99999,99999,99999,99999,99999
18:47:49,1510824330,2017-11-16T09:25:35,0.707,840.7,5.69,3.09,7.15,826.610,2037.760,101.416664,40.72,2.5441,363,23356,1.79924,3.92,45410,,,,,,,,,,,,,,,,,,99999,99999,99999,99999,99999,99999,99999,99999,99999,99999,99999,99999
18:48:19,1510824360,2017-11-16T09:26:05,0.713,841.1,5.70,3.14,7.12,826.640,2037.760,102.900002,40.80,2.5440,363,23357,1.81470,3.92,45405,,,,,,,,,,,,,,,,,,99999,99999,99999,99999,99999,99999,99999,99999,99999,99999,99999,99999
18:48:49,1510824390,2017-11-16T09:26:35,0.714,841.4,5.70,3.11,7.16,826.550,2037.760,102.349998,41.01,2.5440,363,23358,1.81558,3.92,45401,,,,,,,,,,,,,,,,,,99999,99999,99999,99999,99999,99999,99999,99999,99999,99999,99999,99999
18:49:19,1510824420,2017-11-16T09:27:05,0.710,841.8,5.69,3.11,7.15,826.530,2037.760,101.550003,40.91,2.5441,363,23358,1.80711,3.92,45397,,,,,,,,,,,,,,,,,,99999,99999,99999,99999,99999,99999,99999,99999,99999,99999,99999,99999
18:49:49,1510824450,2017-11-16T09:27:35,0.709,842.1,5.70,3.15,7.12,826.580,2037.760,102.016670,40.96,2.5440,363,23359,1.80448,3.92,45392,,,,,,,,,,,,,,,,,,99999,99999,99999,99999,99999,99999,99999,99999,99999,99999,99999,99999
18:50:19,1510824480,2017-11-16T09:28:05,0.713,842.5,5.71,3.15,7.16,826.630,2037.820,103.083336,40.55,2.5440,363,23358,1.81295,3.92,45388,,,,,,,,,,,,,,,,,,99999,99999,99999,99999,99999,99999,99999,99999,99999,99999,99999,99999
18:50:49,1510824510,2017-11-16T09:28:35,0.714,842.9,5.72,3.18,7.15,826.580,2037.820,102.883331,40.74,2.5439,363,23361,1.81529,3.92,45383,,,,,,,,,,,,,,,,,,99999,99999,99999,99999,99999,99999,99999,99999,99999,99999,99999,99999
18:51:19,1510824540,2017-11-16T09:29:05,0.710,843.2,5.72,3.15,7.16,826.540,2037.820,102.816666,41.14,2.5439,363,23359,1.80506,3.92,45379,,,,,,,,,,,,,,,,,,99999,99999,99999,99999,99999,99999,99999,99999,99999,99999,99999,99999
18:51:49,1510824570,2017-11-16T09:29:35,0.712,843.6,5.73,3.16,7.16,826.530,2037.930,102.633331,40.86,2.5439,363,23357,1.81149,3.92,45374,,,,,,,,,,,,,,,,,,99999,99999,99999,99999,99999,99999,99999,99999,99999,99999,99999,99999
18:52:19,1510824600,2017-11-16T09:30:05,0.712,843.9,5.74,3.15,7.18,826.440,2037.930,102.666664,40.61,2.5439,363,23358,1.81236,3.92,45370,,,,,,,,,,,,,,,,,,99999,99999,99999,99999,99999,99999,99999,99999,99999,99999,99999,99999
18:52:49,1510824630,2017-11-16T09:30:35,0.709,844.3,5.74,3.15,7.18,826.470,2037.930,103.216667,40.77,2.5439,363,23357,1.80302,3.92,45366,,,,,,,,,,,,,,,,,,99999,99999,99999,99999,99999,99999,99999,99999,99999,99999,99999,99999
18:53:19,1510824660,2017-11-16T09:31:05,0.707,844.6,5.75,3.16,7.22,826.440,2037.990,102.683334,40.96,2.5438,363,23357,1.79924,3.92,45361,,,,,,,,,,,,,,,,,,99999,99999,99999,99999,99999,99999,99999,99999,99999,99999,99999,99999
18:53:49,1510824690,2017-11-16T09:31:35,0.711,845.0,5.76,3.18,7.20,826.320,2037.990,103.216667,40.62,2.5438,363,23361,1.80740,3.92,45357,,,,,,,,,,,,,,,,,,99999,99999,99999,99999,99999,99999,99999,99999,99999,99999,99999,99999
18:54:19,1510824720,2017-11-16T09:32:05,0.706,845.3,5.76,3.20,7.22,826.320,2037.990,102.000000,41.00,2.5437,363,23361,1.79545,3.92,45352,,,,,,,,,,,,,,,,,,99999,99999,99999,99999,99999,99999,99999,99999,99999,99999,99999,99999
18:54:49,1510824750,2017-11-16T09:32:35,0.707,845.7,5.77,3.19,7.22,826.490,2038.050,101.949997,40.74,2.5437,363,23360,1.79720,3.92,45348,,,,,,,,,,,,,,,,,,99999,99999,99999,99999,99999,99999,99999,99999,99999,99999,99999,99999
18:55:19,1510824780,2017-11-16T09:33:05,0.707,846.1,5.78,3.18,7.20,826.510,2038.090,100.800003,40.78,2.5437,363,23360,1.79953,3.92,45343,,,,,,,,,,,,,,,,,,99999,99999,99999,99999,99999,99999,99999,99999,99999,99999,99999,99999
18:55:49,1510824810,2017-11-16T09:33:35,0.707,846.4,5.80,3.22,7.23,826.580,2038.150,101.650002,40.68,2.5436,363,23358,1.79749,3.92,45339,,,,,,,,,,,,,,,,,,99999,99999,99999,99999,99999,99999,99999,99999,99999,99999,99999,99999
18:56:19,1510824840,2017-11-16T09:34:05,0.710,846.8,5.81,3.21,7.24,826.610,2038.150,102.683334,40.34,2.5435,363,23361,1.80711,3.92,45335,,,,,,,,,,,,,,,,,,99999,99999,99999,99999,99999,99999,99999,99999,99999,99999,99999,99999
18:56:49,1510824870,2017-11-16T09:34:35,0.715,847.1,5.83,3.24,7.23,826.580,2038.220,103.500000,40.39,2.5434,363,23362,1.81793,3.92,45330,,,,,,,,,,,,,,,,,,99999,99999,99999,99999,99999,99999,99999,99999,99999,99999,99999,99999
18:57:19,1510824900,2017-11-16T09:35:05,0.708,847.5,5.84,3.23,7.26,826.560,2038.260,102.366669,40.43,2.5434,363,23361,1.80011,3.92,45326,,,,,,,,,,,,,,,,,,99999,99999,99999,99999,99999,99999,99999,99999,99999,99999,99999,99999
18:57:49,1510824930,2017-11-16T09:35:35,0.715,847.8,5.84,3.26,7.26,826.520,2038.260,103.116669,40.31,2.5434,363,23362,1.81734,3.92,45321,,,,,,,,,,,,,,,,,,99999,99999,99999,99999,99999,99999,99999,99999,99999,99999,99999,99999
18:58:19,1510824960,2017-11-16T09:36:05,0.713,848.2,5.86,3.24,7.30,826.490,2038.380,104.266670,40.73,2.5433,363,23361,1.81383,3.92,45317,,,,,,,,,,,,,,,,,,99999,99999,99999,99999,99999,99999,99999,99999,99999,99999,99999,99999
18:58:49,1510824990,2017-11-16T09:36:35,0.712,848.5,5.87,3.28,7.28,826.530,2038.380,102.250000,40.66,2.5432,363,23361,1.81061,3.92,45312,,,,,,,,,,,,,,,,,,99999,99999,99999,99999,99999,99999,99999,99999,99999,99999,99999,99999
18:59:19,1510825020,2017-11-16T09:37:05,0.714,848.9,5.87,3.28,7.31,826.530,2038.380,103.516670,40.47,2.5432,363,23362,1.81676,3.92,45308,,,,,,,,,,,,,,,,,,99999,99999,99999,99999,99999,99999,99999,99999,99999,99999,99999,99999
18:59:49,1510825050,2017-11-16T09:37:35,0.712,849.3,5.89,3.28,7.30,826.640,2038.490,103.033333,40.30,2.5432,363,23362,1.81032,3.92,45303,,,,,,,,,,,,,,,,,,99999,99999,99999,99999,99999,99999,99999,99999,99999,99999,99999,99999
19:00:19,1510825080,2017-11-16T09:38:05,0.713,849.6,5.90,3.29,7.31,826.690,2038.490,103.449997,40.94,2.5431,363,23361,1.81266,3.92,45299,,,,,,,,,,,,,,,,,,99999,99999,99999,99999,99999,99999,99999,99999,99999,99999,99999,99999
19:00:49,1510825110,2017-11-16T09:38:35,0.710,850.0,5.89,3.28,7.33,826.690,2038.490,101.816666,40.25,2.5432,363,23362,1.80681,3.92,45295,,,,,,,,,,,,,,,,,,99999,99999,99999,99999,99999,99999,99999,99999,99999,99999,99999,99999
19:01:19,1510825140,2017-11-16T09:39:05,0.707,850.3,5.89,3.27,7.31,826.660,2038.490,101.633331,39.98,2.5432,363,23362,1.79924,3.92,45290,,,,,,,,,,,,,,,,,,99999,99999,99999,99999,99999,99999,99999,99999,99999,99999,99999,99999
19:01:49,1510825170,2017-11-16T09:39:35,0.708,850.7,5.89,3.33,7.34,826.550,2038.490,102.583336,39.99,2.5432,363,23363,1.80186,3.92,45286,,,,,,,,,,,,,,,,,,99999,99999,99999,99999,99999,99999,99999,99999,99999,99999,99999,99999
19:02:19,1510825200,2017-11-16T09:40:05,0.710,851.0,5.89,3.27,7.36,826.510,2038.490,102.400002,40.20,2.5432,363,23366,1.80623,3.92,45281,,,,,,,,,,,,,,,,,,99999,99999,99999,99999,99999,99999,99999,99999,99999,99999,99999,99999
19:02:49,1510825230,2017-11-16T09:40:35,0.714,851.4,5.89,3.29,7.34,826.510,2038.490,103.233330,40.06,2.5432,363,23365,1.81646,3.92,45277,,,,,,,,,,,,,,,,,,99999,99999,99999,99999,99999,99999,99999,99999,99999,99999,99999,99999
19:03:19,1510825260,2017-11-16T09:41:05,0.712,851.7,5.89,3.28,7.31,826.480,2038.490,103.699997,40.33,2.5432,363,23363,1.81032,3.92,45272,,,,,,,,,,,,,,,,,,99999,99999,99999,99999,99999,99999,99999,99999,99999,99999,99999,99999
19:03:49,1510825290,2017-11-16T09:41:35,0.707,852.1,5.89,3.31,7.33,826.660,2038.490,102.033333,39.66,2.5432,363,23364,1.79865,3.92,45268,,,,,,,,,,,,,,,,,,99999,99999,99999,99999,99999,99999,99999,99999,99999,99999,99999,99999
19:04:19,1510825320,2017-11-16T09:42:05,0.708,852.5,5.89,3.28,7.31,826.660,2038.490,101.599998,40.69,2.5432,363,23364,1.79953,3.92,45264,,,,,,,,,,,,,,,,,,99999,99999,99999,99999,99999,99999,99999,99999,99999,99999,99999,99999
19:04:49,1510825350,2017-11-16T09:42:35,0.708,852.8,5.90,3.29,7.31,826.580,2038.490,101.233330,40.47,2.5431,363,23360,1.80011,3.92,45259,,,,,,,,,,,,,,,,,,99999,99999,99999,99999,99999,99999,99999,99999,99999,99999,99999,99999
19:05:19,1510825380,2017-11-16T09:43:05,0.709,853.2,5.89,3.28,7.31,826.690,2038.490,101.583336,40.27,2.5432,363,23361,1.80331,3.92,45255,,,,,,,,,,,,,,,,,,99999,99999,99999,99999,99999,99999,99999,99999,99999,99999,99999,99999
19:05:49,1510825410,2017-11-16T09:43:35,0.710,853.5,5.88,3.29,7.31,826.670,2038.430,102.133331,40.33,2.5432,363,23362,1.80536,3.91,45250,,,,,,,,,,,,,,,,,,99999,99999,99999,99999,99999,99999,99999,99999,99999,99999,99999,99999
19:06:19,1510825440,2017-11-16T09:44:05,0.708,853.9,5.89,3.31,7.31,826.770,2038.490,101.633331,40.16,2.5432,363,23363,1.80040,3.91,45246,,,,,,,,,,,,,,,,,,99999,99999,99999,99999,99999,99999,99999,99999,99999,99999,99999,99999
19:06:49,1510825470,2017-11-16T09:44:35,0.709,854.2,5.89,3.31,7.33,826.740,2038.490,102.150002,40.26,2.5432,363,23365,1.80361,3.91,45241,,,,,,,,,,,,,,,,,,99999,99999,99999,99999,99999,99999,99999,99999,99999,99999,99999,99999
19:07:19,1510825500,2017-11-16T09:45:05,0.707,854.6,5.90,3.33,7.31,826.740,2038.490,102.766670,40.04,2.5431,363,23364,1.79894,3.91,45237,,,,,,,,,,,,,,,,,,99999,99999,99999,99999,99999,99999,99999,99999,99999,99999,99999,99999
19:07:49,1510825530,2017-11-16T09:45:35,0.709,854.9,5.90,3.33,7.34,826.660,2038.490,101.983330,40.68,2.5431,363,23364,1.80215,3.91,45233,,,,,,,,,,,,,,,,,,99999,99999,99999,99999,99999,99999,99999,99999,99999,99999,99999,99999
19:08:19,1510825560,2017-11-16T09:46:05,0.714,855.3,5.91,3.32,7.36,826.580,2038.530,104.316666,40.66,2.5430,363,23364,1.81587,3.91,45228,,,,,,,,,,,,,,,,,,99999,99999,99999,99999,99999,99999,99999,99999,99999,99999,99999,99999
19:08:49,1510825590,2017-11-16T09:46:35,0.715,855.7,5.92,3.34,7.34,826.580,2038.530,104.066666,40.67,2.5429,363,23362,1.81822,3.91,45224,,,,,,,,,,,,,,,,,,99999,99999,99999,99999,99999,99999,99999,99999,99999,99999,99999,99999
19:09:19,1510825620,2017-11-16T09:47:05,0.714,856.0,5.92,3.34,7.33,826.660,2038.530,102.650002,40.70,2.5429,363,23365,1.81529,3.91,45219,,,,,,,,,,,,,,,,,,99999,99999,99999,99999,99999,99999,99999,99999,99999,99999,99999,99999
19:09:49,1510825650,2017-11-16T09:47:35,0.712,856.4,5.92,3.34,7.38,826.710,2038.530,102.050003,40.46,2.5430,363,23363,1.81061,3.91,45215,,,,,,,,,,,,,,,,,,99999,99999,99999,99999,99999,99999,99999,99999,99999,99999,99999,99999
19:10:19,1510825680,2017-11-16T09:48:05,0.715,856.7,5.92,3.33,7.36,826.610,2038.530,103.066666,40.41,2.5430,363,23366,1.81705,3.91,45210,,,,,,,,,,,,,,,,,,99999,99999,99999,99999,99999,99999,99999,99999,99999,99999,99999,99999
19:10:49,1510825710,2017-11-16T09:48:35,0.708,857.1,5.92,3.33,7.38,826.610,2038.530,101.900002,40.36,2.5430,363,23361,1.79953,3.91,45206,,,,,,,,,,,,,,,,,,99999,99999,99999,99999,99999,99999,99999,99999,99999,99999,99999,99999
19:11:19,1510825740,2017-11-16T09:49:05,0.707,857.4,5.92,3.34,7.41,826.420,2038.530,102.500000,40.32,2.5430,363,23363,1.79778,3.91,45201,,,,,,,,,,,,,,,,,,99999,99999,99999,99999,99999,99999,99999,99999,99999,99999,99999,99999
19:11:49,1510825770,2017-11-16T09:49:35,0.707,857.8,5.91,3.34,7.36,826.390,2038.530,102.349998,40.45,2.5430,363,23364,1.79778,3.91,45197,,,,,,,,,,,,,,,,,,99999,99999,99999,99999,99999,99999,99999,99999,99999,99999,99999,99999
19:12:19,1510825800,2017-11-16T09:50:05,0.712,858.1,5.90,3.32,7.34,826.430,2038.490,102.650002,40.36,2.5431,363,23363,1.81090,3.91,45193,,,,,,,,,,,,,,,,,,99999,99999,99999,99999,99999,99999,99999,99999,99999,99999,99999,99999
19:12:49,1510825830,2017-11-16T09:50:35,0.713,858.5,5.91,3.35,7.34,826.500,2038.530,103.750000,40.29,2.5431,363,23362,1.81236,3.91,45188,,,,,,,,,,,,,,,,,,99999,99999,99999,99999,99999,99999,99999,99999,99999,99999,99999,99999
19:13:19,1510825860,2017-11-16T09:51:05,0.713,858.9,5.89,3.31,7.36,826.510,2038.490,101.750000,40.05,2.5432,363,23364,1.81383,3.91,45184,,,,,,,,,,,,,,,,,,99999,99999,99999,99999,99999,99999,99999,99999,99999,99999,99999,99999
19:13:49,1510825890,2017-11-16T09:51:35,0.715,859.2,5.90,3.31,7.34,826.480,2038.490,102.716667,39.96,2.5431,363,23364,1.81734,3.91,45179,,,,,,,,,,,,,,,,,,99999,99999,99999,99999,99999,99999,99999,99999,99999,99999,99999,99999
19:14:19,1510825920,2017-11-16T09:52:05,0.715,859.6,5.88,3.26,7.34,826.370,2038.430,103.433334,40.04,2.5432,363,23364,1.81822,3.91,45175,,,,,,,,,,,,,,,,,,99999,99999,99999,99999,99999,99999,99999,99999,99999,99999,99999,99999
19:14:49,1510825950,2017-11-16T09:52:35,0.714,859.9,5.87,3.29,7.30,826.350,2038.380,103.849998,40.02,2.5432,363,23366,1.81676,3.91,45170,,,,,,,,,,,,,,,,,,99999,99999,99999,99999,99999,99999,99999,99999,99999,99999,99999,99999
19:15:19,1510825980,2017-11-16T09:53:05,0.715,860.3,5.88,3.30,7.33,826.430,2038.430,103.683334,40.36,2.5432,363,23365,1.81939,3.91,45166,,,,,,,,,,,,,,,,,,99999,99999,99999,99999,99999,99999,99999,99999,99999,99999,99999,99999
19:15:49,1510826010,2017-11-16T09:53:35,0.706,860.6,5.87,3.29,7.31,826.440,2038.380,102.666664,40.66,2.5432,363,23362,1.79574,3.91,45162,,,,,,,,,,,,,,,,,,99999,99999,99999,99999,99999,99999,99999,99999,99999,99999,99999,99999
19:16:19,1510826040,2017-11-16T09:54:05,0.709,861.0,5.86,3.28,7.30,826.490,2038.380,102.616669,40.35,2.5433,363,23364,1.80419,3.91,45157,,,,,,,,,,,,,,,,,,99999,99999,99999,99999,99999,99999,99999,99999,99999,99999,99999,99999
19:16:49,1510826070,2017-11-16T09:54:35,0.714,861.3,5.86,3.30,7.31,826.530,2038.380,102.066666,40.41,2.5433,363,23364,1.81587,3.91,45153,,,,,,,,,,,,,,,,,,99999,99999,99999,99999,99999,99999,99999,99999,99999,99999,99999,99999
19:17:19,1510826100,2017-11-16T09:55:05,0.712,861.7,5.86,3.25,7.28,826.650,2038.380,103.216667,40.42,2.5433,363,23365,1.81003,3.91,45148,,,,,,,,,,,,,,,,,,99999,99999,99999,99999,99999,99999,99999,99999,99999,99999,99999,99999
19:17:49,1510826130,2017-11-16T09:55:35,0.708,862.1,5.84,3.27,7.30,826.560,2038.260,102.433334,40.05,2.5434,363,23363,1.80069,3.91,45144,,,,,,,,,,,,,,,,,,99999,99999,99999,99999,99999,99999,99999,99999,99999,99999,99999,99999
19:18:19,1510826160,2017-11-16T09:56:05,0.711,862.4,5.84,3.26,7.28,826.540,2038.260,103.800003,40.23,2.5434,363,23364,1.80769,3.91,45139,,,,,,,,,,,,,,,,,,99999,99999,99999,99999,99999,99999,99999,99999,99999,99999,99999,99999
19:18:49,1510826190,2017-11-16T09:56:35,0.712,862.8,5.84,3.24,7.28,826.540,2038.260,103.349998,40.54,2.5434,363,23365,1.81003,3.91,45135,,,,,,,,,,,,,,,,,,99999,99999,99999,99999,99999,99999,99999,99999,99999,99999,99999,99999
19:19:19,1510826220,2017-11-16T09:57:05,0.711,863.1,5.84,3.23,7.24,826.440,2038.260,103.483330,40.52,2.5434,363,23363,1.80944,3.91,45130,,,,,,,,,,,,,,,,,,99999,99999,99999,99999,99999,99999,99999,99999,99999,99999,99999,99999
19:19:49,1510826250,2017-11-16T09:57:35,0.708,863.5,5.84,3.26,7.28,826.520,2038.260,102.083336,40.61,2.5434,363,23364,1.80098,3.91,45126,,,,,,,,,,,,,,,,,,99999,99999,99999,99999,99999,99999,99999,99999,99999,99999,99999,99999
19:20:19,1510826280,2017-11-16T09:58:05,0.715,863.8,5.83,3.27,7.26,826.500,2038.220,103.383331,40.41,2.5434,363,23363,1.81822,3.91,45122,,,,,,,,,,,,,,,,,,99999,99999,99999,99999,99999,99999,99999,99999,99999,99999,99999,99999
19:20:49,1510826310,2017-11-16T09:58:35,0.711,864.2,5.82,3.24,7.24,826.580,2038.220,102.766670,40.38,2.5435,363,23364,1.80828,3.91,45117,,,,,,,,,,,,,,,,,,99999,99999,99999,99999,99999,99999,99999,99999,99999,99999,99999,99999
19:21:19,1510826340,2017-11-16T09:59:05,0.714,864.5,5.82,3.20,7.26,826.530,2038.220,103.616669,40.30,2.5435,363,23366,1.81587,3.91,45113,,,,,,,,,,,,,,,,,,99999,99999,99999,99999,99999,99999,99999,99999,99999,99999,99999,99999
19:21:49,1510826370,2017-11-16T09:59:35,0.714,864.9,5.81,3.23,7.26,826.580,2038.150,102.666664,40.31,2.5435,363,23362,1.81705,3.91,45108,,,,,,,,,,,,,,,,,,99999,99999,99999,99999,99999,99999,99999,99999,99999,99999,99999,99999
19:22:19,1510826400,2017-11-16T10:00:05,0.711,865.3,5.78,3.23,7.24,826.510,2038.090,103.383331,40.70,2.5437,363,23361,1.80740,3.91,45104,,,,,,,,,,,,,,,,,,99999,99999,99999,99999,99999,99999,99999,99999,99999,99999,99999,99999
19:22:49,1510826430,2017-11-16T10:00:35,0.710,865.6,5.77,3.22,7.23,826.510,2038.050,102.316666,40.81,2.5437,363,23365,1.80623,3.91,45099,,,,,,,,,,,,,,,,,,99999,99999,99999,99999,99999,99999,99999,99999,99999,99999,99999,99999
19:23:19,1510826460,2017-11-16T10:01:05,0.708,866.0,5.78,3.17,7.22,826.610,2038.090,102.083336,40.81,2.5437,363,23360,1.79982,3.91,45095,,,,,,,,,,,,,,,,,,99999,99999,99999,99999,99999,99999,99999,99999,99999,99999,99999,99999
19:23:49,1510826490,2017-11-16T10:01:35,0.710,866.3,5.76,3.21,7.23,826.460,2037.990,102.266670,40.67,2.5437,363,23363,1.80681,3.91,45091,,,,,,,,,,,,,,,,,,99999,99999,99999,99999,99999,99999,99999,99999,99999,99999,99999,99999
19:24:19,1510826520,2017-11-16T10:02:05,0.708,866.7,5.76,3.17,7.22,826.440,2037.990,100.833336,40.60,2.5438,363,23362,1.80215,3.91,45086,,,,,,,,,,,,,,,,,,99999,99999,99999,99999,99999,99999,99999,99999,99999,99999,99999,99999
19:24:49,1510826550,2017-11-16T10:02:35,0.713,867.0,5.76,3.23,7.26,826.400,2037.990,104.050003,40.67,2.5437,363,23362,1.81412,3.91,45082,,,,,,,,,,,,,,,,,,99999,99999,99999,99999,99999,99999,99999,99999,99999,99999,99999,99999
19:25:19,1510826580,2017-11-16T10:03:05,0.712,867.4,5.75,3.22,7.20,826.490,2037.990,103.666664,41.34,2.5438,363,23362,1.81236,3.91,45077,,,,,,,,,,,,,,,,,,99999,99999,99999,99999,99999,99999,99999,99999,99999,99999,99999,99999
19:25:49,1510826610,2017-11-16T10:03:35,0.707,867.7,5.74,3.21,7.20,826.330,2037.930,102.400002,41.19,2.5438,363,23360,1.79807,3.91,45073,,,,,,,,,,,,,,,,,,99999,99999,99999,99999,99999,99999,99999,99999,99999,99999,99999,99999
19:26:19,1510826640,2017-11-16T10:04:05,0.709,868.1,5.74,3.20,7.22,826.350,2037.930,102.599998,40.99,2.5438,363,23362,1.80448,3.91,45068,,,,,,,,,,,,,,,,,,99999,99999,99999,99999,99999,99999,99999,99999,99999,99999,99999,99999
19:26:49,1510826670,2017-11-16T10:04:35,0.715,868.5,5.74,3.19,7.20,826.330,2037.930,103.283333,40.87,2.5439,363,23362,1.81822,3.91,45064,,,,,,,,,,,,,,,,,,99999,99999,99999,99999,99999,99999,99999,99999,99999,99999,99999,99999
19:27:19,1510826700,2017-11-16T10:05:05,0.709,868.8,5.74,3.20,7.20,826.350,2037.930,101.800003,41.14,2.5438,363,23359,1.80302,3.91,45059,,,,,,,,,,,,,,,,,,99999,99999,99999,99999,99999,99999,99999,99999,99999,99999,99999,99999
19:27:49,1510826730,2017-11-16T10:05:35,0.708,869.2,5.73,3.21,7.22,826.330,2037.930,101.683334,41.29,2.5439,363,23360,1.80040,3.91,45055,,,,,,,,,,,,,,,,,,99999,99999,99999,99999,99999,99999,99999,99999,99999,99999,99999,99999
19:28:19,1510826760,2017-11-16T10:06:05,0.712,869.5,5.72,3.18,7.18,826.360,2037.820,103.916664,41.02,2.5439,363,23363,1.81236,3.91,45051,,,,,,,,,,,,,,,,,,99999,99999,99999,99999,99999,99999,99999,99999,99999,99999,99999,99999
19:28:49,1510826790,2017-11-16T10:06:35,0.711,869.9,5.71,3.17,7.18,826.310,2037.820,103.400002,41.24,2.5440,363,23357,1.81003,3.91,45046,,,,,,,,,,,,,,,,,,99999,99999,99999,99999,99999,99999,99999,99999,99999,99999,99999,99999
19:29:19,1510826820,2017-11-16T10:07:05,0.710,870.2,5.72,3.19,7.20,826.480,2037.820,101.750000,41.29,2.5439,363,23358,1.80565,3.91,45042,,,,,,,,,,,,,,,,,,99999,99999,99999,99999,99999,99999,99999,99999,99999,99999,99999,99999
19:29:49,1510826850,2017-11-16T10:07:35,0.711,870.6,5.70,3.14,7.18,826.480,2037.760,103.166664,41.07,2.5440,363,23363,1.80769,3.91,45037,,,,,,,,,,,,,,,,,,99999,99999,99999,99999,99999,99999,99999,99999,99999,99999,99999,99999
19:30:19,1510826880,2017-11-16T10:08:05,0.707,870.9,5.70,3.16,7.16,826.450,2037.760,103.099998,41.37,2.5440,363,23361,1.79894,3.91,45033,,,,,,,,,,,,,,,,,,99999,99999,99999,99999,99999,99999,99999,99999,99999,99999,99999,99999
19:30:49,1510826910,2017-11-16T10:08:35,0.713,871.3,5.69,3.16,7.16,826.340,2037.760,102.116669,41.00,2.5441,363,23360,1.81441,3.91,45028,,,,,,,,,,,,,,,,,,99999,99999,99999,99999,99999,99999,99999,99999,99999,99999,99999,99999
19:31:19,1510826940,2017-11-16T10:09:05,0.709,871.6,5.69,3.15,7.15,826.270,2037.760,102.833336,40.42,2.5441,363,23358,1.80477,3.91,45024,,,,,,,,,,,,,,,,,,99999,99999,99999,99999,99999,99999,99999,99999,99999,99999,99999,99999
19:31:49,1510826970,2017-11-16T10:09:35,0.709,872.0,5.68,3.14,7.14,826.180,2037.720,100.716667,40.29,2.5442,363,23357,1.80506,3.91,45020,,,,,,,,,,,,,,,,,,99999,99999,99999,99999,99999,99999,99999,99999,99999,99999,99999,99999
19:32:19,1510827000,2017-11-16T10:10:05,0.710,872.4,5.68,3.15,7.12,826.160,2037.720,104.183334,40.66,2.5442,363,23357,1.80536,3.91,45015,,,,,,,,,,,,,,,,,,99999,99999,99999,99999,99999,99999,99999,99999,99999,99999,99999,99999
19:32:49,1510827030,2017-11-16T10:10:35,0.710,872.7,5.67,3.17,7.14,826.120,2037.720,102.000000,40.70,2.5442,363,23357,1.80652,3.91,45011,,,,,,,,,,,,,,,,,,99999,99999,99999,99999,99999,99999,99999,99999,99999,99999,99999,99999
19:33:19,1510827060,2017-11-16T10:11:05,0.708,873.1,5.68,3.15,7.14,826.180,2037.720,101.800003,40.62,2.5442,363,23360,1.80127,3.91,45006,,,,,,,,,,,,,,,,,,99999,99999,99999,99999,99999,99999,99999,99999,99999,99999,99999,99999
19:33:49,1510827090,2017-11-16T10:11:35,0.712,873.4,5.68,3.16,7.12,826.270,2037.720,104.699997,40.73,2.5441,363,23359,1.81061,3.91,45002,,,,,,,,,,,,,,,,,,99999,99999,99999,99999,99999,99999,99999,99999,99999,99999,99999,99999
19:34:19,1510827120,2017-11-16T10:12:05,0.707,873.8,5.67,3.15,7.12,826.280,2037.720,101.966667,40.81,2.5442,363,23358,1.79836,3.91,44997,,,,,,,,,,,,,,,,,,99999,99999,99999,99999,99999,99999,99999,99999,99999,99999,99999,99999
19:34:49,1510827150,2017-11-16T10:12:35,0.705,874.1,5.66,3.14,7.10,826.290,2037.650,102.083336,40.69,2.5442,363,23359,1.79255,3.91,44993,,,,,,,,,,,,,,,,,,99999,99999,99999,99999,99999,99999,99999,99999,99999,99999,99999,99999
19:35:19,1510827180,2017-11-16T10:13:05,0.706,874.5,5.66,3.16,7.15,826.320,2037.650,102.766670,40.81,2.5442,363,23357,1.79545,3.91,44989,,,,,,,,,,,,,,,,,,99999,99999,99999,99999,99999,99999,99999,99999,99999,99999,99999,99999
19:35:49,1510827210,2017-11-16T10:13:35,0.706,874.8,5.66,3.17,7.16,826.320,2037.650,101.066666,40.59,2.5443,363,23357,1.79632,3.91,44984,,,,,,,,,,,,,,,,,,99999,99999,99999,99999,99999,99999,99999,99999,99999,99999,99999,99999
19:36:19,1510827240,2017-11-16T10:14:05,0.706,875.2,5.66,3.13,7.14,826.370,2037.650,101.300003,40.62,2.5443,363,23356,1.79662,3.91,44980,,,,,,,,,,,,,,,,,,99999,99999,99999,99999,99999,99999,99999,99999,99999,99999,99999,99999
19:36:49,1510827270,2017-11-16T10:14:35,0.706,875.6,5.66,3.12,7.12,826.350,2037.650,102.500000,40.85,2.5442,363,23362,1.79691,3.91,44975,,,,,,,,,,,,,,,,,,99999,99999,99999,99999,99999,99999,99999,99999,99999,99999,99999,99999
19:37:19,1510827300,2017-11-16T10:15:05,0.710,875.9,5.66,3.14,7.12,826.320,2037.650,102.183334,41.01,2.5442,363,23358,1.80623,3.91,44971,,,,,,,,,,,,,,,,,,99999,99999,99999,99999,99999,99999,99999,99999,99999,99999,99999,99999
19:37:49,1510827330,2017-11-16T10:15:35,0.707,876.3,5.66,3.13,7.12,826.240,2037.650,102.383331,40.97,2.5442,363,23358,1.79807,3.91,44966,,,,,,,,,,,,,,,,,,99999,99999,99999,99999,99999,99999,99999,99999,99999,99999,99999,99999
19:38:19,1510827360,2017-11-16T10:16:05,0.712,876.6,5.67,3.10,7.10,826.240,2037.720,104.083336,40.78,2.5442,363,23358,1.81149,3.91,44962,,,,,,,,,,,,,,,,,,99999,99999,99999,99999,99999,99999,99999,99999,99999,99999,99999,99999
19:38:49,1510827390,2017-11-16T10:16:35,0.708,877.0,5.67,3.13,7.12,826.140,2037.720,101.583336,41.24,2.5442,363,23360,1.80011,3.91,44958,,,,,,,,,,,,,,,,,,99999,99999,99999,99999,99999,99999,99999,99999,99999,99999,99999,99999
19:39:19,1510827420,2017-11-16T10:17:05,0.706,877.3,5.67,3.13,7.14,826.190,2037.720,101.016670,41.07,2.5442,363,23356,1.79516,3.91,44953,,,,,,,,,,,,,,,,,,99999,99999,99999,99999,99999,99999,99999,99999,99999,99999,99999,99999
19:39:49,1510827450,2017-11-16T10:17:35,0.705,877.7,5.68,3.18,7.12,826.210,2037.720,102.133331,40.99,2.5441,363,23359,1.79429,3.91,44949,,,,,,,,,,,,,,,,,,99999,99999,99999,99999,99999,99999,99999,99999,99999,99999,99999,99999
19:40:19,1510827480,2017-11-16T10:18:05,0.711,878.0,5.67,3.16,7.12,826.280,2037.720,103.650002,40.94,2.5442,363,23358,1.80915,3.91,44944,,,,,,,,,,,,,,,,,,99999,99999,99999,99999,99999,99999,99999,99999,99999,99999,99999,99999
19:40:49,1510827510,2017-11-16T10:18:35,0.714,878.4,5.68,3.16,7.14,826.340,2037.720,102.599998,41.08,2.5441,363,23359,1.81558,3.91,44940,,,,,,,,,,,,,,,,,,99999,99999,99999,99999,99999,99999,99999,99999,99999,99999,99999,99999
19:41:19,1510827540,2017-11-16T10:19:05,0.713,878.7,5.68,3.15,7.16,826.550,2037.720,102.516670,41.09,2.5441,363,23358,1.81324,3.91,44935,,,,,,,,,,,,,,,,,,99999,99999,99999,99999,99999,99999,99999,99999,99999,99999,99999,99999
19:41:49,1510827570,2017-11-16T10:19:35,0.707,879.1,5.69,3.13,7.14,826.550,2037.760,101.333336,41.08,2.5441,363,23359,1.79924,3.91,44931,,,,,,,,,,,,,,,,,,99999,99999,99999,99999,99999,99999,99999,99999,99999,99999,99999,99999
19:42:19,1510827600,2017-11-16T10:20:05,0.706,879.5,5.69,3.18,7.15,826.530,2037.760,102.000000,40.91,2.5441,363,23362,1.79662,3.91,44926,,,,,,,,,,,,,,,,,,99999,99999,99999,99999,99999,99999,99999,99999,99999,99999,99999,99999
19:42:49,1510827630,2017-11-16T10:20:35,0.710,879.8,5.69,3.16,7.15,826.550,2037.760,102.133331,41.01,2.5441,363,23356,1.80536,3.91,44922,,,,,,,,,,,,,,,,,,99999,99999,99999,99999,99999,99999,99999,99999,99999,99999,99999,99999
19:43:19,1510827660,2017-11-16T10:21:05,0.713,880.2,5.69,3.16,7.15,826.430,2037.760,102.849998,40.81,2.5441,363,23356,1.81383,3.91,44918,,,,,,,,,,,,,,,,,,99999,99999,99999,99999,99999,99999,99999,99999,99999,99999,99999,99999
19:43:49,1510827690,2017-11-16T10:21:35,0.705,880.5,5.69,3.15,7.16,826.430,2037.760,102.083336,40.77,2.5441,363,23359,1.79458,3.91,44913,,,,,,,,,,,,,,,,,,99999,99999,99999,99999,99999,99999,99999,99999,99999,99999,99999,99999
19:44:19,1510827720,2017-11-16T10:22:05,0.713,880.9,5.70,3.16,7.14,826.290,2037.760,103.883331,40.77,2.5440,363,23358,1.81354,3.91,44909,,,,,,,,,,,,,,,,,,99999,99999,99999,99999,99999,99999,99999,99999,99999,99999,99999,99999
19:44:49,1510827750,2017-11-16T10:22:35,0.712,881.2,5.70,3.16,7.16,826.270,2037.760,102.033333,40.62,2.5440,363,23360,1.81236,3.91,44904,,,,,,,,,,,,,,,,,,99999,99999,99999,99999,99999,99999,99999,99999,99999,99999,99999,99999
19:45:19,1510827780,2017-11-16T10:23:05,0.708,881.6,5.71,3.15,7.20,826.150,2037.820,101.300003,40.57,2.5440,363,23358,1.80098,3.91,44900,,,,,,,,,,,,,,,,,,99999,99999,99999,99999,99999,99999,99999,99999,99999,99999,99999,99999
19:45:49,1510827810,2017-11-16T10:23:35,0.710,881.9,5.70,3.17,7.16,826.130,2037.760,102.900002,40.48,2.5440,363,23356,1.80623,3.91,44895,,,,,,,,,,,,,,,,,,99999,99999,99999,99999,99999,99999,99999,99999,99999,99999,99999,99999
19:46:19,1510827840,2017-11-16T10:24:05,0.709,882.3,5.72,3.17,7.16,826.180,2037.820,102.966667,41.13,2.5439,363,23360,1.80361,3.91,44891,,,,,,,,,,,,,,,,,,99999,99999,99999,99999,99999,99999,99999,99999,99999,99999,99999,99999
19:46:49,1510827870,2017-11-16T10:24:35,0.712,882.7,5.72,3.19,7.16,826.150,2037.820,102.983330,41.02,2.5439,363,23361,1.81178,3.91,44887,,,,,,,,,,,,,,,,,,99999,99999,99999,99999,99999,99999,99999,99999,99999,99999,99999,99999
19:47:19,1510827900,2017-11-16T10:25:05,0.709,883.0,5.70,3.18,7.18,826.110,2037.760,102.966667,40.92,2.5440,363,23359,1.80477,3.91,44882,,,,,,,,,,,,,,,,,,99999,99999,99999,99999,99999,99999,99999,99999,99999,99999,99999,99999
19:47:49,1510827930,2017-11-16T10:25:35,0.709,883.4,5.70,3.16,7.15,826.080,2037.760,103.349998,40.82,2.5440,363,23357,1.80331,3.91,44878,,,,,,,,,,,,,,,,,,99999,99999,99999,99999,99999,99999,99999,99999,99999,99999,99999,99999
19:48:19,1510827960,2017-11-16T10:26:05,0.708,883.7,5.69,3.16,7.18,826.130,2037.760,102.166664,40.75,2.5441,363,23359,1.80157,3.91,44873,,,,,,,,,,,,,,,,,,99999,99999,99999,99999,99999,99999,99999,99999,99999,99999,99999,99999
19:48:49,1510827990,2017-11-16T10:26:35,0.706,884.1,5.69,3.14,7.16,826.210,2037.760,101.550003,40.78,2.5441,363,23362,1.79603,3.91,44869,,,,,,,,,,,,,,,,,,99999,99999,99999,99999,99999,99999,99999,99999,99999,99999,99999,99999
19:49:19,1510828020,2017-11-16T10:27:05,0.713,884.4,5.68,3.13,7.15,826.210,2037.720,102.000000,40.65,2.5442,363,23359,1.81500,3.91,44864,,,,,,,,,,,,,,,,,,99999,99999,99999,99999,99999,99999,99999,99999,99999,99999,99999,99999
19:49:49,1510828050,2017-11-16T10:27:35,0.706,884.8,5.68,3.11,7.12,826.290,2037.720,102.133331,40.56,2.5442,363,23358,1.79574,3.91,44860,,,,,,,,,,,,,,,,,,99999,99999,99999,99999,99999,99999,99999,99999,99999,99999,99999,99999
19:50:19,1510828080,2017-11-16T10:28:05,0.711,885.1,5.68,3.11,7.15,826.370,2037.720,101.383331,40.82,2.5441,363,23357,1.80886,3.91,44855,,,,,,,,,,,,,,,,,,99999,99999,99999,99999,99999,99999,99999,99999,99999,99999,99999,99999
19:50:49,1510828110,2017-11-16T10:28:35,0.706,885.5,5.67,3.10,7.14,826.400,2037.720,100.666664,41.08,2.5442,363,23360,1.79603,3.91,44851,,,,,,,,,,,,,,,,,,99999,99999,99999,99999,99999,99999,99999,99999,99999,99999,99999,99999
19:51:19,1510828140,2017-11-16T10:29:05,0.713,885.8,5.67,3.11,7.15,826.320,2037.720,102.833336,41.02,2.5442,363,23359,1.81383,3.91,44847,,,,,,,,,,,,,,,,,,99999,99999,99999,99999,99999,99999,99999,99999,99999,99999,99999,99999
19:51:49,1510828170,2017-11-16T10:29:35,0.714,886.2,5.66,3.11,7.14,826.290,2037.650,102.516670,41.02,2.5442,363,23356,1.81617,3.91,44842,,,,,,,,,,,,,,,,,,99999,99999,99999,99999,99999,99999,99999,99999,99999,99999,99999,99999
19:52:19,1510828200,2017-11-16T10:30:05,0.705,886.6,5.66,3.08,7.12,826.320,2037.650,102.150002,40.78,2.5442,363,23357,1.79400,3.91,44838,,,,,,,,,,,,,,,,,,99999,99999,99999,99999,99999,99999,99999,99999,99999,99999,99999,99999
19:52:49,1510828230,2017-11-16T10:30:35,0.709,886.9,5.66,3.13,7.14,826.290,2037.650,101.266670,40.87,2.5442,363,23359,1.80506,3.91,44833,,,,,,,,,,,,,,,,,,99999,99999,99999,99999,99999,99999,99999,99999,99999,99999,99999,99999
19:53:19,1510828260,2017-11-16T10:31:05,0.706,887.3,5.65,3.08,7.10,826.320,2037.590,101.983330,40.91,2.5443,363,23356,1.79749,3.91,44829,,,,,,,,,,,,,,,,,,99999,99999,99999,99999,99999,99999,99999,99999,99999,99999,99999,99999
19:53:49,1510828290,2017-11-16T10:31:35,0.706,887.6,5.66,3.11,7.12,826.220,2037.650,102.083336,40.82,2.5442,363,23359,1.79662,3.91,44824,,,,,,,,,,,,,,,,,,99999,99999,99999,99999,99999,99999,99999,99999,99999,99999,99999,99999
19:54:19,1510828320,2017-11-16T10:32:05,0.712,888.0,5.65,3.08,7.09,826.170,2037.590,102.949997,40.87,2.5443,363,23358,1.81266,3.91,44820,,,,,,,,,,,,,,,,,,99999,99999,99999,99999,99999,99999,99999,99999,99999,99999,99999,99999
19:54:49,1510828350,2017-11-16T10:32:35,0.712,888.3,5.65,3.09,7.12,826.170,2037.590,102.750000,40.76,2.5443,363,23357,1.81266,3.91,44815,,,,,,,,,,,,,,,,,,99999,99999,99999,99999,99999,99999,99999,99999,99999,99999,99999,99999
19:55:19,1510828380,2017-11-16T10:33:05,0.711,888.7,5.67,3.11,7.15,826.160,2037.720,102.366669,40.68,2.5442,363,23360,1.80886,3.91,44811,,,,,,,,,,,,,,,,,,99999,99999,99999,99999,99999,99999,99999,99999,99999,99999,99999,99999
19:55:49,1510828410,2017-11-16T10:33:35,0.707,889.0,5.67,3.09,7.15,826.080,2037.720,102.083336,41.16,2.5442,363,23356,1.79836,3.91,44807,,,,,,,,,,,,,,,,,,99999,99999,99999,99999,99999,99999,99999,99999,99999,99999,99999,99999
19:56:19,1510828440,2017-11-16T10:34:05,0.709,889.4,5.67,3.11,7.12,826.140,2037.720,102.766670,41.26,2.5442,363,23357,1.80448,3.91,44802,,,,,,,,,,,,,,,,,,99999,99999,99999,99999,99999,99999,99999,99999,99999,99999,99999,99999
19:56:49,1510828470,2017-11-16T10:34:35,0.705,889.8,5.67,3.10,7.14,826.120,2037.720,102.066666,41.16,2.5442,363,23355,1.79313,3.91,44798,,,,,,,,,,,,,,,,,,99999,99999,99999,99999,99999,99999,99999,99999,99999,99999,99999,99999
19:57:19,1510828500,2017-11-16T10:35:05,0.708,890.1,5.66,3.10,7.14,826.160,2037.650,101.599998,41.18,2.5442,363,23356,1.80040,3.91,44793,,,,,,,,,,,,,,,,,,99999,99999,99999,99999,99999,99999,99999,99999,99999,99999,99999,99999
19:57:49,1510828530,2017-11-16T10:35:35,0.713,890.5,5.67,3.08,7.12,826.120,2037.720,103.250000,41.11,2.5442,363,23355,1.81529,3.90,44789,,,,,,,,,,,,,,,,,,99999,99999,99999,99999,99999,99999,99999,99999,99999,99999,99999,99999
19:58:19,1510828560,2017-11-16T10:36:05,0.706,890.8,5.67,3.09,7.14,826.120,2037.720,101.783333,41.03,2.5442,363,23356,1.79603,3.90,44784,,,,,,,,,,,,,,,,,,99999,99999,99999,99999,99999,99999,99999,99999,99999,99999,99999,99999
19:58:49,1510828590,2017-11-16T10:36:35,0.710,891.2,5.66,3.08,7.12,826.240,2037.650,102.966667,41.12,2.5442,363,23359,1.80711,3.90,44780,,,,,,,,,,,,,,,,,,99999,99999,99999,99999,99999,99999,99999,99999,99999,99999,99999,99999
19:59:19,1510828620,2017-11-16T10:37:05,0.706,891.5,5.65,3.10,7.12,826.260,2037.590,102.599998,41.22,2.5442,363,23356,1.79545,3.90,44776,,,,,,,,,,,,,,,,,,99999,99999,99999,99999,99999,99999,99999,99999,99999,99999,99999,99999
19:59:49,1510828650,2017-11-16T10:37:35,0.711,891.9,5.65,3.08,7.12,826.300,2037.590,103.500000,41.24,2.5442,363,23355,1.80915,3.90,44771,,,,,,,,,,,,,,,,,,99999,99999,99999,99999,99999,99999,99999,99999,99999,99999,99999,99999
20:00:19,1510828680,2017-11-16T10:38:05,0.706,892.2,5.64,3.09,7.09,826.280,2037.590,101.166664,41.46,2.5443,363,23356,1.79545,3.90,44767,,,,,,,,,,,,,,,,,,99999,99999,99999,99999,99999,99999,99999,99999,99999,99999,99999,99999
20:00:49,1510828710,2017-11-16T10:38:35,0.710,892.6,5.63,3.11,7.09,826.290,2037.550,102.366669,41.07,2.5444,363,23355,1.80565,3.90,44762,,,,,,,,,,,,,,,,,,99999,99999,99999,99999,99999,99999,99999,99999,99999,99999,99999,99999
20:01:19,1510828740,2017-11-16T10:39:05,0.706,892.9,5.63,3.08,7.09,826.170,2037.550,100.949997,41.17,2.5444,363,23354,1.79662,3.90,44758,,,,,,,,,,,,,,,,,,99999,99999,99999,99999,99999,99999,99999,99999,99999,99999,99999,99999
20:01:49,1510828770,2017-11-16T10:39:35,0.710,893.3,5.64,3.08,7.12,826.220,2037.590,103.250000,41.00,2.5443,363,23355,1.80623,3.90,44753,,,,,,,,,,,,,,,,,,99999,99999,99999,99999,99999,99999,99999,99999,99999,99999,99999,99999
20:02:19,1510828800,2017-11-16T10:40:05,0.708,893.7,5.62,3.06,7.07,826.170,2037.550,101.083336,41.28,2.5445,363,23354,1.80157,3.90,44749,,,,,,,,,,,,,,,,,,99999,99999,99999,99999,99999,99999,99999,99999,99999,99999,99999,99999
20:02:49,1510828830,2017-11-16T10:40:35,0.711,894.0,5.63,3.04,7.05,826.130,2037.550,102.900002,41.48,2.5444,363,23355,1.80886,3.90,44744,,,,,,,,,,,,,,,,,,99999,99999,99999,99999,99999,99999,99999,99999,99999,99999,99999,99999
20:03:19,1510828860,2017-11-16T10:41:05,0.705,894.4,5.63,3.06,7.09,826.040,2037.550,102.633331,41.24,2.5444,363,23357,1.79429,3.90,44740,,,,,,,,,,,,,,,,,,99999,99999,99999,99999,99999,99999,99999,99999,99999,99999,99999,99999
20:03:49,1510828890,2017-11-16T10:41:35,0.712,894.7,5.62,3.05,7.09,826.140,2037.550,103.283333,40.97,2.5445,363,23356,1.81149,3.90,44736,,,,,,,,,,,,,,,,,,99999,99999,99999,99999,99999,99999,99999,99999,99999,99999,99999,99999
20:04:19,1510828920,2017-11-16T10:42:05,0.707,895.1,5.61,3.05,7.07,826.070,2037.490,101.650002,40.84,2.5445,363,23355,1.79894,3.90,44731,,,,,,,,,,,,,,,,,,99999,99999,99999,99999,99999,99999,99999,99999,99999,99999,99999,99999
20:04:49,1510828950,2017-11-16T10:42:35,0.710,895.4,5.60,3.03,7.07,826.070,2037.490,102.050003,40.91,2.5446,363,23356,1.80681,3.90,44727,,,,,,,,,,,,,,,,,,99999,99999,99999,99999,99999,99999,99999,99999,99999,99999,99999,99999
20:05:19,1510828980,2017-11-16T10:43:05,0.711,895.8,5.59,3.03,7.07,826.110,2037.380,103.866669,40.71,2.5446,363,23356,1.81032,3.90,44722,,,,,,,,,,,,,,,,,,99999,99999,99999,99999,99999,99999,99999,99999,99999,99999,99999,99999
20:05:49,1510829010,2017-11-16T10:43:35,0.709,896.1,5.57,3.02,7.05,826.030,2037.320,103.333336,40.65,2.5447,363,23351,1.80536,3.90,44718,,,,,,,,,,,,,,,,,,99999,99999,99999,99999,99999,99999,99999,99999,99999,99999,99999,99999
20:06:19,1510829040,2017-11-16T10:44:05,0.709,896.5,5.57,2.99,7.04,826.130,2037.320,103.733330,40.70,2.5447,363,23356,1.80477,3.90,44713,,,,,,,,,,,,,,,,,,99999,99999,99999,99999,99999,99999,99999,99999,99999,99999,99999,99999
20:06:49,1510829070,2017-11-16T10:44:35,0.706,896.8,5.55,3.02,7.01,826.170,2037.280,101.550003,40.82,2.5448,363,23354,1.79545,3.90,44709,,,,,,,,,,,,,,,,,,99999,99999,99999,99999,99999,99999,99999,99999,99999,99999,99999,99999
20:07:19,1510829100,2017-11-16T10:45:05,0.708,897.2,5.55,2.98,7.01,826.140,2037.280,101.533333,41.01,2.5448,363,23354,1.80186,3.90,44704,,,,,,,,,,,,,,,,,,99999,99999,99999,99999,99999,99999,99999,99999,99999,99999,99999,99999
20:07:49,1510829130,2017-11-16T10:45:35,0.706,897.6,5.53,3.00,7.02,826.130,2037.220,100.633331,41.39,2.5449,363,23353,1.79662,3.90,44700,,,,,,,,,,,,,,,,,,99999,99999,99999,99999,99999,99999,99999,99999,99999,99999,99999,99999
20:08:19,1510829160,2017-11-16T10:46:05,0.711,897.9,5.53,2.99,7.02,826.170,2037.220,103.833336,41.47,2.5449,363,23352,1.81061,3.90,44696,,,,,,,,,,,,,,,,,,99999,99999,99999,99999,99999,99999,99999,99999,99999,99999,99999,99999
20:08:49,1510829190,2017-11-16T10:46:35,0.710,898.3,5.53,2.97,6.99,826.220,2037.220,102.133331,41.24,2.5449,363,23352,1.80681,3.90,44691,,,,,,,,,,,,,,,,,,99999,99999,99999,99999,99999,99999,99999,99999,99999,99999,99999,99999
20:09:19,1510829220,2017-11-16T10:47:05,0.705,898.6,5.51,2.97,6.99,826.150,2037.150,100.766670,40.91,2.5450,363,23350,1.79516,3.90,44687,,,,,,,,,,,,,,,,,,99999,99999,99999,99999,99999,99999,99999,99999,99999,99999,99999,99999
20:09:49,1510829250,2017-11-16T10:47:35,0.708,899.0,5.51,2.99,6.97,826.200,2037.150,102.583336,41.18,2.5450,363,23353,1.80127,3.90,44682,,,,,,,,,,,,,,,,,,99999,99999,99999,99999,99999,99999,99999,99999,99999,99999,99999,99999
20:10:19,1510829280,2017-11-16T10:48:05,0.713,899.3,5.51,2.94,6.99,826.230,2037.150,102.383331,41.10,2.5450,363,23354,1.81412,3.90,44678,,,,,,,,,,,,,,,,,,99999,99999,99999,99999,99999,99999,99999,99999,99999,99999,99999,99999
20:10:49,1510829310,2017-11-16T10:48:35,0.710,899.7,5.51,2.97,6.95,826.290,2037.150,101.133331,41.26,2.5450,363,23354,1.80740,3.90,44673,,,,,,,,,,,,,,,,,,99999,99999,99999,99999,99999,99999,99999,99999,99999,99999,99999,99999
20:11:19,1510829340,2017-11-16T10:49:05,0.705,900.0,5.51,2.96,6.95,826.260,2037.150,101.933334,41.14,2.5450,363,23353,1.79342,3.90,44669,,,,,,,,,,,,,,,,,,99999,99999,99999,99999,99999,99999,99999,99999,99999,99999,99999,99999
20:11:49,1510829370,2017-11-16T10:49:35,0.712,900.4,5.49,2.97,6.97,826.200,2037.110,102.250000,41.28,2.5451,363,23352,1.81236,3.90,44665,,,,,,,,,,,,,,,,,,99999,99999,99999,99999,99999,99999,99999,99999,99999,99999,99999,99999
20:12:19,1510829400,2017-11-16T10:50:05,0.705,900.7,5.51,2.97,7.01,826.290,2037.150,101.133331,41.29,2.5450,363,23353,1.79458,3.90,44660,,,,,,,,,,,,,,,,,,99999,99999,99999,99999,99999,99999,99999,99999,99999,99999,99999,99999
20:12:49,1510829430,2017-11-16T10:50:35,0.712,901.1,5.51,2.97,6.97,826.200,2037.150,103.383331,41.13,2.5450,363,23353,1.81236,3.90,44656,,,,,,,,,,,,,,,,,,99999,99999,99999,99999,99999,99999,99999,99999,99999,99999,99999,99999
20:13:19,1510829460,2017-11-16T10:51:05,0.709,901.5,5.53,3.00,6.99,826.190,2037.220,102.633331,40.99,2.5449,363,23354,1.80477,3.90,44651,,,,,,,,,,,,,,,,,,99999,99999,99999,99999,99999,99999,99999,99999,99999,99999,99999,99999
20:13:49,1510829490,2017-11-16T10:51:35,0.708,901.8,5.53,3.01,6.94,826.170,2037.220,101.833336,41.38,2.5449,363,23352,1.80244,3.90,44647,,,,,,,,,,,,,,,,,,99999,99999,99999,99999,99999,99999,99999,99999,99999,99999,99999,99999
20:14:19,1510829520,2017-11-16T10:52:05,0.713,902.2,5.52,2.97,6.99,826.200,2037.150,102.983330,41.55,2.5449,363,23354,1.81354,3.90,44642,,,,,,,,,,,,,,,,,,99999,99999,99999,99999,99999,99999,99999,99999,99999,99999,99999,99999
20:14:49,1510829550,2017-11-16T10:52:35,0.706,902.5,5.52,3.00,6.99,826.150,2037.150,101.516670,41.44,2.5449,363,23354,1.79662,3.90,44638,,,,,,,,,,,,,,,,,,99999,99999,99999,99999,99999,99999,99999,99999,99999,99999,99999,99999
20:15:19,1510829580,2017-11-16T10:53:05,0.711,902.9,5.53,3.00,7.02,826.220,2037.220,103.033333,41.15,2.5449,363,23355,1.80828,3.90,44634,,,,,,,,,,,,,,,,,,99999,99999,99999,99999,99999,99999,99999,99999,99999,99999,99999,99999
20:15:49,1510829610,2017-11-16T10:53:35,0.710,903.2,5.54,2.99,6.99,826.280,2037.220,102.900002,40.92,2.5448,363,23352,1.80740,3.90,44629,,,,,,,,,,,,,,,,,,99999,99999,99999,99999,99999,99999,99999,99999,99999,99999,99999,99999
20:16:19,1510829640,2017-11-16T10:54:05,0.711,903.6,5.53,3.00,6.99,826.220,2037.220,103.266670,40.77,2.5449,363,23356,1.80915,3.90,44625,,,,,,,,,,,,,,,,,,99999,99999,99999,99999,99999,99999,99999,99999,99999,99999,99999,99999
20:16:49,1510829670,2017-11-16T10:54:35,0.707,903.9,5.53,2.98,7.01,826.280,2037.220,100.750000,41.10,2.5449,363,23352,1.79953,3.90,44620,,,,,,,,,,,,,,,,,,99999,99999,99999,99999,99999,99999,99999,99999,99999,99999,99999,99999
20:17:19,1510829700,2017-11-16T10:55:05,0.711,904.3,5.53,3.00,6.99,826.280,2037.220,103.083336,40.89,2.5449,363,23354,1.81003,3.90,44616,,,,,,,,,,,,,,,,,,99999,99999,99999,99999,99999,99999,99999,99999,99999,99999,99999,99999
20:17:49,1510829730,2017-11-16T10:55:35,0.710,904.6,5.54,2.99,6.99,826.220,2037.220,102.133331,40.92,2.5448,363,23353,1.80769,3.90,44611,,,,,,,,,,,,,,,,,,99999,99999,99999,99999,99999,99999,99999,99999,99999,99999,99999,99999
20:18:19,1510829760,2017-11-16T10:56:05,0.707,905.0,5.54,3.04,6.99,826.190,2037.220,101.883331,40.99,2.5448,363,23353,1.79865,3.90,44607,,,,,,,,,,,,,,,,,,99999,99999,99999,99999,99999,99999,99999,99999,99999,99999,99999,99999
20:18:49,1510829790,2017-11-16T10:56:35,0.711,905.3,5.55,2.99,6.99,826.280,2037.280,103.000000,41.17,2.5448,363,23356,1.81061,3.90,44603,,,,,,,,,,,,,,,,,,99999,99999,99999,99999,99999,99999,99999,99999,99999,99999,99999,99999
20:19:19,1510829820,2017-11-16T10:57:05,0.706,905.7,5.56,2.99,6.99,826.220,2037.320,101.500000,40.83,2.5448,363,23354,1.79632,3.90,44598,,,,,,,,,,,,,,,,,,99999,99999,99999,99999,99999,99999,99999,99999,99999,99999,99999,99999
20:19:49,1510829850,2017-11-16T10:57:35,0.706,906.1,5.55,3.01,7.01,826.170,2037.280,101.433334,40.85,2.5448,363,23354,1.79603,3.90,44594,,,,,,,,,,,,,,,,,,99999,99999,99999,99999,99999,99999,99999,99999,99999,99999,99999,99999
20:20:19,1510829880,2017-11-16T10:58:05,0.712,906.4,5.55,3.00,7.02,826.220,2037.280,103.366669,41.10,2.5448,363,23353,1.81120,3.90,44589,,,,,,,,,,,,,,,,,,99999,99999,99999,99999,99999,99999,99999,99999,99999,99999,99999,99999
20:20:49,1510829910,2017-11-16T10:58:35,0.712,906.8,5.56,3.00,6.99,826.190,2037.320,103.516670,41.08,2.5447,363,23355,1.81061,3.90,44585,,,,,,,,,,,,,,,,,,99999,99999,99999,99999,99999,99999,99999,99999,99999,99999,99999,99999
20:21:19,1510829940,2017-11-16T10:59:05,0.705,907.1,5.57,3.03,7.01,826.120,2037.320,101.366669,41.31,2.5446,363,23353,1.79487,3.90,44580,,,,,,,,,,,,,,,,,,99999,99999,99999,99999,99999,99999,99999,99999,99999,99999,99999,99999
20:21:49,1510829970,2017-11-16T10:59:35,0.708,907.5,5.57,3.00,7.05,826.190,2037.320,102.516670,41.52,2.5446,363,23354,1.80244,3.90,44576,,,,,,,,,,,,,,,,,,99999,99999,99999,99999,99999,99999,99999,99999,99999,99999,99999,99999
20:22:19,1510830000,2017-11-16T11:00:05,0.709,907.8,5.57,3.03,7.02,826.210,2037.320,102.900002,41.11,2.5447,363,23355,1.80390,3.90,44572,,,,,,,,,,,,,,,,,,99999,99999,99999,99999,99999,99999,99999,99999,99999,99999,99999,99999
20:22:49,1510830030,2017-11-16T11:00:35,0.708,908.2,5.55,3.01,7.04,826.140,2037.280,103.233330,41.24,2.5448,363,23354,1.80273,3.90,44567,,,,,,,,,,,,,,,,,,99999,99999,99999,99999,99999,99999,99999,99999,99999,99999,99999,99999
20:23:19,1510830060,2017-11-16T11:01:05,0.712,908.5,5.58,2.99,7.01,826.230,2037.380,102.750000,41.17,2.5446,363,23354,1.81120,3.90,44563,,,,,,,,,,,,,,,,,,99999,99999,99999,99999,99999,99999,99999,99999,99999,99999,99999,99999
20:23:49,1510830090,2017-11-16T11:01:35,0.706,908.9,5.58,3.03,7.05,826.080,2037.380,102.000000,40.98,2.5446,363,23354,1.79778,3.90,44558,,,,,,,,,,,,,,,,,,99999,99999,99999,99999,99999,99999,99999,99999,99999,99999,99999,99999
20:24:19,1510830120,2017-11-16T11:02:05,0.712,909.2,5.58,3.02,7.04,826.110,2037.380,103.416664,40.84,2.5446,363,23353,1.81061,3.90,44554,,,,,,,,,,,,,,,,,,99999,99999,99999,99999,99999,99999,99999,99999,99999,99999,99999,99999
20:24:49,1510830150,2017-11-16T11:02:35,0.707,909.6,5.58,3.03,7.04,826.080,2037.380,101.900002,40.95,2.5446,363,23355,1.79894,3.90,44549,,,,,,,,,,,,,,,,,,99999,99999,99999,99999,99999,99999,99999,99999,99999,99999,99999,99999
20:25:19,1510830180,2017-11-16T11:03:05,0.712,910.0,5.60,3.03,7.02,826.130,2037.490,102.933334,40.81,2.5446,363,23355,1.81207,3.90,44545,,,,,,,,,,,,,,,,,,99999,99999,99999,99999,99999,99999,99999,99999,99999,99999,99999,99999
20:25:49,1510830210,2017-11-16T11:03:35,0.705,910.3,5.60,3.02,7.05,826.110,2037.490,101.683334,40.92,2.5446,363,23359,1.79487,3.90,44540,,,,,,,,,,,,,,,,,,99999,99999,99999,99999,99999,99999,99999,99999,99999,99999,99999,99999
20:26:19,1510830240,2017-11-16T11:04:05,0.709,910.7,5.60,3.03,7.09,826.110,2037.490,102.650002,41.09,2.5446,363,23354,1.80419,3.90,44536,,,,,,,,,,,,,,,,,,99999,99999,99999,99999,99999,99999,99999,99999,99999,99999,99999,99999
20:26:49,1510830270,2017-11-16T11:04:35,0.707,911.0,5.60,3.02,7.04,826.040,2037.490,102.883331,40.86,2.5446,363,23357,1.79982,3.90,44532,,,,,,,,,,,,,,,,,,99999,99999,99999,99999,99999,99999,99999,99999,99999,99999,99999,99999
20:27:19,1510830300,2017-11-16T11:05:05,0.712,911.4,5.59,3.04,7.05,826.030,2037.380,103.599998,40.72,2.5446,363,23353,1.81207,3.90,44527,,,,,,,,,,,,,,,,,,99999,99999,99999,99999,99999,99999,99999,99999,99999,99999,99999,99999
20:27:49,1510830330,2017-11-16T11:05:35,0.710,911.7,5.60,3.04,7.04,826.040,2037.490,102.383331,40.64,2.5446,363,23353,1.80740,3.90,44523,,,,,,,,,,,,,,,,,,99999,99999,99999,99999,99999,99999,99999,99999,99999,99999,99999,99999
20:28:19,1510830360,2017-11-16T11:06:05,0.711,912.1,5.59,3.04,7.05,826.050,2037.380,103.733330,40.69,2.5446,363,23355,1.81032,3.90,44518,,,,,,,,,,,,,,,,,,99999,99999,99999,99999,99999,99999,99999,99999,99999,99999,99999,99999
20:28:49,1510830390,2017-11-16T11:06:35,0.711,912.4,5.58,3.02,7.05,826.050,2037.380,103.766670,40.61,2.5447,363,23354,1.80886,3.90,44514,,,,,,,,,,,,,,,,,,99999,99999,99999,99999,99999,99999,99999,99999,99999,99999,99999,99999
20:29:19,1510830420,2017-11-16T11:07:05,0.712,912.8,5.58,2.99,7.04,826.030,2037.380,103.066666,40.80,2.5446,363,23353,1.81266,3.90,44509,,,,,,,,,,,,,,,,,,99999,99999,99999,99999,99999,99999,99999,99999,99999,99999,99999,99999
20:29:49,1510830450,2017-11-16T11:07:35,0.712,913.1,5.57,3.02,7.02,826.080,2037.320,103.133331,41.17,2.5446,363,23353,1.81295,3.90,44505,,,,,,,,,,,,,,,,,,99999,99999,99999,99999,99999,99999,99999,99999,99999,99999,99999,99999
20:30:19,1510830480,2017-11-16T11:08:05,0.709,913.5,5.56,2.99,7.01,826.100,2037.320,102.400002,41.19,2.5447,363,23354,1.80390,3.90,44501,,,,,,,,,,,,,,,,,,99999,99999,99999,99999,99999,99999,99999,99999,99999,99999,99999,99999
20:30:49,1510830510,2017-11-16T11:08:35,0.705,913.9,5.55,2.99,7.01,826.140,2037.280,101.599998,41.30,2.5448,363,23355,1.79429,3.90,44496,,,,,,,,,,,,,,,,,,99999,99999,99999,99999,99999,99999,99999,99999,99999,99999,99999,99999
20:31:19,1510830540,2017-11-16T11:09:05,0.708,914.2,5.55,2.97,7.01,826.170,2037.280,101.766670,41.06,2.5448,363,23351,1.80127,3.90,44492,,,,,,,,,,,,,,,,,,99999,99999,99999,99999,99999,99999,99999,99999,99999,99999,99999,99999
20:31:49,1510830570,2017-11-16T11:09:35,0.704,914.6,5.54,2.97,6.99,826.130,2037.220,100.666664,41.27,2.5448,363,23353,1.79196,3.90,44487,,,,,,,,,,,,,,,,,,99999,99999,99999,99999,99999,99999,99999,99999,99999,99999,99999,99999
20:32:19,1510830600,2017-11-16T11:10:05,0.709,914.9,5.54,2.97,7.01,826.220,2037.220,101.283333,41.10,2.5448,363,23354,1.80448,3.90,44483,,,,,,,,,,,,,,,,,,99999,99999,99999,99999,99999,99999,99999,99999,99999,99999,99999,99999
20:32:49,1510830630,2017-11-16T11:10:35,0.709,915.3,5.53,2.96,6.97,826.190,2037.220,102.216667,40.91,2.5449,363,23354,1.80506,3.90,44478,,,,,,,,,,,,,,,,,,99999,99999,99999,99999,99999,99999,99999,99999,99999,99999,99999,99999
20:33:19,1510830660,2017-11-16T11:11:05,0.712,915.6,5.53,2.97,6.97,826.100,2037.220,102.766670,41.19,2.5449,363,23353,1.81178,3.90,44474,,,,,,,,,,,,,,,,,,99999,99999,99999,99999,99999,99999,99999,99999,99999,99999,99999,99999
20:33:49,1510830690,2017-11-16T11:11:35,0.710,916.0,5.54,2.98,7.01,826.060,2037.220,103.433334,41.50,2.5448,363,23354,1.80594,3.90,44470,,,,,,,,,,,,,,,,,,99999,99999,99999,99999,99999,99999,99999,99999,99999,99999,99999,99999
20:34:19,1510830720,2017-11-16T11:12:05,0.706,916.3,5.53,2.99,7.02,826.040,2037.220,102.216667,41.58,2.5449,363,23352,1.79662,3.90,44465,,,,,,,,,,,,,,,,,,99999,99999,99999,99999,99999,99999,99999,99999,99999,99999,99999,99999
20:34:49,1510830750,2017-11-16T11:12:35,0.709,916.7,5.54,3.00,7.01,826.010,2037.220,102.250000,41.13,2.5448,363,23354,1.80506,3.90,44461,,,,,,,,,,,,,,,,,,99999,99999,99999,99999,99999,99999,99999,99999,99999,99999,99999,99999
20:35:19,1510830780,2017-11-16T11:13:05,0.705,917.0,5.53,2.97,6.95,825.990,2037.220,101.250000,41.19,2.5449,363,23353,1.79429,3.90,44456,,,,,,,,,,,,,,,,,,99999,99999,99999,99999,99999,99999,99999,99999,99999,99999,99999,99999
20:35:49,1510830810,2017-11-16T11:13:35,0.712,917.4,5.51,2.97,6.99,825.910,2037.150,103.533333,40.89,2.5450,363,23354,1.81090,3.90,44452,,,,,,,,,,,,,,,,,,99999,99999,99999,99999,99999,99999,99999,99999,99999,99999,99999,99999
20:36:19,1510830840,2017-11-16T11:14:05,0.712,917.8,5.51,2.95,6.95,825.910,2037.150,102.033333,40.86,2.5450,363,23351,1.81324,3.90,44447,,,,,,,,,,,,,,,,,,99999,99999,99999,99999,99999,99999,99999,99999,99999,99999,99999,99999
20:36:49,1510830870,2017-11-16T11:14:35,0.708,918.1,5.49,2.93,6.93,825.970,2037.110,102.533333,40.70,2.5451,363,23353,1.80157,3.90,44443,,,,,,,,,,,,,,,,,,99999,99999,99999,99999,99999,99999,99999,99999,99999,99999,99999,99999
20:37:19,1510830900,2017-11-16T11:15:05,0.711,918.5,5.48,2.94,6.93,825.970,2037.050,102.966667,40.65,2.5452,363,23352,1.81032,3.90,44438,,,,,,,,,,,,,,,,,,99999,99999,99999,99999,99999,99999,99999,99999,99999,99999,99999,99999
20:37:49,1510830930,2017-11-16T11:15:35,0.705,918.8,5.47,2.93,6.95,825.950,2037.050,102.666664,40.77,2.5453,363,23351,1.79371,3.90,44434,,,,,,,,,,,,,,,,,,99999,99999,99999,99999,99999,99999,99999,99999,99999,99999,99999,99999
20:38:19,1510830960,2017-11-16T11:16:05,0.705,919.2,5.47,2.94,6.94,825.970,2037.050,100.216667,40.91,2.5452,363,23351,1.79313,3.90,44430,,,,,,,,,,,,,,,,,,99999,99999,99999,99999,99999,99999,99999,99999,99999,99999,99999,99999
20:38:49,1510830990,2017-11-16T11:16:35,0.711,919.5,5.46,2.90,6.95,826.030,2036.950,102.966667,40.61,2.5452,363,23353,1.80886,3.90,44425,,,,,,,,,,,,,,,,,,99999,99999,99999,99999,99999,99999,99999,99999,99999,99999,99999,99999
20:39:19,1510831020,2017-11-16T11:17:05,0.712,919.9,5.46,2.93,6.93,826.120,2036.950,102.800003,40.92,2.5452,363,23353,1.81207,3.90,44421,,,,,,,,,,,,,,,,,,99999,99999,99999,99999,99999,99999,99999,99999,99999,99999,99999,99999
20:39:49,1510831050,2017-11-16T11:17:35,0.713,920.2,5.46,2.90,6.94,826.120,2036.950,101.800003,41.35,2.5452,363,23352,1.81412,3.90,44416,,,,,,,,,,,,,,,,,,99999,99999,99999,99999,99999,99999,99999,99999,99999,99999,99999,99999
20:40:19,1510831080,2017-11-16T11:18:05,0.713,920.6,5.45,2.93,6.95,826.060,2036.950,102.199997,41.35,2.5453,363,23351,1.81441,3.90,44412,,,,,,,,,,,,,,,,,,99999,99999,99999,99999,99999,99999,99999,99999,99999,99999,99999,99999
20:40:49,1510831110,2017-11-16T11:18:35,0.708,920.9,5.47,2.92,6.94,826.110,2037.050,101.449997,41.26,2.5452,363,23350,1.80302,3.90,44407,,,,,,,,,,,,,,,,,,99999,99999,99999,99999,99999,99999,99999,99999,99999,99999,99999,99999
20:41:19,1510831140,2017-11-16T11:19:05,0.711,921.3,5.46,2.94,6.97,826.130,2036.950,101.666664,41.47,2.5452,363,23350,1.80856,3.90,44403,,,,,,,,,,,,,,,,,,99999,99999,99999,99999,99999,99999,99999,99999,99999,99999,99999,99999
20:41:49,1510831170,2017-11-16T11:19:35,0.704,921.6,5.46,2.91,6.91,826.000,2036.950,101.066666,41.53,2.5452,363,23352,1.79226,3.90,44399,,,,,,,,,,,,,,,,,,99999,99999,99999,99999,99999,99999,99999,99999,99999,99999,99999,99999
20:42:19,1510831200,2017-11-16T11:20:05,0.705,922.0,5.46,2.94,6.95,825.960,2036.950,101.183334,41.34,2.5452,363,23351,1.79342,3.90,44394,,,,,,,,,,,,,,,,,,99999,99999,99999,99999,99999,99999,99999,99999,99999,99999,99999,99999
20:42:49,1510831230,2017-11-16T11:20:35,0.708,922.4,5.47,2.91,6.93,825.920,2037.050,102.833336,41.68,2.5452,363,23355,1.80273,3.90,44390,,,,,,,,,,,,,,,,,,99999,99999,99999,99999,99999,99999,99999,99999,99999,99999,99999,99999
20:43:19,1510831260,2017-11-16T11:21:05,0.704,922.7,5.47,2.92,6.93,826.020,2037.050,101.483330,41.84,2.5452,363,23350,1.79081,3.90,44385,,,,,,,,,,,,,,,,,,99999,99999,99999,99999,99999,99999,99999,99999,99999,99999,99999,99999
20:43:49,1510831290,2017-11-16T11:21:35,0.705,923.1,5.47,2.92,6.93,825.970,2037.050,102.033333,41.57,2.5452,363,23353,1.79342,3.90,44381,,,,,,,,,,,,,,,,,,99999,99999,99999,99999,99999,99999,99999,99999,99999,99999,99999,99999
20:44:19,1510831320,2017-11-16T11:22:05,0.705,923.4,5.46,2.92,6.95,825.980,2036.950,101.216667,41.20,2.5452,363,23353,1.79371,3.90,44376,,,,,,,,,,,,,,,,,,99999,99999,99999,99999,99999,99999,99999,99999,99999,99999,99999,99999
20:44:49,1510831350,2017-11-16T11:22:35,0.705,923.8,5.48,2.94,6.94,826.020,2037.050,100.633331,41.26,2.5451,363,23352,1.79313,3.90,44372,,,,,,,,,,,,,,,,,,99999,99999,99999,99999,99999,99999,99999,99999,99999,99999,99999,99999
20:45:19,1510831380,2017-11-16T11:23:05,0.708,924.1,5.47,2.92,6.94,826.110,2037.050,101.616669,41.20,2.5452,363,23352,1.80302,3.90,44368,,,,,,,,,,,,,,,,,,99999,99999,99999,99999,99999,99999,99999,99999,99999,99999,99999,99999
20:45:49,1510831410,2017-11-16T11:23:35,0.710,924.5,5.47,2.93,6.94,826.110,2037.050,102.566666,41.45,2.5452,363,23350,1.80594,3.90,44363,,,,,,,,,,,,,,,,,,99999,99999,99999,99999,99999,99999,99999,99999,99999,99999,99999,99999
20:46:19,1510831440,2017-11-16T11:24:05,0.709,924.8,5.48,2.91,6.95,826.050,2037.050,103.083336,41.86,2.5451,363,23351,1.80536,3.90,44359,,,,,,,,,,,,,,,,,,99999,99999,99999,99999,99999,99999,99999,99999,99999,99999,99999,99999
20:46:49,1510831470,2017-11-16T11:24:35,0.705,925.2,5.48,2.93,6.94,826.080,2037.050,101.300003,41.56,2.5451,363,23351,1.79429,3.90,44354,,,,,,,,,,,,,,,,,,99999,99999,99999,99999,99999,99999,99999,99999,99999,99999,99999,99999
20:47:19,1510831500,2017-11-16T11:25:05,0.710,925.5,5.48,2.94,6.93,826.080,2037.050,103.133331,41.41,2.5451,363,23352,1.80828,3.90,44350,,,,,,,,,,,,,,,,,,99999,99999,99999,99999,99999,99999,99999,99999,99999,99999,99999,99999
20:47:49,1510831530,2017-11-16T11:25:35,0.711,925.9,5.48,2.94,6.95,826.000,2037.050,102.866669,41.44,2.5451,363,23350,1.81032,3.90,44345,,,,,,,,,,,,,,,,,,99999,99999,99999,99999,99999,99999,99999,99999,99999,99999,99999,99999
20:48:19,1510831560,2017-11-16T11:26:05,0.711,926.3,5.48,2.95,6.97,826.000,2037.050,102.733330,41.78,2.5451,363,23350,1.81032,3.90,44341,,,,,,,,,,,,,,,,,,99999,99999,99999,99999,99999,99999,99999,99999,99999,99999,99999,99999
20:48:49,1510831590,2017-11-16T11:26:35,0.708,926.6,5.49,2.95,6.91,826.020,2037.110,100.633331,41.73,2.5451,363,23349,1.80215,3.90,44336,,,,,,,,,,,,,,,,,,99999,99999,99999,99999,99999,99999,99999,99999,99999,99999,99999,99999
20:49:19,1510831620,2017-11-16T11:27:05,0.709,927.0,5.49,2.93,6.95,825.950,2037.110,102.150002,41.64,2.5451,363,23352,1.80565,3.90,44332,,,,,,,,,,,,,,,,,,99999,99999,99999,99999,99999,99999,99999,99999,99999,99999,99999,99999
20:49:49,1510831650,2017-11-16T11:27:35,0.709,927.3,5.48,2.94,6.95,825.890,2037.050,102.483330,41.47,2.5451,363,23350,1.80390,3.90,44328,,,,,,,,,,,,,,,,,,99999,99999,99999,99999,99999,99999,99999,99999,99999,99999,99999,99999
20:50:19,1510831680,2017-11-16T11:28:05,0.707,927.7,5.49,2.93,6.94,825.970,2037.110,101.566666,41.47,2.5451,363,23350,1.79953,3.90,44323,,,,,,,,,,,,,,,,,,99999,99999,99999,99999,99999,99999,99999,99999,99999,99999,99999,99999
20:50:49,1510831710,2017-11-16T11:28:35,0.706,928.0,5.50,2.96,6.95,825.860,2037.110,101.300003,41.30,2.5450,363,23352,1.79603,3.90,44319,,,,,,,,,,,,,,,,,,99999,99999,99999,99999,99999,99999,99999,99999,99999,99999,99999,99999
20:51:19,1510831740,2017-11-16T11:29:05,0.711,928.4,5.49,2.96,6.93,825.910,2037.110,101.650002,41.33,2.5451,363,23353,1.80944,3.90,44314,,,,,,,,,,,,,,,,,,99999,99999,99999,99999,99999,99999,99999,99999,99999,99999,99999,99999
20:51:49,1510831770,2017-11-16T11:29:35,0.705,928.7,5.51,2.97,6.95,825.860,2037.150,101.533333,41.67,2.5450,363,23351,1.79400,3.89,44310,,,,,,,,,,,,,,,,,,99999,99999,99999,99999,99999,99999,99999,99999,99999,99999,99999,99999
20:52:19,1510831800,2017-11-16T11:30:05,0.710,929.1,5.52,2.98,6.97,825.860,2037.150,102.266670,41.71,2.5449,363,23351,1.80652,3.90,44305,,,,,,,,,,,,,,,,,,99999,99999,99999,99999,99999,99999,99999,99999,99999,99999,99999,99999
20:52:49,1510831830,2017-11-16T11:30:35,0.709,929.4,5.52,2.97,7.01,825.830,2037.150,102.750000,41.67,2.5449,363,23350,1.80536,3.90,44301,,,,,,,,,,,,,,,,,,99999,99999,99999,99999,99999,99999,99999,99999,99999,99999,99999,99999
20:53:19,1510831860,2017-11-16T11:31:05,0.705,929.8,5.53,2.98,6.97,825.910,2037.220,100.849998,41.60,2.5449,363,23352,1.79516,3.90,44297,,,,,,,,,,,,,,,,,,99999,99999,99999,99999,99999,99999,99999,99999,99999,99999,99999,99999
20:53:49,1510831890,2017-11-16T11:31:35,0.713,930.1,5.52,2.98,7.01,825.910,2037.150,102.949997,41.38,2.5449,363,23350,1.81383,3.89,44292,,,,,,,,,,,,,,,,,,99999,99999,99999,99999,99999,99999,99999,99999,99999,99999,99999,99999
20:54:19,1510831920,2017-11-16T11:32:05,0.706,930.5,5.52,3.00,6.97,825.890,2037.150,100.416664,41.33,2.5449,363,23354,1.79662,3.90,44288,,,,,,,,,,,,,,,,,,99999,99999,99999,99999,99999,99999,99999,99999,99999,99999,99999,99999
20:54:49,1510831950,2017-11-16T11:32:35,0.711,930.9,5.54,3.01,7.01,825.880,2037.220,102.550003,41.30,2.5448,363,23354,1.81032,3.89,44283,,,,,,,,,,,,,,,,,,99999,99999,99999,99999,99999,99999,99999,99999,99999,99999,99999,99999
20:55:19,1510831980,2017-11-16T11:33:05,0.708,931.2,5.54,2.99,6.99,825.850,2037.220,102.766670,41.04,2.5448,363,23352,1.80273,3.89,44279,,,,,,,,,,,,,,,,,,99999,99999,99999,99999,99999,99999,99999,99999,99999,99999,99999,99999
20:55:49,1510832010,2017-11-16T11:33:35,0.707,931.6,5.55,3.00,7.02,825.880,2037.280,102.333336,40.97,2.5448,363,23354,1.79807,3.89,44274,,,,,,,,,,,,,,,,,,99999,99999,99999,99999,99999,99999,99999,99999,99999,99999,99999,99999
20:56:19,1510832040,2017-11-16T11:34:05,0.712,931.9,5.53,3.02,7.02,825.850,2037.220,103.599998,41.01,2.5449,363,23354,1.81149,3.89,44270,,,,,,,,,,,,,,,,,,99999,99999,99999,99999,99999,99999,99999,99999,99999,99999,99999,99999
20:56:49,1510832070,2017-11-16T11:34:35,0.712,932.3,5.54,3.02,7.01,825.720,2037.220,103.449997,40.88,2.5448,363,23355,1.81090,3.89,44265,,,,,,,,,,,,,,,,,,99999,99999,99999,99999,99999,99999,99999,99999,99999,99999,99999,99999
20:57:19,1510832100,2017-11-16T11:35:05,0.713,932.6,5.54,3.00,7.05,825.750,2037.220,103.066666,40.88,2.5448,363,23356,1.81412,3.89,44261,,,,,,,,,,,,,,,,,,99999,99999,99999,99999,99999,99999,99999,99999,99999,99999,99999,99999
20:57:49,1510832130,2017-11-16T11:35:35,0.706,933.0,5.54,2.99,7.01,825.830,2037.220,100.466667,40.75,2.5448,363,23355,1.79632,3.89,44257,,,,,,,,,,,,,,,,,,99999,99999,99999,99999,99999,99999,99999,99999,99999,99999,99999,99999
20:58:19,1510832160,2017-11-16T11:36:05,0.712,933.3,5.54,2.99,7.02,825.750,2037.220,101.933334,40.63,2.5448,363,23351,1.81090,3.89,44252,,,,,,,,,,,,,,,,,,99999,99999,99999,99999,99999,99999,99999,99999,99999,99999,99999,99999
20:58:49,1510832190,2017-11-16T11:36:35,0.707,933.7,5.54,3.01,6.99,825.720,2037.220,102.366669,40.65,2.5448,363,23354,1.80040,3.89,44248,,,,,,,,,,,,,,,,,,99999,99999,99999,99999,99999,99999,99999,99999,99999,99999,99999,99999
20:59:19,1510832220,2017-11-16T11:37:05,0.712,934.0,5.54,3.00,7.04,825.720,2037.220,103.349998,40.51,2.5448,363,23355,1.81266,3.89,44243,,,,,,,,,,,,,,,,,,99999,99999,99999,99999,99999,99999,99999,99999,99999,99999,99999,99999
20:59:49,1510832250,2017-11-16T11:37:35,0.713,934.4,5.54,3.00,7.01,825.750,2037.220,103.699997,40.84,2.5448,363,23355,1.81383,3.89,44239,,,,,,,,,,,,,,,,,,99999,99999,99999,99999,99999,99999,99999,99999,99999,99999,99999,99999
21:00:19,1510832280,2017-11-16T11:38:05,0.705,934.8,5.54,3.00,7.01,825.700,2037.220,100.933334,40.83,2.5448,363,23353,1.79400,3.89,44234,,,,,,,,,,,,,,,,,,99999,99999,99999,99999,99999,99999,99999,99999,99999,99999,99999,99999
21:00:49,1510832310,2017-11-16T11:38:35,0.712,935.1,5.54,3.01,7.01,825.720,2037.220,102.483330,40.73,2.5448,363,23353,1.81236,3.89,44230,,,,,,,,,,,,,,,,,,99999,99999,99999,99999,99999,99999,99999,99999,99999,99999,99999,99999
21:01:19,1510832340,2017-11-16T11:39:05,0.711,935.5,5.55,3.02,7.01,825.810,2037.280,103.599998,41.08,2.5448,363,23353,1.80856,3.89,44226,,,,,,,,,,,,,,,,,,99999,99999,99999,99999,99999,99999,99999,99999,99999,99999,99999,99999
21:01:49,1510832370,2017-11-16T11:39:35,0.714,935.8,5.55,3.01,7.01,825.750,2037.280,102.616669,40.99,2.5448,363,23355,1.81617,3.89,44221,,,,,,,,,,,,,,,,,,99999,99999,99999,99999,99999,99999,99999,99999,99999,99999,99999,99999
21:02:19,1510832400,2017-11-16T11:40:05,0.709,936.2,5.56,3.00,7.01,825.810,2037.320,102.633331,41.09,2.5447,363,23353,1.80361,3.89,44217,,,,,,,,,,,,,,,,,,99999,99999,99999,99999,99999,99999,99999,99999,99999,99999,99999,99999
21:02:49,1510832430,2017-11-16T11:40:35,0.708,936.5,5.56,3.01,6.99,825.850,2037.320,102.266670,40.95,2.5447,363,23353,1.80215,3.89,44212,,,,,,,,,,,,,,,,,,99999,99999,99999,99999,99999,99999,99999,99999,99999,99999,99999,99999
21:03:19,1510832460,2017-11-16T11:41:05,0.708,936.9,5.56,3.01,7.05,825.810,2037.320,100.750000,41.25,2.5447,363,23355,1.80157,3.89,44208,,,,,,,,,,,,,,,,,,99999,99999,99999,99999,99999,99999,99999,99999,99999,99999,99999,99999
21:03:49,1510832490,2017-11-16T11:41:35,0.706,937.2,5.57,3.00,7.02,825.820,2037.320,102.483330,41.22,2.5446,363,23353,1.79720,3.89,44203,,,,,,,,,,,,,,,,,,99999,99999,99999,99999,99999,99999,99999,99999,99999,99999,99999,99999
21:04:19,1510832520,2017-11-16T11:42:05,0.712,937.6,5.58,3.01,7.01,825.820,2037.380,103.616669,40.84,2.5446,363,23357,1.81266,3.89,44199,,,,,,,,,,,,,,,,,,99999,99999,99999,99999,99999,99999,99999,99999,99999,99999,99999,99999
21:04:49,1510832550,2017-11-16T11:42:35,0.705,937.9,5.59,3.02,7.04,825.760,2037.380,101.916664,40.84,2.5446,363,23353,1.79342,3.89,44194,,,,,,,,,,,,,,,,,,99999,99999,99999,99999,99999,99999,99999,99999,99999,99999,99999,99999
21:05:19,1510832580,2017-11-16T11:43:05,0.705,938.3,5.59,3.02,7.04,825.840,2037.380,101.199997,40.50,2.5446,363,23355,1.79429,3.89,44190,,,,,,,,,,,,,,,,,,99999,99999,99999,99999,99999,99999,99999,99999,99999,99999,99999,99999
21:05:49,1510832610,2017-11-16T11:43:35,0.713,938.7,5.62,3.02,7.02,825.810,2037.550,103.400002,40.48,2.5445,363,23357,1.81470,3.89,44186,,,,,,,,,,,,,,,,,,99999,99999,99999,99999,99999,99999,99999,99999,99999,99999,99999,99999
21:06:19,1510832640,2017-11-16T11:44:05,0.706,939.0,5.61,3.03,7.07,825.840,2037.490,101.599998,40.35,2.5445,363,23355,1.79662,3.89,44181,,,,,,,,,,,,,,,,,,99999,99999,99999,99999,99999,99999,99999,99999,99999,99999,99999,99999
21:06:49,1510832670,2017-11-16T11:44:35,0.711,939.4,5.63,3.04,7.09,825.830,2037.550,102.633331,40.62,2.5444,363,23354,1.80974,3.89,44177,,,,,,,,,,,,,,,,,,99999,99999,99999,99999,99999,99999,99999,99999,99999,99999,99999,99999
21:07:19,1510832700,2017-11-16T11:45:05,0.712,939.7,5.64,3.04,7.05,825.810,2037.590,102.699997,41.05,2.5443,363,23355,1.81149,3.89,44172,,,,,,,,,,,,,,,,,,99999,99999,99999,99999,99999,99999,99999,99999,99999,99999,99999,99999
21:07:49,1510832730,2017-11-16T11:45:35,0.713,940.1,5.65,3.05,7.10,825.910,2037.590,102.683334,40.97,2.5443,363,23353,1.81383,3.89,44168,,,,,,,,,,,,,,,,,,99999,99999,99999,99999,99999,99999,99999,99999,99999,99999,99999,99999
21:08:19,1510832760,2017-11-16T11:46:05,0.713,940.4,5.66,3.08,7.09,825.880,2037.650,103.283333,40.58,2.5443,363,23356,1.81412,3.89,44163,,,,,,,,,,,,,,,,,,99999,99999,99999,99999,99999,99999,99999,99999,99999,99999,99999,99999
21:08:49,1510832790,2017-11-16T11:46:35,0.712,940.8,5.66,3.05,7.07,825.900,2037.650,103.900002,41.77,2.5442,363,23356,1.81236,3.89,44159,,,,,,,,,,,,,,,,,,99999,99999,99999,99999,99999,99999,99999,99999,99999,99999,99999,99999
21:09:19,1510832820,2017-11-16T11:47:05,0.709,941.1,5.66,3.09,7.07,825.960,2037.650,102.816666,41.47,2.5442,363,23355,1.80448,3.89,44154,,,,,,,,,,,,,,,,,,99999,99999,99999,99999,99999,99999,99999,99999,99999,99999,99999,99999
21:09:49,1510832850,2017-11-16T11:47:35,0.705,941.5,5.66,3.06,7.09,825.960,2037.650,102.233330,41.15,2.5442,363,23355,1.79487,3.89,44150,,,,,,,,,,,,,,,,,,99999,99999,99999,99999,99999,99999,99999,99999,99999,99999,99999,99999
21:10:19,1510832880,2017-11-16T11:48:05,0.709,941.8,5.66,3.08,7.10,825.960,2037.650,102.199997,41.37,2.5442,363,23356,1.80361,3.89,44145,,,,,,,,,,,,,,,,,,99999,99999,99999,99999,99999,99999,99999,99999,99999,99999,99999,99999
21:10:49,1510832910,2017-11-16T11:48:35,0.707,942.2,5.66,3.06,7.09,825.960,2037.650,103.183334,41.11,2.5442,363,23354,1.79924,3.89,44141,,,,,,,,,,,,,,,,,,99999,99999,99999,99999,99999,99999,99999,99999,99999,99999,99999,99999
21:11:19,1510832940,2017-11-16T11:49:05,0.706,942.6,5.64,3.06,7.10,825.940,2037.590,103.483330,40.68,2.5444,363,23355,1.79574,3.89,44137,,,,,,,,,,,,,,,,,,99999,99999,99999,99999,99999,99999,99999,99999,99999,99999,99999,99999
21:11:49,1510832970,2017-11-16T11:49:35,0.714,942.9,5.63,3.04,7.10,825.880,2037.550,102.949997,40.48,2.5444,363,23357,1.81646,3.89,44132,,,,,,,,,,,,,,,,,,99999,99999,99999,99999,99999,99999,99999,99999,99999,99999,99999,99999
21:12:19,1510833000,2017-11-16T11:50:05,0.705,943.3,5.62,3.01,7.09,825.950,2037.550,101.733330,40.51,2.5445,363,23352,1.79458,3.89,44128,,,,,,,,,,,,,,,,,,99999,99999,99999,99999,99999,99999,99999,99999,99999,99999,99999,99999
21:12:49,1510833030,2017-11-16T11:50:35,0.708,943.6,5.60,3.03,7.07,825.910,2037.490,103.133331,40.34,2.5446,363,23352,1.80157,3.89,44123,,,,,,,,,,,,,,,,,,99999,99999,99999,99999,99999,99999,99999,99999,99999,99999,99999,99999
21:13:19,1510833060,2017-11-16T11:51:05,0.713,944.0,5.59,3.01,7.05,825.960,2037.380,102.733330,40.50,2.5446,363,23354,1.81324,3.89,44119,,,,,,,,,,,,,,,,,,99999,99999,99999,99999,99999,99999,99999,99999,99999,99999,99999,99999
21:13:49,1510833090,2017-11-16T11:51:35,0.709,944.3,5.58,3.00,7.05,825.960,2037.380,103.316666,40.42,2.5447,363,23354,1.80536,3.89,44114,,,,,,,,,,,,,,,,,,99999,99999,99999,99999,99999,99999,99999,99999,99999,99999,99999,99999
21:14:19,1510833120,2017-11-16T11:52:05,0.712,944.7,5.58,3.01,7.02,825.970,2037.380,102.599998,40.53,2.5447,363,23355,1.81236,3.89,44110,,,,,,,,,,,,,,,,,,99999,99999,99999,99999,99999,99999,99999,99999,99999,99999,99999,99999
21:14:49,1510833150,2017-11-16T11:52:35,0.714,945.0,5.57,3.02,7.01,825.980,2037.320,101.983330,40.68,2.5447,363,23353,1.81646,3.89,44105,,,,,,,,,,,,,,,,,,99999,99999,99999,99999,99999,99999,99999,99999,99999,99999,99999,99999
21:15:19,1510833180,2017-11-16T11:53:05,0.710,945.4,5.56,2.98,7.01,826.010,2037.320,102.116669,40.50,2.5448,363,23353,1.80740,3.89,44101,,,,,,,,,,,,,,,,,,99999,99999,99999,99999,99999,99999,99999,99999,99999,99999,99999,99999
21:15:49,1510833210,2017-11-16T11:53:35,0.707,945.7,5.56,3.00,7.02,825.980,2037.320,101.833336,40.59,2.5448,363,23352,1.79836,3.89,44097,,,,,,,,,,,,,,,,,,99999,99999,99999,99999,99999,99999,99999,99999,99999,99999,99999,99999
21:16:19,1510833240,2017-11-16T11:54:05,0.706,946.1,5.57,3.00,7.04,826.030,2037.320,100.816666,40.61,2.5447,363,23353,1.79574,3.89,44092,,,,,,,,,,,,,,,,,,99999,99999,99999,99999,99999,99999,99999,99999,99999,99999,99999,99999
21:16:49,1510833270,2017-11-16T11:54:35,0.711,946.5,5.58,3.01,7.04,826.050,2037.380,102.633331,41.42,2.5446,363,23355,1.81003,3.89,44088,,,,,,,,,,,,,,,,,,99999,99999,99999,99999,99999,99999,99999,99999,99999,99999,99999,99999
21:17:19,1510833300,2017-11-16T11:55:05,0.713,946.8,5.57,3.00,7.02,826.030,2037.320,102.449997,41.55,2.5446,363,23354,1.81529,3.89,44083,,,,,,,,,,,,,,,,,,99999,99999,99999,99999,99999,99999,99999,99999,99999,99999,99999,99999
21:17:49,1510833330,2017-11-16T11:55:35,0.711,947.2,5.59,3.02,7.02,826.080,2037.380,101.366669,41.09,2.5445,363,23353,1.80915,3.89,44079,,,,,,,,,,,,,,,,,,99999,99999,99999,99999,99999,99999,99999,99999,99999,99999,99999,99999
21:18:19,1510833360,2017-11-16T11:56:05,0.707,947.5,5.59,3.01,7.04,825.960,2037.380,100.866669,40.82,2.5446,363,23356,1.79982,3.89,44074,,,,,,,,,,,,,,,,,,99999,99999,99999,99999,99999,99999,99999,99999,99999,99999,99999,99999
21:18:49,1510833390,2017-11-16T11:56:35,0.708,947.9,5.59,3.01,7.04,826.000,2037.380,101.533333,40.88,2.5446,363,23353,1.80069,3.89,44070,,,,,,,,,,,,,,,,,,99999,99999,99999,99999,99999,99999,99999,99999,99999,99999,99999,99999
21:19:19,1510833420,2017-11-16T11:57:05,0.709,948.2,5.59,3.01,7.02,825.960,2037.380,101.566666,40.79,2.5446,363,23357,1.80419,3.89,44065,,,,,,,,,,,,,,,,,,99999,99999,99999,99999,99999,99999,99999,99999,99999,99999,99999,99999
21:19:49,1510833450,2017-11-16T11:57:35,0.709,948.6,5.61,2.99,7.04,825.990,2037.490,100.949997,40.82,2.5445,363,23354,1.80477,3.89,44061,,,,,,,,,,,,,,,,,,99999,99999,99999,99999,99999,99999,99999,99999,99999,99999,99999,99999
21:20:19,1510833480,2017-11-16T11:58:05,0.709,948.9,5.61,3.01,7.04,825.950,2037.490,101.449997,40.74,2.5445,363,23358,1.80477,3.89,44057,,,,,,,,,,,,,,,,,,99999,99999,99999,99999,99999,99999,99999,99999,99999,99999,99999,99999
21:20:49,1510833510,2017-11-16T11:58:35,0.705,949.3,5.62,3.03,7.07,825.990,2037.550,101.400002,40.65,2.5445,363,23354,1.79371,3.89,44052,,,,,,,,,,,,,,,,,,99999,99999,99999,99999,99999,99999,99999,99999,99999,99999,99999,99999
21:21:19,1510833540,2017-11-16T11:59:05,0.713,949.7,5.61,3.02,7.02,825.890,2037.490,102.833336,40.63,2.5445,363,23356,1.81470,3.89,44048,,,,,,,,,,,,,,,,,,99999,99999,99999,99999,99999,99999,99999,99999,99999,99999,99999,99999
21:21:49,1510833570,2017-11-16T11:59:35,0.707,950.0,5.62,3.03,7.07,825.910,2037.550,101.683334,40.81,2.5445,363,23356,1.79836,3.89,44043,,,,,,,,,,,,,,,,,,99999,99999,99999,99999,99999,99999,99999,99999,99999,99999,99999,99999
21:22:19,1510833600,2017-11-16T12:00:05,0.710,950.4,5.63,3.03,7.07,825.990,2037.550,102.766670,40.74,2.5444,363,23355,1.80565,3.89,44039,,,,,,,,,,,,,,,,,,99999,99999,99999,99999,99999,99999,99999,99999,99999,99999,99999,99999
21:22:49,1510833630,2017-11-16T12:00:35,0.713,950.7,5.63,3.05,7.10,825.970,2037.550,104.000000,41.33,2.5444,363,23356,1.81383,3.89,44034,,,,,,,,,,,,,,,,,,99999,99999,99999,99999,99999,99999,99999,99999,99999,99999,99999,99999
21:23:19,1510833660,2017-11-16T12:01:05,0.707,951.1,5.63,3.04,7.07,825.970,2037.550,101.750000,41.13,2.5444,363,23355,1.79836,3.89,44030,,,,,,,,,,,,,,,,,,99999,99999,99999,99999,99999,99999,99999,99999,99999,99999,99999,99999
21:23:49,1510833690,2017-11-16T12:01:35,0.705,951.4,5.64,3.01,7.07,825.900,2037.590,101.633331,40.91,2.5443,363,23354,1.79400,3.89,44025,,,,,,,,,,,,,,,,,,99999,99999,99999,99999,99999,99999,99999,99999,99999,99999,99999,99999
21:24:19,1510833720,2017-11-16T12:02:05,0.712,951.8,5.63,3.04,7.12,825.830,2037.550,102.583336,40.95,2.5444,363,23354,1.81061,3.89,44021,,,,,,,,,,,,,,,,,,99999,99999,99999,99999,99999,99999,99999,99999,99999,99999,99999,99999
21:24:49,1510833750,2017-11-16T12:02:35,0.713,952.1,5.64,3.06,7.09,825.850,2037.590,103.716667,40.88,2.5444,363,23356,1.81529,3.89,44016,,,,,,,,,,,,,,,,,,99999,99999,99999,99999,99999,99999,99999,99999,99999,99999,99999,99999
21:25:19,1510833780,2017-11-16T12:03:05,0.710,952.5,5.64,3.04,7.07,825.780,2037.590,102.483330,41.17,2.5443,363,23357,1.80565,3.89,44012,,,,,,,,,,,,,,,,,,99999,99999,99999,99999,99999,99999,99999,99999,99999,99999,99999,99999
21:25:49,1510833810,2017-11-16T12:03:35,0.708,952.8,5.65,3.05,7.10,825.850,2037.590,102.000000,41.15,2.5442,363,23357,1.80011,3.89,44008,,,,,,,,,,,,,,,,,,99999,99999,99999,99999,99999,99999,99999,99999,99999,99999,99999,99999
21:26:19,1510833840,2017-11-16T12:04:05,0.710,953.2,5.65,3.06,7.10,825.830,2037.590,102.583336,41.22,2.5442,363,23355,1.80594,3.89,44003,,,,,,,,,,,,,,,,,,99999,99999,99999,99999,99999,99999,99999,99999,99999,99999,99999,99999
21:26:49,1510833870,2017-11-16T12:04:35,0.708,953.6,5.66,3.06,7.14,825.820,2037.650,103.599998,41.12,2.5442,363,23356,1.80215,3.89,43999,,,,,,,,,,,,,,,,,,99999,99999,99999,99999,99999,99999,99999,99999,99999,99999,99999,99999
21:27:19,1510833900,2017-11-16T12:05:05,0.713,953.9,5.66,3.05,7.10,825.940,2037.650,102.699997,41.10,2.5442,363,23356,1.81354,3.89,43994,,,,,,,,,,,,,,,,,,99999,99999,99999,99999,99999,99999,99999,99999,99999,99999,99999,99999
21:27:49,1510833930,2017-11-16T12:05:35,0.706,954.3,5.66,3.05,7.12,825.960,2037.650,101.800003,41.20,2.5442,363,23358,1.79574,3.89,43990,,,,,,,,,,,,,,,,,,99999,99999,99999,99999,99999,99999,99999,99999,99999,99999,99999,99999
21:28:19,1510833960,2017-11-16T12:06:05,0.712,954.6,5.66,3.05,7.12,825.850,2037.650,104.016670,41.10,2.5442,363,23354,1.81090,3.89,43985,,,,,,,,,,,,,,,,,,99999,99999,99999,99999,99999,99999,99999,99999,99999,99999,99999,99999
21:28:49,1510833990,2017-11-16T12:06:35,0.711,955.0,5.66,3.08,7.10,825.940,2037.650,102.983330,40.99,2.5442,363,23357,1.80915,3.89,43981,,,,,,,,,,,,,,,,,,99999,99999,99999,99999,99999,99999,99999,99999,99999,99999,99999,99999
21:29:19,1510834020,2017-11-16T12:07:05,0.709,955.3,5.64,3.05,7.10,825.850,2037.590,103.000000,40.61,2.5444,363,23357,1.80273,3.89,43976,,,,,,,,,,,,,,,,,,99999,99999,99999,99999,99999,99999,99999,99999,99999,99999,99999,99999
21:29:49,1510834050,2017-11-16T12:07:35,0.712,955.7,5.64,3.05,7.10,825.880,2037.590,103.599998,40.77,2.5444,363,23357,1.81207,3.89,43972,,,,,,,,,,,,,,,,,,99999,99999,99999,99999,99999,99999,99999,99999,99999,99999,99999,99999
21:30:19,1510834080,2017-11-16T12:08:05,0.711,956.0,5.64,3.03,7.10,825.880,2037.590,103.316666,40.85,2.5444,363,23356,1.80974,3.89,43967,,,,,,,,,,,,,,,,,,99999,99999,99999,99999,99999,99999,99999,99999,99999,99999,99999,99999
21:30:49,1510834110,2017-11-16T12:08:35,0.711,956.4,5.63,3.05,7.09,825.860,2037.550,101.816666,40.95,2.5444,363,23355,1.81032,3.89,43963,,,,,,,,,,,,,,,,,,99999,99999,99999,99999,99999,99999,99999,99999,99999,99999,99999,99999
21:31:19,1510834140,2017-11-16T12:09:05,0.714,956.7,5.62,3.03,7.10,825.880,2037.550,102.733330,40.67,2.5445,363,23354,1.81587,3.89,43959,,,,,,,,,,,,,,,,,,99999,99999,99999,99999,99999,99999,99999,99999,99999,99999,99999,99999
21:31:49,1510834170,2017-11-16T12:09:35,0.713,957.1,5.62,3.05,7.07,825.910,2037.550,103.599998,40.89,2.5445,363,23354,1.81324,3.89,43954,,,,,,,,,,,,,,,,,,99999,99999,99999,99999,99999,99999,99999,99999,99999,99999,99999,99999
21:32:19,1510834200,2017-11-16T12:10:05,0.712,957.5,5.61,3.03,7.05,825.890,2037.490,102.883331,40.76,2.5445,363,23358,1.81236,3.89,43950,,,,,,,,,,,,,,,,,,99999,99999,99999,99999,99999,99999,99999,99999,99999,99999,99999,99999
21:32:49,1510834230,2017-11-16T12:10:35,0.705,957.8,5.61,3.03,7.07,825.790,2037.490,101.650002,40.91,2.5445,363,23355,1.79284,3.89,43945,,,,,,,,,,,,,,,,,,99999,99999,99999,99999,99999,99999,99999,99999,99999,99999,99999,99999
21:33:19,1510834260,2017-11-16T12:11:05,0.705,958.2,5.60,3.05,7.07,825.790,2037.490,101.616669,40.85,2.5446,363,23356,1.79516,3.89,43941,,,,,,,,,,,,,,,,,,99999,99999,99999,99999,99999,99999,99999,99999,99999,99999,99999,99999
21:33:49,1510834290,2017-11-16T12:11:35,0.705,958.5,5.61,3.03,7.07,825.730,2037.490,102.099998,40.82,2.5445,363,23353,1.79429,3.89,43936,,,,,,,,,,,,,,,,,,99999,99999,99999,99999,99999,99999,99999,99999,99999,99999,99999,99999
21:34:19,1510834320,2017-11-16T12:12:05,0.711,958.9,5.60,3.04,7.05,825.700,2037.490,101.866669,41.11,2.5446,363,23356,1.80828,3.89,43932,,,,,,,,,,,,,,,,,,99999,99999,99999,99999,99999,99999,99999,99999,99999,99999,99999,99999
21:34:49,1510834350,2017-11-16T12:12:35,0.713,959.2,5.61,3.03,7.04,825.650,2037.490,102.816666,41.04,2.5445,363,23355,1.81324,3.89,43927,,,,,,,,,,,,,,,,,,99999,99999,99999,99999,99999,99999,99999,99999,99999,99999,99999,99999
21:35:19,1510834380,2017-11-16T12:13:05,0.712,959.6,5.60,3.04,7.07,825.650,2037.490,103.833336,40.95,2.5446,363,23357,1.81178,3.89,43923,,,,,,,,,,,,,,,,,,99999,99999,99999,99999,99999,99999,99999,99999,99999,99999,99999,99999
21:35:49,1510834410,2017-11-16T12:13:35,0.705,959.9,5.60,3.05,7.05,825.680,2037.490,102.300003,41.25,2.5446,363,23355,1.79284,3.89,43918,,,,,,,,,,,,,,,,,,99999,99999,99999,99999,99999,99999,99999,99999,99999,99999,99999,99999
21:36:19,1510834440,2017-11-16T12:14:05,0.707,960.3,5.60,3.05,7.04,825.700,2037.490,102.150002,41.11,2.5446,363,23355,1.79924,3.89,43914,,,,,,,,,,,,,,,,,,99999,99999,99999,99999,99999,99999,99999,99999,99999,99999,99999,99999
21:36:49,1510834470,2017-11-16T12:14:35,0.712,960.6,5.60,3.03,7.04,825.730,2037.490,103.650002,40.88,2.5446,363,23353,1.81266,3.89,43910,,,,,,,,,,,,,,,,,,99999,99999,99999,99999,99999,99999,99999,99999,99999,99999,99999,99999
21:37:19,1510834500,2017-11-16T12:15:05,0.711,961.0,5.60,3.03,7.05,825.680,2037.490,102.816666,41.13,2.5446,363,23353,1.80798,3.89,43905,,,,,,,,,,,,,,,,,,99999,99999,99999,99999,99999,99999,99999,99999,99999,99999,99999,99999
21:37:49,1510834530,2017-11-16T12:15:35,0.708,961.4,5.60,3.05,7.05,825.700,2037.490,101.166664,41.36,2.5446,363,23356,1.80040,3.89,43901,,,,,,,,,,,,,,,,,,99999,99999,99999,99999,99999,99999,99999,99999,99999,99999,99999,99999
21:38:19,1510834560,2017-11-16T12:16:05,0.706,961.7,5.61,3.04,7.05,825.760,2037.490,103.383331,41.15,2.5445,363,23354,1.79516,3.89,43896,,,,,,,,,,,,,,,,,,99999,99999,99999,99999,99999,99999,99999,99999,99999,99999,99999,99999
21:38:49,1510834590,2017-11-16T12:16:35,0.712,962.1,5.62,3.06,7.05,825.790,2037.550,103.366669,41.64,2.5445,363,23356,1.81149,3.89,43892,,,,,,,,,,,,,,,,,,99999,99999,99999,99999,99999,99999,99999,99999,99999,99999,99999,99999
21:39:19,1510834620,2017-11-16T12:17:05,0.711,962.4,5.62,3.05,7.09,825.860,2037.550,102.516670,41.42,2.5445,363,23356,1.80944,3.89,43887,,,,,,,,,,,,,,,,,,99999,99999,99999,99999,99999,99999,99999,99999,99999,99999,99999,99999
21:39:49,1510834650,2017-11-16T12:17:35,0.708,962.8,5.61,3.06,7.05,825.790,2037.490,102.166664,41.44,2.5445,363,23356,1.80098,3.89,43883,,,,,,,,,,,,,,,,,,99999,99999,99999,99999,99999,99999,99999,99999,99999,99999,99999,99999
21:40:19,1510834680,2017-11-16T12:18:05,0.705,963.1,5.61,3.06,7.09,825.890,2037.490,101.650002,41.65,2.5445,363,23354,1.79458,3.89,43878,,,,,,,,,,,,,,,,,,99999,99999,99999,99999,99999,99999,99999,99999,99999,99999,99999,99999
21:40:49,1510834710,2017-11-16T12:18:35,0.705,963.5,5.61,3.05,7.07,825.810,2037.490,101.366669,41.61,2.5445,363,23356,1.79429,3.89,43874,,,,,,,,,,,,,,,,,,99999,99999,99999,99999,99999,99999,99999,99999,99999,99999,99999,99999
21:41:19,1510834740,2017-11-16T12:19:05,0.707,963.8,5.60,3.03,7.05,825.910,2037.490,101.266670,41.72,2.5446,363,23356,1.79836,3.89,43869,,,,,,,,,,,,,,,,,,99999,99999,99999,99999,99999,99999,99999,99999,99999,99999,99999,99999
21:41:49,1510834770,2017-11-16T12:19:35,0.708,964.2,5.60,3.05,7.07,825.810,2037.490,101.833336,41.58,2.5446,363,23356,1.80040,3.89,43865,,,,,,,,,,,,,,,,,,99999,99999,99999,99999,99999,99999,99999,99999,99999,99999,99999,99999
21:42:19,1510834800,2017-11-16T12:20:05,0.706,964.5,5.60,3.04,7.04,825.790,2037.490,102.083336,41.68,2.5446,363,23354,1.79749,3.89,43861,,,,,,,,,,,,,,,,,,99999,99999,99999,99999,99999,99999,99999,99999,99999,99999,99999,99999
21:42:49,1510834830,2017-11-16T12:20:35,0.708,964.9,5.60,3.05,7.07,825.730,2037.490,102.666664,41.37,2.5446,363,23355,1.80127,3.89,43856,,,,,,,,,,,,,,,,,,99999,99999,99999,99999,99999,99999,99999,99999,99999,99999,99999,99999
21:43:19,1510834860,2017-11-16T12:21:05,0.706,965.3,5.59,3.03,7.04,825.580,2037.380,102.050003,41.24,2.5445,363,23353,1.79545,3.89,43852,,,,,,,,,,,,,,,,,,99999,99999,99999,99999,99999,99999,99999,99999,99999,99999,99999,99999
21:43:49,1510834890,2017-11-16T12:21:35,0.713,965.6,5.60,3.05,7.05,825.470,2037.490,103.483330,41.24,2.5446,363,23354,1.81324,3.89,43847,,,,,,,,,,,,,,,,,,99999,99999,99999,99999,99999,99999,99999,99999,99999,99999,99999,99999
21:44:19,1510834920,2017-11-16T12:22:05,0.706,966.0,5.59,3.03,7.07,825.400,2037.380,101.216667,41.29,2.5445,363,23356,1.79632,3.89,43843,,,,,,,,,,,,,,,,,,99999,99999,99999,99999,99999,99999,99999,99999,99999,99999,99999,99999
21:44:49,1510834950,2017-11-16T12:22:35,0.711,966.3,5.60,3.03,7.02,825.420,2037.490,102.816666,41.32,2.5446,363,23355,1.81032,3.89,43838,,,,,,,,,,,,,,,,,,99999,99999,99999,99999,99999,99999,99999,99999,99999,99999,99999,99999
21:45:19,1510834980,2017-11-16T12:23:05,0.711,966.7,5.60,3.04,7.09,825.340,2037.490,104.333336,41.05,2.5446,363,23357,1.81003,3.89,43834,,,,,,,,,,,,,,,,,,99999,99999,99999,99999,99999,99999,99999,99999,99999,99999,99999,99999
21:45:49,1510835010,2017-11-16T12:23:35,0.706,967.0,5.60,3.05,7.05,825.340,2037.490,101.333336,41.00,2.5446,363,23354,1.79632,3.89,43829,,,,,,,,,,,,,,,,,,99999,99999,99999,99999,99999,99999,99999,99999,99999,99999,99999,99999
21:46:19,1510835040,2017-11-16T12:24:05,0.711,967.4,5.61,3.06,7.07,825.340,2037.490,102.683334,41.01,2.5445,363,23356,1.80886,3.89,43825,,,,,,,,,,,,,,,,,,99999,99999,99999,99999,99999,99999,99999,99999,99999,99999,99999,99999
21:46:49,1510835070,2017-11-16T12:24:35,0.712,967.7,5.62,3.06,7.09,825.360,2037.550,103.599998,40.95,2.5445,363,23356,1.81090,3.89,43820,,,,,,,,,,,,,,,,,,99999,99999,99999,99999,99999,99999,99999,99999,99999,99999,99999,99999
21:47:19,1510835100,2017-11-16T12:25:05,0.708,968.1,5.62,3.08,7.07,825.360,2037.550,102.066666,41.68,2.5445,363,23357,1.80069,3.89,43816,,,,,,,,,,,,,,,,,,99999,99999,99999,99999,99999,99999,99999,99999,99999,99999,99999,99999
21:47:49,1510835130,2017-11-16T12:25:35,0.711,968.4,5.64,3.07,7.07,825.380,2037.590,102.199997,41.83,2.5443,363,23357,1.80974,3.89,43812,,,,,,,,,,,,,,,,,,99999,99999,99999,99999,99999,99999,99999,99999,99999,99999,99999,99999
21:48:19,1510835160,2017-11-16T12:26:05,0.710,968.8,5.63,3.08,7.10,825.330,2037.550,102.416664,41.44,2.5444,363,23356,1.80740,3.89,43807,,,,,,,,,,,,,,,,,,99999,99999,99999,99999,99999,99999,99999,99999,99999,99999,99999,99999
21:48:49,1510835190,2017-11-16T12:26:35,0.707,969.2,5.63,3.10,7.12,825.330,2037.550,102.316666,41.27,2.5444,363,23356,1.79865,3.89,43803,,,,,,,,,,,,,,,,,,99999,99999,99999,99999,99999,99999,99999,99999,99999,99999,99999,99999
21:49:19,1510835220,2017-11-16T12:27:05,0.706,969.5,5.63,3.10,7.09,825.440,2037.550,102.650002,41.12,2.5444,363,23359,1.79691,3.89,43798,,,,,,,,,,,,,,,,,,99999,99999,99999,99999,99999,99999,99999,99999,99999,99999,99999,99999
21:49:49,1510835250,2017-11-16T12:27:35,0.712,969.9,5.65,3.09,7.10,825.460,2037.590,102.533333,41.10,2.5442,363,23356,1.81149,3.88,43794,,,,,,,,,,,,,,,,,,99999,99999,99999,99999,99999,99999,99999,99999,99999,99999,99999,99999
21:50:19,1510835280,2017-11-16T12:28:05,0.713,970.2,5.66,3.10,7.10,825.400,2037.650,103.366669,41.16,2.5442,363,23356,1.81412,3.88,43789,,,,,,,,,,,,,,,,,,99999,99999,99999,99999,99999,99999,99999,99999,99999,99999,99999,99999
21:50:49,1510835310,2017-11-16T12:28:35,0.708,970.6,5.66,3.09,7.14,825.540,2037.650,103.150002,41.03,2.5442,363,23357,1.80069,3.88,43785,,,,,,,,,,,,,,,,,,99999,99999,99999,99999,99999,99999,99999,99999,99999,99999,99999,99999
21:51:19,1510835340,2017-11-16T12:29:05,0.708,970.9,5.67,3.12,7.12,825.560,2037.720,101.883331,41.42,2.5442,363,23356,1.80011,3.88,43780,,,,,,,,,,,,,,,,,,99999,99999,99999,99999,99999,99999,99999,99999,99999,99999,99999,99999
21:51:49,1510835370,2017-11-16T12:29:35,0.714,971.3,5.68,3.11,7.14,825.580,2037.720,102.516670,41.62,2.5441,363,23358,1.81676,3.88,43776,,,,,,,,,,,,,,,,,,99999,99999,99999,99999,99999,99999,99999,99999,99999,99999,99999,99999
21:52:19,1510835400,2017-11-16T12:30:05,0.705,971.6,5.68,3.11,7.14,825.660,2037.720,102.183334,40.75,2.5441,363,23358,1.79429,3.88,43771,,,,,,,,,,,,,,,,,,99999,99999,99999,99999,99999,99999,99999,99999,99999,99999,99999,99999
21:52:49,1510835430,2017-11-16T12:30:35,0.714,972.0,5.70,3.11,7.15,825.580,2037.760,102.566666,40.77,2.5440,363,23358,1.81676,3.88,43767,,,,,,,,,,,,,,,,,,99999,99999,99999,99999,99999,99999,99999,99999,99999,99999,99999,99999
21:53:19,1510835460,2017-11-16T12:31:05,0.710,972.4,5.70,3.12,7.15,825.630,2037.760,103.116669,40.65,2.5440,363,23359,1.80652,3.88,43762,,,,,,,,,,,,,,,,,,99999,99999,99999,99999,99999,99999,99999,99999,99999,99999,99999,99999
21:53:49,1510835490,2017-11-16T12:31:35,0.710,972.7,5.70,3.14,7.15,825.530,2037.760,102.800003,40.58,2.5440,363,23359,1.80623,3.88,43758,,,,,,,,,,,,,,,,,,99999,99999,99999,99999,99999,99999,99999,99999,99999,99999,99999,99999
21:54:19,1510835520,2017-11-16T12:32:05,0.709,973.1,5.72,3.14,7.15,825.520,2037.820,101.650002,40.91,2.5439,363,23357,1.80419,3.88,43754,,,,,,,,,,,,,,,,,,99999,99999,99999,99999,99999,99999,99999,99999,99999,99999,99999,99999
21:54:49,1510835550,2017-11-16T12:32:35,0.708,973.4,5.74,3.17,7.16,825.620,2037.930,102.750000,40.71,2.5439,363,23358,1.80069,3.88,43749,,,,,,,,,,,,,,,,,,99999,99999,99999,99999,99999,99999,99999,99999,99999,99999,99999,99999
21:55:19,1510835580,2017-11-16T12:33:05,0.713,973.8,5.73,3.16,7.20,825.540,2037.930,103.383331,40.98,2.5439,363,23357,1.81500,3.88,43745,,,,,,,,,,,,,,,,,,99999,99999,99999,99999,99999,99999,99999,99999,99999,99999,99999,99999
21:55:49,1510835610,2017-11-16T12:33:35,0.706,974.1,5.75,3.19,7.18,825.560,2037.990,102.300003,40.89,2.5438,363,23357,1.79720,3.88,43740,,,,,,,,,,,,,,,,,,99999,99999,99999,99999,99999,99999,99999,99999,99999,99999,99999,99999
21:56:19,1510835640,2017-11-16T12:34:05,0.709,974.5,5.76,3.18,7.22,825.490,2037.990,101.783333,41.27,2.5437,363,23359,1.80244,3.88,43736,,,,,,,,,,,,,,,,,,99999,99999,99999,99999,99999,99999,99999,99999,99999,99999,99999,99999
21:56:49,1510835670,2017-11-16T12:34:35,0.712,974.8,5.77,3.21,7.22,825.530,2038.050,103.550003,41.52,2.5437,363,23360,1.81236,3.88,43731,,,,,,,,,,,,,,,,,,99999,99999,99999,99999,99999,99999,99999,99999,99999,99999,99999,99999
21:57:19,1510835700,2017-11-16T12:35:05,0.713,975.2,5.78,3.23,7.23,825.500,2038.090,104.849998,41.67,2.5436,363,23359,1.81383,3.88,43727,,,,,,,,,,,,,,,,,,99999,99999,99999,99999,99999,99999,99999,99999,99999,99999,99999,99999
21:57:49,1510835730,2017-11-16T12:35:35,0.714,975.5,5.79,3.21,7.23,825.560,2038.090,102.916664,41.62,2.5436,363,23362,1.81617,3.88,43722,,,,,,,,,,,,,,,,,,99999,99999,99999,99999,99999,99999,99999,99999,99999,99999,99999,99999
21:58:19,1510835760,2017-11-16T12:36:05,0.714,975.9,5.78,3.20,7.24,825.530,2038.090,103.866669,41.22,2.5437,363,23361,1.81587,3.88,43718,,,,,,,,,,,,,,,,,,99999,99999,99999,99999,99999,99999,99999,99999,99999,99999,99999,99999
21:58:49,1510835790,2017-11-16T12:36:35,0.707,976.3,5.81,3.20,7.22,825.500,2038.150,101.383331,41.09,2.5435,363,23360,1.79778,3.88,43713,,,,,,,,,,,,,,,,,,99999,99999,99999,99999,99999,99999,99999,99999,99999,99999,99999,99999
21:59:19,1510835820,2017-11-16T12:37:05,0.714,976.6,5.80,3.22,7.24,825.450,2038.150,103.650002,41.47,2.5435,363,23362,1.81529,3.88,43709,,,,,,,,,,,,,,,,,,99999,99999,99999,99999,99999,99999,99999,99999,99999,99999,99999,99999
21:59:49,1510835850,2017-11-16T12:37:35,0.706,977.0,5.80,3.16,7.26,825.370,2038.150,101.583336,41.18,2.5436,363,23359,1.79603,3.88,43705,,,,,,,,,,,,,,,,,,99999,99999,99999,99999,99999,99999,99999,99999,99999,99999,99999,99999
22:00:19,1510835880,2017-11-16T12:38:05,0.714,977.3,5.80,3.19,7.23,825.500,2038.150,103.099998,40.98,2.5436,363,23360,1.81529,3.88,43700,,,,,,,,,,,,,,,,,,99999,99999,99999,99999,99999,99999,99999,99999,99999,99999,99999,99999
22:00:49,1510835910,2017-11-16T12:38:35,0.707,977.7,5.79,3.20,7.23,825.430,2038.090,101.750000,40.98,2.5436,363,23361,1.79836,3.88,43696,,,,,,,,,,,,,,,,,,99999,99999,99999,99999,99999,99999,99999,99999,99999,99999,99999,99999
22:01:19,1510835940,2017-11-16T12:39:05,0.711,978.0,5.79,3.22,7.23,825.400,2038.090,103.199997,40.75,2.5436,363,23362,1.80856,3.88,43691,,,,,,,,,,,,,,,,,,99999,99999,99999,99999,99999,99999,99999,99999,99999,99999,99999,99999
22:01:49,1510835970,2017-11-16T12:39:35,0.713,978.4,5.79,3.20,7.26,825.300,2038.090,104.449997,41.09,2.5436,363,23359,1.81441,3.88,43687,,,,,,,,,,,,,,,,,,99999,99999,99999,99999,99999,99999,99999,99999,99999,99999,99999,99999
22:02:19,1510836000,2017-11-16T12:40:05,0.707,978.7,5.78,3.18,7.20,825.320,2038.090,102.316666,40.67,2.5437,363,23359,1.79924,3.88,43682,,,,,,,,,,,,,,,,,,99999,99999,99999,99999,99999,99999,99999,99999,99999,99999,99999,99999
22:02:49,1510836030,2017-11-16T12:40:35,0.711,979.1,5.78,3.20,7.28,825.290,2038.090,103.316666,40.68,2.5437,363,23360,1.80915,3.88,43678,,,,,,,,,,,,,,,,,,99999,99999,99999,99999,99999,99999,99999,99999,99999,99999,99999,99999
22:03:19,1510836060,2017-11-16T12:41:05,0.715,979.5,5.77,3.18,7.24,825.350,2038.050,103.650002,40.59,2.5437,363,23359,1.81793,3.88,43673,,,,,,,,,,,,,,,,,,99999,99999,99999,99999,99999,99999,99999,99999,99999,99999,99999,99999
22:03:49,1510836090,2017-11-16T12:41:35,0.706,979.8,5.77,3.20,7.20,825.300,2038.050,102.916664,40.78,2.5437,363,23358,1.79516,3.88,43669,,,,,,,,,,,,,,,,,,99999,99999,99999,99999,99999,99999,99999,99999,99999,99999,99999,99999
22:04:19,1510836120,2017-11-16T12:42:05,0.709,980.2,5.77,3.19,7.23,825.400,2038.050,102.383331,40.50,2.5437,363,23359,1.80448,3.88,43664,,,,,,,,,,,,,,,,,,99999,99999,99999,99999,99999,99999,99999,99999,99999,99999,99999,99999
22:04:49,1510836150,2017-11-16T12:42:35,0.710,980.5,5.78,3.18,7.22,825.420,2038.090,103.333336,40.17,2.5437,363,23359,1.80681,3.88,43660,,,,,,,,,,,,,,,,,,99999,99999,99999,99999,99999,99999,99999,99999,99999,99999,99999,99999
22:05:19,1510836180,2017-11-16T12:43:05,0.711,980.9,5.78,3.21,7.26,825.370,2038.090,102.516670,40.09,2.5437,363,23360,1.80740,3.88,43655,,,,,,,,,,,,,,,,,,99999,99999,99999,99999,99999,99999,99999,99999,99999,99999,99999,99999
22:05:49,1510836210,2017-11-16T12:43:35,0.710,981.2,5.77,3.21,7.22,825.380,2038.050,101.849998,40.32,2.5437,363,23360,1.80536,3.88,43651,,,,,,,,,,,,,,,,,,99999,99999,99999,99999,99999,99999,99999,99999,99999,99999,99999,99999
22:06:19,1510836240,2017-11-16T12:44:05,0.707,981.6,5.78,3.20,7.24,825.420,2038.090,102.116669,40.45,2.5437,363,23358,1.79865,3.88,43646,,,,,,,,,,,,,,,,,,99999,99999,99999,99999,99999,99999,99999,99999,99999,99999,99999,99999
22:06:49,1510836270,2017-11-16T12:44:35,0.706,981.9,5.78,3.21,7.23,825.450,2038.090,101.849998,40.31,2.5437,363,23357,1.79632,3.88,43642,,,,,,,,,,,,,,,,,,99999,99999,99999,99999,99999,99999,99999,99999,99999,99999,99999,99999
22:07:19,1510836300,2017-11-16T12:45:05,0.709,982.3,5.78,3.20,7.24,825.450,2038.090,103.466667,40.11,2.5437,363,23358,1.80361,3.88,43637,,,,,,,,,,,,,,,,,,99999,99999,99999,99999,99999,99999,99999,99999,99999,99999,99999,99999
22:07:49,1510836330,2017-11-16T12:45:35,0.714,982.7,5.78,3.19,7.24,825.420,2038.090,104.383331,40.68,2.5437,363,23362,1.81676,3.88,43633,,,,,,,,,,,,,,,,,,99999,99999,99999,99999,99999,99999,99999,99999,99999,99999,99999,99999
22:08:19,1510836360,2017-11-16T12:46:05,0.708,983.0,5.79,3.23,7.23,825.400,2038.090,102.583336,40.60,2.5436,363,23361,1.80098,3.88,43629,,,,,,,,,,,,,,,,,,99999,99999,99999,99999,99999,99999,99999,99999,99999,99999,99999,99999
22:08:49,1510836390,2017-11-16T12:46:35,0.713,983.4,5.78,3.21,7.26,825.370,2038.090,103.733330,40.64,2.5437,363,23362,1.81383,3.88,43624,,,,,,,,,,,,,,,,,,99999,99999,99999,99999,99999,99999,99999,99999,99999,99999,99999,99999
22:09:19,1510836420,2017-11-16T12:47:05,0.713,983.7,5.80,3.24,7.23,825.400,2038.150,104.400002,40.79,2.5436,363,23360,1.81295,3.88,43620,,,,,,,,,,,,,,,,,,99999,99999,99999,99999,99999,99999,99999,99999,99999,99999,99999,99999
22:09:49,1510836450,2017-11-16T12:47:35,0.712,984.1,5.80,3.24,7.28,825.420,2038.150,103.866669,40.83,2.5436,363,23363,1.81149,3.88,43615,,,,,,,,,,,,,,,,,,99999,99999,99999,99999,99999,99999,99999,99999,99999,99999,99999,99999
22:10:19,1510836480,2017-11-16T12:48:05,0.711,984.4,5.80,3.22,7.26,825.400,2038.150,102.500000,40.62,2.5436,363,23361,1.80740,3.88,43611,,,,,,,,,,,,,,,,,,99999,99999,99999,99999,99999,99999,99999,99999,99999,99999,99999,99999
22:10:49,1510836510,2017-11-16T12:48:35,0.706,984.8,5.80,3.23,7.23,825.290,2038.150,103.183334,40.49,2.5436,363,23363,1.79516,3.88,43606,,,,,,,,,,,,,,,,,,99999,99999,99999,99999,99999,99999,99999,99999,99999,99999,99999,99999
22:11:19,1510836540,2017-11-16T12:49:05,0.712,985.1,5.80,3.24,7.28,825.370,2038.150,104.333336,40.49,2.5436,363,23364,1.81032,3.88,43602,,,,,,,,,,,,,,,,,,99999,99999,99999,99999,99999,99999,99999,99999,99999,99999,99999,99999
22:11:49,1510836570,2017-11-16T12:49:35,0.706,985.5,5.78,3.24,7.23,825.320,2038.090,101.599998,40.44,2.5437,363,23360,1.79632,3.88,43597,,,,,,,,,,,,,,,,,,99999,99999,99999,99999,99999,99999,99999,99999,99999,99999,99999,99999
22:12:19,1510836600,2017-11-16T12:50:05,0.707,985.8,5.78,3.21,7.28,825.420,2038.090,102.566666,40.41,2.5437,363,23361,1.79720,3.88,43593,,,,,,,,,,,,,,,,,,99999,99999,99999,99999,99999,99999,99999,99999,99999,99999,99999,99999
22:12:49,1510836630,2017-11-16T12:50:35,0.710,986.2,5.80,3.25,7.31,825.370,2038.150,103.250000,40.79,2.5436,363,23360,1.80565,3.88,43588,,,,,,,,,,,,,,,,,,99999,99999,99999,99999,99999,99999,99999,99999,99999,99999,99999,99999
22:13:19,1510836660,2017-11-16T12:51:05,0.714,986.6,5.78,3.24,7.24,825.400,2038.090,103.033333,40.68,2.5437,363,23363,1.81617,3.88,43584,,,,,,,,,,,,,,,,,,99999,99999,99999,99999,99999,99999,99999,99999,99999,99999,99999,99999
22:13:49,1510836690,2017-11-16T12:51:35,0.710,986.9,5.80,3.22,7.23,825.400,2038.150,101.900002,40.45,2.5436,363,23361,1.80477,3.88,43579,,,,,,,,,,,,,,,,,,99999,99999,99999,99999,99999,99999,99999,99999,99999,99999,99999,99999
22:14:19,1510836720,2017-11-16T12:52:05,0.714,987.3,5.80,3.24,7.24,825.370,2038.150,103.550003,40.62,2.5436,363,23362,1.81617,3.88,43575,,,,,,,,,,,,,,,,,,99999,99999,99999,99999,99999,99999,99999,99999,99999,99999,99999,99999
22:14:49,1510836750,2017-11-16T12:52:35,0.709,987.6,5.80,3.23,7.24,825.400,2038.150,103.583336,40.59,2.5436,363,23361,1.80244,3.88,43570,,,,,,,,,,,,,,,,,,99999,99999,99999,99999,99999,99999,99999,99999,99999,99999,99999,99999
22:15:19,1510836780,2017-11-16T12:53:05,0.710,988.0,5.81,3.25,7.23,825.450,2038.150,102.150002,40.61,2.5435,363,23362,1.80536,3.88,43566,,,,,,,,,,,,,,,,,,99999,99999,99999,99999,99999,99999,99999,99999,99999,99999,99999,99999
22:15:49,1510836810,2017-11-16T12:53:35,0.714,988.3,5.82,3.25,7.30,825.470,2038.220,103.949997,40.43,2.5435,363,23362,1.81529,3.88,43561,,,,,,,,,,,,,,,,,,99999,99999,99999,99999,99999,99999,99999,99999,99999,99999,99999,99999
22:16:19,1510836840,2017-11-16T12:54:05,0.715,988.7,5.82,3.28,7.26,825.470,2038.220,102.900002,40.52,2.5435,363,23362,1.81910,3.88,43557,,,,,,,,,,,,,,,,,,99999,99999,99999,99999,99999,99999,99999,99999,99999,99999,99999,99999
22:16:49,1510836870,2017-11-16T12:54:35,0.707,989.0,5.83,3.26,7.26,825.420,2038.220,101.566666,41.07,2.5434,363,23361,1.79924,3.88,43552,,,,,,,,,,,,,,,,,,99999,99999,99999,99999,99999,99999,99999,99999,99999,99999,99999,99999
22:17:19,1510836900,2017-11-16T12:55:05,0.711,989.4,5.85,3.29,7.31,825.440,2038.260,102.349998,41.07,2.5432,363,23364,1.80798,3.88,43548,,,,,,,,,,,,,,,,,,99999,99999,99999,99999,99999,99999,99999,99999,99999,99999,99999,99999
22:17:49,1510836930,2017-11-16T12:55:35,0.714,989.8,5.86,3.30,7.30,825.410,2038.380,103.583336,40.43,2.5433,363,23364,1.81587,3.88,43543,,,,,,,,,,,,,,,,,,99999,99999,99999,99999,99999,99999,99999,99999,99999,99999,99999,99999
22:18:19,1510836960,2017-11-16T12:56:05,0.713,990.1,5.88,3.30,7.34,825.480,2038.430,102.550003,40.71,2.5432,363,23366,1.81324,3.88,43539,,,,,,,,,,,,,,,,,,99999,99999,99999,99999,99999,99999,99999,99999,99999,99999,99999,99999
22:18:49,1510836990,2017-11-16T12:56:35,0.710,990.5,5.89,3.32,7.33,825.500,2038.490,102.683334,41.10,2.5432,363,23364,1.80681,3.88,43535,,,,,,,,,,,,,,,,,,99999,99999,99999,99999,99999,99999,99999,99999,99999,99999,99999,99999
22:19:19,1510837020,2017-11-16T12:57:05,0.713,990.8,5.91,3.35,7.34,825.500,2038.530,104.000000,41.02,2.5430,363,23365,1.81266,3.88,43530,,,,,,,,,,,,,,,,,,99999,99999,99999,99999,99999,99999,99999,99999,99999,99999,99999,99999
22:19:49,1510837050,2017-11-16T12:57:35,0.709,991.2,5.92,3.32,7.36,825.390,2038.530,103.133331,40.59,2.5429,363,23364,1.80419,3.88,43526,,,,,,,,,,,,,,,,,,99999,99999,99999,99999,99999,99999,99999,99999,99999,99999,99999,99999
22:20:19,1510837080,2017-11-16T12:58:05,0.712,991.5,5.93,3.35,7.34,825.420,2038.590,104.400002,40.38,2.5429,363,23364,1.81120,3.88,43521,,,,,,,,,,,,,,,,,,99999,99999,99999,99999,99999,99999,99999,99999,99999,99999,99999,99999
22:20:49,1510837110,2017-11-16T12:58:35,0.707,991.9,5.94,3.35,7.41,825.340,2038.590,103.533333,40.42,2.5428,363,23364,1.79749,3.88,43517,,,,,,,,,,,,,,,,,,99999,99999,99999,99999,99999,99999,99999,99999,99999,99999,99999,99999
22:21:19,1510837140,2017-11-16T12:59:05,0.714,992.2,5.96,3.38,7.41,825.280,2038.650,104.050003,40.31,2.5427,363,23367,1.81441,3.88,43512,,,,,,,,,,,,,,,,,,99999,99999,99999,99999,99999,99999,99999,99999,99999,99999,99999,99999
22:21:49,1510837170,2017-11-16T12:59:35,0.715,992.6,5.98,3.39,7.43,825.250,2038.700,103.750000,40.29,2.5426,363,23365,1.81851,3.88,43508,,,,,,,,,,,,,,,,,,99999,99999,99999,99999,99999,99999,99999,99999,99999,99999,99999,99999
22:22:19,1510837200,2017-11-16T13:00:05,0.710,993.0,5.99,3.40,7.43,825.300,2038.820,103.083336,40.24,2.5427,363,23367,1.80565,3.88,43503,,,,,,,,,,,,,,,,,,99999,99999,99999,99999,99999,99999,99999,99999,99999,99999,99999,99999
22:22:49,1510837230,2017-11-16T13:00:35,0.709,993.3,6.00,3.42,7.43,825.270,2038.870,102.050003,40.29,2.5426,363,23367,1.80157,3.88,43499,,,,,,,,,,,,,,,,,,99999,99999,99999,99999,99999,99999,99999,99999,99999,99999,99999,99999
22:23:19,1510837260,2017-11-16T13:01:05,0.713,993.7,6.01,3.42,7.47,825.320,2038.870,102.666664,39.89,2.5426,363,23368,1.81207,3.88,43494,,,,,,,,,,,,,,,,,,99999,99999,99999,99999,99999,99999,99999,99999,99999,99999,99999,99999
22:23:49,1510837290,2017-11-16T13:01:35,0.711,994.0,6.03,3.41,7.45,825.370,2038.930,103.283333,40.07,2.5425,363,23367,1.80740,3.88,43490,,,,,,,,,,,,,,,,,,99999,99999,99999,99999,99999,99999,99999,99999,99999,99999,99999,99999
22:24:19,1510837320,2017-11-16T13:02:05,0.715,994.4,6.04,3.46,7.47,825.340,2038.990,103.666664,40.27,2.5424,363,23370,1.81881,3.88,43485,,,,,,,,,,,,,,,,,,99999,99999,99999,99999,99999,99999,99999,99999,99999,99999,99999,99999
22:24:49,1510837350,2017-11-16T13:02:35,0.707,994.7,6.04,3.43,7.47,825.390,2038.990,103.616669,40.32,2.5424,363,23368,1.79865,3.88,43481,,,,,,,,,,,,,,,,,,99999,99999,99999,99999,99999,99999,99999,99999,99999,99999,99999,99999
22:25:19,1510837380,2017-11-16T13:03:05,0.715,995.1,6.07,3.46,7.49,825.360,2039.030,104.650002,40.33,2.5422,363,23369,1.81676,3.88,43476,,,,,,,,,,,,,,,,,,99999,99999,99999,99999,99999,99999,99999,99999,99999,99999,99999,99999
22:25:49,1510837410,2017-11-16T13:03:35,0.716,995.5,6.09,3.47,7.55,825.330,2039.090,104.133331,40.41,2.5421,363,23371,1.81939,3.88,43472,,,,,,,,,,,,,,,,,,99999,99999,99999,99999,99999,99999,99999,99999,99999,99999,99999,99999
22:26:19,1510837440,2017-11-16T13:04:05,0.713,995.8,6.09,3.49,7.52,825.410,2039.090,103.483330,40.27,2.5421,363,23366,1.81266,3.88,43467,,,,,,,,,,,,,,,,,,99999,99999,99999,99999,99999,99999,99999,99999,99999,99999,99999,99999
22:26:49,1510837470,2017-11-16T13:04:35,0.710,996.2,6.11,3.48,7.53,825.400,2039.260,103.733330,39.71,2.5421,363,23368,1.80506,3.88,43463,,,,,,,,,,,,,,,,,,99999,99999,99999,99999,99999,99999,99999,99999,99999,99999,99999,99999
22:27:19,1510837500,2017-11-16T13:05:05,0.712,996.5,6.12,3.49,7.57,825.290,2039.260,102.983330,39.75,2.5421,363,23372,1.81090,3.88,43458,,,,,,,,,,,,,,,,,,99999,99999,99999,99999,99999,99999,99999,99999,99999,99999,99999,99999
22:27:49,1510837530,2017-11-16T13:05:35,0.710,996.9,6.13,3.51,7.57,825.320,2039.320,103.816666,39.94,2.5420,363,23370,1.80477,3.88,43454,,,,,,,,,,,,,,,,,,99999,99999,99999,99999,99999,99999,99999,99999,99999,99999,99999,99999
22:28:19,1510837560,2017-11-16T13:06:05,0.714,997.2,6.15,3.55,7.57,825.250,2039.370,103.966667,39.91,2.5419,363,23370,1.81383,3.88,43449,,,,,,,,,,,,,,,,,,99999,99999,99999,99999,99999,99999,99999,99999,99999,99999,99999,99999
22:28:49,1510837590,2017-11-16T13:06:35,0.709,997.6,6.16,3.54,7.59,825.260,2039.370,103.833336,40.47,2.5418,363,23369,1.80186,3.88,43445,,,,,,,,,,,,,,,,,,99999,99999,99999,99999,99999,99999,99999,99999,99999,99999,99999,99999
22:29:19,1510837620,2017-11-16T13:07:05,0.712,997.9,6.16,3.53,7.62,825.230,2039.370,104.183334,40.45,2.5418,363,23371,1.80974,3.88,43440,,,,,,,,,,,,,,,,,,99999,99999,99999,99999,99999,99999,99999,99999,99999,99999,99999,99999
22:29:49,1510837650,2017-11-16T13:07:35,0.716,998.3,6.17,3.53,7.59,825.330,2039.430,104.366669,40.63,2.5418,363,23372,1.81998,3.88,43436,,,,,,,,,,,,,,,,,,99999,99999,99999,99999,99999,99999,99999,99999,99999,99999,99999,99999
22:30:19,1510837680,2017-11-16T13:08:05,0.710,998.7,6.17,3.54,7.62,825.430,2039.430,102.699997,40.68,2.5418,363,23372,1.80419,3.88,43431,,,,,,,,,,,,,,,,,,99999,99999,99999,99999,99999,99999,99999,99999,99999,99999,99999,99999
22:30:49,1510837710,2017-11-16T13:08:35,0.716,999.0,6.17,3.52,7.64,825.410,2039.430,103.966667,40.41,2.5418,363,23370,1.81939,3.88,43427,,,,,,,,,,,,,,,,,,99999,99999,99999,99999,99999,99999,99999,99999,99999,99999,99999,99999
22:31:19,1510837740,2017-11-16T13:09:05,0.709,999.4,6.16,3.54,7.60,825.470,2039.370,101.849998,40.26,2.5418,363,23369,1.80244,3.88,43422,,,,,,,,,,,,,,,,,,99999,99999,99999,99999,99999,99999,99999,99999,99999,99999,99999,99999
22:31:49,1510837770,2017-11-16T13:09:35,0.715,999.7,6.15,3.53,7.60,825.460,2039.370,103.683334,40.18,2.5419,363,23370,1.81851,3.88,43418,,,,,,,,,,,,,,,,,,99999,99999,99999,99999,99999,99999,99999,99999,99999,99999,99999,99999
22:32:19,1510837800,2017-11-16T13:10:05,0.709,1000.1,6.15,3.50,7.62,825.440,2039.370,103.150002,39.90,2.5419,363,23368,1.80302,3.88,43413,,,,,,,,,,,,,,,,,,99999,99999,99999,99999,99999,99999,99999,99999,99999,99999,99999,99999
22:32:49,1510837830,2017-11-16T13:10:35,0.715,1000.4,6.13,3.49,7.59,825.390,2039.320,102.816666,39.77,2.5420,363,23370,1.81793,3.88,43409,,,,,,,,,,,,,,,,,,99999,99999,99999,99999,99999,99999,99999,99999,99999,99999,99999,99999
22:33:19,1510837860,2017-11-16T13:11:05,0.708,1000.8,6.12,3.52,7.57,825.480,2039.260,102.466667,40.34,2.5420,363,23370,1.79894,3.88,43404,,,,,,,,,,,,,,,,,,99999,99999,99999,99999,99999,99999,99999,99999,99999,99999,99999,99999
22:33:49,1510837890,2017-11-16T13:11:35,0.709,1001.2,6.12,3.50,7.57,825.400,2039.260,105.383331,40.45,2.5420,363,23369,1.80273,3.88,43400,,,,,,,,,,,,,,,,,,99999,99999,99999,99999,99999,99999,99999,99999,99999,99999,99999,99999
22:34:19,1510837920,2017-11-16T13:12:05,0.715,1001.5,6.10,3.49,7.59,825.380,2039.150,105.750000,40.41,2.5421,363,23367,1.81705,3.88,43395,,,,,,,,,,,,,,,,,,99999,99999,99999,99999,99999,99999,99999,99999,99999,99999,99999,99999
22:34:49,1510837950,2017-11-16T13:12:35,0.712,1001.9,6.09,3.49,7.55,825.280,2039.090,103.816666,40.20,2.5421,363,23369,1.81090,3.88,43391,,,,,,,,,,,,,,,,,,99999,99999,99999,99999,99999,99999,99999,99999,99999,99999,99999,99999
22:35:19,1510837980,2017-11-16T13:13:05,0.710,1002.2,6.09,3.48,7.53,825.300,2039.090,102.983330,40.23,2.5421,363,23370,1.80448,3.88,43386,,,,,,,,,,,,,,,,,,99999,99999,99999,99999,99999,99999,99999,99999,99999,99999,99999,99999
22:35:49,1510838010,2017-11-16T13:13:35,0.716,1002.6,6.08,3.47,7.59,825.250,2039.090,104.933334,40.44,2.5422,363,23368,1.81910,3.88,43382,,,,,,,,,,,,,,,,,,99999,99999,99999,99999,99999,99999,99999,99999,99999,99999,99999,99999
22:36:19,1510838040,2017-11-16T13:14:05,0.710,1002.9,6.07,3.48,7.53,825.180,2039.030,103.400002,40.15,2.5422,363,23368,1.80419,3.88,43377,,,,,,,,,,,,,,,,,,99999,99999,99999,99999,99999,99999,99999,99999,99999,99999,99999,99999
22:36:49,1510838070,2017-11-16T13:14:35,0.713,1003.3,6.07,3.45,7.52,825.180,2039.030,103.633331,40.35,2.5422,363,23367,1.81266,3.88,43373,,,,,,,,,,,,,,,,,,99999,99999,99999,99999,99999,99999,99999,99999,99999,99999,99999,99999
22:37:19,1510838100,2017-11-16T13:15:05,0.716,1003.6,6.06,3.48,7.53,825.230,2039.030,104.199997,40.22,2.5423,363,23368,1.82115,3.88,43369,,,,,,,,,,,,,,,,,,99999,99999,99999,99999,99999,99999,99999,99999,99999,99999,99999,99999
22:37:49,1510838130,2017-11-16T13:15:35,0.711,1004.0,6.05,3.47,7.52,825.230,2038.990,104.133331,40.26,2.5423,363,23368,1.80711,3.88,43364,,,,,,,,,,,,,,,,,,99999,99999,99999,99999,99999,99999,99999,99999,99999,99999,99999,99999
22:38:19,1510838160,2017-11-16T13:16:05,0.707,1004.4,6.06,3.48,7.51,825.250,2039.030,103.650002,40.72,2.5423,363,23366,1.79749,3.88,43360,,,,,,,,,,,,,,,,,,99999,99999,99999,99999,99999,99999,99999,99999,99999,99999,99999,99999
22:38:49,1510838190,2017-11-16T13:16:35,0.710,1004.7,6.05,3.45,7.49,825.340,2038.990,104.366669,40.52,2.5423,363,23369,1.80477,3.88,43355,,,,,,,,,,,,,,,,,,99999,99999,99999,99999,99999,99999,99999,99999,99999,99999,99999,99999
22:39:19,1510838220,2017-11-16T13:17:05,0.716,1005.1,6.04,3.46,7.53,825.360,2038.990,104.500000,40.77,2.5424,363,23369,1.82027,3.88,43351,,,,,,,,,,,,,,,,,,99999,99999,99999,99999,99999,99999,99999,99999,99999,99999,99999,99999
22:39:49,1510838250,2017-11-16T13:17:35,0.708,1005.4,6.03,3.46,7.51,825.340,2038.930,102.283333,40.53,2.5424,363,23369,1.79953,3.88,43346,,,,,,,,,,,,,,,,,,99999,99999,99999,99999,99999,99999,99999,99999,99999,99999,99999,99999
22:40:19,1510838280,2017-11-16T13:18:05,0.708,1005.8,6.02,3.46,7.52,825.370,2038.930,102.983330,40.43,2.5425,363,23368,1.79982,3.88,43342,,,,,,,,,,,,,,,,,,99999,99999,99999,99999,99999,99999,99999,99999,99999,99999,99999,99999
22:40:49,1510838310,2017-11-16T13:18:35,0.709,1006.1,6.01,3.42,7.51,825.350,2038.870,102.616669,40.29,2.5426,363,23369,1.80186,3.88,43337,,,,,,,,,,,,,,,,,,99999,99999,99999,99999,99999,99999,99999,99999,99999,99999,99999,99999
22:41:19,1510838340,2017-11-16T13:19:05,0.707,1006.5,5.99,3.42,7.45,825.190,2038.820,103.233330,40.18,2.5427,363,23369,1.79894,3.88,43333,,,,,,,,,,,,,,,,,,99999,99999,99999,99999,99999,99999,99999,99999,99999,99999,99999,99999
22:41:49,1510838370,2017-11-16T13:19:35,0.715,1006.8,5.97,3.38,7.47,825.230,2038.700,103.633331,40.17,2.5427,363,23370,1.81851,3.88,43328,,,,,,,,,,,,,,,,,,99999,99999,99999,99999,99999,99999,99999,99999,99999,99999,99999,99999
22:42:19,1510838400,2017-11-16T13:20:05,0.707,1007.2,5.96,3.40,7.43,825.180,2038.650,102.916664,40.22,2.5427,363,23367,1.79749,3.88,43324,,,,,,,,,,,,,,,,,,99999,99999,99999,99999,99999,99999,99999,99999,99999,99999,99999,99999
22:42:49,1510838430,2017-11-16T13:20:35,0.715,1007.6,5.95,3.38,7.44,825.150,2038.650,104.883331,40.16,2.5428,363,23367,1.81822,3.88,43319,,,,,,,,,,,,,,,,,,99999,99999,99999,99999,99999,99999,99999,99999,99999,99999,99999,99999
22:43:19,1510838460,2017-11-16T13:21:05,0.708,1007.9,5.93,3.36,7.41,825.130,2038.590,102.666664,40.21,2.5429,363,23367,1.79982,3.88,43315,,,,,,,,,,,,,,,,,,99999,99999,99999,99999,99999,99999,99999,99999,99999,99999,99999,99999
22:43:49,1510838490,2017-11-16T13:21:35,0.707,1008.3,5.92,3.34,7.38,825.110,2038.530,102.716667,40.05,2.5430,363,23367,1.79894,3.88,43310,,,,,,,,,,,,,,,,,,99999,99999,99999,99999,99999,99999,99999,99999,99999,99999,99999,99999
22:44:19,1510838520,2017-11-16T13:22:05,0.706,1008.6,5.92,3.38,7.38,825.080,2038.530,103.366669,40.37,2.5430,363,23366,1.79574,3.88,43306,,,,,,,,,,,,,,,,,,99999,99999,99999,99999,99999,99999,99999,99999,99999,99999,99999,99999
22:44:49,1510838550,2017-11-16T13:22:35,0.707,1009.0,5.91,3.38,7.38,825.080,2038.530,102.316666,40.32,2.5431,363,23367,1.79865,3.88,43301,,,,,,,,,,,,,,,,,,99999,99999,99999,99999,99999,99999,99999,99999,99999,99999,99999,99999
22:45:19,1510838580,2017-11-16T13:23:05,0.705,1009.3,5.91,3.36,7.36,825.080,2038.530,103.316666,40.42,2.5430,363,23363,1.79284,3.88,43297,,,,,,,,,,,,,,,,,,99999,99999,99999,99999,99999,99999,99999,99999,99999,99999,99999,99999
22:45:49,1510838610,2017-11-16T13:23:35,0.708,1009.7,5.91,3.37,7.36,825.210,2038.530,101.983330,40.43,2.5430,363,23363,1.79982,3.88,43292,,,,,,,,,,,,,,,,,,99999,99999,99999,99999,99999,99999,99999,99999,99999,99999,99999,99999
22:46:19,1510838640,2017-11-16T13:24:05,0.714,1010.0,5.90,3.38,7.36,825.080,2038.490,104.333336,40.34,2.5431,363,23366,1.81646,3.88,43288,,,,,,,,,,,,,,,,,,99999,99999,99999,99999,99999,99999,99999,99999,99999,99999,99999,99999
22:46:49,1510838670,2017-11-16T13:24:35,0.709,1010.4,5.91,3.37,7.38,825.180,2038.530,102.833336,40.00,2.5431,363,23367,1.80390,3.88,43283,,,,,,,,,,,,,,,,,,99999,99999,99999,99999,99999,99999,99999,99999,99999,99999,99999,99999
22:47:19,1510838700,2017-11-16T13:25:05,0.708,1010.8,5.91,3.38,7.38,825.130,2038.530,103.183334,39.88,2.5431,363,23368,1.80040,3.88,43279,,,,,,,,,,,,,,,,,,99999,99999,99999,99999,99999,99999,99999,99999,99999,99999,99999,99999
22:47:49,1510838730,2017-11-16T13:25:35,0.713,1011.1,5.90,3.36,7.38,825.140,2038.490,104.550003,40.89,2.5431,363,23367,1.81383,3.88,43274,,,,,,,,,,,,,,,,,,99999,99999,99999,99999,99999,99999,99999,99999,99999,99999,99999,99999
22:48:19,1510838760,2017-11-16T13:26:05,0.714,1011.5,5.92,3.41,7.38,825.180,2038.530,103.933334,40.57,2.5429,363,23365,1.81500,3.88,43270,,,,,,,,,,,,,,,,,,99999,99999,99999,99999,99999,99999,99999,99999,99999,99999,99999,99999
22:48:49,1510838790,2017-11-16T13:26:35,0.710,1011.8,5.92,3.38,7.39,825.210,2038.530,102.416664,40.26,2.5430,363,23366,1.80506,3.87,43265,,,,,,,,,,,,,,,,,,99999,99999,99999,99999,99999,99999,99999,99999,99999,99999,99999,99999
22:49:19,1510838820,2017-11-16T13:27:05,0.710,1012.2,5.93,3.40,7.38,825.290,2038.590,104.500000,40.14,2.5430,363,23367,1.80623,3.87,43261,,,,,,,,,,,,,,,,,,99999,99999,99999,99999,99999,99999,99999,99999,99999,99999,99999,99999
22:49:49,1510838850,2017-11-16T13:27:35,0.712,1012.5,5.93,3.40,7.39,825.290,2038.590,104.033333,40.82,2.5429,363,23366,1.80974,3.87,43256,,,,,,,,,,,,,,,,,,99999,99999,99999,99999,99999,99999,99999,99999,99999,99999,99999,99999
22:50:19,1510838880,2017-11-16T13:28:05,0.714,1012.9,5.95,3.40,7.41,825.310,2038.650,104.949997,40.59,2.5428,363,23366,1.81676,3.87,43252,,,,,,,,,,,,,,,,,,99999,99999,99999,99999,99999,99999,99999,99999,99999,99999,99999,99999
22:50:49,1510838910,2017-11-16T13:28:35,0.713,1013.2,5.94,3.41,7.39,825.260,2038.590,102.699997,40.34,2.5428,363,23369,1.81236,3.87,43247,,,,,,,,,,,,,,,,,,99999,99999,99999,99999,99999,99999,99999,99999,99999,99999,99999,99999
22:51:19,1510838940,2017-11-16T13:29:05,0.712,1013.6,5.95,3.44,7.39,825.250,2038.650,101.300003,40.46,2.5428,363,23368,1.80944,3.87,43243,,,,,,,,,,,,,,,,,,99999,99999,99999,99999,99999,99999,99999,99999,99999,99999,99999,99999
22:51:49,1510838970,2017-11-16T13:29:35,0.714,1014.0,5.94,3.42,7.41,825.150,2038.590,104.916664,40.15,2.5429,363,23367,1.81470,3.87,43238,,,,,,,,,,,,,,,,,,99999,99999,99999,99999,99999,99999,99999,99999,99999,99999,99999,99999
22:52:19,1510839000,2017-11-16T13:30:05,0.706,1014.3,5.95,3.41,7.41,825.120,2038.650,103.533333,39.90,2.5429,363,23367,1.79603,3.87,43234,,,,,,,,,,,,,,,,,,99999,99999,99999,99999,99999,99999,99999,99999,99999,99999,99999,99999
22:52:49,1510839030,2017-11-16T13:30:35,0.712,1014.7,5.95,3.43,7.41,825.070,2038.650,103.800003,40.35,2.5428,363,23366,1.81090,3.87,43229,,,,,,,,,,,,,,,,,,99999,99999,99999,99999,99999,99999,99999,99999,99999,99999,99999,99999
22:53:19,1510839060,2017-11-16T13:31:05,0.709,1015.0,5.97,3.42,7.44,825.070,2038.700,102.816666,40.33,2.5427,363,23366,1.80157,3.87,43225,,,,,,,,,,,,,,,,,,99999,99999,99999,99999,99999,99999,99999,99999,99999,99999,99999,99999
22:53:49,1510839090,2017-11-16T13:31:35,0.709,1015.4,5.98,3.48,7.41,825.070,2038.700,102.849998,40.25,2.5426,363,23371,1.80273,3.87,43221,,,,,,,,,,,,,,,,,,99999,99999,99999,99999,99999,99999,99999,99999,99999,99999,99999,99999
22:54:19,1510839120,2017-11-16T13:32:05,0.715,1015.7,5.99,3.47,7.44,825.140,2038.820,104.400002,40.11,2.5427,363,23368,1.81822,3.87,43216,,,,,,,,,,,,,,,,,,99999,99999,99999,99999,99999,99999,99999,99999,99999,99999,99999,99999
22:54:49,1510839150,2017-11-16T13:32:35,0.712,1016.1,6.00,3.49,7.45,825.030,2038.870,104.716667,40.30,2.5426,363,23369,1.80915,3.87,43212,,,,,,,,,,,,,,,,,,99999,99999,99999,99999,99999,99999,99999,99999,99999,99999,99999,99999
22:55:19,1510839180,2017-11-16T13:33:05,0.714,1016.4,6.01,3.52,7.44,825.060,2038.870,104.900002,40.50,2.5425,363,23371,1.81617,3.87,43207,,,,,,,,,,,,,,,,,,99999,99999,99999,99999,99999,99999,99999,99999,99999,99999,99999,99999
22:55:49,1510839210,2017-11-16T13:33:35,0.714,1016.8,6.02,3.52,7.45,825.080,2038.930,103.933334,40.53,2.5425,363,23371,1.81470,3.87,43203,,,,,,,,,,,,,,,,,,99999,99999,99999,99999,99999,99999,99999,99999,99999,99999,99999,99999
22:56:19,1510839240,2017-11-16T13:34:05,0.709,1017.2,6.03,3.57,7.51,825.030,2038.930,102.283333,40.46,2.5424,363,23370,1.80273,3.87,43198,,,,,,,,,,,,,,,,,,99999,99999,99999,99999,99999,99999,99999,99999,99999,99999,99999,99999
22:56:49,1510839270,2017-11-16T13:34:35,0.713,1017.5,6.04,3.56,7.47,825.020,2038.990,101.866669,40.69,2.5424,363,23372,1.81207,3.87,43194,,,,,,,,,,,,,,,,,,99999,99999,99999,99999,99999,99999,99999,99999,99999,99999,99999,99999
22:57:19,1510839300,2017-11-16T13:35:05,0.714,1017.9,6.04,3.59,7.49,825.070,2038.990,104.349998,40.39,2.5424,363,23373,1.81646,3.87,43189,,,,,,,,,,,,,,,,,,99999,99999,99999,99999,99999,99999,99999,99999,99999,99999,99999,99999
22:57:49,1510839330,2017-11-16T13:35:35,0.708,1018.2,6.05,3.60,7.51,825.050,2038.990,102.349998,40.40,2.5423,363,23373,1.80098,3.87,43185,,,,,,,,,,,,,,,,,,99999,99999,99999,99999,99999,99999,99999,99999,99999,99999,99999,99999
22:58:19,1510839360,2017-11-16T13:36:05,0.714,1018.6,6.05,3.60,7.53,825.000,2038.990,104.500000,40.38,2.5423,363,23374,1.81529,3.87,43180,,,,,,,,,,,,,,,,,,99999,99999,99999,99999,99999,99999,99999,99999,99999,99999,99999,99999
22:58:49,1510839390,2017-11-16T13:36:35,0.714,1018.9,6.07,3.62,7.51,825.100,2039.030,104.300003,40.12,2.5422,363,23372,1.81441,3.87,43176,,,,,,,,,,,,,,,,,,99999,99999,99999,99999,99999,99999,99999,99999,99999,99999,99999,99999
22:59:19,1510839420,2017-11-16T13:37:05,0.708,1019.3,6.07,3.64,7.51,825.120,2039.030,102.849998,40.42,2.5422,363,23374,1.79894,3.87,43171,,,,,,,,,,,,,,,,,,99999,99999,99999,99999,99999,99999,99999,99999,99999,99999,99999,99999
22:59:49,1510839450,2017-11-16T13:37:35,0.713,1019.6,6.08,3.66,7.53,825.140,2039.090,104.483330,40.00,2.5422,363,23374,1.81207,3.87,43167,,,,,,,,,,,,,,,,,,99999,99999,99999,99999,99999,99999,99999,99999,99999,99999,99999,99999
23:00:19,1510839480,2017-11-16T13:38:05,0.716,1020.0,6.09,3.67,7.53,825.120,2039.090,104.883331,40.07,2.5421,363,23376,1.82027,3.87,43162,,,,,,,,,,,,,,,,,,99999,99999,99999,99999,99999,99999,99999,99999,99999,99999,99999,99999
23:00:49,1510839510,2017-11-16T13:38:35,0.716,1020.4,6.10,3.65,7.55,825.190,2039.150,104.416664,39.76,2.5421,363,23375,1.82027,3.87,43158,,,,,,,,,,,,,,,,,,99999,99999,99999,99999,99999,99999,99999,99999,99999,99999,99999,99999
23:01:19,1510839540,2017-11-16T13:39:05,0.715,1020.7,6.12,3.69,7.57,825.110,2039.260,105.083336,39.69,2.5421,363,23376,1.81881,3.87,43153,,,,,,,,,,,,,,,,,,99999,99999,99999,99999,99999,99999,99999,99999,99999,99999,99999,99999
23:01:49,1510839570,2017-11-16T13:39:35,0.715,1021.1,6.14,3.70,7.60,825.160,2039.320,105.233330,39.66,2.5419,363,23377,1.81646,3.87,43149,,,,,,,,,,,,,,,,,,99999,99999,99999,99999,99999,99999,99999,99999,99999,99999,99999,99999
23:02:19,1510839600,2017-11-16T13:40:05,0.715,1021.4,6.16,3.73,7.60,825.200,2039.370,104.900002,40.04,2.5418,363,23377,1.81676,3.87,43144,,,,,,,,,,,,,,,,,,99999,99999,99999,99999,99999,99999,99999,99999,99999,99999,99999,99999
23:02:49,1510839630,2017-11-16T13:40:35,0.717,1021.8,6.18,3.75,7.64,825.170,2039.430,104.566666,40.58,2.5417,363,23376,1.82174,3.87,43140,,,,,,,,,,,,,,,,,,99999,99999,99999,99999,99999,99999,99999,99999,99999,99999,99999,99999
23:03:19,1510839660,2017-11-16T13:41:05,0.710,1022.1,6.18,3.72,7.62,825.150,2039.430,103.099998,40.16,2.5417,363,23377,1.80361,3.87,43135,,,,,,,,,,,,,,,,,,99999,99999,99999,99999,99999,99999,99999,99999,99999,99999,99999,99999
23:03:49,1510839690,2017-11-16T13:41:35,0.712,1022.5,6.21,3.77,7.65,825.170,2039.530,103.866669,40.20,2.5415,363,23377,1.80944,3.87,43131,,,,,,,,,,,,,,,,,,99999,99999,99999,99999,99999,99999,99999,99999,99999,99999,99999,99999
23:04:19,1510839720,2017-11-16T13:42:05,0.716,1022.9,6.22,3.80,7.65,825.110,2039.590,104.716667,40.02,2.5415,363,23378,1.81939,3.87,43126,,,,,,,,,,,,,,,,,,99999,99999,99999,99999,99999,99999,99999,99999,99999,99999,99999,99999
23:04:49,1510839750,2017-11-16T13:42:35,0.716,1023.2,6.23,3.81,7.66,825.110,2039.590,104.666664,39.72,2.5414,363,23380,1.81910,3.87,43122,,,,,,,,,,,,,,,,,,99999,99999,99999,99999,99999,99999,99999,99999,99999,99999,99999,99999
23:05:19,1510839780,2017-11-16T13:43:05,0.716,1023.6,6.24,3.80,7.70,825.100,2039.700,105.483330,39.59,2.5415,363,23381,1.82086,3.87,43117,,,,,,,,,,,,,,,,,,99999,99999,99999,99999,99999,99999,99999,99999,99999,99999,99999,99999
23:05:49,1510839810,2017-11-16T13:43:35,0.711,1023.9,6.26,3.80,7.68,825.130,2039.760,103.866669,39.58,2.5414,363,23379,1.80681,3.87,43113,,,,,,,,,,,,,,,,,,99999,99999,99999,99999,99999,99999,99999,99999,99999,99999,99999,99999
23:06:19,1510839840,2017-11-16T13:44:05,0.713,1024.3,6.27,3.81,7.72,825.100,2039.760,104.550003,39.32,2.5413,363,23380,1.81236,3.87,43108,,,,,,,,,,,,,,,,,,99999,99999,99999,99999,99999,99999,99999,99999,99999,99999,99999,99999
23:06:49,1510839870,2017-11-16T13:44:35,0.718,1024.6,6.27,3.81,7.76,825.150,2039.760,104.383331,39.84,2.5413,363,23379,1.82438,3.87,43104,,,,,,,,,,,,,,,,,,99999,99999,99999,99999,99999,99999,99999,99999,99999,99999,99999,99999
23:07:19,1510839900,2017-11-16T13:45:05,0.712,1025.0,6.29,3.83,7.76,825.200,2039.820,102.400002,39.60,2.5412,363,23382,1.81032,3.87,43099,,,,,,,,,,,,,,,,,,99999,99999,99999,99999,99999,99999,99999,99999,99999,99999,99999,99999
23:07:49,1510839930,2017-11-16T13:45:35,0.716,1025.4,6.30,3.87,7.73,825.250,2039.870,105.166664,39.86,2.5411,363,23382,1.81998,3.87,43095,,,,,,,,,,,,,,,,,,99999,99999,99999,99999,99999,99999,99999,99999,99999,99999,99999,99999
23:08:19,1510839960,2017-11-16T13:46:05,0.711,1025.7,6.32,3.88,7.76,825.240,2039.930,103.233330,40.68,2.5410,363,23382,1.80594,3.87,43090,,,,,,,,,,,,,,,,,,99999,99999,99999,99999,99999,99999,99999,99999,99999,99999,99999,99999
23:08:49,1510839990,2017-11-16T13:46:35,0.709,1026.1,6.32,3.84,7.76,825.220,2039.930,103.866669,40.17,2.5410,363,23382,1.80244,3.87,43085,,,,,,,,,,,,,,,,,,99999,99999,99999,99999,99999,99999,99999,99999,99999,99999,99999,99999
23:09:19,1510840020,2017-11-16T13:47:05,0.712,1026.4,6.33,3.87,7.78,825.080,2039.970,105.916664,39.97,2.5410,363,23381,1.80974,3.87,43081,,,,,,,,,,,,,,,,,,99999,99999,99999,99999,99999,99999,99999,99999,99999,99999,99999,99999
23:09:49,1510840050,2017-11-16T13:47:35,0.718,1026.8,6.33,3.90,7.81,825.130,2039.970,104.533333,40.06,2.5410,363,23383,1.82555,3.87,43076,,,,,,,,,,,,,,,,,,99999,99999,99999,99999,99999,99999,99999,99999,99999,99999,99999,99999
23:10:19,1510840080,2017-11-16T13:48:05,0.712,1027.1,6.33,3.89,7.78,825.160,2039.970,103.333336,39.95,2.5410,363,23384,1.81032,3.87,43072,,,,,,,,,,,,,,,,,,99999,99999,99999,99999,99999,99999,99999,99999,99999,99999,99999,99999
23:10:49,1510840110,2017-11-16T13:48:35,0.713,1027.5,6.34,3.93,7.81,825.110,2039.990,102.716667,39.57,2.5409,363,23384,1.81266,3.87,43067,,,,,,,,,,,,,,,,,,99999,99999,99999,99999,99999,99999,99999,99999,99999,99999,99999,99999
23:11:19,1510840140,2017-11-16T13:49:05,0.717,1027.9,6.34,3.92,7.80,825.080,2039.990,104.250000,39.59,2.5409,363,23383,1.82232,3.87,43063,,,,,,,,,,,,,,,,,,99999,99999,99999,99999,99999,99999,99999,99999,99999,99999,99999,99999
23:11:49,1510840170,2017-11-16T13:49:35,0.718,1028.2,6.34,3.89,7.81,825.080,2039.990,104.483330,39.44,2.5409,363,23382,1.82350,3.87,43058,,,,,,,,,,,,,,,,,,99999,99999,99999,99999,99999,99999,99999,99999,99999,99999,99999,99999
23:12:19,1510840200,2017-11-16T13:50:05,0.717,1028.6,6.37,3.89,7.82,825.070,2040.130,105.666664,39.42,2.5408,363,23385,1.82086,3.87,43054,,,,,,,,,,,,,,,,,,99999,99999,99999,99999,99999,99999,99999,99999,99999,99999,99999,99999
23:12:49,1510840230,2017-11-16T13:50:35,0.716,1028.9,6.37,3.93,7.80,825.130,2040.130,105.616669,38.95,2.5409,363,23382,1.81998,3.87,43049,,,,,,,,,,,,,,,,,,99999,99999,99999,99999,99999,99999,99999,99999,99999,99999,99999,99999
23:13:19,1510840260,2017-11-16T13:51:05,0.715,1029.3,6.38,3.93,7.86,825.100,2040.130,105.333336,39.79,2.5407,363,23383,1.81734,3.87,43045,,,,,,,,,,,,,,,,,,99999,99999,99999,99999,99999,99999,99999,99999,99999,99999,99999,99999
23:13:49,1510840290,2017-11-16T13:51:35,0.716,1029.6,6.40,3.96,7.84,825.170,2040.200,106.349998,39.87,2.5406,363,23383,1.81851,3.87,43040,,,,,,,,,,,,,,,,,,99999,99999,99999,99999,99999,99999,99999,99999,99999,99999,99999,99999
23:14:19,1510840320,2017-11-16T13:52:05,0.711,1030.0,6.39,3.96,7.82,825.150,2040.200,103.800003,39.43,2.5407,363,23385,1.80681,3.87,43036,,,,,,,,,,,,,,,,,,99999,99999,99999,99999,99999,99999,99999,99999,99999,99999,99999,99999
23:14:49,1510840350,2017-11-16T13:52:35,0.716,1030.4,6.41,3.97,7.86,825.140,2040.260,104.416664,39.38,2.5406,363,23386,1.81968,3.87,43031,,,,,,,,,,,,,,,,,,99999,99999,99999,99999,99999,99999,99999,99999,99999,99999,99999,99999
23:15:19,1510840380,2017-11-16T13:53:05,0.717,1030.7,6.42,3.99,7.84,825.170,2040.260,105.050003,38.45,2.5406,363,23387,1.82056,3.87,43027,,,,,,,,,,,,,,,,,,99999,99999,99999,99999,99999,99999,99999,99999,99999,99999,99999,99999
23:15:49,1510840410,2017-11-16T13:53:35,0.717,1031.1,6.46,4.03,7.91,825.260,2040.430,106.183334,38.64,2.5404,363,23385,1.82174,3.87,43022,,,,,,,,,,,,,,,,,,99999,99999,99999,99999,99999,99999,99999,99999,99999,99999,99999,99999
23:16:19,1510840440,2017-11-16T13:54:05,0.716,1031.4,6.47,4.02,7.91,825.150,2040.430,104.650002,39.85,2.5403,363,23385,1.81851,3.87,43018,,,,,,,,,,,,,,,,,,99999,99999,99999,99999,99999,99999,99999,99999,99999,99999,99999,99999
23:16:49,1510840470,2017-11-16T13:54:35,0.710,1031.8,6.50,4.03,7.93,825.200,2040.600,104.166664,39.55,2.5402,363,23387,1.80477,3.87,43013,,,,,,,,,,,,,,,,,,99999,99999,99999,99999,99999,99999,99999,99999,99999,99999,99999,99999
23:17:19,1510840500,2017-11-16T13:55:05,0.713,1032.1,6.51,4.07,7.95,825.170,2040.600,104.449997,39.60,2.5401,363,23388,1.81061,3.87,43009,,,,,,,,,,,,,,,,,,99999,99999,99999,99999,99999,99999,99999,99999,99999,99999,99999,99999
23:17:49,1510840530,2017-11-16T13:55:35,0.717,1032.5,6.53,4.11,7.99,825.190,2040.640,104.116669,39.26,2.5400,363,23389,1.82203,3.87,43005,,,,,,,,,,,,,,,,,,99999,99999,99999,99999,99999,99999,99999,99999,99999,99999,99999,99999
23:18:19,1510840560,2017-11-16T13:56:05,0.720,1032.9,6.54,4.13,7.95,825.220,2040.700,105.133331,39.64,2.5400,363,23390,1.82908,3.87,43000,,,,,,,,,,,,,,,,,,99999,99999,99999,99999,99999,99999,99999,99999,99999,99999,99999,99999
23:18:49,1510840590,2017-11-16T13:56:35,0.720,1033.2,6.56,4.13,7.99,825.190,2040.760,104.650002,39.04,2.5399,363,23389,1.82761,3.87,42996,,,,,,,,,,,,,,,,,,99999,99999,99999,99999,99999,99999,99999,99999,99999,99999,99999,99999
23:19:19,1510840620,2017-11-16T13:57:05,0.715,1033.6,6.57,4.15,8.03,825.150,2040.800,104.300003,38.34,2.5399,363,23391,1.81529,3.87,42991,,,,,,,,,,,,,,,,,,99999,99999,99999,99999,99999,99999,99999,99999,99999,99999,99999,99999
23:19:49,1510840650,2017-11-16T13:57:35,0.715,1033.9,6.58,4.13,8.06,825.150,2040.800,104.966667,38.50,2.5398,363,23391,1.81705,3.87,42987,,,,,,,,,,,,,,,,,,99999,99999,99999,99999,99999,99999,99999,99999,99999,99999,99999,99999
23:20:19,1510840680,2017-11-16T13:58:05,0.716,1034.3,6.61,4.18,8.03,825.200,2040.930,103.566666,38.57,2.5397,363,23391,1.81881,3.87,42982,,,,,,,,,,,,,,,,,,99999,99999,99999,99999,99999,99999,99999,99999,99999,99999,99999,99999
23:20:49,1510840710,2017-11-16T13:58:35,0.711,1034.6,6.62,4.19,8.06,825.200,2040.930,104.699997,38.45,2.5396,363,23391,1.80594,3.87,42978,,,,,,,,,,,,,,,,,,99999,99999,99999,99999,99999,99999,99999,99999,99999,99999,99999,99999
23:21:19,1510840740,2017-11-16T13:59:05,0.719,1035.0,6.64,4.19,8.06,825.190,2041.030,105.716667,38.77,2.5395,363,23390,1.82643,3.87,42973,,,,,,,,,,,,,,,,,,99999,99999,99999,99999,99999,99999,99999,99999,99999,99999,99999,99999
23:21:49,1510840770,2017-11-16T13:59:35,0.718,1035.4,6.66,4.23,8.09,825.210,2041.100,105.849998,38.90,2.5394,363,23391,1.82408,3.87,42969,,,,,,,,,,,,,,,,,,99999,99999,99999,99999,99999,99999,99999,99999,99999,99999,99999,99999
23:22:19,1510840800,2017-11-16T14:00:05,0.721,1035.7,6.67,4.23,8.14,825.240,2041.140,104.916664,39.19,2.5394,363,23390,1.83173,3.87,42965,,,,,,,,,,,,,,,,,,99999,99999,99999,99999,99999,99999,99999,99999,99999,99999,99999,99999
23:22:49,1510840830,2017-11-16T14:00:35,0.721,1036.1,6.68,4.24,8.14,825.230,2041.200,105.116669,38.99,2.5393,363,23393,1.82996,3.87,42960,,,,,,,,,,,,,,,,,,99999,99999,99999,99999,99999,99999,99999,99999,99999,99999,99999,99999
23:23:19,1510840860,2017-11-16T14:01:05,0.716,1036.4,6.70,4.26,8.15,825.310,2041.260,103.466667,38.80,2.5392,363,23393,1.81705,3.87,42956,,,,,,,,,,,,,,,,,,99999,99999,99999,99999,99999,99999,99999,99999,99999,99999,99999,99999
23:23:49,1510840890,2017-11-16T14:01:35,0.716,1036.8,6.72,4.28,8.14,825.330,2041.300,105.066666,39.10,2.5391,363,23392,1.81822,3.87,42951,,,,,,,,,,,,,,,,,,99999,99999,99999,99999,99999,99999,99999,99999,99999,99999,99999,99999
23:24:19,1510840920,2017-11-16T14:02:05,0.712,1037.2,6.73,4.31,8.18,825.300,2041.300,103.266670,38.53,2.5390,363,23394,1.80828,3.87,42947,,,,,,,,,,,,,,,,,,99999,99999,99999,99999,99999,99999,99999,99999,99999,99999,99999,99999
23:24:49,1510840950,2017-11-16T14:02:35,0.713,1037.5,6.75,4.29,8.18,825.240,2041.370,104.650002,38.48,2.5389,363,23393,1.80915,3.87,42943,,,,,,,,,,,,,,,,,,99999,99999,99999,99999,99999,99999,99999,99999,99999,99999,99999,99999
23:25:19,1510840980,2017-11-16T14:03:05,0.719,1037.9,6.77,4.31,8.22,825.180,2041.470,106.133331,38.99,2.5389,363,23397,1.82614,3.87,42938,,,,,,,,,,,,,,,,,,99999,99999,99999,99999,99999,99999,99999,99999,99999,99999,99999,99999
23:25:49,1510841010,2017-11-16T14:03:35,0.719,1038.2,6.78,4.29,8.24,825.260,2041.530,103.933334,38.10,2.5389,363,23395,1.82585,3.87,42934,,,,,,,,,,,,,,,,,,99999,99999,99999,99999,99999,99999,99999,99999,99999,99999,99999,99999
23:26:19,1510841040,2017-11-16T14:04:05,0.714,1038.6,6.81,4.33,8.23,825.250,2041.640,104.583336,37.96,2.5387,363,23397,1.81383,3.87,42929,,,,,,,,,,,,,,,,,,99999,99999,99999,99999,99999,99999,99999,99999,99999,99999,99999,99999
23:26:49,1510841070,2017-11-16T14:04:35,0.716,1038.9,6.83,4.37,8.23,825.220,2041.700,104.533333,38.36,2.5386,363,23396,1.81793,3.87,42925,,,,,,,,,,,,,,,,,,99999,99999,99999,99999,99999,99999,99999,99999,99999,99999,99999,99999
23:27:19,1510841100,2017-11-16T14:05:05,0.717,1039.3,6.85,4.36,8.28,825.240,2041.760,105.250000,38.57,2.5385,363,23400,1.82115,3.87,42921,,,,,,,,,,,,,,,,,,99999,99999,99999,99999,99999,99999,99999,99999,99999,99999,99999,99999
23:27:49,1510841130,2017-11-16T14:05:35,0.719,1039.7,6.86,4.38,8.32,825.110,2041.760,105.833336,38.52,2.5384,363,23397,1.82496,3.87,42916,,,,,,,,,,,,,,,,,,99999,99999,99999,99999,99999,99999,99999,99999,99999,99999,99999,99999
23:28:19,1510841160,2017-11-16T14:06:05,0.720,1040.0,6.88,4.41,8.31,825.050,2041.800,107.000000,38.42,2.5383,363,23398,1.82820,3.87,42912,,,,,,,,,,,,,,,,,,99999,99999,99999,99999,99999,99999,99999,99999,99999,99999,99999,99999
23:28:49,1510841190,2017-11-16T14:06:35,0.716,1040.4,6.88,4.42,8.31,825.000,2041.800,105.566666,38.44,2.5383,363,23399,1.81646,3.87,42908,,,,,,,,,,,,,,,,,,99999,99999,99999,99999,99999,99999,99999,99999,99999,99999,99999,99999
23:29:19,1510841220,2017-11-16T14:07:05,0.722,1040.7,6.91,4.42,8.38,825.020,2041.970,106.833336,37.92,2.5382,363,23398,1.83173,3.87,42903,,,,,,,,,,,,,,,,,,99999,99999,99999,99999,99999,99999,99999,99999,99999,99999,99999,99999
23:29:49,1510841250,2017-11-16T14:07:35,0.715,1041.1,6.93,4.43,8.36,825.040,2042.030,105.849998,37.99,2.5381,363,23401,1.81412,3.87,42899,,,,,,,,,,,,,,,,,,99999,99999,99999,99999,99999,99999,99999,99999,99999,99999,99999,99999
23:30:19,1510841280,2017-11-16T14:08:05,0.721,1041.4,6.96,4.47,8.36,825.040,2042.140,107.366669,38.52,2.5380,363,23399,1.82996,3.87,42895,,,,,,,,,,,,,,,,,,99999,99999,99999,99999,99999,99999,99999,99999,99999,99999,99999,99999
23:30:49,1510841310,2017-11-16T14:08:35,0.722,1041.8,6.96,4.51,8.39,825.060,2042.140,105.533333,38.69,2.5380,363,23400,1.83290,3.87,42890,,,,,,,,,,,,,,,,,,99999,99999,99999,99999,99999,99999,99999,99999,99999,99999,99999,99999
23:31:19,1510841340,2017-11-16T14:09:05,0.719,1042.2,6.97,4.50,8.39,825.140,2042.140,105.300003,38.14,2.5379,363,23401,1.82585,3.87,42886,,,,,,,,,,,,,,,,,,99999,99999,99999,99999,99999,99999,99999,99999,99999,99999,99999,99999
23:31:49,1510841370,2017-11-16T14:09:35,0.717,1042.5,6.98,4.50,8.43,825.160,2042.200,105.116669,38.07,2.5379,363,23400,1.82056,3.87,42882,,,,,,,,,,,,,,,,,,99999,99999,99999,99999,99999,99999,99999,99999,99999,99999,99999,99999
23:32:19,1510841400,2017-11-16T14:10:05,0.719,1042.9,6.98,4.51,8.45,825.160,2042.200,104.983330,38.26,2.5379,363,23399,1.82350,3.87,42877,,,,,,,,,,,,,,,,,,99999,99999,99999,99999,99999,99999,99999,99999,99999,99999,99999,99999
23:32:49,1510841430,2017-11-16T14:10:35,0.721,1043.2,6.98,4.51,8.45,825.110,2042.200,106.783333,38.21,2.5379,363,23403,1.82996,3.87,42873,,,,,,,,,,,,,,,,,,99999,99999,99999,99999,99999,99999,99999,99999,99999,99999,99999,99999
23:33:19,1510841460,2017-11-16T14:11:05,0.714,1043.6,7.00,4.52,8.47,825.100,2042.260,105.183334,38.29,2.5378,363,23400,1.81120,3.87,42869,,,,,,,,,,,,,,,,,,99999,99999,99999,99999,99999,99999,99999,99999,99999,99999,99999,99999
23:33:49,1510841490,2017-11-16T14:11:35,0.718,1044.0,7.00,4.54,8.45,825.100,2042.260,105.550003,38.17,2.5378,363,23401,1.82291,3.87,42865,,,,,,,,,,,,,,,,,,99999,99999,99999,99999,99999,99999,99999,99999,99999,99999,99999,99999
23:34:19,1510841520,2017-11-16T14:12:05,0.713,1044.3,7.01,4.55,8.47,825.150,2042.260,105.150002,37.84,2.5377,363,23400,1.81032,3.87,42860,,,,,,,,,,,,,,,,,,99999,99999,99999,99999,99999,99999,99999,99999,99999,99999,99999,99999
23:34:49,1510841550,2017-11-16T14:12:35,0.721,1044.7,7.02,4.55,8.47,825.100,2042.370,106.066666,37.88,2.5377,363,23402,1.82849,3.87,42856,,,,,,,,,,,,,,,,,,99999,99999,99999,99999,99999,99999,99999,99999,99999,99999,99999,99999
23:35:19,1510841580,2017-11-16T14:13:05,0.718,1045.0,7.03,4.58,8.51,825.120,2042.410,105.500000,37.59,2.5377,363,23401,1.82086,3.87,42852,,,,,,,,,,,,,,,,,,99999,99999,99999,99999,99999,99999,99999,99999,99999,99999,99999,99999
23:35:49,1510841610,2017-11-16T14:13:35,0.716,1045.4,7.04,4.60,8.51,825.090,2042.430,104.333336,37.35,2.5376,363,23406,1.81763,3.87,42848,,,,,,,,,,,,,,,,,,99999,99999,99999,99999,99999,99999,99999,99999,99999,99999,99999,99999
23:36:19,1510841640,2017-11-16T14:14:05,0.721,1045.8,7.05,4.57,8.52,825.040,2042.470,106.783333,37.47,2.5376,363,23404,1.82937,3.87,42844,,,,,,,,,,,,,,,,,,99999,99999,99999,99999,99999,99999,99999,99999,99999,99999,99999,99999
23:36:49,1510841670,2017-11-16T14:14:35,0.717,1046.1,7.07,4.56,8.53,825.090,2042.540,105.366669,37.18,2.5375,363,23405,1.81968,3.87,42839,,,,,,,,,,,,,,,,,,99999,99999,99999,99999,99999,99999,99999,99999,99999,99999,99999,99999
23:37:19,1510841700,2017-11-16T14:15:05,0.721,1046.5,7.07,4.64,8.52,825.010,2042.540,105.599998,37.17,2.5375,363,23404,1.82996,3.87,42835,,,,,,,,,,,,,,,,,,99999,99999,99999,99999,99999,99999,99999,99999,99999,99999,99999,99999
23:37:49,1510841730,2017-11-16T14:15:35,0.714,1046.8,7.10,4.64,8.53,825.000,2042.600,105.183334,37.48,2.5373,363,23404,1.81207,3.87,42831,,,,,,,,,,,,,,,,,,99999,99999,99999,99999,99999,99999,99999,99999,99999,99999,99999,99999
23:38:19,1510841760,2017-11-16T14:16:05,0.714,1047.2,7.11,4.68,8.56,824.920,2042.640,105.583336,37.89,2.5372,363,23406,1.81061,3.87,42827,,,,,,,,,,,,,,,,,,99999,99999,99999,99999,99999,99999,99999,99999,99999,99999,99999,99999
23:38:49,1510841790,2017-11-16T14:16:35,0.722,1047.5,7.14,4.66,8.60,825.040,2042.800,107.066666,38.13,2.5371,363,23404,1.83173,3.87,42823,,,,,,,,,,,,,,,,,,99999,99999,99999,99999,99999,99999,99999,99999,99999,99999,99999,99999
23:39:19,1510841820,2017-11-16T14:17:05,0.722,1047.9,7.15,4.69,8.60,824.930,2042.800,104.500000,38.33,2.5370,363,23403,1.83055,3.87,42818,,,,,,,,,,,,,,,,,,99999,99999,99999,99999,99999,99999,99999,99999,99999,99999,99999,99999
23:39:49,1510841850,2017-11-16T14:17:35,0.722,1048.3,7.16,4.69,8.64,824.880,2042.870,105.616669,38.01,2.5371,363,23406,1.83202,3.87,42814,,,,,,,,,,,,,,,,,,99999,99999,99999,99999,99999,99999,99999,99999,99999,99999,99999,99999
23:40:19,1510841880,2017-11-16T14:18:05,0.715,1048.6,7.18,4.70,8.64,824.930,2042.910,105.449997,38.32,2.5369,363,23408,1.81441,3.87,42810,,,,,,,,,,,,,,,,,,99999,99999,99999,99999,99999,99999,99999,99999,99999,99999,99999,99999
23:40:49,1510841910,2017-11-16T14:18:35,0.714,1049.0,7.18,4.71,8.64,824.930,2042.910,104.116669,38.31,2.5369,363,23407,1.81149,3.87,42806,,,,,,,,,,,,,,,,,,99999,99999,99999,99999,99999,99999,99999,99999,99999,99999,99999,99999
23:41:19,1510841940,2017-11-16T14:19:05,0.715,1049.3,7.18,4.71,8.66,824.900,2042.910,103.849998,38.10,2.5369,363,23409,1.81441,3.87,42802,,,,,,,,,,,,,,,,,,99999,99999,99999,99999,99999,99999,99999,99999,99999,99999,99999,99999
23:41:49,1510841970,2017-11-16T14:19:35,0.722,1049.7,7.18,4.72,8.65,825.060,2042.910,104.849998,37.95,2.5369,363,23408,1.83055,3.87,42798,,,,,,,,,,,,,,,,,,99999,99999,99999,99999,99999,99999,99999,99999,99999,99999,99999,99999
23:42:19,1510842000,2017-11-16T14:20:05,0.721,1050.1,7.17,4.70,8.64,824.930,2042.870,106.033333,37.97,2.5370,363,23408,1.82820,3.87,42794,,,,,,,,,,,,,,,,,,99999,99999,99999,99999,99999,99999,99999,99999,99999,99999,99999,99999
23:42:49,1510842030,2017-11-16T14:20:35,0.714,1050.4,7.18,4.68,8.66,824.930,2042.910,104.916664,37.62,2.5369,363,23407,1.81090,3.87,42790,,,,,,,,,,,,,,,,,,99999,99999,99999,99999,99999,99999,99999,99999,99999,99999,99999,99999
23:43:19,1510842060,2017-11-16T14:21:05,0.718,1050.8,7.18,4.71,8.65,824.980,2042.910,105.683334,37.18,2.5370,363,23405,1.82144,3.87,42786,,,,,,,,,,,,,,,,,,99999,99999,99999,99999,99999,99999,99999,99999,99999,99999,99999,99999
23:43:49,1510842090,2017-11-16T14:21:35,0.721,1051.1,7.19,4.74,8.70,824.950,2042.910,106.349998,37.01,2.5369,363,23409,1.82937,3.87,42782,,,,,,,,,,,,,,,,,,99999,99999,99999,99999,99999,99999,99999,99999,99999,99999,99999,99999
23:44:19,1510842120,2017-11-16T14:22:05,0.722,1051.5,7.20,4.74,8.66,824.900,2042.970,106.966667,37.10,2.5369,363,23409,1.83173,3.87,42778,,,,,,,,,,,,,,,,,,99999,99999,99999,99999,99999,99999,99999,99999,99999,99999,99999,99999
23:44:49,1510842150,2017-11-16T14:22:35,0.718,1051.9,7.22,4.75,8.66,824.920,2043.040,107.449997,37.60,2.5367,363,23409,1.82174,3.87,42774,,,,,,,,,,,,,,,,,,99999,99999,99999,99999,99999,99999,99999,99999,99999,99999,99999,99999
23:45:19,1510842180,2017-11-16T14:23:06,0.713,1052.2,7.23,4.77,8.68,824.860,2043.040,105.416664,36.78,2.5367,363,23407,1.80944,3.87,42770,9.952980,84.932377,120.106008,0.988863,0.869444,1.289628,14.867169,-4.021463,-53.823837,0.004494,0.003631,0.002044,0.002081,0.618534,0.668061,-0.114508,-0.198561,99999,99999,99999,99999,99999,99999,99999,99999,99999,99999,99999,99999
23:45:49,1510842210,2017-11-16T14:23:36,0.718,1052.6,7.26,4.80,8.72,824.780,2043.100,105.050003,36.16,2.5366,363,23412,1.82115,3.87,42766,9.830059,84.852045,120.191518,0.988862,1.161443,1.433471,9.257853,-1.595197,-53.823837,0.004675,0.004025,0.002044,0.002088,0.618527,0.651462,-0.114498,-0.198542,99999,99999,99999,99999,99999,99999,99999,99999,99999,99999,99999,99999
23:46:19,1510842240,2017-11-16T14:24:06,0.719,1052.9,7.28,4.84,8.74,824.800,2043.240,106.233330,36.45,2.5365,363,23411,1.82467,3.87,42762,9.709979,84.771768,120.277192,0.988862,1.264129,1.485528,8.897565,-13.803617,-53.823837,0.004763,0.004231,0.002044,0.002088,0.622682,0.648749,-0.114501,-0.198547,99999,99999,99999,99999,99999,99999,99999,99999,99999,99999,99999,99999
23:46:49,1510842270,2017-11-16T14:24:36,0.715,1053.3,7.32,4.85,8.73,824.730,2043.370,106.599998,36.29,2.5364,363,23410,1.81324,3.87,42758,9.592607,84.691515,120.362906,0.988862,1.291306,1.471278,-87.036705,78.131218,-53.823837,0.004881,0.004419,0.002056,0.002088,0.625644,0.647810,-0.114492,-0.198530,99999,99999,99999,99999,99999,99999,99999,99999,99999,99999,99999,99999
23:47:19,1510842300,2017-11-16T14:25:06,0.717,1053.7,7.36,4.88,8.80,824.720,2043.470,105.566666,36.59,2.5361,363,23415,1.81910,3.87,42754,9.477870,84.611295,120.448700,0.988862,1.308681,1.393071,6.861006,-15.848103,-53.823837,0.004981,0.004700,0.002063,0.002088,0.629437,0.643328,-0.114491,-0.198528,99999,99999,99999,99999,99999,99999,99999,99999,99999,99999,99999,99999
23:47:49,1510842330,2017-11-16T14:25:36,0.724,1054.0,7.39,4.94,8.85,824.720,2043.640,107.133331,37.79,2.5359,363,23415,1.83585,3.87,42750,9.365693,84.531111,120.534559,0.988862,1.209255,1.413418,8.025468,-1.475397,-53.823837,0.005150,0.005013,0.002050,0.002100,0.630727,0.638751,-0.114491,-0.198528,99999,99999,99999,99999,99999,99999,99999,99999,99999,99999,99999,99999
23:48:19,1510842360,2017-11-16T14:26:06,0.724,1054.4,7.43,4.98,8.88,824.810,2043.740,106.866669,37.28,2.5357,363,23415,1.83614,3.87,42746,9.255967,84.450943,120.620505,0.988862,1.180046,1.389348,10.804528,-5.571295,-53.823837,0.005463,0.005569,0.002056,0.002100,0.627297,0.627029,-0.114502,-0.198549,99999,99999,99999,99999,99999,99999,99999,99999,99999,99999,99999,99999
23:48:49,1510842390,2017-11-16T14:26:36,0.724,1054.7,7.48,5.02,8.90,824.750,2043.910,107.583336,37.26,2.5355,363,23416,1.83614,3.87,42742,9.148684,84.370839,120.706537,0.988862,1.197850,1.342452,32.813240,-15.081294,-53.823837,0.005881,0.006244,0.002038,0.002100,0.621411,0.614671,-0.114495,-0.198535,99999,99999,99999,99999,99999,99999,99999,99999,99999,99999,99999,99999
23:49:19,1510842420,2017-11-16T14:27:06,0.725,1055.1,7.52,5.08,8.94,824.800,2044.080,106.949997,36.23,2.5353,363,23416,1.83791,3.87,42738,9.043738,84.290775,120.792633,0.988862,1.242737,1.265741,32.364025,-8.476254,-53.823837,0.006256,0.007044,0.002206,0.002106,0.617902,0.602131,-0.114501,-0.198547,99999,99999,99999,99999,99999,99999,99999,99999,99999,99999,99999,99999
23:49:49,1510842450,2017-11-16T14:27:36,0.717,1055.5,7.58,5.11,9.01,824.800,2044.240,105.916664,36.27,2.5351,363,23420,1.81734,3.87,42734,8.941085,84.210772,120.878811,0.988862,1.255897,1.213512,13.133537,-6.886543,-53.823837,0.006769,0.007725,0.002538,0.002113,0.611678,0.594695,0.837086,-0.198547,99999,99999,99999,99999,99999,99999,99999,99999,99999,99999,99999,99999
23:50:19,1510842480,2017-11-16T14:28:06,0.723,1055.8,7.61,5.14,9.03,824.800,2044.370,107.616669,37.11,2.5348,363,23419,1.83379,3.87,42730,8.840588,84.130776,120.965091,0.988862,1.229450,1.204097,7.397140,0.796000,-53.823837,0.007181,0.008550,0.002938,0.002106,0.608895,0.586087,0.749286,-0.198547,99999,99999,99999,99999,99999,99999,99999,99999,99999,99999,99999,99999
23:50:49,1510842510,2017-11-16T14:28:36,0.723,1056.2,7.66,5.20,9.10,824.760,2044.580,108.033333,37.21,2.5346,363,23420,1.83261,3.87,42726,8.742248,84.050838,121.051465,0.988862,1.197349,1.216031,18.395681,-10.072845,-53.823837,0.008238,0.009938,0.003544,0.002125,0.593688,0.570416,0.686687,-0.198537,99999,99999,99999,99999,99999,99999,99999,99999,99999,99999,99999,99999
23:51:19,1510842540,2017-11-16T14:29:06,0.718,1056.5,7.70,5.22,9.15,824.800,2044.640,106.033333,37.19,2.5344,363,23421,1.81910,3.87,42722,8.645976,83.970940,121.137901,0.988862,1.160477,1.224143,49.102879,-47.159714,-53.823837,0.008594,0.010738,0.004100,0.002119,0.593755,0.565812,0.654239,-0.198547,99999,99999,99999,99999,99999,99999,99999,99999,99999,99999,99999,99999
23:51:49,1510842570,2017-11-16T14:29:36,0.718,1056.9,7.73,5.26,9.15,824.790,2044.810,105.866669,36.96,2.5343,363,23425,1.82086,3.87,42719,8.551724,83.891089,121.224415,0.988862,1.163888,1.196133,10.416529,-17.516651,-53.823837,0.010288,0.013131,0.005106,0.002125,0.572767,0.543489,0.611925,-0.198544,99999,99999,99999,99999,99999,99999,99999,99999,99999,99999,99999,99999
23:52:19,1510842600,2017-11-16T14:30:06,0.722,1057.3,7.77,5.30,9.22,824.700,2044.870,106.016670,36.69,2.5341,363,23424,1.82996,3.87,42715,8.459448,83.811302,121.311020,0.988861,1.167919,1.181819,4.656458,0.144066,-53.823837,0.011700,0.015063,0.006050,0.002119,0.560017,0.530595,0.586111,-0.198523,99999,99999,99999,99999,99999,99999,99999,99999,99999,99999,99999,99999
23:52:49,1510842630,2017-11-16T14:30:36,0.719,1057.6,7.82,5.31,9.24,824.640,2045.040,106.283333,36.80,2.5339,363,23424,1.82086,3.87,42711,8.369069,83.731556,121.397719,0.988861,1.165345,1.178718,1.589812,-0.386160,-53.823837,0.013544,0.017294,0.007175,0.002119,0.544906,0.517627,0.562698,-0.198508,99999,99999,99999,99999,99999,99999,99999,99999,99999,99999,99999,99999
23:53:19,1510842660,2017-11-16T14:31:06,0.721,1058.0,7.84,5.36,9.28,824.630,2045.140,106.316666,36.56,2.5337,363,23427,1.82732,3.87,42707,8.280524,83.651846,121.484471,0.988861,1.170617,1.160384,-0.777618,-1.975286,-53.823837,0.016081,0.020506,0.008750,0.002356,0.526393,0.500266,0.536431,0.902464,99999,99999,99999,99999,99999,99999,99999,99999,99999,99999,99999,99999
23:53:49,1510842690,2017-11-16T14:31:36,0.717,1058.4,7.88,5.38,9.34,824.650,2045.310,106.750000,36.60,2.5336,363,23426,1.81734,3.87,42703,8.193791,83.572198,121.571313,0.988861,1.154257,1.165516,30.856552,-0.247883,-53.823837,0.016219,0.020769,0.008988,0.002500,0.530892,0.504291,0.538939,0.809684,99999,99999,99999,99999,99999,99999,99999,99999,99999,99999,99999,99999
23:54:19,1510842720,2017-11-16T14:32:06,0.724,1058.7,7.90,5.40,9.39,824.700,2045.410,107.066666,36.37,2.5334,363,23428,1.83437,3.87,42699,8.108792,83.492588,121.658237,0.988861,1.161366,1.136470,-29.002270,26.400789,-53.823837,0.013869,0.016800,0.008075,0.002231,0.559306,0.539788,0.563729,-0.198523,99999,99999,99999,99999,99999,99999,99999,99999,99999,99999,99999,99999
23:54:49,1510842750,2017-11-16T14:32:36,0.719,1059.1,7.93,5.41,9.43,824.670,2045.470,105.866669,36.25,2.5333,363,23430,1.82086,3.87,42696,8.025495,83.413031,121.745290,0.988861,1.149876,1.134699,41.440937,-10.813786,-53.823837,0.011844,0.015281,0.007138,0.002081,0.589106,0.559592,0.592637,-0.198516,99999,99999,99999,99999,99999,99999,99999,99999,99999,99999,99999,99999
23:55:19,1510842780,2017-11-16T14:33:06,0.719,1059.4,7.96,5.44,9.44,824.710,2045.540,107.166664,36.05,2.5332,363,23425,1.82261,3.87,42692,7.943861,83.333537,121.832408,0.988861,1.158346,1.111459,10.755749,3.740334,-53.823837,0.010313,0.013306,0.006338,0.002113,0.617180,0.586489,0.622401,-0.198525,99999,99999,99999,99999,99999,99999,99999,99999,99999,99999,99999,99999
23:55:49,1510842810,2017-11-16T14:33:36,0.721,1059.8,7.98,5.49,9.43,824.650,2045.700,106.066666,35.67,2.5331,363,23431,1.82526,3.87,42688,7.863856,83.254117,121.919587,0.988861,1.177738,1.080602,1.560622,-2.664983,-53.823837,0.009556,0.012238,0.005919,0.002125,0.636114,0.605841,0.643649,-0.198511,99999,99999,99999,99999,99999,99999,99999,99999,99999,99999,99999,99999
23:56:19,1510842840,2017-11-16T14:34:06,0.720,1060.2,8.01,5.49,9.52,824.700,2045.770,108.349998,35.67,2.5330,363,23432,1.82467,3.87,42684,7.785376,83.174713,122.006867,0.988861,1.174506,1.066112,9.645188,-12.783126,-53.823837,0.008506,0.010731,0.005288,0.002119,0.662583,0.633394,0.675538,-0.198523,99999,99999,99999,99999,99999,99999,99999,99999,99999,99999,99999,99999
23:56:49,1510842870,2017-11-16T14:34:36,0.727,1060.5,8.03,5.48,9.52,824.720,2045.870,109.300003,35.85,2.5328,363,23432,1.84263,3.87,42680,7.708423,83.095368,122.094257,0.988861,1.165833,1.079846,-89.357536,88.509872,-53.823837,0.008519,0.010769,0.005438,0.002106,0.669065,0.639590,0.677169,-0.198528,99999,99999,99999,99999,99999,99999,99999,99999,99999,99999,99999,99999
23:57:19,1510842900,2017-11-16T14:35:06,0.725,1060.9,8.06,5.49,9.53,824.770,2045.930,108.283333,35.89,2.5327,363,23430,1.83614,3.87,42676,7.632940,83.016066,122.181721,0.988861,1.129208,1.084322,54.012150,-10.650880,-53.823837,0.008919,0.011438,0.005869,0.002113,0.667703,0.636453,0.668368,-0.198540,99999,99999,99999,99999,99999,99999,99999,99999,99999,99999,99999,99999
23:57:49,1510842930,2017-11-16T14:35:36,0.721,1061.2,8.08,5.52,9.57,824.680,2046.040,106.300003,36.08,2.5327,363,23432,1.82585,3.87,42672,7.558947,82.936872,122.269234,0.988861,1.110889,1.091882,7.399969,-24.732471,-53.823837,0.010919,0.013469,0.007138,0.002125,0.639665,0.616700,0.636281,-0.198518,99999,99999,99999,99999,99999,99999,99999,99999,99999,99999,99999,99999
23:58:19,1510842960,2017-11-16T14:36:06,0.724,1061.6,8.11,5.53,9.59,824.760,2046.100,106.766670,35.81,2.5325,363,23433,1.83231,3.87,42668,7.486353,82.857729,122.356834,0.988861,1.090976,1.086820,11.607430,-33.482235,-53.823837,0.011806,0.015156,0.008100,0.002444,0.632971,0.604392,0.619540,0.938977,99999,99999,99999,99999,99999,99999,99999,99999,99999,99999,99999,99999
23:58:49,1510842990,2017-11-16T14:36:36,0.728,1062.0,8.14,5.49,9.60,824.800,2046.200,107.916664,35.73,2.5323,363,23434,1.84293,3.87,42665,7.415131,82.778652,122.444534,0.988861,1.105189,1.061210,29.654934,-8.492450,-53.823837,0.009394,0.012044,0.006394,0.002094,0.678410,0.647842,0.673090,-0.198547,99999,99999,99999,99999,99999,99999,99999,99999,99999,99999,99999,99999
23:59:19,1510843020,2017-11-16T14:37:06,0.723,1062.3,8.16,5.55,9.65,824.710,2046.310,108.083336,35.77,2.5323,363,23435,1.83143,3.87,42661,7.345233,82.699626,122.532330,0.988860,1.095377,1.067560,24.365793,-6.228282,-53.823837,0.009500,0.012094,0.006775,0.002063,0.682979,0.653742,0.668613,-0.198525,99999,99999,99999,99999,99999,99999,99999,99999,99999,99999,99999,99999
23:59:49,1510843050,2017-11-16T14:37:36,0.728,1062.7,8.19,5.61,9.65,824.840,2046.370,107.949997,35.40,2.5321,363,23436,1.84293,3.87,42657,7.276603,82.620626,122.620224,0.988860,1.114767,1.050395,16.486467,1.831109,-53.823837,0.009869,0.012606,0.006956,0.002125,0.682721,0.653349,0.670586,-0.198556,99999,99999,99999,99999,99999,99999,99999,99999,99999,99999,99999,99999
24:00:19,1510843080,2017-11-16T14:38:06,0.730,1063.1,8.23,5.62,9.66,824.720,2046.470,107.616669,34.90,2.5320,363,23434,1.84766,3.87,42653,7.209284,82.541741,122.708210,0.988860,1.176112,1.013800,14.333899,-23.546438,-53.823837,0.009863,0.012331,0.006769,0.002063,0.689330,0.663605,0.683571,-0.198528,99999,99999,99999,99999,99999,99999,99999,99999,99999,99999,99999,99999
24:00:49,1510843110,2017-11-16T14:38:36,0.728,1063.4,8.24,5.64,9.66,824.770,2046.540,109.566666,34.43,2.5319,363,23437,1.84411,3.87,42649,7.143176,82.462894,122.796269,0.988860,1.181507,0.970151,-2.444283,-2.516249,-53.823837,0.008988,0.011169,0.006037,0.002100,0.712921,0.687310,0.715664,-0.198540,99999,99999,99999,99999,99999,99999,99999,99999,99999,99999,99999,99999
24:01:19,1510843140,2017-11-16T14:39:06,0.729,1063.8,8.27,5.68,9.72,824.710,2046.640,109.250000,35.00,2.5317,363,23436,1.84618,3.87,42645,7.078251,82.384088,122.884436,0.988860,1.180433,0.953807,35.685318,-36.621227,-53.823837,0.007794,0.009281,0.005050,0.002119,0.747129,0.727621,0.765964,-0.198525,99999,99999,99999,99999,99999,99999,99999,99999,99999,99999,99999,99999
24:01:49,1510843170,2017-11-16T14:39:36,0.727,1064.1,8.30,5.68,9.76,824.680,2046.770,106.816666,34.87,2.5317,363,23440,1.83968,3.87,42642,7.014516,82.305369,122.972680,0.988860,1.175771,0.926865,17.075380,-0.568671,-53.823837,0.007363,0.008506,0.004306,0.002113,0.765579,0.751288,0.817981,-0.198518,99999,99999,99999,99999,99999,99999,99999,99999,99999,99999,99999,99999
24:02:19,1510843200,2017-11-16T14:40:06,0.730,1064.5,8.33,5.69,9.76,824.700,2046.870,108.300003,34.47,2.5315,363,23437,1.84707,3.87,42638,6.951928,82.226721,123.061021,0.988860,1.199289,0.885550,0.843510,-8.241547,-53.823837,0.007119,0.008094,0.004169,0.002106,0.779613,0.768265,0.836329,-0.198523,99999,99999,99999,99999,99999,99999,99999,99999,99999,99999,99999,99999
24:02:49,1510843230,2017-11-16T14:40:36,0.726,1064.9,8.36,5.78,9.84,824.610,2046.940,107.633331,34.30,2.5313,363,23439,1.83732,3.87,42634,6.890443,82.148127,123.149461,0.988860,1.204814,0.848013,8.869339,-37.356594,-53.823837,0.006938,0.007625,0.003719,0.002113,0.792190,0.787657,0.883612,-0.198501,99999,99999,99999,99999,99999,99999,99999,99999,99999,99999,99999,99999
24:03:19,1510843260,2017-11-16T14:41:06,0.721,1065.2,8.40,5.79,9.82,824.600,2047.040,107.449997,35.52,2.5311,363,23442,1.82614,3.87,42630,6.830038,82.069589,123.237959,0.988860,1.158302,0.878260,6.273435,3.250273,-53.823837,0.006675,0.007113,0.003106,0.002113,0.807747,0.809690,0.971445,-0.198499,99999,99999,99999,99999,99999,99999,99999,99999,99999,99999,99999,99999
24:03:49,1510843290,2017-11-16T14:41:36,0.724,1065.6,8.44,5.85,9.89,824.590,2047.210,107.316666,35.79,2.5308,363,23443,1.83349,3.87,42626,6.770695,81.991123,123.326580,0.988860,1.129080,0.908826,0.436550,-6.484364,-53.823837,0.006431,0.006456,0.002581,0.002113,0.823307,0.838591,1.121228,-0.198496,99999,99999,99999,99999,99999,99999,99999,99999,99999,99999,99999,99999
24:04:19,1510843320,2017-11-16T14:42:06,0.727,1066.0,8.47,5.85,9.92,824.670,2047.370,108.800003,35.57,2.5308,363,23440,1.84056,3.87,42623,6.712376,81.912710,123.415291,0.988860,1.113103,0.910759,-2.187749,-7.314505,-53.823837,0.006075,0.005650,0.002175,0.002119,0.843836,0.877964,-0.114485,-0.198516,99999,99999,99999,99999,99999,99999,99999,99999,99999,99999,99999,99999
24:04:49,1510843350,2017-11-16T14:42:36,0.724,1066.3,8.49,5.86,9.97,824.560,2047.440,107.699997,35.37,2.5307,363,23443,1.83320,3.87,42619,6.655095,81.834406,123.504053,0.988860,1.120129,0.900352,-1.178051,-1.761785,-53.823837,0.006006,0.005400,0.002119,0.002113,0.853936,0.897385,-0.114472,-0.198489,99999,99999,99999,99999,99999,99999,99999,99999,99999,99999,99999,99999
24:05:19,1510843380,2017-11-16T14:43:06,0.731,1066.7,8.52,5.87,9.98,824.570,2047.480,108.383331,35.11,2.5305,363,23443,1.84884,3.87,42615,6.598790,81.756161,123.592898,0.988860,1.125405,0.891316,8.125473,-1.841429,-53.823837,0.005850,0.005037,0.002000,0.002113,0.867769,0.923950,-0.114473,-0.198492,99999,99999,99999,99999,99999,99999,99999,99999,99999,99999,99999,99999
24:05:49,1510843410,2017-11-16T14:43:36,0.729,1067.0,8.55,5.91,10.01,824.620,2047.640,109.650002,33.96,2.5305,363,23444,1.84559,3.87,42611,6.543444,81.677983,123.681835,0.988859,1.208243,0.830319,6.245366,-1.831125,-53.823837,0.005513,0.004669,0.002019,0.002119,0.890260,0.953826,-0.114479,-0.198504,99999,99999,99999,99999,99999,99999,99999,99999,99999,99999,99999,99999
24:06:19,1510843440,2017-11-16T14:44:06,0.731,1067.4,8.57,5.93,10.03,824.610,2047.710,108.266670,34.01,2.5304,363,23446,1.84943,3.87,42608,6.489021,81.599855,123.770904,0.988859,1.221305,0.811492,7.277675,2.053691,-53.823837,0.005300,0.004069,0.002038,0.002106,0.908213,1.006137,-0.114478,-0.198501,99999,99999,99999,99999,99999,99999,99999,99999,99999,99999,99999,99999
24:06:49,1510843470,2017-11-16T14:44:36,0.730,1067.8,8.60,5.96,10.09,824.660,2047.770,109.383331,34.23,2.5303,363,23447,1.84736,3.87,42604,6.435516,81.521799,123.860052,0.988859,1.227689,0.779352,5.895644,-5.422409,-53.823837,0.004938,0.003544,0.002038,0.002088,0.935530,1.067797,-0.114484,-0.198513,99999,99999,99999,99999,99999,99999,99999,99999,99999,99999,99999,99999
24:07:19,1510843500,2017-11-16T14:45:06,0.728,1068.1,8.61,6.00,10.09,824.680,2047.810,106.816666,34.66,2.5301,363,23448,1.84145,3.87,42601,6.382899,81.443806,123.949304,0.988859,1.199344,0.803678,2.158449,-13.692986,-53.823837,0.004744,0.003050,0.002006,0.002081,0.955069,1.152275,-0.114486,-0.198518,99999,99999,99999,99999,99999,99999,99999,99999,99999,99999,99999,99999
24:07:49,1510843530,2017-11-16T14:45:36,0.730,1068.5,8.65,6.04,10.11,824.760,2047.940,110.416664,34.98,2.5300,363,23447,1.84795,3.87,42597,6.331165,81.365899,124.038638,0.988859,1.167773,0.823617,3.571385,-4.306735,-53.823837,0.004450,0.002625,0.002019,0.002100,0.982772,1.281728,-0.114496,-0.198537,99999,99999,99999,99999,99999,99999,99999,99999,99999,99999,99999,99999
24:08:19,1510843560,2017-11-16T14:46:06,0.729,1068.9,8.68,6.04,10.15,824.870,2047.980,109.449997,34.63,2.5298,363,23450,1.84411,3.87,42594,6.280285,81.288065,124.128046,0.988859,1.191928,0.801238,14.548389,-22.696119,-53.823837,0.004162,0.002325,0.002000,0.002075,1.013135,1.548738,-0.114509,-0.198564,99999,99999,99999,99999,99999,99999,99999,99999,99999,99999,99999,99999
24:08:49,1510843590,2017-11-16T14:46:36,0.732,1069.2,8.70,6.07,10.15,824.890,2048.140,109.366669,33.80,2.5297,363,23449,1.85121,3.87,42591,6.230240,81.210309,124.217569,0.988859,1.221485,0.761743,1.536535,-9.083609,-53.823837,0.004169,0.002250,0.002006,0.002075,1.020851,-0.044669,-0.114512,-0.198568,99999,99999,99999,99999,99999,99999,99999,99999,99999,99999,99999,99999
24:09:19,1510843620,2017-11-16T14:47:06,0.727,1069.6,8.73,6.11,10.19,824.940,2048.210,108.849998,33.40,2.5296,363,23452,1.83850,3.88,42587,6.181007,81.132621,124.307188,0.988859,1.260916,0.717691,7.630765,-9.455865,-53.823837,0.004406,0.002250,0.002013,0.002088,1.010204,-0.044671,-0.114518,-0.198580,99999,99999,99999,99999,99999,99999,99999,99999,99999,99999,99999,99999
24:09:49,1510843650,2017-11-16T14:47:36,0.728,1070.0,8.77,6.11,10.23,824.960,2048.330,110.133331,33.13,2.5295,363,23451,1.84204,3.88,42584,6.132565,81.055001,124.396882,0.988859,1.275143,0.697227,6.106590,-8.300512,-53.823837,0.004700,0.002256,0.002013,0.002100,0.997458,1.992314,-0.114520,-0.198585,99999,99999,99999,99999,99999,99999,99999,99999,99999,99999,99999,99999
24:10:19,1510843680,2017-11-16T14:48:06,0.729,1070.3,8.80,6.16,10.23,824.870,2048.440,107.949997,34.07,2.5292,363,23451,1.84352,3.88,42581,6.084903,80.977458,124.486676,0.988859,1.244815,0.700325,11.464353,-3.165816,-53.823837,0.004975,0.002281,0.002000,0.002081,0.987889,1.743776,-0.114509,-0.198564,99999,99999,99999,99999,99999,99999,99999,99999,99999,99999,99999,99999
24:10:49,1510843710,2017-11-16T14:48:36,0.728,1070.7,8.83,6.18,10.30,824.810,2048.600,108.099998,33.50,2.5291,363,23455,1.84086,3.88,42579,6.038002,80.899991,124.576578,0.988859,1.240973,0.695264,7.167203,-28.203127,-53.823837,0.005225,0.002337,0.002000,0.002106,0.981125,1.587148,-0.114502,-0.198549,99999,99999,99999,99999,99999,99999,99999,99999,99999,99999,99999,99999
24:11:19,1510843740,2017-11-16T14:49:06,0.732,1071.0,8.86,6.24,10.36,824.620,2048.660,109.516670,33.85,2.5290,363,23456,1.85239,3.88,42576,5.991853,80.822614,124.666559,0.988859,1.236931,0.703323,29.345116,-24.992094,-53.823837,0.005194,0.002281,0.002000,0.002100,0.990545,1.771560,-0.114479,-0.198504,99999,99999,99999,99999,99999,99999,99999,99999,99999,99999,99999,99999
24:11:49,1510843770,2017-11-16T14:49:36,0.724,1071.4,8.90,6.24,10.36,824.670,2048.770,107.949997,33.76,2.5287,363,23455,1.83114,3.88,42573,5.946407,80.745275,124.756669,0.988859,1.236336,0.686484,38.030193,-25.179750,-53.823837,0.005013,0.002175,0.002038,0.002100,1.008899,-0.044660,-0.114485,-0.198516,99999,99999,99999,99999,99999,99999,99999,99999,99999,99999,99999,99999
24:12:19,1510843800,2017-11-16T14:50:06,0.724,1071.8,8.93,6.32,10.44,824.660,2048.870,108.683334,34.10,2.5285,363,23457,1.83114,3.88,42571,5.901685,80.668033,124.846837,0.988859,1.221878,0.696202,35.735161,-33.588055,-53.823837,0.004950,0.002125,0.002063,0.002106,1.020518,-0.044660,-0.114484,-0.198513,99999,99999,99999,99999,99999,99999,99999,99999,99999,99999,99999,99999
24:12:49,1510843830,2017-11-16T14:50:36,0.729,1072.1,8.96,6.37,10.45,824.670,2049.100,108.883331,34.47,2.5284,363,23458,1.84411,3.88,42568,5.857653,80.590860,124.937134,0.988858,1.201364,0.709236,0.965555,-24.517351,-53.823837,0.004844,0.002138,0.002144,0.002088,1.035139,-0.044660,-0.114485,-0.198516,99999,99999,99999,99999,99999,99999,99999,99999,99999,99999,99999,99999
24:13:19,1510843860,2017-11-16T14:51:06,0.726,1072.5,8.99,6.36,10.48,824.670,2049.160,108.683334,34.60,2.5282,363,23458,1.83437,3.88,42565,5.814303,80.513768,125.027496,0.988858,1.188819,0.729063,30.543880,3.764026,-53.823837,0.005056,0.002131,0.002131,0.002119,1.029408,-0.044660,-0.114485,-0.198516,99999,99999,99999,99999,99999,99999,99999,99999,99999,99999,99999,99999
24:13:49,1510843890,2017-11-16T14:51:36,0.727,1072.9,9.03,6.41,10.55,824.710,2049.270,107.616669,34.50,2.5281,363,23459,1.83673,3.88,42563,5.771618,80.436753,125.117956,0.988858,1.186046,0.723270,9.415410,-9.386840,-53.823837,0.004806,0.002144,0.002156,0.002100,1.053282,-0.044662,-0.114490,-0.198525,99999,99999,99999,99999,99999,99999,99999,99999,99999,99999,99999,99999
24:14:19,1510843920,2017-11-16T14:52:06,0.732,1073.2,9.08,6.45,10.56,824.830,2049.500,111.683334,33.63,2.5280,363,23461,1.85091,3.88,42560,5.729580,80.359810,125.208506,0.988858,1.234430,0.680313,11.575079,-17.566917,-53.823837,0.004538,0.002156,0.002181,0.002075,1.080489,-0.044667,-0.114504,-0.198554,99999,99999,99999,99999,99999,99999,99999,99999,99999,99999,99999,99999
24:14:49,1510843950,2017-11-16T14:52:36,0.734,1073.6,9.10,6.45,10.60,824.770,2049.540,111.216667,34.49,2.5277,363,23461,1.85506,3.88,42557,5.688184,80.282953,125.299177,0.988858,1.194526,0.714241,18.173824,-3.291592,-53.823837,0.004444,0.002169,0.002188,0.002075,1.095803,-0.044664,-0.114497,-0.198540,99999,99999,99999,99999,99999,99999,99999,99999,99999,99999,99999,99999
24:15:19,1510843980,2017-11-16T14:53:05,0.733,1074.0,9.14,6.53,10.65,824.740,2049.660,110.716667,34.68,2.5276,363,23464,1.85298,3.88,42555,,,,,,,,,,,,,,,,,,99999,99999,99999,99999,99999,99999,99999,99999,99999,99999,99999,99999
24:15:49,1510844010,2017-11-16T14:53:35,0.727,1074.3,9.18,6.53,10.71,824.750,2049.770,109.366669,34.48,2.5273,363,23465,1.83732,3.88,42552,,,,,,,,,,,,,,,,,,99999,99999,99999,99999,99999,99999,99999,99999,99999,99999,99999,99999
24:16:19,1510844040,2017-11-16T14:54:05,0.733,1074.7,9.22,6.56,10.71,824.690,2049.940,111.366669,34.10,2.5272,363,23464,1.85298,3.88,42549,,,,,,,,,,,,,,,,,,99999,99999,99999,99999,99999,99999,99999,99999,99999,99999,99999,99999
24:16:49,1510844070,2017-11-16T14:54:35,0.727,1075.1,9.25,6.58,10.76,824.710,2050.060,108.116669,34.33,2.5271,363,23465,1.83762,3.88,42547,,,,,,,,,,,,,,,,,,99999,99999,99999,99999,99999,99999,99999,99999,99999,99999,99999,99999
24:17:19,1510844100,2017-11-16T14:55:05,0.732,1075.4,9.28,6.61,10.77,824.730,2050.110,109.516670,33.92,2.5269,363,23468,1.85002,3.88,42545,,,,,,,,,,,,,,,,,,99999,99999,99999,99999,99999,99999,99999,99999,99999,99999,99999,99999
24:17:49,1510844130,2017-11-16T14:55:35,0.727,1075.8,9.31,6.65,10.82,824.800,2050.230,108.400002,33.44,2.5268,363,23468,1.83585,3.88,42542,,,,,,,,,,,,,,,,,,99999,99999,99999,99999,99999,99999,99999,99999,99999,99999,99999,99999
24:18:19,1510844160,2017-11-16T14:56:05,0.733,1076.2,9.34,6.66,10.85,824.740,2050.400,109.866669,33.43,2.5267,363,23469,1.85239,3.88,42540,,,,,,,,,,,,,,,,,,99999,99999,99999,99999,99999,99999,99999,99999,99999,99999,99999,99999
24:18:49,1510844190,2017-11-16T14:56:35,0.728,1076.5,9.36,6.66,10.94,824.740,2050.400,108.500000,33.63,2.5265,363,23471,1.83909,3.88,42537,,,,,,,,,,,,,,,,,,99999,99999,99999,99999,99999,99999,99999,99999,99999,99999,99999,99999
24:19:19,1510844220,2017-11-16T14:57:05,0.730,1076.9,9.41,6.74,10.94,824.850,2050.560,110.349998,34.16,2.5263,363,23471,1.84441,3.89,42535,,,,,,,,,,,,,,,,,,99999,99999,99999,99999,99999,99999,99999,99999,99999,99999,99999,99999
24:19:49,1510844250,2017-11-16T14:57:35,0.732,1077.3,9.43,6.76,10.97,824.690,2050.630,109.783333,34.52,2.5261,363,23476,1.84913,3.89,42534,,,,,,,,,,,,,,,,,,99999,99999,99999,99999,99999,99999,99999,99999,99999,99999,99999,99999
24:20:19,1510844280,2017-11-16T14:58:05,0.728,1077.6,9.48,6.83,11.02,824.740,2050.830,108.699997,34.08,2.5260,363,23476,1.83850,3.90,42533,,,,,,,,,,,,,,,,,,99999,99999,99999,99999,99999,99999,99999,99999,99999,99999,99999,99999
24:20:49,1510844310,2017-11-16T14:58:35,0.729,1078.0,9.53,6.86,11.02,824.720,2051.000,109.133331,34.59,2.5257,363,23477,1.84204,3.90,42533,,,,,,,,,,,,,,,,,,99999,99999,99999,99999,99999,99999,99999,99999,99999,99999,99999,99999
24:21:19,1510844340,2017-11-16T14:59:05,0.731,1078.3,9.57,6.94,11.13,824.630,2051.130,110.400002,33.91,2.5255,363,23476,1.84618,3.89,42532,,,,,,,,,,,,,,,,,,99999,99999,99999,99999,99999,99999,99999,99999,99999,99999,99999,99999
24:21:49,1510844370,2017-11-16T14:59:35,0.736,1078.7,9.61,7.01,11.15,824.630,2051.290,111.566666,33.71,2.5254,363,23479,1.85980,3.88,42530,,,,,,,,,,,,,,,,,,99999,99999,99999,99999,99999,99999,99999,99999,99999,99999,99999,99999
24:22:19,1510844400,2017-11-16T15:00:05,0.731,1079.1,9.66,6.98,11.18,824.660,2051.460,110.033333,34.41,2.5251,363,23482,1.84618,3.88,42527,,,,,,,,,,,,,,,,,,99999,99999,99999,99999,99999,99999,99999,99999,99999,99999,99999,99999
24:22:49,1510844430,2017-11-16T15:00:35,0.729,1079.4,9.70,6.97,11.24,824.680,2051.560,109.116669,34.18,2.5249,363,23481,1.84145,3.88,42524,,,,,,,,,,,,,,,,,,99999,99999,99999,99999,99999,99999,99999,99999,99999,99999,99999,99999
24:23:19,1510844460,2017-11-16T15:01:05,0.735,1079.8,9.73,7.02,11.29,824.620,2051.670,110.766670,33.83,2.5247,363,23480,1.85595,3.88,42521,,,,,,,,,,,,,,,,,,99999,99999,99999,99999,99999,99999,99999,99999,99999,99999,99999,99999
24:23:49,1510844490,2017-11-16T15:01:35,0.734,1080.2,9.77,7.05,11.29,824.610,2051.860,110.533333,33.69,2.5246,363,23481,1.85269,3.89,42519,,,,,,,,,,,,,,,,,,99999,99999,99999,99999,99999,99999,99999,99999,99999,99999,99999,99999
24:24:19,1510844520,2017-11-16T15:02:05,0.734,1080.5,9.82,7.09,11.38,824.620,2052.020,112.016670,34.27,2.5243,363,23484,1.85239,3.89,42518,,,,,,,,,,,,,,,,,,99999,99999,99999,99999,99999,99999,99999,99999,99999,99999,99999,99999
24:24:49,1510844550,2017-11-16T15:02:35,0.735,1080.9,9.86,7.10,11.40,824.640,2052.130,110.199997,35.00,2.5241,363,23483,1.85624,3.90,42516,,,,,,,,,,,,,,,,,,99999,99999,99999,99999,99999,99999,99999,99999,99999,99999,99999,99999
24:25:19,1510844580,2017-11-16T15:03:05,0.730,1081.3,9.89,7.13,11.45,824.630,2052.230,108.800003,34.13,2.5240,363,23486,1.84234,3.90,42516,,,,,,,,,,,,,,,,,,99999,99999,99999,99999,99999,99999,99999,99999,99999,99999,99999,99999
24:25:49,1510844610,2017-11-16T15:03:35,0.731,1081.6,9.93,7.23,11.52,824.650,2052.360,109.599998,34.20,2.5238,363,23486,1.84411,3.91,42516,,,,,,,,,,,,,,,,,,99999,99999,99999,99999,99999,99999,99999,99999,99999,99999,99999,99999
24:26:19,1510844640,2017-11-16T15:04:05,0.732,1082.0,9.97,7.28,11.56,824.690,2052.560,108.716667,33.50,2.5237,363,23492,1.84647,3.92,42517,,,,,,,,,,,,,,,,,,99999,99999,99999,99999,99999,99999,99999,99999,99999,99999,99999,99999
24:26:49,1510844670,2017-11-16T15:04:35,0.737,1082.4,10.01,7.39,11.58,824.710,2052.690,111.833336,33.33,2.5235,363,23495,1.86070,3.92,42518,,,,,,,,,,,,,,,,,,99999,99999,99999,99999,99999,99999,99999,99999,99999,99999,99999,99999
24:27:19,1510844700,2017-11-16T15:05:05,0.739,1082.8,10.06,7.41,11.65,824.620,2052.800,112.566666,33.63,2.5232,363,23499,1.86486,3.90,42519,,,,,,,,,,,,,,,,,,99999,99999,99999,99999,99999,99999,99999,99999,99999,99999,99999,99999
24:27:49,1510844730,2017-11-16T15:05:35,0.736,1083.1,10.10,7.53,11.71,824.580,2053.030,111.416664,33.72,2.5231,363,23495,1.85624,3.89,42518,,,,,,,,,,,,,,,,,,99999,99999,99999,99999,99999,99999,99999,99999,99999,99999,99999,99999
24:28:19,1510844760,2017-11-16T15:06:05,0.739,1083.5,10.16,7.51,11.76,824.620,2053.190,112.199997,33.99,2.5227,363,23497,1.86486,3.88,42516,,,,,,,,,,,,,,,,,,99999,99999,99999,99999,99999,99999,99999,99999,99999,99999,99999,99999
24:28:49,1510844790,2017-11-16T15:06:35,0.732,1083.9,10.20,7.50,11.84,824.560,2053.300,110.099998,33.60,2.5225,363,23494,1.84736,3.89,42513,,,,,,,,,,,,,,,,,,99999,99999,99999,99999,99999,99999,99999,99999,99999,99999,99999,99999
24:29:19,1510844820,2017-11-16T15:07:05,0.732,1084.2,10.26,7.52,11.89,824.650,2053.530,111.016670,32.82,2.5223,363,23495,1.84707,3.89,42511,,,,,,,,,,,,,,,,,,99999,99999,99999,99999,99999,99999,99999,99999,99999,99999,99999,99999
24:29:49,1510844850,2017-11-16T15:07:35,0.737,1084.6,10.30,7.56,11.90,824.590,2053.650,110.416664,32.38,2.5221,363,23498,1.85980,3.89,42509,,,,,,,,,,,,,,,,,,99999,99999,99999,99999,99999,99999,99999,99999,99999,99999,99999,99999
24:30:19,1510844880,2017-11-16T15:08:05,0.738,1085.0,10.36,7.55,11.97,824.700,2053.920,111.199997,31.97,2.5219,363,23500,1.86070,3.90,42508,,,,,,,,,,,,,,,,,,99999,99999,99999,99999,99999,99999,99999,99999,99999,99999,99999,99999
24:30:49,1510844910,2017-11-16T15:08:35,0.740,1085.3,10.40,7.59,12.06,824.770,2054.030,112.116669,32.08,2.5217,363,23500,1.86515,3.91,42508,,,,,,,,,,,,,,,,,,99999,99999,99999,99999,99999,99999,99999,99999,99999,99999,99999,99999
24:31:19,1510844940,2017-11-16T15:09:05,0.738,1085.7,10.45,7.69,12.10,824.740,2054.150,111.133331,32.59,2.5214,363,23504,1.86010,3.90,42508,,,,,,,,,,,,,,,,,,99999,99999,99999,99999,99999,99999,99999,99999,99999,99999,99999,99999
24:31:49,1510844970,2017-11-16T15:09:35,0.737,1086.1,10.51,7.71,12.15,824.740,2054.420,110.733330,32.51,2.5211,363,23506,1.85743,3.92,42509,,,,,,,,,,,,,,,,,,99999,99999,99999,99999,99999,99999,99999,99999,99999,99999,99999,99999
24:32:19,1510845000,2017-11-16T15:10:05,0.734,1086.4,10.58,7.83,12.21,824.700,2054.590,109.916664,32.52,2.5207,363,23514,1.85121,3.94,42512,,,,,,,,,,,,,,,,,,99999,99999,99999,99999,99999,99999,99999,99999,99999,99999,99999,99999
24:32:49,1510845030,2017-11-16T15:10:35,0.739,1086.8,10.65,7.99,12.27,824.740,2054.880,111.233330,33.45,2.5204,363,23519,1.86158,3.93,42516,,,,,,,,,,,,,,,,,,99999,99999,99999,99999,99999,99999,99999,99999,99999,99999,99999,99999
24:33:19,1510845060,2017-11-16T15:11:05,0.740,1087.2,10.72,8.11,12.35,824.590,2055.110,113.216667,33.22,2.5201,363,23519,1.86604,3.92,42519,,,,,,,,,,,,,,,,,,99999,99999,99999,99999,99999,99999,99999,99999,99999,99999,99999,99999
24:33:49,1510845090,2017-11-16T15:11:35,0.741,1087.5,10.81,8.25,12.47,824.590,2055.450,113.800003,34.30,2.5196,363,23523,1.86753,3.90,42520,,,,,,,,,,,,,,,,,,99999,99999,99999,99999,99999,99999,99999,99999,99999,99999,99999,99999
24:34:19,1510845120,2017-11-16T15:12:05,0.744,1087.9,10.87,8.25,12.52,824.660,2055.670,114.083336,35.14,2.5193,363,23522,1.87319,3.89,42519,,,,,,,,,,,,,,,,,,99999,99999,99999,99999,99999,99999,99999,99999,99999,99999,99999,99999
24:34:49,1510845150,2017-11-16T15:12:35,0.741,1088.3,10.94,8.24,12.63,824.660,2055.880,112.916664,33.05,2.5190,363,23520,1.86604,3.89,42517,,,,,,,,,,,,,,,,,,99999,99999,99999,99999,99999,99999,99999,99999,99999,99999,99999,99999
24:35:19,1510845180,2017-11-16T15:13:05,0.741,1088.6,11.00,8.20,12.68,824.710,2056.110,112.583336,32.96,2.5188,363,23517,1.86575,3.89,42515,,,,,,,,,,,,,,,,,,99999,99999,99999,99999,99999,99999,99999,99999,99999,99999,99999,99999
24:35:49,1510845210,2017-11-16T15:13:35,0.739,1089.0,11.04,8.17,12.74,824.670,2056.240,112.150002,32.92,2.5186,363,23516,1.86040,3.89,42513,,,,,,,,,,,,,,,,,,99999,99999,99999,99999,99999,99999,99999,99999,99999,99999,99999,99999
24:36:19,1510845240,2017-11-16T15:14:05,0.738,1089.4,11.09,8.17,12.79,824.680,2056.400,113.783333,32.49,2.5184,363,23513,1.85832,3.89,42511,,,,,,,,,,,,,,,,,,99999,99999,99999,99999,99999,99999,99999,99999,99999,99999,99999,99999
24:36:49,1510845270,2017-11-16T15:14:35,0.739,1089.8,11.14,8.19,12.82,824.640,2056.610,110.833336,32.57,2.5182,363,23517,1.86040,3.90,42509,,,,,,,,,,,,,,,,,,99999,99999,99999,99999,99999,99999,99999,99999,99999,99999,99999,99999
24:37:19,1510845300,2017-11-16T15:15:05,0.742,1090.1,11.19,8.15,12.92,824.660,2056.740,113.833336,32.55,2.5179,363,23516,1.86813,3.90,42508,,,,,,,,,,,,,,,,,,99999,99999,99999,99999,99999,99999,99999,99999,99999,99999,99999,99999
24:37:49,1510845330,2017-11-16T15:15:35,0.736,1090.5,11.24,8.20,12.92,824.780,2056.900,111.199997,32.33,2.5176,363,23518,1.85387,3.90,42507,,,,,,,,,,,,,,,,,,99999,99999,99999,99999,99999,99999,99999,99999,99999,99999,99999,99999
24:38:19,1510845360,2017-11-16T15:16:05,0.743,1090.9,11.28,8.22,13.00,824.720,2057.070,114.833336,31.83,2.5175,363,23518,1.87051,3.90,42506,,,,,,,,,,,,,,,,,,99999,99999,99999,99999,99999,99999,99999,99999,99999,99999,99999,99999
24:38:49,1510845390,2017-11-16T15:16:35,0.745,1091.2,11.32,8.27,13.05,824.790,2057.170,114.166664,32.61,2.5172,363,23522,1.87409,3.90,42505,,,,,,,,,,,,,,,,,,99999,99999,99999,99999,99999,99999,99999,99999,99999,99999,99999,99999
24:39:19,1510845420,2017-11-16T15:17:05,0.739,1091.6,11.37,8.27,13.10,824.800,2057.370,114.000000,33.16,2.5170,363,23523,1.86129,3.90,42504,,,,,,,,,,,,,,,,,,99999,99999,99999,99999,99999,99999,99999,99999,99999,99999,99999,99999
24:39:49,1510845450,2017-11-16T15:17:35,0.745,1092.0,11.42,8.30,13.16,824.760,2057.570,113.400002,32.87,2.5168,363,23522,1.87409,3.90,42504,,,,,,,,,,,,,,,,,,99999,99999,99999,99999,99999,99999,99999,99999,99999,99999,99999,99999
24:40:19,1510845480,2017-11-16T15:18:05,0.744,1092.4,11.46,8.35,13.15,824.670,2057.700,115.233330,32.07,2.5167,363,23524,1.87230,3.91,42504,,,,,,,,,,,,,,,,,,99999,99999,99999,99999,99999,99999,99999,99999,99999,99999,99999,99999
24:40:49,1510845510,2017-11-16T15:18:35,0.738,1092.7,11.50,8.42,13.23,824.710,2057.800,112.900002,32.20,2.5164,363,23528,1.85595,3.91,42504,,,,,,,,,,,,,,,,,,99999,99999,99999,99999,99999,99999,99999,99999,99999,99999,99999,99999
24:41:19,1510845540,2017-11-16T15:19:05,0.746,1093.1,11.56,8.47,13.24,824.780,2058.030,115.183334,32.42,2.5161,363,23528,1.87618,3.90,42504,,,,,,,,,,,,,,,,,,99999,99999,99999,99999,99999,99999,99999,99999,99999,99999,99999,99999
24:41:49,1510845570,2017-11-16T15:19:35,0.739,1093.5,11.61,8.50,13.29,824.740,2058.200,113.016670,32.28,2.5159,363,23529,1.85891,3.90,42504,,,,,,,,,,,,,,,,,,99999,99999,99999,99999,99999,99999,99999,99999,99999,99999,99999,99999
24:42:19,1510845600,2017-11-16T15:20:05,0.742,1093.8,11.67,8.57,13.37,824.700,2058.430,114.033333,32.03,2.5157,363,23530,1.86783,3.91,42504,,,,,,,,,,,,,,,,,,99999,99999,99999,99999,99999,99999,99999,99999,99999,99999,99999,99999
24:42:49,1510845630,2017-11-16T15:20:35,0.741,1094.2,11.73,8.63,13.40,824.790,2058.590,113.733330,31.91,2.5153,363,23531,1.86486,3.91,42505,,,,,,,,,,,,,,,,,,99999,99999,99999,99999,99999,99999,99999,99999,99999,99999,99999,99999
24:43:19,1510845660,2017-11-16T15:21:05,0.741,1094.6,11.79,8.66,13.50,824.770,2058.820,112.583336,31.71,2.5151,363,23537,1.86486,3.91,42506,,,,,,,,,,,,,,,,,,99999,99999,99999,99999,99999,99999,99999,99999,99999,99999,99999,99999
24:43:49,1510845690,2017-11-16T15:21:35,0.744,1095.0,11.84,8.73,13.53,824.770,2058.990,112.316666,31.83,2.5148,363,23540,1.87170,3.92,42507,,,,,,,,,,,,,,,,,,99999,99999,99999,99999,99999,99999,99999,99999,99999,99999,99999,99999
24:44:19,1510845720,2017-11-16T15:22:05,0.741,1095.3,11.90,8.83,13.61,824.880,2059.160,112.133331,31.47,2.5145,363,23544,1.86367,3.94,42510,,,,,,,,,,,,,,,,,,99999,99999,99999,99999,99999,99999,99999,99999,99999,99999,99999,99999
24:44:49,1510845750,2017-11-16T15:22:35,0.745,1095.7,11.95,8.95,13.71,824.820,2059.390,113.733330,30.80,2.5144,363,23548,1.87260,3.94,42514,,,,,,,,,,,,,,,,,,99999,99999,99999,99999,99999,99999,99999,99999,99999,99999,99999,99999
24:45:19,1510845780,2017-11-16T15:23:05,0.750,1096.1,12.02,9.09,13.77,824.780,2059.620,114.566666,30.70,2.5141,363,23552,1.88454,3.95,42518,,,,,,,,,,,,,,,,,,99999,99999,99999,99999,99999,99999,99999,99999,99999,99999,99999,99999
24:45:49,1510845810,2017-11-16T15:23:35,0.742,1096.4,12.10,9.25,13.85,824.760,2059.890,112.949997,30.20,2.5137,363,23557,1.86545,3.94,42523,,,,,,,,,,,,,,,,,,99999,99999,99999,99999,99999,99999,99999,99999,99999,99999,99999,99999
24:46:19,1510845840,2017-11-16T15:24:05,0.742,1096.8,12.18,9.36,13.92,824.760,2060.180,114.766670,29.36,2.5134,363,23560,1.86426,3.94,42527,,,,,,,,,,,,,,,,,,99999,99999,99999,99999,99999,99999,99999,99999,99999,99999,99999,99999
24:46:49,1510845870,2017-11-16T15:24:35,0.746,1097.2,12.26,9.50,14.02,824.720,2060.450,116.233330,31.03,2.5129,363,23564,1.87528,3.94,42530,,,,,,,,,,,,,,,,,,99999,99999,99999,99999,99999,99999,99999,99999,99999,99999,99999,99999
24:47:19,1510845900,2017-11-16T15:25:05,0.743,1097.6,12.34,9.56,14.11,824.830,2060.740,113.866669,30.29,2.5126,363,23568,1.86694,3.94,42533,,,,,,,,,,,,,,,,,,99999,99999,99999,99999,99999,99999,99999,99999,99999,99999,99999,99999
24:47:49,1510845930,2017-11-16T15:25:35,0.748,1097.9,12.42,9.64,14.24,824.860,2060.970,114.650002,31.45,2.5121,363,23567,1.87976,3.94,42537,,,,,,,,,,,,,,,,,,99999,99999,99999,99999,99999,99999,99999,99999,99999,99999,99999,99999
24:48:19,1510845960,2017-11-16T15:26:05,0.747,1098.3,12.50,9.71,14.32,825.000,2061.240,112.750000,30.43,2.5118,363,23574,1.87558,3.94,42540,,,,,,,,,,,,,,,,,,99999,99999,99999,99999,99999,99999,99999,99999,99999,99999,99999,99999
24:48:49,1510845990,2017-11-16T15:26:35,0.750,1098.7,12.58,9.76,14.44,825.010,2061.600,115.133331,30.23,2.5115,363,23579,1.88364,3.95,42545,,,,,,,,,,,,,,,,,,99999,99999,99999,99999,99999,99999,99999,99999,99999,99999,99999,99999
24:49:19,1510846020,2017-11-16T15:27:05,0.751,1099.1,12.66,9.92,14.52,824.940,2061.810,117.000000,29.84,2.5111,363,23580,1.88663,3.95,42549,,,,,,,,,,,,,,,,,,99999,99999,99999,99999,99999,99999,99999,99999,99999,99999,99999,99999
24:49:49,1510846050,2017-11-16T15:27:35,0.752,1099.4,12.76,10.00,14.61,824.880,2062.160,116.866669,29.39,2.5106,363,23583,1.88693,3.94,42553,,,,,,,,,,,,,,,,,,99999,99999,99999,99999,99999,99999,99999,99999,99999,99999,99999,99999
24:50:19,1510846080,2017-11-16T15:28:05,0.750,1099.8,12.85,10.10,14.71,824.760,2062.500,117.183334,30.44,2.5102,363,23583,1.88304,3.94,42557,,,,,,,,,,,,,,,,,,99999,99999,99999,99999,99999,99999,99999,99999,99999,99999,99999,99999
24:50:49,1510846110,2017-11-16T15:28:35,0.750,1100.2,12.95,10.15,14.85,824.730,2062.890,116.283333,27.68,2.5100,363,23585,1.88185,3.93,42559,,,,,,,,,,,,,,,,,,99999,99999,99999,99999,99999,99999,99999,99999,99999,99999,99999,99999
24:51:19,1510846140,2017-11-16T15:29:05,0.752,1100.6,13.05,10.18,14.95,824.710,2063.180,118.150002,28.58,2.5094,363,23584,1.88813,3.92,42561,,,,,,,,,,,,,,,,,,99999,99999,99999,99999,99999,99999,99999,99999,99999,99999,99999,99999
24:51:49,1510846170,2017-11-16T15:29:35,0.752,1100.9,13.12,10.18,15.03,824.690,2063.460,117.883331,28.96,2.5091,363,23581,1.88634,3.92,42562,,,,,,,,,,,,,,,,,,99999,99999,99999,99999,99999,99999,99999,99999,99999,99999,99999,99999
24:52:19,1510846200,2017-11-16T15:30:05,0.754,1101.3,13.20,10.19,15.11,824.830,2063.680,117.300003,28.23,2.5087,363,23582,1.89113,3.92,42563,,,,,,,,,,,,,,,,,,99999,99999,99999,99999,99999,99999,99999,99999,99999,99999,99999,99999
24:52:49,1510846230,2017-11-16T15:30:35,0.754,1101.7,13.27,10.19,15.24,824.840,2063.980,115.433334,27.49,2.5085,363,23585,1.89053,3.91,42564,,,,,,,,,,,,,,,,,,99999,99999,99999,99999,99999,99999,99999,99999,99999,99999,99999,99999
24:53:19,1510846260,2017-11-16T15:31:05,0.750,1102.1,13.35,10.18,15.27,824.880,2064.250,115.250000,27.66,2.5081,363,23586,1.88035,3.92,42564,,,,,,,,,,,,,,,,,,99999,99999,99999,99999,99999,99999,99999,99999,99999,99999,99999,99999
24:53:49,1510846290,2017-11-16T15:31:35,0.748,1102.4,13.42,10.23,15.35,824.830,2064.480,115.349998,27.30,2.5077,363,23587,1.87468,3.92,42565,,,,,,,,,,,,,,,,,,99999,99999,99999,99999,99999,99999,99999,99999,99999,99999,99999,99999
24:54:19,1510846320,2017-11-16T15:32:05,0.755,1102.8,13.49,10.25,15.44,824.760,2064.710,117.516670,27.48,2.5074,363,23582,1.89233,3.91,42566,,,,,,,,,,,,,,,,,,99999,99999,99999,99999,99999,99999,99999,99999,99999,99999,99999,99999
24:54:49,1510846350,2017-11-16T15:32:35,0.755,1103.2,13.57,10.25,15.48,824.770,2065.000,117.599998,26.77,2.5071,363,23585,1.89382,3.91,42566,,,,,,,,,,,,,,,,,,99999,99999,99999,99999,99999,99999,99999,99999,99999,99999,99999,99999
24:55:19,1510846380,2017-11-16T15:33:05,0.753,1103.6,13.64,10.29,15.58,824.670,2065.210,119.183334,27.97,2.5066,363,23584,1.88753,3.91,42566,,,,,,,,,,,,,,,,,,99999,99999,99999,99999,99999,99999,99999,99999,99999,99999,99999,99999
24:55:49,1510846410,2017-11-16T15:33:35,0.754,1103.9,13.70,10.32,15.65,824.610,2065.440,116.849998,27.57,2.5064,363,23586,1.88873,3.91,42567,,,,,,,,,,,,,,,,,,99999,99999,99999,99999,99999,99999,99999,99999,99999,99999,99999,99999
24:56:19,1510846440,2017-11-16T15:34:05,0.750,1104.3,13.76,10.34,15.69,824.570,2065.670,114.916664,25.35,2.5063,363,23588,1.87886,3.91,42567,,,,,,,,,,,,,,,,,,99999,99999,99999,99999,99999,99999,99999,99999,99999,99999,99999,99999
24:56:49,1510846470,2017-11-16T15:34:35,0.756,1104.7,13.82,10.37,15.79,824.550,2065.830,118.016670,25.89,2.5059,363,23591,1.89413,3.91,42567,,,,,,,,,,,,,,,,,,99999,99999,99999,99999,99999,99999,99999,99999,99999,99999,99999,99999
24:57:19,1510846500,2017-11-16T15:35:05,0.750,1105.1,13.88,10.41,15.84,824.670,2066.070,116.050003,25.75,2.5057,363,23590,1.87976,3.91,42567,,,,,,,,,,,,,,,,,,99999,99999,99999,99999,99999,99999,99999,99999,99999,99999,99999,99999
24:57:49,1510846530,2017-11-16T15:35:35,0.751,1105.4,13.94,10.46,15.87,824.630,2066.250,116.949997,25.81,2.5054,363,23591,1.88275,3.91,42568,,,,,,,,,,,,,,,,,,99999,99999,99999,99999,99999,99999,99999,99999,99999,99999,99999,99999
24:58:19,1510846560,2017-11-16T15:36:05,0.755,1105.8,14.02,10.49,15.95,824.560,2066.580,116.133331,24.99,2.5051,363,23595,1.89203,3.92,42568,,,,,,,,,,,,,,,,,,99999,99999,99999,99999,99999,99999,99999,99999,99999,99999,99999,99999
24:58:49,1510846590,2017-11-16T15:36:35,0.754,1106.2,14.08,10.54,16.00,824.670,2066.750,118.566666,25.38,2.5048,363,23593,1.88753,3.92,42569,,,,,,,,,,,,,,,,,,99999,99999,99999,99999,99999,99999,99999,99999,99999,99999,99999,99999
24:59:19,1510846620,2017-11-16T15:37:05,0.755,1106.6,14.14,10.58,16.03,824.530,2066.980,119.616669,25.86,2.5045,363,23594,1.89173,3.91,42570,,,,,,,,,,,,,,,,,,99999,99999,99999,99999,99999,99999,99999,99999,99999,99999,99999,99999
24:59:49,1510846650,2017-11-16T15:37:35,0.752,1106.9,14.20,10.62,16.13,824.540,2067.150,117.300003,26.38,2.5041,363,23596,1.88334,3.91,42570,,,,,,,,,,,,,,,,,,99999,99999,99999,99999,99999,99999,99999,99999,99999,99999,99999,99999
25:00:19,1510846680,2017-11-16T15:38:05,0.758,1107.3,14.26,10.68,16.19,824.520,2067.380,119.050003,26.29,2.5039,363,23593,1.89713,3.91,42570,,,,,,,,,,,,,,,,,,99999,99999,99999,99999,99999,99999,99999,99999,99999,99999,99999,99999
25:00:49,1510846710,2017-11-16T15:38:35,0.756,1107.7,14.32,10.70,16.20,824.590,2067.610,119.216667,26.87,2.5036,363,23592,1.89353,3.90,42570,,,,,,,,,,,,,,,,,,99999,99999,99999,99999,99999,99999,99999,99999,99999,99999,99999,99999
25:01:19,1510846740,2017-11-16T15:39:05,0.758,1108.1,14.37,10.74,16.29,824.630,2067.710,119.400002,26.10,2.5033,363,23599,1.89833,3.92,42570,,,,,,,,,,,,,,,,,,99999,99999,99999,99999,99999,99999,99999,99999,99999,99999,99999,99999
25:01:49,1510846770,2017-11-16T15:39:35,0.758,1108.5,14.43,10.78,16.32,824.510,2068.000,119.400002,27.38,2.5031,363,23602,1.89773,3.93,42571,,,,,,,,,,,,,,,,,,99999,99999,99999,99999,99999,99999,99999,99999,99999,99999,99999,99999
25:02:19,1510846800,2017-11-16T15:40:05,0.759,1108.8,14.49,10.91,16.42,824.630,2068.170,117.933334,27.33,2.5027,363,23609,1.89863,3.95,42575,,,,,,,,,,,,,,,,,,99999,99999,99999,99999,99999,99999,99999,99999,99999,99999,99999,99999
25:02:49,1510846830,2017-11-16T15:40:35,0.760,1109.2,14.56,11.06,16.48,824.530,2068.400,118.949997,27.23,2.5024,363,23613,1.90284,3.96,42581,,,,,,,,,,,,,,,,,,99999,99999,99999,99999,99999,99999,99999,99999,99999,99999,99999,99999
25:03:19,1510846860,2017-11-16T15:41:05,0.760,1109.6,14.64,11.23,16.55,824.590,2068.740,119.533333,28.26,2.5020,363,23623,1.90254,3.96,42586,,,,,,,,,,,,,,,,,,99999,99999,99999,99999,99999,99999,99999,99999,99999,99999,99999,99999
25:03:49,1510846890,2017-11-16T15:41:35,0.755,1110.0,14.72,11.43,16.64,824.600,2068.970,117.550003,27.49,2.5017,363,23627,1.88783,3.96,42592,,,,,,,,,,,,,,,,,,99999,99999,99999,99999,99999,99999,99999,99999,99999,99999,99999,99999
25:04:19,1510846920,2017-11-16T15:42:05,0.756,1110.4,14.82,11.59,16.70,824.520,2069.320,117.633331,29.49,2.5011,363,23634,1.88993,3.96,42597,,,,,,,,,,,,,,,,,,99999,99999,99999,99999,99999,99999,99999,99999,99999,99999,99999,99999
25:04:49,1510846950,2017-11-16T15:42:35,0.762,1110.7,14.92,11.75,16.82,824.440,2069.720,120.750000,28.02,2.5008,363,23637,1.90524,3.96,42603,,,,,,,,,,,,,,,,,,99999,99999,99999,99999,99999,99999,99999,99999,99999,99999,99999,99999
25:05:19,1510846980,2017-11-16T15:43:05,0.758,1111.1,15.04,11.92,16.97,824.360,2070.110,119.833336,26.72,2.5003,363,23645,1.89593,3.96,42609,,,,,,,,,,,,,,,,,,99999,99999,99999,99999,99999,99999,99999,99999,99999,99999,99999,99999
25:05:49,1510847010,2017-11-16T15:43:35,0.761,1111.5,15.15,12.07,17.09,824.360,2070.440,118.933334,26.08,2.4998,363,23651,1.90223,3.96,42615,,,,,,,,,,,,,,,,,,99999,99999,99999,99999,99999,99999,99999,99999,99999,99999,99999,99999
25:06:19,1510847040,2017-11-16T15:44:05,0.764,1111.9,15.27,12.24,17.22,824.390,2070.860,120.516670,25.13,2.4993,363,23653,1.90946,3.95,42621,,,,,,,,,,,,,,,,,,99999,99999,99999,99999,99999,99999,99999,99999,99999,99999,99999,99999
25:06:49,1510847070,2017-11-16T15:44:35,0.759,1112.3,15.40,12.36,17.39,824.350,2071.320,118.500000,25.08,2.4987,363,23658,1.89773,3.95,42626,,,,,,,,,,,,,,,,,,99999,99999,99999,99999,99999,99999,99999,99999,99999,99999,99999,99999
25:07:19,1510847100,2017-11-16T15:45:05,0.764,1112.6,15.53,12.46,17.51,824.400,2071.760,121.016670,23.66,2.4982,363,23660,1.90916,3.95,42630,,,,,,,,,,,,,,,,,,99999,99999,99999,99999,99999,99999,99999,99999,99999,99999,99999,99999
25:07:49,1510847130,2017-11-16T15:45:35,0.760,1113.0,15.66,12.51,17.69,824.450,2072.220,119.816666,23.79,2.4976,363,23664,1.89923,3.96,42635,,,,,,,,,,,,,,,,,,99999,99999,99999,99999,99999,99999,99999,99999,99999,99999,99999,99999
25:08:19,1510847160,2017-11-16T15:46:05,0.766,1113.4,15.80,12.66,17.78,824.390,2072.680,122.150002,24.67,2.4969,363,23668,1.91217,3.96,42641,,,,,,,,,,,,,,,,,,99999,99999,99999,99999,99999,99999,99999,99999,99999,99999,99999,99999
25:08:49,1510847190,2017-11-16T15:46:35,0.766,1113.8,15.94,12.79,17.97,824.410,2073.200,119.816666,23.54,2.4964,363,23673,1.91127,3.97,42647,,,,,,,,,,,,,,,,,,99999,99999,99999,99999,99999,99999,99999,99999,99999,99999,99999,99999
25:09:19,1510847220,2017-11-16T15:47:05,0.764,1114.2,16.10,12.94,18.14,824.430,2073.760,119.016670,22.38,2.4957,363,23677,1.90795,3.95,42653,,,,,,,,,,,,,,,,,,99999,99999,99999,99999,99999,99999,99999,99999,99999,99999,99999,99999
25:09:49,1510847250,2017-11-16T15:47:35,0.766,1114.5,16.24,13.04,18.32,824.500,2074.290,121.199997,22.31,2.4952,363,23682,1.91097,3.96,42657,,,,,,,,,,,,,,,,,,99999,99999,99999,99999,99999,99999,99999,99999,99999,99999,99999,99999
25:10:19,1510847280,2017-11-16T15:48:05,0.767,1114.9,16.37,13.13,18.43,824.440,2074.750,123.250000,22.85,2.4945,363,23678,1.91308,3.96,42663,,,,,,,,,,,,,,,,,,99999,99999,99999,99999,99999,99999,99999,99999,99999,99999,99999,99999
25:10:49,1510847310,2017-11-16T15:48:35,0.767,1115.3,16.50,13.22,18.58,824.430,2075.140,121.366669,22.31,2.4939,363,23684,1.91248,3.94,42667,,,,,,,,,,,,,,,,,,99999,99999,99999,99999,99999,99999,99999,99999,99999,99999,99999,99999
25:11:19,1510847340,2017-11-16T15:49:05,0.766,1115.7,16.64,13.26,18.70,824.510,2075.670,121.050003,22.68,2.4933,363,23684,1.90886,3.93,42670,,,,,,,,,,,,,,,,,,99999,99999,99999,99999,99999,99999,99999,99999,99999,99999,99999,99999
25:11:49,1510847370,2017-11-16T15:49:35,0.766,1116.1,16.75,13.27,18.83,824.510,2076.060,121.300003,22.29,2.4928,363,23680,1.91006,3.91,42671,,,,,,,,,,,,,,,,,,99999,99999,99999,99999,99999,99999,99999,99999,99999,99999,99999,99999
25:12:19,1510847400,2017-11-16T15:50:05,0.771,1116.5,16.84,13.21,18.96,824.490,2076.290,123.433334,21.68,2.4924,363,23675,1.92153,3.91,42670,,,,,,,,,,,,,,,,,,99999,99999,99999,99999,99999,99999,99999,99999,99999,99999,99999,99999
25:12:49,1510847430,2017-11-16T15:50:35,0.769,1116.9,16.95,13.17,19.05,824.400,2076.710,122.750000,21.13,2.4920,363,23673,1.91730,3.91,42670,,,,,,,,,,,,,,,,,,99999,99999,99999,99999,99999,99999,99999,99999,99999,99999,99999,99999
25:13:19,1510847460,2017-11-16T15:51:05,0.767,1117.2,17.03,13.15,19.10,824.440,2076.980,122.133331,21.48,2.4916,363,23676,1.91127,3.92,42671,,,,,,,,,,,,,,,,,,99999,99999,99999,99999,99999,99999,99999,99999,99999,99999,99999,99999
25:13:49,1510847490,2017-11-16T15:51:35,0.769,1117.6,17.11,13.14,19.19,824.420,2077.270,123.533333,20.18,2.4913,363,23674,1.91579,3.93,42673,,,,,,,,,,,,,,,,,,99999,99999,99999,99999,99999,99999,99999,99999,99999,99999,99999,99999
25:14:19,1510847520,2017-11-16T15:52:05,0.772,1118.0,17.19,13.19,19.25,824.560,2077.570,123.500000,20.21,2.4910,363,23677,1.92335,3.94,42676,,,,,,,,,,,,,,,,,,99999,99999,99999,99999,99999,99999,99999,99999,99999,99999,99999,99999
25:14:49,1510847550,2017-11-16T15:52:35,0.770,1118.4,17.27,13.28,19.35,824.520,2077.790,120.683334,21.53,2.4904,363,23683,1.91700,3.94,42678,,,,,,,,,,,,,,,,,,99999,99999,99999,99999,99999,99999,99999,99999,99999,99999,99999,99999
25:15:19,1510847580,2017-11-16T15:53:05,0.771,1118.8,17.34,13.34,19.40,824.580,2078.090,122.716667,21.32,2.4902,363,23682,1.91881,3.93,42680,,,,,,,,,,,,,,,,,,99999,99999,99999,99999,99999,99999,99999,99999,99999,99999,99999,99999
25:15:49,1510847610,2017-11-16T15:53:35,0.771,1119.2,17.40,13.38,19.46,824.520,2078.250,122.016670,22.02,2.4898,363,23683,1.92002,3.91,42682,,,,,,,,,,,,,,,,,,99999,99999,99999,99999,99999,99999,99999,99999,99999,99999,99999,99999
25:16:19,1510847640,2017-11-16T15:54:05,0.770,1119.5,17.46,13.43,19.51,824.560,2078.490,122.500000,21.49,2.4896,363,23685,1.91761,3.93,42684,,,,,,,,,,,,,,,,,,99999,99999,99999,99999,99999,99999,99999,99999,99999,99999,99999,99999
25:16:49,1510847670,2017-11-16T15:54:35,0.774,1119.9,17.52,13.51,19.58,824.540,2078.650,124.500000,21.77,2.4893,363,23688,1.92547,3.96,42688,,,,,,,,,,,,,,,,,,99999,99999,99999,99999,99999,99999,99999,99999,99999,99999,99999,99999
25:17:19,1510847700,2017-11-16T15:55:05,0.773,1120.3,17.59,13.64,19.63,824.520,2078.940,124.616669,21.84,2.4890,363,23696,1.92486,3.94,42692,,,,,,,,,,,,,,,,,,99999,99999,99999,99999,99999,99999,99999,99999,99999,99999,99999,99999
25:17:49,1510847730,2017-11-16T15:55:35,0.775,1120.7,17.64,13.72,19.67,824.610,2079.110,124.400002,21.87,2.4888,363,23698,1.92819,3.95,42695,,,,,,,,,,,,,,,,,,99999,99999,99999,99999,99999,99999,99999,99999,99999,99999,99999,99999
25:18:19,1510847760,2017-11-16T15:56:05,0.772,1121.1,17.69,13.81,19.72,824.630,2079.300,121.783333,20.74,2.4887,363,23705,1.92244,3.97,42701,,,,,,,,,,,,,,,,,,99999,99999,99999,99999,99999,99999,99999,99999,99999,99999,99999,99999
25:18:49,1510847790,2017-11-16T15:56:35,0.774,1121.5,17.75,13.95,19.75,824.690,2079.460,122.866669,22.13,2.4882,363,23702,1.92577,3.96,42707,,,,,,,,,,,,,,,,,,99999,99999,99999,99999,99999,99999,99999,99999,99999,99999,99999,99999
25:19:19,1510847820,2017-11-16T15:57:05,0.777,1121.9,17.81,14.12,19.86,824.650,2079.760,123.733330,20.71,2.4882,363,23712,1.93304,3.96,42713,,,,,,,,,,,,,,,,,,99999,99999,99999,99999,99999,99999,99999,99999,99999,99999,99999,99999
25:19:49,1510847850,2017-11-16T15:57:35,0.773,1122.3,17.87,14.22,19.94,824.560,2079.920,122.150002,20.58,2.4879,363,23715,1.92214,3.95,42718,,,,,,,,,,,,,,,,,,99999,99999,99999,99999,99999,99999,99999,99999,99999,99999,99999,99999
25:20:19,1510847880,2017-11-16T15:58:05,0.777,1122.6,17.94,14.32,20.01,824.620,2080.160,124.266670,21.48,2.4875,363,23718,1.93153,3.95,42722,,,,,,,,,,,,,,,,,,99999,99999,99999,99999,99999,99999,99999,99999,99999,99999,99999,99999
25:20:49,1510847910,2017-11-16T15:58:35,0.772,1123.0,18.01,14.39,20.08,824.630,2080.380,124.000000,20.65,2.4872,363,23721,1.91912,3.96,42726,,,,,,,,,,,,,,,,,,99999,99999,99999,99999,99999,99999,99999,99999,99999,99999,99999,99999
25:21:19,1510847940,2017-11-16T15:59:05,0.777,1123.4,18.08,14.46,20.20,824.430,2080.680,126.133331,20.10,2.4870,363,23722,1.93153,3.95,42731,,,,,,,,,,,,,,,,,,99999,99999,99999,99999,99999,99999,99999,99999,99999,99999,99999,99999
25:21:49,1510847970,2017-11-16T15:59:35,0.777,1123.8,18.15,14.56,20.32,824.440,2080.910,124.983330,19.90,2.4867,363,23725,1.93304,3.94,42735,,,,,,,,,,,,,,,,,,99999,99999,99999,99999,99999,99999,99999,99999,99999,99999,99999,99999
25:22:19,1510848000,2017-11-16T16:00:05,0.775,1124.2,18.26,14.65,20.38,824.470,2081.240,125.116669,21.06,2.4860,363,23727,1.92638,3.95,42739,,,,,,,,,,,,,,,,,,99999,99999,99999,99999,99999,99999,99999,99999,99999,99999,99999,99999
25:22:49,1510848030,2017-11-16T16:00:35,0.778,1124.6,18.34,14.72,20.44,824.470,2081.600,124.783333,21.43,2.4857,363,23730,1.93456,3.95,42744,,,,,,,,,,,,,,,,,,99999,99999,99999,99999,99999,99999,99999,99999,99999,99999,99999,99999
25:23:19,1510848060,2017-11-16T16:01:05,0.778,1125.0,18.43,14.83,20.58,824.370,2081.830,125.816666,19.65,2.4854,363,23730,1.93335,3.96,42749,,,,,,,,,,,,,,,,,,99999,99999,99999,99999,99999,99999,99999,99999,99999,99999,99999,99999
25:23:49,1510848090,2017-11-16T16:01:35,0.778,1125.4,18.52,14.93,20.66,824.400,2082.180,123.616669,19.45,2.4851,363,23739,1.93304,3.96,42754,,,,,,,,,,,,,,,,,,99999,99999,99999,99999,99999,99999,99999,99999,99999,99999,99999,99999
25:24:19,1510848120,2017-11-16T16:02:05,0.777,1125.7,18.61,15.04,20.74,824.360,2082.510,123.849998,19.41,2.4847,363,23743,1.92971,3.96,42760,,,,,,,,,,,,,,,,,,99999,99999,99999,99999,99999,99999,99999,99999,99999,99999,99999,99999
25:24:49,1510848150,2017-11-16T16:02:35,0.777,1126.1,18.72,15.18,20.85,824.410,2082.800,123.633331,20.63,2.4840,363,23747,1.92880,3.96,42766,,,,,,,,,,,,,,,,,,99999,99999,99999,99999,99999,99999,99999,99999,99999,99999,99999,99999
25:25:19,1510848180,2017-11-16T16:03:05,0.777,1126.5,18.82,15.30,21.00,824.520,2083.200,124.099998,19.56,2.4837,363,23749,1.93032,3.97,42772,,,,,,,,,,,,,,,,,,99999,99999,99999,99999,99999,99999,99999,99999,99999,99999,99999,99999
25:25:49,1510848210,2017-11-16T16:03:35,0.782,1126.9,18.94,15.42,21.08,824.490,2083.620,126.166664,19.66,2.4831,363,23754,1.94064,3.96,42778,,,,,,,,,,,,,,,,,,99999,99999,99999,99999,99999,99999,99999,99999,99999,99999,99999,99999
25:26:19,1510848240,2017-11-16T16:04:05,0.779,1127.3,19.04,15.57,21.24,824.550,2083.970,124.966667,18.76,2.4828,363,23758,1.93396,3.97,42784,,,,,,,,,,,,,,,,,,99999,99999,99999,99999,99999,99999,99999,99999,99999,99999,99999,99999
25:26:49,1510848270,2017-11-16T16:04:35,0.782,1127.7,19.14,15.66,21.32,824.530,2084.370,127.383331,18.64,2.4824,363,23761,1.94064,3.97,42789,,,,,,,,,,,,,,,,,,99999,99999,99999,99999,99999,99999,99999,99999,99999,99999,99999,99999
25:27:19,1510848300,2017-11-16T16:05:05,0.779,1128.1,19.25,15.77,21.43,824.550,2084.670,125.483330,18.65,2.4818,363,23764,1.93213,3.97,42795,,,,,,,,,,,,,,,,,,99999,99999,99999,99999,99999,99999,99999,99999,99999,99999,99999,99999
25:27:49,1510848330,2017-11-16T16:05:35,0.782,1128.5,19.34,15.86,21.54,824.530,2085.000,128.266663,19.01,2.4814,363,23771,1.94125,3.97,42801,,,,,,,,,,,,,,,,,,99999,99999,99999,99999,99999,99999,99999,99999,99999,99999,99999,99999
25:28:19,1510848360,2017-11-16T16:06:05,0.780,1128.9,19.44,15.96,21.67,824.480,2085.350,125.650002,19.29,2.4809,363,23771,1.93396,3.97,42807,,,,,,,,,,,,,,,,,,99999,99999,99999,99999,99999,99999,99999,99999,99999,99999,99999,99999
25:28:49,1510848390,2017-11-16T16:06:35,0.783,1129.3,19.55,16.07,21.78,824.430,2085.750,127.666664,19.66,2.4804,363,23775,1.94186,3.97,42813,,,,,,,,,,,,,,,,,,99999,99999,99999,99999,99999,99999,99999,99999,99999,99999,99999,99999
25:29:19,1510848420,2017-11-16T16:07:05,0.785,1129.6,19.66,16.18,21.90,824.480,2086.170,127.783333,18.62,2.4801,363,23777,1.94673,3.97,42819,,,,,,,,,,,,,,,,,,99999,99999,99999,99999,99999,99999,99999,99999,99999,99999,99999,99999
25:29:49,1510848450,2017-11-16T16:07:35,0.785,1130.0,19.76,16.26,22.04,824.350,2086.460,128.000000,18.28,2.4796,363,23780,1.94642,3.97,42825,,,,,,,,,,,,,,,,,,99999,99999,99999,99999,99999,99999,99999,99999,99999,99999,99999,99999
25:30:19,1510848480,2017-11-16T16:08:05,0.786,1130.4,19.87,16.36,22.12,824.430,2086.860,129.283340,18.40,2.4791,363,23784,1.94794,3.97,42830,,,,,,,,,,,,,,,,,,99999,99999,99999,99999,99999,99999,99999,99999,99999,99999,99999,99999
25:30:49,1510848510,2017-11-16T16:08:35,0.785,1130.8,19.99,16.45,22.24,824.430,2087.270,127.699997,17.60,2.4787,363,23785,1.94490,3.97,42836,,,,,,,,,,,,,,,,,,99999,99999,99999,99999,99999,99999,99999,99999,99999,99999,99999,99999
25:31:19,1510848540,2017-11-16T16:09:05,0.786,1131.2,20.10,16.55,22.34,824.370,2087.670,129.216660,17.63,2.4782,363,23787,1.94886,3.97,42842,,,,,,,,,,,,,,,,,,99999,99999,99999,99999,99999,99999,99999,99999,99999,99999,99999,99999
25:31:49,1510848570,2017-11-16T16:09:35,0.784,1131.6,20.22,16.66,22.50,824.370,2088.090,125.966667,18.63,2.4776,363,23791,1.94186,3.97,42848,,,,,,,,,,,,,,,,,,99999,99999,99999,99999,99999,99999,99999,99999,99999,99999,99999,99999
25:32:19,1510848600,2017-11-16T16:10:05,0.784,1132.0,20.36,16.74,22.64,824.420,2088.610,126.050003,18.37,2.4770,363,23796,1.94307,3.97,42854,,,,,,,,,,,,,,,,,,99999,99999,99999,99999,99999,99999,99999,99999,99999,99999,99999,99999
25:32:49,1510848630,2017-11-16T16:10:35,0.789,1132.4,20.49,16.85,22.75,824.440,2089.070,129.183334,18.21,2.4765,363,23799,1.95465,3.97,42860,,,,,,,,,,,,,,,,,,99999,99999,99999,99999,99999,99999,99999,99999,99999,99999,99999,99999
25:33:19,1510848660,2017-11-16T16:11:05,0.785,1132.8,20.62,16.96,22.92,824.420,2089.470,128.149994,17.31,2.4759,363,23799,1.94368,3.97,42866,,,,,,,,,,,,,,,,,,99999,99999,99999,99999,99999,99999,99999,99999,99999,99999,99999,99999
25:33:49,1510848690,2017-11-16T16:11:35,0.784,1133.2,20.77,17.08,23.07,824.330,2090.010,128.283340,16.87,2.4753,363,23804,1.94155,3.97,42871,,,,,,,,,,,,,,,,,,99999,99999,99999,99999,99999,99999,99999,99999,99999,99999,99999,99999
25:34:19,1510848720,2017-11-16T16:12:05,0.789,1133.6,20.90,17.18,23.22,824.380,2090.470,128.583328,16.97,2.4747,363,23806,1.95252,3.97,42877,,,,,,,,,,,,,,,,,,99999,99999,99999,99999,99999,99999,99999,99999,99999,99999,99999,99999
25:34:49,1510848750,2017-11-16T16:12:35,0.788,1134.0,21.04,17.31,23.33,824.320,2090.930,130.750000,16.73,2.4741,363,23810,1.94947,3.97,42883,,,,,,,,,,,,,,,,,,99999,99999,99999,99999,99999,99999,99999,99999,99999,99999,99999,99999
25:35:19,1510848780,2017-11-16T16:13:05,0.792,1134.4,21.19,17.39,23.46,824.360,2091.450,129.300003,17.21,2.4734,363,23811,1.95832,3.96,42889,,,,,,,,,,,,,,,,,,99999,99999,99999,99999,99999,99999,99999,99999,99999,99999,99999,99999
25:35:49,1510848810,2017-11-16T16:13:35,0.789,1134.8,21.31,17.51,23.62,824.330,2091.870,131.649994,16.11,2.4730,363,23817,1.95221,3.96,42894,,,,,,,,,,,,,,,,,,99999,99999,99999,99999,99999,99999,99999,99999,99999,99999,99999,99999
25:36:19,1510848840,2017-11-16T16:14:05,0.788,1135.1,21.44,17.57,23.75,824.300,2092.330,128.666672,17.11,2.4723,363,23818,1.94733,3.96,42899,,,,,,,,,,,,,,,,,,99999,99999,99999,99999,99999,99999,99999,99999,99999,99999,99999,99999
25:36:49,1510848870,2017-11-16T16:14:35,0.789,1135.5,21.56,17.63,23.83,824.350,2092.740,129.199997,16.27,2.4719,363,23820,1.94977,3.96,42904,,,,,,,,,,,,,,,,,,99999,99999,99999,99999,99999,99999,99999,99999,99999,99999,99999,99999
25:37:19,1510848900,2017-11-16T16:15:05,0.790,1135.9,21.69,17.73,23.96,824.320,2093.210,130.133331,15.58,2.4714,363,23824,1.95313,3.96,42909,,,,,,,,,,,,,,,,,,99999,99999,99999,99999,99999,99999,99999,99999,99999,99999,99999,99999
25:37:49,1510848930,2017-11-16T16:15:35,0.792,1136.3,21.79,17.78,24.08,824.350,2093.560,129.983337,15.25,2.4710,363,23826,1.95740,3.96,42913,,,,,,,,,,,,,,,,,,99999,99999,99999,99999,99999,99999,99999,99999,99999,99999,99999,99999
25:38:19,1510848960,2017-11-16T16:16:05,0.789,1136.7,21.90,17.86,24.20,824.220,2093.910,128.916672,15.25,2.4705,363,23827,1.95038,3.95,42917,,,,,,,,,,,,,,,,,,99999,99999,99999,99999,99999,99999,99999,99999,99999,99999,99999,99999
25:38:49,1510848990,2017-11-16T16:16:35,0.790,1137.1,22.00,17.92,24.30,824.300,2094.250,129.016663,14.90,2.4701,363,23826,1.95221,3.94,42921,,,,,,,,,,,,,,,,,,99999,99999,99999,99999,99999,99999,99999,99999,99999,99999,99999,99999
25:39:19,1510849020,2017-11-16T16:17:05,0.795,1137.5,22.10,17.95,24.42,824.300,2094.670,131.183334,14.81,2.4698,363,23827,1.96229,3.95,42924,,,,,,,,,,,,,,,,,,99999,99999,99999,99999,99999,99999,99999,99999,99999,99999,99999,99999
25:39:49,1510849050,2017-11-16T16:17:35,0.795,1137.9,22.21,17.96,24.49,824.280,2095.020,130.633331,16.25,2.4691,363,23828,1.96198,3.94,42927,,,,,,,,,,,,,,,,,,99999,99999,99999,99999,99999,99999,99999,99999,99999,99999,99999,99999
25:40:19,1510849080,2017-11-16T16:18:05,0.791,1138.3,22.30,17.96,24.62,824.280,2095.310,130.583328,15.91,2.4687,363,23827,1.95343,3.93,42929,,,,,,,,,,,,,,,,,,99999,99999,99999,99999,99999,99999,99999,99999,99999,99999,99999,99999
25:40:49,1510849110,2017-11-16T16:18:35,0.795,1138.7,22.40,17.96,24.70,824.280,2095.670,131.600006,14.81,2.4684,363,23825,1.96198,3.92,42929,,,,,,,,,,,,,,,,,,99999,99999,99999,99999,99999,99999,99999,99999,99999,99999,99999,99999
25:41:19,1510849140,2017-11-16T16:19:05,0.794,1139.1,22.48,17.92,24.76,824.270,2095.960,131.416672,14.72,2.4681,363,23824,1.96076,3.92,42930,,,,,,,,,,,,,,,,,,99999,99999,99999,99999,99999,99999,99999,99999,99999,99999,99999,99999
25:41:49,1510849170,2017-11-16T16:19:35,0.792,1139.5,22.55,17.88,24.81,824.330,2096.190,130.416672,14.90,2.4677,363,23821,1.95526,3.92,42930,,,,,,,,,,,,,,,,,,99999,99999,99999,99999,99999,99999,99999,99999,99999,99999,99999,99999
25:42:19,1510849200,2017-11-16T16:20:05,0.796,1139.9,22.61,17.88,24.89,824.260,2096.420,132.949997,14.72,2.4675,363,23821,1.96443,3.94,42931,,,,,,,,,,,,,,,,,,99999,99999,99999,99999,99999,99999,99999,99999,99999,99999,99999,99999
25:42:49,1510849230,2017-11-16T16:20:35,0.794,1140.3,22.67,17.88,24.92,824.250,2096.590,130.683334,15.79,2.4671,363,23825,1.95923,3.94,42932,,,,,,,,,,,,,,,,,,99999,99999,99999,99999,99999,99999,99999,99999,99999,99999,99999,99999
25:43:19,1510849260,2017-11-16T16:21:05,0.792,1140.7,22.74,17.92,24.98,824.340,2096.880,131.183334,16.52,2.4667,363,23827,1.95465,3.95,42936,,,,,,,,,,,,,,,,,,99999,99999,99999,99999,99999,99999,99999,99999,99999,99999,99999,99999
25:43:49,1510849290,2017-11-16T16:21:35,0.792,1141.1,22.79,17.99,25.03,824.200,2097.070,130.466660,16.62,2.4665,363,23832,1.95465,3.97,42941,,,,,,,,,,,,,,,,,,99999,99999,99999,99999,99999,99999,99999,99999,99999,99999,99999,99999
25:44:19,1510849320,2017-11-16T16:22:05,0.797,1141.5,22.85,18.14,25.07,824.150,2097.300,133.916672,16.87,2.4663,363,23836,1.96505,3.96,42946,,,,,,,,,,,,,,,,,,99999,99999,99999,99999,99999,99999,99999,99999,99999,99999,99999,99999
25:44:49,1510849350,2017-11-16T16:22:35,0.798,1141.9,22.89,18.23,25.14,824.230,2097.420,132.983337,16.92,2.4661,363,23838,1.96719,3.95,42951,,,,,,,,,,,,,,,,,,99999,99999,99999,99999,99999,99999,99999,99999,99999,99999,99999,99999
25:45:19,1510849380,2017-11-16T16:23:05,0.798,1142.3,22.93,18.29,25.15,824.170,2097.530,132.800003,15.86,2.4660,363,23840,1.96841,3.95,42955,,,,,,,,,,,,,,,,,,99999,99999,99999,99999,99999,99999,99999,99999,99999,99999,99999,99999
25:45:49,1510849410,2017-11-16T16:23:35,0.794,1142.7,22.98,18.35,25.18,824.120,2097.650,131.800003,15.10,2.4658,363,23842,1.95862,3.96,42959,,,,,,,,,,,,,,,,,,99999,99999,99999,99999,99999,99999,99999,99999,99999,99999,99999,99999
25:46:19,1510849440,2017-11-16T16:24:05,0.797,1143.1,23.02,18.40,25.25,824.140,2097.880,132.316666,14.91,2.4658,363,23843,1.96535,3.94,42963,,,,,,,,,,,,,,,,,,99999,99999,99999,99999,99999,99999,99999,99999,99999,99999,99999,99999
25:46:49,1510849470,2017-11-16T16:24:35,0.798,1143.5,23.07,18.45,25.30,824.100,2098.010,132.816666,15.18,2.4654,363,23848,1.96749,3.96,42967,,,,,,,,,,,,,,,,,,99999,99999,99999,99999,99999,99999,99999,99999,99999,99999,99999,99999
25:47:19,1510849500,2017-11-16T16:25:05,0.798,1143.9,23.11,18.53,25.31,824.060,2098.120,132.733337,15.85,2.4652,363,23850,1.96719,3.96,42972,,,,,,,,,,,,,,,,,,99999,99999,99999,99999,99999,99999,99999,99999,99999,99999,99999,99999
25:47:49,1510849530,2017-11-16T16:25:35,0.797,1144.3,23.16,18.58,25.36,824.110,2098.370,132.866669,15.46,2.4651,363,23851,1.96505,3.97,42977,,,,,,,,,,,,,,,,,,99999,99999,99999,99999,99999,99999,99999,99999,99999,99999,99999,99999
25:48:19,1510849560,2017-11-16T16:26:05,0.796,1144.7,23.21,18.65,25.44,824.120,2098.470,131.899994,16.19,2.4647,363,23855,1.96137,3.96,42982,,,,,,,,,,,,,,,,,,99999,99999,99999,99999,99999,99999,99999,99999,99999,99999,99999,99999
25:48:49,1510849590,2017-11-16T16:26:35,0.796,1145.1,23.27,18.73,25.49,824.190,2098.760,130.683334,14.96,2.4647,363,23857,1.96229,3.96,42987,,,,,,,,,,,,,,,,,,99999,99999,99999,99999,99999,99999,99999,99999,99999,99999,99999,99999
25:49:19,1510849620,2017-11-16T16:27:05,0.795,1145.5,23.31,18.79,25.57,824.100,2098.890,131.466660,14.92,2.4645,363,23856,1.95923,3.96,42992,,,,,,,,,,,,,,,,,,99999,99999,99999,99999,99999,99999,99999,99999,99999,99999,99999,99999
25:49:49,1510849650,2017-11-16T16:27:35,0.794,1145.9,23.37,18.84,25.58,824.110,2099.050,131.250000,14.82,2.4642,363,23859,1.95740,3.95,42996,,,,,,,,,,,,,,,,,,99999,99999,99999,99999,99999,99999,99999,99999,99999,99999,99999,99999
25:50:19,1510849680,2017-11-16T16:28:05,0.798,1146.3,23.43,18.87,25.64,824.200,2099.310,131.483337,15.14,2.4639,363,23860,1.96657,3.96,43000,,,,,,,,,,,,,,,,,,99999,99999,99999,99999,99999,99999,99999,99999,99999,99999,99999,99999
25:50:49,1510849710,2017-11-16T16:28:35,0.799,1146.7,23.51,18.93,25.72,824.050,2099.540,132.683334,16.13,2.4634,363,23864,1.96810,3.96,43006,,,,,,,,,,,,,,,,,,99999,99999,99999,99999,99999,99999,99999,99999,99999,99999,99999,99999
25:51:19,1510849740,2017-11-16T16:29:05,0.800,1147.1,23.59,19.02,25.80,824.190,2099.830,133.883331,16.58,2.4630,363,23864,1.97056,3.97,43010,,,,,,,,,,,,,,,,,,99999,99999,99999,99999,99999,99999,99999,99999,99999,99999,99999,99999
25:51:49,1510849770,2017-11-16T16:29:35,0.798,1147.5,23.65,19.12,25.88,824.070,2099.990,131.800003,15.35,2.4629,363,23869,1.96566,3.96,43016,,,,,,,,,,,,,,,,,,99999,99999,99999,99999,99999,99999,99999,99999,99999,99999,99999,99999
25:52:19,1510849800,2017-11-16T16:30:05,0.796,1147.9,23.73,19.21,25.97,824.160,2100.310,132.433334,15.73,2.4625,363,23870,1.96107,3.97,43021,,,,,,,,,,,,,,,,,,99999,99999,99999,99999,99999,99999,99999,99999,99999,99999,99999,99999
25:52:49,1510849830,2017-11-16T16:30:35,0.797,1148.3,23.81,19.28,26.02,824.150,2100.640,131.783340,15.47,2.4623,363,23875,1.96321,3.97,43027,,,,,,,,,,,,,,,,,,99999,99999,99999,99999,99999,99999,99999,99999,99999,99999,99999,99999
25:53:19,1510849860,2017-11-16T16:31:05,0.798,1148.7,23.88,19.37,26.11,824.180,2100.830,133.000000,15.12,2.4619,363,23879,1.96505,3.97,43032,,,,,,,,,,,,,,,,,,99999,99999,99999,99999,99999,99999,99999,99999,99999,99999,99999,99999
25:53:49,1510849890,2017-11-16T16:31:35,0.799,1149.1,23.94,19.44,26.22,824.090,2101.060,133.600006,15.08,2.4617,363,23878,1.96780,3.97,43038,,,,,,,,,,,,,,,,,,99999,99999,99999,99999,99999,99999,99999,99999,99999,99999,99999,99999
25:54:19,1510849920,2017-11-16T16:32:05,0.799,1149.5,23.98,19.50,26.30,824.130,2101.180,135.916672,15.57,2.4615,363,23882,1.96596,3.97,43044,,,,,,,,,,,,,,,,,,99999,99999,99999,99999,99999,99999,99999,99999,99999,99999,99999,99999
25:54:49,1510849950,2017-11-16T16:32:35,0.798,1149.9,24.01,19.55,26.31,824.200,2101.290,133.633331,15.27,2.4614,363,23883,1.96535,3.96,43049,,,,,,,,,,,,,,,,,,99999,99999,99999,99999,99999,99999,99999,99999,99999,99999,99999,99999
25:55:19,1510849980,2017-11-16T16:33:05,0.801,1150.3,24.04,19.57,26.36,824.120,2101.410,135.533340,15.06,2.4613,363,23884,1.97178,3.96,43053,,,,,,,,,,,,,,,,,,99999,99999,99999,99999,99999,99999,99999,99999,99999,99999,99999,99999
25:55:49,1510850010,2017-11-16T16:33:35,0.798,1150.7,24.06,19.57,26.34,824.220,2101.540,132.800003,15.74,2.4612,363,23880,1.96413,3.96,43058,,,,,,,,,,,,,,,,,,99999,99999,99999,99999,99999,99999,99999,99999,99999,99999,99999,99999
25:56:19,1510850040,2017-11-16T16:34:05,0.800,1151.1,24.08,19.58,26.39,824.220,2101.580,132.416672,14.79,2.4612,363,23881,1.96903,3.96,43062,,,,,,,,,,,,,,,,,,99999,99999,99999,99999,99999,99999,99999,99999,99999,99999,99999,99999
25:56:49,1510850070,2017-11-16T16:34:35,0.801,1151.5,24.09,19.57,26.41,824.160,2101.580,132.216660,15.01,2.4611,363,23880,1.97117,3.95,43067,,,,,,,,,,,,,,,,,,99999,99999,99999,99999,99999,99999,99999,99999,99999,99999,99999,99999
25:57:19,1510850100,2017-11-16T16:35:05,0.802,1151.9,24.10,19.60,26.42,824.210,2101.650,134.733337,14.25,2.4612,363,23880,1.97332,3.95,43071,,,,,,,,,,,,,,,,,,99999,99999,99999,99999,99999,99999,99999,99999,99999,99999,99999,99999
25:57:49,1510850130,2017-11-16T16:35:35,0.798,1152.3,24.13,19.61,26.39,824.150,2101.710,133.283340,14.19,2.4610,363,23882,1.96290,3.96,43075,,,,,,,,,,,,,,,,,,99999,99999,99999,99999,99999,99999,99999,99999,99999,99999,99999,99999
25:58:19,1510850160,2017-11-16T16:36:05,0.801,1152.7,24.17,19.65,26.47,824.190,2101.830,134.083328,14.49,2.4608,363,23883,1.97117,3.96,43079,,,,,,,,,,,,,,,,,,99999,99999,99999,99999,99999,99999,99999,99999,99999,99999,99999,99999
25:58:49,1510850190,2017-11-16T16:36:35,0.800,1153.1,24.20,19.71,26.49,824.210,2102.000,131.983337,14.07,2.4608,363,23884,1.96841,3.95,43082,,,,,,,,,,,,,,,,,,99999,99999,99999,99999,99999,99999,99999,99999,99999,99999,99999,99999
25:59:19,1510850220,2017-11-16T16:37:05,0.802,1153.5,24.23,19.70,26.53,824.180,2102.060,135.399994,14.61,2.4605,363,23882,1.97455,3.94,43086,,,,,,,,,,,,,,,,,,99999,99999,99999,99999,99999,99999,99999,99999,99999,99999,99999,99999
25:59:49,1510850250,2017-11-16T16:37:35,0.799,1153.9,24.28,19.74,26.57,824.160,2102.230,133.383331,15.22,2.4602,363,23882,1.96505,3.94,43088,,,,,,,,,,,,,,,,,,99999,99999,99999,99999,99999,99999,99999,99999,99999,99999,99999,99999
26:00:19,1510850280,2017-11-16T16:38:05,0.803,1154.3,24.32,19.77,26.65,824.160,2102.350,134.699997,14.52,2.4601,363,23887,1.97547,3.94,43091,,,,,,,,,,,,,,,,,,99999,99999,99999,99999,99999,99999,99999,99999,99999,99999,99999,99999
26:00:49,1510850310,2017-11-16T16:38:35,0.799,1154.7,24.38,19.81,26.69,824.200,2102.580,132.916672,14.53,2.4599,363,23886,1.96657,3.95,43094,,,,,,,,,,,,,,,,,,99999,99999,99999,99999,99999,99999,99999,99999,99999,99999,99999,99999
26:01:19,1510850340,2017-11-16T16:39:05,0.800,1155.1,24.43,19.85,26.73,824.180,2102.770,133.383331,14.97,2.4596,363,23885,1.96688,3.94,43097,,,,,,,,,,,,,,,,,,99999,99999,99999,99999,99999,99999,99999,99999,99999,99999,99999,99999
26:01:49,1510850370,2017-11-16T16:39:35,0.800,1155.5,24.48,19.89,26.80,824.150,2102.940,133.050003,14.59,2.4594,363,23891,1.96719,3.96,43101,,,,,,,,,,,,,,,,,,99999,99999,99999,99999,99999,99999,99999,99999,99999,99999,99999,99999
26:02:19,1510850400,2017-11-16T16:40:05,0.803,1155.9,24.53,19.95,26.83,824.110,2103.130,134.916672,14.33,2.4593,363,23891,1.97485,3.95,43104,,,,,,,,,,,,,,,,,,99999,99999,99999,99999,99999,99999,99999,99999,99999,99999,99999,99999
26:02:49,1510850430,2017-11-16T16:40:35,0.805,1156.3,24.60,20.02,26.89,824.070,2103.420,135.183334,14.04,2.4591,363,23893,1.97977,3.94,43107,,,,,,,,,,,,,,,,,,99999,99999,99999,99999,99999,99999,99999,99999,99999,99999,99999,99999
26:03:19,1510850460,2017-11-16T16:41:05,0.805,1156.7,24.66,20.08,26.95,824.080,2103.590,135.916672,14.14,2.4588,363,23894,1.97884,3.95,43110,,,,,,,,,,,,,,,,,,99999,99999,99999,99999,99999,99999,99999,99999,99999,99999,99999,99999
26:03:49,1510850490,2017-11-16T16:41:35,0.801,1157.1,24.73,20.14,27.00,824.090,2103.770,133.649994,13.52,2.4585,363,23896,1.96841,3.95,43113,,,,,,,,,,,,,,,,,,99999,99999,99999,99999,99999,99999,99999,99999,99999,99999,99999,99999
26:04:19,1510850520,2017-11-16T16:42:05,0.801,1157.5,24.80,20.21,27.07,824.040,2104.070,133.333328,13.71,2.4582,363,23900,1.96933,3.96,43117,,,,,,,,,,,,,,,,,,99999,99999,99999,99999,99999,99999,99999,99999,99999,99999,99999,99999
26:04:49,1510850550,2017-11-16T16:42:35,0.802,1157.9,24.87,20.31,27.17,824.050,2104.360,135.250000,13.77,2.4580,363,23902,1.97240,3.96,43121,,,,,,,,,,,,,,,,,,99999,99999,99999,99999,99999,99999,99999,99999,99999,99999,99999,99999
26:05:19,1510850580,2017-11-16T16:43:05,0.806,1158.3,24.96,20.39,27.21,824.060,2104.590,135.583328,13.81,2.4575,363,23908,1.98038,3.96,43126,,,,,,,,,,,,,,,,,,99999,99999,99999,99999,99999,99999,99999,99999,99999,99999,99999,99999
26:05:49,1510850610,2017-11-16T16:43:35,0.804,1158.7,25.06,20.49,27.34,824.070,2104.940,133.483337,14.38,2.4570,363,23909,1.97485,3.96,43130,,,,,,,,,,,,,,,,,,99999,99999,99999,99999,99999,99999,99999,99999,99999,99999,99999,99999
26:06:19,1510850640,2017-11-16T16:44:05,0.803,1159.1,25.14,20.62,27.41,824.020,2105.240,134.633331,14.96,2.4566,363,23913,1.97148,3.96,43135,,,,,,,,,,,,,,,,,,99999,99999,99999,99999,99999,99999,99999,99999,99999,99999,99999,99999
26:06:49,1510850670,2017-11-16T16:44:35,0.806,1159.5,25.23,20.74,27.50,824.050,2105.550,134.133331,12.77,2.4565,363,23917,1.97915,3.96,43140,,,,,,,,,,,,,,,,,,99999,99999,99999,99999,99999,99999,99999,99999,99999,99999,99999,99999
26:07:19,1510850700,2017-11-16T16:45:05,0.803,1159.9,25.30,20.84,27.58,824.170,2105.840,134.683334,12.23,2.4563,363,23923,1.97240,3.96,43145,,,,,,,,,,,,,,,,,,99999,99999,99999,99999,99999,99999,99999,99999,99999,99999,99999,99999
26:07:49,1510850730,2017-11-16T16:45:35,0.806,1160.3,25.39,20.93,27.68,824.180,2106.070,134.166672,12.64,2.4558,363,23923,1.97854,3.96,43149,,,,,,,,,,,,,,,,,,99999,99999,99999,99999,99999,99999,99999,99999,99999,99999,99999,99999
26:08:19,1510850760,2017-11-16T16:46:05,0.805,1160.7,25.46,21.03,27.76,824.050,2106.360,134.899994,13.22,2.4554,363,23925,1.97578,3.97,43154,,,,,,,,,,,,,,,,,,99999,99999,99999,99999,99999,99999,99999,99999,99999,99999,99999,99999
26:08:49,1510850790,2017-11-16T16:46:35,0.806,1161.1,25.52,21.13,27.88,824.150,2106.560,136.199997,13.27,2.4552,363,23931,1.97792,3.96,43159,,,,,,,,,,,,,,,,,,99999,99999,99999,99999,99999,99999,99999,99999,99999,99999,99999,99999
26:09:19,1510850820,2017-11-16T16:47:05,0.806,1161.5,25.60,21.23,27.94,824.150,2106.850,136.383331,14.95,2.4546,363,23932,1.97946,3.97,43164,,,,,,,,,,,,,,,,,,99999,99999,99999,99999,99999,99999,99999,99999,99999,99999,99999,99999
26:09:49,1510850850,2017-11-16T16:47:35,0.808,1161.9,25.67,21.32,28.03,824.110,2107.140,137.733337,13.16,2.4546,363,23937,1.98315,3.97,43169,,,,,,,,,,,,,,,,,,99999,99999,99999,99999,99999,99999,99999,99999,99999,99999,99999,99999
26:10:19,1510850880,2017-11-16T16:48:05,0.807,1162.3,25.73,21.39,28.07,824.070,2107.310,137.216660,14.13,2.4542,363,23940,1.98130,3.97,43174,,,,,,,,,,,,,,,,,,99999,99999,99999,99999,99999,99999,99999,99999,99999,99999,99999,99999
26:10:49,1510850910,2017-11-16T16:48:35,0.807,1162.7,25.78,21.46,28.15,824.140,2107.500,138.649994,13.12,2.4541,363,23938,1.98038,3.97,43179,,,,,,,,,,,,,,,,,,99999,99999,99999,99999,99999,99999,99999,99999,99999,99999,99999,99999
26:11:19,1510850940,2017-11-16T16:49:05,0.805,1163.1,25.83,21.49,28.23,824.100,2107.660,136.466660,13.19,2.4539,363,23939,1.97608,3.97,43184,,,,,,,,,,,,,,,,,,99999,99999,99999,99999,99999,99999,99999,99999,99999,99999,99999,99999
26:11:49,1510850970,2017-11-16T16:49:35,0.804,1163.5,25.85,21.54,28.31,824.120,2107.730,136.783340,13.01,2.4538,363,23944,1.97332,3.97,43189,,,,,,,,,,,,,,,,,,99999,99999,99999,99999,99999,99999,99999,99999,99999,99999,99999,99999
26:12:19,1510851000,2017-11-16T16:50:05,0.806,1163.9,25.88,21.58,28.25,824.110,2107.850,135.500000,13.98,2.4536,363,23944,1.97823,3.97,43194,,,,,,,,,,,,,,,,,,99999,99999,99999,99999,99999,99999,99999,99999,99999,99999,99999,99999
26:12:49,1510851030,2017-11-16T16:50:35,0.807,1164.3,25.88,21.61,28.29,824.140,2107.850,134.000000,13.92,2.4536,363,23944,1.97915,3.97,43199,,,,,,,,,,,,,,,,,,99999,99999,99999,99999,99999,99999,99999,99999,99999,99999,99999,99999
26:13:19,1510851060,2017-11-16T16:51:05,0.806,1164.7,25.89,21.65,28.31,824.140,2107.850,134.250000,13.69,2.4535,363,23946,1.97792,3.97,43204,,,,,,,,,,,,,,,,,,99999,99999,99999,99999,99999,99999,99999,99999,99999,99999,99999,99999
26:13:49,1510851090,2017-11-16T16:51:35,0.807,1165.1,25.90,21.64,28.33,824.140,2107.910,135.533340,14.81,2.4534,363,23945,1.97915,3.96,43208,,,,,,,,,,,,,,,,,,99999,99999,99999,99999,99999,99999,99999,99999,99999,99999,99999,99999
26:14:19,1510851120,2017-11-16T16:52:05,0.808,1165.5,25.88,21.65,28.33,824.170,2107.850,136.050003,13.55,2.4536,363,23944,1.98192,3.95,43211,,,,,,,,,,,,,,,,,,99999,99999,99999,99999,99999,99999,99999,99999,99999,99999,99999,99999
26:14:49,1510851150,2017-11-16T16:52:35,0.810,1165.9,25.87,21.60,28.31,824.150,2107.790,135.016663,13.63,2.4536,363,23942,1.98684,3.96,43214,,,,,,,,,,,,,,,,,,99999,99999,99999,99999,99999,99999,99999,99999,99999,99999,99999,99999
26:15:19,1510851180,2017-11-16T16:53:05,0.807,1166.3,25.85,21.58,28.33,824.100,2107.730,135.183334,13.40,2.4538,363,23942,1.97915,3.96,43218,,,,,,,,,,,,,,,,,,99999,99999,99999,99999,99999,99999,99999,99999,99999,99999,99999,99999
26:15:49,1510851210,2017-11-16T16:53:35,0.807,1166.7,25.84,21.57,28.29,824.040,2107.730,136.666672,14.15,2.4537,363,23943,1.98007,3.96,43223,,,,,,,,,,,,,,,,,,99999,99999,99999,99999,99999,99999,99999,99999,99999,99999,99999,99999
26:16:19,1510851240,2017-11-16T16:54:05,0.807,1167.1,25.82,21.58,28.25,823.990,2107.660,135.966660,14.29,2.4538,363,23945,1.98100,3.96,43227,,,,,,,,,,,,,,,,,,99999,99999,99999,99999,99999,99999,99999,99999,99999,99999,99999,99999
26:16:49,1510851270,2017-11-16T16:54:35,0.810,1167.6,25.82,21.62,28.27,824.020,2107.660,136.399994,14.13,2.4538,363,23945,1.98653,3.97,43232,,,,,,,,,,,,,,,,,,99999,99999,99999,99999,99999,99999,99999,99999,99999,99999,99999,99999
26:17:19,1510851300,2017-11-16T16:55:05,0.810,1168.0,25.81,21.65,28.26,823.970,2107.620,136.816666,14.56,2.4538,363,23946,1.98715,3.96,43236,,,,,,,,,,,,,,,,,,99999,99999,99999,99999,99999,99999,99999,99999,99999,99999,99999,99999
26:17:49,1510851330,2017-11-16T16:55:35,0.807,1168.4,25.81,21.67,28.27,824.100,2107.620,134.433334,14.28,2.4538,363,23945,1.97915,3.96,43240,,,,,,,,,,,,,,,,,,99999,99999,99999,99999,99999,99999,99999,99999,99999,99999,99999,99999
26:18:19,1510851360,2017-11-16T16:56:05,0.809,1168.8,25.80,21.66,28.25,823.970,2107.620,136.033340,15.08,2.4538,363,23946,1.98592,3.95,43244,,,,,,,,,,,,,,,,,,99999,99999,99999,99999,99999,99999,99999,99999,99999,99999,99999,99999
26:18:49,1510851390,2017-11-16T16:56:35,0.809,1169.2,25.80,21.66,28.29,824.020,2107.620,136.449997,14.36,2.4539,363,23944,1.98592,3.96,43248,,,,,,,,,,,,,,,,,,99999,99999,99999,99999,99999,99999,99999,99999,99999,99999,99999,99999
26:19:19,1510851420,2017-11-16T16:57:05,0.809,1169.6,25.80,21.65,28.23,824.050,2107.620,136.816666,14.36,2.4539,363,23945,1.98561,3.95,43251,,,,,,,,,,,,,,,,,,99999,99999,99999,99999,99999,99999,99999,99999,99999,99999,99999,99999
26:19:49,1510851450,2017-11-16T16:57:35,0.806,1170.0,25.81,21.67,28.23,824.020,2107.620,135.966660,14.59,2.4538,363,23944,1.97761,3.95,43254,,,,,,,,,,,,,,,,,,99999,99999,99999,99999,99999,99999,99999,99999,99999,99999,99999,99999
26:20:19,1510851480,2017-11-16T16:58:05,0.808,1170.4,25.80,21.68,28.26,823.970,2107.620,136.616669,15.16,2.4538,363,23943,1.98376,3.94,43257,,,,,,,,,,,,,,,,,,99999,99999,99999,99999,99999,99999,99999,99999,99999,99999,99999,99999
26:20:49,1510851510,2017-11-16T16:58:35,0.807,1170.8,25.82,21.66,28.29,823.970,2107.660,136.833328,15.27,2.4537,363,23944,1.97977,3.94,43259,,,,,,,,,,,,,,,,,,99999,99999,99999,99999,99999,99999,99999,99999,99999,99999,99999,99999
26:21:19,1510851540,2017-11-16T16:59:05,0.805,1171.2,25.82,21.62,28.27,824.020,2107.660,135.466660,14.10,2.4538,363,23942,1.97516,3.93,43260,,,,,,,,,,,,,,,,,,99999,99999,99999,99999,99999,99999,99999,99999,99999,99999,99999,99999
26:21:49,1510851570,2017-11-16T16:59:35,0.808,1171.6,25.83,21.57,28.26,824.020,2107.660,138.750000,14.43,2.4537,363,23940,1.98284,3.93,43261,,,,,,,,,,,,,,,,,,99999,99999,99999,99999,99999,99999,99999,99999,99999,99999,99999,99999
26:22:19,1510851600,2017-11-16T17:00:05,0.807,1172.0,25.83,21.53,28.29,823.970,2107.660,135.433334,13.96,2.4538,363,23940,1.98069,3.93,43262,,,,,,,,,,,,,,,,,,99999,99999,99999,99999,99999,99999,99999,99999,99999,99999,99999,99999
26:22:49,1510851630,2017-11-16T17:00:35,0.807,1172.4,25.83,21.46,28.25,823.990,2107.660,135.783340,13.47,2.4538,363,23936,1.98130,3.93,43262,,,,,,,,,,,,,,,,,,99999,99999,99999,99999,99999,99999,99999,99999,99999,99999,99999,99999
26:23:19,1510851660,2017-11-16T17:01:05,0.804,1172.8,25.80,21.42,28.26,823.940,2107.620,134.733337,13.68,2.4540,363,23933,1.97332,3.93,43263,,,,,,,,,,,,,,,,,,99999,99999,99999,99999,99999,99999,99999,99999,99999,99999,99999,99999
26:23:49,1510851690,2017-11-16T17:01:35,0.808,1173.2,25.80,21.39,28.21,823.970,2107.620,137.083328,14.56,2.4539,363,23932,1.98315,3.93,43264,,,,,,,,,,,,,,,,,,99999,99999,99999,99999,99999,99999,99999,99999,99999,99999,99999,99999
26:24:19,1510851720,2017-11-16T17:02:05,0.808,1173.6,25.77,21.36,28.18,823.920,2107.430,136.100006,13.98,2.4540,363,23932,1.98315,3.93,43265,,,,,,,,,,,,,,,,,,99999,99999,99999,99999,99999,99999,99999,99999,99999,99999,99999,99999
26:24:49,1510851750,2017-11-16T17:02:35,0.808,1174.0,25.74,21.34,28.13,823.900,2107.330,136.383331,14.17,2.4541,363,23933,1.98192,3.93,43266,,,,,,,,,,,,,,,,,,99999,99999,99999,99999,99999,99999,99999,99999,99999,99999,99999,99999
26:25:19,1510851780,2017-11-16T17:03:05,0.806,1174.4,25.72,21.31,28.15,823.940,2107.260,135.283340,13.79,2.4542,363,23931,1.97915,3.93,43267,,,,,,,,,,,,,,,,,,99999,99999,99999,99999,99999,99999,99999,99999,99999,99999,99999,99999
26:25:49,1510851810,2017-11-16T17:03:35,0.806,1174.8,25.67,21.26,28.08,823.950,2107.140,136.850006,14.22,2.4545,363,23928,1.97761,3.94,43268,,,,,,,,,,,,,,,,,,99999,99999,99999,99999,99999,99999,99999,99999,99999,99999,99999,99999
26:26:19,1510851840,2017-11-16T17:04:05,0.804,1175.2,25.62,21.24,28.02,823.930,2106.910,135.866669,14.58,2.4546,363,23932,1.97332,3.94,43269,,,,,,,,,,,,,,,,,,99999,99999,99999,99999,99999,99999,99999,99999,99999,99999,99999,99999
26:26:49,1510851870,2017-11-16T17:04:35,0.802,1175.6,25.57,21.19,27.95,823.920,2106.780,134.000000,13.67,2.4550,363,23929,1.96964,3.93,43271,,,,,,,,,,,,,,,,,,99999,99999,99999,99999,99999,99999,99999,99999,99999,99999,99999,99999
26:27:19,1510851900,2017-11-16T17:05:05,0.803,1176.0,25.52,21.17,27.88,823.930,2106.560,135.233337,14.43,2.4550,363,23928,1.97178,3.93,43272,,,,,,,,,,,,,,,,,,99999,99999,99999,99999,99999,99999,99999,99999,99999,99999,99999,99999
26:27:49,1510851930,2017-11-16T17:05:35,0.803,1176.4,25.45,21.14,27.85,823.940,2106.310,134.199997,13.37,2.4555,363,23928,1.97117,3.94,43273,,,,,,,,,,,,,,,,,,99999,99999,99999,99999,99999,99999,99999,99999,99999,99999,99999,99999
26:28:19,1510851960,2017-11-16T17:06:05,0.807,1176.8,25.41,21.10,27.75,823.850,2106.200,136.649994,14.46,2.4555,363,23925,1.98130,3.94,43275,,,,,,,,,,,,,,,,,,99999,99999,99999,99999,99999,99999,99999,99999,99999,99999,99999,99999
26:28:49,1510851990,2017-11-16T17:06:35,0.807,1177.2,25.36,21.09,27.73,823.940,2106.010,136.616669,13.63,2.4558,363,23925,1.98192,3.94,43276,,,,,,,,,,,,,,,,,,99999,99999,99999,99999,99999,99999,99999,99999,99999,99999,99999,99999
26:29:19,1510852020,2017-11-16T17:07:05,0.802,1177.6,25.29,21.06,27.65,823.880,2105.780,135.716660,13.39,2.4562,363,23925,1.96903,3.94,43278,,,,,,,,,,,,,,,,,,99999,99999,99999,99999,99999,99999,99999,99999,99999,99999,99999,99999
26:29:49,1510852050,2017-11-16T17:07:35,0.806,1178.0,25.24,21.04,27.60,823.860,2105.590,134.383331,13.80,2.4563,363,23926,1.97946,3.94,43281,,,,,,,,,,,,,,,,,,99999,99999,99999,99999,99999,99999,99999,99999,99999,99999,99999,99999
26:30:19,1510852080,2017-11-16T17:08:05,0.806,1178.4,25.19,21.04,27.53,824.030,2105.420,136.600006,13.38,2.4566,363,23925,1.97946,3.95,43283,,,,,,,,,,,,,,,,,,99999,99999,99999,99999,99999,99999,99999,99999,99999,99999,99999,99999
26:30:49,1510852110,2017-11-16T17:08:35,0.802,1178.8,25.14,21.05,27.50,823.920,2105.240,133.116669,14.88,2.4566,363,23927,1.97117,3.95,43286,,,,,,,,,,,,,,,,,,99999,99999,99999,99999,99999,99999,99999,99999,99999,99999,99999,99999
26:31:19,1510852140,2017-11-16T17:09:05,0.804,1179.2,25.12,21.10,27.47,823.890,2105.130,135.583328,14.05,2.4567,363,23928,1.97424,3.94,43288,,,,,,,,,,,,,,,,,,99999,99999,99999,99999,99999,99999,99999,99999,99999,99999,99999,99999
26:31:49,1510852170,2017-11-16T17:09:35,0.803,1179.6,25.09,21.10,27.45,823.900,2105.070,134.850006,14.58,2.4568,363,23927,1.97362,3.94,43290,,,,,,,,,,,,,,,,,,99999,99999,99999,99999,99999,99999,99999,99999,99999,99999,99999,99999
26:32:19,1510852200,2017-11-16T17:10:05,0.805,1180.0,25.07,21.09,27.44,823.900,2105.010,135.416672,13.25,2.4571,363,23927,1.97823,3.94,43292,,,,,,,,,,,,,,,,,,99999,99999,99999,99999,99999,99999,99999,99999,99999,99999,99999,99999
26:32:49,1510852230,2017-11-16T17:10:35,0.805,1180.4,25.04,21.13,27.41,823.880,2104.880,135.316666,14.71,2.4570,363,23929,1.97700,3.95,43295,,,,,,,,,,,,,,,,,,99999,99999,99999,99999,99999,99999,99999,99999,99999,99999,99999,99999
26:33:19,1510852260,2017-11-16T17:11:05,0.804,1180.8,25.02,21.12,27.38,823.940,2104.840,134.616669,13.96,2.4572,363,23928,1.97516,3.95,43297,,,,,,,,,,,,,,,,,,99999,99999,99999,99999,99999,99999,99999,99999,99999,99999,99999,99999
26:33:49,1510852290,2017-11-16T17:11:35,0.805,1181.2,24.99,21.14,27.38,823.920,2104.720,135.033340,13.83,2.4574,363,23929,1.97731,3.95,43300,,,,,,,,,,,,,,,,,,99999,99999,99999,99999,99999,99999,99999,99999,99999,99999,99999,99999
26:34:19,1510852320,2017-11-16T17:12:05,0.804,1181.6,24.99,21.16,27.35,823.970,2104.720,135.899994,13.83,2.4574,363,23931,1.97669,3.95,43303,,,,,,,,,,,,,,,,,,99999,99999,99999,99999,99999,99999,99999,99999,99999,99999,99999,99999
26:34:49,1510852350,2017-11-16T17:12:35,0.803,1182.0,24.98,21.20,27.35,823.900,2104.650,134.433334,13.82,2.4574,363,23931,1.97393,3.95,43306,,,,,,,,,,,,,,,,,,99999,99999,99999,99999,99999,99999,99999,99999,99999,99999,99999,99999
26:35:19,1510852380,2017-11-16T17:13:05,0.804,1182.4,24.98,21.25,27.31,823.870,2104.650,136.300003,13.70,2.4574,363,23931,1.97516,3.95,43308,,,,,,,,,,,,,,,,,,99999,99999,99999,99999,99999,99999,99999,99999,99999,99999,99999,99999
26:35:49,1510852410,2017-11-16T17:13:35,0.803,1182.9,25.01,21.29,27.35,823.910,2104.840,134.199997,14.62,2.4572,363,23933,1.97424,3.95,43311,,,,,,,,,,,,,,,,,,99999,99999,99999,99999,99999,99999,99999,99999,99999,99999,99999,99999
26:36:19,1510852440,2017-11-16T17:14:05,0.803,1183.3,25.02,21.29,27.35,823.880,2104.840,135.333328,15.01,2.4571,363,23936,1.97240,3.95,43314,,,,,,,,,,,,,,,,,,99999,99999,99999,99999,99999,99999,99999,99999,99999,99999,99999,99999
26:36:49,1510852470,2017-11-16T17:14:35,0.806,1183.7,25.04,21.30,27.35,823.850,2104.880,134.716660,14.00,2.4571,363,23933,1.97977,3.95,43317,,,,,,,,,,,,,,,,,,99999,99999,99999,99999,99999,99999,99999,99999,99999,99999,99999,99999
26:37:19,1510852500,2017-11-16T17:15:05,0.802,1184.1,25.05,21.31,27.39,823.880,2104.940,133.666672,15.17,2.4569,363,23935,1.96964,3.95,43319,,,,,,,,,,,,,,,,,,99999,99999,99999,99999,99999,99999,99999,99999,99999,99999,99999,99999
26:37:49,1510852530,2017-11-16T17:15:35,0.801,1184.5,25.06,21.33,27.39,823.900,2104.940,134.500000,14.92,2.4569,363,23934,1.96903,3.95,43322,,,,,,,,,,,,,,,,,,99999,99999,99999,99999,99999,99999,99999,99999,99999,99999,99999,99999
26:38:19,1510852560,2017-11-16T17:16:05,0.806,1184.9,25.09,21.33,27.39,823.870,2105.070,136.050003,14.29,2.4569,363,23933,1.98069,3.95,43325,,,,,,,,,,,,,,,,,,99999,99999,99999,99999,99999,99999,99999,99999,99999,99999,99999,99999
26:38:49,1510852590,2017-11-16T17:16:35,0.804,1185.3,25.09,21.34,27.44,823.870,2105.070,134.899994,14.52,2.4568,363,23933,1.97547,3.95,43327,,,,,,,,,,,,,,,,,,99999,99999,99999,99999,99999,99999,99999,99999,99999,99999,99999,99999
26:39:19,1510852620,2017-11-16T17:17:05,0.804,1185.7,25.14,21.34,27.49,823.920,2105.240,136.383331,13.85,2.4567,363,23935,1.97638,3.95,43330,,,,,,,,,,,,,,,,,,99999,99999,99999,99999,99999,99999,99999,99999,99999,99999,99999,99999
26:39:49,1510852650,2017-11-16T17:17:35,0.802,1186.1,25.15,21.38,27.47,823.930,2105.300,134.266663,15.04,2.4565,363,23935,1.97117,3.95,43332,,,,,,,,,,,,,,,,,,99999,99999,99999,99999,99999,99999,99999,99999,99999,99999,99999,99999
26:40:19,1510852680,2017-11-16T17:18:05,0.807,1186.5,25.17,21.38,27.55,823.900,2105.360,135.983337,14.76,2.4565,363,23935,1.98284,3.95,43335,,,,,,,,,,,,,,,,,,99999,99999,99999,99999,99999,99999,99999,99999,99999,99999,99999,99999
26:40:49,1510852710,2017-11-16T17:18:35,0.805,1186.9,25.21,21.42,27.57,823.980,2105.490,134.666672,15.37,2.4562,363,23937,1.97731,3.95,43337,,,,,,,,,,,,,,,,,,99999,99999,99999,99999,99999,99999,99999,99999,99999,99999,99999,99999
26:41:19,1510852740,2017-11-16T17:19:05,0.805,1187.3,25.23,21.45,27.57,824.030,2105.550,137.116669,14.51,2.4562,363,23936,1.97823,3.94,43339,,,,,,,,,,,,,,,,,,99999,99999,99999,99999,99999,99999,99999,99999,99999,99999,99999,99999
26:41:49,1510852770,2017-11-16T17:19:35,0.803,1187.7,25.27,21.47,27.61,823.960,2105.720,136.350006,14.70,2.4561,363,23937,1.97240,3.94,43342,,,,,,,,,,,,,,,,,,99999,99999,99999,99999,99999,99999,99999,99999,99999,99999,99999,99999
26:42:19,1510852800,2017-11-16T17:20:05,0.806,1188.1,25.30,21.49,27.61,823.920,2105.840,136.033340,14.27,2.4560,363,23936,1.97854,3.95,43344,,,,,,,,,,,,,,,,,,99999,99999,99999,99999,99999,99999,99999,99999,99999,99999,99999,99999
26:42:49,1510852830,2017-11-16T17:20:35,0.803,1188.5,25.31,21.53,27.65,823.950,2105.840,134.000000,14.08,2.4560,363,23941,1.97301,3.95,43346,,,,,,,,,,,,,,,,,,99999,99999,99999,99999,99999,99999,99999,99999,99999,99999,99999,99999
26:43:19,1510852860,2017-11-16T17:21:05,0.808,1188.9,25.33,21.51,27.68,823.870,2105.910,135.633331,14.17,2.4559,363,23940,1.98345,3.95,43349,,,,,,,,,,,,,,,,,,99999,99999,99999,99999,99999,99999,99999,99999,99999,99999,99999,99999
26:43:49,1510852890,2017-11-16T17:21:35,0.804,1189.3,25.35,21.53,27.67,823.920,2105.950,135.816666,15.07,2.4556,363,23940,1.97516,3.95,43351,,,,,,,,,,,,,,,,,,99999,99999,99999,99999,99999,99999,99999,99999,99999,99999,99999,99999
26:44:19,1510852920,2017-11-16T17:22:05,0.807,1189.7,25.37,21.57,27.71,823.940,2106.010,136.416672,14.34,2.4556,363,23940,1.98100,3.94,43354,,,,,,,,,,,,,,,,,,99999,99999,99999,99999,99999,99999,99999,99999,99999,99999,99999,99999
26:44:49,1510852950,2017-11-16T17:22:35,0.804,1190.1,25.38,21.59,27.71,823.880,2106.070,134.883331,14.17,2.4556,363,23941,1.97332,3.94,43356,,,,,,,,,,,,,,,,,,99999,99999,99999,99999,99999,99999,99999,99999,99999,99999,99999,99999
26:45:19,1510852980,2017-11-16T17:23:05,0.806,1190.5,25.39,21.57,27.75,823.880,2106.070,136.033340,14.61,2.4555,363,23942,1.98007,3.94,43358,,,,,,,,,,,,,,,,,,99999,99999,99999,99999,99999,99999,99999,99999,99999,99999,99999,99999
26:45:49,1510853010,2017-11-16T17:23:35,0.808,1190.9,25.42,21.60,27.76,823.980,2106.240,136.300003,13.55,2.4556,363,23944,1.98438,3.95,43360,,,,,,,,,,,,,,,,,,99999,99999,99999,99999,99999,99999,99999,99999,99999,99999,99999,99999
26:46:19,1510853040,2017-11-16T17:24:05,0.807,1191.3,25.43,21.62,27.76,823.950,2106.260,137.233337,14.45,2.4554,363,23941,1.98223,3.95,43362,,,,,,,,,,,,,,,,,,99999,99999,99999,99999,99999,99999,99999,99999,99999,99999,99999,99999
26:46:49,1510853070,2017-11-16T17:24:35,0.807,1191.7,25.45,21.65,27.80,823.920,2106.310,135.500000,15.09,2.4552,363,23942,1.98038,3.94,43365,,,,,,,,,,,,,,,,,,99999,99999,99999,99999,99999,99999,99999,99999,99999,99999,99999,99999
26:47:19,1510853100,2017-11-16T17:25:05,0.808,1192.1,25.47,21.69,27.80,823.910,2106.430,136.800003,15.26,2.4552,363,23946,1.98438,3.94,43367,,,,,,,,,,,,,,,,,,99999,99999,99999,99999,99999,99999,99999,99999,99999,99999,99999,99999
26:47:49,1510853130,2017-11-16T17:25:35,0.806,1192.5,25.50,21.71,27.83,823.910,2106.490,135.416672,13.69,2.4552,363,23945,1.97884,3.94,43369,,,,,,,,,,,,,,,,,,99999,99999,99999,99999,99999,99999,99999,99999,99999,99999,99999,99999
26:48:19,1510853160,2017-11-16T17:26:05,0.808,1192.9,25.53,21.72,27.85,823.930,2106.660,136.699997,13.66,2.4552,363,23945,1.98469,3.94,43370,,,,,,,,,,,,,,,,,,99999,99999,99999,99999,99999,99999,99999,99999,99999,99999,99999,99999
26:48:49,1510853190,2017-11-16T17:26:35,0.806,1193.3,25.57,21.75,27.85,823.970,2106.780,135.149994,13.88,2.4549,363,23947,1.97977,3.94,43372,,,,,,,,,,,,,,,,,,99999,99999,99999,99999,99999,99999,99999,99999,99999,99999,99999,99999
26:49:19,1510853220,2017-11-16T17:27:05,0.809,1193.7,25.60,21.76,27.94,824.020,2106.850,137.149994,14.88,2.4546,363,23950,1.98561,3.94,43374,,,,,,,,,,,,,,,,,,99999,99999,99999,99999,99999,99999,99999,99999,99999,99999,99999,99999
26:49:49,1510853250,2017-11-16T17:27:35,0.805,1194.1,25.64,21.77,27.95,823.980,2106.970,135.050003,13.51,2.4546,363,23945,1.97578,3.93,43375,,,,,,,,,,,,,,,,,,99999,99999,99999,99999,99999,99999,99999,99999,99999,99999,99999,99999
26:50:19,1510853280,2017-11-16T17:28:05,0.805,1194.5,25.69,21.80,27.97,824.050,2107.200,135.250000,13.81,2.4544,363,23945,1.97638,3.94,43376,,,,,,,,,,,,,,,,,,99999,99999,99999,99999,99999,99999,99999,99999,99999,99999,99999,99999
26:50:49,1510853310,2017-11-16T17:28:35,0.808,1194.9,25.73,21.79,28.07,824.040,2107.310,137.016663,14.19,2.4542,363,23947,1.98407,3.94,43378,,,,,,,,,,,,,,,,,,99999,99999,99999,99999,99999,99999,99999,99999,99999,99999,99999,99999
26:51:19,1510853340,2017-11-16T17:29:05,0.807,1195.3,25.77,21.82,28.11,824.060,2107.430,136.433334,14.49,2.4539,363,23947,1.98007,3.93,43379,,,,,,,,,,,,,,,,,,99999,99999,99999,99999,99999,99999,99999,99999,99999,99999,99999,99999
26:51:49,1510853370,2017-11-16T17:29:35,0.810,1195.7,25.81,21.82,28.10,824.160,2107.620,136.149994,13.30,2.4540,363,23948,1.98838,3.93,43380,,,,,,,,,,,,,,,,,,99999,99999,99999,99999,99999,99999,99999,99999,99999,99999,99999,99999
26:52:19,1510853400,2017-11-16T17:30:05,0.805,1196.1,25.86,21.82,28.11,824.070,2107.790,135.100006,13.39,2.4538,363,23945,1.97638,3.93,43380,,,,,,,,,,,,,,,,,,99999,99999,99999,99999,99999,99999,99999,99999,99999,99999,99999,99999
26:52:49,1510853430,2017-11-16T17:30:35,0.806,1196.5,25.89,21.80,28.17,824.080,2107.850,134.883331,14.96,2.4533,363,23944,1.97854,3.93,43381,,,,,,,,,,,,,,,,,,99999,99999,99999,99999,99999,99999,99999,99999,99999,99999,99999,99999
26:53:19,1510853460,2017-11-16T17:31:05,0.811,1196.9,25.93,21.82,28.23,824.160,2107.980,137.116669,14.45,2.4532,363,23946,1.98992,3.93,43382,,,,,,,,,,,,,,,,,,99999,99999,99999,99999,99999,99999,99999,99999,99999,99999,99999,99999
26:53:49,1510853490,2017-11-16T17:31:35,0.806,1197.4,25.95,21.78,28.19,824.100,2108.080,134.366669,13.07,2.4534,363,23945,1.97792,3.93,43382,,,,,,,,,,,,,,,,,,99999,99999,99999,99999,99999,99999,99999,99999,99999,99999,99999,99999
26:54:19,1510853520,2017-11-16T17:32:05,0.810,1197.8,25.96,21.78,28.25,824.100,2108.140,137.533340,12.75,2.4534,363,23943,1.98715,3.92,43382,,,,,,,,,,,,,,,,,,99999,99999,99999,99999,99999,99999,99999,99999,99999,99999,99999,99999
26:54:49,1510853550,2017-11-16T17:32:35,0.809,1198.2,25.97,21.76,28.25,824.090,2108.140,135.300003,13.98,2.4532,363,23941,1.98376,3.93,43382,,,,,,,,,,,,,,,,,,99999,99999,99999,99999,99999,99999,99999,99999,99999,99999,99999,99999
26:55:19,1510853580,2017-11-16T17:33:05,0.810,1198.6,25.96,21.76,28.26,824.010,2108.140,136.566666,14.12,2.4532,363,23943,1.98684,3.93,43382,,,,,,,,,,,,,,,,,,99999,99999,99999,99999,99999,99999,99999,99999,99999,99999,99999,99999
26:55:49,1510853610,2017-11-16T17:33:35,0.806,1199.0,25.96,21.73,28.25,824.150,2108.140,136.433334,13.99,2.4532,363,23942,1.97731,3.93,43382,,,,,,,,,,,,,,,,,,99999,99999,99999,99999,99999,99999,99999,99999,99999,99999,99999,99999
26:56:19,1510853640,2017-11-16T17:34:05,0.810,1199.4,25.95,21.70,28.25,823.990,2108.080,137.699997,12.97,2.4534,363,23942,1.98653,3.93,43381,,,,,,,,,,,,,,,,,,99999,99999,99999,99999,99999,99999,99999,99999,99999,99999,99999,99999
26:56:49,1510853670,2017-11-16T17:34:35,0.810,1199.8,25.94,21.68,28.25,823.990,2108.080,137.516663,12.96,2.4535,363,23939,1.98653,3.92,43381,,,,,,,,,,,,,,,,,,99999,99999,99999,99999,99999,99999,99999,99999,99999,99999,99999,99999
26:57:19,1510853700,2017-11-16T17:35:05,0.810,1200.2,25.92,21.66,28.19,824.080,2107.980,135.649994,13.29,2.4535,363,23940,1.98715,3.92,43381,,,,,,,,,,,,,,,,,,99999,99999,99999,99999,99999,99999,99999,99999,99999,99999,99999,99999
26:57:49,1510853730,2017-11-16T17:35:35,0.808,1200.6,25.89,21.62,28.17,824.060,2107.850,136.883331,13.07,2.4536,363,23939,1.98253,3.92,43381,,,,,,,,,,,,,,,,,,99999,99999,99999,99999,99999,99999,99999,99999,99999,99999,99999,99999
26:58:19,1510853760,2017-11-16T17:36:05,0.806,1201.0,25.87,21.59,28.13,824.010,2107.790,135.583328,13.08,2.4537,363,23938,1.97700,3.92,43381,,,,,,,,,,,,,,,,,,99999,99999,99999,99999,99999,99999,99999,99999,99999,99999,99999,99999
26:58:49,1510853790,2017-11-16T17:36:35,0.804,1201.4,25.84,21.57,28.07,824.040,2107.730,136.283340,12.53,2.4540,363,23936,1.97301,3.92,43380,,,,,,,,,,,,,,,,,,99999,99999,99999,99999,99999,99999,99999,99999,99999,99999,99999,99999
26:59:19,1510853820,2017-11-16T17:37:05,0.809,1201.8,25.81,21.54,28.11,824.020,2107.620,136.733337,13.23,2.4540,363,23937,1.98469,3.92,43380,,,,,,,,,,,,,,,,,,99999,99999,99999,99999,99999,99999,99999,99999,99999,99999,99999,99999
26:59:49,1510853850,2017-11-16T17:37:35,0.809,1202.2,25.79,21.51,28.05,824.030,2107.500,136.416672,12.62,2.4541,363,23933,1.98530,3.92,43380,,,,,,,,,,,,,,,,,,99999,99999,99999,99999,99999,99999,99999,99999,99999,99999,99999,99999
27:00:19,1510853880,2017-11-16T17:38:05,0.808,1202.6,25.77,21.50,28.03,824.030,2107.430,136.083328,12.68,2.4542,363,23937,1.98315,3.92,43380,,,,,,,,,,,,,,,,,,99999,99999,99999,99999,99999,99999,99999,99999,99999,99999,99999,99999
27:00:49,1510853910,2017-11-16T17:38:35,0.805,1203.0,25.77,21.53,27.97,824.090,2107.430,135.366669,12.46,2.4542,363,23936,1.97485,3.93,43380,,,,,,,,,,,,,,,,,,99999,99999,99999,99999,99999,99999,99999,99999,99999,99999,99999,99999
27:01:19,1510853940,2017-11-16T17:39:05,0.809,1203.4,25.77,21.53,27.99,824.060,2107.430,136.800003,13.24,2.4541,363,23935,1.98438,3.92,43379,,,,,,,,,,,,,,,,,,99999,99999,99999,99999,99999,99999,99999,99999,99999,99999,99999,99999
27:01:49,1510853970,2017-11-16T17:39:35,0.806,1203.8,25.76,21.55,27.97,823.980,2107.370,136.199997,13.18,2.4541,363,23938,1.97700,3.93,43379,,,,,,,,,,,,,,,,,,99999,99999,99999,99999,99999,99999,99999,99999,99999,99999,99999,99999
27:02:19,1510854000,2017-11-16T17:40:05,0.811,1204.2,25.76,21.59,27.92,823.950,2107.370,135.133331,13.15,2.4541,363,23939,1.99023,3.92,43379,,,,,,,,,,,,,,,,,,99999,99999,99999,99999,99999,99999,99999,99999,99999,99999,99999,99999
27:02:49,1510854030,2017-11-16T17:40:35,0.806,1204.6,25.77,21.62,27.94,824.030,2107.430,136.699997,13.32,2.4541,363,23938,1.97792,3.93,43379,,,,,,,,,,,,,,,,,,99999,99999,99999,99999,99999,99999,99999,99999,99999,99999,99999,99999
27:03:19,1510854060,2017-11-16T17:41:05,0.806,1205.0,25.78,21.64,27.94,823.970,2107.500,135.800003,13.13,2.4541,363,23937,1.97823,3.92,43379,,,,,,,,,,,,,,,,,,99999,99999,99999,99999,99999,99999,99999,99999,99999,99999,99999,99999
27:03:49,1510854090,2017-11-16T17:41:35,0.809,1205.4,25.78,21.68,27.97,824.000,2107.500,136.066666,12.82,2.4542,363,23941,1.98469,3.92,43379,,,,,,,,,,,,,,,,,,99999,99999,99999,99999,99999,99999,99999,99999,99999,99999,99999,99999
27:04:19,1510854120,2017-11-16T17:42:05,0.809,1205.8,25.79,21.69,27.94,823.950,2107.500,135.649994,13.17,2.4540,363,23942,1.98592,3.93,43379,,,,,,,,,,,,,,,,,,99999,99999,99999,99999,99999,99999,99999,99999,99999,99999,99999,99999
27:04:49,1510854150,2017-11-16T17:42:35,0.809,1206.2,25.81,21.73,27.97,823.970,2107.620,138.083328,13.15,2.4540,363,23942,1.98469,3.93,43379,,,,,,,,,,,,,,,,,,99999,99999,99999,99999,99999,99999,99999,99999,99999,99999,99999,99999
27:05:19,1510854180,2017-11-16T17:43:05,0.807,1206.6,25.82,21.73,27.99,823.990,2107.660,136.333328,13.91,2.4539,363,23943,1.98007,3.93,43379,,,,,,,,,,,,,,,,,,99999,99999,99999,99999,99999,99999,99999,99999,99999,99999,99999,99999
27:05:49,1510854210,2017-11-16T17:43:35,0.807,1207.0,25.84,21.76,27.97,823.930,2107.730,135.699997,13.64,2.4538,363,23942,1.98007,3.93,43380,,,,,,,,,,,,,,,,,,99999,99999,99999,99999,99999,99999,99999,99999,99999,99999,99999,99999
27:06:19,1510854240,2017-11-16T17:44:05,0.809,1207.4,25.85,21.77,28.02,823.910,2107.730,136.949997,13.38,2.4538,363,23943,1.98530,3.93,43380,,,,,,,,,,,,,,,,,,99999,99999,99999,99999,99999,99999,99999,99999,99999,99999,99999,99999
27:06:49,1510854270,2017-11-16T17:44:35,0.806,1207.8,25.87,21.77,28.02,823.820,2107.790,134.716660,12.82,2.4538,363,23946,1.97700,3.93,43381,,,,,,,,,,,,,,,,,,99999,99999,99999,99999,99999,99999,99999,99999,99999,99999,99999,99999
27:07:19,1510854300,2017-11-16T17:45:05,0.808,1208.2,25.88,21.77,28.02,823.810,2107.850,135.516663,12.83,2.4537,363,23945,1.98161,3.93,43381,,,,,,,,,,,,,,,,,,99999,99999,99999,99999,99999,99999,99999,99999,99999,99999,99999,99999
27:07:49,1510854330,2017-11-16T17:45:35,0.809,1208.6,25.89,21.78,28.03,823.730,2107.850,135.966660,13.87,2.4535,363,23944,1.98469,3.93,43382,,,,,,,,,,,,,,,,,,99999,99999,99999,99999,99999,99999,99999,99999,99999,99999,99999,99999
27:08:19,1510854360,2017-11-16T17:46:05,0.807,1209.0,25.92,21.78,28.05,823.810,2107.980,135.816666,13.44,2.4535,363,23945,1.98038,3.93,43382,,,,,,,,,,,,,,,,,,99999,99999,99999,99999,99999,99999,99999,99999,99999,99999,99999,99999
27:08:49,1510854390,2017-11-16T17:46:35,0.806,1209.4,25.91,21.78,28.10,823.780,2107.910,134.533340,14.30,2.4533,363,23944,1.97792,3.93,43383,,,,,,,,,,,,,,,,,,99999,99999,99999,99999,99999,99999,99999,99999,99999,99999,99999,99999
27:09:19,1510854420,2017-11-16T17:47:05,0.806,1209.9,25.94,21.78,28.08,823.830,2108.080,136.000000,13.57,2.4534,363,23949,1.97700,3.93,43384,,,,,,,,,,,,,,,,,,99999,99999,99999,99999,99999,99999,99999,99999,99999,99999,99999,99999
27:09:49,1510854450,2017-11-16T17:47:35,0.808,1210.3,25.95,21.78,28.07,823.880,2108.080,137.800003,13.93,2.4533,363,23945,1.98223,3.93,43384,,,,,,,,,,,,,,,,,,99999,99999,99999,99999,99999,99999,99999,99999,99999,99999,99999,99999
27:10:19,1510854480,2017-11-16T17:48:05,0.805,1210.7,25.96,21.78,28.11,823.800,2108.140,135.633331,12.74,2.4534,363,23947,1.97547,3.93,43385,,,,,,,,,,,,,,,,,,99999,99999,99999,99999,99999,99999,99999,99999,99999,99999,99999,99999
27:10:49,1510854510,2017-11-16T17:48:35,0.805,1211.1,25.97,21.82,28.11,823.820,2108.140,134.916672,12.89,2.4533,363,23947,1.97608,3.93,43385,,,,,,,,,,,,,,,,,,99999,99999,99999,99999,99999,99999,99999,99999,99999,99999,99999,99999
27:11:19,1510854540,2017-11-16T17:49:05,0.809,1211.5,26.00,21.83,28.13,823.900,2108.270,137.133331,12.85,2.4532,363,23948,1.98500,3.93,43386,,,,,,,,,,,,,,,,,,99999,99999,99999,99999,99999,99999,99999,99999,99999,99999,99999,99999
27:11:49,1510854570,2017-11-16T17:49:35,0.808,1211.9,26.03,21.87,28.13,823.830,2108.330,135.566666,13.64,2.4529,363,23950,1.98161,3.93,43386,,,,,,,,,,,,,,,,,,99999,99999,99999,99999,99999,99999,99999,99999,99999,99999,99999,99999
27:12:19,1510854600,2017-11-16T17:50:05,0.808,1212.3,26.08,21.90,28.17,823.930,2108.560,135.783340,14.02,2.4527,363,23951,1.98192,3.93,43387,,,,,,,,,,,,,,,,,,99999,99999,99999,99999,99999,99999,99999,99999,99999,99999,99999,99999
27:12:49,1510854630,2017-11-16T17:50:35,0.811,1212.7,26.11,21.94,28.23,823.950,2108.680,137.416672,12.88,2.4528,363,23951,1.98992,3.93,43387,,,,,,,,,,,,,,,,,,99999,99999,99999,99999,99999,99999,99999,99999,99999,99999,99999,99999
27:13:19,1510854660,2017-11-16T17:51:05,0.808,1213.1,26.15,22.02,28.27,823.860,2108.790,138.416672,12.89,2.4526,363,23951,1.98130,3.93,43388,,,,,,,,,,,,,,,,,,99999,99999,99999,99999,99999,99999,99999,99999,99999,99999,99999,99999
27:13:49,1510854690,2017-11-16T17:51:35,0.811,1213.5,26.19,22.08,28.31,823.880,2108.920,137.850006,12.47,2.4525,363,23955,1.98838,3.93,43388,,,,,,,,,,,,,,,,,,99999,99999,99999,99999,99999,99999,99999,99999,99999,99999,99999,99999
27:14:19,1510854720,2017-11-16T17:52:05,0.808,1213.9,26.24,22.14,28.39,823.840,2109.100,137.283340,12.18,2.4523,363,23953,1.98038,3.93,43389,,,,,,,,,,,,,,,,,,99999,99999,99999,99999,99999,99999,99999,99999,99999,99999,99999,99999
27:14:49,1510854750,2017-11-16T17:52:35,0.809,1214.3,26.31,22.21,28.41,823.830,2109.330,135.266663,12.51,2.4519,363,23959,1.98253,3.93,43389,,,,,,,,,,,,,,,,,,99999,99999,99999,99999,99999,99999,99999,99999,99999,99999,99999,99999
27:15:19,1510854780,2017-11-16T17:53:05,0.808,1214.7,26.37,22.26,28.49,823.840,2109.570,137.533340,12.54,2.4517,363,23957,1.98038,3.93,43390,,,,,,,,,,,,,,,,,,99999,99999,99999,99999,99999,99999,99999,99999,99999,99999,99999,99999
27:15:49,1510854810,2017-11-16T17:53:35,0.808,1215.1,26.44,22.32,28.53,823.770,2109.820,137.516663,13.82,2.4512,363,23962,1.98069,3.93,43390,,,,,,,,,,,,,,,,,,99999,99999,99999,99999,99999,99999,99999,99999,99999,99999,99999,99999
27:16:19,1510854840,2017-11-16T17:54:05,0.813,1215.5,26.50,22.37,28.65,823.780,2110.040,138.883331,12.50,2.4512,363,23965,1.99177,3.93,43390,,,,,,,,,,,,,,,,,,99999,99999,99999,99999,99999,99999,99999,99999,99999,99999,99999,99999
27:16:49,1510854870,2017-11-16T17:54:35,0.809,1215.9,26.55,22.40,28.71,823.630,2110.170,136.883331,12.27,2.4510,363,23964,1.98315,3.93,43390,,,,,,,,,,,,,,,,,,99999,99999,99999,99999,99999,99999,99999,99999,99999,99999,99999,99999
27:17:19,1510854900,2017-11-16T17:55:05,0.812,1216.3,26.60,22.43,28.73,823.680,2110.340,138.100006,12.14,2.4508,363,23964,1.98992,3.93,43390,,,,,,,,,,,,,,,,,,99999,99999,99999,99999,99999,99999,99999,99999,99999,99999,99999,99999
27:17:49,1510854930,2017-11-16T17:55:35,0.809,1216.7,26.66,22.46,28.81,823.640,2110.570,136.933334,12.05,2.4506,363,23965,1.98345,3.93,43390,,,,,,,,,,,,,,,,,,99999,99999,99999,99999,99999,99999,99999,99999,99999,99999,99999,99999
27:18:19,1510854960,2017-11-16T17:56:05,0.810,1217.1,26.70,22.47,28.83,823.680,2110.690,135.733337,12.21,2.4503,363,23964,1.98561,3.93,43391,,,,,,,,,,,,,,,,,,99999,99999,99999,99999,99999,99999,99999,99999,99999,99999,99999,99999
27:18:49,1510854990,2017-11-16T17:56:35,0.813,1217.5,26.74,22.49,28.87,823.620,2110.820,138.600006,12.20,2.4502,363,23966,1.99239,3.93,43391,,,,,,,,,,,,,,,,,,99999,99999,99999,99999,99999,99999,99999,99999,99999,99999,99999,99999
27:19:19,1510855020,2017-11-16T17:57:05,0.810,1217.9,26.79,22.51,28.91,823.580,2111.050,137.483337,12.11,2.4500,363,23967,1.98561,3.93,43391,,,,,,,,,,,,,,,,,,99999,99999,99999,99999,99999,99999,99999,99999,99999,99999,99999,99999
27:19:49,1510855050,2017-11-16T17:57:35,0.814,1218.4,26.83,22.56,28.93,823.620,2111.170,138.666672,12.02,2.4498,363,23970,1.99393,3.93,43391,,,,,,,,,,,,,,,,,,99999,99999,99999,99999,99999,99999,99999,99999,99999,99999,99999,99999
27:20:19,1510855080,2017-11-16T17:58:05,0.812,1218.8,26.86,22.60,28.97,823.510,2111.240,138.100006,12.13,2.4497,363,23970,1.99023,3.93,43391,,,,,,,,,,,,,,,,,,99999,99999,99999,99999,99999,99999,99999,99999,99999,99999,99999,99999
27:20:49,1510855110,2017-11-16T17:58:35,0.813,1219.2,26.90,22.63,29.01,823.660,2111.400,139.333328,12.90,2.4494,363,23971,1.99054,3.93,43391,,,,,,,,,,,,,,,,,,99999,99999,99999,99999,99999,99999,99999,99999,99999,99999,99999,99999
27:21:19,1510855140,2017-11-16T17:59:05,0.813,1219.6,26.94,22.67,29.07,823.540,2111.530,138.383331,11.75,2.4494,363,23971,1.99084,3.93,43391,,,,,,,,,,,,,,,,,,99999,99999,99999,99999,99999,99999,99999,99999,99999,99999,99999,99999
27:21:49,1510855170,2017-11-16T17:59:35,0.812,1220.0,26.97,22.69,29.11,823.510,2111.650,137.933334,11.67,2.4493,363,23972,1.98930,3.93,43391,,,,,,,,,,,,,,,,,,99999,99999,99999,99999,99999,99999,99999,99999,99999,99999,99999,99999
27:22:19,1510855200,2017-11-16T18:00:05,0.811,1220.4,27.00,22.71,29.13,823.500,2111.710,136.133331,11.65,2.4491,363,23974,1.98715,3.92,43391,,,,,,,,,,,,,,,,,,99999,99999,99999,99999,99999,99999,99999,99999,99999,99999,99999,99999
27:22:49,1510855230,2017-11-16T18:00:35,0.813,1220.8,27.03,22.73,29.15,823.390,2111.880,137.816666,11.97,2.4490,363,23974,1.99208,3.92,43391,,,,,,,,,,,,,,,,,,99999,99999,99999,99999,99999,99999,99999,99999,99999,99999,99999,99999
27:23:19,1510855260,2017-11-16T18:01:05,0.814,1221.2,27.04,22.74,29.18,823.490,2111.880,138.783340,11.80,2.4490,363,23974,1.99424,3.92,43390,,,,,,,,,,,,,,,,,,99999,99999,99999,99999,99999,99999,99999,99999,99999,99999,99999,99999
27:23:49,1510855290,2017-11-16T18:01:35,0.813,1221.6,27.06,22.76,29.16,823.460,2111.950,138.566666,12.14,2.4488,363,23976,1.99177,3.92,43390,,,,,,,,,,,,,,,,,,99999,99999,99999,99999,99999,99999,99999,99999,99999,99999,99999,99999
27:24:19,1510855320,2017-11-16T18:02:05,0.811,1222.0,27.07,22.79,29.21,823.380,2112.010,138.433334,11.85,2.4489,363,23974,1.98622,3.92,43389,,,,,,,,,,,,,,,,,,99999,99999,99999,99999,99999,99999,99999,99999,99999,99999,99999,99999
27:24:49,1510855350,2017-11-16T18:02:35,0.812,1222.4,27.08,22.79,29.18,823.450,2112.070,138.449997,12.02,2.4488,363,23976,1.98776,3.92,43388,,,,,,,,,,,,,,,,,,99999,99999,99999,99999,99999,99999,99999,99999,99999,99999,99999,99999
27:25:19,1510855380,2017-11-16T18:03:05,0.815,1222.8,27.08,22.81,29.19,823.430,2112.070,138.550003,13.15,2.4486,363,23975,1.99547,3.92,43387,,,,,,,,,,,,,,,,,,99999,99999,99999,99999,99999,99999,99999,99999,99999,99999,99999,99999
27:25:49,1510855410,2017-11-16T18:03:35,0.812,1223.2,27.09,22.80,29.21,823.400,2112.070,136.933334,13.35,2.4485,363,23975,1.98930,3.92,43386,,,,,,,,,,,,,,,,,,99999,99999,99999,99999,99999,99999,99999,99999,99999,99999,99999,99999
27:26:19,1510855440,2017-11-16T18:04:05,0.814,1223.6,27.10,22.84,29.19,823.450,2112.110,136.300003,13.00,2.4485,363,23975,1.99362,3.92,43385,,,,,,,,,,,,,,,,,,99999,99999,99999,99999,99999,99999,99999,99999,99999,99999,99999,99999
27:26:49,1510855470,2017-11-16T18:04:35,0.814,1224.0,27.09,22.84,29.19,823.430,2112.070,139.233337,13.30,2.4485,363,23974,1.99393,3.92,43384,,,,,,,,,,,,,,,,,,99999,99999,99999,99999,99999,99999,99999,99999,99999,99999,99999,99999
27:27:19,1510855500,2017-11-16T18:05:05,0.811,1224.5,27.10,22.85,29.19,823.500,2112.110,137.649994,13.43,2.4485,363,23976,1.98469,3.92,43383,,,,,,,,,,,,,,,,,,99999,99999,99999,99999,99999,99999,99999,99999,99999,99999,99999,99999
27:27:49,1510855530,2017-11-16T18:05:35,0.810,1224.9,27.08,22.89,29.18,823.530,2112.070,140.433334,13.47,2.4486,363,23976,1.98407,3.91,43382,,,,,,,,,,,,,,,,,,99999,99999,99999,99999,99999,99999,99999,99999,99999,99999,99999,99999
27:28:19,1510855560,2017-11-16T18:06:05,0.814,1225.3,27.07,22.88,29.16,823.460,2112.010,139.483337,13.34,2.4486,363,23974,1.99239,3.91,43381,,,,,,,,,,,,,,,,,,99999,99999,99999,99999,99999,99999,99999,99999,99999,99999,99999,99999
27:28:49,1510855590,2017-11-16T18:06:35,0.813,1225.7,27.03,22.88,29.13,823.440,2111.880,137.383331,13.33,2.4488,363,23974,1.99084,3.91,43380,,,,,,,,,,,,,,,,,,99999,99999,99999,99999,99999,99999,99999,99999,99999,99999,99999,99999
27:29:19,1510855620,2017-11-16T18:07:05,0.812,1226.1,27.01,22.85,29.15,823.530,2111.760,137.933334,13.78,2.4488,363,23972,1.98807,3.91,43378,,,,,,,,,,,,,,,,,,99999,99999,99999,99999,99999,99999,99999,99999,99999,99999,99999,99999
27:29:49,1510855650,2017-11-16T18:07:35,0.810,1226.5,26.97,22.85,29.08,823.510,2111.650,137.033340,13.21,2.4491,363,23976,1.98345,3.91,43377,,,,,,,,,,,,,,,,,,99999,99999,99999,99999,99999,99999,99999,99999,99999,99999,99999,99999
27:30:19,1510855680,2017-11-16T18:08:05,0.810,1226.9,26.91,22.84,29.03,823.520,2111.460,136.433334,13.66,2.4493,363,23973,1.98438,3.91,43376,,,,,,,,,,,,,,,,,,99999,99999,99999,99999,99999,99999,99999,99999,99999,99999,99999,99999
27:30:49,1510855710,2017-11-16T18:08:35,0.810,1227.3,26.88,22.81,28.97,823.530,2111.300,137.716660,14.18,2.4492,363,23973,1.98500,3.91,43374,,,,,,,,,,,,,,,,,,99999,99999,99999,99999,99999,99999,99999,99999,99999,99999,99999,99999
27:31:19,1510855740,2017-11-16T18:09:05,0.813,1227.7,26.83,22.81,28.93,823.510,2111.170,139.016663,13.55,2.4496,363,23975,1.99270,3.91,43373,,,,,,,,,,,,,,,,,,99999,99999,99999,99999,99999,99999,99999,99999,99999,99999,99999,99999
27:31:49,1510855770,2017-11-16T18:09:35,0.810,1228.1,26.80,22.77,28.89,823.600,2111.050,137.516663,14.33,2.4496,363,23974,1.98315,3.91,43372,,,,,,,,,,,,,,,,,,99999,99999,99999,99999,99999,99999,99999,99999,99999,99999,99999,99999
27:32:19,1510855800,2017-11-16T18:10:05,0.810,1228.5,26.77,22.74,28.84,823.580,2110.990,135.699997,13.41,2.4499,363,23970,1.98376,3.91,43370,,,,,,,,,,,,,,,,,,99999,99999,99999,99999,99999,99999,99999,99999,99999,99999,99999,99999
27:32:49,1510855830,2017-11-16T18:10:35,0.812,1228.9,26.73,22.71,28.81,823.590,2110.820,137.649994,13.52,2.4500,363,23968,1.98869,3.91,43369,,,,,,,,,,,,,,,,,,99999,99999,99999,99999,99999,99999,99999,99999,99999,99999,99999,99999
27:33:19,1510855860,2017-11-16T18:11:05,0.809,1229.3,26.69,22.68,28.79,823.540,2110.630,136.949997,14.88,2.4499,363,23967,1.98161,3.91,43367,,,,,,,,,,,,,,,,,,99999,99999,99999,99999,99999,99999,99999,99999,99999,99999,99999,99999
27:33:49,1510855890,2017-11-16T18:11:35,0.809,1229.7,26.66,22.64,28.69,823.550,2110.570,135.983337,13.46,2.4503,363,23968,1.98192,3.91,43366,,,,,,,,,,,,,,,,,,99999,99999,99999,99999,99999,99999,99999,99999,99999,99999,99999,99999
27:34:19,1510855920,2017-11-16T18:12:05,0.811,1230.1,26.63,22.61,28.73,823.580,2110.460,137.550003,13.77,2.4504,363,23967,1.98746,3.92,43365,,,,,,,,,,,,,,,,,,99999,99999,99999,99999,99999,99999,99999,99999,99999,99999,99999,99999
27:34:49,1510855950,2017-11-16T18:12:35,0.812,1230.5,26.60,22.60,28.65,823.540,2110.340,136.033340,14.16,2.4505,363,23966,1.98961,3.91,43363,,,,,,,,,,,,,,,,,,99999,99999,99999,99999,99999,99999,99999,99999,99999,99999,99999,99999
27:35:19,1510855980,2017-11-16T18:13:05,0.809,1230.9,26.58,22.60,28.61,823.490,2110.270,137.516663,13.47,2.4506,363,23965,1.98223,3.91,43362,,,,,,,,,,,,,,,,,,99999,99999,99999,99999,99999,99999,99999,99999,99999,99999,99999,99999
27:35:49,1510856010,2017-11-16T18:13:35,0.809,1231.4,26.56,22.59,28.63,823.440,2110.210,134.883331,14.82,2.4505,363,23968,1.98130,3.91,43361,,,,,,,,,,,,,,,,,,99999,99999,99999,99999,99999,99999,99999,99999,99999,99999,99999,99999
27:36:19,1510856040,2017-11-16T18:14:05,0.807,1231.8,26.55,22.54,28.58,823.500,2110.170,136.500000,14.03,2.4507,363,23965,1.97823,3.91,43359,,,,,,,,,,,,,,,,,,99999,99999,99999,99999,99999,99999,99999,99999,99999,99999,99999,99999
27:36:49,1510856070,2017-11-16T18:14:35,0.810,1232.2,26.52,22.53,28.60,823.450,2110.110,138.566666,14.13,2.4509,363,23962,1.98469,3.91,43357,,,,,,,,,,,,,,,,,,99999,99999,99999,99999,99999,99999,99999,99999,99999,99999,99999,99999
27:37:19,1510856100,2017-11-16T18:15:05,0.812,1232.6,26.51,22.47,28.58,823.480,2110.040,137.616669,15.61,2.4506,363,23963,1.99084,3.91,43355,,,,,,,,,,,,,,,,,,99999,99999,99999,99999,99999,99999,99999,99999,99999,99999,99999,99999
27:37:49,1510856130,2017-11-16T18:15:35,0.808,1233.0,26.48,22.46,28.50,823.510,2109.980,136.199997,14.28,2.4510,363,23962,1.98038,3.91,43353,,,,,,,,,,,,,,,,,,99999,99999,99999,99999,99999,99999,99999,99999,99999,99999,99999,99999
27:38:19,1510856160,2017-11-16T18:16:05,0.812,1233.4,26.46,22.43,28.53,823.330,2109.860,139.133331,14.88,2.4510,363,23964,1.98900,3.91,43351,,,,,,,,,,,,,,,,,,99999,99999,99999,99999,99999,99999,99999,99999,99999,99999,99999,99999
27:38:49,1510856190,2017-11-16T18:16:35,0.811,1233.8,26.43,22.42,28.47,823.390,2109.750,138.766663,14.39,2.4511,363,23962,1.98869,3.91,43349,,,,,,,,,,,,,,,,,,99999,99999,99999,99999,99999,99999,99999,99999,99999,99999,99999,99999
27:39:19,1510856220,2017-11-16T18:17:05,0.808,1234.2,26.40,22.39,28.45,823.370,2109.690,135.783340,14.77,2.4513,363,23964,1.98161,3.91,43347,,,,,,,,,,,,,,,,,,99999,99999,99999,99999,99999,99999,99999,99999,99999,99999,99999,99999
27:39:49,1510856250,2017-11-16T18:17:35,0.810,1234.6,26.39,22.38,28.49,823.430,2109.620,135.966660,14.07,2.4514,363,23963,1.98500,3.91,43345,,,,,,,,,,,,,,,,,,99999,99999,99999,99999,99999,99999,99999,99999,99999,99999,99999,99999
27:40:19,1510856280,2017-11-16T18:18:05,0.808,1235.0,26.37,22.37,28.42,823.350,2109.570,135.633331,14.54,2.4514,363,23961,1.98130,3.91,43343,,,,,,,,,,,,,,,,,,99999,99999,99999,99999,99999,99999,99999,99999,99999,99999,99999,99999
27:40:49,1510856310,2017-11-16T18:18:35,0.809,1235.4,26.36,22.36,28.39,823.350,2109.500,137.149994,14.27,2.4515,363,23960,1.98345,3.91,43342,,,,,,,,,,,,,,,,,,99999,99999,99999,99999,99999,99999,99999,99999,99999,99999,99999,99999
27:41:19,1510856340,2017-11-16T18:19:05,0.809,1235.8,26.35,22.33,28.38,823.270,2109.500,136.166672,13.85,2.4516,363,23957,1.98376,3.91,43340,,,,,,,,,,,,,,,,,,99999,99999,99999,99999,99999,99999,99999,99999,99999,99999,99999,99999
27:41:49,1510856370,2017-11-16T18:19:35,0.809,1236.2,26.34,22.32,28.41,823.330,2109.400,136.683334,14.56,2.4515,363,23958,1.98345,3.91,43338,,,,,,,,,,,,,,,,,,99999,99999,99999,99999,99999,99999,99999,99999,99999,99999,99999,99999
27:42:19,1510856400,2017-11-16T18:20:05,0.807,1236.6,26.33,22.35,28.35,823.250,2109.400,134.699997,14.60,2.4515,363,23959,1.97946,3.90,43336,,,,,,,,,,,,,,,,,,99999,99999,99999,99999,99999,99999,99999,99999,99999,99999,99999,99999
27:42:49,1510856430,2017-11-16T18:20:35,0.811,1237.0,26.33,22.32,28.35,823.280,2109.400,137.550003,15.51,2.4514,363,23957,1.98900,3.90,43333,,,,,,,,,,,,,,,,,,99999,99999,99999,99999,99999,99999,99999,99999,99999,99999,99999,99999
27:43:19,1510856460,2017-11-16T18:21:05,0.809,1237.4,26.32,22.32,28.34,823.330,2109.330,136.283340,16.01,2.4513,363,23955,1.98223,3.90,43331,,,,,,,,,,,,,,,,,,99999,99999,99999,99999,99999,99999,99999,99999,99999,99999,99999,99999
27:43:49,1510856490,2017-11-16T18:21:35,0.811,1237.8,26.31,22.32,28.34,823.310,2109.330,137.683334,15.27,2.4515,363,23958,1.98900,3.90,43328,,,,,,,,,,,,,,,,,,99999,99999,99999,99999,99999,99999,99999,99999,99999,99999,99999,99999
27:44:19,1510856520,2017-11-16T18:22:05,0.811,1238.2,26.28,22.28,28.29,823.290,2109.210,139.066666,13.80,2.4519,363,23954,1.98807,3.90,43325,,,,,,,,,,,,,,,,,,99999,99999,99999,99999,99999,99999,99999,99999,99999,99999,99999,99999
27:44:49,1510856550,2017-11-16T18:22:35,0.811,1238.6,26.24,22.26,28.27,823.320,2109.100,137.583328,14.36,2.4520,363,23956,1.98869,3.90,43322,,,,,,,,,,,,,,,,,,99999,99999,99999,99999,99999,99999,99999,99999,99999,99999,99999,99999
27:45:19,1510856580,2017-11-16T18:23:05,0.809,1239.0,26.20,22.25,28.26,823.180,2108.920,137.649994,14.52,2.4521,363,23954,1.98376,3.90,43320,,,,,,,,,,,,,,,,,,99999,99999,99999,99999,99999,99999,99999,99999,99999,99999,99999,99999
27:45:49,1510856610,2017-11-16T18:23:35,0.806,1239.4,26.16,22.22,28.23,823.210,2108.790,135.616669,14.18,2.4523,363,23952,1.97608,3.90,43317,,,,,,,,,,,,,,,,,,99999,99999,99999,99999,99999,99999,99999,99999,99999,99999,99999,99999
27:46:19,1510856640,2017-11-16T18:24:05,0.807,1239.8,26.12,22.19,28.18,823.200,2108.680,135.233337,15.15,2.4524,363,23952,1.97915,3.90,43314,,,,,,,,,,,,,,,,,,99999,99999,99999,99999,99999,99999,99999,99999,99999,99999,99999,99999
27:46:49,1510856670,2017-11-16T18:24:35,0.807,1240.3,26.07,22.15,28.10,823.150,2108.430,137.033340,14.31,2.4526,363,23952,1.98038,3.90,43311,,,,,,,,,,,,,,,,,,99999,99999,99999,99999,99999,99999,99999,99999,99999,99999,99999,99999
27:47:19,1510856700,2017-11-16T18:25:05,0.806,1240.7,26.03,22.13,28.05,823.160,2108.330,134.666672,14.05,2.4529,363,23949,1.97669,3.90,43309,,,,,,,,,,,,,,,,,,99999,99999,99999,99999,99999,99999,99999,99999,99999,99999,99999,99999
27:47:49,1510856730,2017-11-16T18:25:35,0.806,1241.1,25.98,22.13,28.03,823.120,2108.200,136.883331,14.56,2.4531,363,23947,1.97823,3.90,43306,,,,,,,,,,,,,,,,,,99999,99999,99999,99999,99999,99999,99999,99999,99999,99999,99999,99999
27:48:19,1510856760,2017-11-16T18:26:05,0.806,1241.5,25.94,22.09,28.00,823.020,2108.080,135.716660,13.69,2.4534,363,23950,1.97638,3.90,43304,,,,,,,,,,,,,,,,,,99999,99999,99999,99999,99999,99999,99999,99999,99999,99999,99999,99999
27:48:49,1510856790,2017-11-16T18:26:35,0.807,1241.9,25.90,22.09,27.95,823.030,2107.910,136.766663,13.39,2.4536,363,23950,1.98007,3.90,43301,,,,,,,,,,,,,,,,,,99999,99999,99999,99999,99999,99999,99999,99999,99999,99999,99999,99999
27:49:19,1510856820,2017-11-16T18:27:05,0.809,1242.3,25.86,22.06,27.88,823.070,2107.790,136.416672,13.15,2.4538,363,23950,1.98500,3.90,43298,,,,,,,,,,,,,,,,,,99999,99999,99999,99999,99999,99999,99999,99999,99999,99999,99999,99999
27:49:49,1510856850,2017-11-16T18:27:35,0.809,1242.7,25.84,22.05,27.88,823.040,2107.730,136.233337,13.19,2.4539,363,23948,1.98438,3.90,43295,,,,,,,,,,,,,,,,,,99999,99999,99999,99999,99999,99999,99999,99999,99999,99999,99999,99999
27:50:19,1510856880,2017-11-16T18:28:05,0.808,1243.1,25.82,22.03,27.84,823.100,2107.660,137.433334,13.62,2.4539,363,23948,1.98223,3.90,43292,,,,,,,,,,,,,,,,,,99999,99999,99999,99999,99999,99999,99999,99999,99999,99999,99999,99999
27:50:49,1510856910,2017-11-16T18:28:35,0.808,1243.5,25.80,22.04,27.83,823.020,2107.620,136.149994,13.57,2.4540,363,23948,1.98253,3.90,43289,,,,,,,,,,,,,,,,,,99999,99999,99999,99999,99999,99999,99999,99999,99999,99999,99999,99999
27:51:19,1510856940,2017-11-16T18:29:05,0.804,1243.9,25.79,22.05,27.83,823.080,2107.500,135.383331,13.42,2.4540,363,23948,1.97209,3.90,43286,,,,,,,,,,,,,,,,,,99999,99999,99999,99999,99999,99999,99999,99999,99999,99999,99999,99999
27:51:49,1510856970,2017-11-16T18:29:35,0.808,1244.3,25.78,22.06,27.77,823.060,2107.500,135.816666,13.78,2.4540,363,23950,1.98407,3.90,43283,,,,,,,,,,,,,,,,,,99999,99999,99999,99999,99999,99999,99999,99999,99999,99999,99999,99999
27:52:19,1510857000,2017-11-16T18:30:05,0.809,1244.7,25.78,22.08,27.80,823.030,2107.500,135.866669,13.70,2.4540,363,23949,1.98438,3.90,43280,,,,,,,,,,,,,,,,,,99999,99999,99999,99999,99999,99999,99999,99999,99999,99999,99999,99999
27:52:49,1510857030,2017-11-16T18:30:35,0.808,1245.1,25.76,22.08,27.76,823.060,2107.370,136.666672,14.67,2.4539,363,23949,1.98192,3.90,43278,,,,,,,,,,,,,,,,,,99999,99999,99999,99999,99999,99999,99999,99999,99999,99999,99999,99999
27:53:19,1510857060,2017-11-16T18:31:05,0.804,1245.5,25.76,22.08,27.75,823.030,2107.370,136.033340,14.09,2.4540,363,23950,1.97209,3.90,43275,,,,,,,,,,,,,,,,,,99999,99999,99999,99999,99999,99999,99999,99999,99999,99999,99999,99999
27:53:49,1510857090,2017-11-16T18:31:35,0.808,1245.9,25.75,22.10,27.71,823.060,2107.370,137.600006,13.69,2.4541,363,23947,1.98223,3.90,43272,,,,,,,,,,,,,,,,,,99999,99999,99999,99999,99999,99999,99999,99999,99999,99999,99999,99999
27:54:19,1510857120,2017-11-16T18:32:05,0.806,1246.3,25.73,22.08,27.73,823.040,2107.310,132.633331,15.21,2.4540,363,23947,1.97700,3.90,43270,,,,,,,,,,,,,,,,,,99999,99999,99999,99999,99999,99999,99999,99999,99999,99999,99999,99999
27:54:49,1510857150,2017-11-16T18:32:35,0.805,1246.7,25.70,22.06,27.69,823.080,2107.200,133.633331,13.80,2.4543,363,23949,1.97638,3.90,43267,,,,,,,,,,,,,,,,,,99999,99999,99999,99999,99999,99999,99999,99999,99999,99999,99999,99999
27:55:19,1510857180,2017-11-16T18:33:05,0.804,1247.1,25.67,22.03,27.71,823.140,2107.140,133.866669,15.18,2.4543,363,23947,1.97393,3.90,43264,,,,,,,,,,,,,,,,,,99999,99999,99999,99999,99999,99999,99999,99999,99999,99999,99999,99999
27:55:49,1510857210,2017-11-16T18:33:35,0.805,1247.5,25.63,22.02,27.63,823.120,2106.970,135.399994,14.15,2.4546,363,23943,1.97516,3.90,43262,,,,,,,,,,,,,,,,,,99999,99999,99999,99999,99999,99999,99999,99999,99999,99999,99999,99999
27:56:19,1510857240,2017-11-16T18:34:05,0.806,1247.9,25.60,21.99,27.60,823.020,2106.850,136.199997,14.63,2.4546,363,23946,1.97884,3.90,43259,,,,,,,,,,,,,,,,,,99999,99999,99999,99999,99999,99999,99999,99999,99999,99999,99999,99999
27:56:49,1510857270,2017-11-16T18:34:35,0.807,1248.3,25.56,22.00,27.58,822.950,2106.720,136.149994,15.29,2.4547,363,23948,1.98130,3.90,43256,,,,,,,,,,,,,,,,,,99999,99999,99999,99999,99999,99999,99999,99999,99999,99999,99999,99999
27:57:19,1510857300,2017-11-16T18:35:05,0.807,1248.7,25.54,21.97,27.57,822.950,2106.660,134.366669,14.84,2.4549,363,23947,1.98069,3.90,43253,,,,,,,,,,,,,,,,,,99999,99999,99999,99999,99999,99999,99999,99999,99999,99999,99999,99999
27:57:49,1510857330,2017-11-16T18:35:35,0.805,1249.1,25.52,21.95,27.52,822.960,2106.560,133.566666,14.70,2.4550,363,23945,1.97578,3.90,43250,,,,,,,,,,,,,,,,,,99999,99999,99999,99999,99999,99999,99999,99999,99999,99999,99999,99999
27:58:19,1510857360,2017-11-16T18:36:05,0.805,1249.5,25.49,21.93,27.50,822.910,2106.490,135.466660,15.38,2.4550,363,23941,1.97638,3.90,43247,,,,,,,,,,,,,,,,,,99999,99999,99999,99999,99999,99999,99999,99999,99999,99999,99999,99999
27:58:49,1510857390,2017-11-16T18:36:35,0.803,1249.9,25.47,21.93,27.45,822.880,2106.430,134.850006,14.09,2.4553,363,23942,1.97056,3.90,43244,,,,,,,,,,,,,,,,,,99999,99999,99999,99999,99999,99999,99999,99999,99999,99999,99999,99999
27:59:19,1510857420,2017-11-16T18:37:05,0.806,1250.3,25.45,21.91,27.44,822.890,2106.310,135.633331,14.21,2.4553,363,23940,1.97792,3.90,43241,,,,,,,,,,,,,,,,,,99999,99999,99999,99999,99999,99999,99999,99999,99999,99999,99999,99999
27:59:49,1510857450,2017-11-16T18:37:35,0.803,1250.7,25.42,21.88,27.41,822.770,2106.240,135.366669,14.52,2.4555,363,23941,1.97270,3.89,43238,,,,,,,,,,,,,,,,,,99999,99999,99999,99999,99999,99999,99999,99999,99999,99999,99999,99999
28:00:19,1510857480,2017-11-16T18:38:05,0.806,1251.1,25.40,21.87,27.39,822.740,2106.200,135.800003,14.65,2.4556,363,23941,1.98007,3.89,43235,,,,,,,,,,,,,,,,,,99999,99999,99999,99999,99999,99999,99999,99999,99999,99999,99999,99999
28:00:49,1510857510,2017-11-16T18:38:35,0.806,1251.5,25.37,21.83,27.34,822.590,2106.010,136.166672,14.17,2.4557,363,23940,1.97915,3.89,43232,,,,,,,,,,,,,,,,,,99999,99999,99999,99999,99999,99999,99999,99999,99999,99999,99999,99999
28:01:19,1510857540,2017-11-16T18:39:05,0.807,1251.9,25.35,21.80,27.35,822.670,2105.950,135.233337,14.76,2.4557,363,23937,1.98253,3.89,43229,,,,,,,,,,,,,,,,,,99999,99999,99999,99999,99999,99999,99999,99999,99999,99999,99999,99999
28:01:49,1510857570,2017-11-16T18:39:35,0.804,1252.3,25.32,21.76,27.26,822.620,2105.910,135.566666,15.24,2.4558,363,23937,1.97547,3.89,43225,,,,,,,,,,,,,,,,,,99999,99999,99999,99999,99999,99999,99999,99999,99999,99999,99999,99999
28:02:19,1510857600,2017-11-16T18:40:05,0.802,1252.7,25.28,21.73,27.26,822.610,2105.780,132.149994,14.54,2.4561,363,23936,1.97025,3.90,43222,,,,,,,,,,,,,,,,,,99999,99999,99999,99999,99999,99999,99999,99999,99999,99999,99999,99999
28:02:49,1510857630,2017-11-16T18:40:35,0.806,1253.1,25.25,21.72,27.21,822.620,2105.590,135.050003,14.58,2.4561,363,23938,1.97977,3.90,43219,,,,,,,,,,,,,,,,,,99999,99999,99999,99999,99999,99999,99999,99999,99999,99999,99999,99999
28:03:19,1510857660,2017-11-16T18:41:05,0.803,1253.5,25.20,21.68,27.17,822.630,2105.490,133.300003,15.14,2.4563,363,23935,1.97178,3.89,43216,,,,,,,,,,,,,,,,,,99999,99999,99999,99999,99999,99999,99999,99999,99999,99999,99999,99999
28:03:49,1510857690,2017-11-16T18:41:35,0.802,1253.9,25.17,21.65,27.08,822.580,2105.360,133.666672,15.24,2.4564,363,23932,1.96903,3.90,43213,,,,,,,,,,,,,,,,,,99999,99999,99999,99999,99999,99999,99999,99999,99999,99999,99999,99999
28:04:19,1510857720,2017-11-16T18:42:05,0.805,1254.3,25.14,21.61,27.08,822.670,2105.240,133.483337,15.64,2.4565,363,23934,1.97792,3.90,43210,,,,,,,,,,,,,,,,,,99999,99999,99999,99999,99999,99999,99999,99999,99999,99999,99999,99999
28:04:49,1510857750,2017-11-16T18:42:35,0.806,1254.7,25.11,21.60,27.05,822.680,2105.130,134.616669,15.90,2.4566,363,23935,1.98069,3.90,43208,,,,,,,,,,,,,,,,,,99999,99999,99999,99999,99999,99999,99999,99999,99999,99999,99999,99999
28:05:19,1510857780,2017-11-16T18:43:05,0.805,1255.2,25.07,21.57,27.03,822.660,2105.010,134.633331,16.02,2.4567,363,23933,1.97884,3.90,43205,,,,,,,,,,,,,,,,,,99999,99999,99999,99999,99999,99999,99999,99999,99999,99999,99999,99999
28:05:49,1510857810,2017-11-16T18:43:35,0.803,1255.6,25.04,21.54,26.97,822.670,2104.880,135.116669,15.82,2.4569,363,23931,1.97240,3.90,43202,,,,,,,,,,,,,,,,,,99999,99999,99999,99999,99999,99999,99999,99999,99999,99999,99999,99999
28:06:19,1510857840,2017-11-16T18:44:05,0.805,1256.0,24.99,21.50,26.94,822.570,2104.720,134.883331,16.10,2.4571,363,23926,1.97761,3.90,43199,,,,,,,,,,,,,,,,,,99999,99999,99999,99999,99999,99999,99999,99999,99999,99999,99999,99999
28:06:49,1510857870,2017-11-16T18:44:35,0.804,1256.4,24.96,21.47,26.91,822.630,2104.590,135.016663,15.75,2.4572,363,23930,1.97608,3.89,43196,,,,,,,,,,,,,,,,,,99999,99999,99999,99999,99999,99999,99999,99999,99999,99999,99999,99999
28:07:19,1510857900,2017-11-16T18:45:05,0.804,1256.8,24.90,21.44,26.86,822.480,2104.420,135.833328,16.41,2.4574,363,23928,1.97516,3.89,43193,,,,,,,,,,,,,,,,,,99999,99999,99999,99999,99999,99999,99999,99999,99999,99999,99999,99999
28:07:49,1510857930,2017-11-16T18:45:35,0.801,1257.2,24.86,21.40,26.84,822.630,2104.240,132.850006,16.08,2.4576,363,23923,1.96964,3.89,43190,,,,,,,,,,,,,,,,,,99999,99999,99999,99999,99999,99999,99999,99999,99999,99999,99999,99999
28:08:19,1510857960,2017-11-16T18:46:05,0.801,1257.6,24.82,21.37,26.76,822.480,2104.130,133.316666,15.80,2.4578,363,23927,1.96872,3.89,43186,,,,,,,,,,,,,,,,,,99999,99999,99999,99999,99999,99999,99999,99999,99999,99999,99999,99999
28:08:49,1510857990,2017-11-16T18:46:35,0.802,1258.0,24.78,21.32,26.75,822.560,2104.000,133.916672,16.85,2.4579,363,23925,1.97178,3.89,43183,,,,,,,,,,,,,,,,,,99999,99999,99999,99999,99999,99999,99999,99999,99999,99999,99999,99999
28:09:19,1510858020,2017-11-16T18:47:05,0.803,1258.4,24.74,21.30,26.67,822.460,2103.880,135.833328,17.61,2.4580,363,23921,1.97424,3.89,43180,,,,,,,,,,,,,,,,,,99999,99999,99999,99999,99999,99999,99999,99999,99999,99999,99999,99999
28:09:49,1510858050,2017-11-16T18:47:35,0.799,1258.8,24.71,21.26,26.63,822.550,2103.710,134.216660,16.97,2.4581,363,23921,1.96413,3.89,43176,,,,,,,,,,,,,,,,,,99999,99999,99999,99999,99999,99999,99999,99999,99999,99999,99999,99999
28:10:19,1510858080,2017-11-16T18:48:05,0.802,1259.2,24.68,21.24,26.58,822.560,2103.650,135.699997,16.43,2.4584,363,23921,1.97209,3.89,43173,,,,,,,,,,,,,,,,,,99999,99999,99999,99999,99999,99999,99999,99999,99999,99999,99999,99999
28:10:49,1510858110,2017-11-16T18:48:35,0.802,1259.6,24.64,21.21,26.57,822.620,2103.520,133.533340,16.49,2.4585,363,23919,1.97087,3.89,43170,,,,,,,,,,,,,,,,,,99999,99999,99999,99999,99999,99999,99999,99999,99999,99999,99999,99999
28:11:19,1510858140,2017-11-16T18:49:05,0.804,1260.0,24.60,21.20,26.55,822.610,2103.420,133.333328,16.99,2.4587,363,23920,1.97578,3.89,43166,,,,,,,,,,,,,,,,,,99999,99999,99999,99999,99999,99999,99999,99999,99999,99999,99999,99999
28:11:49,1510858170,2017-11-16T18:49:35,0.804,1260.4,24.55,21.16,26.50,822.650,2103.190,132.433334,16.44,2.4589,363,23916,1.97700,3.89,43163,,,,,,,,,,,,,,,,,,99999,99999,99999,99999,99999,99999,99999,99999,99999,99999,99999,99999
28:12:19,1510858200,2017-11-16T18:50:05,0.799,1260.8,24.50,21.11,26.44,822.690,2103.000,131.716660,16.37,2.4591,363,23918,1.96505,3.89,43160,,,,,,,,,,,,,,,,,,99999,99999,99999,99999,99999,99999,99999,99999,99999,99999,99999,99999
28:12:49,1510858230,2017-11-16T18:50:35,0.802,1261.2,24.43,21.07,26.39,822.670,2102.770,134.699997,16.79,2.4594,363,23915,1.97362,3.89,43156,,,,,,,,,,,,,,,,,,99999,99999,99999,99999,99999,99999,99999,99999,99999,99999,99999,99999
28:13:19,1510858260,2017-11-16T18:51:05,0.802,1261.6,24.37,21.03,26.33,822.610,2102.580,133.649994,17.07,2.4596,363,23914,1.97178,3.89,43153,,,,,,,,,,,,,,,,,,99999,99999,99999,99999,99999,99999,99999,99999,99999,99999,99999,99999
28:13:49,1510858290,2017-11-16T18:51:35,0.802,1262.0,24.31,20.97,26.28,822.490,2102.350,134.466660,16.23,2.4600,363,23912,1.97240,3.89,43149,,,,,,,,,,,,,,,,,,99999,99999,99999,99999,99999,99999,99999,99999,99999,99999,99999,99999
28:14:19,1510858320,2017-11-16T18:52:05,0.798,1262.4,24.25,20.93,26.22,822.560,2102.130,131.949997,16.68,2.4602,363,23912,1.96351,3.89,43146,,,,,,,,,,,,,,,,,,99999,99999,99999,99999,99999,99999,99999,99999,99999,99999,99999,99999
28:14:49,1510858350,2017-11-16T18:52:35,0.800,1262.8,24.19,20.90,26.14,822.520,2101.900,133.883331,17.17,2.4603,363,23910,1.96933,3.89,43143,,,,,,,,,,,,,,,,,,99999,99999,99999,99999,99999,99999,99999,99999,99999,99999,99999,99999
28:15:19,1510858380,2017-11-16T18:53:05,0.801,1263.2,24.15,20.90,26.08,822.470,2101.770,134.050003,16.64,2.4606,363,23910,1.97209,3.89,43139,,,,,,,,,,,,,,,,,,99999,99999,99999,99999,99999,99999,99999,99999,99999,99999,99999,99999
28:15:49,1510858410,2017-11-16T18:53:35,0.798,1263.6,24.11,20.87,26.00,822.380,2101.650,129.933334,17.48,2.4607,363,23911,1.96351,3.89,43136,,,,,,,,,,,,,,,,,,99999,99999,99999,99999,99999,99999,99999,99999,99999,99999,99999,99999
28:16:19,1510858440,2017-11-16T18:54:05,0.801,1264.0,24.06,20.86,26.00,822.440,2101.540,133.366669,17.49,2.4609,363,23912,1.97087,3.89,43133,,,,,,,,,,,,,,,,,,99999,99999,99999,99999,99999,99999,99999,99999,99999,99999,99999,99999
28:16:49,1510858470,2017-11-16T18:54:35,0.802,1264.4,24.02,20.83,25.97,822.400,2101.290,131.966660,17.21,2.4610,363,23909,1.97270,3.89,43129,,,,,,,,,,,,,,,,,,99999,99999,99999,99999,99999,99999,99999,99999,99999,99999,99999,99999
28:17:19,1510858500,2017-11-16T18:55:05,0.798,1264.8,23.98,20.82,25.88,822.320,2101.180,130.699997,17.30,2.4612,363,23907,1.96505,3.89,43126,,,,,,,,,,,,,,,,,,99999,99999,99999,99999,99999,99999,99999,99999,99999,99999,99999,99999
28:17:49,1510858530,2017-11-16T18:55:35,0.798,1265.2,23.97,20.84,25.88,822.380,2101.180,132.399994,18.05,2.4612,363,23907,1.96474,3.89,43123,,,,,,,,,,,,,,,,,,99999,99999,99999,99999,99999,99999,99999,99999,99999,99999,99999,99999
28:18:19,1510858560,2017-11-16T18:56:05,0.800,1265.6,23.92,20.85,25.86,822.390,2100.930,134.133331,17.83,2.4614,363,23908,1.96964,3.89,43119,,,,,,,,,,,,,,,,,,99999,99999,99999,99999,99999,99999,99999,99999,99999,99999,99999,99999
28:18:49,1510858590,2017-11-16T18:56:35,0.798,1266.0,23.90,20.84,25.81,822.340,2100.890,134.033340,17.84,2.4615,363,23907,1.96535,3.89,43116,,,,,,,,,,,,,,,,,,99999,99999,99999,99999,99999,99999,99999,99999,99999,99999,99999,99999
28:19:19,1510858620,2017-11-16T18:57:05,0.797,1266.4,23.88,20.83,25.86,822.400,2100.830,131.699997,17.86,2.4616,363,23906,1.96076,3.89,43113,,,,,,,,,,,,,,,,,,99999,99999,99999,99999,99999,99999,99999,99999,99999,99999,99999,99999
28:19:49,1510858650,2017-11-16T18:57:35,0.795,1266.8,23.86,20.81,25.80,822.300,2100.760,132.449997,17.87,2.4617,363,23907,1.95801,3.89,43110,,,,,,,,,,,,,,,,,,99999,99999,99999,99999,99999,99999,99999,99999,99999,99999,99999,99999
28:20:19,1510858680,2017-11-16T18:58:05,0.795,1267.2,23.84,20.77,25.78,822.280,2100.710,133.750000,18.28,2.4617,363,23908,1.95587,3.89,43107,,,,,,,,,,,,,,,,,,99999,99999,99999,99999,99999,99999,99999,99999,99999,99999,99999,99999
28:20:49,1510858710,2017-11-16T18:58:35,0.800,1267.6,23.82,20.77,25.72,822.230,2100.640,135.350006,17.81,2.4619,363,23906,1.96841,3.89,43103,,,,,,,,,,,,,,,,,,99999,99999,99999,99999,99999,99999,99999,99999,99999,99999,99999,99999
28:21:19,1510858740,2017-11-16T18:59:05,0.797,1268.0,23.79,20.73,25.72,822.240,2100.580,134.383331,17.64,2.4621,363,23905,1.96137,3.89,43100,,,,,,,,,,,,,,,,,,99999,99999,99999,99999,99999,99999,99999,99999,99999,99999,99999,99999
28:21:49,1510858770,2017-11-16T18:59:35,0.799,1268.3,23.75,20.68,25.65,822.270,2100.350,133.583328,18.48,2.4620,363,23903,1.96780,3.89,43097,,,,,,,,,,,,,,,,,,99999,99999,99999,99999,99999,99999,99999,99999,99999,99999,99999,99999
28:22:19,1510858800,2017-11-16T19:00:05,0.798,1268.7,23.72,20.68,25.64,822.300,2100.290,133.199997,18.73,2.4622,363,23902,1.96505,3.89,43093,,,,,,,,,,,,,,,,,,99999,99999,99999,99999,99999,99999,99999,99999,99999,99999,99999,99999
28:22:49,1510858830,2017-11-16T19:00:35,0.793,1269.1,23.66,20.61,25.58,822.240,2100.120,132.800003,17.76,2.4626,363,23899,1.95404,3.89,43090,,,,,,,,,,,,,,,,,,99999,99999,99999,99999,99999,99999,99999,99999,99999,99999,99999,99999
28:23:19,1510858860,2017-11-16T19:01:05,0.795,1269.5,23.62,20.56,25.52,822.250,2099.950,130.416672,18.58,2.4627,363,23900,1.95801,3.89,43086,,,,,,,,,,,,,,,,,,99999,99999,99999,99999,99999,99999,99999,99999,99999,99999,99999,99999
28:23:49,1510858890,2017-11-16T19:01:35,0.799,1269.9,23.57,20.51,25.52,822.310,2099.760,133.416672,18.55,2.4629,363,23899,1.96719,3.89,43083,,,,,,,,,,,,,,,,,,99999,99999,99999,99999,99999,99999,99999,99999,99999,99999,99999,99999
28:24:19,1510858920,2017-11-16T19:02:05,0.797,1270.3,23.52,20.48,25.47,822.200,2099.640,132.199997,17.74,2.4632,363,23898,1.96229,3.89,43079,,,,,,,,,,,,,,,,,,99999,99999,99999,99999,99999,99999,99999,99999,99999,99999,99999,99999
28:24:49,1510858950,2017-11-16T19:02:35,0.798,1270.7,23.48,20.44,25.41,822.260,2099.410,130.783340,17.53,2.4633,363,23897,1.96596,3.89,43076,,,,,,,,,,,,,,,,,,99999,99999,99999,99999,99999,99999,99999,99999,99999,99999,99999,99999
28:25:19,1510858980,2017-11-16T19:03:05,0.794,1271.1,23.43,20.41,25.34,822.260,2099.310,130.600006,18.15,2.4636,363,23894,1.95526,3.89,43072,,,,,,,,,,,,,,,,,,99999,99999,99999,99999,99999,99999,99999,99999,99999,99999,99999,99999
28:25:49,1510859010,2017-11-16T19:03:35,0.793,1271.5,23.40,20.39,25.34,822.270,2099.180,130.583328,17.42,2.4638,363,23893,1.95374,3.89,43069,,,,,,,,,,,,,,,,,,99999,99999,99999,99999,99999,99999,99999,99999,99999,99999,99999,99999
28:26:19,1510859040,2017-11-16T19:04:05,0.798,1271.9,23.36,20.36,25.28,822.200,2099.010,132.800003,17.73,2.4639,363,23894,1.96657,3.89,43065,,,,,,,,,,,,,,,,,,99999,99999,99999,99999,99999,99999,99999,99999,99999,99999,99999,99999
28:26:49,1510859070,2017-11-16T19:04:35,0.797,1272.3,23.32,20.35,25.25,822.130,2098.890,133.633331,18.76,2.4639,363,23894,1.96290,3.89,43062,,,,,,,,,,,,,,,,,,99999,99999,99999,99999,99999,99999,99999,99999,99999,99999,99999,99999
28:27:19,1510859100,2017-11-16T19:05:05,0.795,1272.7,23.29,20.34,25.22,822.190,2098.820,133.216660,18.17,2.4642,363,23892,1.95985,3.89,43059,,,,,,,,,,,,,,,,,,99999,99999,99999,99999,99999,99999,99999,99999,99999,99999,99999,99999
28:27:49,1510859130,2017-11-16T19:05:35,0.793,1273.1,23.27,20.35,25.22,822.090,2098.760,131.133331,18.56,2.4642,363,23890,1.95374,3.89,43055,,,,,,,,,,,,,,,,,,99999,99999,99999,99999,99999,99999,99999,99999,99999,99999,99999,99999
28:28:19,1510859160,2017-11-16T19:06:05,0.795,1273.5,23.24,20.32,25.14,822.120,2098.590,132.449997,18.78,2.4642,363,23891,1.95954,3.89,43052,,,,,,,,,,,,,,,,,,99999,99999,99999,99999,99999,99999,99999,99999,99999,99999,99999,99999
28:28:49,1510859190,2017-11-16T19:06:35,0.797,1273.9,23.22,20.32,25.12,822.000,2098.530,131.283340,18.15,2.4644,363,23892,1.96505,3.89,43048,,,,,,,,,,,,,,,,,,99999,99999,99999,99999,99999,99999,99999,99999,99999,99999,99999,99999
28:29:19,1510859220,2017-11-16T19:07:05,0.794,1274.3,23.21,20.32,25.14,822.030,2098.470,129.683334,19.84,2.4642,363,23891,1.95557,3.89,43045,,,,,,,,,,,,,,,,,,99999,99999,99999,99999,99999,99999,99999,99999,99999,99999,99999,99999
28:29:49,1510859250,2017-11-16T19:07:35,0.794,1274.7,23.20,20.30,25.10,822.030,2098.470,132.466660,17.83,2.4646,363,23889,1.95740,3.89,43042,,,,,,,,,,,,,,,,,,99999,99999,99999,99999,99999,99999,99999,99999,99999,99999,99999,99999
28:30:19,1510859280,2017-11-16T19:08:05,0.792,1275.1,23.19,20.31,25.10,821.980,2098.400,130.316666,17.66,2.4646,363,23890,1.95221,3.89,43038,,,,,,,,,,,,,,,,,,99999,99999,99999,99999,99999,99999,99999,99999,99999,99999,99999,99999
28:30:49,1510859310,2017-11-16T19:08:35,0.793,1275.5,23.20,20.31,25.08,821.940,2098.470,130.633331,18.56,2.4645,363,23891,1.95313,3.89,43035,,,,,,,,,,,,,,,,,,99999,99999,99999,99999,99999,99999,99999,99999,99999,99999,99999,99999
28:31:19,1510859340,2017-11-16T19:09:05,0.798,1275.9,23.20,20.34,25.10,821.920,2098.470,131.899994,18.92,2.4644,363,23891,1.96719,3.89,43032,,,,,,,,,,,,,,,,,,99999,99999,99999,99999,99999,99999,99999,99999,99999,99999,99999,99999
28:31:49,1510859370,2017-11-16T19:09:35,0.798,1276.3,23.21,20.35,25.10,821.920,2098.470,132.399994,19.64,2.4642,363,23892,1.96596,3.89,43029,,,,,,,,,,,,,,,,,,99999,99999,99999,99999,99999,99999,99999,99999,99999,99999,99999,99999
28:32:19,1510859400,2017-11-16T19:10:05,0.797,1276.7,23.22,20.37,25.14,821.910,2098.530,131.983337,19.64,2.4642,363,23892,1.96474,3.89,43026,,,,,,,,,,,,,,,,,,99999,99999,99999,99999,99999,99999,99999,99999,99999,99999,99999,99999
28:32:49,1510859430,2017-11-16T19:10:35,0.794,1277.1,23.24,20.38,25.12,821.960,2098.590,131.583328,19.07,2.4642,363,23893,1.95618,3.89,43023,,,,,,,,,,,,,,,,,,99999,99999,99999,99999,99999,99999,99999,99999,99999,99999,99999,99999
28:33:19,1510859460,2017-11-16T19:11:05,0.793,1277.5,23.27,20.40,25.12,822.120,2098.760,131.600006,19.40,2.4641,363,23896,1.95526,3.90,43021,,,,,,,,,,,,,,,,,,99999,99999,99999,99999,99999,99999,99999,99999,99999,99999,99999,99999
28:33:49,1510859490,2017-11-16T19:11:35,0.798,1277.9,23.27,20.44,25.15,822.060,2098.760,132.850006,19.96,2.4640,363,23895,1.96688,3.90,43018,,,,,,,,,,,,,,,,,,99999,99999,99999,99999,99999,99999,99999,99999,99999,99999,99999,99999
28:34:19,1510859520,2017-11-16T19:12:05,0.797,1278.3,23.30,20.46,25.18,822.110,2098.820,133.216660,18.69,2.4640,363,23895,1.96505,3.90,43016,,,,,,,,,,,,,,,,,,99999,99999,99999,99999,99999,99999,99999,99999,99999,99999,99999,99999
28:34:49,1510859550,2017-11-16T19:12:35,0.798,1278.7,23.33,20.51,25.22,822.080,2098.950,133.216660,19.69,2.4638,363,23899,1.96535,3.90,43014,,,,,,,,,,,,,,,,,,99999,99999,99999,99999,99999,99999,99999,99999,99999,99999,99999,99999
28:35:19,1510859580,2017-11-16T19:13:05,0.798,1279.1,23.38,20.55,25.23,822.040,2099.050,132.800003,18.49,2.4636,363,23900,1.96627,3.90,43012,,,,,,,,,,,,,,,,,,99999,99999,99999,99999,99999,99999,99999,99999,99999,99999,99999,99999
28:35:49,1510859610,2017-11-16T19:13:35,0.798,1279.5,23.43,20.58,25.26,822.020,2099.310,133.833328,18.50,2.4635,363,23901,1.96596,3.90,43010,,,,,,,,,,,,,,,,,,99999,99999,99999,99999,99999,99999,99999,99999,99999,99999,99999,99999
28:36:19,1510859640,2017-11-16T19:14:05,0.795,1279.9,23.47,20.62,25.33,822.010,2099.410,131.566666,19.12,2.4632,363,23902,1.95770,3.90,43007,,,,,,,,,,,,,,,,,,99999,99999,99999,99999,99999,99999,99999,99999,99999,99999,99999,99999
28:36:49,1510859670,2017-11-16T19:14:35,0.795,1280.3,23.52,20.62,25.41,822.010,2099.640,131.800003,18.63,2.4631,363,23904,1.95893,3.90,43005,,,,,,,,,,,,,,,,,,99999,99999,99999,99999,99999,99999,99999,99999,99999,99999,99999,99999
28:37:19,1510859700,2017-11-16T19:15:05,0.794,1280.7,23.55,20.65,25.44,821.910,2099.700,132.750000,18.27,2.4630,363,23902,1.95587,3.90,43003,,,,,,,,,,,,,,,,,,99999,99999,99999,99999,99999,99999,99999,99999,99999,99999,99999,99999
28:37:49,1510859730,2017-11-16T19:15:35,0.797,1281.1,23.60,20.66,25.45,821.850,2099.890,133.383331,19.12,2.4627,363,23904,1.96351,3.90,43001,,,,,,,,,,,,,,,,,,99999,99999,99999,99999,99999,99999,99999,99999,99999,99999,99999,99999
28:38:19,1510859760,2017-11-16T19:16:05,0.795,1281.5,23.65,20.69,25.52,821.790,2099.990,132.383331,17.95,2.4625,363,23904,1.95862,3.90,42998,,,,,,,,,,,,,,,,,,99999,99999,99999,99999,99999,99999,99999,99999,99999,99999,99999,99999
28:38:49,1510859790,2017-11-16T19:16:35,0.797,1281.9,23.70,20.69,25.57,821.800,2100.240,133.550003,17.97,2.4624,363,23904,1.96198,3.90,42996,,,,,,,,,,,,,,,,,,99999,99999,99999,99999,99999,99999,99999,99999,99999,99999,99999,99999
28:39:19,1510859820,2017-11-16T19:17:05,0.799,1282.3,23.75,20.70,25.58,821.790,2100.350,131.100006,17.86,2.4621,363,23904,1.96841,3.90,42994,,,,,,,,,,,,,,,,,,99999,99999,99999,99999,99999,99999,99999,99999,99999,99999,99999,99999
28:39:49,1510859850,2017-11-16T19:17:35,0.797,1282.7,23.80,20.72,25.60,821.780,2100.580,132.816666,18.02,2.4619,363,23905,1.96290,3.90,42992,,,,,,,,,,,,,,,,,,99999,99999,99999,99999,99999,99999,99999,99999,99999,99999,99999,99999
28:40:19,1510859880,2017-11-16T19:18:05,0.800,1283.1,23.85,20.75,25.75,821.760,2100.760,132.783340,17.00,2.4619,363,23904,1.96903,3.90,42990,,,,,,,,,,,,,,,,,,99999,99999,99999,99999,99999,99999,99999,99999,99999,99999,99999,99999
28:40:49,1510859910,2017-11-16T19:18:35,0.799,1283.5,23.91,20.76,25.73,821.720,2100.930,134.033340,18.19,2.4614,363,23905,1.96627,3.90,42988,,,,,,,,,,,,,,,,,,99999,99999,99999,99999,99999,99999,99999,99999,99999,99999,99999,99999
28:41:19,1510859940,2017-11-16T19:19:05,0.801,1283.9,23.96,20.81,25.81,821.710,2101.120,133.199997,18.84,2.4611,363,23907,1.97056,3.90,42986,,,,,,,,,,,,,,,,,,99999,99999,99999,99999,99999,99999,99999,99999,99999,99999,99999,99999
28:41:49,1510859970,2017-11-16T19:19:35,0.802,1284.3,24.01,20.83,25.86,821.780,2101.290,134.300003,17.46,2.4611,363,23908,1.97270,3.90,42984,,,,,,,,,,,,,,,,,,99999,99999,99999,99999,99999,99999,99999,99999,99999,99999,99999,99999
28:42:19,1510860000,2017-11-16T19:20:05,0.800,1284.7,24.08,20.91,25.91,821.710,2101.580,133.316666,17.56,2.4608,363,23909,1.96749,3.90,42982,,,,,,,,,,,,,,,,,,99999,99999,99999,99999,99999,99999,99999,99999,99999,99999,99999,99999
28:42:49,1510860030,2017-11-16T19:20:35,0.800,1285.1,24.15,20.95,25.95,821.740,2101.770,131.899994,17.06,2.4605,363,23911,1.96749,3.90,42980,,,,,,,,,,,,,,,,,,99999,99999,99999,99999,99999,99999,99999,99999,99999,99999,99999,99999
28:43:19,1510860060,2017-11-16T19:21:05,0.800,1285.5,24.22,21.00,26.03,821.810,2102.060,130.983337,16.66,2.4603,363,23913,1.96719,3.90,42978,,,,,,,,,,,,,,,,,,99999,99999,99999,99999,99999,99999,99999,99999,99999,99999,99999,99999
28:43:49,1510860090,2017-11-16T19:21:35,0.799,1285.9,24.29,21.08,26.14,821.790,2102.230,132.100006,16.57,2.4599,363,23914,1.96657,3.90,42976,,,,,,,,,,,,,,,,,,99999,99999,99999,99999,99999,99999,99999,99999,99999,99999,99999,99999
28:44:19,1510860120,2017-11-16T19:22:05,0.801,1286.3,24.35,21.13,26.19,821.730,2102.520,133.083328,16.51,2.4598,363,23916,1.97117,3.90,42973,,,,,,,,,,,,,,,,,,99999,99999,99999,99999,99999,99999,99999,99999,99999,99999,99999,99999
28:44:49,1510860150,2017-11-16T19:22:35,0.799,1286.7,24.41,21.19,26.28,821.760,2102.710,133.466660,16.90,2.4595,363,23918,1.96566,3.90,42971,,,,,,,,,,,,,,,,,,99999,99999,99999,99999,99999,99999,99999,99999,99999,99999,99999,99999
28:45:19,1510860180,2017-11-16T19:23:05,0.803,1287.1,24.47,21.26,26.33,821.720,2102.940,135.466660,16.83,2.4592,363,23920,1.97547,3.90,42969,,,,,,,,,,,,,,,,,,99999,99999,99999,99999,99999,99999,99999,99999,99999,99999,99999,99999
28:45:49,1510860210,2017-11-16T19:23:35,0.801,1287.5,24.55,21.34,26.39,821.760,2103.190,135.466660,16.70,2.4589,363,23922,1.96964,3.90,42967,,,,,,,,,,,,,,,,,,99999,99999,99999,99999,99999,99999,99999,99999,99999,99999,99999,99999
28:46:19,1510860240,2017-11-16T19:24:05,0.803,1287.9,24.61,21.42,26.47,821.690,2103.420,134.083328,16.82,2.4586,363,23929,1.97455,3.90,42965,,,,,,,,,,,,,,,,,,99999,99999,99999,99999,99999,99999,99999,99999,99999,99999,99999,99999
28:46:49,1510860270,2017-11-16T19:24:35,0.803,1288.3,24.69,21.48,26.53,821.730,2103.650,132.600006,16.24,2.4583,363,23927,1.97362,3.90,42963,,,,,,,,,,,,,,,,,,99999,99999,99999,99999,99999,99999,99999,99999,99999,99999,99999,99999
28:47:19,1510860300,2017-11-16T19:25:05,0.801,1288.7,24.76,21.56,26.58,821.730,2103.940,133.449997,16.00,2.4581,363,23931,1.96903,3.90,42962,,,,,,,,,,,,,,,,,,99999,99999,99999,99999,99999,99999,99999,99999,99999,99999,99999,99999
28:47:49,1510860330,2017-11-16T19:25:35,0.802,1289.1,24.83,21.63,26.67,821.670,2104.130,133.350006,16.20,2.4577,363,23931,1.97117,3.87,42959,,,,,,,,,,,,,,,,,,99999,99999,99999,99999,99999,99999,99999,99999,99999,99999,99999,99999
28:48:19,1510860360,2017-11-16T19:26:05,0.805,1289.5,24.91,21.71,26.77,821.700,2104.490,134.466660,16.45,2.4574,363,23930,1.97700,3.87,42954,,,,,,,,,,,,,,,,,,99999,99999,99999,99999,99999,99999,99999,99999,99999,99999,99999,99999
28:48:49,1510860390,2017-11-16T19:26:35,0.803,1289.9,24.98,21.78,26.84,821.690,2104.650,133.083328,16.17,2.4570,363,23934,1.97240,3.87,42949,,,,,,,,,,,,,,,,,,99999,99999,99999,99999,99999,99999,99999,99999,99999,99999,99999,99999
28:49:19,1510860420,2017-11-16T19:27:05,0.807,1290.3,25.05,21.83,26.91,821.660,2104.940,134.833328,16.97,2.4567,363,23934,1.98284,3.87,42943,,,,,,,,,,,,,,,,,,99999,99999,99999,99999,99999,99999,99999,99999,99999,99999,99999,99999
28:49:49,1510860450,2017-11-16T19:27:35,0.807,1290.7,25.15,21.89,26.99,821.560,2105.300,135.816666,17.06,2.4563,363,23935,1.98284,3.87,42938,,,,,,,,,,,,,,,,,,99999,99999,99999,99999,99999,99999,99999,99999,99999,99999,99999,99999
28:50:19,1510860480,2017-11-16T19:28:05,0.804,1291.1,25.22,21.97,27.05,821.680,2105.550,136.666672,15.67,2.4562,363,23939,1.97485,3.87,42933,,,,,,,,,,,,,,,,,,99999,99999,99999,99999,99999,99999,99999,99999,99999,99999,99999,99999
28:50:49,1510860510,2017-11-16T19:28:35,0.808,1291.5,25.30,22.01,27.17,821.740,2105.840,137.233337,15.66,2.4558,363,23939,1.98376,3.87,42927,,,,,,,,,,,,,,,,,,99999,99999,99999,99999,99999,99999,99999,99999,99999,99999,99999,99999
28:51:19,1510860540,2017-11-16T19:29:05,0.806,1291.9,25.38,22.06,27.25,821.670,2106.070,134.783340,17.06,2.4552,363,23942,1.97946,3.87,42922,,,,,,,,,,,,,,,,,,99999,99999,99999,99999,99999,99999,99999,99999,99999,99999,99999,99999
28:51:49,1510860570,2017-11-16T19:29:35,0.809,1292.3,25.45,22.12,27.34,821.760,2106.310,134.883331,15.67,2.4551,363,23942,1.98561,3.87,42917,,,,,,,,,,,,,,,,,,99999,99999,99999,99999,99999,99999,99999,99999,99999,99999,99999,99999
28:52:19,1510860600,2017-11-16T19:30:05,0.809,1292.7,25.52,22.14,27.39,821.640,2106.560,137.083328,15.05,2.4549,363,23945,1.98684,3.87,42911,,,,,,,,,,,,,,,,,,99999,99999,99999,99999,99999,99999,99999,99999,99999,99999,99999,99999
28:52:49,1510860630,2017-11-16T19:30:35,0.808,1293.1,25.61,22.22,27.42,821.690,2106.910,136.683334,15.34,2.4545,363,23946,1.98284,3.87,42906,,,,,,,,,,,,,,,,,,99999,99999,99999,99999,99999,99999,99999,99999,99999,99999,99999,99999
28:53:19,1510860660,2017-11-16T19:31:05,0.810,1293.5,25.68,22.26,27.50,821.680,2107.140,136.483337,14.96,2.4543,363,23950,1.98684,3.87,42900,,,,,,,,,,,,,,,,,,99999,99999,99999,99999,99999,99999,99999,99999,99999,99999,99999,99999
28:53:49,1510860690,2017-11-16T19:31:35,0.806,1293.9,25.75,22.32,27.63,821.660,2107.370,135.783340,15.24,2.4539,363,23950,1.97731,3.87,42895,,,,,,,,,,,,,,,,,,99999,99999,99999,99999,99999,99999,99999,99999,99999,99999,99999,99999
28:54:19,1510860720,2017-11-16T19:32:05,0.808,1294.3,25.81,22.36,27.67,821.590,2107.620,138.116669,14.57,2.4538,363,23952,1.98376,3.87,42890,,,,,,,,,,,,,,,,,,99999,99999,99999,99999,99999,99999,99999,99999,99999,99999,99999,99999
28:54:49,1510860750,2017-11-16T19:32:35,0.807,1294.7,25.89,22.41,27.73,821.550,2107.850,135.649994,14.44,2.4534,363,23953,1.98069,3.87,42884,,,,,,,,,,,,,,,,,,99999,99999,99999,99999,99999,99999,99999,99999,99999,99999,99999,99999
28:55:19,1510860780,2017-11-16T19:33:05,0.808,1295.1,25.95,22.46,27.83,821.560,2108.080,135.166672,14.32,2.4532,363,23955,1.98100,3.87,42879,,,,,,,,,,,,,,,,,,99999,99999,99999,99999,99999,99999,99999,99999,99999,99999,99999,99999
28:55:49,1510860810,2017-11-16T19:33:35,0.807,1295.5,26.02,22.50,27.85,821.490,2108.330,136.050003,15.57,2.4527,363,23956,1.97946,3.87,42873,,,,,,,,,,,,,,,,,,99999,99999,99999,99999,99999,99999,99999,99999,99999,99999,99999,99999
28:56:19,1510860840,2017-11-16T19:34:05,0.807,1295.9,26.09,22.54,27.97,821.550,2108.620,135.566666,14.81,2.4526,363,23958,1.97915,3.87,42868,,,,,,,,,,,,,,,,,,99999,99999,99999,99999,99999,99999,99999,99999,99999,99999,99999,99999
28:56:49,1510860870,2017-11-16T19:34:35,0.811,1296.4,26.15,22.61,28.00,821.570,2108.790,138.083328,15.04,2.4523,363,23958,1.98992,3.87,42863,,,,,,,,,,,,,,,,,,99999,99999,99999,99999,99999,99999,99999,99999,99999,99999,99999,99999
28:57:19,1510860900,2017-11-16T19:35:05,0.808,1296.8,26.21,22.65,28.08,821.600,2109.040,135.533340,15.10,2.4520,363,23961,1.98130,3.87,42857,,,,,,,,,,,,,,,,,,99999,99999,99999,99999,99999,99999,99999,99999,99999,99999,99999,99999
28:57:49,1510860930,2017-11-16T19:35:35,0.811,1297.2,26.28,22.70,28.13,821.530,2109.210,136.850006,15.44,2.4516,363,23959,1.98900,3.87,42852,,,,,,,,,,,,,,,,,,99999,99999,99999,99999,99999,99999,99999,99999,99999,99999,99999,99999
28:58:19,1510860960,2017-11-16T19:36:05,0.811,1297.6,26.35,22.75,28.25,821.570,2109.500,136.500000,14.39,2.4515,363,23961,1.98930,3.87,42846,,,,,,,,,,,,,,,,,,99999,99999,99999,99999,99999,99999,99999,99999,99999,99999,99999,99999
28:58:49,1510860990,2017-11-16T19:36:35,0.809,1298.0,26.39,22.79,28.26,821.560,2109.620,136.783340,14.93,2.4512,363,23964,1.98315,3.87,42841,,,,,,,,,,,,,,,,,,99999,99999,99999,99999,99999,99999,99999,99999,99999,99999,99999,99999
28:59:19,1510861020,2017-11-16T19:37:05,0.811,1298.4,26.44,22.83,28.33,821.580,2109.820,136.366669,13.59,2.4513,363,23967,1.98746,3.87,42836,,,,,,,,,,,,,,,,,,99999,99999,99999,99999,99999,99999,99999,99999,99999,99999,99999,99999
28:59:49,1510861050,2017-11-16T19:37:35,0.810,1298.8,26.48,22.86,28.39,821.620,2109.980,136.983337,14.90,2.4509,363,23966,1.98407,3.87,42830,,,,,,,,,,,,,,,,,,99999,99999,99999,99999,99999,99999,99999,99999,99999,99999,99999,99999
29:00:19,1510861080,2017-11-16T19:38:05,0.809,1299.2,26.52,22.88,28.42,821.580,2110.110,135.766663,13.45,2.4510,363,23969,1.98315,3.87,42825,,,,,,,,,,,,,,,,,,99999,99999,99999,99999,99999,99999,99999,99999,99999,99999,99999,99999
29:00:49,1510861110,2017-11-16T19:38:35,0.810,1299.6,26.55,22.92,28.42,821.580,2110.170,136.899994,14.77,2.4506,363,23970,1.98561,3.87,42819,,,,,,,,,,,,,,,,,,99999,99999,99999,99999,99999,99999,99999,99999,99999,99999,99999,99999
29:01:19,1510861140,2017-11-16T19:39:05,0.809,1300.0,26.58,22.94,28.41,821.570,2110.270,136.449997,15.34,2.4504,363,23968,1.98345,3.87,42814,,,,,,,,,,,,,,,,,,99999,99999,99999,99999,99999,99999,99999,99999,99999,99999,99999,99999
29:01:49,1510861170,2017-11-16T19:39:35,0.813,1300.4,26.60,22.97,28.50,821.600,2110.340,138.083328,14.82,2.4504,363,23971,1.99300,3.87,42809,,,,,,,,,,,,,,,,,,99999,99999,99999,99999,99999,99999,99999,99999,99999,99999,99999,99999
29:02:19,1510861200,2017-11-16T19:40:05,0.814,1300.8,26.64,22.98,28.52,821.580,2110.520,137.066666,14.77,2.4502,363,23971,1.99362,3.87,42803,,,,,,,,,,,,,,,,,,99999,99999,99999,99999,99999,99999,99999,99999,99999,99999,99999,99999
29:02:49,1510861230,2017-11-16T19:40:35,0.810,1301.2,26.65,23.02,28.53,821.520,2110.520,137.116669,15.40,2.4501,363,23972,1.98438,3.87,42798,,,,,,,,,,,,,,,,,,99999,99999,99999,99999,99999,99999,99999,99999,99999,99999,99999,99999
29:03:19,1510861260,2017-11-16T19:41:05,0.811,1301.6,26.65,22.99,28.53,821.470,2110.520,139.050003,15.29,2.4501,363,23974,1.98776,3.87,42792,,,,,,,,,,,,,,,,,,99999,99999,99999,99999,99999,99999,99999,99999,99999,99999,99999,99999
29:03:49,1510861290,2017-11-16T19:41:35,0.814,1302.0,26.65,23.00,28.50,821.520,2110.520,138.533340,15.40,2.4501,363,23972,1.99454,3.87,42787,,,,,,,,,,,,,,,,,,99999,99999,99999,99999,99999,99999,99999,99999,99999,99999,99999,99999
29:04:19,1510861320,2017-11-16T19:42:05,0.814,1302.4,26.64,22.98,28.52,821.530,2110.520,139.416672,15.63,2.4501,363,23971,1.99331,3.87,42781,,,,,,,,,,,,,,,,,,99999,99999,99999,99999,99999,99999,99999,99999,99999,99999,99999,99999
29:04:49,1510861350,2017-11-16T19:42:35,0.814,1302.8,26.61,22.96,28.49,821.560,2110.340,138.466660,15.65,2.4501,363,23971,1.99516,3.87,42776,,,,,,,,,,,,,,,,,,99999,99999,99999,99999,99999,99999,99999,99999,99999,99999,99999,99999
29:05:19,1510861380,2017-11-16T19:43:05,0.810,1303.3,26.57,22.93,28.45,821.630,2110.230,137.750000,15.47,2.4504,363,23971,1.98561,3.87,42770,,,,,,,,,,,,,,,,,,99999,99999,99999,99999,99999,99999,99999,99999,99999,99999,99999,99999
29:05:49,1510861410,2017-11-16T19:43:35,0.812,1303.7,26.53,22.91,28.45,821.660,2110.110,138.100006,15.76,2.4505,363,23967,1.98900,3.87,42765,,,,,,,,,,,,,,,,,,99999,99999,99999,99999,99999,99999,99999,99999,99999,99999,99999,99999
29:06:19,1510861440,2017-11-16T19:44:05,0.813,1304.1,26.49,22.88,28.43,821.590,2109.980,138.016663,15.70,2.4507,363,23970,1.99362,3.87,42760,,,,,,,,,,,,,,,,,,99999,99999,99999,99999,99999,99999,99999,99999,99999,99999,99999,99999
29:06:49,1510861470,2017-11-16T19:44:35,0.814,1304.5,26.43,22.84,28.35,821.690,2109.750,136.816666,15.69,2.4510,363,23968,1.99424,3.87,42754,,,,,,,,,,,,,,,,,,99999,99999,99999,99999,99999,99999,99999,99999,99999,99999,99999,99999
29:07:19,1510861500,2017-11-16T19:45:05,0.813,1304.9,26.38,22.83,28.31,821.730,2109.570,137.666672,15.72,2.4512,363,23967,1.99177,3.87,42749,,,,,,,,,,,,,,,,,,99999,99999,99999,99999,99999,99999,99999,99999,99999,99999,99999,99999
29:07:49,1510861530,2017-11-16T19:45:35,0.810,1305.3,26.33,22.78,28.25,821.680,2109.400,136.750000,15.04,2.4515,363,23966,1.98622,3.86,42743,,,,,,,,,,,,,,,,,,99999,99999,99999,99999,99999,99999,99999,99999,99999,99999,99999,99999
29:08:19,1510861560,2017-11-16T19:46:05,0.808,1305.7,26.27,22.76,28.18,821.670,2109.210,136.250000,16.10,2.4516,363,23969,1.98161,3.87,42738,,,,,,,,,,,,,,,,,,99999,99999,99999,99999,99999,99999,99999,99999,99999,99999,99999,99999
29:08:49,1510861590,2017-11-16T19:46:35,0.807,1306.1,26.19,22.72,28.13,821.630,2108.920,135.800003,15.48,2.4520,363,23965,1.97946,3.86,42733,,,,,,,,,,,,,,,,,,99999,99999,99999,99999,99999,99999,99999,99999,99999,99999,99999,99999
29:09:19,1510861620,2017-11-16T19:47:05,0.809,1306.5,26.13,22.68,28.07,821.540,2108.730,137.399994,15.85,2.4522,363,23964,1.98376,3.86,42727,,,,,,,,,,,,,,,,,,99999,99999,99999,99999,99999,99999,99999,99999,99999,99999,99999,99999
29:09:49,1510861650,2017-11-16T19:47:35,0.808,1306.9,26.08,22.67,28.02,821.530,2108.560,135.216660,15.95,2.4524,363,23962,1.98253,3.86,42722,,,,,,,,,,,,,,,,,,99999,99999,99999,99999,99999,99999,99999,99999,99999,99999,99999,99999
29:10:19,1510861680,2017-11-16T19:48:05,0.809,1307.3,26.01,22.63,27.95,821.440,2108.270,135.233337,15.77,2.4527,363,23963,1.98345,3.86,42716,,,,,,,,,,,,,,,,,,99999,99999,99999,99999,99999,99999,99999,99999,99999,99999,99999,99999
29:10:49,1510861710,2017-11-16T19:48:35,0.807,1307.7,25.94,22.59,27.88,821.480,2108.080,136.199997,16.45,2.4530,363,23958,1.98038,3.86,42711,,,,,,,,,,,,,,,,,,99999,99999,99999,99999,99999,99999,99999,99999,99999,99999,99999,99999
29:11:19,1510861740,2017-11-16T19:49:05,0.809,1308.1,25.89,22.57,27.81,821.410,2107.850,137.100006,16.64,2.4531,363,23960,1.98345,3.86,42705,,,,,,,,,,,,,,,,,,99999,99999,99999,99999,99999,99999,99999,99999,99999,99999,99999,99999
29:11:49,1510861770,2017-11-16T19:49:35,0.806,1308.5,25.83,22.53,27.75,821.370,2107.660,134.983337,15.84,2.4535,363,23958,1.97761,3.86,42700,,,,,,,,,,,,,,,,,,99999,99999,99999,99999,99999,99999,99999,99999,99999,99999,99999,99999
29:12:19,1510861800,2017-11-16T19:50:05,0.809,1308.9,25.77,22.49,27.68,821.380,2107.430,136.483337,16.13,2.4537,363,23955,1.98561,3.86,42695,,,,,,,,,,,,,,,,,,99999,99999,99999,99999,99999,99999,99999,99999,99999,99999,99999,99999
29:12:49,1510861830,2017-11-16T19:50:35,0.804,1309.3,25.72,22.45,27.63,821.320,2107.260,135.899994,16.26,2.4539,363,23957,1.97362,3.86,42689,,,,,,,,,,,,,,,,,,99999,99999,99999,99999,99999,99999,99999,99999,99999,99999,99999,99999
29:13:19,1510861860,2017-11-16T19:51:05,0.806,1309.7,25.66,22.41,27.55,821.360,2107.010,135.483337,15.51,2.4542,363,23955,1.97792,3.86,42684,,,,,,,,,,,,,,,,,,99999,99999,99999,99999,99999,99999,99999,99999,99999,99999,99999,99999
29:13:49,1510861890,2017-11-16T19:51:35,0.806,1310.1,25.59,22.37,27.53,821.400,2106.850,135.216660,15.84,2.4546,363,23954,1.97731,3.86,42678,,,,,,,,,,,,,,,,,,99999,99999,99999,99999,99999,99999,99999,99999,99999,99999,99999,99999
29:14:19,1510861920,2017-11-16T19:52:05,0.805,1310.5,25.53,22.33,27.44,821.410,2106.660,134.616669,16.24,2.4548,363,23950,1.97638,3.86,42673,,,,,,,,,,,,,,,,,,99999,99999,99999,99999,99999,99999,99999,99999,99999,99999,99999,99999
29:14:49,1510861950,2017-11-16T19:52:35,0.804,1310.9,25.47,22.30,27.41,821.450,2106.430,136.033340,15.81,2.4551,363,23950,1.97485,3.86,42668,,,,,,,,,,,,,,,,,,99999,99999,99999,99999,99999,99999,99999,99999,99999,99999,99999,99999
29:15:19,1510861980,2017-11-16T19:53:05,0.805,1311.3,25.42,22.28,27.33,821.530,2106.240,133.416672,15.89,2.4553,363,23953,1.97761,3.86,42662,,,,,,,,,,,,,,,,,,99999,99999,99999,99999,99999,99999,99999,99999,99999,99999,99999,99999
29:15:49,1510862010,2017-11-16T19:53:35,0.807,1311.7,25.38,22.26,27.27,821.510,2106.070,136.516663,15.23,2.4555,363,23950,1.98161,3.86,42657,,,,,,,,,,,,,,,,,,99999,99999,99999,99999,99999,99999,99999,99999,99999,99999,99999,99999
29:16:19,1510862040,2017-11-16T19:54:05,0.808,1312.1,25.34,22.25,27.26,821.570,2105.950,132.949997,15.99,2.4556,363,23948,1.98376,3.86,42652,,,,,,,,,,,,,,,,,,99999,99999,99999,99999,99999,99999,99999,99999,99999,99999,99999,99999
29:16:49,1510862070,2017-11-16T19:54:35,0.808,1312.5,25.28,22.24,27.19,821.660,2105.780,134.383331,15.36,2.4560,363,23948,1.98376,3.86,42646,,,,,,,,,,,,,,,,,,99999,99999,99999,99999,99999,99999,99999,99999,99999,99999,99999,99999
29:17:19,1510862100,2017-11-16T19:55:05,0.803,1312.9,25.24,22.23,27.13,821.480,2105.590,132.949997,15.64,2.4560,363,23949,1.97332,3.86,42641,,,,,,,,,,,,,,,,,,99999,99999,99999,99999,99999,99999,99999,99999,99999,99999,99999,99999
29:17:49,1510862130,2017-11-16T19:55:35,0.804,1313.4,25.20,22.25,27.13,821.570,2105.490,135.250000,16.77,2.4561,363,23949,1.97578,3.86,42635,,,,,,,,,,,,,,,,,,99999,99999,99999,99999,99999,99999,99999,99999,99999,99999,99999,99999
29:18:19,1510862160,2017-11-16T19:56:05,0.805,1313.8,25.14,22.22,27.05,821.490,2105.240,134.933334,17.01,2.4563,363,23947,1.97761,3.86,42630,,,,,,,,,,,,,,,,,,99999,99999,99999,99999,99999,99999,99999,99999,99999,99999,99999,99999
29:18:49,1510862190,2017-11-16T19:56:35,0.801,1314.2,25.11,22.22,26.97,821.570,2105.130,134.766663,16.84,2.4564,363,23947,1.96872,3.86,42625,,,,,,,,,,,,,,,,,,99999,99999,99999,99999,99999,99999,99999,99999,99999,99999,99999,99999
29:19:19,1510862220,2017-11-16T19:57:05,0.804,1314.6,25.06,22.20,26.95,821.660,2104.940,133.866669,16.13,2.4567,363,23947,1.97638,3.86,42619,,,,,,,,,,,,,,,,,,99999,99999,99999,99999,99999,99999,99999,99999,99999,99999,99999,99999
29:19:49,1510862250,2017-11-16T19:57:35,0.803,1315.0,25.01,22.17,26.92,821.560,2104.840,133.066666,17.48,2.4568,363,23945,1.97270,3.86,42614,,,,,,,,,,,,,,,,,,99999,99999,99999,99999,99999,99999,99999,99999,99999,99999,99999,99999
29:20:19,1510862280,2017-11-16T19:58:05,0.805,1315.4,24.96,22.12,26.89,821.610,2104.590,135.149994,17.52,2.4570,363,23945,1.97669,3.86,42609,,,,,,,,,,,,,,,,,,99999,99999,99999,99999,99999,99999,99999,99999,99999,99999,99999,99999
29:20:49,1510862310,2017-11-16T19:58:35,0.803,1315.8,24.91,22.10,26.81,821.700,2104.490,133.166672,17.51,2.4573,363,23947,1.97362,3.86,42603,,,,,,,,,,,,,,,,,,99999,99999,99999,99999,99999,99999,99999,99999,99999,99999,99999,99999
29:21:19,1510862340,2017-11-16T19:59:05,0.802,1316.2,24.86,22.09,26.77,821.650,2104.240,132.766663,18.20,2.4573,363,23945,1.96994,3.86,42598,,,,,,,,,,,,,,,,,,99999,99999,99999,99999,99999,99999,99999,99999,99999,99999,99999,99999
29:21:49,1510862370,2017-11-16T19:59:35,0.803,1316.6,24.81,22.05,26.73,821.620,2104.070,134.800003,18.63,2.4574,363,23944,1.97424,3.86,42592,,,,,,,,,,,,,,,,,,99999,99999,99999,99999,99999,99999,99999,99999,99999,99999,99999,99999
29:22:19,1510862400,2017-11-16T20:00:05,0.802,1317.0,24.74,22.00,26.68,821.580,2103.880,134.766663,17.83,2.4579,363,23942,1.97087,3.86,42587,,,,,,,,,,,,,,,,,,99999,99999,99999,99999,99999,99999,99999,99999,99999,99999,99999,99999
29:22:49,1510862430,2017-11-16T20:00:35,0.801,1317.4,24.70,21.97,26.60,821.660,2103.710,134.333328,17.62,2.4581,363,23942,1.96964,3.86,42582,,,,,,,,,,,,,,,,,,99999,99999,99999,99999,99999,99999,99999,99999,99999,99999,99999,99999
29:23:19,1510862460,2017-11-16T20:01:05,0.800,1317.8,24.62,21.90,26.55,821.500,2103.480,132.600006,17.81,2.4585,363,23940,1.96749,3.86,42576,,,,,,,,,,,,,,,,,,99999,99999,99999,99999,99999,99999,99999,99999,99999,99999,99999,99999
29:23:49,1510862490,2017-11-16T20:01:35,0.802,1318.2,24.57,21.86,26.44,821.620,2103.230,132.316666,17.90,2.4586,363,23939,1.97056,3.86,42571,,,,,,,,,,,,,,,,,,99999,99999,99999,99999,99999,99999,99999,99999,99999,99999,99999,99999
29:24:19,1510862520,2017-11-16T20:02:05,0.798,1318.6,24.51,21.81,26.44,821.550,2103.070,133.399994,17.74,2.4589,363,23936,1.96229,3.86,42566,,,,,,,,,,,,,,,,,,99999,99999,99999,99999,99999,99999,99999,99999,99999,99999,99999,99999
29:24:49,1510862550,2017-11-16T20:02:35,0.803,1319.0,24.44,21.75,26.36,821.540,2102.770,134.949997,17.76,2.4592,363,23934,1.97362,3.86,42560,,,,,,,,,,,,,,,,,,99999,99999,99999,99999,99999,99999,99999,99999,99999,99999,99999,99999
29:25:19,1510862580,2017-11-16T20:03:05,0.802,1319.4,24.39,21.71,26.31,821.530,2102.650,134.683334,18.14,2.4594,363,23933,1.97148,3.86,42555,,,,,,,,,,,,,,,,,,99999,99999,99999,99999,99999,99999,99999,99999,99999,99999,99999,99999
29:25:49,1510862610,2017-11-16T20:03:35,0.799,1319.8,24.33,21.68,26.23,821.600,2102.480,131.266663,18.28,2.4597,363,23930,1.96566,3.86,42550,,,,,,,,,,,,,,,,,,99999,99999,99999,99999,99999,99999,99999,99999,99999,99999,99999,99999
29:26:19,1510862640,2017-11-16T20:04:05,0.803,1320.2,24.27,21.65,26.18,821.530,2102.190,131.750000,18.14,2.4599,363,23930,1.97455,3.86,42544,,,,,,,,,,,,,,,,,,99999,99999,99999,99999,99999,99999,99999,99999,99999,99999,99999,99999
29:26:49,1510862670,2017-11-16T20:04:35,0.799,1320.6,24.22,21.62,26.15,821.430,2102.060,134.199997,18.17,2.4601,363,23931,1.96443,3.86,42539,,,,,,,,,,,,,,,,,,99999,99999,99999,99999,99999,99999,99999,99999,99999,99999,99999,99999
29:27:19,1510862700,2017-11-16T20:05:05,0.797,1321.0,24.17,21.59,26.05,821.440,2101.830,133.600006,18.60,2.4602,363,23928,1.96107,3.86,42534,,,,,,,,,,,,,,,,,,99999,99999,99999,99999,99999,99999,99999,99999,99999,99999,99999,99999
29:27:49,1510862730,2017-11-16T20:05:35,0.801,1321.4,24.11,21.55,26.03,821.540,2101.650,133.250000,18.44,2.4605,363,23929,1.96994,3.86,42528,,,,,,,,,,,,,,,,,,99999,99999,99999,99999,99999,99999,99999,99999,99999,99999,99999,99999
29:28:19,1510862760,2017-11-16T20:06:05,0.801,1321.8,24.07,21.53,25.97,821.580,2101.540,133.183334,18.37,2.4607,363,23927,1.96994,3.86,42523,,,,,,,,,,,,,,,,,,99999,99999,99999,99999,99999,99999,99999,99999,99999,99999,99999,99999
29:28:49,1510862790,2017-11-16T20:06:35,0.798,1322.2,24.01,21.46,25.91,821.590,2101.290,133.883331,18.10,2.4610,363,23924,1.96505,3.86,42518,,,,,,,,,,,,,,,,,,99999,99999,99999,99999,99999,99999,99999,99999,99999,99999,99999,99999
29:29:19,1510862820,2017-11-16T20:07:05,0.802,1322.6,23.96,21.42,25.84,821.440,2101.120,132.983337,18.23,2.4612,363,23923,1.97424,3.86,42512,,,,,,,,,,,,,,,,,,99999,99999,99999,99999,99999,99999,99999,99999,99999,99999,99999,99999
29:29:49,1510862850,2017-11-16T20:07:35,0.800,1323.0,23.90,21.38,25.80,821.560,2100.890,133.683334,18.50,2.4614,363,23921,1.96964,3.86,42507,,,,,,,,,,,,,,,,,,99999,99999,99999,99999,99999,99999,99999,99999,99999,99999,99999,99999
29:30:19,1510862880,2017-11-16T20:08:05,0.796,1323.4,23.84,21.35,25.75,821.550,2100.710,132.883331,18.73,2.4617,363,23923,1.96046,3.86,42502,,,,,,,,,,,,,,,,,,99999,99999,99999,99999,99999,99999,99999,99999,99999,99999,99999,99999
29:30:49,1510862910,2017-11-16T20:08:35,0.796,1323.8,23.79,21.30,25.70,821.510,2100.580,130.333328,19.39,2.4618,363,23918,1.96015,3.86,42496,,,,,,,,,,,,,,,,,,99999,99999,99999,99999,99999,99999,99999,99999,99999,99999,99999,99999
29:31:19,1510862940,2017-11-16T20:09:05,0.797,1324.2,23.74,21.25,25.65,821.600,2100.350,132.666672,18.96,2.4621,363,23919,1.96229,3.86,42491,,,,,,,,,,,,,,,,,,99999,99999,99999,99999,99999,99999,99999,99999,99999,99999,99999,99999
29:31:49,1510862970,2017-11-16T20:09:35,0.797,1324.6,23.68,21.18,25.57,821.560,2100.180,132.699997,19.31,2.4623,363,23919,1.96260,3.86,42486,,,,,,,,,,,,,,,,,,99999,99999,99999,99999,99999,99999,99999,99999,99999,99999,99999,99999
29:32:19,1510863000,2017-11-16T20:10:05,0.799,1325.0,23.63,21.15,25.52,821.470,2099.950,131.983337,19.18,2.4625,363,23915,1.96749,3.86,42480,,,,,,,,,,,,,,,,,,99999,99999,99999,99999,99999,99999,99999,99999,99999,99999,99999,99999
29:32:49,1510863030,2017-11-16T20:10:35,0.795,1325.4,23.59,21.13,25.47,821.420,2099.830,131.300003,19.19,2.4627,363,23915,1.95832,3.86,42475,,,,,,,,,,,,,,,,,,99999,99999,99999,99999,99999,99999,99999,99999,99999,99999,99999,99999
29:33:19,1510863060,2017-11-16T20:11:05,0.796,1325.8,23.55,21.10,25.44,821.510,2099.700,130.250000,19.45,2.4628,363,23915,1.95954,3.86,42470,,,,,,,,,,,,,,,,,,99999,99999,99999,99999,99999,99999,99999,99999,99999,99999,99999,99999
29:33:49,1510863090,2017-11-16T20:11:35,0.796,1326.2,23.51,21.08,25.42,821.310,2099.540,131.816666,19.23,2.4630,363,23913,1.96107,3.86,42464,,,,,,,,,,,,,,,,,,99999,99999,99999,99999,99999,99999,99999,99999,99999,99999,99999,99999
29:34:19,1510863120,2017-11-16T20:12:05,0.796,1326.6,23.48,21.04,25.38,821.370,2099.410,130.050003,20.81,2.4629,363,23913,1.96137,3.86,42459,,,,,,,,,,,,,,,,,,99999,99999,99999,99999,99999,99999,99999,99999,99999,99999,99999,99999
29:34:49,1510863150,2017-11-16T20:12:35,0.799,1327.0,23.45,21.04,25.34,821.430,2099.340,131.966660,19.55,2.4632,363,23909,1.96749,3.86,42454,,,,,,,,,,,,,,,,,,99999,99999,99999,99999,99999,99999,99999,99999,99999,99999,99999,99999
29:35:19,1510863180,2017-11-16T20:13:05,0.797,1327.4,23.41,20.99,25.31,821.440,2099.240,132.916672,19.22,2.4635,363,23909,1.96443,3.86,42448,,,,,,,,,,,,,,,,,,99999,99999,99999,99999,99999,99999,99999,99999,99999,99999,99999,99999
29:35:49,1510863210,2017-11-16T20:13:35,0.798,1327.8,23.38,20.96,25.23,821.470,2099.050,131.416672,19.80,2.4635,363,23911,1.96688,3.86,42443,,,,,,,,,,,,,,,,,,99999,99999,99999,99999,99999,99999,99999,99999,99999,99999,99999,99999
29:36:19,1510863240,2017-11-16T20:14:05,0.795,1328.2,23.35,20.93,25.25,821.590,2099.010,131.683334,20.55,2.4636,363,23909,1.95740,3.86,42438,,,,,,,,,,,,,,,,,,99999,99999,99999,99999,99999,99999,99999,99999,99999,99999,99999,99999
29:36:49,1510863270,2017-11-16T20:14:35,0.798,1328.6,23.32,20.91,25.18,821.590,2098.890,131.333328,19.87,2.4638,363,23909,1.96719,3.86,42433,,,,,,,,,,,,,,,,,,99999,99999,99999,99999,99999,99999,99999,99999,99999,99999,99999,99999
29:37:19,1510863300,2017-11-16T20:15:05,0.796,1329.0,23.28,20.90,25.17,821.570,2098.760,130.616669,20.54,2.4639,363,23908,1.96107,3.86,42427,,,,,,,,,,,,,,,,,,99999,99999,99999,99999,99999,99999,99999,99999,99999,99999,99999,99999
29:37:49,1510863330,2017-11-16T20:15:35,0.797,1329.4,23.27,20.86,25.14,821.500,2098.760,131.899994,20.12,2.4640,363,23905,1.96443,3.86,42422,,,,,,,,,,,,,,,,,,99999,99999,99999,99999,99999,99999,99999,99999,99999,99999,99999,99999
29:38:19,1510863360,2017-11-16T20:16:05,0.797,1329.8,23.25,20.85,25.10,821.530,2098.700,131.133331,20.17,2.4641,363,23907,1.96474,3.86,42417,,,,,,,,,,,,,,,,,,99999,99999,99999,99999,99999,99999,99999,99999,99999,99999,99999,99999
29:38:49,1510863390,2017-11-16T20:16:35,0.795,1330.2,23.23,20.86,25.10,821.480,2098.530,130.550003,22.32,2.4638,363,23906,1.95954,3.86,42411,,,,,,,,,,,,,,,,,,99999,99999,99999,99999,99999,99999,99999,99999,99999,99999,99999,99999
29:39:19,1510863420,2017-11-16T20:17:05,0.797,1330.6,23.22,20.85,25.03,821.460,2098.530,133.316666,20.42,2.4641,363,23907,1.96321,3.86,42406,,,,,,,,,,,,,,,,,,99999,99999,99999,99999,99999,99999,99999,99999,99999,99999,99999,99999
29:39:49,1510863450,2017-11-16T20:17:35,0.797,1330.9,23.20,20.83,25.03,821.490,2098.470,133.199997,21.17,2.4641,363,23906,1.96413,3.86,42401,,,,,,,,,,,,,,,,,,99999,99999,99999,99999,99999,99999,99999,99999,99999,99999,99999,99999
29:40:19,1510863480,2017-11-16T20:18:05,0.797,1331.3,23.18,20.81,25.03,821.420,2098.400,134.633331,20.74,2.4643,363,23904,1.96443,3.86,42395,,,,,,,,,,,,,,,,,,99999,99999,99999,99999,99999,99999,99999,99999,99999,99999,99999,99999
29:40:49,1510863510,2017-11-16T20:18:35,0.794,1331.7,23.16,20.78,25.00,821.370,2098.370,131.166672,20.71,2.4644,363,23905,1.95618,3.86,42390,,,,,,,,,,,,,,,,,,99999,99999,99999,99999,99999,99999,99999,99999,99999,99999,99999,99999
29:41:19,1510863540,2017-11-16T20:19:05,0.798,1332.1,23.14,20.75,25.00,821.450,2098.300,133.083328,20.50,2.4645,363,23903,1.96596,3.86,42385,,,,,,,,,,,,,,,,,,99999,99999,99999,99999,99999,99999,99999,99999,99999,99999,99999,99999
29:41:49,1510863570,2017-11-16T20:19:35,0.795,1332.5,23.12,20.70,24.92,821.450,2098.240,132.149994,20.55,2.4646,363,23901,1.95954,3.86,42380,,,,,,,,,,,,,,,,,,99999,99999,99999,99999,99999,99999,99999,99999,99999,99999,99999,99999
29:42:19,1510863600,2017-11-16T20:20:05,0.798,1332.9,23.10,20.68,24.94,821.330,2098.120,132.449997,20.71,2.4646,363,23901,1.96627,3.86,42374,,,,,,,,,,,,,,,,,,99999,99999,99999,99999,99999,99999,99999,99999,99999,99999,99999,99999
29:42:49,1510863630,2017-11-16T20:20:35,0.797,1333.3,23.06,20.64,24.89,821.390,2098.010,131.166672,20.44,2.4649,363,23901,1.96566,3.86,42369,,,,,,,,,,,,,,,,,,99999,99999,99999,99999,99999,99999,99999,99999,99999,99999,99999,99999
29:43:19,1510863660,2017-11-16T20:21:05,0.793,1333.7,23.03,20.61,24.88,821.390,2097.880,130.633331,20.34,2.4650,363,23901,1.95526,3.86,42364,,,,,,,,,,,,,,,,,,99999,99999,99999,99999,99999,99999,99999,99999,99999,99999,99999,99999
29:43:49,1510863690,2017-11-16T20:21:35,0.795,1334.1,23.01,20.61,24.86,821.370,2097.820,130.750000,20.57,2.4651,363,23899,1.95923,3.86,42358,,,,,,,,,,,,,,,,,,99999,99999,99999,99999,99999,99999,99999,99999,99999,99999,99999,99999
29:44:19,1510863720,2017-11-16T20:22:05,0.794,1334.5,23.00,20.60,24.81,821.430,2097.820,130.266663,21.16,2.4651,363,23898,1.95709,3.86,42353,,,,,,,,,,,,,,,,,,99999,99999,99999,99999,99999,99999,99999,99999,99999,99999,99999,99999
29:44:49,1510863750,2017-11-16T20:22:35,0.794,1334.9,22.99,20.59,24.78,821.430,2097.780,130.016663,21.01,2.4651,363,23898,1.95679,3.86,42348,,,,,,,,,,,,,,,,,,99999,99999,99999,99999,99999,99999,99999,99999,99999,99999,99999,99999
29:45:19,1510863780,2017-11-16T20:23:05,0.795,1335.3,22.97,20.56,24.83,821.460,2097.650,132.266663,20.63,2.4652,363,23896,1.95985,3.86,42343,,,,,,,,,,,,,,,,,,99999,99999,99999,99999,99999,99999,99999,99999,99999,99999,99999,99999
29:45:49,1510863810,2017-11-16T20:23:35,0.795,1335.7,22.95,20.57,24.78,821.340,2097.590,132.083328,20.49,2.4653,363,23899,1.96107,3.86,42337,,,,,,,,,,,,,,,,,,99999,99999,99999,99999,99999,99999,99999,99999,99999,99999,99999,99999
29:46:19,1510863840,2017-11-16T20:24:05,0.795,1336.1,22.96,20.58,24.76,821.300,2097.590,131.699997,20.86,2.4652,363,23898,1.96076,3.86,42332,,,,,,,,,,,,,,,,,,99999,99999,99999,99999,99999,99999,99999,99999,99999,99999,99999,99999
29:46:49,1510863870,2017-11-16T20:24:35,0.797,1336.5,22.95,20.57,24.76,821.260,2097.590,133.083328,20.94,2.4652,363,23897,1.96566,3.86,42327,,,,,,,,,,,,,,,,,,99999,99999,99999,99999,99999,99999,99999,99999,99999,99999,99999,99999
29:47:19,1510863900,2017-11-16T20:25:05,0.797,1336.9,22.95,20.56,24.78,821.150,2097.590,132.649994,21.30,2.4652,363,23895,1.96413,3.86,42321,,,,,,,,,,,,,,,,,,99999,99999,99999,99999,99999,99999,99999,99999,99999,99999,99999,99999
29:47:49,1510863930,2017-11-16T20:25:35,0.796,1337.3,22.94,20.55,24.75,821.230,2097.530,130.983337,21.22,2.4652,363,23896,1.96290,3.86,42316,,,,,,,,,,,,,,,,,,99999,99999,99999,99999,99999,99999,99999,99999,99999,99999,99999,99999
29:48:19,1510863960,2017-11-16T20:26:05,0.792,1337.7,22.93,20.53,24.75,821.180,2097.530,131.100006,21.69,2.4653,363,23893,1.95343,3.86,42311,,,,,,,,,,,,,,,,,,99999,99999,99999,99999,99999,99999,99999,99999,99999,99999,99999,99999
29:48:49,1510863990,2017-11-16T20:26:35,0.796,1338.1,22.92,20.52,24.72,821.290,2097.490,132.816666,22.11,2.4652,363,23896,1.96137,3.86,42306,,,,,,,,,,,,,,,,,,99999,99999,99999,99999,99999,99999,99999,99999,99999,99999,99999,99999
29:49:19,1510864020,2017-11-16T20:27:05,0.797,1338.5,22.90,20.48,24.70,821.270,2097.420,132.666672,20.76,2.4655,363,23892,1.96443,3.86,42300,,,,,,,,,,,,,,,,,,99999,99999,99999,99999,99999,99999,99999,99999,99999,99999,99999,99999
29:49:49,1510864050,2017-11-16T20:27:35,0.795,1338.9,22.88,20.44,24.68,821.320,2097.360,131.466660,21.50,2.4655,363,23893,1.95923,3.86,42295,,,,,,,,,,,,,,,,,,99999,99999,99999,99999,99999,99999,99999,99999,99999,99999,99999,99999
29:50:19,1510864080,2017-11-16T20:28:05,0.796,1339.3,22.85,20.43,24.64,821.330,2097.300,130.800003,21.90,2.4656,363,23892,1.96260,3.86,42290,,,,,,,,,,,,,,,,,,99999,99999,99999,99999,99999,99999,99999,99999,99999,99999,99999,99999
29:50:49,1510864110,2017-11-16T20:28:35,0.796,1339.7,22.84,20.38,24.62,821.330,2097.200,132.683334,21.07,2.4657,363,23891,1.96290,3.86,42284,,,,,,,,,,,,,,,,,,99999,99999,99999,99999,99999,99999,99999,99999,99999,99999,99999,99999
29:51:19,1510864140,2017-11-16T20:29:05,0.793,1340.1,22.81,20.35,24.62,821.340,2097.130,129.666672,20.62,2.4659,363,23890,1.95618,3.86,42279,,,,,,,,,,,,,,,,,,99999,99999,99999,99999,99999,99999,99999,99999,99999,99999,99999,99999
29:51:49,1510864170,2017-11-16T20:29:35,0.793,1340.5,22.79,20.33,24.58,821.290,2097.070,129.866669,20.65,2.4660,363,23889,1.95496,3.86,42274,,,,,,,,,,,,,,,,,,99999,99999,99999,99999,99999,99999,99999,99999,99999,99999,99999,99999
29:52:19,1510864200,2017-11-16T20:30:05,0.794,1340.9,22.77,20.31,24.57,821.300,2097.000,131.116669,20.46,2.4661,363,23889,1.95770,3.86,42269,,,,,,,,,,,,,,,,,,99999,99999,99999,99999,99999,99999,99999,99999,99999,99999,99999,99999
29:52:49,1510864230,2017-11-16T20:30:35,0.794,1341.3,22.74,20.29,24.54,821.190,2096.880,132.149994,20.75,2.4662,363,23885,1.95862,3.86,42263,,,,,,,,,,,,,,,,,,99999,99999,99999,99999,99999,99999,99999,99999,99999,99999,99999,99999
29:53:19,1510864260,2017-11-16T20:31:05,0.791,1341.7,22.72,20.29,24.54,821.230,2096.840,131.000000,21.18,2.4663,363,23887,1.95190,3.86,42258,,,,,,,,,,,,,,,,,,99999,99999,99999,99999,99999,99999,99999,99999,99999,99999,99999,99999
29:53:49,1510864290,2017-11-16T20:31:35,0.794,1342.1,22.71,20.27,24.49,821.180,2096.710,130.600006,21.01,2.4662,363,23888,1.95740,3.86,42253,,,,,,,,,,,,,,,,,,99999,99999,99999,99999,99999,99999,99999,99999,99999,99999,99999,99999
29:54:19,1510864320,2017-11-16T20:32:05,0.796,1342.5,22.70,20.25,24.49,821.130,2096.710,130.216660,21.22,2.4663,363,23888,1.96198,3.86,42247,,,,,,,,,,,,,,,,,,99999,99999,99999,99999,99999,99999,99999,99999,99999,99999,99999,99999
29:54:49,1510864350,2017-11-16T20:32:35,0.791,1342.9,22.69,20.27,24.45,821.130,2096.650,130.033340,22.44,2.4662,363,23891,1.95190,3.86,42242,,,,,,,,,,,,,,,,,,99999,99999,99999,99999,99999,99999,99999,99999,99999,99999,99999,99999
29:55:19,1510864380,2017-11-16T20:33:05,0.796,1343.3,22.68,20.28,24.45,821.180,2096.650,131.383331,21.12,2.4664,363,23887,1.96290,3.86,42237,,,,,,,,,,,,,,,,,,99999,99999,99999,99999,99999,99999,99999,99999,99999,99999,99999,99999
29:55:49,1510864410,2017-11-16T20:33:35,0.795,1343.7,22.68,20.28,24.44,821.210,2096.650,129.800003,21.61,2.4664,363,23890,1.96168,3.86,42232,,,,,,,,,,,,,,,,,,99999,99999,99999,99999,99999,99999,99999,99999,99999,99999,99999,99999
29:56:19,1510864440,2017-11-16T20:34:05,0.796,1344.1,22.69,20.29,24.48,821.180,2096.650,132.800003,21.90,2.4662,363,23889,1.96198,3.86,42226,,,,,,,,,,,,,,,,,,99999,99999,99999,99999,99999,99999,99999,99999,99999,99999,99999,99999
29:56:49,1510864470,2017-11-16T20:34:35,0.795,1344.5,22.69,20.32,24.45,821.310,2096.650,133.066666,22.96,2.4661,363,23891,1.96076,3.86,42221,,,,,,,,,,,,,,,,,,99999,99999,99999,99999,99999,99999,99999,99999,99999,99999,99999,99999
29:57:19,1510864500,2017-11-16T20:35:05,0.796,1344.9,22.70,20.35,24.45,821.230,2096.710,130.649994,21.38,2.4663,363,23891,1.96198,3.86,42216,,,,,,,,,,,,,,,,,,99999,99999,99999,99999,99999,99999,99999,99999,99999,99999,99999,99999
29:57:49,1510864530,2017-11-16T20:35:35,0.795,1345.3,22.70,20.37,24.49,821.210,2096.710,132.116669,21.43,2.4663,363,23890,1.96046,3.86,42211,,,,,,,,,,,,,,,,,,99999,99999,99999,99999,99999,99999,99999,99999,99999,99999,99999,99999
29:58:19,1510864560,2017-11-16T20:36:05,0.792,1345.7,22.72,20.38,24.50,821.180,2096.840,130.566666,21.88,2.4662,363,23891,1.95221,3.86,42205,,,,,,,,,,,,,,,,,,99999,99999,99999,99999,99999,99999,99999,99999,99999,99999,99999,99999
29:58:49,1510864590,2017-11-16T20:36:35,0.796,1346.0,22.73,20.41,24.50,821.250,2096.840,130.199997,21.61,2.4662,363,23891,1.96382,3.86,42200,,,,,,,,,,,,,,,,,,99999,99999,99999,99999,99999,99999,99999,99999,99999,99999,99999,99999
29:59:19,1510864620,2017-11-16T20:37:05,0.798,1346.4,22.75,20.40,24.50,821.220,2096.950,130.850006,21.48,2.4661,363,23890,1.96780,3.86,42195,,,,,,,,,,,,,,,,,,99999,99999,99999,99999,99999,99999,99999,99999,99999,99999,99999,99999
29:59:49,1510864650,2017-11-16T20:37:35,0.793,1346.8,22.77,20.44,24.48,821.190,2097.000,129.750000,21.15,2.4661,363,23892,1.95587,3.86,42189,,,,,,,,,,,,,,,,,,99999,99999,99999,99999,99999,99999,99999,99999,99999,99999,99999,99999
30:00:19,1510864680,2017-11-16T20:38:05,0.795,1347.2,22.76,20.43,24.50,821.220,2096.950,132.300003,21.50,2.4660,363,23892,1.96076,3.86,42184,,,,,,,,,,,,,,,,,,99999,99999,99999,99999,99999,99999,99999,99999,99999,99999,99999,99999
30:00:49,1510864710,2017-11-16T20:38:35,0.793,1347.6,22.77,20.43,24.52,821.190,2097.000,130.383331,21.46,2.4660,363,23890,1.95435,3.86,42179,,,,,,,,,,,,,,,,,,99999,99999,99999,99999,99999,99999,99999,99999,99999,99999,99999,99999
30:01:19,1510864740,2017-11-16T20:39:05,0.795,1348.0,22.78,20.44,24.54,821.210,2097.000,131.949997,21.70,2.4659,363,23892,1.96107,3.86,42174,,,,,,,,,,,,,,,,,,99999,99999,99999,99999,99999,99999,99999,99999,99999,99999,99999,99999
30:01:49,1510864770,2017-11-16T20:39:35,0.792,1348.4,22.78,20.42,24.54,821.160,2097.000,130.483337,21.75,2.4659,363,23891,1.95404,3.86,42168,,,,,,,,,,,,,,,,,,99999,99999,99999,99999,99999,99999,99999,99999,99999,99999,99999,99999
30:02:19,1510864800,2017-11-16T20:40:05,0.796,1348.8,22.79,20.40,24.52,821.190,2097.070,132.600006,21.37,2.4659,363,23890,1.96260,3.86,42163,,,,,,,,,,,,,,,,,,99999,99999,99999,99999,99999,99999,99999,99999,99999,99999,99999,99999
30:02:49,1510864830,2017-11-16T20:40:35,0.793,1349.2,22.79,20.38,24.54,821.210,2097.070,129.716660,22.06,2.4659,363,23889,1.95618,3.86,42158,,,,,,,,,,,,,,,,,,99999,99999,99999,99999,99999,99999,99999,99999,99999,99999,99999,99999
30:03:19,1510864860,2017-11-16T20:41:05,0.794,1349.6,22.79,20.39,24.52,821.270,2097.070,130.933334,22.68,2.4658,363,23889,1.95862,3.86,42152,,,,,,,,,,,,,,,,,,99999,99999,99999,99999,99999,99999,99999,99999,99999,99999,99999,99999
30:03:49,1510864890,2017-11-16T20:41:35,0.797,1350.0,22.80,20.37,24.50,821.310,2097.070,132.083328,21.35,2.4659,363,23893,1.96535,3.86,42147,,,,,,,,,,,,,,,,,,99999,99999,99999,99999,99999,99999,99999,99999,99999,99999,99999,99999
30:04:19,1510864920,2017-11-16T20:42:05,0.798,1350.4,22.80,20.39,24.52,821.280,2097.070,129.566666,21.26,2.4659,363,23890,1.96749,3.86,42142,,,,,,,,,,,,,,,,,,99999,99999,99999,99999,99999,99999,99999,99999,99999,99999,99999,99999
30:04:49,1510864950,2017-11-16T20:42:35,0.795,1350.8,22.79,20.38,24.57,821.210,2097.070,130.583328,20.90,2.4660,363,23891,1.96137,3.86,42137,,,,,,,,,,,,,,,,,,99999,99999,99999,99999,99999,99999,99999,99999,99999,99999,99999,99999
30:05:19,1510864980,2017-11-16T20:43:05,0.793,1351.2,22.81,20.39,24.56,821.310,2097.130,129.850006,21.25,2.4659,363,23892,1.95496,3.86,42131,,,,,,,,,,,,,,,,,,99999,99999,99999,99999,99999,99999,99999,99999,99999,99999,99999,99999
30:05:49,1510865010,2017-11-16T20:43:35,0.794,1351.6,22.81,20.38,24.56,821.340,2097.130,129.649994,21.52,2.4658,363,23891,1.95709,3.86,42126,,,,,,,,,,,,,,,,,,99999,99999,99999,99999,99999,99999,99999,99999,99999,99999,99999,99999
30:06:19,1510865040,2017-11-16T20:44:05,0.793,1352.0,22.81,20.38,24.56,821.340,2097.130,131.083328,20.45,2.4660,363,23893,1.95587,3.86,42121,,,,,,,,,,,,,,,,,,99999,99999,99999,99999,99999,99999,99999,99999,99999,99999,99999,99999
30:06:49,1510865070,2017-11-16T20:44:35,0.793,1352.4,22.82,20.39,24.56,821.390,2097.130,130.266663,20.46,2.4659,363,23891,1.95648,3.85,42115,,,,,,,,,,,,,,,,,,99999,99999,99999,99999,99999,99999,99999,99999,99999,99999,99999,99999
30:07:19,1510865100,2017-11-16T20:45:05,0.795,1352.8,22.82,20.39,24.56,821.360,2097.130,129.783340,20.49,2.4659,363,23890,1.95985,3.85,42110,,,,,,,,,,,,,,,,,,99999,99999,99999,99999,99999,99999,99999,99999,99999,99999,99999,99999
30:07:49,1510865130,2017-11-16T20:45:35,0.796,1353.2,22.82,20.43,24.57,821.440,2097.130,132.033340,21.24,2.4658,363,23892,1.96321,3.85,42105,,,,,,,,,,,,,,,,,,99999,99999,99999,99999,99999,99999,99999,99999,99999,99999,99999,99999
30:08:19,1510865160,2017-11-16T20:46:05,0.793,1353.6,22.84,20.43,24.58,821.300,2097.200,130.783340,20.40,2.4658,363,23890,1.95496,3.85,42100,,,,,,,,,,,,,,,,,,99999,99999,99999,99999,99999,99999,99999,99999,99999,99999,99999,99999
30:08:49,1510865190,2017-11-16T20:46:35,0.794,1354.0,22.86,20.48,24.60,821.350,2097.300,129.583328,19.93,2.4658,363,23893,1.95679,3.85,42094,,,,,,,,,,,,,,,,,,99999,99999,99999,99999,99999,99999,99999,99999,99999,99999,99999,99999
30:09:19,1510865220,2017-11-16T20:47:05,0.795,1354.4,22.87,20.49,24.64,821.220,2097.360,131.066666,19.63,2.4658,363,23889,1.95954,3.85,42089,,,,,,,,,,,,,,,,,,99999,99999,99999,99999,99999,99999,99999,99999,99999,99999,99999,99999
30:09:49,1510865250,2017-11-16T20:47:35,0.795,1354.8,22.89,20.51,24.60,821.220,2097.420,130.616669,20.00,2.4657,363,23894,1.96137,3.85,42084,,,,,,,,,,,,,,,,,,99999,99999,99999,99999,99999,99999,99999,99999,99999,99999,99999,99999
30:10:19,1510865280,2017-11-16T20:48:05,0.797,1355.2,22.91,20.56,24.64,821.160,2097.470,132.100006,20.89,2.4655,363,23893,1.96596,3.85,42078,,,,,,,,,,,,,,,,,,99999,99999,99999,99999,99999,99999,99999,99999,99999,99999,99999,99999
30:10:49,1510865310,2017-11-16T20:48:35,0.795,1355.6,22.94,20.58,24.67,821.180,2097.530,130.800003,21.79,2.4652,363,23898,1.96076,3.85,42073,,,,,,,,,,,,,,,,,,99999,99999,99999,99999,99999,99999,99999,99999,99999,99999,99999,99999
30:11:19,1510865340,2017-11-16T20:49:05,0.797,1356.0,22.98,20.64,24.68,821.190,2097.650,132.666672,20.80,2.4651,363,23898,1.96474,3.85,42068,,,,,,,,,,,,,,,,,,99999,99999,99999,99999,99999,99999,99999,99999,99999,99999,99999,99999
30:11:49,1510865370,2017-11-16T20:49:35,0.798,1356.4,23.01,20.67,24.73,821.160,2097.820,131.633331,20.57,2.4651,363,23900,1.96596,3.85,42063,,,,,,,,,,,,,,,,,,99999,99999,99999,99999,99999,99999,99999,99999,99999,99999,99999,99999
30:12:19,1510865400,2017-11-16T20:50:05,0.797,1356.8,23.04,20.70,24.76,821.150,2097.950,131.216660,19.89,2.4650,363,23899,1.96413,3.85,42057,,,,,,,,,,,,,,,,,,99999,99999,99999,99999,99999,99999,99999,99999,99999,99999,99999,99999
30:12:49,1510865430,2017-11-16T20:50:35,0.797,1357.2,23.08,20.71,24.80,821.170,2098.070,132.633331,19.62,2.4649,363,23902,1.96413,3.85,42052,,,,,,,,,,,,,,,,,,99999,99999,99999,99999,99999,99999,99999,99999,99999,99999,99999,99999
30:13:19,1510865460,2017-11-16T20:51:05,0.795,1357.6,23.11,20.73,24.81,821.190,2098.120,131.399994,19.50,2.4647,363,23902,1.95893,3.85,42047,,,,,,,,,,,,,,,,,,99999,99999,99999,99999,99999,99999,99999,99999,99999,99999,99999,99999
30:13:49,1510865490,2017-11-16T20:51:35,0.797,1358.0,23.14,20.76,24.83,821.160,2098.300,133.149994,19.33,2.4647,363,23902,1.96535,3.85,42041,,,,,,,,,,,,,,,,,,99999,99999,99999,99999,99999,99999,99999,99999,99999,99999,99999,99999
30:14:19,1510865520,2017-11-16T20:52:05,0.799,1358.4,23.17,20.79,24.89,821.250,2098.370,132.800003,19.04,2.4645,363,23904,1.96933,3.85,42036,,,,,,,,,,,,,,,,,,99999,99999,99999,99999,99999,99999,99999,99999,99999,99999,99999,99999
30:14:49,1510865550,2017-11-16T20:52:35,0.799,1358.8,23.20,20.84,24.91,821.190,2098.470,131.633331,19.05,2.4644,363,23903,1.96810,3.85,42031,,,,,,,,,,,,,,,,,,99999,99999,99999,99999,99999,99999,99999,99999,99999,99999,99999,99999
30:15:19,1510865580,2017-11-16T20:53:05,0.796,1359.2,23.24,20.86,24.92,821.230,2098.590,131.266663,19.06,2.4642,363,23904,1.96229,3.85,42025,,,,,,,,,,,,,,,,,,99999,99999,99999,99999,99999,99999,99999,99999,99999,99999,99999,99999
30:15:49,1510865610,2017-11-16T20:53:35,0.796,1359.6,23.27,20.87,24.99,821.150,2098.760,131.033340,18.97,2.4642,363,23906,1.96107,3.85,42020,,,,,,,,,,,,,,,,,,99999,99999,99999,99999,99999,99999,99999,99999,99999,99999,99999,99999
30:16:19,1510865640,2017-11-16T20:54:05,0.796,1360.0,23.31,20.92,25.02,821.220,2098.890,131.366669,19.20,2.4639,363,23907,1.96076,3.85,42015,,,,,,,,,,,,,,,,,,99999,99999,99999,99999,99999,99999,99999,99999,99999,99999,99999,99999
30:16:49,1510865670,2017-11-16T20:54:35,0.797,1360.4,23.34,20.95,25.07,821.240,2098.950,132.933334,19.08,2.4638,363,23907,1.96474,3.85,42010,,,,,,,,,,,,,,,,,,99999,99999,99999,99999,99999,99999,99999,99999,99999,99999,99999,99999
30:17:19,1510865700,2017-11-16T20:55:05,0.798,1360.8,23.38,20.99,25.08,821.130,2099.050,133.250000,18.67,2.4636,363,23907,1.96566,3.85,42004,,,,,,,,,,,,,,,,,,99999,99999,99999,99999,99999,99999,99999,99999,99999,99999,99999,99999
30:17:49,1510865730,2017-11-16T20:55:35,0.800,1361.2,23.42,21.01,25.08,821.250,2099.240,133.050003,18.73,2.4635,363,23910,1.97178,3.85,41999,,,,,,,,,,,,,,,,,,99999,99999,99999,99999,99999,99999,99999,99999,99999,99999,99999,99999
30:18:19,1510865760,2017-11-16T20:56:05,0.800,1361.6,23.45,21.05,25.15,821.210,2099.340,133.033340,18.66,2.4634,363,23910,1.97025,3.85,41994,,,,,,,,,,,,,,,,,,99999,99999,99999,99999,99999,99999,99999,99999,99999,99999,99999,99999
30:18:49,1510865790,2017-11-16T20:56:35,0.800,1362.0,23.48,21.10,25.20,821.230,2099.410,131.566666,18.96,2.4632,363,23912,1.96994,3.85,41988,,,,,,,,,,,,,,,,,,99999,99999,99999,99999,99999,99999,99999,99999,99999,99999,99999,99999
30:19:19,1510865820,2017-11-16T20:57:05,0.799,1362.4,23.52,21.11,25.18,821.230,2099.640,130.916672,18.55,2.4631,363,23911,1.96749,3.85,41983,,,,,,,,,,,,,,,,,,99999,99999,99999,99999,99999,99999,99999,99999,99999,99999,99999,99999
30:19:49,1510865850,2017-11-16T20:57:35,0.800,1362.8,23.54,21.15,25.25,821.220,2099.700,133.066666,18.81,2.4630,363,23913,1.97148,3.85,41978,,,,,,,,,,,,,,,,,,99999,99999,99999,99999,99999,99999,99999,99999,99999,99999,99999,99999
30:20:19,1510865880,2017-11-16T20:58:05,0.797,1363.2,23.58,21.19,25.26,821.240,2099.830,131.783340,20.94,2.4625,363,23913,1.96321,3.85,41972,,,,,,,,,,,,,,,,,,99999,99999,99999,99999,99999,99999,99999,99999,99999,99999,99999,99999
30:20:49,1510865910,2017-11-16T20:58:35,0.800,1363.6,23.60,21.23,25.31,821.210,2099.890,131.949997,21.79,2.4623,363,23914,1.96933,3.85,41967,,,,,,,,,,,,,,,,,,99999,99999,99999,99999,99999,99999,99999,99999,99999,99999,99999,99999
30:21:19,1510865940,2017-11-16T20:59:05,0.802,1364.0,23.63,21.25,25.30,821.280,2099.950,133.583328,19.74,2.4624,363,23916,1.97547,3.85,41962,,,,,,,,,,,,,,,,,,99999,99999,99999,99999,99999,99999,99999,99999,99999,99999,99999,99999
30:21:49,1510865970,2017-11-16T20:59:35,0.798,1364.4,23.65,21.27,25.38,821.190,2099.990,131.866669,19.78,2.4623,363,23913,1.96505,3.85,41956,,,,,,,,,,,,,,,,,,99999,99999,99999,99999,99999,99999,99999,99999,99999,99999,99999,99999
30:22:19,1510866000,2017-11-16T21:00:05,0.799,1364.8,23.68,21.29,25.38,821.210,2100.180,131.266663,19.53,2.4623,363,23917,1.96810,3.85,41951,,,,,,,,,,,,,,,,,,99999,99999,99999,99999,99999,99999,99999,99999,99999,99999,99999,99999
30:22:49,1510866030,2017-11-16T21:00:35,0.800,1365.2,23.70,21.29,25.39,821.200,2100.240,133.783340,19.50,2.4622,363,23916,1.97087,3.85,41946,,,,,,,,,,,,,,,,,,99999,99999,99999,99999,99999,99999,99999,99999,99999,99999,99999,99999
30:23:19,1510866060,2017-11-16T21:01:05,0.800,1365.6,23.72,21.27,25.39,821.070,2100.290,134.983337,19.00,2.4622,363,23915,1.96872,3.85,41940,,,,,,,,,,,,,,,,,,99999,99999,99999,99999,99999,99999,99999,99999,99999,99999,99999,99999
30:23:49,1510866090,2017-11-16T21:01:35,0.798,1366.0,23.72,21.32,25.42,821.070,2100.290,131.583328,18.58,2.4622,363,23917,1.96474,3.85,41935,,,,,,,,,,,,,,,,,,99999,99999,99999,99999,99999,99999,99999,99999,99999,99999,99999,99999
30:24:19,1510866120,2017-11-16T21:02:05,0.800,1366.4,23.74,21.33,25.44,821.010,2100.350,134.100006,17.67,2.4622,363,23917,1.97056,3.85,41930,,,,,,,,,,,,,,,,,,99999,99999,99999,99999,99999,99999,99999,99999,99999,99999,99999,99999
30:24:49,1510866150,2017-11-16T21:02:35,0.801,1366.8,23.75,21.35,25.45,821.010,2100.350,133.750000,17.59,2.4622,363,23917,1.97148,3.85,41924,,,,,,,,,,,,,,,,,,99999,99999,99999,99999,99999,99999,99999,99999,99999,99999,99999,99999
30:25:19,1510866180,2017-11-16T21:03:05,0.798,1367.2,23.77,21.35,25.45,821.140,2100.470,132.750000,18.04,2.4621,363,23916,1.96474,3.85,41919,,,,,,,,,,,,,,,,,,99999,99999,99999,99999,99999,99999,99999,99999,99999,99999,99999,99999
30:25:49,1510866210,2017-11-16T21:03:35,0.801,1367.6,23.80,21.38,25.47,821.180,2100.580,133.300003,17.98,2.4619,363,23919,1.97209,3.85,41914,,,,,,,,,,,,,,,,,,99999,99999,99999,99999,99999,99999,99999,99999,99999,99999,99999,99999
30:26:19,1510866240,2017-11-16T21:04:05,0.798,1368.0,23.81,21.38,25.50,821.130,2100.640,132.516663,18.42,2.4619,363,23917,1.96505,3.85,41908,,,,,,,,,,,,,,,,,,99999,99999,99999,99999,99999,99999,99999,99999,99999,99999,99999,99999
30:26:49,1510866270,2017-11-16T21:04:35,0.799,1368.4,23.82,21.42,25.50,821.210,2100.640,133.100006,18.23,2.4618,363,23921,1.96688,3.85,41903,,,,,,,,,,,,,,,,,,99999,99999,99999,99999,99999,99999,99999,99999,99999,99999,99999,99999
30:27:19,1510866300,2017-11-16T21:05:05,0.799,1368.8,23.84,21.44,25.53,821.200,2100.710,133.766663,18.35,2.4617,363,23919,1.96688,3.85,41898,,,,,,,,,,,,,,,,,,99999,99999,99999,99999,99999,99999,99999,99999,99999,99999,99999,99999
30:27:49,1510866330,2017-11-16T21:05:35,0.799,1369.2,23.86,21.46,25.52,821.030,2100.760,134.316666,19.10,2.4615,363,23921,1.96688,3.85,41892,,,,,,,,,,,,,,,,,,99999,99999,99999,99999,99999,99999,99999,99999,99999,99999,99999,99999
30:28:19,1510866360,2017-11-16T21:06:05,0.798,1369.6,23.90,21.48,25.58,821.080,2100.890,132.966660,18.49,2.4614,363,23921,1.96474,3.85,41887,,,,,,,,,,,,,,,,,,99999,99999,99999,99999,99999,99999,99999,99999,99999,99999,99999,99999
30:28:49,1510866390,2017-11-16T21:06:35,0.800,1370.0,23.93,21.53,25.60,821.120,2101.060,132.716660,18.51,2.4613,363,23924,1.96872,3.85,41881,,,,,,,,,,,,,,,,,,99999,99999,99999,99999,99999,99999,99999,99999,99999,99999,99999,99999
30:29:19,1510866420,2017-11-16T21:07:05,0.803,1370.4,23.95,21.53,25.67,821.120,2101.120,134.350006,18.63,2.4612,363,23926,1.97638,3.85,41876,,,,,,,,,,,,,,,,,,99999,99999,99999,99999,99999,99999,99999,99999,99999,99999,99999,99999
30:29:49,1510866450,2017-11-16T21:07:35,0.800,1370.8,23.98,21.55,25.70,821.060,2101.180,134.583328,19.44,2.4609,363,23924,1.96810,3.85,41871,,,,,,,,,,,,,,,,,,99999,99999,99999,99999,99999,99999,99999,99999,99999,99999,99999,99999
30:30:19,1510866480,2017-11-16T21:08:05,0.802,1371.2,24.01,21.60,25.68,821.020,2101.290,132.083328,19.70,2.4608,363,23926,1.97393,3.85,41865,,,,,,,,,,,,,,,,,,99999,99999,99999,99999,99999,99999,99999,99999,99999,99999,99999,99999
30:30:49,1510866510,2017-11-16T21:08:35,0.804,1371.6,24.04,21.61,25.68,820.940,2101.410,133.766663,18.70,2.4608,363,23929,1.97792,3.85,41860,,,,,,,,,,,,,,,,,,99999,99999,99999,99999,99999,99999,99999,99999,99999,99999,99999,99999
30:31:19,1510866540,2017-11-16T21:09:05,0.805,1372.0,24.06,21.64,25.73,820.990,2101.540,133.399994,19.79,2.4606,363,23928,1.98038,3.85,41855,,,,,,,,,,,,,,,,,,99999,99999,99999,99999,99999,99999,99999,99999,99999,99999,99999,99999
30:31:49,1510866570,2017-11-16T21:09:35,0.799,1372.4,24.09,21.67,25.72,821.030,2101.580,132.699997,19.86,2.4604,363,23930,1.96627,3.85,41849,,,,,,,,,,,,,,,,,,99999,99999,99999,99999,99999,99999,99999,99999,99999,99999,99999,99999
30:32:19,1510866600,2017-11-16T21:10:05,0.800,1372.8,24.12,21.68,25.78,821.060,2101.710,132.716660,16.92,2.4607,363,23929,1.96749,3.85,41844,,,,,,,,,,,,,,,,,,99999,99999,99999,99999,99999,99999,99999,99999,99999,99999,99999,99999
30:32:49,1510866630,2017-11-16T21:10:35,0.801,1373.2,24.14,21.70,25.81,821.120,2101.770,132.149994,16.49,2.4607,363,23930,1.97025,3.85,41839,,,,,,,,,,,,,,,,,,99999,99999,99999,99999,99999,99999,99999,99999,99999,99999,99999,99999
30:33:19,1510866660,2017-11-16T21:11:05,0.804,1373.6,24.17,21.73,25.83,821.070,2101.830,134.066666,16.69,2.4605,363,23930,1.97761,3.85,41833,,,,,,,,,,,,,,,,,,99999,99999,99999,99999,99999,99999,99999,99999,99999,99999,99999,99999
30:33:49,1510866690,2017-11-16T21:11:35,0.804,1374.0,24.20,21.75,25.84,821.060,2102.000,135.000000,15.72,2.4605,363,23929,1.97731,3.85,41828,,,,,,,,,,,,,,,,,,99999,99999,99999,99999,99999,99999,99999,99999,99999,99999,99999,99999
30:34:19,1510866720,2017-11-16T21:12:05,0.803,1374.4,24.22,21.79,25.86,821.050,2102.060,134.850006,15.43,2.4605,363,23930,1.97669,3.85,41823,,,,,,,,,,,,,,,,,,99999,99999,99999,99999,99999,99999,99999,99999,99999,99999,99999,99999
30:34:49,1510866750,2017-11-16T21:12:35,0.802,1374.8,24.27,21.83,25.89,821.010,2102.190,134.350006,17.26,2.4600,363,23931,1.97362,3.85,41817,,,,,,,,,,,,,,,,,,99999,99999,99999,99999,99999,99999,99999,99999,99999,99999,99999,99999
30:35:19,1510866780,2017-11-16T21:13:05,0.801,1375.2,24.31,21.88,25.95,820.950,2102.350,132.850006,16.44,2.4599,363,23935,1.97056,3.85,41812,,,,,,,,,,,,,,,,,,99999,99999,99999,99999,99999,99999,99999,99999,99999,99999,99999,99999
30:35:49,1510866810,2017-11-16T21:13:35,0.801,1375.6,24.35,21.90,25.99,821.000,2102.520,133.449997,16.68,2.4598,363,23937,1.96994,3.85,41806,,,,,,,,,,,,,,,,,,99999,99999,99999,99999,99999,99999,99999,99999,99999,99999,99999,99999
30:36:19,1510866840,2017-11-16T21:14:05,0.804,1376.0,24.39,21.94,26.03,820.990,2102.650,135.383331,15.58,2.4597,363,23935,1.97823,3.85,41801,,,,,,,,,,,,,,,,,,99999,99999,99999,99999,99999,99999,99999,99999,99999,99999,99999,99999
30:36:49,1510866870,2017-11-16T21:14:35,0.804,1376.4,24.42,21.98,26.00,820.950,2102.710,135.616669,15.38,2.4596,363,23938,1.97823,3.85,41796,,,,,,,,,,,,,,,,,,99999,99999,99999,99999,99999,99999,99999,99999,99999,99999,99999,99999
30:37:19,1510866900,2017-11-16T21:15:05,0.803,1376.8,24.46,22.00,26.08,820.970,2102.830,134.500000,15.30,2.4594,363,23939,1.97424,3.85,41790,,,,,,,,,,,,,,,,,,99999,99999,99999,99999,99999,99999,99999,99999,99999,99999,99999,99999
30:37:49,1510866930,2017-11-16T21:15:35,0.800,1377.2,24.50,22.05,26.15,820.960,2103.000,135.750000,14.17,2.4594,363,23938,1.96810,3.85,41785,,,,,,,,,,,,,,,,,,99999,99999,99999,99999,99999,99999,99999,99999,99999,99999,99999,99999
30:38:19,1510866960,2017-11-16T21:16:05,0.801,1377.6,24.53,22.06,26.17,820.870,2103.130,134.083328,15.22,2.4592,363,23939,1.97025,3.85,41780,,,,,,,,,,,,,,,,,,99999,99999,99999,99999,99999,99999,99999,99999,99999,99999,99999,99999
30:38:49,1510866990,2017-11-16T21:16:35,0.805,1378.0,24.57,22.11,26.23,820.940,2103.230,136.300003,15.43,2.4589,363,23938,1.97823,3.85,41774,,,,,,,,,,,,,,,,,,99999,99999,99999,99999,99999,99999,99999,99999,99999,99999,99999,99999
30:39:19,1510867020,2017-11-16T21:17:05,0.803,1378.4,24.63,22.15,26.25,820.930,2103.480,135.466660,14.99,2.4588,363,23943,1.97455,3.85,41769,,,,,,,,,,,,,,,,,,99999,99999,99999,99999,99999,99999,99999,99999,99999,99999,99999,99999
30:39:49,1510867050,2017-11-16T21:17:35,0.802,1378.8,24.66,22.21,26.31,820.840,2103.590,134.600006,14.18,2.4588,363,23945,1.97209,3.85,41763,,,,,,,,,,,,,,,,,,99999,99999,99999,99999,99999,99999,99999,99999,99999,99999,99999,99999
30:40:19,1510867080,2017-11-16T21:18:05,0.803,1379.2,24.71,22.25,26.36,820.770,2103.710,137.316666,16.82,2.4581,363,23944,1.97270,3.85,41758,,,,,,,,,,,,,,,,,,99999,99999,99999,99999,99999,99999,99999,99999,99999,99999,99999,99999
30:40:49,1510867110,2017-11-16T21:18:35,0.805,1379.6,24.76,22.28,26.38,820.870,2103.940,132.716660,17.93,2.4578,363,23949,1.97823,3.85,41753,,,,,,,,,,,,,,,,,,99999,99999,99999,99999,99999,99999,99999,99999,99999,99999,99999,99999
30:41:19,1510867140,2017-11-16T21:19:05,0.802,1380.0,24.80,22.33,26.45,820.920,2104.070,134.350006,16.03,2.4579,363,23948,1.97240,3.85,41747,,,,,,,,,,,,,,,,,,99999,99999,99999,99999,99999,99999,99999,99999,99999,99999,99999,99999
30:41:49,1510867170,2017-11-16T21:19:35,0.804,1380.4,24.85,22.36,26.49,820.860,2104.190,134.133331,17.22,2.4574,363,23951,1.97485,3.85,41742,,,,,,,,,,,,,,,,,,99999,99999,99999,99999,99999,99999,99999,99999,99999,99999,99999,99999
30:42:19,1510867200,2017-11-16T21:20:05,0.802,1380.8,24.89,22.40,26.50,820.810,2104.420,137.016663,16.63,2.4575,363,23949,1.97087,3.85,41737,,,,,,,,,,,,,,,,,,99999,99999,99999,99999,99999,99999,99999,99999,99999,99999,99999,99999
30:42:49,1510867230,2017-11-16T21:20:35,0.807,1381.2,24.94,22.43,26.53,821.050,2104.550,136.216660,15.95,2.4573,363,23950,1.98345,3.85,41731,,,,,,,,,,,,,,,,,,99999,99999,99999,99999,99999,99999,99999,99999,99999,99999,99999,99999
30:43:19,1510867260,2017-11-16T21:21:05,0.804,1381.6,24.97,22.45,26.60,820.960,2104.650,133.933334,16.98,2.4570,363,23950,1.97516,3.85,41726,,,,,,,,,,,,,,,,,,99999,99999,99999,99999,99999,99999,99999,99999,99999,99999,99999,99999
30:43:49,1510867290,2017-11-16T21:21:35,0.806,1382.0,24.99,22.47,26.61,820.950,2104.720,135.283340,16.25,2.4570,363,23955,1.97915,3.85,41720,,,,,,,,,,,,,,,,,,99999,99999,99999,99999,99999,99999,99999,99999,99999,99999,99999,99999
30:44:19,1510867320,2017-11-16T21:22:05,0.805,1382.4,25.03,22.50,26.65,820.890,2104.880,135.350006,15.99,2.4569,363,23954,1.97669,3.85,41715,,,,,,,,,,,,,,,,,,99999,99999,99999,99999,99999,99999,99999,99999,99999,99999,99999,99999
30:44:49,1510867350,2017-11-16T21:22:35,0.808,1382.8,25.05,22.52,26.67,820.860,2104.940,136.083328,15.39,2.4569,363,23954,1.98561,3.85,41709,,,,,,,,,,,,,,,,,,99999,99999,99999,99999,99999,99999,99999,99999,99999,99999,99999,99999
30:45:19,1510867380,2017-11-16T21:23:05,0.805,1383.2,25.08,22.53,26.68,820.900,2105.010,135.833328,14.82,2.4568,363,23953,1.97700,3.85,41704,,,,,,,,,,,,,,,,,,99999,99999,99999,99999,99999,99999,99999,99999,99999,99999,99999,99999
30:45:49,1510867410,2017-11-16T21:23:35,0.809,1383.6,25.10,22.55,26.69,820.930,2105.070,136.616669,15.22,2.4567,363,23957,1.98622,3.85,41699,,,,,,,,,,,,,,,,,,99999,99999,99999,99999,99999,99999,99999,99999,99999,99999,99999,99999
30:46:19,1510867440,2017-11-16T21:24:05,0.809,1384.0,25.12,22.56,26.75,820.820,2105.130,136.166672,15.86,2.4565,363,23955,1.98622,3.85,41693,,,,,,,,,,,,,,,,,,99999,99999,99999,99999,99999,99999,99999,99999,99999,99999,99999,99999
30:46:49,1510867470,2017-11-16T21:24:35,0.805,1384.4,25.15,22.60,26.77,820.880,2105.300,134.216660,16.17,2.4564,363,23958,1.97854,3.85,41688,,,,,,,,,,,,,,,,,,99999,99999,99999,99999,99999,99999,99999,99999,99999,99999,99999,99999
30:47:19,1510867500,2017-11-16T21:25:05,0.807,1384.8,25.17,22.60,26.80,820.880,2105.360,136.399994,16.20,2.4563,363,23956,1.98284,3.85,41682,,,,,,,,,,,,,,,,,,99999,99999,99999,99999,99999,99999,99999,99999,99999,99999,99999,99999
30:47:49,1510867530,2017-11-16T21:25:35,0.809,1385.2,25.18,22.61,26.80,820.880,2105.420,136.633331,16.60,2.4562,363,23956,1.98622,3.85,41677,,,,,,,,,,,,,,,,,,99999,99999,99999,99999,99999,99999,99999,99999,99999,99999,99999,99999
30:48:19,1510867560,2017-11-16T21:26:05,0.804,1385.6,25.17,22.59,26.80,820.910,2105.360,136.283340,16.61,2.4562,363,23957,1.97578,3.85,41672,,,,,,,,,,,,,,,,,,99999,99999,99999,99999,99999,99999,99999,99999,99999,99999,99999,99999
30:48:49,1510867590,2017-11-16T21:26:35,0.803,1386.0,25.16,22.58,26.77,820.910,2105.300,138.233337,16.83,2.4562,363,23960,1.97178,3.85,41666,,,,,,,,,,,,,,,,,,99999,99999,99999,99999,99999,99999,99999,99999,99999,99999,99999,99999
30:49:19,1510867620,2017-11-16T21:27:05,0.807,1386.4,25.15,22.55,26.81,820.940,2105.300,137.216660,16.46,2.4563,363,23956,1.98315,3.85,41661,,,,,,,,,,,,,,,,,,99999,99999,99999,99999,99999,99999,99999,99999,99999,99999,99999,99999
30:49:49,1510867650,2017-11-16T21:27:35,0.805,1386.8,25.14,22.54,26.81,821.000,2105.240,135.833328,17.09,2.4563,363,23954,1.97761,3.85,41655,,,,,,,,,,,,,,,,,,99999,99999,99999,99999,99999,99999,99999,99999,99999,99999,99999,99999
30:50:19,1510867680,2017-11-16T21:28:05,0.805,1387.2,25.12,22.51,26.81,821.060,2105.130,138.666672,17.26,2.4563,363,23952,1.97700,3.85,41650,,,,,,,,,,,,,,,,,,99999,99999,99999,99999,99999,99999,99999,99999,99999,99999,99999,99999
30:50:49,1510867710,2017-11-16T21:28:35,0.803,1387.6,25.09,22.47,26.76,821.090,2105.070,134.550003,17.03,2.4565,363,23953,1.97362,3.85,41645,,,,,,,,,,,,,,,,,,99999,99999,99999,99999,99999,99999,99999,99999,99999,99999,99999,99999
30:51:19,1510867740,2017-11-16T21:29:05,0.804,1388.0,25.06,22.44,26.73,821.040,2104.940,136.566666,16.56,2.4567,363,23953,1.97516,3.85,41639,,,,,,,,,,,,,,,,,,99999,99999,99999,99999,99999,99999,99999,99999,99999,99999,99999,99999
30:51:49,1510867770,2017-11-16T21:29:35,0.807,1388.5,25.03,22.42,26.68,821.160,2104.880,137.816666,17.41,2.4567,363,23951,1.98223,3.85,41634,,,,,,,,,,,,,,,,,,99999,99999,99999,99999,99999,99999,99999,99999,99999,99999,99999,99999
30:52:19,1510867800,2017-11-16T21:30:05,0.805,1388.9,24.99,22.40,26.67,821.110,2104.720,131.566666,17.13,2.4569,363,23952,1.97884,3.85,41628,,,,,,,,,,,,,,,,,,99999,99999,99999,99999,99999,99999,99999,99999,99999,99999,99999,99999
30:52:49,1510867830,2017-11-16T21:30:35,0.805,1389.3,24.95,22.36,26.65,821.070,2104.590,137.233337,16.80,2.4571,363,23950,1.97854,3.85,41623,,,,,,,,,,,,,,,,,,99999,99999,99999,99999,99999,99999,99999,99999,99999,99999,99999,99999
30:53:19,1510867860,2017-11-16T21:31:05,0.803,1389.7,24.90,22.33,26.58,821.080,2104.420,135.416672,17.62,2.4572,363,23952,1.97424,3.85,41618,,,,,,,,,,,,,,,,,,99999,99999,99999,99999,99999,99999,99999,99999,99999,99999,99999,99999
30:53:49,1510867890,2017-11-16T21:31:35,0.803,1390.1,24.86,22.31,26.57,821.220,2104.240,138.783340,16.54,2.4575,363,23947,1.97270,3.85,41612,,,,,,,,,,,,,,,,,,99999,99999,99999,99999,99999,99999,99999,99999,99999,99999,99999,99999
30:54:19,1510867920,2017-11-16T21:32:05,0.803,1390.5,24.83,22.29,26.50,821.210,2104.130,132.733337,16.78,2.4576,363,23945,1.97332,3.85,41607,,,,,,,,,,,,,,,,,,99999,99999,99999,99999,99999,99999,99999,99999,99999,99999,99999,99999
30:54:49,1510867950,2017-11-16T21:32:35,0.806,1390.9,24.80,22.24,26.47,821.320,2104.070,133.983337,17.48,2.4577,363,23947,1.98100,3.85,41601,,,,,,,,,,,,,,,,,,99999,99999,99999,99999,99999,99999,99999,99999,99999,99999,99999,99999
30:55:19,1510867980,2017-11-16T21:33:05,0.807,1391.3,24.76,22.22,26.44,821.190,2103.940,135.449997,17.96,2.4578,363,23945,1.98284,3.85,41596,,,,,,,,,,,,,,,,,,99999,99999,99999,99999,99999,99999,99999,99999,99999,99999,99999,99999
30:55:49,1510868010,2017-11-16T21:33:35,0.802,1391.7,24.73,22.21,26.42,821.090,2103.770,134.883331,16.98,2.4580,363,23947,1.97056,3.85,41591,,,,,,,,,,,,,,,,,,99999,99999,99999,99999,99999,99999,99999,99999,99999,99999,99999,99999
30:56:19,1510868040,2017-11-16T21:34:05,0.804,1392.1,24.71,22.20,26.41,821.070,2103.710,134.616669,15.81,2.4583,363,23943,1.97608,3.85,41585,,,,,,,,,,,,,,,,,,99999,99999,99999,99999,99999,99999,99999,99999,99999,99999,99999,99999
30:56:49,1510868070,2017-11-16T21:34:35,0.802,1392.5,24.69,22.20,26.38,821.130,2103.650,133.300003,15.88,2.4583,363,23947,1.97148,3.85,41580,,,,,,,,,,,,,,,,,,99999,99999,99999,99999,99999,99999,99999,99999,99999,99999,99999,99999
30:57:19,1510868100,2017-11-16T21:35:05,0.801,1392.9,24.66,22.17,26.38,821.220,2103.590,131.766663,16.62,2.4584,363,23944,1.96994,3.84,41574,,,,,,,,,,,,,,,,,,99999,99999,99999,99999,99999,99999,99999,99999,99999,99999,99999,99999
30:57:49,1510868130,2017-11-16T21:35:35,0.804,1393.3,24.64,22.17,26.31,821.300,2103.520,134.616669,16.39,2.4585,363,23945,1.97638,3.84,41569,,,,,,,,,,,,,,,,,,99999,99999,99999,99999,99999,99999,99999,99999,99999,99999,99999,99999
30:58:19,1510868160,2017-11-16T21:36:05,0.803,1393.7,24.63,22.17,26.31,821.360,2103.480,135.383331,16.89,2.4585,363,23945,1.97301,3.85,41564,,,,,,,,,,,,,,,,,,99999,99999,99999,99999,99999,99999,99999,99999,99999,99999,99999,99999
30:58:49,1510868190,2017-11-16T21:36:35,0.801,1394.1,24.61,22.17,26.31,821.370,2103.420,134.266663,17.22,2.4586,363,23942,1.96994,3.84,41558,,,,,,,,,,,,,,,,,,99999,99999,99999,99999,99999,99999,99999,99999,99999,99999,99999,99999
30:59:19,1510868220,2017-11-16T21:37:05,0.804,1394.5,24.60,22.13,26.31,821.400,2103.420,137.366669,17.63,2.4586,363,23946,1.97761,3.84,41553,,,,,,,,,,,,,,,,,,99999,99999,99999,99999,99999,99999,99999,99999,99999,99999,99999,99999
30:59:49,1510868250,2017-11-16T21:37:35,0.804,1394.9,24.57,22.12,26.28,821.430,2103.230,135.716660,16.81,2.4587,363,23943,1.97578,3.84,41547,,,,,,,,,,,,,,,,,,99999,99999,99999,99999,99999,99999,99999,99999,99999,99999,99999,99999
31:00:19,1510868280,2017-11-16T21:38:05,0.805,1395.3,24.54,22.09,26.25,821.330,2103.130,134.316666,16.08,2.4590,363,23940,1.98007,3.84,41542,,,,,,,,,,,,,,,,,,99999,99999,99999,99999,99999,99999,99999,99999,99999,99999,99999,99999
31:00:49,1510868310,2017-11-16T21:38:35,0.804,1395.7,24.52,22.08,26.19,821.260,2103.070,134.333328,17.32,2.4589,363,23942,1.97792,3.84,41537,,,,,,,,,,,,,,,,,,99999,99999,99999,99999,99999,99999,99999,99999,99999,99999,99999,99999
31:01:19,1510868340,2017-11-16T21:39:05,0.804,1396.1,24.49,22.03,26.19,821.230,2103.000,132.500000,16.31,2.4592,363,23938,1.97700,3.84,41531,,,,,,,,,,,,,,,,,,99999,99999,99999,99999,99999,99999,99999,99999,99999,99999,99999,99999
31:01:49,1510868370,2017-11-16T21:39:35,0.802,1396.5,24.47,22.01,26.19,821.370,2102.940,132.300003,15.53,2.4594,363,23938,1.97178,3.84,41526,,,,,,,,,,,,,,,,,,99999,99999,99999,99999,99999,99999,99999,99999,99999,99999,99999,99999
31:02:19,1510868400,2017-11-16T21:40:05,0.802,1396.9,24.45,22.00,26.14,821.290,2102.830,133.566666,16.35,2.4593,363,23939,1.97148,3.84,41520,,,,,,,,,,,,,,,,,,99999,99999,99999,99999,99999,99999,99999,99999,99999,99999,99999,99999
31:02:49,1510868430,2017-11-16T21:40:35,0.801,1397.3,24.43,21.97,26.11,821.270,2102.770,132.666672,16.02,2.4595,363,23938,1.96903,3.84,41515,,,,,,,,,,,,,,,,,,99999,99999,99999,99999,99999,99999,99999,99999,99999,99999,99999,99999
31:03:19,1510868460,2017-11-16T21:41:05,0.800,1397.7,24.41,21.95,26.10,821.250,2102.710,132.833328,15.78,2.4596,363,23941,1.96719,3.84,41510,,,,,,,,,,,,,,,,,,99999,99999,99999,99999,99999,99999,99999,99999,99999,99999,99999,99999
31:03:49,1510868490,2017-11-16T21:41:35,0.801,1398.1,24.39,21.91,26.07,821.260,2102.650,134.149994,16.80,2.4596,363,23936,1.96994,3.84,41504,,,,,,,,,,,,,,,,,,99999,99999,99999,99999,99999,99999,99999,99999,99999,99999,99999,99999
31:04:19,1510868520,2017-11-16T21:42:05,0.804,1398.5,24.36,21.90,26.05,821.370,2102.540,133.833328,16.17,2.4598,363,23938,1.97792,3.84,41499,,,,,,,,,,,,,,,,,,99999,99999,99999,99999,99999,99999,99999,99999,99999,99999,99999,99999
31:04:49,1510868550,2017-11-16T21:42:35,0.802,1398.9,24.34,21.88,26.03,821.380,2102.480,131.633331,17.34,2.4597,363,23932,1.97148,3.84,41494,,,,,,,,,,,,,,,,,,99999,99999,99999,99999,99999,99999,99999,99999,99999,99999,99999,99999
31:05:19,1510868580,2017-11-16T21:43:05,0.799,1399.3,24.32,21.86,26.02,821.350,2102.350,132.933334,16.76,2.4598,363,23935,1.96566,3.84,41488,,,,,,,,,,,,,,,,,,99999,99999,99999,99999,99999,99999,99999,99999,99999,99999,99999,99999
31:05:49,1510868610,2017-11-16T21:43:35,0.803,1399.7,24.31,21.81,26.02,821.440,2102.350,134.883331,15.98,2.4600,363,23933,1.97608,3.84,41483,,,,,,,,,,,,,,,,,,99999,99999,99999,99999,99999,99999,99999,99999,99999,99999,99999,99999
31:06:19,1510868640,2017-11-16T21:44:05,0.803,1400.1,24.29,21.80,25.97,821.520,2102.230,134.716660,16.60,2.4599,363,23932,1.97455,3.84,41477,,,,,,,,,,,,,,,,,,99999,99999,99999,99999,99999,99999,99999,99999,99999,99999,99999,99999
31:06:49,1510868670,2017-11-16T21:44:35,0.803,1400.5,24.28,21.80,25.92,821.420,2102.230,134.083328,16.52,2.4600,363,23931,1.97424,3.84,41472,,,,,,,,,,,,,,,,,,99999,99999,99999,99999,99999,99999,99999,99999,99999,99999,99999,99999
31:07:19,1510868700,2017-11-16T21:45:05,0.802,1400.9,24.27,21.78,25.94,821.470,2102.190,133.866669,17.13,2.4600,363,23932,1.97332,3.84,41467,,,,,,,,,,,,,,,,,,99999,99999,99999,99999,99999,99999,99999,99999,99999,99999,99999,99999
31:07:49,1510868730,2017-11-16T21:45:35,0.801,1401.3,24.26,21.77,25.91,821.390,2102.190,134.716660,16.68,2.4601,363,23931,1.96994,3.84,41461,,,,,,,,,,,,,,,,,,99999,99999,99999,99999,99999,99999,99999,99999,99999,99999,99999,99999
31:08:19,1510868760,2017-11-16T21:46:05,0.800,1401.7,24.23,21.77,25.92,821.320,2102.060,136.500000,17.09,2.4602,363,23934,1.96933,3.84,41456,,,,,,,,,,,,,,,,,,99999,99999,99999,99999,99999,99999,99999,99999,99999,99999,99999,99999
31:08:49,1510868790,2017-11-16T21:46:35,0.802,1402.1,24.22,21.76,25.91,821.320,2102.060,136.316666,16.69,2.4603,363,23933,1.97362,3.84,41451,,,,,,,,,,,,,,,,,,99999,99999,99999,99999,99999,99999,99999,99999,99999,99999,99999,99999
31:09:19,1510868820,2017-11-16T21:47:05,0.803,1402.5,24.21,21.73,25.89,821.270,2102.000,133.350006,16.50,2.4604,363,23931,1.97455,3.84,41445,,,,,,,,,,,,,,,,,,99999,99999,99999,99999,99999,99999,99999,99999,99999,99999,99999,99999
31:09:49,1510868850,2017-11-16T21:47:35,0.802,1402.9,24.20,21.70,25.91,821.300,2102.000,134.766663,16.88,2.4604,363,23929,1.97240,3.84,41440,,,,,,,,,,,,,,,,,,99999,99999,99999,99999,99999,99999,99999,99999,99999,99999,99999,99999
31:10:19,1510868880,2017-11-16T21:48:05,0.800,1403.3,24.19,21.69,25.84,821.360,2101.900,132.516663,17.44,2.4603,363,23929,1.96719,3.84,41435,,,,,,,,,,,,,,,,,,99999,99999,99999,99999,99999,99999,99999,99999,99999,99999,99999,99999
31:10:49,1510868910,2017-11-16T21:48:35,0.802,1403.7,24.16,21.66,25.84,821.390,2101.830,134.449997,16.46,2.4606,363,23929,1.97455,3.84,41429,,,,,,,,,,,,,,,,,,99999,99999,99999,99999,99999,99999,99999,99999,99999,99999,99999,99999
31:11:19,1510868940,2017-11-16T21:49:05,0.798,1404.1,24.16,21.64,25.84,821.360,2101.830,132.866669,16.27,2.4606,363,23929,1.96443,3.84,41424,,,,,,,,,,,,,,,,,,99999,99999,99999,99999,99999,99999,99999,99999,99999,99999,99999,99999
31:11:49,1510868970,2017-11-16T21:49:35,0.799,1404.5,24.14,21.61,25.80,821.370,2101.770,132.516663,15.89,2.4608,363,23929,1.96688,3.84,41418,,,,,,,,,,,,,,,,,,99999,99999,99999,99999,99999,99999,99999,99999,99999,99999,99999,99999
31:12:19,1510869000,2017-11-16T21:50:05,0.801,1404.9,24.14,21.61,25.80,821.470,2101.770,135.266663,15.83,2.4608,363,23928,1.97178,3.84,41413,,,,,,,,,,,,,,,,,,99999,99999,99999,99999,99999,99999,99999,99999,99999,99999,99999,99999
31:12:49,1510869030,2017-11-16T21:50:35,0.800,1405.3,24.13,21.59,25.78,821.480,2101.710,133.616669,16.04,2.4608,363,23928,1.96903,3.84,41408,,,,,,,,,,,,,,,,,,99999,99999,99999,99999,99999,99999,99999,99999,99999,99999,99999,99999
31:13:19,1510869060,2017-11-16T21:51:05,0.803,1405.7,24.13,21.60,25.80,821.340,2101.710,134.083328,16.13,2.4607,363,23926,1.97669,3.84,41402,,,,,,,,,,,,,,,,,,99999,99999,99999,99999,99999,99999,99999,99999,99999,99999,99999,99999
31:13:49,1510869090,2017-11-16T21:51:35,0.799,1406.1,24.12,21.60,25.78,821.270,2101.710,133.000000,15.92,2.4609,363,23928,1.96596,3.84,41397,,,,,,,,,,,,,,,,,,99999,99999,99999,99999,99999,99999,99999,99999,99999,99999,99999,99999
31:14:19,1510869120,2017-11-16T21:52:05,0.802,1406.5,24.12,21.59,25.78,821.330,2101.710,134.550003,15.88,2.4609,363,23925,1.97301,3.84,41392,,,,,,,,,,,,,,,,,,99999,99999,99999,99999,99999,99999,99999,99999,99999,99999,99999,99999
31:14:49,1510869150,2017-11-16T21:52:35,0.801,1406.9,24.13,21.60,25.76,821.340,2101.710,135.399994,15.56,2.4608,363,23927,1.97209,3.84,41386,,,,,,,,,,,,,,,,,,99999,99999,99999,99999,99999,99999,99999,99999,99999,99999,99999,99999
31:15:19,1510869180,2017-11-16T21:53:05,0.801,1407.3,24.12,21.60,25.78,821.270,2101.710,133.899994,15.96,2.4608,363,23926,1.97209,3.84,41381,,,,,,,,,,,,,,,,,,99999,99999,99999,99999,99999,99999,99999,99999,99999,99999,99999,99999
31:15:49,1510869210,2017-11-16T21:53:35,0.799,1407.7,24.12,21.59,25.76,821.270,2101.710,132.933334,16.53,2.4608,363,23928,1.96657,3.84,41376,,,,,,,,,,,,,,,,,,99999,99999,99999,99999,99999,99999,99999,99999,99999,99999,99999,99999
31:16:19,1510869240,2017-11-16T21:54:05,0.800,1408.1,24.13,21.60,25.78,821.340,2101.710,134.833328,16.33,2.4607,363,23927,1.96903,3.84,41370,,,,,,,,,,,,,,,,,,99999,99999,99999,99999,99999,99999,99999,99999,99999,99999,99999,99999
31:16:49,1510869270,2017-11-16T21:54:35,0.801,1408.5,24.11,21.59,25.76,821.330,2101.650,132.283340,16.58,2.4608,363,23926,1.97148,3.84,41365,,,,,,,,,,,,,,,,,,99999,99999,99999,99999,99999,99999,99999,99999,99999,99999,99999,99999
31:17:19,1510869300,2017-11-16T21:55:05,0.798,1408.9,24.11,21.57,25.76,821.350,2101.650,132.366669,16.23,2.4608,363,23926,1.96351,3.84,41360,,,,,,,,,,,,,,,,,,99999,99999,99999,99999,99999,99999,99999,99999,99999,99999,99999,99999
31:17:49,1510869330,2017-11-16T21:55:35,0.802,1409.3,24.11,21.57,25.75,821.300,2101.650,134.649994,16.53,2.4608,363,23927,1.97301,3.84,41354,,,,,,,,,,,,,,,,,,99999,99999,99999,99999,99999,99999,99999,99999,99999,99999,99999,99999
31:18:19,1510869360,2017-11-16T21:56:04,0.802,1409.7,24.11,21.59,25.76,821.350,2101.650,134.266663,17.05,2.4607,363,23926,1.97270,3.84,41349,,,,,,,,,,,,,,,,,,99999,99999,99999,99999,99999,99999,99999,99999,99999,99999,99999,99999
31:18:49,1510869390,2017-11-16T21:56:35,0.801,1410.1,24.11,21.59,25.75,821.350,2101.650,132.283340,16.67,2.4608,363,23929,1.97025,3.84,41343,,,,,,,,,,,,,,,,,,99999,99999,99999,99999,99999,99999,99999,99999,99999,99999,99999,99999
31:19:19,1510869420,2017-11-16T21:57:04,0.803,1410.5,24.11,21.60,25.75,821.490,2101.650,134.183334,17.48,2.4607,363,23926,1.97669,3.84,41338,,,,,,,,,,,,,,,,,,99999,99999,99999,99999,99999,99999,99999,99999,99999,99999,99999,99999
31:19:49,1510869450,2017-11-16T21:57:34,0.802,1410.9,24.12,21.60,25.76,821.410,2101.710,134.300003,16.82,2.4607,363,23926,1.97301,3.84,41333,,,,,,,,,,,,,,,,,,99999,99999,99999,99999,99999,99999,99999,99999,99999,99999,99999,99999
31:20:19,1510869480,2017-11-16T21:58:04,0.801,1411.3,24.11,21.60,25.76,821.380,2101.650,133.733337,17.35,2.4607,363,23927,1.97025,3.84,41327,,,,,,,,,,,,,,,,,,99999,99999,99999,99999,99999,99999,99999,99999,99999,99999,99999,99999
31:20:49,1510869510,2017-11-16T21:58:34,0.798,1411.7,24.12,21.60,25.73,821.520,2101.710,134.566666,16.82,2.4607,363,23925,1.96443,3.84,41322,,,,,,,,,,,,,,,,,,99999,99999,99999,99999,99999,99999,99999,99999,99999,99999,99999,99999
31:21:19,1510869540,2017-11-16T21:59:04,0.801,1412.1,24.12,21.60,25.75,821.380,2101.710,134.116669,17.17,2.4607,363,23927,1.97025,3.84,41317,,,,,,,,,,,,,,,,,,99999,99999,99999,99999,99999,99999,99999,99999,99999,99999,99999,99999
31:21:49,1510869570,2017-11-16T21:59:34,0.801,1412.5,24.12,21.64,25.76,821.490,2101.710,132.600006,16.97,2.4607,363,23928,1.97025,3.84,41311,,,,,,,,,,,,,,,,,,99999,99999,99999,99999,99999,99999,99999,99999,99999,99999,99999,99999
31:22:19,1510869600,2017-11-16T22:00:04,0.803,1412.9,24.12,21.62,25.76,821.330,2101.710,134.149994,16.83,2.4607,363,23929,1.97578,3.84,41306,,,,,,,,,,,,,,,,,,99999,99999,99999,99999,99999,99999,99999,99999,99999,99999,99999,99999
31:22:49,1510869630,2017-11-16T22:00:34,0.801,1413.3,24.12,21.64,25.75,821.380,2101.710,134.449997,16.82,2.4607,363,23926,1.97117,3.84,41301,,,,,,,,,,,,,,,,,,99999,99999,99999,99999,99999,99999,99999,99999,99999,99999,99999,99999
31:23:19,1510869660,2017-11-16T22:01:04,0.798,1413.7,24.11,21.64,25.73,821.330,2101.650,132.199997,17.00,2.4607,363,23929,1.96443,3.84,41295,,,,,,,,,,,,,,,,,,99999,99999,99999,99999,99999,99999,99999,99999,99999,99999,99999,99999
31:23:49,1510869690,2017-11-16T22:01:34,0.801,1414.1,24.11,21.64,25.72,821.410,2101.650,132.283340,16.83,2.4607,363,23926,1.97148,3.84,41290,,,,,,,,,,,,,,,,,,99999,99999,99999,99999,99999,99999,99999,99999,99999,99999,99999,99999
31:24:19,1510869720,2017-11-16T22:02:04,0.803,1414.5,24.12,21.64,25.72,821.410,2101.710,135.166672,16.78,2.4607,363,23925,1.97485,3.84,41284,,,,,,,,,,,,,,,,,,99999,99999,99999,99999,99999,99999,99999,99999,99999,99999,99999,99999
31:24:49,1510869750,2017-11-16T22:02:34,0.799,1414.9,24.10,21.63,25.78,821.410,2101.650,132.816666,17.03,2.4608,363,23926,1.96688,3.84,41279,,,,,,,,,,,,,,,,,,99999,99999,99999,99999,99999,99999,99999,99999,99999,99999,99999,99999
31:25:19,1510869780,2017-11-16T22:03:04,0.798,1415.3,24.10,21.65,25.73,821.460,2101.650,132.683334,16.86,2.4608,363,23929,1.96474,3.84,41274,,,,,,,,,,,,,,,,,,99999,99999,99999,99999,99999,99999,99999,99999,99999,99999,99999,99999
31:25:49,1510869810,2017-11-16T22:03:34,0.800,1415.7,24.11,21.64,25.73,821.380,2101.650,132.883331,16.60,2.4608,363,23928,1.96903,3.84,41268,,,,,,,,,,,,,,,,,,99999,99999,99999,99999,99999,99999,99999,99999,99999,99999,99999,99999
31:26:19,1510869840,2017-11-16T22:04:04,0.803,1416.1,24.10,21.65,25.73,821.280,2101.650,133.083328,16.50,2.4609,363,23928,1.97638,3.84,41263,,,,,,,,,,,,,,,,,,99999,99999,99999,99999,99999,99999,99999,99999,99999,99999,99999,99999
31:26:49,1510869870,2017-11-16T22:04:34,0.799,1416.5,24.09,21.64,25.73,821.330,2101.580,132.033340,18.33,2.4606,363,23928,1.96535,3.84,41258,,,,,,,,,,,,,,,,,,99999,99999,99999,99999,99999,99999,99999,99999,99999,99999,99999,99999
31:27:19,1510869900,2017-11-16T22:05:04,0.799,1416.9,24.09,21.62,25.73,821.330,2101.580,132.033340,17.43,2.4608,363,23926,1.96719,3.84,41252,,,,,,,,,,,,,,,,,,99999,99999,99999,99999,99999,99999,99999,99999,99999,99999,99999,99999
31:27:49,1510869930,2017-11-16T22:05:34,0.803,1417.3,24.07,21.62,25.68,821.390,2101.540,135.066666,17.99,2.4608,363,23930,1.97608,3.84,41247,,,,,,,,,,,,,,,,,,99999,99999,99999,99999,99999,99999,99999,99999,99999,99999,99999,99999
31:28:19,1510869960,2017-11-16T22:06:04,0.799,1417.7,24.07,21.62,25.72,821.330,2101.540,133.066666,18.13,2.4608,363,23926,1.96535,3.84,41242,,,,,,,,,,,,,,,,,,99999,99999,99999,99999,99999,99999,99999,99999,99999,99999,99999,99999
31:28:49,1510869990,2017-11-16T22:06:34,0.801,1418.1,24.06,21.61,25.70,821.280,2101.540,136.666672,18.20,2.4609,363,23927,1.97117,3.84,41236,,,,,,,,,,,,,,,,,,99999,99999,99999,99999,99999,99999,99999,99999,99999,99999,99999,99999
31:29:19,1510870020,2017-11-16T22:07:04,0.802,1418.5,24.05,21.59,25.72,821.360,2101.410,133.083328,17.59,2.4609,363,23925,1.97332,3.84,41231,,,,,,,,,,,,,,,,,,99999,99999,99999,99999,99999,99999,99999,99999,99999,99999,99999,99999
31:29:49,1510870050,2017-11-16T22:07:34,0.800,1418.9,24.03,21.54,25.67,821.320,2101.350,132.383331,17.47,2.4610,363,23925,1.96903,3.84,41225,,,,,,,,,,,,,,,,,,99999,99999,99999,99999,99999,99999,99999,99999,99999,99999,99999,99999
31:30:19,1510870080,2017-11-16T22:08:04,0.803,1419.3,24.01,21.56,25.68,821.430,2101.290,133.550003,17.65,2.4611,363,23923,1.97578,3.84,41220,,,,,,,,,,,,,,,,,,99999,99999,99999,99999,99999,99999,99999,99999,99999,99999,99999,99999
31:30:49,1510870110,2017-11-16T22:08:34,0.802,1419.7,23.99,21.53,25.61,821.400,2101.250,134.216660,17.15,2.4612,363,23927,1.97424,3.84,41215,,,,,,,,,,,,,,,,,,99999,99999,99999,99999,99999,99999,99999,99999,99999,99999,99999,99999
31:31:19,1510870140,2017-11-16T22:09:04,0.803,1420.1,23.97,21.48,25.60,821.380,2101.180,133.816666,17.67,2.4613,363,23924,1.97638,3.84,41209,,,,,,,,,,,,,,,,,,99999,99999,99999,99999,99999,99999,99999,99999,99999,99999,99999,99999
31:31:49,1510870170,2017-11-16T22:09:34,0.801,1420.5,23.95,21.46,25.61,821.420,2101.120,134.583328,17.42,2.4614,363,23924,1.97270,3.84,41204,,,,,,,,,,,,,,,,,,99999,99999,99999,99999,99999,99999,99999,99999,99999,99999,99999,99999
31:32:19,1510870200,2017-11-16T22:10:04,0.801,1420.9,23.93,21.45,25.57,821.470,2101.060,133.016663,17.56,2.4615,363,23921,1.97148,3.84,41199,,,,,,,,,,,,,,,,,,99999,99999,99999,99999,99999,99999,99999,99999,99999,99999,99999,99999
31:32:49,1510870230,2017-11-16T22:10:34,0.799,1421.3,23.90,21.45,25.57,821.370,2100.890,131.449997,17.68,2.4615,363,23920,1.96749,3.84,41193,,,,,,,,,,,,,,,,,,99999,99999,99999,99999,99999,99999,99999,99999,99999,99999,99999,99999
31:33:19,1510870260,2017-11-16T22:11:04,0.802,1421.7,23.89,21.41,25.53,821.460,2100.890,134.800003,17.60,2.4616,363,23922,1.97332,3.84,41188,,,,,,,,,,,,,,,,,,99999,99999,99999,99999,99999,99999,99999,99999,99999,99999,99999,99999
31:33:49,1510870290,2017-11-16T22:11:34,0.801,1422.1,23.87,21.42,25.50,821.380,2100.830,133.066666,18.21,2.4616,363,23920,1.97087,3.84,41183,,,,,,,,,,,,,,,,,,99999,99999,99999,99999,99999,99999,99999,99999,99999,99999,99999,99999
31:34:19,1510870320,2017-11-16T22:12:04,0.800,1422.5,23.84,21.38,25.49,821.440,2100.710,132.850006,18.56,2.4617,363,23920,1.96933,3.84,41177,,,,,,,,,,,,,,,,,,99999,99999,99999,99999,99999,99999,99999,99999,99999,99999,99999,99999
31:34:49,1510870350,2017-11-16T22:12:34,0.799,1422.9,23.83,21.38,25.49,821.320,2100.710,134.116669,18.46,2.4618,363,23918,1.96749,3.84,41172,,,,,,,,,,,,,,,,,,99999,99999,99999,99999,99999,99999,99999,99999,99999,99999,99999,99999
31:35:19,1510870380,2017-11-16T22:13:04,0.801,1423.3,23.81,21.38,25.45,821.260,2100.640,131.916672,18.57,2.4619,363,23918,1.97087,3.84,41167,,,,,,,,,,,,,,,,,,99999,99999,99999,99999,99999,99999,99999,99999,99999,99999,99999,99999
31:35:49,1510870410,2017-11-16T22:13:34,0.802,1423.7,23.79,21.34,25.42,821.400,2100.580,133.149994,17.73,2.4621,363,23918,1.97362,3.84,41161,,,,,,,,,,,,,,,,,,99999,99999,99999,99999,99999,99999,99999,99999,99999,99999,99999,99999
31:36:19,1510870440,2017-11-16T22:14:04,0.799,1424.1,23.78,21.33,25.45,821.290,2100.470,134.000000,17.84,2.4620,363,23917,1.96657,3.84,41156,,,,,,,,,,,,,,,,,,99999,99999,99999,99999,99999,99999,99999,99999,99999,99999,99999,99999
31:36:49,1510870470,2017-11-16T22:14:34,0.798,1424.5,23.76,21.32,25.41,821.300,2100.410,132.600006,17.95,2.4621,363,23921,1.96382,3.84,41151,,,,,,,,,,,,,,,,,,99999,99999,99999,99999,99999,99999,99999,99999,99999,99999,99999,99999
31:37:19,1510870500,2017-11-16T22:15:04,0.800,1424.9,23.74,21.32,25.38,821.330,2100.350,133.416672,18.11,2.4622,363,23916,1.96872,3.84,41145,,,,,,,,,,,,,,,,,,99999,99999,99999,99999,99999,99999,99999,99999,99999,99999,99999,99999
31:37:49,1510870530,2017-11-16T22:15:34,0.800,1425.3,23.72,21.30,25.36,821.310,2100.290,132.233337,18.22,2.4623,363,23917,1.97025,3.84,41140,,,,,,,,,,,,,,,,,,99999,99999,99999,99999,99999,99999,99999,99999,99999,99999,99999,99999
31:38:19,1510870560,2017-11-16T22:16:04,0.801,1425.7,23.72,21.28,25.38,821.310,2100.290,133.566666,18.33,2.4622,363,23916,1.97117,3.84,41135,,,,,,,,,,,,,,,,,,99999,99999,99999,99999,99999,99999,99999,99999,99999,99999,99999,99999
31:38:49,1510870590,2017-11-16T22:16:34,0.801,1426.1,23.70,21.28,25.33,821.280,2100.240,133.366669,18.16,2.4624,363,23915,1.97240,3.84,41129,,,,,,,,,,,,,,,,,,99999,99999,99999,99999,99999,99999,99999,99999,99999,99999,99999,99999
31:39:19,1510870620,2017-11-16T22:17:04,0.801,1426.5,23.67,21.27,25.34,821.240,2100.120,132.166672,18.69,2.4624,363,23916,1.97178,3.84,41124,,,,,,,,,,,,,,,,,,99999,99999,99999,99999,99999,99999,99999,99999,99999,99999,99999,99999
31:39:49,1510870650,2017-11-16T22:17:34,0.797,1426.9,23.67,21.24,25.30,821.270,2100.120,132.850006,17.95,2.4625,363,23916,1.96321,3.84,41119,,,,,,,,,,,,,,,,,,99999,99999,99999,99999,99999,99999,99999,99999,99999,99999,99999,99999
31:40:19,1510870680,2017-11-16T22:18:04,0.800,1427.3,23.65,21.23,25.31,821.270,2099.990,132.683334,17.34,2.4626,363,23916,1.97025,3.84,41113,,,,,,,,,,,,,,,,,,99999,99999,99999,99999,99999,99999,99999,99999,99999,99999,99999,99999
31:40:49,1510870710,2017-11-16T22:18:34,0.799,1427.7,23.65,21.22,25.33,821.250,2099.990,132.066666,17.37,2.4626,363,23915,1.96841,3.84,41108,,,,,,,,,,,,,,,,,,99999,99999,99999,99999,99999,99999,99999,99999,99999,99999,99999,99999
31:41:19,1510870740,2017-11-16T22:19:04,0.798,1428.1,23.63,21.22,25.28,821.200,2099.950,131.600006,17.50,2.4627,363,23915,1.96413,3.84,41103,,,,,,,,,,,,,,,,,,99999,99999,99999,99999,99999,99999,99999,99999,99999,99999,99999,99999
31:41:49,1510870770,2017-11-16T22:19:34,0.800,1428.5,23.61,21.20,25.30,821.260,2099.890,133.733337,17.55,2.4628,363,23913,1.97117,3.84,41097,,,,,,,,,,,,,,,,,,99999,99999,99999,99999,99999,99999,99999,99999,99999,99999,99999,99999
31:42:19,1510870800,2017-11-16T22:20:04,0.801,1428.9,23.62,21.19,25.31,821.230,2099.950,132.899994,18.96,2.4626,363,23914,1.97209,3.84,41092,,,,,,,,,,,,,,,,,,99999,99999,99999,99999,99999,99999,99999,99999,99999,99999,99999,99999
31:42:49,1510870830,2017-11-16T22:20:34,0.799,1429.3,23.61,21.20,25.23,821.280,2099.890,131.966660,18.26,2.4627,363,23916,1.96810,3.84,41087,,,,,,,,,,,,,,,,,,99999,99999,99999,99999,99999,99999,99999,99999,99999,99999,99999,99999
31:43:19,1510870860,2017-11-16T22:21:04,0.799,1429.7,23.61,21.17,25.26,821.230,2099.890,133.449997,18.74,2.4626,363,23915,1.96780,3.84,41081,,,,,,,,,,,,,,,,,,99999,99999,99999,99999,99999,99999,99999,99999,99999,99999,99999,99999
31:43:49,1510870890,2017-11-16T22:21:34,0.798,1430.1,23.59,21.15,25.23,821.180,2099.830,132.433334,17.56,2.4629,363,23914,1.96474,3.84,41076,,,,,,,,,,,,,,,,,,99999,99999,99999,99999,99999,99999,99999,99999,99999,99999,99999,99999
31:44:19,1510870920,2017-11-16T22:22:04,0.796,1430.5,23.58,21.14,25.22,821.180,2099.830,130.916672,17.41,2.4630,363,23913,1.96168,3.84,41070,,,,,,,,,,,,,,,,,,99999,99999,99999,99999,99999,99999,99999,99999,99999,99999,99999,99999
31:44:49,1510870950,2017-11-16T22:22:34,0.800,1430.9,23.57,21.14,25.20,821.180,2099.760,133.066666,16.67,2.4631,363,23913,1.97087,3.84,41065,,,,,,,,,,,,,,,,,,99999,99999,99999,99999,99999,99999,99999,99999,99999,99999,99999,99999
31:45:19,1510870980,2017-11-16T22:23:04,0.797,1431.3,23.56,21.13,25.22,821.110,2099.760,131.199997,17.35,2.4631,363,23914,1.96382,3.84,41060,,,,,,,,,,,,,,,,,,99999,99999,99999,99999,99999,99999,99999,99999,99999,99999,99999,99999
31:45:49,1510871010,2017-11-16T22:23:34,0.797,1431.7,23.56,21.14,25.18,821.190,2099.760,132.466660,17.68,2.4631,363,23912,1.96321,3.84,41054,,,,,,,,,,,,,,,,,,99999,99999,99999,99999,99999,99999,99999,99999,99999,99999,99999,99999
31:46:19,1510871040,2017-11-16T22:24:04,0.800,1432.1,23.56,21.12,25.22,821.290,2099.760,130.100006,17.71,2.4630,363,23912,1.96994,3.84,41049,,,,,,,,,,,,,,,,,,99999,99999,99999,99999,99999,99999,99999,99999,99999,99999,99999,99999
31:46:49,1510871070,2017-11-16T22:24:34,0.801,1432.5,23.55,21.13,25.22,821.290,2099.700,132.566666,17.33,2.4631,363,23912,1.97178,3.84,41044,,,,,,,,,,,,,,,,,,99999,99999,99999,99999,99999,99999,99999,99999,99999,99999,99999,99999
31:47:19,1510871100,2017-11-16T22:25:04,0.797,1432.9,23.54,21.12,25.18,821.190,2099.700,132.333328,17.07,2.4632,363,23913,1.96321,3.84,41038,,,,,,,,,,,,,,,,,,99999,99999,99999,99999,99999,99999,99999,99999,99999,99999,99999,99999
31:47:49,1510871130,2017-11-16T22:25:34,0.798,1433.3,23.55,21.11,25.18,821.290,2099.700,132.933334,17.04,2.4631,363,23915,1.96535,3.84,41033,,,,,,,,,,,,,,,,,,99999,99999,99999,99999,99999,99999,99999,99999,99999,99999,99999,99999
31:48:19,1510871160,2017-11-16T22:26:04,0.796,1433.7,23.54,21.10,25.17,821.300,2099.700,133.516663,17.71,2.4631,363,23907,1.96015,3.84,41028,,,,,,,,,,,,,,,,,,99999,99999,99999,99999,99999,99999,99999,99999,99999,99999,99999,99999
31:48:49,1510871190,2017-11-16T22:26:34,0.797,1434.1,23.55,21.11,25.18,821.130,2099.700,130.850006,17.90,2.4630,363,23912,1.96382,3.84,41022,,,,,,,,,,,,,,,,,,99999,99999,99999,99999,99999,99999,99999,99999,99999,99999,99999,99999
31:49:19,1510871220,2017-11-16T22:27:04,0.794,1434.5,23.55,21.07,25.15,821.160,2099.700,133.899994,13.95,2.4635,363,23911,1.95648,3.84,41017,,,,,,,,,,,,,,,,,,99999,99999,99999,99999,99999,99999,99999,99999,99999,99999,99999,99999
31:49:49,1510871250,2017-11-16T22:27:34,0.795,1434.9,23.55,21.10,25.14,821.190,2099.700,131.600006,13.37,2.4636,363,23911,1.95954,3.84,41012,,,,,,,,,,,,,,,,,,99999,99999,99999,99999,99999,99999,99999,99999,99999,99999,99999,99999
31:50:19,1510871280,2017-11-16T22:28:04,0.796,1435.3,23.58,21.10,25.18,821.320,2099.830,131.000000,13.42,2.4635,363,23910,1.96046,3.84,41006,,,,,,,,,,,,,,,,,,99999,99999,99999,99999,99999,99999,99999,99999,99999,99999,99999,99999
31:50:49,1510871310,2017-11-16T22:28:34,0.800,1435.7,23.62,21.13,25.22,821.230,2099.950,132.850006,13.09,2.4634,363,23911,1.97056,3.84,41001,,,,,,,,,,,,,,,,,,99999,99999,99999,99999,99999,99999,99999,99999,99999,99999,99999,99999
31:51:19,1510871340,2017-11-16T22:29:04,0.798,1436.1,23.66,21.16,25.22,821.300,2100.120,129.399994,12.98,2.4632,363,23915,1.96535,3.84,40996,,,,,,,,,,,,,,,,,,99999,99999,99999,99999,99999,99999,99999,99999,99999,99999,99999,99999
31:51:49,1510871370,2017-11-16T22:29:34,0.797,1436.5,23.71,21.17,25.23,821.290,2100.240,132.333328,13.33,2.4629,363,23917,1.96198,3.84,40990,,,,,,,,,,,,,,,,,,99999,99999,99999,99999,99999,99999,99999,99999,99999,99999,99999,99999
31:52:19,1510871400,2017-11-16T22:30:04,0.798,1436.9,23.75,21.25,25.28,821.250,2100.350,132.583328,13.11,2.4627,363,23917,1.96627,3.84,40985,,,,,,,,,,,,,,,,,,99999,99999,99999,99999,99999,99999,99999,99999,99999,99999,99999,99999
31:52:49,1510871430,2017-11-16T22:30:34,0.798,1437.3,23.81,21.30,25.36,821.180,2100.640,132.000000,13.27,2.4626,363,23914,1.96566,3.84,40980,,,,,,,,,,,,,,,,,,99999,99999,99999,99999,99999,99999,99999,99999,99999,99999,99999,99999
31:53:19,1510871460,2017-11-16T22:31:04,0.801,1437.7,23.86,21.33,25.39,821.270,2100.760,132.183334,13.14,2.4623,363,23917,1.97301,3.84,40974,,,,,,,,,,,,,,,,,,99999,99999,99999,99999,99999,99999,99999,99999,99999,99999,99999,99999
31:53:49,1510871490,2017-11-16T22:31:34,0.797,1438.1,23.92,21.36,25.44,821.070,2100.930,132.216660,13.33,2.4620,363,23917,1.96321,3.83,40969,,,,,,,,,,,,,,,,,,99999,99999,99999,99999,99999,99999,99999,99999,99999,99999,99999,99999
31:54:19,1510871520,2017-11-16T22:32:04,0.798,1438.5,23.99,21.42,25.47,821.080,2101.250,131.966660,13.80,2.4617,363,23920,1.96351,3.84,40964,,,,,,,,,,,,,,,,,,99999,99999,99999,99999,99999,99999,99999,99999,99999,99999,99999,99999
31:54:49,1510871550,2017-11-16T22:32:34,0.803,1438.9,24.04,21.45,25.53,821.240,2101.410,134.366669,13.51,2.4615,363,23924,1.97547,3.84,40958,,,,,,,,,,,,,,,,,,99999,99999,99999,99999,99999,99999,99999,99999,99999,99999,99999,99999
31:55:19,1510871580,2017-11-16T22:33:04,0.799,1439.3,24.09,21.50,25.61,821.170,2101.580,133.449997,13.49,2.4613,363,23921,1.96749,3.83,40953,,,,,,,,,,,,,,,,,,99999,99999,99999,99999,99999,99999,99999,99999,99999,99999,99999,99999
31:55:49,1510871610,2017-11-16T22:33:34,0.803,1439.7,24.14,21.53,25.65,821.180,2101.770,133.166672,12.85,2.4612,363,23925,1.97547,3.83,40948,,,,,,,,,,,,,,,,,,99999,99999,99999,99999,99999,99999,99999,99999,99999,99999,99999,99999
31:56:19,1510871640,2017-11-16T22:34:04,0.804,1440.1,24.19,21.56,25.70,821.170,2101.900,134.166672,13.46,2.4608,363,23925,1.97761,3.83,40942,,,,,,,,,,,,,,,,,,99999,99999,99999,99999,99999,99999,99999,99999,99999,99999,99999,99999
31:56:49,1510871670,2017-11-16T22:34:34,0.800,1440.5,24.24,21.59,25.73,821.130,2102.130,132.383331,13.26,2.4607,363,23927,1.96841,3.83,40937,,,,,,,,,,,,,,,,,,99999,99999,99999,99999,99999,99999,99999,99999,99999,99999,99999,99999
31:57:19,1510871700,2017-11-16T22:35:04,0.802,1440.9,24.28,21.64,25.75,821.280,2102.230,132.533340,13.57,2.4604,363,23927,1.97209,3.83,40932,,,,,,,,,,,,,,,,,,99999,99999,99999,99999,99999,99999,99999,99999,99999,99999,99999,99999
31:57:49,1510871730,2017-11-16T22:35:34,0.801,1441.3,24.33,21.65,25.83,821.220,2102.480,131.983337,13.44,2.4603,363,23930,1.96964,3.83,40926,,,,,,,,,,,,,,,,,,99999,99999,99999,99999,99999,99999,99999,99999,99999,99999,99999,99999
31:58:19,1510871760,2017-11-16T22:36:04,0.802,1441.7,24.37,21.68,25.84,821.160,2102.580,134.666672,13.43,2.4601,363,23931,1.97301,3.83,40921,,,,,,,,,,,,,,,,,,99999,99999,99999,99999,99999,99999,99999,99999,99999,99999,99999,99999
31:58:49,1510871790,2017-11-16T22:36:34,0.800,1442.1,24.41,21.71,25.91,821.280,2102.710,133.183334,13.39,2.4599,363,23929,1.96780,3.83,40915,,,,,,,,,,,,,,,,,,99999,99999,99999,99999,99999,99999,99999,99999,99999,99999,99999,99999
31:59:19,1510871820,2017-11-16T22:37:04,0.804,1442.5,24.44,21.74,25.94,821.270,2102.770,135.783340,12.97,2.4598,363,23931,1.97669,3.83,40910,,,,,,,,,,,,,,,,,,99999,99999,99999,99999,99999,99999,99999,99999,99999,99999,99999,99999
31:59:49,1510871850,2017-11-16T22:37:34,0.806,1442.9,24.48,21.76,25.95,821.210,2102.940,134.550003,13.04,2.4597,363,23933,1.98161,3.83,40905,,,,,,,,,,,,,,,,,,99999,99999,99999,99999,99999,99999,99999,99999,99999,99999,99999,99999
32:00:19,1510871880,2017-11-16T22:38:04,0.800,1443.3,24.50,21.79,25.99,821.230,2103.000,134.283340,13.08,2.4596,363,23932,1.96841,3.83,40899,,,,,,,,,,,,,,,,,,99999,99999,99999,99999,99999,99999,99999,99999,99999,99999,99999,99999
32:00:49,1510871910,2017-11-16T22:38:34,0.802,1443.7,24.53,21.80,26.05,821.330,2103.130,133.300003,12.75,2.4595,363,23933,1.97209,3.83,40894,,,,,,,,,,,,,,,,,,99999,99999,99999,99999,99999,99999,99999,99999,99999,99999,99999,99999
32:01:19,1510871940,2017-11-16T22:39:04,0.804,1444.1,24.55,21.82,26.03,821.270,2103.190,133.766663,12.88,2.4594,363,23933,1.97792,3.83,40889,,,,,,,,,,,,,,,,,,99999,99999,99999,99999,99999,99999,99999,99999,99999,99999,99999,99999
32:01:49,1510871970,2017-11-16T22:39:34,0.801,1444.5,24.58,21.85,26.08,821.290,2103.300,134.649994,12.81,2.4593,363,23934,1.97087,3.83,40883,,,,,,,,,,,,,,,,,,99999,99999,99999,99999,99999,99999,99999,99999,99999,99999,99999,99999
32:02:19,1510872000,2017-11-16T22:40:04,0.802,1444.9,24.61,21.85,26.11,821.230,2103.420,134.350006,12.60,2.4592,363,23935,1.97270,3.83,40878,,,,,,,,,,,,,,,,,,99999,99999,99999,99999,99999,99999,99999,99999,99999,99999,99999,99999
32:02:49,1510872030,2017-11-16T22:40:34,0.801,1445.3,24.63,21.87,26.14,821.250,2103.480,132.966660,13.67,2.4590,363,23935,1.97025,3.83,40872,,,,,,,,,,,,,,,,,,99999,99999,99999,99999,99999,99999,99999,99999,99999,99999,99999,99999
32:03:19,1510872060,2017-11-16T22:41:04,0.802,1445.7,24.64,21.89,26.14,821.190,2103.520,132.850006,13.13,2.4590,363,23937,1.97148,3.83,40867,,,,,,,,,,,,,,,,,,99999,99999,99999,99999,99999,99999,99999,99999,99999,99999,99999,99999
32:03:49,1510872090,2017-11-16T22:41:34,0.806,1446.1,24.66,21.89,26.15,821.220,2103.590,135.300003,13.30,2.4589,363,23936,1.98223,3.83,40862,,,,,,,,,,,,,,,,,,99999,99999,99999,99999,99999,99999,99999,99999,99999,99999,99999,99999
32:04:19,1510872120,2017-11-16T22:42:04,0.805,1446.5,24.69,21.93,26.18,821.190,2103.650,134.449997,13.90,2.4586,363,23935,1.97977,3.83,40856,,,,,,,,,,,,,,,,,,99999,99999,99999,99999,99999,99999,99999,99999,99999,99999,99999,99999
32:04:49,1510872150,2017-11-16T22:42:34,0.806,1446.9,24.70,21.92,26.19,821.290,2103.710,133.766663,13.52,2.4587,363,23936,1.98284,3.83,40851,,,,,,,,,,,,,,,,,,99999,99999,99999,99999,99999,99999,99999,99999,99999,99999,99999,99999
32:05:19,1510872180,2017-11-16T22:43:04,0.806,1447.3,24.72,21.93,26.26,821.230,2103.770,135.383331,12.84,2.4587,363,23938,1.98161,3.83,40845,,,,,,,,,,,,,,,,,,99999,99999,99999,99999,99999,99999,99999,99999,99999,99999,99999,99999
32:05:49,1510872210,2017-11-16T22:43:34,0.803,1447.7,24.73,21.94,26.23,821.200,2103.770,134.166672,12.87,2.4586,363,23936,1.97332,3.83,40840,,,,,,,,,,,,,,,,,,99999,99999,99999,99999,99999,99999,99999,99999,99999,99999,99999,99999
32:06:19,1510872240,2017-11-16T22:44:04,0.803,1448.1,24.74,21.94,26.26,821.280,2103.880,133.699997,12.72,2.4586,363,23938,1.97547,3.83,40835,,,,,,,,,,,,,,,,,,99999,99999,99999,99999,99999,99999,99999,99999,99999,99999,99999,99999
32:06:49,1510872270,2017-11-16T22:44:34,0.805,1448.5,24.74,21.97,26.28,821.200,2103.880,134.916672,12.79,2.4586,363,23937,1.98038,3.83,40829,,,,,,,,,,,,,,,,,,99999,99999,99999,99999,99999,99999,99999,99999,99999,99999,99999,99999
32:07:19,1510872300,2017-11-16T22:45:04,0.806,1448.9,24.75,21.97,26.28,821.250,2103.880,135.333328,12.83,2.4585,363,23938,1.98130,3.83,40824,,,,,,,,,,,,,,,,,,99999,99999,99999,99999,99999,99999,99999,99999,99999,99999,99999,99999
32:07:49,1510872330,2017-11-16T22:45:34,0.802,1449.3,24.76,21.97,26.30,821.270,2103.940,132.800003,12.69,2.4585,363,23936,1.97240,3.83,40818,,,,,,,,,,,,,,,,,,99999,99999,99999,99999,99999,99999,99999,99999,99999,99999,99999,99999
32:08:19,1510872360,2017-11-16T22:46:04,0.802,1449.7,24.77,21.98,26.33,821.300,2103.940,133.733337,13.33,2.4584,363,23939,1.97270,3.83,40813,,,,,,,,,,,,,,,,,,99999,99999,99999,99999,99999,99999,99999,99999,99999,99999,99999,99999
32:08:49,1510872390,2017-11-16T22:46:34,0.804,1450.1,24.77,21.99,26.28,821.280,2103.940,134.533340,13.33,2.4584,363,23938,1.97547,3.83,40808,,,,,,,,,,,,,,,,,,99999,99999,99999,99999,99999,99999,99999,99999,99999,99999,99999,99999
32:09:19,1510872420,2017-11-16T22:47:04,0.804,1450.5,24.77,21.98,26.31,821.220,2103.940,134.066666,13.07,2.4584,363,23935,1.97547,3.83,40802,,,,,,,,,,,,,,,,,,99999,99999,99999,99999,99999,99999,99999,99999,99999,99999,99999,99999
32:09:49,1510872450,2017-11-16T22:47:34,0.803,1450.9,24.78,21.99,26.31,821.240,2104.000,133.466660,13.31,2.4584,363,23939,1.97362,3.83,40797,,,,,,,,,,,,,,,,,,99999,99999,99999,99999,99999,99999,99999,99999,99999,99999,99999,99999
32:10:19,1510872480,2017-11-16T22:48:04,0.805,1451.3,24.78,21.98,26.30,821.190,2104.000,135.116669,14.17,2.4582,363,23937,1.97977,3.83,40791,,,,,,,,,,,,,,,,,,99999,99999,99999,99999,99999,99999,99999,99999,99999,99999,99999,99999
32:10:49,1510872510,2017-11-16T22:48:34,0.804,1451.7,24.78,21.98,26.33,821.190,2104.000,133.083328,15.31,2.4581,363,23937,1.97731,3.83,40786,,,,,,,,,,,,,,,,,,99999,99999,99999,99999,99999,99999,99999,99999,99999,99999,99999,99999
32:11:19,1510872540,2017-11-16T22:49:04,0.803,1452.1,24.78,21.98,26.31,821.240,2104.000,132.983337,14.36,2.4582,363,23937,1.97455,3.83,40781,,,,,,,,,,,,,,,,,,99999,99999,99999,99999,99999,99999,99999,99999,99999,99999,99999,99999
32:11:49,1510872570,2017-11-16T22:49:34,0.806,1452.5,24.77,21.97,26.30,821.190,2103.940,135.383331,13.66,2.4583,363,23935,1.98130,3.83,40775,,,,,,,,,,,,,,,,,,99999,99999,99999,99999,99999,99999,99999,99999,99999,99999,99999,99999
32:12:19,1510872600,2017-11-16T22:50:04,0.805,1452.9,24.75,21.96,26.33,821.200,2103.880,135.699997,13.94,2.4584,363,23937,1.98007,3.83,40770,,,,,,,,,,,,,,,,,,99999,99999,99999,99999,99999,99999,99999,99999,99999,99999,99999,99999
32:12:49,1510872630,2017-11-16T22:50:34,0.805,1453.3,24.74,21.94,26.30,821.280,2103.880,134.483337,13.56,2.4585,363,23935,1.98007,3.83,40764,,,,,,,,,,,,,,,,,,99999,99999,99999,99999,99999,99999,99999,99999,99999,99999,99999,99999
32:13:19,1510872660,2017-11-16T22:51:04,0.802,1453.7,24.73,21.92,26.30,821.280,2103.770,134.300003,13.78,2.4584,363,23937,1.97117,3.83,40759,,,,,,,,,,,,,,,,,,99999,99999,99999,99999,99999,99999,99999,99999,99999,99999,99999,99999
32:13:49,1510872690,2017-11-16T22:51:34,0.806,1454.1,24.73,21.91,26.25,821.260,2103.770,134.616669,14.46,2.4583,363,23936,1.98161,3.83,40754,,,,,,,,,,,,,,,,,,99999,99999,99999,99999,99999,99999,99999,99999,99999,99999,99999,99999
32:14:19,1510872720,2017-11-16T22:52:04,0.805,1454.5,24.71,21.91,26.30,821.310,2103.710,134.283340,15.08,2.4584,363,23935,1.97915,3.83,40748,,,,,,,,,,,,,,,,,,99999,99999,99999,99999,99999,99999,99999,99999,99999,99999,99999,99999
32:14:49,1510872750,2017-11-16T22:52:34,0.802,1454.9,24.69,21.88,26.19,821.190,2103.650,134.033340,14.77,2.4585,363,23933,1.97087,3.83,40743,,,,,,,,,,,,,,,,,,99999,99999,99999,99999,99999,99999,99999,99999,99999,99999,99999,99999
32:15:19,1510872780,2017-11-16T22:53:04,0.806,1455.3,24.68,21.89,26.19,821.210,2103.650,133.500000,14.63,2.4586,363,23935,1.98284,3.83,40737,,,,,,,,,,,,,,,,,,99999,99999,99999,99999,99999,99999,99999,99999,99999,99999,99999,99999
32:15:49,1510872810,2017-11-16T22:53:34,0.802,1455.8,24.65,21.85,26.18,821.200,2103.520,133.266663,14.31,2.4587,363,23933,1.97270,3.83,40732,,,,,,,,,,,,,,,,,,99999,99999,99999,99999,99999,99999,99999,99999,99999,99999,99999,99999
32:16:19,1510872840,2017-11-16T22:54:04,0.805,1456.2,24.64,21.83,26.19,821.170,2103.520,133.399994,13.70,2.4589,363,23933,1.97854,3.83,40727,,,,,,,,,,,,,,,,,,99999,99999,99999,99999,99999,99999,99999,99999,99999,99999,99999,99999
32:16:49,1510872870,2017-11-16T22:54:34,0.805,1456.6,24.63,21.82,26.17,821.250,2103.480,133.850006,13.71,2.4589,363,23933,1.97946,3.83,40721,,,,,,,,,,,,,,,,,,99999,99999,99999,99999,99999,99999,99999,99999,99999,99999,99999,99999
32:17:19,1510872900,2017-11-16T22:55:04,0.804,1457.0,24.61,21.81,26.15,821.230,2103.420,136.399994,13.95,2.4590,363,23933,1.97669,3.83,40716,,,,,,,,,,,,,,,,,,99999,99999,99999,99999,99999,99999,99999,99999,99999,99999,99999,99999
32:17:49,1510872930,2017-11-16T22:55:34,0.802,1457.4,24.60,21.80,26.10,821.240,2103.420,133.949997,13.76,2.4591,363,23931,1.97240,3.83,40710,,,,,,,,,,,,,,,,,,99999,99999,99999,99999,99999,99999,99999,99999,99999,99999,99999,99999
32:18:19,1510872960,2017-11-16T22:56:04,0.805,1457.8,24.57,21.79,26.07,821.210,2103.230,134.516663,13.91,2.4591,363,23931,1.97977,3.83,40705,,,,,,,,,,,,,,,,,,99999,99999,99999,99999,99999,99999,99999,99999,99999,99999,99999,99999
32:18:49,1510872990,2017-11-16T22:56:34,0.801,1458.2,24.56,21.77,26.08,821.170,2103.190,132.566666,13.13,2.4593,363,23933,1.96872,3.83,40700,,,,,,,,,,,,,,,,,,99999,99999,99999,99999,99999,99999,99999,99999,99999,99999,99999,99999
32:19:19,1510873020,2017-11-16T22:57:04,0.803,1458.6,24.54,21.75,26.05,821.200,2103.130,133.649994,13.39,2.4593,363,23932,1.97578,3.83,40694,,,,,,,,,,,,,,,,,,99999,99999,99999,99999,99999,99999,99999,99999,99999,99999,99999,99999
32:19:49,1510873050,2017-11-16T22:57:34,0.804,1459.0,24.53,21.75,26.05,821.200,2103.130,133.300003,13.60,2.4594,363,23931,1.97669,3.83,40689,,,,,,,,,,,,,,,,,,99999,99999,99999,99999,99999,99999,99999,99999,99999,99999,99999,99999
32:20:19,1510873080,2017-11-16T22:58:04,0.803,1459.4,24.51,21.74,26.03,821.200,2103.070,135.983337,14.08,2.4594,363,23928,1.97547,3.83,40683,,,,,,,,,,,,,,,,,,99999,99999,99999,99999,99999,99999,99999,99999,99999,99999,99999,99999
32:20:49,1510873110,2017-11-16T22:58:34,0.803,1459.8,24.50,21.71,26.08,821.150,2103.000,133.166672,14.38,2.4594,363,23931,1.97485,3.83,40678,,,,,,,,,,,,,,,,,,99999,99999,99999,99999,99999,99999,99999,99999,99999,99999,99999,99999
32:21:19,1510873140,2017-11-16T22:59:04,0.803,1460.2,24.49,21.71,26.07,821.150,2103.000,133.066666,13.74,2.4596,363,23933,1.97424,3.83,40673,,,,,,,,,,,,,,,,,,99999,99999,99999,99999,99999,99999,99999,99999,99999,99999,99999,99999
32:21:49,1510873170,2017-11-16T22:59:34,0.800,1460.6,24.47,21.70,26.02,821.180,2102.940,133.083328,13.56,2.4597,363,23930,1.96780,3.83,40667,,,,,,,,,,,,,,,,,,99999,99999,99999,99999,99999,99999,99999,99999,99999,99999,99999,99999
32:22:19,1510873200,2017-11-16T23:00:04,0.804,1461.0,24.47,21.72,26.03,821.150,2102.940,132.750000,13.69,2.4597,363,23931,1.97854,3.83,40662,,,,,,,,,,,,,,,,,,99999,99999,99999,99999,99999,99999,99999,99999,99999,99999,99999,99999
32:22:49,1510873230,2017-11-16T23:00:34,0.802,1461.4,24.45,21.68,25.97,821.210,2102.830,134.783340,14.06,2.4596,363,23929,1.97332,3.83,40656,,,,,,,,,,,,,,,,,,99999,99999,99999,99999,99999,99999,99999,99999,99999,99999,99999,99999
32:23:19,1510873260,2017-11-16T23:01:04,0.800,1461.8,24.44,21.68,25.97,821.160,2102.770,133.266663,13.51,2.4597,363,23927,1.96780,3.83,40651,,,,,,,,,,,,,,,,,,99999,99999,99999,99999,99999,99999,99999,99999,99999,99999,99999,99999
32:23:49,1510873290,2017-11-16T23:01:34,0.804,1462.2,24.43,21.67,25.95,821.220,2102.770,134.366669,12.83,2.4599,363,23928,1.97823,3.83,40646,,,,,,,,,,,,,,,,,,99999,99999,99999,99999,99999,99999,99999,99999,99999,99999,99999,99999
32:24:19,1510873320,2017-11-16T23:02:04,0.802,1462.6,24.41,21.65,25.97,821.170,2102.710,133.533340,13.12,2.4600,363,23927,1.97209,3.83,40640,,,,,,,,,,,,,,,,,,99999,99999,99999,99999,99999,99999,99999,99999,99999,99999,99999,99999
32:24:49,1510873350,2017-11-16T23:02:34,0.802,1463.0,24.41,21.65,25.95,821.140,2102.710,134.550003,13.96,2.4599,363,23926,1.97209,3.83,40635,,,,,,,,,,,,,,,,,,99999,99999,99999,99999,99999,99999,99999,99999,99999,99999,99999,99999
32:25:19,1510873380,2017-11-16T23:03:04,0.804,1463.4,24.40,21.64,25.97,821.150,2102.650,133.783340,13.96,2.4599,363,23926,1.97884,3.83,40630,,,,,,,,,,,,,,,,,,99999,99999,99999,99999,99999,99999,99999,99999,99999,99999,99999,99999
32:25:49,1510873410,2017-11-16T23:03:34,0.800,1463.8,24.39,21.62,25.92,821.090,2102.650,132.300003,14.00,2.4599,363,23926,1.96872,3.83,40624,,,,,,,,,,,,,,,,,,99999,99999,99999,99999,99999,99999,99999,99999,99999,99999,99999,99999
32:26:19,1510873440,2017-11-16T23:04:04,0.803,1464.2,24.38,21.62,25.91,821.150,2102.580,134.350006,14.26,2.4599,363,23927,1.97516,3.83,40619,,,,,,,,,,,,,,,,,,99999,99999,99999,99999,99999,99999,99999,99999,99999,99999,99999,99999
32:26:49,1510873470,2017-11-16T23:04:34,0.800,1464.6,24.37,21.60,25.94,821.080,2102.580,132.183334,14.26,2.4600,363,23927,1.96719,3.83,40613,,,,,,,,,,,,,,,,,,99999,99999,99999,99999,99999,99999,99999,99999,99999,99999,99999,99999
32:27:19,1510873500,2017-11-16T23:05:04,0.803,1465.0,24.36,21.59,25.91,821.130,2102.540,133.699997,14.38,2.4600,363,23926,1.97638,3.83,40608,,,,,,,,,,,,,,,,,,99999,99999,99999,99999,99999,99999,99999,99999,99999,99999,99999,99999
32:27:49,1510873530,2017-11-16T23:05:34,0.801,1465.4,24.33,21.57,25.91,821.110,2102.480,133.266663,14.24,2.4602,363,23924,1.97025,3.83,40603,,,,,,,,,,,,,,,,,,99999,99999,99999,99999,99999,99999,99999,99999,99999,99999,99999,99999
32:28:19,1510873560,2017-11-16T23:06:04,0.800,1465.8,24.32,21.54,25.84,821.080,2102.350,131.550003,14.55,2.4601,363,23924,1.96780,3.83,40597,,,,,,,,,,,,,,,,,,99999,99999,99999,99999,99999,99999,99999,99999,99999,99999,99999,99999
32:28:49,1510873590,2017-11-16T23:06:34,0.799,1466.2,24.31,21.53,25.84,821.140,2102.350,132.183334,13.66,2.4603,363,23924,1.96688,3.83,40592,,,,,,,,,,,,,,,,,,99999,99999,99999,99999,99999,99999,99999,99999,99999,99999,99999,99999
32:29:19,1510873620,2017-11-16T23:07:04,0.803,1466.6,24.28,21.50,25.83,821.090,2102.230,134.466660,14.30,2.4603,363,23924,1.97547,3.83,40586,,,,,,,,,,,,,,,,,,99999,99999,99999,99999,99999,99999,99999,99999,99999,99999,99999,99999
32:29:49,1510873650,2017-11-16T23:07:34,0.800,1467.0,24.26,21.49,25.80,821.150,2102.190,132.116669,14.27,2.4605,363,23925,1.96749,3.83,40581,,,,,,,,,,,,,,,,,,99999,99999,99999,99999,99999,99999,99999,99999,99999,99999,99999,99999
32:30:19,1510873680,2017-11-16T23:08:04,0.802,1467.4,24.25,21.44,25.80,821.050,2102.130,132.616669,14.31,2.4605,363,23922,1.97270,3.83,40576,,,,,,,,,,,,,,,,,,99999,99999,99999,99999,99999,99999,99999,99999,99999,99999,99999,99999
32:30:49,1510873710,2017-11-16T23:08:34,0.800,1467.8,24.22,21.44,25.80,821.080,2102.060,131.433334,14.72,2.4606,363,23925,1.96933,3.83,40570,,,,,,,,,,,,,,,,,,99999,99999,99999,99999,99999,99999,99999,99999,99999,99999,99999,99999
32:31:19,1510873740,2017-11-16T23:09:04,0.799,1468.2,24.20,21.43,25.76,821.110,2102.000,131.816666,14.41,2.4607,363,23921,1.96719,3.83,40565,,,,,,,,,,,,,,,,,,99999,99999,99999,99999,99999,99999,99999,99999,99999,99999,99999,99999
32:31:49,1510873770,2017-11-16T23:09:34,0.799,1468.6,24.18,21.40,25.72,821.040,2101.900,134.100006,14.46,2.4608,363,23922,1.96688,3.83,40560,,,,,,,,,,,,,,,,,,99999,99999,99999,99999,99999,99999,99999,99999,99999,99999,99999,99999
32:32:19,1510873800,2017-11-16T23:10:04,0.801,1469.0,24.16,21.38,25.67,821.090,2101.830,133.199997,14.16,2.4609,363,23921,1.97117,3.83,40554,,,,,,,,,,,,,,,,,,99999,99999,99999,99999,99999,99999,99999,99999,99999,99999,99999,99999
32:32:49,1510873830,2017-11-16T23:10:34,0.800,1469.4,24.15,21.35,25.68,821.070,2101.770,131.733337,14.43,2.4609,363,23920,1.96780,3.83,40549,,,,,,,,,,,,,,,,,,99999,99999,99999,99999,99999,99999,99999,99999,99999,99999,99999,99999
32:33:19,1510873860,2017-11-16T23:11:04,0.801,1469.8,24.12,21.34,25.64,821.060,2101.710,133.500000,14.66,2.4610,363,23917,1.97209,3.83,40543,,,,,,,,,,,,,,,,,,99999,99999,99999,99999,99999,99999,99999,99999,99999,99999,99999,99999
32:33:49,1510873890,2017-11-16T23:11:34,0.798,1470.2,24.09,21.31,25.64,821.030,2101.580,132.600006,14.20,2.4612,363,23916,1.96443,3.83,40538,,,,,,,,,,,,,,,,,,99999,99999,99999,99999,99999,99999,99999,99999,99999,99999,99999,99999
32:34:19,1510873920,2017-11-16T23:12:04,0.799,1470.6,24.07,21.28,25.64,820.980,2101.540,130.683334,14.38,2.4613,363,23916,1.96596,3.83,40533,,,,,,,,,,,,,,,,,,99999,99999,99999,99999,99999,99999,99999,99999,99999,99999,99999,99999
32:34:49,1510873950,2017-11-16T23:12:34,0.800,1471.0,24.03,21.24,25.57,821.050,2101.350,134.583328,14.29,2.4614,363,23911,1.97025,3.83,40527,,,,,,,,,,,,,,,,,,99999,99999,99999,99999,99999,99999,99999,99999,99999,99999,99999,99999
32:35:19,1510873980,2017-11-16T23:13:04,0.798,1471.4,24.01,21.23,25.56,821.130,2101.290,132.850006,14.61,2.4615,363,23914,1.96443,3.83,40522,,,,,,,,,,,,,,,,,,99999,99999,99999,99999,99999,99999,99999,99999,99999,99999,99999,99999
32:35:49,1510874010,2017-11-16T23:13:34,0.797,1471.8,23.98,21.20,25.56,821.170,2101.180,132.149994,13.98,2.4617,363,23914,1.96229,3.83,40517,,,,,,,,,,,,,,,,,,99999,99999,99999,99999,99999,99999,99999,99999,99999,99999,99999,99999
32:36:19,1510874040,2017-11-16T23:14:04,0.802,1472.2,23.95,21.16,25.52,821.150,2101.120,133.566666,14.37,2.4618,363,23913,1.97332,3.83,40511,,,,,,,,,,,,,,,,,,99999,99999,99999,99999,99999,99999,99999,99999,99999,99999,99999,99999
32:36:49,1510874070,2017-11-16T23:14:34,0.798,1472.6,23.92,21.14,25.49,821.160,2100.930,131.800003,14.45,2.4618,363,23911,1.96443,3.83,40506,,,,,,,,,,,,,,,,,,99999,99999,99999,99999,99999,99999,99999,99999,99999,99999,99999,99999
32:37:19,1510874100,2017-11-16T23:15:04,0.798,1473.0,23.89,21.12,25.44,821.140,2100.890,132.783340,14.97,2.4619,363,23913,1.96382,3.83,40500,,,,,,,,,,,,,,,,,,99999,99999,99999,99999,99999,99999,99999,99999,99999,99999,99999,99999
32:37:49,1510874130,2017-11-16T23:15:34,0.801,1473.4,23.85,21.09,25.44,821.060,2100.760,131.649994,14.30,2.4622,363,23910,1.97117,3.83,40495,,,,,,,,,,,,,,,,,,99999,99999,99999,99999,99999,99999,99999,99999,99999,99999,99999,99999
32:38:19,1510874160,2017-11-16T23:16:04,0.799,1473.8,23.83,21.07,25.41,821.150,2100.710,133.166672,14.65,2.4623,363,23910,1.96627,3.83,40490,,,,,,,,,,,,,,,,,,99999,99999,99999,99999,99999,99999,99999,99999,99999,99999,99999,99999
32:38:49,1510874190,2017-11-16T23:16:34,0.800,1474.2,23.80,21.03,25.38,821.100,2100.580,131.883331,14.41,2.4624,363,23911,1.96903,3.83,40484,,,,,,,,,,,,,,,,,,99999,99999,99999,99999,99999,99999,99999,99999,99999,99999,99999,99999
32:39:19,1510874220,2017-11-16T23:17:04,0.801,1474.6,23.78,20.99,25.33,821.080,2100.470,133.133331,14.68,2.4624,363,23910,1.97270,3.83,40479,,,,,,,,,,,,,,,,,,99999,99999,99999,99999,99999,99999,99999,99999,99999,99999,99999,99999
32:39:49,1510874250,2017-11-16T23:17:34,0.800,1475.0,23.74,20.98,25.31,821.200,2100.350,131.550003,14.56,2.4626,363,23909,1.96964,3.83,40474,,,,,,,,,,,,,,,,,,99999,99999,99999,99999,99999,99999,99999,99999,99999,99999,99999,99999
32:40:19,1510874280,2017-11-16T23:18:04,0.799,1475.4,23.71,20.94,25.25,821.100,2100.240,132.449997,15.32,2.4627,363,23906,1.96780,3.83,40468,,,,,,,,,,,,,,,,,,99999,99999,99999,99999,99999,99999,99999,99999,99999,99999,99999,99999
32:40:49,1510874310,2017-11-16T23:18:34,0.797,1475.8,23.69,20.92,25.25,821.210,2100.180,130.416672,15.75,2.4627,363,23906,1.96290,3.83,40463,,,,,,,,,,,,,,,,,,99999,99999,99999,99999,99999,99999,99999,99999,99999,99999,99999,99999
32:41:19,1510874340,2017-11-16T23:19:04,0.798,1476.2,23.65,20.89,25.20,821.270,2099.990,133.166672,16.16,2.4628,363,23906,1.96474,3.83,40458,,,,,,,,,,,,,,,,,,99999,99999,99999,99999,99999,99999,99999,99999,99999,99999,99999,99999
32:41:49,1510874370,2017-11-16T23:19:34,0.799,1476.6,23.62,20.84,25.18,821.170,2099.950,131.100006,15.50,2.4631,363,23904,1.96841,3.83,40452,,,,,,,,,,,,,,,,,,99999,99999,99999,99999,99999,99999,99999,99999,99999,99999,99999,99999
32:42:19,1510874400,2017-11-16T23:20:04,0.797,1477.0,23.58,20.81,25.15,821.210,2099.830,130.433334,15.62,2.4632,363,23905,1.96260,3.83,40447,,,,,,,,,,,,,,,,,,99999,99999,99999,99999,99999,99999,99999,99999,99999,99999,99999,99999
32:42:49,1510874430,2017-11-16T23:20:34,0.799,1477.4,23.55,20.78,25.10,821.160,2099.700,133.466660,15.51,2.4633,363,23901,1.96903,3.83,40442,,,,,,,,,,,,,,,,,,99999,99999,99999,99999,99999,99999,99999,99999,99999,99999,99999,99999
32:43:19,1510874460,2017-11-16T23:21:04,0.798,1477.8,23.52,20.75,25.12,821.150,2099.640,131.250000,14.55,2.4637,363,23901,1.96657,3.83,40436,,,,,,,,,,,,,,,,,,99999,99999,99999,99999,99999,99999,99999,99999,99999,99999,99999,99999
32:43:49,1510874490,2017-11-16T23:21:34,0.795,1478.2,23.49,20.71,25.03,821.230,2099.470,130.966660,14.36,2.4637,363,23900,1.95862,3.83,40431,,,,,,,,,,,,,,,,,,99999,99999,99999,99999,99999,99999,99999,99999,99999,99999,99999,99999
32:44:19,1510874520,2017-11-16T23:22:04,0.796,1478.6,23.45,20.67,25.02,821.240,2099.340,128.716660,15.89,2.4637,363,23898,1.96137,3.83,40425,,,,,,,,,,,,,,,,,,99999,99999,99999,99999,99999,99999,99999,99999,99999,99999,99999,99999
32:44:49,1510874550,2017-11-16T23:22:34,0.799,1479.0,23.43,20.66,24.99,821.240,2099.310,130.399994,16.22,2.4638,363,23898,1.96780,3.83,40420,,,,,,,,,,,,,,,,,,99999,99999,99999,99999,99999,99999,99999,99999,99999,99999,99999,99999
32:45:19,1510874580,2017-11-16T23:23:04,0.797,1479.4,23.39,20.61,24.98,821.260,2099.180,131.816666,15.75,2.4641,363,23894,1.96413,3.83,40415,,,,,,,,,,,,,,,,,,99999,99999,99999,99999,99999,99999,99999,99999,99999,99999,99999,99999
32:45:49,1510874610,2017-11-16T23:23:34,0.795,1479.8,23.35,20.58,24.89,821.240,2099.010,129.883331,15.69,2.4642,363,23896,1.95893,3.83,40409,,,,,,,,,,,,,,,,,,99999,99999,99999,99999,99999,99999,99999,99999,99999,99999,99999,99999
32:46:19,1510874640,2017-11-16T23:24:04,0.794,1480.2,23.31,20.54,24.88,821.300,2098.890,130.899994,16.11,2.4643,363,23893,1.95740,3.83,40404,,,,,,,,,,,,,,,,,,99999,99999,99999,99999,99999,99999,99999,99999,99999,99999,99999,99999
32:46:49,1510874670,2017-11-16T23:24:34,0.795,1480.6,23.28,20.51,24.86,821.250,2098.760,130.866669,16.50,2.4644,363,23892,1.95832,3.83,40399,,,,,,,,,,,,,,,,,,99999,99999,99999,99999,99999,99999,99999,99999,99999,99999,99999,99999
32:47:19,1510874700,2017-11-16T23:25:04,0.798,1481.0,23.24,20.44,24.84,821.210,2098.590,131.783340,16.46,2.4645,363,23893,1.96566,3.83,40393,,,,,,,,,,,,,,,,,,99999,99999,99999,99999,99999,99999,99999,99999,99999,99999,99999,99999
32:47:49,1510874730,2017-11-16T23:25:34,0.794,1481.4,23.21,20.42,24.80,821.160,2098.470,130.050003,16.49,2.4646,363,23891,1.95587,3.83,40388,,,,,,,,,,,,,,,,,,99999,99999,99999,99999,99999,99999,99999,99999,99999,99999,99999,99999
32:48:19,1510874760,2017-11-16T23:26:04,0.797,1481.8,23.16,20.38,24.75,821.200,2098.370,132.016663,16.67,2.4649,363,23890,1.96535,3.83,40383,,,,,,,,,,,,,,,,,,99999,99999,99999,99999,99999,99999,99999,99999,99999,99999,99999,99999
32:48:49,1510874790,2017-11-16T23:26:34,0.794,1482.2,23.12,20.33,24.67,821.240,2098.240,131.266663,16.50,2.4651,363,23889,1.95801,3.83,40377,,,,,,,,,,,,,,,,,,99999,99999,99999,99999,99999,99999,99999,99999,99999,99999,99999,99999
32:49:19,1510874820,2017-11-16T23:27:04,0.794,1482.6,23.08,20.29,24.68,821.280,2098.070,131.750000,16.44,2.4653,363,23887,1.95740,3.83,40372,,,,,,,,,,,,,,,,,,99999,99999,99999,99999,99999,99999,99999,99999,99999,99999,99999,99999
32:49:49,1510874850,2017-11-16T23:27:34,0.797,1483.0,23.04,20.24,24.60,821.230,2097.950,131.183334,16.25,2.4655,363,23884,1.96535,3.83,40367,,,,,,,,,,,,,,,,,,99999,99999,99999,99999,99999,99999,99999,99999,99999,99999,99999,99999
32:50:19,1510874880,2017-11-16T23:28:04,0.795,1483.4,23.00,20.21,24.60,821.320,2097.820,131.716660,16.42,2.4657,363,23881,1.95985,3.83,40361,,,,,,,,,,,,,,,,,,99999,99999,99999,99999,99999,99999,99999,99999,99999,99999,99999,99999
32:50:49,1510874910,2017-11-16T23:28:34,0.796,1483.7,22.95,20.16,24.50,821.200,2097.590,131.000000,16.43,2.4658,363,23882,1.96168,3.83,40356,,,,,,,,,,,,,,,,,,99999,99999,99999,99999,99999,99999,99999,99999,99999,99999,99999,99999
32:51:19,1510874940,2017-11-16T23:29:04,0.795,1484.1,22.90,20.12,24.52,821.290,2097.420,132.666672,16.83,2.4660,363,23881,1.96076,3.83,40351,,,,,,,,,,,,,,,,,,99999,99999,99999,99999,99999,99999,99999,99999,99999,99999,99999,99999
32:51:49,1510874970,2017-11-16T23:29:34,0.796,1484.5,22.86,20.06,24.45,821.300,2097.300,131.800003,16.30,2.4662,363,23879,1.96413,3.83,40345,,,,,,,,,,,,,,,,,,99999,99999,99999,99999,99999,99999,99999,99999,99999,99999,99999,99999
32:52:19,1510875000,2017-11-16T23:30:04,0.791,1484.9,22.82,20.02,24.40,821.330,2097.130,129.250000,17.63,2.4662,363,23877,1.95130,3.83,40340,,,,,,,,,,,,,,,,,,99999,99999,99999,99999,99999,99999,99999,99999,99999,99999,99999,99999
32:52:49,1510875030,2017-11-16T23:30:34,0.792,1485.3,22.77,19.98,24.33,821.300,2097.000,130.600006,17.43,2.4665,363,23878,1.95465,3.83,40335,,,,,,,,,,,,,,,,,,99999,99999,99999,99999,99999,99999,99999,99999,99999,99999,99999,99999
32:53:19,1510875060,2017-11-16T23:31:04,0.792,1485.7,22.72,19.92,24.28,821.200,2096.840,130.016663,17.35,2.4668,363,23875,1.95282,3.83,40330,,,,,,,,,,,,,,,,,,99999,99999,99999,99999,99999,99999,99999,99999,99999,99999,99999,99999
32:53:49,1510875090,2017-11-16T23:31:34,0.791,1486.1,22.67,19.88,24.30,821.180,2096.590,128.283340,17.58,2.4669,363,23874,1.95190,3.83,40324,,,,,,,,,,,,,,,,,,99999,99999,99999,99999,99999,99999,99999,99999,99999,99999,99999,99999
32:54:19,1510875120,2017-11-16T23:32:04,0.794,1486.5,22.62,19.82,24.22,821.170,2096.480,132.000000,17.95,2.4671,363,23870,1.95832,3.82,40319,,,,,,,,,,,,,,,,,,99999,99999,99999,99999,99999,99999,99999,99999,99999,99999,99999,99999
32:54:49,1510875150,2017-11-16T23:32:34,0.789,1486.9,22.55,19.77,24.15,821.130,2096.190,130.500000,17.84,2.4674,363,23868,1.94703,3.82,40314,,,,,,,,,,,,,,,,,,99999,99999,99999,99999,99999,99999,99999,99999,99999,99999,99999,99999
32:55:19,1510875180,2017-11-16T23:33:04,0.793,1487.3,22.49,19.71,24.10,821.130,2096.000,131.166672,18.33,2.4676,363,23866,1.95679,3.82,40308,,,,,,,,,,,,,,,,,,99999,99999,99999,99999,99999,99999,99999,99999,99999,99999,99999,99999
32:55:49,1510875210,2017-11-16T23:33:34,0.793,1487.7,22.43,19.64,24.04,821.270,2095.780,130.483337,18.05,2.4679,363,23863,1.95679,3.82,40303,,,,,,,,,,,,,,,,,,99999,99999,99999,99999,99999,99999,99999,99999,99999,99999,99999,99999
32:56:19,1510875240,2017-11-16T23:34:04,0.793,1488.1,22.36,19.57,24.00,821.260,2095.540,131.533340,17.75,2.4682,363,23863,1.95648,3.82,40298,,,,,,,,,,,,,,,,,,99999,99999,99999,99999,99999,99999,99999,99999,99999,99999,99999,99999
32:56:49,1510875270,2017-11-16T23:34:34,0.789,1488.5,22.29,19.52,23.96,821.170,2095.310,128.266663,18.16,2.4685,363,23865,1.94794,3.82,40292,,,,,,,,,,,,,,,,,,99999,99999,99999,99999,99999,99999,99999,99999,99999,99999,99999,99999
32:57:19,1510875300,2017-11-16T23:35:04,0.792,1488.9,22.23,19.44,23.88,821.260,2095.080,128.366669,18.24,2.4687,363,23859,1.95557,3.82,40287,,,,,,,,,,,,,,,,,,99999,99999,99999,99999,99999,99999,99999,99999,99999,99999,99999,99999
32:57:49,1510875330,2017-11-16T23:35:34,0.790,1489.3,22.17,19.38,23.80,821.170,2094.830,129.816666,17.86,2.4690,363,23857,1.95069,3.82,40282,,,,,,,,,,,,,,,,,,99999,99999,99999,99999,99999,99999,99999,99999,99999,99999,99999,99999
32:58:19,1510875360,2017-11-16T23:36:04,0.791,1489.7,22.12,19.33,23.75,821.210,2094.730,130.583328,17.81,2.4693,363,23858,1.95252,3.82,40276,,,,,,,,,,,,,,,,,,99999,99999,99999,99999,99999,99999,99999,99999,99999,99999,99999,99999
32:58:49,1510875390,2017-11-16T23:36:34,0.791,1490.1,22.06,19.25,23.72,821.260,2094.540,128.699997,17.82,2.4696,363,23854,1.95221,3.82,40271,,,,,,,,,,,,,,,,,,99999,99999,99999,99999,99999,99999,99999,99999,99999,99999,99999,99999
32:59:19,1510875420,2017-11-16T23:37:04,0.791,1490.5,21.98,19.21,23.67,821.270,2094.210,130.616669,18.12,2.4698,363,23853,1.95374,3.82,40266,,,,,,,,,,,,,,,,,,99999,99999,99999,99999,99999,99999,99999,99999,99999,99999,99999,99999
32:59:49,1510875450,2017-11-16T23:37:34,0.789,1490.9,21.93,19.16,23.57,821.290,2094.080,127.516670,18.62,2.4701,363,23852,1.94825,3.82,40261,,,,,,,,,,,,,,,,,,99999,99999,99999,99999,99999,99999,99999,99999,99999,99999,99999,99999
33:00:19,1510875480,2017-11-16T23:38:04,0.791,1491.3,21.87,19.10,23.49,821.270,2093.850,129.616669,19.15,2.4702,363,23849,1.95496,3.82,40255,,,,,,,,,,,,,,,,,,99999,99999,99999,99999,99999,99999,99999,99999,99999,99999,99999,99999
33:00:49,1510875510,2017-11-16T23:38:34,0.786,1491.7,21.81,19.02,23.44,821.340,2093.660,127.699997,18.75,2.4706,363,23849,1.94094,3.82,40250,,,,,,,,,,,,,,,,,,99999,99999,99999,99999,99999,99999,99999,99999,99999,99999,99999,99999
33:01:19,1510875540,2017-11-16T23:39:04,0.791,1492.1,21.74,18.97,23.38,821.360,2093.370,128.199997,18.53,2.4708,363,23846,1.95374,3.82,40245,,,,,,,,,,,,,,,,,,99999,99999,99999,99999,99999,99999,99999,99999,99999,99999,99999,99999
33:01:49,1510875570,2017-11-16T23:39:34,0.790,1492.5,21.69,18.91,23.34,821.310,2093.210,128.883331,18.01,2.4711,363,23844,1.95282,3.82,40240,,,,,,,,,,,,,,,,,,99999,99999,99999,99999,99999,99999,99999,99999,99999,99999,99999,99999
33:02:19,1510875600,2017-11-16T23:40:04,0.788,1492.8,21.63,18.85,23.25,821.390,2092.970,126.949997,17.88,2.4714,363,23844,1.94825,3.82,40234,,,,,,,,,,,,,,,,,,99999,99999,99999,99999,99999,99999,99999,99999,99999,99999,99999,99999
33:02:49,1510875630,2017-11-16T23:40:34,0.790,1493.2,21.58,18.79,23.20,821.310,2092.850,129.066666,18.45,2.4716,363,23842,1.95252,3.82,40229,,,,,,,,,,,,,,,,,,99999,99999,99999,99999,99999,99999,99999,99999,99999,99999,99999,99999
33:03:19,1510875660,2017-11-16T23:41:04,0.788,1493.6,21.52,18.76,23.15,821.270,2092.620,128.416672,18.33,2.4719,363,23838,1.94764,3.82,40224,,,,,,,,,,,,,,,,,,99999,99999,99999,99999,99999,99999,99999,99999,99999,99999,99999,99999
33:03:49,1510875690,2017-11-16T23:41:34,0.786,1494.0,21.47,18.68,23.07,821.420,2092.450,127.683334,18.41,2.4721,363,23838,1.94246,3.82,40219,,,,,,,,,,,,,,,,,,99999,99999,99999,99999,99999,99999,99999,99999,99999,99999,99999,99999
33:04:19,1510875720,2017-11-16T23:42:04,0.786,1494.4,21.42,18.63,23.04,821.330,2092.270,126.033333,18.53,2.4723,363,23836,1.94246,3.82,40213,,,,,,,,,,,,,,,,,,99999,99999,99999,99999,99999,99999,99999,99999,99999,99999,99999,99999
33:04:49,1510875750,2017-11-16T23:42:34,0.788,1494.8,21.37,18.58,22.98,821.340,2092.160,125.750000,18.48,2.4726,363,23834,1.94733,3.82,40208,,,,,,,,,,,,,,,,,,99999,99999,99999,99999,99999,99999,99999,99999,99999,99999,99999,99999
33:05:19,1510875780,2017-11-16T23:43:04,0.787,1495.2,21.30,18.54,22.94,821.380,2091.870,129.199997,19.01,2.4728,363,23833,1.94673,3.82,40203,,,,,,,,,,,,,,,,,,99999,99999,99999,99999,99999,99999,99999,99999,99999,99999,99999,99999
33:05:49,1510875810,2017-11-16T23:43:34,0.784,1495.6,21.26,18.47,22.84,821.360,2091.740,127.533333,19.21,2.4729,363,23829,1.93760,3.82,40198,,,,,,,,,,,,,,,,,,99999,99999,99999,99999,99999,99999,99999,99999,99999,99999,99999,99999
33:06:19,1510875840,2017-11-16T23:44:04,0.783,1496.0,21.20,18.42,22.82,821.380,2091.510,125.583336,19.45,2.4731,363,23830,1.93760,3.82,40192,,,,,,,,,,,,,,,,,,99999,99999,99999,99999,99999,99999,99999,99999,99999,99999,99999,99999
33:06:49,1510875870,2017-11-16T23:44:34,0.784,1496.4,21.16,18.38,22.78,821.420,2091.390,126.883331,19.24,2.4734,363,23829,1.93912,3.82,40187,,,,,,,,,,,,,,,,,,99999,99999,99999,99999,99999,99999,99999,99999,99999,99999,99999,99999
33:07:19,1510875900,2017-11-16T23:45:04,0.784,1496.8,21.11,18.31,22.72,821.430,2091.160,126.133331,19.38,2.4735,363,23826,1.93851,3.82,40182,,,,,,,,,,,,,,,,,,99999,99999,99999,99999,99999,99999,99999,99999,99999,99999,99999,99999
33:07:49,1510875930,2017-11-16T23:45:34,0.785,1497.2,21.05,18.27,22.68,821.420,2090.990,127.733330,19.20,2.4738,363,23823,1.94307,3.82,40177,,,,,,,,,,,,,,,,,,99999,99999,99999,99999,99999,99999,99999,99999,99999,99999,99999,99999
33:08:19,1510875960,2017-11-16T23:46:04,0.783,1497.6,21.00,18.23,22.62,821.400,2090.820,126.300003,18.52,2.4741,363,23823,1.93821,3.82,40171,,,,,,,,,,,,,,,,,,99999,99999,99999,99999,99999,99999,99999,99999,99999,99999,99999,99999
33:08:49,1510875990,2017-11-16T23:46:34,0.787,1498.0,20.96,18.17,22.56,821.490,2090.630,127.250000,18.91,2.4742,363,23824,1.94703,3.82,40166,,,,,,,,,,,,,,,,,,99999,99999,99999,99999,99999,99999,99999,99999,99999,99999,99999,99999
33:09:19,1510876020,2017-11-16T23:47:04,0.785,1498.3,20.91,18.11,22.52,821.450,2090.470,126.533333,18.89,2.4744,363,23822,1.94125,3.82,40161,,,,,,,,,,,,,,,,,,99999,99999,99999,99999,99999,99999,99999,99999,99999,99999,99999,99999
33:09:49,1510876050,2017-11-16T23:47:34,0.784,1498.7,20.86,18.07,22.49,821.490,2090.340,126.750000,19.12,2.4747,363,23817,1.94094,3.82,40156,,,,,,,,,,,,,,,,,,99999,99999,99999,99999,99999,99999,99999,99999,99999,99999,99999,99999
33:10:19,1510876080,2017-11-16T23:48:04,0.783,1499.1,20.81,18.07,22.46,821.500,2090.120,125.500000,19.07,2.4749,363,23819,1.93790,3.82,40150,,,,,,,,,,,,,,,,,,99999,99999,99999,99999,99999,99999,99999,99999,99999,99999,99999,99999
33:10:49,1510876110,2017-11-16T23:48:34,0.784,1499.5,20.78,17.97,22.40,821.530,2090.050,126.616669,19.53,2.4750,363,23816,1.94155,3.82,40145,,,,,,,,,,,,,,,,,,99999,99999,99999,99999,99999,99999,99999,99999,99999,99999,99999,99999
33:11:19,1510876140,2017-11-16T23:49:04,0.781,1499.9,20.72,17.95,22.33,821.520,2089.880,126.133331,19.71,2.4753,363,23813,1.93274,3.82,40140,,,,,,,,,,,,,,,,,,99999,99999,99999,99999,99999,99999,99999,99999,99999,99999,99999,99999
33:11:49,1510876170,2017-11-16T23:49:34,0.782,1500.3,20.70,17.93,22.33,821.530,2089.760,127.016670,20.25,2.4753,363,23810,1.93669,3.82,40135,,,,,,,,,,,,,,,,,,99999,99999,99999,99999,99999,99999,99999,99999,99999,99999,99999,99999
33:12:19,1510876200,2017-11-16T23:50:04,0.782,1500.7,20.64,17.87,22.24,821.540,2089.530,127.333336,19.86,2.4755,363,23810,1.93517,3.82,40130,,,,,,,,,,,,,,,,,,99999,99999,99999,99999,99999,99999,99999,99999,99999,99999,99999,99999
33:12:49,1510876230,2017-11-16T23:50:34,0.781,1501.1,20.61,17.82,22.22,821.520,2089.470,125.300003,20.31,2.4757,363,23811,1.93426,3.82,40124,,,,,,,,,,,,,,,,,,99999,99999,99999,99999,99999,99999,99999,99999,99999,99999,99999,99999
33:13:19,1510876260,2017-11-16T23:51:04,0.781,1501.5,20.56,17.78,22.17,821.510,2089.230,127.916664,20.22,2.4758,363,23809,1.93304,3.82,40119,,,,,,,,,,,,,,,,,,99999,99999,99999,99999,99999,99999,99999,99999,99999,99999,99999,99999
33:13:49,1510876290,2017-11-16T23:51:34,0.780,1501.9,20.50,17.74,22.12,821.600,2089.070,125.616669,20.51,2.4761,363,23811,1.93183,3.82,40114,,,,,,,,,,,,,,,,,,99999,99999,99999,99999,99999,99999,99999,99999,99999,99999,99999,99999
33:14:19,1510876320,2017-11-16T23:52:04,0.784,1502.3,20.46,17.68,22.07,821.540,2088.840,126.783333,20.36,2.4762,363,23806,1.94094,3.82,40109,,,,,,,,,,,,,,,,,,99999,99999,99999,99999,99999,99999,99999,99999,99999,99999,99999,99999
33:14:49,1510876350,2017-11-16T23:52:34,0.783,1502.7,20.40,17.63,22.02,821.600,2088.710,127.116669,20.67,2.4765,363,23807,1.93973,3.82,40104,,,,,,,,,,,,,,,,,,99999,99999,99999,99999,99999,99999,99999,99999,99999,99999,99999,99999
33:15:19,1510876380,2017-11-16T23:53:04,0.782,1503.0,20.35,17.57,21.98,821.560,2088.550,124.666664,20.43,2.4768,363,23806,1.93730,3.82,40098,,,,,,,,,,,,,,,,,,99999,99999,99999,99999,99999,99999,99999,99999,99999,99999,99999,99999
33:15:49,1510876410,2017-11-16T23:53:34,0.785,1503.4,20.30,17.52,21.92,821.570,2088.320,126.250000,20.74,2.4769,363,23802,1.94338,3.82,40093,,,,,,,,,,,,,,,,,,99999,99999,99999,99999,99999,99999,99999,99999,99999,99999,99999,99999
33:16:19,1510876440,2017-11-16T23:54:04,0.779,1503.8,20.24,17.47,21.83,821.640,2088.130,124.216667,20.60,2.4772,363,23801,1.93062,3.82,40088,,,,,,,,,,,,,,,,,,99999,99999,99999,99999,99999,99999,99999,99999,99999,99999,99999,99999
33:16:49,1510876470,2017-11-16T23:54:34,0.783,1504.2,20.19,17.42,21.82,821.700,2088.030,126.533333,20.68,2.4775,363,23798,1.93973,3.82,40083,,,,,,,,,,,,,,,,,,99999,99999,99999,99999,99999,99999,99999,99999,99999,99999,99999,99999
33:17:19,1510876500,2017-11-16T23:55:04,0.782,1504.6,20.13,17.37,21.75,821.640,2087.730,126.583336,20.47,2.4777,363,23795,1.93790,3.82,40078,,,,,,,,,,,,,,,,,,99999,99999,99999,99999,99999,99999,99999,99999,99999,99999,99999,99999
33:17:49,1510876530,2017-11-16T23:55:34,0.778,1505.0,20.07,17.32,21.70,821.570,2087.610,124.666664,20.45,2.4781,363,23795,1.92910,3.82,40072,,,,,,,,,,,,,,,,,,99999,99999,99999,99999,99999,99999,99999,99999,99999,99999,99999,99999
33:18:19,1510876560,2017-11-16T23:56:04,0.779,1505.4,20.02,17.26,21.62,821.590,2087.380,124.099998,20.13,2.4783,363,23793,1.92941,3.82,40067,,,,,,,,,,,,,,,,,,99999,99999,99999,99999,99999,99999,99999,99999,99999,99999,99999,99999
33:18:49,1510876590,2017-11-16T23:56:34,0.778,1505.8,19.97,17.20,21.58,821.680,2087.210,124.783333,20.13,2.4785,363,23792,1.92759,3.82,40062,,,,,,,,,,,,,,,,,,99999,99999,99999,99999,99999,99999,99999,99999,99999,99999,99999,99999
33:19:19,1510876620,2017-11-16T23:57:04,0.777,1506.2,19.91,17.15,21.52,821.690,2086.980,124.150002,20.19,2.4787,363,23790,1.92638,3.82,40057,,,,,,,,,,,,,,,,,,99999,99999,99999,99999,99999,99999,99999,99999,99999,99999,99999,99999
33:19:49,1510876650,2017-11-16T23:57:34,0.780,1506.6,19.85,17.11,21.46,821.680,2086.810,124.416664,20.59,2.4790,363,23790,1.93335,3.82,40052,,,,,,,,,,,,,,,,,,99999,99999,99999,99999,99999,99999,99999,99999,99999,99999,99999,99999
33:20:19,1510876680,2017-11-16T23:58:04,0.776,1506.9,19.81,17.07,21.41,821.660,2086.690,124.183334,20.59,2.4792,363,23786,1.92426,3.82,40047,,,,,,,,,,,,,,,,,,99999,99999,99999,99999,99999,99999,99999,99999,99999,99999,99999,99999
33:20:49,1510876710,2017-11-16T23:58:34,0.777,1507.3,19.76,17.02,21.38,821.540,2086.460,123.933334,20.92,2.4793,363,23786,1.92668,3.82,40041,,,,,,,,,,,,,,,,,,99999,99999,99999,99999,99999,99999,99999,99999,99999,99999,99999,99999
33:21:19,1510876740,2017-11-16T23:59:04,0.781,1507.7,19.70,16.96,21.32,821.610,2086.270,125.916664,20.88,2.4796,363,23786,1.93608,3.82,40036,,,,,,,,,,,,,,,,,,99999,99999,99999,99999,99999,99999,99999,99999,99999,99999,99999,99999
33:21:49,1510876770,2017-11-16T23:59:34,0.778,1508.1,19.66,16.92,21.28,821.640,2086.170,123.366669,20.76,2.4799,363,23782,1.92910,3.82,40031,,,,,,,,,,,,,,,,,,99999,99999,99999,99999,99999,99999,99999,99999,99999,99999,99999,99999
33:22:19,1510876800,2017-11-17T00:00:04,0.778,1508.5,19.61,16.88,21.22,821.610,2085.940,123.233330,20.10,2.4801,363,23784,1.92880,3.82,40026,,,,,,,,,,,,,,,,,,99999,99999,99999,99999,99999,99999,99999,99999,99999,99999,99999,99999
33:22:49,1510876830,2017-11-17T00:00:34,0.780,1508.9,19.58,16.83,21.20,821.580,2085.870,125.283333,19.97,2.4803,363,23781,1.93487,3.82,40021,,,,,,,,,,,,,,,,,,99999,99999,99999,99999,99999,99999,99999,99999,99999,99999,99999,99999
33:23:19,1510876860,2017-11-17T00:01:04,0.776,1509.3,19.54,16.82,21.16,821.570,2085.750,125.083336,19.59,2.4805,363,23777,1.92577,3.82,40016,,,,,,,,,,,,,,,,,,99999,99999,99999,99999,99999,99999,99999,99999,99999,99999,99999,99999
33:23:49,1510876890,2017-11-17T00:01:34,0.776,1509.7,19.49,16.75,21.10,821.520,2085.520,123.466667,19.34,2.4807,363,23779,1.92517,3.82,40010,,,,,,,,,,,,,,,,,,99999,99999,99999,99999,99999,99999,99999,99999,99999,99999,99999,99999
33:24:19,1510876920,2017-11-17T00:02:04,0.780,1510.1,19.47,16.71,21.04,821.430,2085.420,124.783333,19.13,2.4808,363,23778,1.93547,3.82,40005,,,,,,,,,,,,,,,,,,99999,99999,99999,99999,99999,99999,99999,99999,99999,99999,99999,99999
33:24:49,1510876950,2017-11-17T00:02:34,0.774,1510.4,19.46,16.71,21.06,821.480,2085.420,124.050003,19.37,2.4808,363,23776,1.92093,3.82,40000,,,,,,,,,,,,,,,,,,99999,99999,99999,99999,99999,99999,99999,99999,99999,99999,99999,99999
33:25:19,1510876980,2017-11-17T00:03:04,0.775,1510.8,19.43,16.69,21.00,821.540,2085.350,122.650002,19.21,2.4810,363,23774,1.92305,3.82,39995,,,,,,,,,,,,,,,,,,99999,99999,99999,99999,99999,99999,99999,99999,99999,99999,99999,99999
33:25:49,1510877010,2017-11-17T00:03:34,0.776,1511.2,19.41,16.66,21.02,821.440,2085.290,123.433334,19.03,2.4811,363,23776,1.92456,3.82,39990,,,,,,,,,,,,,,,,,,99999,99999,99999,99999,99999,99999,99999,99999,99999,99999,99999,99999
33:26:19,1510877040,2017-11-17T00:04:04,0.775,1511.6,19.40,16.67,20.98,821.470,2085.250,123.333336,19.40,2.4811,363,23774,1.92244,3.82,39985,,,,,,,,,,,,,,,,,,99999,99999,99999,99999,99999,99999,99999,99999,99999,99999,99999,99999
33:26:49,1510877070,2017-11-17T00:04:34,0.780,1512.0,19.40,16.66,20.98,821.500,2085.250,126.183334,19.12,2.4812,363,23773,1.93456,3.82,39980,,,,,,,,,,,,,,,,,,99999,99999,99999,99999,99999,99999,99999,99999,99999,99999,99999,99999
33:27:19,1510877100,2017-11-17T00:05:04,0.775,1512.4,19.39,16.63,20.93,821.500,2085.230,123.966667,18.96,2.4812,363,23775,1.92305,3.82,39974,,,,,,,,,,,,,,,,,,99999,99999,99999,99999,99999,99999,99999,99999,99999,99999,99999,99999
33:27:49,1510877130,2017-11-17T00:05:34,0.774,1512.8,19.38,16.63,20.98,821.530,2085.120,123.783333,18.74,2.4812,363,23772,1.92063,3.82,39969,,,,,,,,,,,,,,,,,,99999,99999,99999,99999,99999,99999,99999,99999,99999,99999,99999,99999
33:28:19,1510877160,2017-11-17T00:06:04,0.778,1513.2,19.39,16.61,20.96,821.550,2085.230,125.849998,18.32,2.4813,363,23773,1.93123,3.82,39964,,,,,,,,,,,,,,,,,,99999,99999,99999,99999,99999,99999,99999,99999,99999,99999,99999,99999
33:28:49,1510877190,2017-11-17T00:06:34,0.775,1513.6,19.38,16.62,20.96,821.610,2085.120,122.150002,18.73,2.4812,363,23774,1.92365,3.82,39959,,,,,,,,,,,,,,,,,,99999,99999,99999,99999,99999,99999,99999,99999,99999,99999,99999,99999
33:29:19,1510877220,2017-11-17T00:07:04,0.775,1513.9,19.38,16.59,20.93,821.610,2085.120,122.199997,18.99,2.4812,363,23772,1.92395,3.82,39954,,,,,,,,,,,,,,,,,,99999,99999,99999,99999,99999,99999,99999,99999,99999,99999,99999,99999
33:29:49,1510877250,2017-11-17T00:07:34,0.778,1514.3,19.38,16.56,20.94,821.630,2085.120,125.949997,19.05,2.4812,363,23773,1.93032,3.82,39949,,,,,,,,,,,,,,,,,,99999,99999,99999,99999,99999,99999,99999,99999,99999,99999,99999,99999
33:30:19,1510877280,2017-11-17T00:08:04,0.779,1514.7,19.38,16.58,20.94,821.660,2085.120,122.633331,19.19,2.4812,363,23770,1.93335,3.82,39943,,,,,,,,,,,,,,,,,,99999,99999,99999,99999,99999,99999,99999,99999,99999,99999,99999,99999
33:30:49,1510877310,2017-11-17T00:08:34,0.777,1515.1,19.38,16.58,20.93,821.660,2085.120,124.283333,19.37,2.4812,363,23770,1.92880,3.82,39938,,,,,,,,,,,,,,,,,,99999,99999,99999,99999,99999,99999,99999,99999,99999,99999,99999,99999
33:31:19,1510877340,2017-11-17T00:09:04,0.778,1515.5,19.39,16.58,20.94,821.680,2085.230,124.233330,19.98,2.4811,363,23773,1.93062,3.82,39933,,,,,,,,,,,,,,,,,,99999,99999,99999,99999,99999,99999,99999,99999,99999,99999,99999,99999
33:31:49,1510877370,2017-11-17T00:09:34,0.779,1515.9,19.37,16.56,20.91,821.690,2085.120,125.083336,19.89,2.4812,363,23771,1.93396,3.82,39928,,,,,,,,,,,,,,,,,,99999,99999,99999,99999,99999,99999,99999,99999,99999,99999,99999,99999
33:32:19,1510877400,2017-11-17T00:10:04,0.778,1516.3,19.38,16.55,20.93,821.710,2085.120,126.099998,19.28,2.4812,363,23773,1.93001,3.82,39923,,,,,,,,,,,,,,,,,,99999,99999,99999,99999,99999,99999,99999,99999,99999,99999,99999,99999
33:32:49,1510877430,2017-11-17T00:10:34,0.775,1516.7,19.37,16.52,20.91,821.740,2085.120,123.766670,19.65,2.4812,363,23773,1.92335,3.82,39918,,,,,,,,,,,,,,,,,,99999,99999,99999,99999,99999,99999,99999,99999,99999,99999,99999,99999
33:33:19,1510877460,2017-11-17T00:11:04,0.779,1517.0,19.36,16.55,20.88,821.800,2085.060,124.033333,19.54,2.4812,363,23770,1.93396,3.82,39913,,,,,,,,,,,,,,,,,,99999,99999,99999,99999,99999,99999,99999,99999,99999,99999,99999,99999
33:33:49,1510877490,2017-11-17T00:11:34,0.775,1517.4,19.35,16.51,20.90,821.720,2085.060,125.116669,19.03,2.4814,363,23772,1.92395,3.82,39907,,,,,,,,,,,,,,,,,,99999,99999,99999,99999,99999,99999,99999,99999,99999,99999,99999,99999
33:34:19,1510877520,2017-11-17T00:12:04,0.778,1517.8,19.35,16.51,20.88,821.880,2085.060,125.883331,18.50,2.4814,363,23770,1.93062,3.82,39902,,,,,,,,,,,,,,,,,,99999,99999,99999,99999,99999,99999,99999,99999,99999,99999,99999,99999
33:34:49,1510877550,2017-11-17T00:12:34,0.775,1518.2,19.36,16.48,20.88,821.850,2085.060,124.099998,18.60,2.4813,363,23772,1.92214,3.82,39897,,,,,,,,,,,,,,,,,,99999,99999,99999,99999,99999,99999,99999,99999,99999,99999,99999,99999
33:35:19,1510877580,2017-11-17T00:13:04,0.776,1518.6,19.36,16.50,20.90,821.770,2085.060,122.916664,18.45,2.4814,363,23771,1.92577,3.82,39892,,,,,,,,,,,,,,,,,,99999,99999,99999,99999,99999,99999,99999,99999,99999,99999,99999,99999
33:35:49,1510877610,2017-11-17T00:13:34,0.780,1519.0,19.37,16.51,20.90,821.770,2085.120,125.566666,18.56,2.4813,363,23768,1.93638,3.82,39887,,,,,,,,,,,,,,,,,,99999,99999,99999,99999,99999,99999,99999,99999,99999,99999,99999,99999
33:36:19,1510877640,2017-11-17T00:14:04,0.775,1519.4,19.39,16.52,20.91,821.740,2085.230,124.066666,18.76,2.4813,363,23771,1.92275,3.82,39882,,,,,,,,,,,,,,,,,,99999,99999,99999,99999,99999,99999,99999,99999,99999,99999,99999,99999
33:36:49,1510877670,2017-11-17T00:14:34,0.778,1519.8,19.41,16.56,20.94,821.790,2085.290,124.033333,18.94,2.4812,363,23774,1.93032,3.82,39877,,,,,,,,,,,,,,,,,,99999,99999,99999,99999,99999,99999,99999,99999,99999,99999,99999,99999
33:37:19,1510877700,2017-11-17T00:15:04,0.777,1520.2,19.43,16.56,20.91,821.780,2085.350,124.033333,19.16,2.4810,363,23773,1.92850,3.82,39871,,,,,,,,,,,,,,,,,,99999,99999,99999,99999,99999,99999,99999,99999,99999,99999,99999,99999
33:37:49,1510877730,2017-11-17T00:15:34,0.780,1520.5,19.45,16.56,20.94,821.830,2085.420,125.833336,18.61,2.4810,363,23773,1.93608,3.82,39866,,,,,,,,,,,,,,,,,,99999,99999,99999,99999,99999,99999,99999,99999,99999,99999,99999,99999
33:38:19,1510877760,2017-11-17T00:16:04,0.775,1520.9,19.46,16.58,21.00,821.700,2085.420,124.416664,18.48,2.4809,363,23772,1.92335,3.82,39861,,,,,,,,,,,,,,,,,,99999,99999,99999,99999,99999,99999,99999,99999,99999,99999,99999,99999
33:38:49,1510877790,2017-11-17T00:16:34,0.777,1521.3,19.49,16.60,20.96,821.770,2085.520,125.750000,18.69,2.4808,363,23772,1.92638,3.82,39856,,,,,,,,,,,,,,,,,,99999,99999,99999,99999,99999,99999,99999,99999,99999,99999,99999,99999
33:39:19,1510877820,2017-11-17T00:17:04,0.776,1521.7,19.50,16.58,20.96,821.790,2085.580,124.466667,18.74,2.4807,363,23773,1.92426,3.82,39851,,,,,,,,,,,,,,,,,,99999,99999,99999,99999,99999,99999,99999,99999,99999,99999,99999,99999
33:39:49,1510877850,2017-11-17T00:17:34,0.781,1522.1,19.52,16.60,21.02,821.760,2085.710,125.616669,19.39,2.4807,363,23774,1.93638,3.82,39846,,,,,,,,,,,,,,,,,,99999,99999,99999,99999,99999,99999,99999,99999,99999,99999,99999,99999
33:40:19,1510877880,2017-11-17T00:18:04,0.780,1522.5,19.53,16.61,21.02,821.810,2085.710,126.016670,18.68,2.4806,363,23772,1.93547,3.82,39841,,,,,,,,,,,,,,,,,,99999,99999,99999,99999,99999,99999,99999,99999,99999,99999,99999,99999
33:40:49,1510877910,2017-11-17T00:18:34,0.781,1522.9,19.54,16.62,21.01,821.860,2085.750,124.716667,18.79,2.4806,363,23774,1.93669,3.82,39835,,,,,,,,,,,,,,,,,,99999,99999,99999,99999,99999,99999,99999,99999,99999,99999,99999,99999
33:41:19,1510877940,2017-11-17T00:19:04,0.779,1523.3,19.54,16.60,21.04,821.830,2085.750,124.699997,18.83,2.4806,363,23772,1.93335,3.82,39830,,,,,,,,,,,,,,,,,,99999,99999,99999,99999,99999,99999,99999,99999,99999,99999,99999,99999
33:41:49,1510877970,2017-11-17T00:19:34,0.778,1523.7,19.55,16.61,21.04,821.750,2085.750,123.883331,18.88,2.4805,363,23776,1.92880,3.82,39825,,,,,,,,,,,,,,,,,,99999,99999,99999,99999,99999,99999,99999,99999,99999,99999,99999,99999
33:42:19,1510878000,2017-11-17T00:20:04,0.776,1524.0,19.56,16.61,21.06,821.800,2085.810,124.050003,18.43,2.4805,363,23771,1.92517,3.82,39820,,,,,,,,,,,,,,,,,,99999,99999,99999,99999,99999,99999,99999,99999,99999,99999,99999,99999
33:42:49,1510878030,2017-11-17T00:20:34,0.781,1524.4,19.57,16.60,21.06,821.800,2085.810,125.516670,18.59,2.4804,363,23776,1.93638,3.82,39815,,,,,,,,,,,,,,,,,,99999,99999,99999,99999,99999,99999,99999,99999,99999,99999,99999,99999
33:43:19,1510878060,2017-11-17T00:21:04,0.780,1524.8,19.57,16.60,21.06,821.780,2085.810,125.166664,18.19,2.4805,363,23774,1.93487,3.82,39810,,,,,,,,,,,,,,,,,,99999,99999,99999,99999,99999,99999,99999,99999,99999,99999,99999,99999
33:43:49,1510878090,2017-11-17T00:21:34,0.775,1525.2,19.57,16.61,21.04,821.700,2085.810,125.400002,17.86,2.4805,363,23774,1.92305,3.82,39805,,,,,,,,,,,,,,,,,,99999,99999,99999,99999,99999,99999,99999,99999,99999,99999,99999,99999
33:44:19,1510878120,2017-11-17T00:22:04,0.782,1525.6,19.59,16.61,21.01,821.690,2085.870,124.133331,17.66,2.4804,363,23772,1.93882,3.82,39799,,,,,,,,,,,,,,,,,,99999,99999,99999,99999,99999,99999,99999,99999,99999,99999,99999,99999
33:44:49,1510878150,2017-11-17T00:22:34,0.781,1526.0,19.62,16.61,21.08,821.760,2086.000,124.766670,17.46,2.4803,363,23775,1.93699,3.82,39794,,,,,,,,,,,,,,,,,,99999,99999,99999,99999,99999,99999,99999,99999,99999,99999,99999,99999
33:45:19,1510878180,2017-11-17T00:23:04,0.776,1526.4,19.63,16.67,21.10,821.790,2086.000,124.033333,17.57,2.4802,363,23775,1.92486,3.82,39789,,,,,,,,,,,,,,,,,,99999,99999,99999,99999,99999,99999,99999,99999,99999,99999,99999,99999
33:45:49,1510878210,2017-11-17T00:23:34,0.777,1526.8,19.66,16.68,21.10,821.700,2086.170,125.233330,17.61,2.4802,363,23776,1.92668,3.82,39784,,,,,,,,,,,,,,,,,,99999,99999,99999,99999,99999,99999,99999,99999,99999,99999,99999,99999
33:46:19,1510878240,2017-11-17T00:24:04,0.779,1527.2,19.70,16.70,21.14,821.770,2086.270,123.866669,17.71,2.4800,363,23775,1.93244,3.82,39779,,,,,,,,,,,,,,,,,,99999,99999,99999,99999,99999,99999,99999,99999,99999,99999,99999,99999
33:46:49,1510878270,2017-11-17T00:24:34,0.781,1527.5,19.74,16.72,21.17,821.740,2086.390,126.866669,17.71,2.4798,363,23776,1.93760,3.82,39774,,,,,,,,,,,,,,,,,,99999,99999,99999,99999,99999,99999,99999,99999,99999,99999,99999,99999
33:47:19,1510878300,2017-11-17T00:25:04,0.778,1527.9,19.77,16.75,21.18,821.780,2086.520,125.033333,17.47,2.4797,363,23779,1.93001,3.82,39768,,,,,,,,,,,,,,,,,,99999,99999,99999,99999,99999,99999,99999,99999,99999,99999,99999,99999
33:47:49,1510878330,2017-11-17T00:25:34,0.782,1528.3,19.80,16.78,21.24,821.690,2086.630,125.833336,17.97,2.4795,363,23777,1.93942,3.82,39763,,,,,,,,,,,,,,,,,,99999,99999,99999,99999,99999,99999,99999,99999,99999,99999,99999,99999
33:48:19,1510878360,2017-11-17T00:26:04,0.779,1528.7,19.83,16.80,21.25,821.680,2086.750,123.383331,17.70,2.4794,363,23779,1.93123,3.82,39758,,,,,,,,,,,,,,,,,,99999,99999,99999,99999,99999,99999,99999,99999,99999,99999,99999,99999
33:48:49,1510878390,2017-11-17T00:26:34,0.780,1529.1,19.85,16.82,21.30,821.600,2086.810,124.983330,17.56,2.4793,363,23779,1.93335,3.82,39753,,,,,,,,,,,,,,,,,,99999,99999,99999,99999,99999,99999,99999,99999,99999,99999,99999,99999
33:49:19,1510878420,2017-11-17T00:27:04,0.778,1529.5,19.89,16.83,21.34,821.640,2086.920,125.383331,17.63,2.4791,363,23783,1.92971,3.82,39748,,,,,,,,,,,,,,,,,,99999,99999,99999,99999,99999,99999,99999,99999,99999,99999,99999,99999
33:49:49,1510878450,2017-11-17T00:27:34,0.780,1529.9,19.93,16.87,21.38,821.690,2087.090,124.816666,17.61,2.4790,363,23783,1.93456,3.82,39743,,,,,,,,,,,,,,,,,,99999,99999,99999,99999,99999,99999,99999,99999,99999,99999,99999,99999
33:50:19,1510878480,2017-11-17T00:28:04,0.781,1530.3,19.94,16.87,21.38,821.680,2087.150,123.783333,17.54,2.4790,363,23781,1.93578,3.82,39737,,,,,,,,,,,,,,,,,,99999,99999,99999,99999,99999,99999,99999,99999,99999,99999,99999,99999
33:50:49,1510878510,2017-11-17T00:28:34,0.779,1530.7,19.98,16.89,21.43,821.650,2087.270,124.750000,17.42,2.4788,363,23781,1.93001,3.82,39732,,,,,,,,,,,,,,,,,,99999,99999,99999,99999,99999,99999,99999,99999,99999,99999,99999,99999
33:51:19,1510878540,2017-11-17T00:29:04,0.783,1531.1,20.01,16.91,21.43,821.670,2087.340,127.016670,17.40,2.4786,363,23781,1.93973,3.82,39727,,,,,,,,,,,,,,,,,,99999,99999,99999,99999,99999,99999,99999,99999,99999,99999,99999,99999
33:51:49,1510878570,2017-11-17T00:29:34,0.779,1531.5,20.02,16.93,21.43,821.690,2087.380,125.783333,17.35,2.4786,363,23783,1.93153,3.81,39722,,,,,,,,,,,,,,,,,,99999,99999,99999,99999,99999,99999,99999,99999,99999,99999,99999,99999
33:52:19,1510878600,2017-11-17T00:30:04,0.783,1531.8,20.04,16.94,21.46,821.720,2087.440,126.949997,17.54,2.4784,363,23784,1.93973,3.81,39717,,,,,,,,,,,,,,,,,,99999,99999,99999,99999,99999,99999,99999,99999,99999,99999,99999,99999
33:52:49,1510878630,2017-11-17T00:30:34,0.779,1532.2,20.06,16.95,21.49,821.870,2087.560,124.766670,17.40,2.4784,363,23785,1.93153,3.81,39712,,,,,,,,,,,,,,,,,,99999,99999,99999,99999,99999,99999,99999,99999,99999,99999,99999,99999
33:53:19,1510878660,2017-11-17T00:31:04,0.782,1532.6,20.08,16.99,21.48,821.730,2087.610,125.099998,17.43,2.4783,363,23783,1.93730,3.81,39706,,,,,,,,,,,,,,,,,,99999,99999,99999,99999,99999,99999,99999,99999,99999,99999,99999,99999
33:53:49,1510878690,2017-11-17T00:31:34,0.778,1533.0,20.09,16.98,21.51,821.730,2087.670,126.166664,17.00,2.4783,363,23784,1.92729,3.81,39701,,,,,,,,,,,,,,,,,,99999,99999,99999,99999,99999,99999,99999,99999,99999,99999,99999,99999
33:54:19,1510878720,2017-11-17T00:32:04,0.782,1533.4,20.12,16.98,21.52,821.720,2087.730,124.483330,17.94,2.4781,363,23787,1.93760,3.81,39696,,,,,,,,,,,,,,,,,,99999,99999,99999,99999,99999,99999,99999,99999,99999,99999,99999,99999
33:54:49,1510878750,2017-11-17T00:32:34,0.782,1533.8,20.14,17.01,21.56,821.820,2087.790,126.183334,17.59,2.4780,363,23785,1.93790,3.81,39691,,,,,,,,,,,,,,,,,,99999,99999,99999,99999,99999,99999,99999,99999,99999,99999,99999,99999
33:55:19,1510878780,2017-11-17T00:33:04,0.784,1534.2,20.15,17.02,21.59,821.850,2087.860,126.500000,17.33,2.4780,363,23787,1.94216,3.81,39686,,,,,,,,,,,,,,,,,,99999,99999,99999,99999,99999,99999,99999,99999,99999,99999,99999,99999
33:55:49,1510878810,2017-11-17T00:33:34,0.782,1534.6,20.17,17.02,21.59,821.760,2087.900,125.266670,17.44,2.4779,363,23787,1.93851,3.81,39680,,,,,,,,,,,,,,,,,,99999,99999,99999,99999,99999,99999,99999,99999,99999,99999,99999,99999
33:56:19,1510878840,2017-11-17T00:34:04,0.781,1535.0,20.18,17.05,21.62,821.760,2087.900,124.066666,17.62,2.4778,363,23790,1.93487,3.81,39675,,,,,,,,,,,,,,,,,,99999,99999,99999,99999,99999,99999,99999,99999,99999,99999,99999,99999
33:56:49,1510878870,2017-11-17T00:34:34,0.780,1535.4,20.21,17.08,21.62,821.840,2088.030,125.166664,17.51,2.4777,363,23788,1.93335,3.81,39670,,,,,,,,,,,,,,,,,,99999,99999,99999,99999,99999,99999,99999,99999,99999,99999,99999,99999
33:57:19,1510878900,2017-11-17T00:35:04,0.782,1535.8,20.23,17.09,21.62,821.830,2088.130,124.466667,17.38,2.4777,363,23790,1.93730,3.81,39665,,,,,,,,,,,,,,,,,,99999,99999,99999,99999,99999,99999,99999,99999,99999,99999,99999,99999
33:57:49,1510878930,2017-11-17T00:35:34,0.780,1536.1,20.26,17.10,21.67,821.820,2088.190,123.900002,17.41,2.4775,363,23791,1.93183,3.81,39660,,,,,,,,,,,,,,,,,,99999,99999,99999,99999,99999,99999,99999,99999,99999,99999,99999,99999
33:58:19,1510878960,2017-11-17T00:36:04,0.784,1536.5,20.27,17.14,21.67,821.850,2088.260,127.199997,17.28,2.4775,363,23789,1.94307,3.81,39654,,,,,,,,,,,,,,,,,,99999,99999,99999,99999,99999,99999,99999,99999,99999,99999,99999,99999
33:58:49,1510878990,2017-11-17T00:36:34,0.781,1536.9,20.30,17.15,21.72,821.900,2088.320,126.050003,17.37,2.4773,363,23789,1.93547,3.81,39649,,,,,,,,,,,,,,,,,,99999,99999,99999,99999,99999,99999,99999,99999,99999,99999,99999,99999
33:59:19,1510879020,2017-11-17T00:37:04,0.780,1537.3,20.32,17.16,21.68,821.780,2088.480,124.916664,17.12,2.4773,363,23790,1.93274,3.81,39644,,,,,,,,,,,,,,,,,,99999,99999,99999,99999,99999,99999,99999,99999,99999,99999,99999,99999
33:59:49,1510879050,2017-11-17T00:37:34,0.782,1537.7,20.34,17.20,21.72,821.740,2088.550,125.216667,16.17,2.4773,363,23794,1.93699,3.81,39639,,,,,,,,,,,,,,,,,,99999,99999,99999,99999,99999,99999,99999,99999,99999,99999,99999,99999
34:00:19,1510879080,2017-11-17T00:38:04,0.780,1538.1,20.36,17.21,21.74,821.820,2088.610,126.349998,17.33,2.4771,363,23794,1.93244,3.81,39634,,,,,,,,,,,,,,,,,,99999,99999,99999,99999,99999,99999,99999,99999,99999,99999,99999,99999
34:00:49,1510879110,2017-11-17T00:38:34,0.784,1538.5,20.38,17.23,21.76,821.850,2088.610,126.366669,17.19,2.4770,363,23793,1.94216,3.81,39628,,,,,,,,,,,,,,,,,,99999,99999,99999,99999,99999,99999,99999,99999,99999,99999,99999,99999
34:01:19,1510879140,2017-11-17T00:39:04,0.785,1538.9,20.41,17.27,21.80,821.810,2088.710,127.500000,17.43,2.4768,363,23793,1.94490,3.81,39623,,,,,,,,,,,,,,,,,,99999,99999,99999,99999,99999,99999,99999,99999,99999,99999,99999,99999
34:01:49,1510879170,2017-11-17T00:39:34,0.786,1539.3,20.43,17.28,21.83,821.890,2088.780,127.266670,17.37,2.4767,363,23795,1.94581,3.81,39618,,,,,,,,,,,,,,,,,,99999,99999,99999,99999,99999,99999,99999,99999,99999,99999,99999,99999
34:02:19,1510879200,2017-11-17T00:40:04,0.781,1539.7,20.46,17.28,21.88,821.810,2088.840,127.349998,17.52,2.4765,363,23794,1.93304,3.81,39613,,,,,,,,,,,,,,,,,,99999,99999,99999,99999,99999,99999,99999,99999,99999,99999,99999,99999
34:02:49,1510879230,2017-11-17T00:40:34,0.783,1540.1,20.47,17.33,21.84,821.770,2088.940,129.783340,17.04,2.4766,363,23797,1.94003,3.81,39608,,,,,,,,,,,,,,,,,,99999,99999,99999,99999,99999,99999,99999,99999,99999,99999,99999,99999
34:03:19,1510879260,2017-11-17T00:41:04,0.782,1540.5,20.49,17.32,21.90,821.870,2089.070,127.116669,16.96,2.4766,363,23795,1.93790,3.81,39602,,,,,,,,,,,,,,,,,,99999,99999,99999,99999,99999,99999,99999,99999,99999,99999,99999,99999
34:03:49,1510879290,2017-11-17T00:41:34,0.785,1540.8,20.52,17.35,21.91,821.780,2089.130,128.399994,16.79,2.4764,363,23795,1.94368,3.81,39597,,,,,,,,,,,,,,,,,,99999,99999,99999,99999,99999,99999,99999,99999,99999,99999,99999,99999
34:04:19,1510879320,2017-11-17T00:42:04,0.783,1541.2,20.53,17.36,21.92,821.830,2089.180,127.983330,17.37,2.4763,363,23795,1.93821,3.81,39592,,,,,,,,,,,,,,,,,,99999,99999,99999,99999,99999,99999,99999,99999,99999,99999,99999,99999
34:04:49,1510879350,2017-11-17T00:42:34,0.786,1541.6,20.57,17.41,21.96,821.800,2089.300,128.833328,16.74,2.4762,363,23794,1.94581,3.81,39587,,,,,,,,,,,,,,,,,,99999,99999,99999,99999,99999,99999,99999,99999,99999,99999,99999,99999
34:05:19,1510879380,2017-11-17T00:43:04,0.787,1542.0,20.59,17.42,22.01,821.800,2089.430,127.849998,17.12,2.4761,363,23799,1.94764,3.81,39582,,,,,,,,,,,,,,,,,,99999,99999,99999,99999,99999,99999,99999,99999,99999,99999,99999,99999
34:05:49,1510879410,2017-11-17T00:43:34,0.787,1542.4,20.62,17.46,22.02,821.770,2089.470,127.783333,17.29,2.4759,363,23799,1.94733,3.81,39576,,,,,,,,,,,,,,,,,,99999,99999,99999,99999,99999,99999,99999,99999,99999,99999,99999,99999
34:06:19,1510879440,2017-11-17T00:44:04,0.782,1542.8,20.64,17.49,22.06,821.760,2089.530,127.666664,17.12,2.4758,363,23800,1.93517,3.81,39571,,,,,,,,,,,,,,,,,,99999,99999,99999,99999,99999,99999,99999,99999,99999,99999,99999,99999
34:06:49,1510879470,2017-11-17T00:44:34,0.784,1543.2,20.67,17.52,22.06,821.750,2089.650,125.250000,16.83,2.4758,363,23802,1.94094,3.81,39566,,,,,,,,,,,,,,,,,,99999,99999,99999,99999,99999,99999,99999,99999,99999,99999,99999,99999
34:07:19,1510879500,2017-11-17T00:45:04,0.786,1543.6,20.70,17.53,22.09,821.770,2089.760,126.833336,16.91,2.4756,363,23800,1.94490,3.81,39561,,,,,,,,,,,,,,,,,,99999,99999,99999,99999,99999,99999,99999,99999,99999,99999,99999,99999
34:07:49,1510879530,2017-11-17T00:45:34,0.784,1544.0,20.73,17.55,22.09,821.820,2089.880,126.283333,16.97,2.4755,363,23801,1.94064,3.81,39556,,,,,,,,,,,,,,,,,,99999,99999,99999,99999,99999,99999,99999,99999,99999,99999,99999,99999
34:08:19,1510879560,2017-11-17T00:46:04,0.783,1544.4,20.74,17.57,22.10,821.730,2089.950,126.716667,16.66,2.4755,363,23803,1.93790,3.81,39550,,,,,,,,,,,,,,,,,,99999,99999,99999,99999,99999,99999,99999,99999,99999,99999,99999,99999
34:08:49,1510879590,2017-11-17T00:46:34,0.787,1544.8,20.76,17.59,22.16,821.780,2090.010,129.016663,17.01,2.4754,363,23803,1.94764,3.81,39545,,,,,,,,,,,,,,,,,,99999,99999,99999,99999,99999,99999,99999,99999,99999,99999,99999,99999
34:09:19,1510879620,2017-11-17T00:47:04,0.786,1545.2,20.79,17.62,22.17,821.850,2090.050,127.916664,17.01,2.4752,363,23804,1.94642,3.81,39540,,,,,,,,,,,,,,,,,,99999,99999,99999,99999,99999,99999,99999,99999,99999,99999,99999,99999
34:09:49,1510879650,2017-11-17T00:47:34,0.784,1545.5,20.81,17.61,22.18,821.850,2090.120,126.516670,16.65,2.4751,363,23806,1.94155,3.81,39535,,,,,,,,,,,,,,,,,,99999,99999,99999,99999,99999,99999,99999,99999,99999,99999,99999,99999
34:10:19,1510879680,2017-11-17T00:48:04,0.785,1545.9,20.82,17.63,22.24,821.820,2090.180,124.816666,17.69,2.4750,363,23806,1.94246,3.81,39529,,,,,,,,,,,,,,,,,,99999,99999,99999,99999,99999,99999,99999,99999,99999,99999,99999,99999
34:10:49,1510879710,2017-11-17T00:48:34,0.782,1546.3,20.83,17.65,22.26,821.790,2090.180,128.416672,16.70,2.4750,363,23805,1.93426,3.81,39524,,,,,,,,,,,,,,,,,,99999,99999,99999,99999,99999,99999,99999,99999,99999,99999,99999,99999
34:11:19,1510879740,2017-11-17T00:49:04,0.787,1546.7,20.84,17.66,22.28,821.730,2090.240,128.916672,16.93,2.4750,363,23804,1.94673,3.81,39519,,,,,,,,,,,,,,,,,,99999,99999,99999,99999,99999,99999,99999,99999,99999,99999,99999,99999
34:11:49,1510879770,2017-11-17T00:49:34,0.786,1547.1,20.87,17.69,22.26,821.890,2090.340,125.699997,16.64,2.4749,363,23806,1.94612,3.81,39514,,,,,,,,,,,,,,,,,,99999,99999,99999,99999,99999,99999,99999,99999,99999,99999,99999,99999
34:12:19,1510879800,2017-11-17T00:50:04,0.787,1547.5,20.87,17.69,22.26,821.810,2090.340,127.966667,16.60,2.4749,363,23807,1.94794,3.81,39508,,,,,,,,,,,,,,,,,,99999,99999,99999,99999,99999,99999,99999,99999,99999,99999,99999,99999
34:12:49,1510879830,2017-11-17T00:50:34,0.784,1547.9,20.89,17.70,22.30,821.750,2090.400,126.800003,16.74,2.4748,363,23807,1.93942,3.81,39503,,,,,,,,,,,,,,,,,,99999,99999,99999,99999,99999,99999,99999,99999,99999,99999,99999,99999
34:13:19,1510879860,2017-11-17T00:51:04,0.787,1548.3,20.90,17.73,22.30,821.700,2090.470,128.199997,16.82,2.4748,363,23808,1.94764,3.81,39498,,,,,,,,,,,,,,,,,,99999,99999,99999,99999,99999,99999,99999,99999,99999,99999,99999,99999
34:13:49,1510879890,2017-11-17T00:51:34,0.788,1548.7,20.93,17.74,22.32,821.760,2090.570,128.766663,16.82,2.4746,363,23808,1.95069,3.81,39493,,,,,,,,,,,,,,,,,,99999,99999,99999,99999,99999,99999,99999,99999,99999,99999,99999,99999
34:14:19,1510879920,2017-11-17T00:52:04,0.783,1549.1,20.93,17.74,22.33,821.760,2090.570,126.583336,16.90,2.4746,363,23809,1.93851,3.81,39487,,,,,,,,,,,,,,,,,,99999,99999,99999,99999,99999,99999,99999,99999,99999,99999,99999,99999
34:14:49,1510879950,2017-11-17T00:52:34,0.788,1549.5,20.94,17.74,22.33,821.740,2090.570,128.766663,16.92,2.4745,363,23807,1.94947,3.81,39482,,,,,,,,,,,,,,,,,,99999,99999,99999,99999,99999,99999,99999,99999,99999,99999,99999,99999
34:15:19,1510879980,2017-11-17T00:53:04,0.788,1549.9,20.94,17.75,22.38,821.710,2090.570,127.716667,16.91,2.4745,363,23808,1.94916,3.81,39477,,,,,,,,,,,,,,,,,,99999,99999,99999,99999,99999,99999,99999,99999,99999,99999,99999,99999
34:15:49,1510880010,2017-11-17T00:53:34,0.784,1550.3,20.93,17.75,22.34,821.710,2090.570,126.483330,16.83,2.4746,363,23807,1.94033,3.81,39472,,,,,,,,,,,,,,,,,,99999,99999,99999,99999,99999,99999,99999,99999,99999,99999,99999,99999
34:16:19,1510880040,2017-11-17T00:54:04,0.788,1550.6,20.93,17.75,22.34,821.660,2090.570,128.350006,16.67,2.4746,363,23807,1.94977,3.81,39467,,,,,,,,,,,,,,,,,,99999,99999,99999,99999,99999,99999,99999,99999,99999,99999,99999,99999
34:16:49,1510880070,2017-11-17T00:54:34,0.785,1551.0,20.94,17.74,22.30,821.710,2090.570,126.150002,16.81,2.4745,363,23811,1.94155,3.81,39461,,,,,,,,,,,,,,,,,,99999,99999,99999,99999,99999,99999,99999,99999,99999,99999,99999,99999
34:17:19,1510880100,2017-11-17T00:55:04,0.787,1551.4,20.94,17.75,22.38,821.660,2090.570,128.816666,16.41,2.4746,363,23808,1.94733,3.81,39456,,,,,,,,,,,,,,,,,,99999,99999,99999,99999,99999,99999,99999,99999,99999,99999,99999,99999
34:17:49,1510880130,2017-11-17T00:55:34,0.787,1551.8,20.94,17.74,22.36,821.760,2090.570,126.766670,16.60,2.4746,363,23809,1.94673,3.81,39451,,,,,,,,,,,,,,,,,,99999,99999,99999,99999,99999,99999,99999,99999,99999,99999,99999,99999
34:18:19,1510880160,2017-11-17T00:56:04,0.785,1552.2,20.94,17.75,22.32,821.680,2090.570,126.500000,16.67,2.4746,363,23809,1.94186,3.81,39446,,,,,,,,,,,,,,,,,,99999,99999,99999,99999,99999,99999,99999,99999,99999,99999,99999,99999
34:18:49,1510880190,2017-11-17T00:56:34,0.784,1552.6,20.95,17.77,22.34,821.710,2090.630,126.233330,16.63,2.4745,363,23810,1.94125,3.81,39440,,,,,,,,,,,,,,,,,,99999,99999,99999,99999,99999,99999,99999,99999,99999,99999,99999,99999
34:19:19,1510880220,2017-11-17T00:57:04,0.785,1553.0,20.96,17.79,22.38,821.680,2090.630,128.683334,16.72,2.4745,363,23810,1.94307,3.81,39435,,,,,,,,,,,,,,,,,,99999,99999,99999,99999,99999,99999,99999,99999,99999,99999,99999,99999
34:19:49,1510880250,2017-11-17T00:57:34,0.786,1553.4,20.96,17.77,22.34,821.680,2090.630,128.433334,16.35,2.4745,363,23809,1.94551,3.81,39430,,,,,,,,,,,,,,,,,,99999,99999,99999,99999,99999,99999,99999,99999,99999,99999,99999,99999
34:20:19,1510880280,2017-11-17T00:58:04,0.785,1553.8,20.96,17.78,22.36,821.680,2090.630,126.383331,16.71,2.4745,363,23809,1.94125,3.81,39425,,,,,,,,,,,,,,,,,,99999,99999,99999,99999,99999,99999,99999,99999,99999,99999,99999,99999
34:20:49,1510880310,2017-11-17T00:58:34,0.788,1554.2,20.97,17.78,22.34,821.670,2090.700,128.183334,16.39,2.4745,363,23808,1.95069,3.81,39419,,,,,,,,,,,,,,,,,,99999,99999,99999,99999,99999,99999,99999,99999,99999,99999,99999,99999
34:21:19,1510880340,2017-11-17T00:59:04,0.784,1554.6,20.96,17.78,22.36,821.650,2090.630,127.250000,16.74,2.4745,363,23812,1.94094,3.81,39414,,,,,,,,,,,,,,,,,,99999,99999,99999,99999,99999,99999,99999,99999,99999,99999,99999,99999
34:21:49,1510880370,2017-11-17T00:59:34,0.787,1555.0,20.97,17.79,22.42,821.700,2090.700,127.966667,16.77,2.4744,363,23810,1.94673,3.81,39409,,,,,,,,,,,,,,,,,,99999,99999,99999,99999,99999,99999,99999,99999,99999,99999,99999,99999
34:22:19,1510880400,2017-11-17T01:00:04,0.785,1555.4,20.96,17.76,22.34,821.730,2090.630,127.099998,16.93,2.4744,363,23811,1.94155,3.81,39404,,,,,,,,,,,,,,,,,,99999,99999,99999,99999,99999,99999,99999,99999,99999,99999,99999,99999
34:22:49,1510880430,2017-11-17T01:00:34,0.788,1555.8,20.96,17.76,22.40,821.710,2090.630,127.750000,16.84,2.4744,363,23810,1.95008,3.81,39399,,,,,,,,,,,,,,,,,,99999,99999,99999,99999,99999,99999,99999,99999,99999,99999,99999,99999
34:23:19,1510880460,2017-11-17T01:01:04,0.783,1556.1,20.95,17.77,22.36,821.730,2090.630,126.033333,17.16,2.4745,363,23807,1.93760,3.81,39393,,,,,,,,,,,,,,,,,,99999,99999,99999,99999,99999,99999,99999,99999,99999,99999,99999,99999
34:23:49,1510880490,2017-11-17T01:01:34,0.785,1556.5,20.93,17.77,22.38,821.760,2090.570,126.633331,17.09,2.4746,363,23808,1.94186,3.81,39388,,,,,,,,,,,,,,,,,,99999,99999,99999,99999,99999,99999,99999,99999,99999,99999,99999,99999
34:24:19,1510880520,2017-11-17T01:02:04,0.784,1556.9,20.92,17.74,22.38,821.660,2090.530,127.566666,17.23,2.4746,363,23809,1.94125,3.81,39383,,,,,,,,,,,,,,,,,,99999,99999,99999,99999,99999,99999,99999,99999,99999,99999,99999,99999
34:24:49,1510880550,2017-11-17T01:02:34,0.786,1557.3,20.91,17.71,22.33,821.740,2090.470,126.250000,17.49,2.4746,363,23808,1.94520,3.81,39378,,,,,,,,,,,,,,,,,,99999,99999,99999,99999,99999,99999,99999,99999,99999,99999,99999,99999
34:25:19,1510880580,2017-11-17T01:03:04,0.787,1557.7,20.89,17.69,22.33,821.720,2090.400,127.066666,17.53,2.4747,363,23805,1.94825,3.81,39372,,,,,,,,,,,,,,,,,,99999,99999,99999,99999,99999,99999,99999,99999,99999,99999,99999,99999
34:25:49,1510880610,2017-11-17T01:03:34,0.786,1558.1,20.86,17.66,22.30,821.730,2090.340,125.816666,17.39,2.4749,363,23806,1.94612,3.81,39367,,,,,,,,,,,,,,,,,,99999,99999,99999,99999,99999,99999,99999,99999,99999,99999,99999,99999
34:26:19,1510880640,2017-11-17T01:04:04,0.787,1558.5,20.83,17.64,22.32,821.550,2090.180,127.183334,17.45,2.4749,363,23805,1.94764,3.81,39362,,,,,,,,,,,,,,,,,,99999,99999,99999,99999,99999,99999,99999,99999,99999,99999,99999,99999
34:26:49,1510880670,2017-11-17T01:04:34,0.786,1558.9,20.80,17.64,22.26,821.640,2090.120,127.766670,18.00,2.4751,363,23805,1.94429,3.81,39357,,,,,,,,,,,,,,,,,,99999,99999,99999,99999,99999,99999,99999,99999,99999,99999,99999,99999
34:27:19,1510880700,2017-11-17T01:05:04,0.784,1559.3,20.77,17.58,22.25,821.570,2090.010,126.216667,17.75,2.4752,363,23803,1.93942,3.81,39351,,,,,,,,,,,,,,,,,,99999,99999,99999,99999,99999,99999,99999,99999,99999,99999,99999,99999
34:27:49,1510880730,2017-11-17T01:05:34,0.788,1559.7,20.74,17.55,22.20,821.680,2089.950,128.333328,17.63,2.4754,363,23800,1.94977,3.81,39346,,,,,,,,,,,,,,,,,,99999,99999,99999,99999,99999,99999,99999,99999,99999,99999,99999,99999
34:28:19,1510880760,2017-11-17T01:06:04,0.787,1560.1,20.70,17.55,22.14,821.660,2089.760,127.500000,17.21,2.4756,363,23800,1.94886,3.81,39341,,,,,,,,,,,,,,,,,,99999,99999,99999,99999,99999,99999,99999,99999,99999,99999,99999,99999
34:28:49,1510880790,2017-11-17T01:06:34,0.784,1560.5,20.68,17.52,22.14,821.640,2089.650,128.399994,17.01,2.4756,363,23799,1.94003,3.81,39336,,,,,,,,,,,,,,,,,,99999,99999,99999,99999,99999,99999,99999,99999,99999,99999,99999,99999
34:29:19,1510880820,2017-11-17T01:07:04,0.785,1560.9,20.67,17.50,22.09,821.640,2089.650,126.949997,16.81,2.4758,363,23799,1.94307,3.81,39331,,,,,,,,,,,,,,,,,,99999,99999,99999,99999,99999,99999,99999,99999,99999,99999,99999,99999
34:29:49,1510880850,2017-11-17T01:07:34,0.783,1561.2,20.66,17.50,22.07,821.620,2089.590,126.050003,17.17,2.4757,363,23799,1.93942,3.81,39325,,,,,,,,,,,,,,,,,,99999,99999,99999,99999,99999,99999,99999,99999,99999,99999,99999,99999
34:30:19,1510880880,2017-11-17T01:08:04,0.782,1561.6,20.65,17.51,22.04,821.540,2089.590,126.250000,17.02,2.4758,363,23801,1.93730,3.81,39320,,,,,,,,,,,,,,,,,,99999,99999,99999,99999,99999,99999,99999,99999,99999,99999,99999,99999
34:30:49,1510880910,2017-11-17T01:08:34,0.784,1562.0,20.66,17.54,22.10,821.620,2089.590,125.366669,17.00,2.4758,363,23800,1.94094,3.81,39315,,,,,,,,,,,,,,,,,,99999,99999,99999,99999,99999,99999,99999,99999,99999,99999,99999,99999
34:31:19,1510880940,2017-11-17T01:09:04,0.785,1562.4,20.65,17.53,22.06,821.590,2089.590,126.400002,17.57,2.4758,363,23801,1.94398,3.81,39310,,,,,,,,,,,,,,,,,,99999,99999,99999,99999,99999,99999,99999,99999,99999,99999,99999,99999
34:31:49,1510880970,2017-11-17T01:09:34,0.783,1562.8,20.66,17.53,22.07,821.590,2089.590,126.800003,17.28,2.4757,363,23801,1.93973,3.81,39304,,,,,,,,,,,,,,,,,,99999,99999,99999,99999,99999,99999,99999,99999,99999,99999,99999,99999
34:32:19,1510881000,2017-11-17T01:10:04,0.785,1563.2,20.66,17.56,22.09,821.590,2089.590,128.366669,17.25,2.4757,363,23802,1.94246,3.81,39299,,,,,,,,,,,,,,,,,,99999,99999,99999,99999,99999,99999,99999,99999,99999,99999,99999,99999
34:32:49,1510881030,2017-11-17T01:10:34,0.783,1563.6,20.67,17.55,22.10,821.610,2089.650,126.150002,17.44,2.4757,363,23801,1.93790,3.81,39294,,,,,,,,,,,,,,,,,,99999,99999,99999,99999,99999,99999,99999,99999,99999,99999,99999,99999
34:33:19,1510881060,2017-11-17T01:11:04,0.782,1564.0,20.68,17.58,22.10,821.640,2089.650,126.949997,17.71,2.4756,363,23803,1.93578,3.81,39289,,,,,,,,,,,,,,,,,,99999,99999,99999,99999,99999,99999,99999,99999,99999,99999,99999,99999
34:33:49,1510881090,2017-11-17T01:11:34,0.784,1564.4,20.68,17.57,22.12,821.480,2089.650,126.366669,17.52,2.4756,363,23802,1.94094,3.81,39284,,,,,,,,,,,,,,,,,,99999,99999,99999,99999,99999,99999,99999,99999,99999,99999,99999,99999
34:34:19,1510881120,2017-11-17T01:12:04,0.786,1564.8,20.70,17.61,22.14,821.610,2089.760,127.016670,17.30,2.4756,363,23804,1.94703,3.81,39278,,,,,,,,,,,,,,,,,,99999,99999,99999,99999,99999,99999,99999,99999,99999,99999,99999,99999
34:34:49,1510881150,2017-11-17T01:12:34,0.785,1565.2,20.69,17.60,22.10,821.530,2089.720,127.866669,17.21,2.4756,363,23801,1.94398,3.81,39273,,,,,,,,,,,,,,,,,,99999,99999,99999,99999,99999,99999,99999,99999,99999,99999,99999,99999
34:35:19,1510881180,2017-11-17T01:13:04,0.786,1565.6,20.69,17.57,22.12,821.610,2089.720,128.433334,17.35,2.4756,363,23800,1.94581,3.81,39268,,,,,,,,,,,,,,,,,,99999,99999,99999,99999,99999,99999,99999,99999,99999,99999,99999,99999
34:35:49,1510881210,2017-11-17T01:13:34,0.786,1566.0,20.69,17.58,22.12,821.480,2089.720,129.750000,17.13,2.4756,363,23805,1.94612,3.81,39263,,,,,,,,,,,,,,,,,,99999,99999,99999,99999,99999,99999,99999,99999,99999,99999,99999,99999
34:36:19,1510881240,2017-11-17T01:14:04,0.783,1566.3,20.70,17.59,22.16,821.660,2089.760,125.250000,16.95,2.4756,363,23800,1.93882,3.81,39257,,,,,,,,,,,,,,,,,,99999,99999,99999,99999,99999,99999,99999,99999,99999,99999,99999,99999
34:36:49,1510881270,2017-11-17T01:14:34,0.787,1566.7,20.70,17.59,22.16,821.610,2089.760,127.766670,17.33,2.4756,363,23802,1.94947,3.81,39252,,,,,,,,,,,,,,,,,,99999,99999,99999,99999,99999,99999,99999,99999,99999,99999,99999,99999
34:37:19,1510881300,2017-11-17T01:15:04,0.785,1567.1,20.71,17.60,22.16,821.610,2089.760,128.016663,17.36,2.4755,363,23802,1.94216,3.81,39247,,,,,,,,,,,,,,,,,,99999,99999,99999,99999,99999,99999,99999,99999,99999,99999,99999,99999
34:37:49,1510881330,2017-11-17T01:15:34,0.782,1567.5,20.72,17.59,22.12,821.600,2089.880,126.416664,17.51,2.4755,363,23802,1.93699,3.81,39242,,,,,,,,,,,,,,,,,,99999,99999,99999,99999,99999,99999,99999,99999,99999,99999,99999,99999
34:38:19,1510881360,2017-11-17T01:16:04,0.785,1567.9,20.71,17.60,22.14,821.530,2089.760,126.000000,17.36,2.4755,363,23804,1.94398,3.81,39237,,,,,,,,,,,,,,,,,,99999,99999,99999,99999,99999,99999,99999,99999,99999,99999,99999,99999
34:38:49,1510881390,2017-11-17T01:16:34,0.787,1568.3,20.71,17.61,22.16,821.580,2089.760,127.233330,17.21,2.4755,363,23801,1.94916,3.81,39231,,,,,,,,,,,,,,,,,,99999,99999,99999,99999,99999,99999,99999,99999,99999,99999,99999,99999
34:39:19,1510881420,2017-11-17T01:17:04,0.783,1568.7,20.71,17.60,22.16,821.610,2089.760,127.933334,17.02,2.4755,363,23801,1.93821,3.80,39226,,,,,,,,,,,,,,,,,,99999,99999,99999,99999,99999,99999,99999,99999,99999,99999,99999,99999
34:39:49,1510881450,2017-11-17T01:17:34,0.787,1569.1,20.72,17.59,22.16,821.580,2089.880,127.033333,17.10,2.4756,363,23802,1.94916,3.81,39221,,,,,,,,,,,,,,,,,,99999,99999,99999,99999,99999,99999,99999,99999,99999,99999,99999,99999
34:40:19,1510881480,2017-11-17T01:18:04,0.784,1569.5,20.72,17.59,22.16,821.520,2089.880,125.616669,17.34,2.4755,363,23802,1.94125,3.81,39216,,,,,,,,,,,,,,,,,,99999,99999,99999,99999,99999,99999,99999,99999,99999,99999,99999,99999
34:40:49,1510881510,2017-11-17T01:18:34,0.782,1569.9,20.73,17.60,22.16,821.470,2089.880,126.000000,17.37,2.4755,363,23804,1.93669,3.81,39210,,,,,,,,,,,,,,,,,,99999,99999,99999,99999,99999,99999,99999,99999,99999,99999,99999,99999
34:41:19,1510881540,2017-11-17T01:19:04,0.786,1570.3,20.72,17.61,22.14,821.550,2089.880,127.066666,17.18,2.4756,363,23802,1.94642,3.81,39205,,,,,,,,,,,,,,,,,,99999,99999,99999,99999,99999,99999,99999,99999,99999,99999,99999,99999
34:41:49,1510881570,2017-11-17T01:19:34,0.782,1570.7,20.71,17.57,22.16,821.470,2089.760,125.733330,17.21,2.4755,363,23803,1.93669,3.81,39200,,,,,,,,,,,,,,,,,,99999,99999,99999,99999,99999,99999,99999,99999,99999,99999,99999,99999
34:42:19,1510881600,2017-11-17T01:20:04,0.782,1571.0,20.71,17.57,22.12,821.550,2089.760,126.099998,17.38,2.4755,363,23803,1.93517,3.81,39195,,,,,,,,,,,,,,,,,,99999,99999,99999,99999,99999,99999,99999,99999,99999,99999,99999,99999
34:42:49,1510881630,2017-11-17T01:20:34,0.788,1571.4,20.70,17.57,22.14,821.550,2089.760,127.433334,17.50,2.4756,363,23800,1.95038,3.81,39190,,,,,,,,,,,,,,,,,,99999,99999,99999,99999,99999,99999,99999,99999,99999,99999,99999,99999
34:43:19,1510881660,2017-11-17T01:21:04,0.787,1571.8,20.69,17.55,22.10,821.450,2089.720,126.949997,17.59,2.4756,363,23801,1.94764,3.81,39184,,,,,,,,,,,,,,,,,,99999,99999,99999,99999,99999,99999,99999,99999,99999,99999,99999,99999
34:43:49,1510881690,2017-11-17T01:21:34,0.783,1572.2,20.68,17.54,22.14,821.610,2089.650,124.300003,17.51,2.4756,363,23801,1.93942,3.80,39179,,,,,,,,,,,,,,,,,,99999,99999,99999,99999,99999,99999,99999,99999,99999,99999,99999,99999
34:44:19,1510881720,2017-11-17T01:22:04,0.784,1572.6,20.68,17.52,22.12,821.580,2089.650,125.400002,17.46,2.4756,363,23802,1.94033,3.80,39174,,,,,,,,,,,,,,,,,,99999,99999,99999,99999,99999,99999,99999,99999,99999,99999,99999,99999
34:44:49,1510881750,2017-11-17T01:22:34,0.785,1573.0,20.66,17.52,22.09,821.590,2089.590,126.716667,17.54,2.4757,363,23800,1.94246,3.80,39169,,,,,,,,,,,,,,,,,,99999,99999,99999,99999,99999,99999,99999,99999,99999,99999,99999,99999
34:45:19,1510881780,2017-11-17T01:23:04,0.784,1573.4,20.64,17.48,22.06,821.520,2089.530,126.033333,18.02,2.4757,363,23800,1.94216,3.80,39163,,,,,,,,,,,,,,,,,,99999,99999,99999,99999,99999,99999,99999,99999,99999,99999,99999,99999
34:45:49,1510881810,2017-11-17T01:23:34,0.786,1573.8,20.63,17.48,22.09,821.600,2089.530,128.199997,17.92,2.4758,363,23798,1.94551,3.80,39158,,,,,,,,,,,,,,,,,,99999,99999,99999,99999,99999,99999,99999,99999,99999,99999,99999,99999
34:46:19,1510881840,2017-11-17T01:24:04,0.787,1574.2,20.62,17.46,22.04,821.550,2089.470,127.349998,17.94,2.4758,363,23798,1.94916,3.80,39153,,,,,,,,,,,,,,,,,,99999,99999,99999,99999,99999,99999,99999,99999,99999,99999,99999,99999
34:46:49,1510881870,2017-11-17T01:24:34,0.785,1574.6,20.60,17.44,22.06,821.530,2089.430,129.383331,17.76,2.4760,363,23798,1.94277,3.80,39148,,,,,,,,,,,,,,,,,,99999,99999,99999,99999,99999,99999,99999,99999,99999,99999,99999,99999
34:47:19,1510881900,2017-11-17T01:25:04,0.781,1575.0,20.58,17.42,22.04,821.450,2089.300,127.466667,17.98,2.4760,363,23799,1.93456,3.80,39143,,,,,,,,,,,,,,,,,,99999,99999,99999,99999,99999,99999,99999,99999,99999,99999,99999,99999
34:47:49,1510881930,2017-11-17T01:25:34,0.781,1575.4,20.55,17.41,22.01,821.480,2089.230,126.666664,18.08,2.4761,363,23797,1.93396,3.80,39137,,,,,,,,,,,,,,,,,,99999,99999,99999,99999,99999,99999,99999,99999,99999,99999,99999,99999
34:48:19,1510881960,2017-11-17T01:26:04,0.787,1575.8,20.52,17.41,21.98,821.460,2089.130,126.916664,17.66,2.4763,363,23797,1.94886,3.80,39132,,,,,,,,,,,,,,,,,,99999,99999,99999,99999,99999,99999,99999,99999,99999,99999,99999,99999
34:48:49,1510881990,2017-11-17T01:26:34,0.783,1576.1,20.52,17.36,21.96,821.460,2089.130,124.316666,17.90,2.4763,363,23797,1.93973,3.80,39127,,,,,,,,,,,,,,,,,,99999,99999,99999,99999,99999,99999,99999,99999,99999,99999,99999,99999
34:49:19,1510882020,2017-11-17T01:27:04,0.786,1576.5,20.50,17.36,21.96,821.570,2089.070,127.616669,18.10,2.4764,363,23796,1.94581,3.80,39122,,,,,,,,,,,,,,,,,,99999,99999,99999,99999,99999,99999,99999,99999,99999,99999,99999,99999
34:49:49,1510882050,2017-11-17T01:27:34,0.781,1576.9,20.48,17.33,21.94,821.530,2089.010,127.183334,18.15,2.4765,363,23796,1.93396,3.80,39116,,,,,,,,,,,,,,,,,,99999,99999,99999,99999,99999,99999,99999,99999,99999,99999,99999,99999
34:50:19,1510882080,2017-11-17T01:28:04,0.781,1577.3,20.46,17.32,21.91,821.540,2088.840,125.733330,18.46,2.4764,363,23794,1.93487,3.80,39111,,,,,,,,,,,,,,,,,,99999,99999,99999,99999,99999,99999,99999,99999,99999,99999,99999,99999
34:50:49,1510882110,2017-11-17T01:28:34,0.786,1577.7,20.43,17.32,21.91,821.600,2088.780,125.949997,18.40,2.4766,363,23792,1.94581,3.80,39106,,,,,,,,,,,,,,,,,,99999,99999,99999,99999,99999,99999,99999,99999,99999,99999,99999,99999
34:51:19,1510882140,2017-11-17T01:29:04,0.784,1578.1,20.42,17.30,21.86,821.600,2088.780,124.750000,18.14,2.4767,363,23795,1.94186,3.80,39101,,,,,,,,,,,,,,,,,,99999,99999,99999,99999,99999,99999,99999,99999,99999,99999,99999,99999
34:51:49,1510882170,2017-11-17T01:29:34,0.785,1578.5,20.39,17.27,21.88,821.550,2088.650,127.800003,18.09,2.4768,363,23792,1.94490,3.80,39096,,,,,,,,,,,,,,,,,,99999,99999,99999,99999,99999,99999,99999,99999,99999,99999,99999,99999
34:52:19,1510882200,2017-11-17T01:30:04,0.782,1578.9,20.36,17.26,21.83,821.580,2088.610,124.633331,18.04,2.4770,363,23792,1.93730,3.80,39090,,,,,,,,,,,,,,,,,,99999,99999,99999,99999,99999,99999,99999,99999,99999,99999,99999,99999
34:52:49,1510882230,2017-11-17T01:30:34,0.781,1579.3,20.34,17.23,21.78,821.560,2088.550,126.533333,18.20,2.4771,363,23793,1.93487,3.80,39085,,,,,,,,,,,,,,,,,,99999,99999,99999,99999,99999,99999,99999,99999,99999,99999,99999,99999
34:53:19,1510882260,2017-11-17T01:31:04,0.781,1579.7,20.32,17.23,21.76,821.570,2088.480,125.849998,17.82,2.4773,363,23791,1.93456,3.80,39080,,,,,,,,,,,,,,,,,,99999,99999,99999,99999,99999,99999,99999,99999,99999,99999,99999,99999
34:53:49,1510882290,2017-11-17T01:31:34,0.780,1580.1,20.29,17.18,21.75,821.570,2088.320,126.650002,17.90,2.4773,363,23790,1.93304,3.80,39075,,,,,,,,,,,,,,,,,,99999,99999,99999,99999,99999,99999,99999,99999,99999,99999,99999,99999
34:54:19,1510882320,2017-11-17T01:32:04,0.784,1580.5,20.29,17.18,21.76,821.570,2088.320,127.533333,17.50,2.4774,363,23790,1.94246,3.80,39069,,,,,,,,,,,,,,,,,,99999,99999,99999,99999,99999,99999,99999,99999,99999,99999,99999,99999
34:54:49,1510882350,2017-11-17T01:32:34,0.783,1580.8,20.26,17.15,21.72,821.580,2088.190,125.533333,17.83,2.4774,363,23791,1.94064,3.80,39064,,,,,,,,,,,,,,,,,,99999,99999,99999,99999,99999,99999,99999,99999,99999,99999,99999,99999
34:55:19,1510882380,2017-11-17T01:33:04,0.782,1581.2,20.24,17.15,21.70,821.560,2088.130,125.883331,18.01,2.4775,363,23792,1.93669,3.80,39059,,,,,,,,,,,,,,,,,,99999,99999,99999,99999,99999,99999,99999,99999,99999,99999,99999,99999
34:55:49,1510882410,2017-11-17T01:33:34,0.785,1581.6,20.23,17.15,21.68,821.610,2088.130,126.166664,17.86,2.4776,363,23790,1.94459,3.80,39054,,,,,,,,,,,,,,,,,,99999,99999,99999,99999,99999,99999,99999,99999,99999,99999,99999,99999
34:56:19,1510882440,2017-11-17T01:34:04,0.781,1582.0,20.21,17.14,21.68,821.650,2088.030,124.483330,18.11,2.4776,363,23788,1.93426,3.80,39049,,,,,,,,,,,,,,,,,,99999,99999,99999,99999,99999,99999,99999,99999,99999,99999,99999,99999
34:56:49,1510882470,2017-11-17T01:34:34,0.783,1582.4,20.22,17.14,21.67,821.590,2088.090,126.816666,18.03,2.4776,363,23787,1.94003,3.80,39043,,,,,,,,,,,,,,,,,,99999,99999,99999,99999,99999,99999,99999,99999,99999,99999,99999,99999
34:57:19,1510882500,2017-11-17T01:35:04,0.782,1582.8,20.22,17.15,21.66,821.640,2088.090,125.933334,18.15,2.4776,363,23789,1.93851,3.80,39038,,,,,,,,,,,,,,,,,,99999,99999,99999,99999,99999,99999,99999,99999,99999,99999,99999,99999
34:57:49,1510882530,2017-11-17T01:35:34,0.780,1583.2,20.20,17.13,21.67,821.620,2088.030,124.849998,18.24,2.4777,363,23791,1.93304,3.80,39033,,,,,,,,,,,,,,,,,,99999,99999,99999,99999,99999,99999,99999,99999,99999,99999,99999,99999
34:58:19,1510882560,2017-11-17T01:36:04,0.785,1583.6,20.20,17.12,21.66,821.590,2088.030,126.150002,18.29,2.4777,363,23787,1.94429,3.80,39028,,,,,,,,,,,,,,,,,,99999,99999,99999,99999,99999,99999,99999,99999,99999,99999,99999,99999
34:58:49,1510882590,2017-11-17T01:36:34,0.780,1584.0,20.19,17.12,21.64,821.650,2088.030,124.516670,18.39,2.4778,363,23789,1.93335,3.80,39023,,,,,,,,,,,,,,,,,,99999,99999,99999,99999,99999,99999,99999,99999,99999,99999,99999,99999
34:59:19,1510882620,2017-11-17T01:37:04,0.784,1584.4,20.18,17.10,21.64,821.680,2087.900,125.083336,18.36,2.4777,363,23786,1.94186,3.80,39017,,,,,,,,,,,,,,,,,,99999,99999,99999,99999,99999,99999,99999,99999,99999,99999,99999,99999
34:59:49,1510882650,2017-11-17T01:37:34,0.783,1584.8,20.17,17.05,21.62,821.680,2087.900,126.483330,18.49,2.4778,363,23788,1.93973,3.80,39012,,,,,,,,,,,,,,,,,,99999,99999,99999,99999,99999,99999,99999,99999,99999,99999,99999,99999
35:00:19,1510882680,2017-11-17T01:38:04,0.780,1585.1,20.15,17.06,21.59,821.630,2087.860,124.949997,18.50,2.4779,363,23787,1.93335,3.80,39007,,,,,,,,,,,,,,,,,,99999,99999,99999,99999,99999,99999,99999,99999,99999,99999,99999,99999
35:00:49,1510882710,2017-11-17T01:38:34,0.783,1585.5,20.14,17.02,21.58,821.580,2087.790,126.883331,18.85,2.4779,363,23784,1.93973,3.80,39002,,,,,,,,,,,,,,,,,,99999,99999,99999,99999,99999,99999,99999,99999,99999,99999,99999,99999
35:01:19,1510882740,2017-11-17T01:39:04,0.780,1585.9,20.13,16.99,21.59,821.620,2087.730,123.949997,18.44,2.4779,363,23785,1.93274,3.80,38997,,,,,,,,,,,,,,,,,,99999,99999,99999,99999,99999,99999,99999,99999,99999,99999,99999,99999
35:01:49,1510882770,2017-11-17T01:39:34,0.780,1586.3,20.10,16.96,21.58,821.590,2087.670,124.550003,19.16,2.4780,363,23782,1.93365,3.80,38991,,,,,,,,,,,,,,,,,,99999,99999,99999,99999,99999,99999,99999,99999,99999,99999,99999,99999
35:02:19,1510882800,2017-11-17T01:40:04,0.782,1586.7,20.08,16.98,21.54,821.620,2087.610,125.166664,18.68,2.4782,363,23784,1.93790,3.80,38986,,,,,,,,,,,,,,,,,,99999,99999,99999,99999,99999,99999,99999,99999,99999,99999,99999,99999
35:02:49,1510882830,2017-11-17T01:40:34,0.779,1587.1,20.05,16.91,21.51,821.640,2087.440,125.833336,18.83,2.4782,363,23784,1.92941,3.80,38981,,,,,,,,,,,,,,,,,,99999,99999,99999,99999,99999,99999,99999,99999,99999,99999,99999,99999
35:03:19,1510882860,2017-11-17T01:41:04,0.781,1587.5,20.02,16.90,21.49,821.640,2087.380,126.116669,18.97,2.4784,363,23782,1.93638,3.80,38976,,,,,,,,,,,,,,,,,,99999,99999,99999,99999,99999,99999,99999,99999,99999,99999,99999,99999
35:03:49,1510882890,2017-11-17T01:41:34,0.783,1587.9,19.99,16.85,21.46,821.590,2087.270,126.099998,19.02,2.4785,363,23782,1.94003,3.80,38971,,,,,,,,,,,,,,,,,,99999,99999,99999,99999,99999,99999,99999,99999,99999,99999,99999,99999
35:04:19,1510882920,2017-11-17T01:42:04,0.781,1588.3,19.97,16.84,21.43,821.620,2087.210,125.183334,19.36,2.4786,363,23780,1.93456,3.80,38965,,,,,,,,,,,,,,,,,,99999,99999,99999,99999,99999,99999,99999,99999,99999,99999,99999,99999
35:04:49,1510882950,2017-11-17T01:42:34,0.781,1588.7,19.92,16.80,21.40,821.630,2087.090,125.733330,18.87,2.4789,363,23778,1.93547,3.80,38960,,,,,,,,,,,,,,,,,,99999,99999,99999,99999,99999,99999,99999,99999,99999,99999,99999,99999
35:05:19,1510882980,2017-11-17T01:43:04,0.779,1589.1,19.87,16.78,21.40,821.620,2086.860,124.283333,19.24,2.4790,363,23780,1.93183,3.80,38955,,,,,,,,,,,,,,,,,,99999,99999,99999,99999,99999,99999,99999,99999,99999,99999,99999,99999
35:05:49,1510883010,2017-11-17T01:43:34,0.778,1589.4,19.83,16.73,21.32,821.630,2086.750,125.900002,19.25,2.4792,363,23776,1.93001,3.80,38950,,,,,,,,,,,,,,,,,,99999,99999,99999,99999,99999,99999,99999,99999,99999,99999,99999,99999
35:06:19,1510883040,2017-11-17T01:44:04,0.782,1589.8,19.81,16.69,21.28,821.610,2086.690,125.333336,19.51,2.4793,363,23776,1.93790,3.80,38945,,,,,,,,,,,,,,,,,,99999,99999,99999,99999,99999,99999,99999,99999,99999,99999,99999,99999
35:06:49,1510883070,2017-11-17T01:44:34,0.779,1590.2,19.76,16.67,21.25,821.650,2086.460,124.816666,19.09,2.4795,363,23774,1.93274,3.80,38939,,,,,,,,,,,,,,,,,,99999,99999,99999,99999,99999,99999,99999,99999,99999,99999,99999,99999
35:07:19,1510883100,2017-11-17T01:45:04,0.781,1590.6,19.71,16.63,21.22,821.640,2086.270,126.300003,19.18,2.4797,363,23772,1.93730,3.80,38934,,,,,,,,,,,,,,,,,,99999,99999,99999,99999,99999,99999,99999,99999,99999,99999,99999,99999
35:07:49,1510883130,2017-11-17T01:45:34,0.777,1591.0,19.68,16.60,21.17,821.670,2086.230,124.766670,19.48,2.4799,363,23773,1.92699,3.80,38929,,,,,,,,,,,,,,,,,,99999,99999,99999,99999,99999,99999,99999,99999,99999,99999,99999,99999
35:08:19,1510883160,2017-11-17T01:46:04,0.777,1591.4,19.63,16.56,21.12,821.710,2086.000,124.900002,19.39,2.4801,363,23769,1.92729,3.80,38924,,,,,,,,,,,,,,,,,,99999,99999,99999,99999,99999,99999,99999,99999,99999,99999,99999,99999
35:08:49,1510883190,2017-11-17T01:46:34,0.781,1591.8,19.60,16.51,21.09,821.630,2085.940,125.916664,19.54,2.4802,363,23769,1.93730,3.80,38919,,,,,,,,,,,,,,,,,,99999,99999,99999,99999,99999,99999,99999,99999,99999,99999,99999,99999
35:09:19,1510883220,2017-11-17T01:47:04,0.778,1592.2,19.54,16.48,21.06,821.650,2085.750,124.883331,19.47,2.4805,363,23769,1.93001,3.80,38914,,,,,,,,,,,,,,,,,,99999,99999,99999,99999,99999,99999,99999,99999,99999,99999,99999,99999
35:09:49,1510883250,2017-11-17T01:47:34,0.779,1592.6,19.50,16.41,21.04,821.630,2085.580,123.716667,19.82,2.4806,363,23767,1.93274,3.80,38908,,,,,,,,,,,,,,,,,,99999,99999,99999,99999,99999,99999,99999,99999,99999,99999,99999,99999
35:10:19,1510883280,2017-11-17T01:48:04,0.780,1593.0,19.46,16.38,20.98,821.560,2085.420,125.666664,19.63,2.4808,363,23768,1.93578,3.80,38903,,,,,,,,,,,,,,,,,,99999,99999,99999,99999,99999,99999,99999,99999,99999,99999,99999,99999
35:10:49,1510883310,2017-11-17T01:48:34,0.779,1593.3,19.40,16.36,20.91,821.600,2085.250,123.933334,20.30,2.4811,363,23767,1.93213,3.80,38898,,,,,,,,,,,,,,,,,,99999,99999,99999,99999,99999,99999,99999,99999,99999,99999,99999,99999
35:11:19,1510883340,2017-11-17T01:49:04,0.775,1593.7,19.37,16.30,20.83,821.690,2085.120,124.483330,20.18,2.4812,363,23764,1.92365,3.80,38893,,,,,,,,,,,,,,,,,,99999,99999,99999,99999,99999,99999,99999,99999,99999,99999,99999,99999
35:11:49,1510883370,2017-11-17T01:49:34,0.780,1594.1,19.32,16.29,20.83,821.650,2084.950,125.599998,20.23,2.4814,363,23763,1.93426,3.80,38888,,,,,,,,,,,,,,,,,,99999,99999,99999,99999,99999,99999,99999,99999,99999,99999,99999,99999
35:12:19,1510883400,2017-11-17T01:50:04,0.776,1594.5,19.27,16.23,20.76,821.500,2084.830,124.166664,20.11,2.4817,363,23761,1.92456,3.80,38883,,,,,,,,,,,,,,,,,,99999,99999,99999,99999,99999,99999,99999,99999,99999,99999,99999,99999
35:12:49,1510883430,2017-11-17T01:50:34,0.777,1594.9,19.21,16.20,20.75,821.510,2084.540,122.883331,20.37,2.4818,363,23759,1.92880,3.80,38877,,,,,,,,,,,,,,,,,,99999,99999,99999,99999,99999,99999,99999,99999,99999,99999,99999,99999
35:13:19,1510883460,2017-11-17T01:51:04,0.777,1595.3,19.16,16.14,20.67,821.480,2084.430,124.666664,20.35,2.4821,363,23759,1.92971,3.80,38872,,,,,,,,,,,,,,,,,,99999,99999,99999,99999,99999,99999,99999,99999,99999,99999,99999,99999
35:13:49,1510883490,2017-11-17T01:51:34,0.774,1595.7,19.11,16.09,20.64,821.480,2084.200,123.449997,20.32,2.4823,363,23757,1.92033,3.80,38867,,,,,,,,,,,,,,,,,,99999,99999,99999,99999,99999,99999,99999,99999,99999,99999,99999,99999
35:14:19,1510883520,2017-11-17T01:52:04,0.775,1596.1,19.07,16.06,20.59,821.490,2084.080,122.449997,20.70,2.4825,363,23757,1.92275,3.80,38862,,,,,,,,,,,,,,,,,,99999,99999,99999,99999,99999,99999,99999,99999,99999,99999,99999,99999
35:14:49,1510883550,2017-11-17T01:52:34,0.774,1596.4,19.00,16.02,20.51,821.510,2083.850,123.983330,21.00,2.4828,363,23753,1.92093,3.80,38857,,,,,,,,,,,,,,,,,,99999,99999,99999,99999,99999,99999,99999,99999,99999,99999,99999,99999
35:15:19,1510883580,2017-11-17T01:53:04,0.773,1596.8,18.95,15.93,20.52,821.530,2083.680,123.816666,20.55,2.4830,363,23752,1.91972,3.80,38852,,,,,,,,,,,,,,,,,,99999,99999,99999,99999,99999,99999,99999,99999,99999,99999,99999,99999
35:15:49,1510883610,2017-11-17T01:53:34,0.775,1597.2,18.90,15.93,20.46,821.480,2083.500,124.400002,20.91,2.4832,363,23751,1.92517,3.80,38846,,,,,,,,,,,,,,,,,,99999,99999,99999,99999,99999,99999,99999,99999,99999,99999,99999,99999
35:16:19,1510883640,2017-11-17T01:54:04,0.778,1597.6,18.85,15.88,20.36,821.440,2083.270,124.683334,20.42,2.4834,363,23749,1.93092,3.80,38841,,,,,,,,,,,,,,,,,,99999,99999,99999,99999,99999,99999,99999,99999,99999,99999,99999,99999
35:16:49,1510883670,2017-11-17T01:54:34,0.772,1598.0,18.80,15.85,20.36,821.450,2083.100,123.083336,20.39,2.4837,363,23749,1.91761,3.80,38836,,,,,,,,,,,,,,,,,,99999,99999,99999,99999,99999,99999,99999,99999,99999,99999,99999,99999
35:17:19,1510883700,2017-11-17T01:55:04,0.773,1598.4,18.74,15.81,20.25,821.440,2082.970,122.550003,20.89,2.4840,363,23747,1.92093,3.80,38831,,,,,,,,,,,,,,,,,,99999,99999,99999,99999,99999,99999,99999,99999,99999,99999,99999,99999
35:17:49,1510883730,2017-11-17T01:55:34,0.772,1598.8,18.70,15.75,20.18,821.450,2082.800,122.283333,20.83,2.4841,363,23745,1.91851,3.80,38826,,,,,,,,,,,,,,,,,,99999,99999,99999,99999,99999,99999,99999,99999,99999,99999,99999,99999
35:18:19,1510883760,2017-11-17T01:56:04,0.776,1599.2,18.65,15.71,20.20,821.350,2082.640,124.566666,21.23,2.4843,363,23746,1.92819,3.80,38821,,,,,,,,,,,,,,,,,,99999,99999,99999,99999,99999,99999,99999,99999,99999,99999,99999,99999
35:18:49,1510883790,2017-11-17T01:56:34,0.772,1599.5,18.60,15.68,20.13,821.370,2082.470,123.000000,20.97,2.4846,363,23745,1.91730,3.80,38816,,,,,,,,,,,,,,,,,,99999,99999,99999,99999,99999,99999,99999,99999,99999,99999,99999,99999
35:19:19,1510883820,2017-11-17T01:57:04,0.772,1599.9,18.56,15.63,20.09,821.380,2082.280,122.883331,21.13,2.4847,363,23742,1.91881,3.80,38810,,,,,,,,,,,,,,,,,,99999,99999,99999,99999,99999,99999,99999,99999,99999,99999,99999,99999
35:19:49,1510883850,2017-11-17T01:57:34,0.771,1600.3,18.51,15.60,20.08,821.390,2082.180,123.333336,21.12,2.4850,363,23744,1.91549,3.80,38805,,,,,,,,,,,,,,,,,,99999,99999,99999,99999,99999,99999,99999,99999,99999,99999,99999,99999
35:20:19,1510883880,2017-11-17T01:58:04,0.775,1600.7,18.47,15.56,20.00,821.370,2081.990,124.883331,21.10,2.4851,363,23743,1.92517,3.80,38800,,,,,,,,,,,,,,,,,,99999,99999,99999,99999,99999,99999,99999,99999,99999,99999,99999,99999
35:20:49,1510883910,2017-11-17T01:58:34,0.770,1601.1,18.42,15.53,19.98,821.440,2081.830,124.300003,21.20,2.4853,363,23740,1.91338,3.80,38795,,,,,,,,,,,,,,,,,,99999,99999,99999,99999,99999,99999,99999,99999,99999,99999,99999,99999
35:21:19,1510883940,2017-11-17T01:59:04,0.774,1601.5,18.39,15.48,19.92,821.370,2081.720,123.516670,21.11,2.4855,363,23740,1.92335,3.80,38790,,,,,,,,,,,,,,,,,,99999,99999,99999,99999,99999,99999,99999,99999,99999,99999,99999,99999
35:21:49,1510883970,2017-11-17T01:59:34,0.772,1601.9,18.35,15.44,19.92,821.430,2081.600,122.083336,21.29,2.4857,363,23739,1.91972,3.80,38785,,,,,,,,,,,,,,,,,,99999,99999,99999,99999,99999,99999,99999,99999,99999,99999,99999,99999
35:22:19,1510884000,2017-11-17T02:00:04,0.770,1602.3,18.31,15.45,19.83,821.410,2081.430,121.816666,21.49,2.4858,363,23735,1.91459,3.80,38780,,,,,,,,,,,,,,,,,,99999,99999,99999,99999,99999,99999,99999,99999,99999,99999,99999,99999
35:22:49,1510884030,2017-11-17T02:00:34,0.772,1602.6,18.27,15.37,19.80,821.290,2081.300,121.199997,20.94,2.4860,363,23737,1.91881,3.80,38774,,,,,,,,,,,,,,,,,,99999,99999,99999,99999,99999,99999,99999,99999,99999,99999,99999,99999
35:23:19,1510884060,2017-11-17T02:01:04,0.776,1603.0,18.25,15.38,19.77,821.380,2081.240,122.733330,21.23,2.4861,363,23732,1.93001,3.80,38769,,,,,,,,,,,,,,,,,,99999,99999,99999,99999,99999,99999,99999,99999,99999,99999,99999,99999
35:23:49,1510884090,2017-11-17T02:01:34,0.770,1603.4,18.22,15.34,19.72,821.380,2081.130,122.199997,21.07,2.4862,363,23732,1.91399,3.80,38764,,,,,,,,,,,,,,,,,,99999,99999,99999,99999,99999,99999,99999,99999,99999,99999,99999,99999
35:24:19,1510884120,2017-11-17T02:02:04,0.773,1603.8,18.19,15.30,19.70,821.390,2081.070,123.833336,21.03,2.4864,363,23731,1.92093,3.80,38759,,,,,,,,,,,,,,,,,,99999,99999,99999,99999,99999,99999,99999,99999,99999,99999,99999,99999
35:24:49,1510884150,2017-11-17T02:02:34,0.771,1604.2,18.17,15.29,19.72,821.400,2080.970,121.666664,21.01,2.4865,363,23731,1.91730,3.80,38754,,,,,,,,,,,,,,,,,,99999,99999,99999,99999,99999,99999,99999,99999,99999,99999,99999,99999
35:25:19,1510884180,2017-11-17T02:03:04,0.774,1604.6,18.15,15.26,19.67,821.450,2080.910,123.883331,21.09,2.4866,363,23730,1.92426,3.80,38749,,,,,,,,,,,,,,,,,,99999,99999,99999,99999,99999,99999,99999,99999,99999,99999,99999,99999
35:25:49,1510884210,2017-11-17T02:03:34,0.769,1605.0,18.14,15.25,19.64,821.430,2080.840,120.550003,21.03,2.4866,363,23729,1.91248,3.80,38744,,,,,,,,,,,,,,,,,,99999,99999,99999,99999,99999,99999,99999,99999,99999,99999,99999,99999
35:26:19,1510884240,2017-11-17T02:04:04,0.769,1605.3,18.13,15.22,19.63,821.510,2080.780,122.316666,21.02,2.4866,363,23730,1.91278,3.80,38739,,,,,,,,,,,,,,,,,,99999,99999,99999,99999,99999,99999,99999,99999,99999,99999,99999,99999
35:26:49,1510884270,2017-11-17T02:04:34,0.770,1605.7,18.12,15.23,19.60,821.570,2080.780,121.316666,21.01,2.4867,363,23731,1.91399,3.80,38733,,,,,,,,,,,,,,,,,,99999,99999,99999,99999,99999,99999,99999,99999,99999,99999,99999,99999
35:27:19,1510884300,2017-11-17T02:05:04,0.772,1606.1,18.12,15.23,19.59,821.570,2080.780,122.383331,21.13,2.4867,363,23730,1.91972,3.80,38728,,,,,,,,,,,,,,,,,,99999,99999,99999,99999,99999,99999,99999,99999,99999,99999,99999,99999
35:27:49,1510884330,2017-11-17T02:05:34,0.772,1606.5,18.11,15.22,19.60,821.590,2080.740,123.483330,21.13,2.4867,363,23732,1.92002,3.80,38723,,,,,,,,,,,,,,,,,,99999,99999,99999,99999,99999,99999,99999,99999,99999,99999,99999,99999
35:28:19,1510884360,2017-11-17T02:06:04,0.774,1606.9,18.12,15.22,19.59,821.590,2080.780,123.500000,20.87,2.4867,363,23728,1.92365,3.80,38718,,,,,,,,,,,,,,,,,,99999,99999,99999,99999,99999,99999,99999,99999,99999,99999,99999,99999
35:28:49,1510884390,2017-11-17T02:06:34,0.769,1607.3,18.12,15.21,19.63,821.510,2080.780,121.633331,20.97,2.4867,363,23731,1.91187,3.80,38713,,,,,,,,,,,,,,,,,,99999,99999,99999,99999,99999,99999,99999,99999,99999,99999,99999,99999
35:29:19,1510884420,2017-11-17T02:07:04,0.773,1607.7,18.14,15.22,19.63,821.510,2080.840,123.733330,20.93,2.4866,363,23732,1.92153,3.80,38708,,,,,,,,,,,,,,,,,,99999,99999,99999,99999,99999,99999,99999,99999,99999,99999,99999,99999
35:29:49,1510884450,2017-11-17T02:07:34,0.773,1608.0,18.15,15.25,19.63,821.530,2080.910,124.500000,20.73,2.4866,363,23730,1.92184,3.80,38703,,,,,,,,,,,,,,,,,,99999,99999,99999,99999,99999,99999,99999,99999,99999,99999,99999,99999
35:30:19,1510884480,2017-11-17T02:08:04,0.773,1608.4,18.19,15.27,19.63,821.470,2081.070,122.333336,21.21,2.4864,363,23731,1.92244,3.80,38698,,,,,,,,,,,,,,,,,,99999,99999,99999,99999,99999,99999,99999,99999,99999,99999,99999,99999
35:30:49,1510884510,2017-11-17T02:08:34,0.772,1608.8,18.21,15.31,19.66,821.520,2081.070,120.916664,21.17,2.4863,363,23730,1.91942,3.80,38693,,,,,,,,,,,,,,,,,,99999,99999,99999,99999,99999,99999,99999,99999,99999,99999,99999,99999
35:31:19,1510884540,2017-11-17T02:09:04,0.771,1609.2,18.25,15.31,19.69,821.510,2081.240,121.750000,20.88,2.4861,363,23730,1.91730,3.80,38687,,,,,,,,,,,,,,,,,,99999,99999,99999,99999,99999,99999,99999,99999,99999,99999,99999,99999
35:31:49,1510884570,2017-11-17T02:09:34,0.772,1609.6,18.27,15.34,19.75,821.430,2081.300,120.516670,21.04,2.4860,363,23732,1.91881,3.80,38682,,,,,,,,,,,,,,,,,,99999,99999,99999,99999,99999,99999,99999,99999,99999,99999,99999,99999
35:32:19,1510884600,2017-11-17T02:10:04,0.775,1610.0,18.31,15.36,19.72,821.550,2081.430,123.216667,21.29,2.4858,363,23734,1.92759,3.80,38677,,,,,,,,,,,,,,,,,,99999,99999,99999,99999,99999,99999,99999,99999,99999,99999,99999,99999
35:32:49,1510884630,2017-11-17T02:10:34,0.774,1610.4,18.33,15.38,19.78,821.510,2081.530,122.949997,21.35,2.4857,363,23735,1.92275,3.80,38672,,,,,,,,,,,,,,,,,,99999,99999,99999,99999,99999,99999,99999,99999,99999,99999,99999,99999
35:33:19,1510884660,2017-11-17T02:11:04,0.771,1610.7,18.37,15.38,19.80,821.530,2081.660,121.433334,20.85,2.4856,363,23736,1.91519,3.80,38667,,,,,,,,,,,,,,,,,,99999,99999,99999,99999,99999,99999,99999,99999,99999,99999,99999,99999
35:33:49,1510884690,2017-11-17T02:11:34,0.770,1611.1,18.39,15.42,19.86,821.530,2081.720,121.683334,21.15,2.4855,363,23734,1.91459,3.80,38662,,,,,,,,,,,,,,,,,,99999,99999,99999,99999,99999,99999,99999,99999,99999,99999,99999,99999
35:34:19,1510884720,2017-11-17T02:12:04,0.776,1611.5,18.41,15.43,19.85,821.490,2081.760,123.800003,20.99,2.4854,363,23734,1.92789,3.80,38657,,,,,,,,,,,,,,,,,,99999,99999,99999,99999,99999,99999,99999,99999,99999,99999,99999,99999
35:34:49,1510884750,2017-11-17T02:12:34,0.775,1611.9,18.44,15.44,19.86,821.520,2081.880,124.183334,20.98,2.4852,363,23735,1.92729,3.80,38652,,,,,,,,,,,,,,,,,,99999,99999,99999,99999,99999,99999,99999,99999,99999,99999,99999,99999
35:35:19,1510884780,2017-11-17T02:13:04,0.773,1612.3,18.47,15.46,19.93,821.590,2081.990,124.383331,21.05,2.4851,363,23736,1.92002,3.80,38646,,,,,,,,,,,,,,,,,,99999,99999,99999,99999,99999,99999,99999,99999,99999,99999,99999,99999
35:35:49,1510884810,2017-11-17T02:13:34,0.774,1612.7,18.47,15.47,19.93,821.510,2081.990,124.599998,20.96,2.4851,363,23734,1.92275,3.80,38641,,,,,,,,,,,,,,,,,,99999,99999,99999,99999,99999,99999,99999,99999,99999,99999,99999,99999
35:36:19,1510884840,2017-11-17T02:14:04,0.773,1613.1,18.48,15.47,19.92,821.470,2082.050,122.199997,20.87,2.4851,363,23736,1.92063,3.80,38636,,,,,,,,,,,,,,,,,,99999,99999,99999,99999,99999,99999,99999,99999,99999,99999,99999,99999
35:36:49,1510884870,2017-11-17T02:14:34,0.775,1613.5,18.50,15.47,19.94,821.520,2082.110,123.533333,20.88,2.4850,363,23738,1.92517,3.80,38631,,,,,,,,,,,,,,,,,,99999,99999,99999,99999,99999,99999,99999,99999,99999,99999,99999,99999
35:37:19,1510884900,2017-11-17T02:15:04,0.776,1613.8,18.51,15.47,19.93,821.550,2082.180,123.233330,20.89,2.4850,363,23735,1.92910,3.80,38626,,,,,,,,,,,,,,,,,,99999,99999,99999,99999,99999,99999,99999,99999,99999,99999,99999,99999
35:37:49,1510884930,2017-11-17T02:15:34,0.774,1614.2,18.51,15.45,19.94,821.440,2082.180,123.750000,20.64,2.4850,363,23736,1.92365,3.80,38621,,,,,,,,,,,,,,,,,,99999,99999,99999,99999,99999,99999,99999,99999,99999,99999,99999,99999
35:38:19,1510884960,2017-11-17T02:16:04,0.775,1614.6,18.53,15.49,20.01,821.550,2082.220,124.800003,20.64,2.4849,363,23737,1.92638,3.80,38616,,,,,,,,,,,,,,,,,,99999,99999,99999,99999,99999,99999,99999,99999,99999,99999,99999,99999
35:38:49,1510884990,2017-11-17T02:16:34,0.772,1615.0,18.54,15.47,19.96,821.570,2082.220,121.816666,20.59,2.4848,363,23737,1.91942,3.80,38610,,,,,,,,,,,,,,,,,,99999,99999,99999,99999,99999,99999,99999,99999,99999,99999,99999,99999
35:39:19,1510885020,2017-11-17T02:17:04,0.772,1615.4,18.56,15.52,19.98,821.540,2082.280,123.233330,20.86,2.4847,363,23739,1.91761,3.80,38605,,,,,,,,,,,,,,,,,,99999,99999,99999,99999,99999,99999,99999,99999,99999,99999,99999,99999
35:39:49,1510885050,2017-11-17T02:17:34,0.776,1615.8,18.57,15.51,20.00,821.540,2082.350,125.849998,20.87,2.4847,363,23738,1.92759,3.79,38600,,,,,,,,,,,,,,,,,,99999,99999,99999,99999,99999,99999,99999,99999,99999,99999,99999,99999
35:40:19,1510885080,2017-11-17T02:18:04,0.775,1616.2,18.56,15.52,20.01,821.540,2082.280,123.099998,20.71,2.4847,363,23740,1.92547,3.80,38595,,,,,,,,,,,,,,,,,,99999,99999,99999,99999,99999,99999,99999,99999,99999,99999,99999,99999
35:40:49,1510885110,2017-11-17T02:18:34,0.775,1616.5,18.58,15.51,20.01,821.560,2082.350,124.283333,20.79,2.4846,363,23740,1.92517,3.80,38590,,,,,,,,,,,,,,,,,,99999,99999,99999,99999,99999,99999,99999,99999,99999,99999,99999,99999
35:41:19,1510885140,2017-11-17T02:19:04,0.772,1616.9,18.58,15.54,20.01,821.610,2082.350,122.633331,20.64,2.4846,363,23739,1.91881,3.79,38585,,,,,,,,,,,,,,,,,,99999,99999,99999,99999,99999,99999,99999,99999,99999,99999,99999,99999
35:41:49,1510885170,2017-11-17T02:19:34,0.775,1617.3,18.60,15.52,20.01,821.560,2082.470,124.900002,20.47,2.4846,363,23740,1.92547,3.80,38580,,,,,,,,,,,,,,,,,,99999,99999,99999,99999,99999,99999,99999,99999,99999,99999,99999,99999
35:42:19,1510885200,2017-11-17T02:20:04,0.773,1617.7,18.60,15.52,20.01,821.610,2082.470,123.933334,20.63,2.4846,363,23739,1.91942,3.79,38574,,,,,,,,,,,,,,,,,,99999,99999,99999,99999,99999,99999,99999,99999,99999,99999,99999,99999
35:42:49,1510885230,2017-11-17T02:20:34,0.772,1618.1,18.61,15.53,20.01,821.530,2082.510,123.633331,20.53,2.4846,363,23739,1.91791,3.79,38569,,,,,,,,,,,,,,,,,,99999,99999,99999,99999,99999,99999,99999,99999,99999,99999,99999,99999
35:43:19,1510885260,2017-11-17T02:21:04,0.776,1618.5,18.62,15.54,20.06,821.580,2082.510,125.566666,20.38,2.4845,363,23739,1.92880,3.79,38564,,,,,,,,,,,,,,,,,,99999,99999,99999,99999,99999,99999,99999,99999,99999,99999,99999,99999
35:43:49,1510885290,2017-11-17T02:21:34,0.777,1618.9,18.63,15.56,20.06,821.600,2082.510,123.916664,20.45,2.4844,363,23739,1.92941,3.79,38559,,,,,,,,,,,,,,,,,,99999,99999,99999,99999,99999,99999,99999,99999,99999,99999,99999,99999
35:44:19,1510885320,2017-11-17T02:22:04,0.775,1619.3,18.64,15.57,20.06,821.650,2082.580,122.733330,20.68,2.4844,363,23742,1.92638,3.79,38554,,,,,,,,,,,,,,,,,,99999,99999,99999,99999,99999,99999,99999,99999,99999,99999,99999,99999
35:44:49,1510885350,2017-11-17T02:22:34,0.771,1619.6,18.66,15.56,20.06,821.650,2082.640,124.266670,20.37,2.4843,363,23741,1.91459,3.79,38549,,,,,,,,,,,,,,,,,,99999,99999,99999,99999,99999,99999,99999,99999,99999,99999,99999,99999
35:45:19,1510885380,2017-11-17T02:23:04,0.772,1620.0,18.67,15.55,20.08,821.640,2082.700,123.550003,20.30,2.4843,363,23739,1.91761,3.79,38544,,,,,,,,,,,,,,,,,,99999,99999,99999,99999,99999,99999,99999,99999,99999,99999,99999,99999
35:45:49,1510885410,2017-11-17T02:23:34,0.776,1620.4,18.67,15.58,20.09,821.620,2082.700,124.666664,20.42,2.4843,363,23742,1.92850,3.79,38538,,,,,,,,,,,,,,,,,,99999,99999,99999,99999,99999,99999,99999,99999,99999,99999,99999,99999
35:46:19,1510885440,2017-11-17T02:24:04,0.775,1620.8,18.69,15.58,20.13,821.530,2082.740,123.483330,20.24,2.4842,363,23741,1.92577,3.79,38533,,,,,,,,,,,,,,,,,,99999,99999,99999,99999,99999,99999,99999,99999,99999,99999,99999,99999
35:46:49,1510885470,2017-11-17T02:24:34,0.772,1621.2,18.71,15.61,20.14,821.560,2082.800,123.483330,20.14,2.4841,363,23742,1.91791,3.79,38528,,,,,,,,,,,,,,,,,,99999,99999,99999,99999,99999,99999,99999,99999,99999,99999,99999,99999
35:47:19,1510885500,2017-11-17T02:25:04,0.773,1621.6,18.72,15.65,20.13,821.470,2082.800,123.250000,20.37,2.4840,363,23741,1.92033,3.79,38523,,,,,,,,,,,,,,,,,,99999,99999,99999,99999,99999,99999,99999,99999,99999,99999,99999,99999
35:47:49,1510885530,2017-11-17T02:25:34,0.775,1622.0,18.74,15.65,20.18,821.550,2082.970,125.816666,20.32,2.4840,363,23741,1.92607,3.79,38518,,,,,,,,,,,,,,,,,,99999,99999,99999,99999,99999,99999,99999,99999,99999,99999,99999,99999
35:48:19,1510885560,2017-11-17T02:26:04,0.778,1622.4,18.76,15.64,20.14,821.410,2083.030,124.250000,20.32,2.4839,363,23744,1.93304,3.79,38513,,,,,,,,,,,,,,,,,,99999,99999,99999,99999,99999,99999,99999,99999,99999,99999,99999,99999
35:48:49,1510885590,2017-11-17T02:26:34,0.773,1622.7,18.78,15.66,20.18,821.570,2083.100,123.066666,20.56,2.4838,363,23743,1.92002,3.79,38508,,,,,,,,,,,,,,,,,,99999,99999,99999,99999,99999,99999,99999,99999,99999,99999,99999,99999
35:49:19,1510885620,2017-11-17T02:27:04,0.775,1623.1,18.80,15.70,20.20,821.450,2083.100,125.900002,20.35,2.4837,363,23741,1.92547,3.79,38502,,,,,,,,,,,,,,,,,,99999,99999,99999,99999,99999,99999,99999,99999,99999,99999,99999,99999
35:49:49,1510885650,2017-11-17T02:27:34,0.774,1623.5,18.83,15.70,20.25,821.470,2083.200,124.266670,20.51,2.4835,363,23744,1.92153,3.79,38497,,,,,,,,,,,,,,,,,,99999,99999,99999,99999,99999,99999,99999,99999,99999,99999,99999,99999
35:50:19,1510885680,2017-11-17T02:28:04,0.772,1623.9,18.85,15.73,20.27,821.500,2083.270,123.183334,19.93,2.4835,363,23745,1.91791,3.79,38492,,,,,,,,,,,,,,,,,,99999,99999,99999,99999,99999,99999,99999,99999,99999,99999,99999,99999
35:50:49,1510885710,2017-11-17T02:28:34,0.778,1624.3,18.87,15.76,20.28,821.470,2083.390,124.000000,20.27,2.4834,363,23745,1.93304,3.79,38487,,,,,,,,,,,,,,,,,,99999,99999,99999,99999,99999,99999,99999,99999,99999,99999,99999,99999
35:51:19,1510885740,2017-11-17T02:29:04,0.774,1624.7,18.92,15.77,20.28,821.530,2083.560,122.533333,20.11,2.4832,363,23746,1.92184,3.79,38482,,,,,,,,,,,,,,,,,,99999,99999,99999,99999,99999,99999,99999,99999,99999,99999,99999,99999
35:51:49,1510885770,2017-11-17T02:29:34,0.777,1625.1,18.93,15.81,20.32,821.500,2083.620,122.800003,20.10,2.4832,363,23747,1.92819,3.79,38477,,,,,,,,,,,,,,,,,,99999,99999,99999,99999,99999,99999,99999,99999,99999,99999,99999,99999
35:52:19,1510885800,2017-11-17T02:30:04,0.774,1625.5,18.96,15.84,20.36,821.530,2083.680,124.616669,20.20,2.4830,363,23745,1.92214,3.79,38471,,,,,,,,,,,,,,,,,,99999,99999,99999,99999,99999,99999,99999,99999,99999,99999,99999,99999
35:52:49,1510885830,2017-11-17T02:30:34,0.776,1625.8,18.99,15.84,20.40,821.460,2083.850,121.716667,20.10,2.4829,363,23749,1.92668,3.79,38466,,,,,,,,,,,,,,,,,,99999,99999,99999,99999,99999,99999,99999,99999,99999,99999,99999,99999
35:53:19,1510885860,2017-11-17T02:31:04,0.775,1626.2,19.02,15.87,20.43,821.480,2083.910,122.849998,20.07,2.4828,363,23750,1.92426,3.79,38461,,,,,,,,,,,,,,,,,,99999,99999,99999,99999,99999,99999,99999,99999,99999,99999,99999,99999
35:53:49,1510885890,2017-11-17T02:31:34,0.778,1626.6,19.05,15.91,20.43,821.400,2083.970,125.816666,20.03,2.4826,363,23752,1.93244,3.79,38456,,,,,,,,,,,,,,,,,,99999,99999,99999,99999,99999,99999,99999,99999,99999,99999,99999,99999
35:54:19,1510885920,2017-11-17T02:32:04,0.778,1627.0,19.07,15.91,20.46,821.440,2084.080,122.616669,20.25,2.4825,363,23750,1.93092,3.79,38451,,,,,,,,,,,,,,,,,,99999,99999,99999,99999,99999,99999,99999,99999,99999,99999,99999,99999
35:54:49,1510885950,2017-11-17T02:32:34,0.775,1627.4,19.09,15.97,20.52,821.410,2084.140,124.716667,20.21,2.4824,363,23751,1.92456,3.79,38446,,,,,,,,,,,,,,,,,,99999,99999,99999,99999,99999,99999,99999,99999,99999,99999,99999,99999
35:55:19,1510885980,2017-11-17T02:33:04,0.779,1627.8,19.10,15.96,20.50,821.460,2084.200,124.816666,20.11,2.4824,363,23753,1.93396,3.79,38440,,,,,,,,,,,,,,,,,,99999,99999,99999,99999,99999,99999,99999,99999,99999,99999,99999,99999
35:55:49,1510886010,2017-11-17T02:33:34,0.778,1628.2,19.12,15.96,20.52,821.350,2084.310,123.983330,20.33,2.4823,363,23753,1.93153,3.79,38435,,,,,,,,,,,,,,,,,,99999,99999,99999,99999,99999,99999,99999,99999,99999,99999,99999,99999
35:56:19,1510886040,2017-11-17T02:34:04,0.776,1628.6,19.14,15.99,20.58,821.270,2084.370,123.599998,19.99,2.4823,363,23753,1.92577,3.79,38430,,,,,,,,,,,,,,,,,,99999,99999,99999,99999,99999,99999,99999,99999,99999,99999,99999,99999
35:56:49,1510886070,2017-11-17T02:34:34,0.774,1629.0,19.15,16.00,20.56,821.320,2084.370,124.033333,20.07,2.4822,363,23752,1.92214,3.79,38425,,,,,,,,,,,,,,,,,,99999,99999,99999,99999,99999,99999,99999,99999,99999,99999,99999,99999
35:57:19,1510886100,2017-11-17T02:35:04,0.778,1629.3,19.17,16.02,20.58,821.290,2084.430,127.116669,19.76,2.4821,363,23753,1.93213,3.79,38420,,,,,,,,,,,,,,,,,,99999,99999,99999,99999,99999,99999,99999,99999,99999,99999,99999,99999
35:57:49,1510886130,2017-11-17T02:35:34,0.776,1629.7,19.19,16.02,20.56,821.220,2084.470,125.266670,20.10,2.4819,363,23755,1.92607,3.79,38415,,,,,,,,,,,,,,,,,,99999,99999,99999,99999,99999,99999,99999,99999,99999,99999,99999,99999
35:58:19,1510886160,2017-11-17T02:36:04,0.779,1630.1,19.20,16.02,20.62,821.190,2084.540,126.000000,20.14,2.4819,363,23754,1.93396,3.79,38409,,,,,,,,,,,,,,,,,,99999,99999,99999,99999,99999,99999,99999,99999,99999,99999,99999,99999
35:58:49,1510886190,2017-11-17T02:36:34,0.775,1630.5,19.23,16.06,20.64,821.240,2084.600,123.733330,19.99,2.4818,363,23755,1.92456,3.79,38404,,,,,,,,,,,,,,,,,,99999,99999,99999,99999,99999,99999,99999,99999,99999,99999,99999,99999
35:59:19,1510886220,2017-11-17T02:37:04,0.778,1630.9,19.23,16.07,20.59,821.190,2084.600,124.733330,19.99,2.4818,363,23757,1.93062,3.79,38399,,,,,,,,,,,,,,,,,,99999,99999,99999,99999,99999,99999,99999,99999,99999,99999,99999,99999
35:59:49,1510886250,2017-11-17T02:37:34,0.780,1631.3,19.25,16.07,20.62,821.160,2084.670,124.849998,19.98,2.4817,363,23752,1.93608,3.79,38394,,,,,,,,,,,,,,,,,,99999,99999,99999,99999,99999,99999,99999,99999,99999,99999,99999,99999
36:00:19,1510886280,2017-11-17T02:38:04,0.780,1631.7,19.26,16.09,20.68,821.180,2084.770,125.400002,20.00,2.4817,363,23757,1.93669,3.79,38389,,,,,,,,,,,,,,,,,,99999,99999,99999,99999,99999,99999,99999,99999,99999,99999,99999,99999
36:00:49,1510886310,2017-11-17T02:38:34,0.777,1632.1,19.27,16.07,20.67,821.180,2084.830,123.416664,19.55,2.4817,363,23755,1.92789,3.79,38384,,,,,,,,,,,,,,,,,,99999,99999,99999,99999,99999,99999,99999,99999,99999,99999,99999,99999
36:01:19,1510886340,2017-11-17T02:39:04,0.778,1632.4,19.28,16.13,20.68,821.150,2084.830,126.699997,19.89,2.4816,363,23756,1.92971,3.79,38378,,,,,,,,,,,,,,,,,,99999,99999,99999,99999,99999,99999,99999,99999,99999,99999,99999,99999
36:01:49,1510886370,2017-11-17T02:39:34,0.779,1632.8,19.31,16.12,20.70,821.090,2084.950,125.449997,19.64,2.4815,363,23756,1.93213,3.79,38373,,,,,,,,,,,,,,,,,,99999,99999,99999,99999,99999,99999,99999,99999,99999,99999,99999,99999
36:02:19,1510886400,2017-11-17T02:40:04,0.776,1633.2,19.33,16.14,20.72,821.090,2085.000,123.783333,19.84,2.4814,363,23755,1.92577,3.79,38368,,,,,,,,,,,,,,,,,,99999,99999,99999,99999,99999,99999,99999,99999,99999,99999,99999,99999
36:02:49,1510886430,2017-11-17T02:40:34,0.780,1633.6,19.34,16.19,20.74,821.080,2085.000,124.849998,19.93,2.4813,363,23758,1.93547,3.79,38363,,,,,,,,,,,,,,,,,,99999,99999,99999,99999,99999,99999,99999,99999,99999,99999,99999,99999
36:03:19,1510886460,2017-11-17T02:41:04,0.778,1634.0,19.37,16.21,20.72,821.070,2085.120,125.816666,19.80,2.4812,363,23757,1.93123,3.79,38358,,,,,,,,,,,,,,,,,,99999,99999,99999,99999,99999,99999,99999,99999,99999,99999,99999,99999
36:03:49,1510886490,2017-11-17T02:41:34,0.778,1634.4,19.40,16.22,20.76,821.120,2085.250,124.533333,19.72,2.4811,363,23760,1.93092,3.79,38352,,,,,,,,,,,,,,,,,,99999,99999,99999,99999,99999,99999,99999,99999,99999,99999,99999,99999
36:04:19,1510886520,2017-11-17T02:42:04,0.777,1634.8,19.41,16.25,20.78,821.040,2085.290,124.300003,19.57,2.4811,363,23760,1.92789,3.79,38347,,,,,,,,,,,,,,,,,,99999,99999,99999,99999,99999,99999,99999,99999,99999,99999,99999,99999
36:04:49,1510886550,2017-11-17T02:42:34,0.780,1635.2,19.43,16.26,20.80,821.010,2085.350,127.266670,19.63,2.4810,363,23760,1.93608,3.79,38342,,,,,,,,,,,,,,,,,,99999,99999,99999,99999,99999,99999,99999,99999,99999,99999,99999,99999
36:05:19,1510886580,2017-11-17T02:43:04,0.779,1635.6,19.45,16.31,20.85,820.950,2085.420,125.800003,19.68,2.4809,363,23760,1.93304,3.79,38337,,,,,,,,,,,,,,,,,,99999,99999,99999,99999,99999,99999,99999,99999,99999,99999,99999,99999
36:05:49,1510886610,2017-11-17T02:43:34,0.777,1635.9,19.49,16.30,20.86,821.020,2085.520,125.733330,19.52,2.4807,363,23762,1.92819,3.79,38332,,,,,,,,,,,,,,,,,,99999,99999,99999,99999,99999,99999,99999,99999,99999,99999,99999,99999
36:06:19,1510886640,2017-11-17T02:44:04,0.777,1636.3,19.51,16.32,20.90,820.990,2085.580,124.766670,19.63,2.4806,363,23761,1.92699,3.79,38327,,,,,,,,,,,,,,,,,,99999,99999,99999,99999,99999,99999,99999,99999,99999,99999,99999,99999
36:06:49,1510886670,2017-11-17T02:44:34,0.776,1636.7,19.52,16.34,20.91,821.070,2085.710,124.650002,19.88,2.4806,363,23764,1.92607,3.79,38321,,,,,,,,,,,,,,,,,,99999,99999,99999,99999,99999,99999,99999,99999,99999,99999,99999,99999
36:07:19,1510886700,2017-11-17T02:45:04,0.782,1637.1,19.55,16.38,20.94,821.030,2085.750,126.800003,19.69,2.4804,363,23765,1.93882,3.79,38316,,,,,,,,,,,,,,,,,,99999,99999,99999,99999,99999,99999,99999,99999,99999,99999,99999,99999
36:07:49,1510886730,2017-11-17T02:45:34,0.781,1637.5,19.57,16.37,20.96,821.030,2085.810,126.500000,19.58,2.4803,363,23763,1.93699,3.79,38311,,,,,,,,,,,,,,,,,,99999,99999,99999,99999,99999,99999,99999,99999,99999,99999,99999,99999
36:08:19,1510886760,2017-11-17T02:46:04,0.781,1637.9,19.59,16.36,20.94,821.050,2085.870,126.349998,19.73,2.4802,363,23764,1.93790,3.79,38306,,,,,,,,,,,,,,,,,,99999,99999,99999,99999,99999,99999,99999,99999,99999,99999,99999,99999
36:08:49,1510886790,2017-11-17T02:46:34,0.781,1638.3,19.59,16.40,21.00,821.100,2085.870,125.266670,19.60,2.4802,363,23765,1.93730,3.79,38301,,,,,,,,,,,,,,,,,,99999,99999,99999,99999,99999,99999,99999,99999,99999,99999,99999,99999
36:09:19,1510886820,2017-11-17T02:47:04,0.778,1638.7,19.60,16.40,21.00,820.990,2085.940,124.183334,19.67,2.4802,363,23764,1.92850,3.79,38295,,,,,,,,,,,,,,,,,,99999,99999,99999,99999,99999,99999,99999,99999,99999,99999,99999,99999
36:09:49,1510886850,2017-11-17T02:47:34,0.780,1639.1,19.60,16.39,21.01,821.100,2085.940,124.366669,19.56,2.4802,363,23768,1.93396,3.79,38290,,,,,,,,,,,,,,,,,,99999,99999,99999,99999,99999,99999,99999,99999,99999,99999,99999,99999
36:10:19,1510886880,2017-11-17T02:48:04,0.782,1639.5,19.61,16.40,21.00,821.050,2085.940,127.116669,19.54,2.4801,363,23764,1.93851,3.79,38285,,,,,,,,,,,,,,,,,,99999,99999,99999,99999,99999,99999,99999,99999,99999,99999,99999,99999
36:10:49,1510886910,2017-11-17T02:48:34,0.782,1639.8,19.62,16.41,21.00,821.140,2086.000,126.583336,19.55,2.4801,363,23765,1.93912,3.79,38280,,,,,,,,,,,,,,,,,,99999,99999,99999,99999,99999,99999,99999,99999,99999,99999,99999,99999
36:11:19,1510886940,2017-11-17T02:49:04,0.781,1640.2,19.60,16.41,21.00,820.990,2085.940,127.000000,19.61,2.4802,363,23766,1.93730,3.79,38275,,,,,,,,,,,,,,,,,,99999,99999,99999,99999,99999,99999,99999,99999,99999,99999,99999,99999
36:11:49,1510886970,2017-11-17T02:49:34,0.782,1640.6,19.60,16.40,21.00,821.050,2085.940,125.699997,19.62,2.4802,363,23766,1.93851,3.79,38269,,,,,,,,,,,,,,,,,,99999,99999,99999,99999,99999,99999,99999,99999,99999,99999,99999,99999
36:12:19,1510887000,2017-11-17T02:50:04,0.777,1641.0,19.60,16.41,21.01,821.070,2085.940,124.366669,19.43,2.4802,363,23765,1.92759,3.79,38264,,,,,,,,,,,,,,,,,,99999,99999,99999,99999,99999,99999,99999,99999,99999,99999,99999,99999
36:12:49,1510887030,2017-11-17T02:50:34,0.780,1641.4,19.60,16.40,21.01,821.050,2085.940,126.133331,19.72,2.4802,363,23764,1.93365,3.79,38259,,,,,,,,,,,,,,,,,,99999,99999,99999,99999,99999,99999,99999,99999,99999,99999,99999,99999
36:13:19,1510887060,2017-11-17T02:51:04,0.777,1641.8,19.60,16.40,21.00,821.050,2085.940,123.666664,19.74,2.4802,363,23765,1.92729,3.79,38254,,,,,,,,,,,,,,,,,,99999,99999,99999,99999,99999,99999,99999,99999,99999,99999,99999,99999
36:13:49,1510887090,2017-11-17T02:51:34,0.777,1642.2,19.58,16.40,21.00,821.020,2085.870,125.066666,19.91,2.4803,363,23764,1.92819,3.79,38249,,,,,,,,,,,,,,,,,,99999,99999,99999,99999,99999,99999,99999,99999,99999,99999,99999,99999
36:14:19,1510887120,2017-11-17T02:52:04,0.778,1642.6,19.56,16.38,21.00,821.000,2085.810,124.000000,19.50,2.4804,363,23766,1.93092,3.79,38243,,,,,,,,,,,,,,,,,,99999,99999,99999,99999,99999,99999,99999,99999,99999,99999,99999,99999
36:14:49,1510887150,2017-11-17T02:52:34,0.777,1643.0,19.56,16.37,21.01,820.920,2085.810,125.699997,19.78,2.4804,363,23767,1.92668,3.79,38238,,,,,,,,,,,,,,,,,,99999,99999,99999,99999,99999,99999,99999,99999,99999,99999,99999,99999
36:15:19,1510887180,2017-11-17T02:53:04,0.779,1643.4,19.57,16.37,20.98,820.890,2085.810,124.050003,19.64,2.4803,363,23766,1.93123,3.79,38233,,,,,,,,,,,,,,,,,,99999,99999,99999,99999,99999,99999,99999,99999,99999,99999,99999,99999
36:15:49,1510887210,2017-11-17T02:53:34,0.781,1643.7,19.56,16.38,20.98,820.950,2085.810,126.533333,19.68,2.4804,363,23764,1.93760,3.79,38228,,,,,,,,,,,,,,,,,,99999,99999,99999,99999,99999,99999,99999,99999,99999,99999,99999,99999
36:16:19,1510887240,2017-11-17T02:54:04,0.780,1644.1,19.55,16.37,20.96,821.000,2085.750,124.550003,19.44,2.4804,363,23766,1.93365,3.79,38223,,,,,,,,,,,,,,,,,,99999,99999,99999,99999,99999,99999,99999,99999,99999,99999,99999,99999
36:16:49,1510887270,2017-11-17T02:54:34,0.780,1644.5,19.54,16.37,20.96,820.980,2085.750,125.033333,19.59,2.4805,363,23765,1.93365,3.79,38217,,,,,,,,,,,,,,,,,,99999,99999,99999,99999,99999,99999,99999,99999,99999,99999,99999,99999
36:17:19,1510887300,2017-11-17T02:55:04,0.781,1644.9,19.54,16.36,20.94,821.030,2085.750,126.599998,19.60,2.4805,363,23764,1.93669,3.79,38212,,,,,,,,,,,,,,,,,,99999,99999,99999,99999,99999,99999,99999,99999,99999,99999,99999,99999
36:17:49,1510887330,2017-11-17T02:55:34,0.779,1645.3,19.54,16.36,20.96,820.980,2085.750,123.666664,19.65,2.4805,363,23762,1.93244,3.79,38207,,,,,,,,,,,,,,,,,,99999,99999,99999,99999,99999,99999,99999,99999,99999,99999,99999,99999
36:18:19,1510887360,2017-11-17T02:56:04,0.781,1645.7,19.53,16.35,20.93,820.980,2085.710,125.866669,19.83,2.4805,363,23763,1.93608,3.79,38202,,,,,,,,,,,,,,,,,,99999,99999,99999,99999,99999,99999,99999,99999,99999,99999,99999,99999
36:18:49,1510887390,2017-11-17T02:56:34,0.776,1646.1,19.52,16.35,20.96,820.990,2085.710,124.849998,19.79,2.4806,363,23763,1.92607,3.79,38197,,,,,,,,,,,,,,,,,,99999,99999,99999,99999,99999,99999,99999,99999,99999,99999,99999,99999
36:19:19,1510887420,2017-11-17T02:57:04,0.777,1646.5,19.50,16.35,20.94,820.990,2085.580,123.966667,19.97,2.4806,363,23763,1.92819,3.79,38191,,,,,,,,,,,,,,,,,,99999,99999,99999,99999,99999,99999,99999,99999,99999,99999,99999,99999
36:19:49,1510887450,2017-11-17T02:57:34,0.780,1646.9,19.50,16.32,20.91,820.990,2085.580,125.816666,19.99,2.4806,363,23765,1.93426,3.79,38186,,,,,,,,,,,,,,,,,,99999,99999,99999,99999,99999,99999,99999,99999,99999,99999,99999,99999
36:20:19,1510887480,2017-11-17T02:58:04,0.778,1647.2,19.49,16.32,20.96,820.990,2085.520,124.216667,19.79,2.4806,363,23760,1.92971,3.79,38181,,,,,,,,,,,,,,,,,,99999,99999,99999,99999,99999,99999,99999,99999,99999,99999,99999,99999
36:20:49,1510887510,2017-11-17T02:58:34,0.780,1647.6,19.47,16.29,20.90,820.900,2085.420,126.150002,19.87,2.4807,363,23762,1.93517,3.79,38176,,,,,,,,,,,,,,,,,,99999,99999,99999,99999,99999,99999,99999,99999,99999,99999,99999,99999
36:21:19,1510887540,2017-11-17T02:59:04,0.780,1648.0,19.45,16.31,20.88,820.840,2085.420,126.633331,19.90,2.4809,363,23763,1.93426,3.79,38171,,,,,,,,,,,,,,,,,,99999,99999,99999,99999,99999,99999,99999,99999,99999,99999,99999,99999
36:21:49,1510887570,2017-11-17T02:59:34,0.779,1648.4,19.43,16.28,20.88,820.980,2085.350,124.766670,20.28,2.4809,363,23762,1.93304,3.79,38165,,,,,,,,,,,,,,,,,,99999,99999,99999,99999,99999,99999,99999,99999,99999,99999,99999,99999
36:22:19,1510887600,2017-11-17T03:00:04,0.778,1648.8,19.40,16.29,20.86,820.930,2085.250,125.783333,20.87,2.4810,363,23762,1.93123,3.79,38160,,,,,,,,,,,,,,,,,,99999,99999,99999,99999,99999,99999,99999,99999,99999,99999,99999,99999
36:22:49,1510887630,2017-11-17T03:00:34,0.778,1649.2,19.37,16.24,20.83,820.860,2085.120,126.583336,20.55,2.4811,363,23762,1.93001,3.79,38155,,,,,,,,,,,,,,,,,,99999,99999,99999,99999,99999,99999,99999,99999,99999,99999,99999,99999
36:23:19,1510887660,2017-11-17T03:01:04,0.780,1649.6,19.35,16.21,20.82,820.940,2085.060,126.650002,20.14,2.4813,363,23760,1.93608,3.79,38150,,,,,,,,,,,,,,,,,,99999,99999,99999,99999,99999,99999,99999,99999,99999,99999,99999,99999
36:23:49,1510887690,2017-11-17T03:01:34,0.776,1650.0,19.32,16.19,20.75,820.900,2084.950,124.016670,20.60,2.4814,363,23757,1.92638,3.79,38145,,,,,,,,,,,,,,,,,,99999,99999,99999,99999,99999,99999,99999,99999,99999,99999,99999,99999
36:24:19,1510887720,2017-11-17T03:02:04,0.778,1650.4,19.29,16.15,20.76,820.940,2084.890,124.216667,20.51,2.4815,363,23759,1.93183,3.79,38140,,,,,,,,,,,,,,,,,,99999,99999,99999,99999,99999,99999,99999,99999,99999,99999,99999,99999
36:24:49,1510887750,2017-11-17T03:02:34,0.780,1650.8,19.25,16.14,20.68,820.920,2084.670,126.349998,20.08,2.4817,363,23757,1.93517,3.79,38134,,,,,,,,,,,,,,,,,,99999,99999,99999,99999,99999,99999,99999,99999,99999,99999,99999,99999
36:25:19,1510887780,2017-11-17T03:03:04,0.780,1651.1,19.21,16.10,20.67,821.010,2084.540,126.033333,20.07,2.4819,363,23758,1.93699,3.79,38129,,,,,,,,,,,,,,,,,,99999,99999,99999,99999,99999,99999,99999,99999,99999,99999,99999,99999
36:25:49,1510887810,2017-11-17T03:03:34,0.779,1651.5,19.19,16.07,20.66,821.010,2084.470,126.233330,20.36,2.4819,363,23756,1.93365,3.79,38124,,,,,,,,,,,,,,,,,,99999,99999,99999,99999,99999,99999,99999,99999,99999,99999,99999,99999
36:26:19,1510887840,2017-11-17T03:04:04,0.779,1651.9,19.15,16.05,20.60,820.940,2084.370,124.550003,20.40,2.4821,363,23753,1.93244,3.79,38119,,,,,,,,,,,,,,,,,,99999,99999,99999,99999,99999,99999,99999,99999,99999,99999,99999,99999
36:26:49,1510887870,2017-11-17T03:04:34,0.778,1652.3,19.13,16.05,20.59,820.980,2084.310,125.349998,20.40,2.4822,363,23753,1.93153,3.79,38114,,,,,,,,,,,,,,,,,,99999,99999,99999,99999,99999,99999,99999,99999,99999,99999,99999,99999
36:27:19,1510887900,2017-11-17T03:05:04,0.774,1652.7,19.10,16.02,20.58,820.930,2084.200,123.699997,20.32,2.4824,363,23753,1.92093,3.79,38108,,,,,,,,,,,,,,,,,,99999,99999,99999,99999,99999,99999,99999,99999,99999,99999,99999,99999
36:27:49,1510887930,2017-11-17T03:05:34,0.776,1653.1,19.08,15.97,20.54,820.930,2084.140,123.116669,20.31,2.4825,363,23752,1.92759,3.79,38103,,,,,,,,,,,,,,,,,,99999,99999,99999,99999,99999,99999,99999,99999,99999,99999,99999,99999
36:28:19,1510887960,2017-11-17T03:06:04,0.779,1653.5,19.06,15.98,20.52,820.910,2084.020,126.733330,20.61,2.4825,363,23752,1.93365,3.79,38098,,,,,,,,,,,,,,,,,,99999,99999,99999,99999,99999,99999,99999,99999,99999,99999,99999,99999
36:28:49,1510887990,2017-11-17T03:06:34,0.776,1653.9,19.04,15.95,20.51,820.920,2083.970,124.699997,20.52,2.4826,363,23752,1.92699,3.79,38093,,,,,,,,,,,,,,,,,,99999,99999,99999,99999,99999,99999,99999,99999,99999,99999,99999,99999
36:29:19,1510888020,2017-11-17T03:07:04,0.774,1654.2,19.01,15.96,20.46,820.920,2083.910,123.750000,21.05,2.4827,363,23750,1.92093,3.79,38088,,,,,,,,,,,,,,,,,,99999,99999,99999,99999,99999,99999,99999,99999,99999,99999,99999,99999
36:29:49,1510888050,2017-11-17T03:07:34,0.779,1654.6,18.97,15.90,20.44,820.910,2083.680,125.300003,21.05,2.4828,363,23750,1.93426,3.79,38083,,,,,,,,,,,,,,,,,,99999,99999,99999,99999,99999,99999,99999,99999,99999,99999,99999,99999
36:30:19,1510888080,2017-11-17T03:08:04,0.777,1655.0,18.94,15.86,20.42,820.860,2083.620,124.116669,21.14,2.4830,363,23751,1.93032,3.79,38077,,,,,,,,,,,,,,,,,,99999,99999,99999,99999,99999,99999,99999,99999,99999,99999,99999,99999
36:30:49,1510888110,2017-11-17T03:08:34,0.777,1655.4,18.90,15.84,20.40,820.870,2083.500,124.716667,20.93,2.4832,363,23750,1.92941,3.79,38072,,,,,,,,,,,,,,,,,,99999,99999,99999,99999,99999,99999,99999,99999,99999,99999,99999,99999
36:31:19,1510888140,2017-11-17T03:09:04,0.778,1655.8,18.85,15.80,20.32,820.800,2083.270,124.983330,20.69,2.4834,363,23750,1.93213,3.79,38067,,,,,,,,,,,,,,,,,,99999,99999,99999,99999,99999,99999,99999,99999,99999,99999,99999,99999
36:31:49,1510888170,2017-11-17T03:09:34,0.777,1656.2,18.80,15.76,20.30,820.840,2083.100,125.183334,21.34,2.4836,363,23747,1.92880,3.79,38062,,,,,,,,,,,,,,,,,,99999,99999,99999,99999,99999,99999,99999,99999,99999,99999,99999,99999
36:32:19,1510888200,2017-11-17T03:10:04,0.777,1656.6,18.75,15.71,20.28,820.770,2082.970,125.366669,21.36,2.4838,363,23744,1.92910,3.79,38057,,,,,,,,,,,,,,,,,,99999,99999,99999,99999,99999,99999,99999,99999,99999,99999,99999,99999
36:32:49,1510888230,2017-11-17T03:10:34,0.772,1657.0,18.70,15.66,20.18,820.730,2082.800,122.716667,21.47,2.4841,363,23743,1.91670,3.79,38052,,,,,,,,,,,,,,,,,,99999,99999,99999,99999,99999,99999,99999,99999,99999,99999,99999,99999
36:33:19,1510888260,2017-11-17T03:11:04,0.776,1657.3,18.64,15.63,20.16,820.770,2082.580,125.033333,21.48,2.4843,363,23741,1.92880,3.78,38046,,,,,,,,,,,,,,,,,,99999,99999,99999,99999,99999,99999,99999,99999,99999,99999,99999,99999
36:33:49,1510888290,2017-11-17T03:11:34,0.774,1657.7,18.60,15.59,20.10,820.760,2082.470,126.283333,21.19,2.4845,363,23740,1.92275,3.79,38041,,,,,,,,,,,,,,,,,,99999,99999,99999,99999,99999,99999,99999,99999,99999,99999,99999,99999
36:34:19,1510888320,2017-11-17T03:12:04,0.772,1658.1,18.53,15.53,20.04,820.720,2082.220,122.800003,21.81,2.4848,363,23739,1.91881,3.78,38036,,,,,,,,,,,,,,,,,,99999,99999,99999,99999,99999,99999,99999,99999,99999,99999,99999,99999
36:34:49,1510888350,2017-11-17T03:12:34,0.773,1658.5,18.46,15.49,19.98,820.660,2081.880,124.116669,21.62,2.4850,363,23737,1.92214,3.78,38031,,,,,,,,,,,,,,,,,,99999,99999,99999,99999,99999,99999,99999,99999,99999,99999,99999,99999
36:35:19,1510888380,2017-11-17T03:13:04,0.771,1658.9,18.41,15.44,19.93,820.750,2081.760,121.833336,21.94,2.4853,363,23733,1.91610,3.78,38026,,,,,,,,,,,,,,,,,,99999,99999,99999,99999,99999,99999,99999,99999,99999,99999,99999,99999
36:35:49,1510888410,2017-11-17T03:13:34,0.773,1659.3,18.35,15.37,19.86,820.710,2081.600,124.400002,21.92,2.4856,363,23734,1.92153,3.78,38021,,,,,,,,,,,,,,,,,,99999,99999,99999,99999,99999,99999,99999,99999,99999,99999,99999,99999
36:36:19,1510888440,2017-11-17T03:14:04,0.774,1659.7,18.28,15.31,19.80,820.730,2081.300,121.650002,22.04,2.4858,363,23733,1.92395,3.78,38015,,,,,,,,,,,,,,,,,,99999,99999,99999,99999,99999,99999,99999,99999,99999,99999,99999,99999
36:36:49,1510888470,2017-11-17T03:14:34,0.770,1660.1,18.22,15.27,19.77,820.740,2081.130,121.833336,21.84,2.4862,363,23732,1.91368,3.78,38010,,,,,,,,,,,,,,,,,,99999,99999,99999,99999,99999,99999,99999,99999,99999,99999,99999,99999
36:37:19,1510888500,2017-11-17T03:15:04,0.769,1660.4,18.15,15.22,19.70,820.680,2080.910,122.599998,21.87,2.4865,363,23729,1.91308,3.78,38005,,,,,,,,,,,,,,,,,,99999,99999,99999,99999,99999,99999,99999,99999,99999,99999,99999,99999
36:37:49,1510888530,2017-11-17T03:15:34,0.770,1660.8,18.09,15.15,19.64,820.750,2080.680,121.583336,21.87,2.4868,363,23728,1.91489,3.78,38000,,,,,,,,,,,,,,,,,,99999,99999,99999,99999,99999,99999,99999,99999,99999,99999,99999,99999
36:38:19,1510888560,2017-11-17T03:16:04,0.770,1661.2,18.03,15.09,19.56,820.780,2080.450,121.900002,22.03,2.4870,363,23729,1.91579,3.78,37995,,,,,,,,,,,,,,,,,,99999,99999,99999,99999,99999,99999,99999,99999,99999,99999,99999,99999
36:38:49,1510888590,2017-11-17T03:16:34,0.771,1661.6,17.98,15.06,19.48,820.830,2080.320,122.150002,22.08,2.4873,363,23727,1.91791,3.78,37990,,,,,,,,,,,,,,,,,,99999,99999,99999,99999,99999,99999,99999,99999,99999,99999,99999,99999
36:39:19,1510888620,2017-11-17T03:17:04,0.769,1662.0,17.92,15.01,19.44,820.840,2080.030,122.116669,22.11,2.4874,363,23724,1.91368,3.78,37985,,,,,,,,,,,,,,,,,,99999,99999,99999,99999,99999,99999,99999,99999,99999,99999,99999,99999
36:39:49,1510888650,2017-11-17T03:17:34,0.769,1662.4,17.88,14.93,19.40,820.880,2079.920,121.150002,22.45,2.4876,363,23725,1.91308,3.78,37979,,,,,,,,,,,,,,,,,,99999,99999,99999,99999,99999,99999,99999,99999,99999,99999,99999,99999
36:40:19,1510888680,2017-11-17T03:18:04,0.774,1662.8,17.80,14.89,19.32,820.870,2079.690,122.416664,22.47,2.4880,363,23721,1.92517,3.78,37974,,,,,,,,,,,,,,,,,,99999,99999,99999,99999,99999,99999,99999,99999,99999,99999,99999,99999
36:40:49,1510888710,2017-11-17T03:18:34,0.771,1663.1,17.74,14.87,19.24,820.810,2079.460,121.283333,22.69,2.4883,363,23720,1.91730,3.78,37969,,,,,,,,,,,,,,,,,,99999,99999,99999,99999,99999,99999,99999,99999,99999,99999,99999,99999
36:41:19,1510888740,2017-11-17T03:19:04,0.772,1663.5,17.69,14.83,19.24,820.840,2079.300,122.983330,22.62,2.4885,363,23719,1.92184,3.78,37964,,,,,,,,,,,,,,,,,,99999,99999,99999,99999,99999,99999,99999,99999,99999,99999,99999,99999
36:41:49,1510888770,2017-11-17T03:19:34,0.766,1663.9,17.64,14.77,19.19,820.830,2079.110,121.366669,22.74,2.4887,363,23717,1.90735,3.78,37959,,,,,,,,,,,,,,,,,,99999,99999,99999,99999,99999,99999,99999,99999,99999,99999,99999,99999
36:42:19,1510888800,2017-11-17T03:20:04,0.771,1664.3,17.59,14.71,19.10,820.870,2078.940,122.133331,23.06,2.4889,363,23714,1.91972,3.78,37954,,,,,,,,,,,,,,,,,,99999,99999,99999,99999,99999,99999,99999,99999,99999,99999,99999,99999
36:42:49,1510888830,2017-11-17T03:20:34,0.767,1664.7,17.53,14.67,19.06,820.860,2078.710,120.000000,23.44,2.4891,363,23714,1.90916,3.78,37949,,,,,,,,,,,,,,,,,,99999,99999,99999,99999,99999,99999,99999,99999,99999,99999,99999,99999
36:43:19,1510888860,2017-11-17T03:21:04,0.771,1665.1,17.46,14.60,18.98,820.800,2078.490,121.683334,23.42,2.4895,363,23714,1.91942,3.78,37944,,,,,,,,,,,,,,,,,,99999,99999,99999,99999,99999,99999,99999,99999,99999,99999,99999,99999
36:43:49,1510888890,2017-11-17T03:21:34,0.765,1665.4,17.41,14.54,18.94,820.830,2078.360,120.916664,23.54,2.4897,363,23711,1.90585,3.78,37939,,,,,,,,,,,,,,,,,,99999,99999,99999,99999,99999,99999,99999,99999,99999,99999,99999,99999
36:44:19,1510888920,2017-11-17T03:22:04,0.765,1665.8,17.35,14.51,18.90,820.850,2078.090,120.583336,23.73,2.4899,363,23709,1.90555,3.78,37933,,,,,,,,,,,,,,,,,,99999,99999,99999,99999,99999,99999,99999,99999,99999,99999,99999,99999
36:44:49,1510888950,2017-11-17T03:22:34,0.765,1666.2,17.29,14.46,18.83,820.890,2077.900,120.116669,23.52,2.4902,363,23704,1.90524,3.78,37928,,,,,,,,,,,,,,,,,,99999,99999,99999,99999,99999,99999,99999,99999,99999,99999,99999,99999
36:45:19,1510888980,2017-11-17T03:23:04,0.768,1666.6,17.23,14.37,18.77,820.880,2077.670,121.099998,23.62,2.4905,363,23705,1.91338,3.78,37923,,,,,,,,,,,,,,,,,,99999,99999,99999,99999,99999,99999,99999,99999,99999,99999,99999,99999
36:45:49,1510889010,2017-11-17T03:23:34,0.770,1667.0,17.15,14.33,18.69,820.850,2077.440,121.183334,23.69,2.4909,363,23704,1.91881,3.78,37918,,,,,,,,,,,,,,,,,,99999,99999,99999,99999,99999,99999,99999,99999,99999,99999,99999,99999
36:46:19,1510889040,2017-11-17T03:24:04,0.769,1667.4,17.09,14.26,18.63,820.940,2077.210,120.883331,23.74,2.4911,363,23701,1.91670,3.78,37913,,,,,,,,,,,,,,,,,,99999,99999,99999,99999,99999,99999,99999,99999,99999,99999,99999,99999
36:46:49,1510889070,2017-11-17T03:24:34,0.770,1667.7,17.02,14.24,18.55,820.960,2076.980,121.033333,23.86,2.4914,363,23698,1.91730,3.78,37908,,,,,,,,,,,,,,,,,,99999,99999,99999,99999,99999,99999,99999,99999,99999,99999,99999,99999
36:47:19,1510889100,2017-11-17T03:25:04,0.769,1668.1,16.96,14.15,18.50,821.000,2076.710,121.933334,24.15,2.4916,363,23700,1.91549,3.78,37903,,,,,,,,,,,,,,,,,,99999,99999,99999,99999,99999,99999,99999,99999,99999,99999,99999,99999
36:47:49,1510889130,2017-11-17T03:25:34,0.769,1668.5,16.91,14.11,18.50,820.980,2076.580,121.866669,23.92,2.4919,363,23696,1.91519,3.78,37898,,,,,,,,,,,,,,,,,,99999,99999,99999,99999,99999,99999,99999,99999,99999,99999,99999,99999
36:48:19,1510889160,2017-11-17T03:26:04,0.762,1668.9,16.84,14.06,18.38,821.030,2076.290,120.066666,23.73,2.4922,363,23694,1.89893,3.78,37893,,,,,,,,,,,,,,,,,,99999,99999,99999,99999,99999,99999,99999,99999,99999,99999,99999,99999
36:48:49,1510889190,2017-11-17T03:26:34,0.764,1669.3,16.79,13.99,18.33,820.930,2076.190,121.400002,23.82,2.4925,363,23693,1.90344,3.78,37888,,,,,,,,,,,,,,,,,,99999,99999,99999,99999,99999,99999,99999,99999,99999,99999,99999,99999
36:49:19,1510889220,2017-11-17T03:27:04,0.763,1669.7,16.73,13.96,18.28,820.970,2075.960,119.550003,24.02,2.4927,363,23691,1.90133,3.78,37883,,,,,,,,,,,,,,,,,,99999,99999,99999,99999,99999,99999,99999,99999,99999,99999,99999,99999
36:49:49,1510889250,2017-11-17T03:27:34,0.764,1670.0,16.68,13.92,18.20,820.960,2075.790,121.233330,23.83,2.4930,363,23689,1.90585,3.78,37877,,,,,,,,,,,,,,,,,,99999,99999,99999,99999,99999,99999,99999,99999,99999,99999,99999,99999
36:50:19,1510889280,2017-11-17T03:28:04,0.762,1670.4,16.64,13.87,18.16,820.970,2075.670,119.116669,24.19,2.4932,363,23690,1.89953,3.78,37872,,,,,,,,,,,,,,,,,,99999,99999,99999,99999,99999,99999,99999,99999,99999,99999,99999,99999
36:50:49,1510889310,2017-11-17T03:28:34,0.762,1670.8,16.60,13.81,18.11,820.950,2075.500,119.066666,23.65,2.4934,363,23687,1.89983,3.78,37867,,,,,,,,,,,,,,,,,,99999,99999,99999,99999,99999,99999,99999,99999,99999,99999,99999,99999
36:51:19,1510889340,2017-11-17T03:29:04,0.767,1671.2,16.55,13.76,18.13,820.910,2075.330,121.266670,24.62,2.4935,363,23686,1.91308,3.78,37862,,,,,,,,,,,,,,,,,,99999,99999,99999,99999,99999,99999,99999,99999,99999,99999,99999,99999
36:51:49,1510889370,2017-11-17T03:29:34,0.767,1671.6,16.51,13.77,18.03,821.030,2075.200,120.866669,24.64,2.4937,363,23684,1.91217,3.78,37857,,,,,,,,,,,,,,,,,,99999,99999,99999,99999,99999,99999,99999,99999,99999,99999,99999,99999
36:52:19,1510889400,2017-11-17T03:30:04,0.761,1672.0,16.46,13.74,18.00,820.960,2074.980,120.516670,24.78,2.4939,363,23685,1.89863,3.78,37852,,,,,,,,,,,,,,,,,,99999,99999,99999,99999,99999,99999,99999,99999,99999,99999,99999,99999
36:52:49,1510889430,2017-11-17T03:30:34,0.765,1672.3,16.44,13.69,17.97,821.050,2074.920,121.433334,24.89,2.4939,363,23683,1.90765,3.78,37847,,,,,,,,,,,,,,,,,,99999,99999,99999,99999,99999,99999,99999,99999,99999,99999,99999,99999
36:53:19,1510889460,2017-11-17T03:31:04,0.761,1672.7,16.40,13.66,17.90,821.000,2074.810,117.949997,25.68,2.4941,363,23684,1.89683,3.78,37842,,,,,,,,,,,,,,,,,,99999,99999,99999,99999,99999,99999,99999,99999,99999,99999,99999,99999
36:53:49,1510889490,2017-11-17T03:31:34,0.765,1673.1,16.37,13.60,17.90,821.030,2074.750,119.750000,25.53,2.4943,363,23682,1.90765,3.78,37837,,,,,,,,,,,,,,,,,,99999,99999,99999,99999,99999,99999,99999,99999,99999,99999,99999,99999
36:54:19,1510889520,2017-11-17T03:32:04,0.766,1673.5,16.33,13.58,17.89,821.040,2074.520,120.933334,25.30,2.4944,363,23683,1.91157,3.78,37832,,,,,,,,,,,,,,,,,,99999,99999,99999,99999,99999,99999,99999,99999,99999,99999,99999,99999
36:54:49,1510889550,2017-11-17T03:32:34,0.766,1673.9,16.29,13.54,17.77,820.930,2074.410,121.166664,25.09,2.4946,363,23677,1.90976,3.78,37827,,,,,,,,,,,,,,,,,,99999,99999,99999,99999,99999,99999,99999,99999,99999,99999,99999,99999
36:55:19,1510889580,2017-11-17T03:33:04,0.765,1674.2,16.25,13.49,17.75,821.010,2074.290,120.883331,24.69,2.4949,363,23674,1.90826,3.78,37822,,,,,,,,,,,,,,,,,,99999,99999,99999,99999,99999,99999,99999,99999,99999,99999,99999,99999
36:55:49,1510889610,2017-11-17T03:33:34,0.760,1674.6,16.20,13.46,17.72,821.050,2074.120,117.949997,24.71,2.4951,363,23675,1.89532,3.78,37817,,,,,,,,,,,,,,,,,,99999,99999,99999,99999,99999,99999,99999,99999,99999,99999,99999,99999
36:56:19,1510889640,2017-11-17T03:34:04,0.759,1675.0,16.16,13.41,17.70,821.000,2073.950,118.166664,24.77,2.4952,363,23673,1.89442,3.78,37812,,,,,,,,,,,,,,,,,,99999,99999,99999,99999,99999,99999,99999,99999,99999,99999,99999,99999
36:56:49,1510889670,2017-11-17T03:34:34,0.761,1675.4,16.13,13.36,17.66,821.100,2073.830,118.500000,24.75,2.4954,363,23674,1.89803,3.78,37807,,,,,,,,,,,,,,,,,,99999,99999,99999,99999,99999,99999,99999,99999,99999,99999,99999,99999
36:57:19,1510889700,2017-11-17T03:35:04,0.760,1675.8,16.09,13.34,17.59,821.100,2073.760,119.300003,25.12,2.4956,363,23671,1.89563,3.78,37801,,,,,,,,,,,,,,,,,,99999,99999,99999,99999,99999,99999,99999,99999,99999,99999,99999,99999
36:57:49,1510889730,2017-11-17T03:35:34,0.763,1676.2,16.06,13.29,17.58,821.110,2073.600,121.466667,25.01,2.4957,363,23669,1.90434,3.78,37796,,,,,,,,,,,,,,,,,,99999,99999,99999,99999,99999,99999,99999,99999,99999,99999,99999,99999
36:58:19,1510889760,2017-11-17T03:36:04,0.762,1676.5,16.03,13.24,17.55,821.140,2073.530,117.716667,24.75,2.4959,363,23669,1.90133,3.78,37791,,,,,,,,,,,,,,,,,,99999,99999,99999,99999,99999,99999,99999,99999,99999,99999,99999,99999
36:58:49,1510889790,2017-11-17T03:36:34,0.761,1676.9,16.00,13.23,17.50,821.150,2073.430,118.400002,24.89,2.4960,363,23667,1.89923,3.78,37786,,,,,,,,,,,,,,,,,,99999,99999,99999,99999,99999,99999,99999,99999,99999,99999,99999,99999
36:59:19,1510889820,2017-11-17T03:37:04,0.759,1677.3,15.97,13.18,17.43,821.060,2073.310,119.083336,24.94,2.4961,363,23668,1.89502,3.78,37781,,,,,,,,,,,,,,,,,,99999,99999,99999,99999,99999,99999,99999,99999,99999,99999,99999,99999
36:59:49,1510889850,2017-11-17T03:37:34,0.760,1677.7,15.93,13.16,17.45,821.120,2073.140,119.033333,25.71,2.4962,363,23667,1.89623,3.78,37776,,,,,,,,,,,,,,,,,,99999,99999,99999,99999,99999,99999,99999,99999,99999,99999,99999,99999
37:00:19,1510889880,2017-11-17T03:38:04,0.764,1678.1,15.91,13.14,17.40,821.090,2073.100,119.466667,25.93,2.4963,363,23667,1.90675,3.78,37771,,,,,,,,,,,,,,,,,,99999,99999,99999,99999,99999,99999,99999,99999,99999,99999,99999,99999
37:00:49,1510889910,2017-11-17T03:38:34,0.765,1678.4,15.88,13.09,17.40,821.070,2073.030,120.116669,25.85,2.4965,363,23665,1.90886,3.78,37766,,,,,,,,,,,,,,,,,,99999,99999,99999,99999,99999,99999,99999,99999,99999,99999,99999,99999
37:01:19,1510889940,2017-11-17T03:39:04,0.759,1678.8,15.84,13.09,17.39,821.110,2072.850,118.000000,25.76,2.4966,363,23662,1.89442,3.78,37761,,,,,,,,,,,,,,,,,,99999,99999,99999,99999,99999,99999,99999,99999,99999,99999,99999,99999
37:01:49,1510889970,2017-11-17T03:39:34,0.760,1679.2,15.82,13.06,17.35,821.040,2072.740,118.216667,25.85,2.4967,363,23665,1.89863,3.78,37756,,,,,,,,,,,,,,,,,,99999,99999,99999,99999,99999,99999,99999,99999,99999,99999,99999,99999
37:02:19,1510890000,2017-11-17T03:40:04,0.762,1679.6,15.80,13.03,17.32,820.960,2072.680,121.199997,25.97,2.4968,363,23662,1.90133,3.78,37751,,,,,,,,,,,,,,,,,,99999,99999,99999,99999,99999,99999,99999,99999,99999,99999,99999,99999
37:02:49,1510890030,2017-11-17T03:40:34,0.760,1680.0,15.78,12.99,17.32,821.050,2072.640,120.366669,26.42,2.4969,363,23663,1.89713,3.78,37746,,,,,,,,,,,,,,,,,,99999,99999,99999,99999,99999,99999,99999,99999,99999,99999,99999,99999
37:03:19,1510890060,2017-11-17T03:41:04,0.764,1680.3,15.75,12.99,17.25,821.000,2072.580,120.183334,26.29,2.4971,363,23662,1.90886,3.78,37741,,,,,,,,,,,,,,,,,,99999,99999,99999,99999,99999,99999,99999,99999,99999,99999,99999,99999
37:03:49,1510890090,2017-11-17T03:41:34,0.763,1680.7,15.72,12.96,17.25,820.930,2072.450,119.266670,26.45,2.4972,363,23660,1.90645,3.78,37736,,,,,,,,,,,,,,,,,,99999,99999,99999,99999,99999,99999,99999,99999,99999,99999,99999,99999
37:04:19,1510890120,2017-11-17T03:42:04,0.761,1681.1,15.70,12.93,17.17,820.960,2072.410,119.816666,26.13,2.4973,363,23661,1.89953,3.78,37731,,,,,,,,,,,,,,,,,,99999,99999,99999,99999,99999,99999,99999,99999,99999,99999,99999,99999
37:04:49,1510890150,2017-11-17T03:42:34,0.764,1681.5,15.67,12.88,17.19,821.000,2072.220,118.599998,26.29,2.4973,363,23659,1.90765,3.78,37726,,,,,,,,,,,,,,,,,,99999,99999,99999,99999,99999,99999,99999,99999,99999,99999,99999,99999
37:05:19,1510890180,2017-11-17T03:43:04,0.763,1681.9,15.65,12.85,17.14,820.970,2072.180,119.516670,26.20,2.4975,363,23655,1.90615,3.78,37721,,,,,,,,,,,,,,,,,,99999,99999,99999,99999,99999,99999,99999,99999,99999,99999,99999,99999
37:05:49,1510890210,2017-11-17T03:43:34,0.761,1682.2,15.63,12.86,17.13,820.950,2072.110,118.366669,26.30,2.4975,363,23657,1.89953,3.78,37716,,,,,,,,,,,,,,,,,,99999,99999,99999,99999,99999,99999,99999,99999,99999,99999,99999,99999
37:06:19,1510890240,2017-11-17T03:44:04,0.762,1682.6,15.61,12.84,17.09,820.930,2072.060,119.616669,26.72,2.4976,363,23658,1.90254,3.78,37711,,,,,,,,,,,,,,,,,,99999,99999,99999,99999,99999,99999,99999,99999,99999,99999,99999,99999
37:06:49,1510890270,2017-11-17T03:44:34,0.756,1683.0,15.59,12.83,17.13,820.880,2071.990,118.500000,26.33,2.4977,363,23657,1.88813,3.78,37706,,,,,,,,,,,,,,,,,,99999,99999,99999,99999,99999,99999,99999,99999,99999,99999,99999,99999
37:07:19,1510890300,2017-11-17T03:45:04,0.760,1683.4,15.58,12.80,17.05,820.910,2071.990,119.866669,26.25,2.4978,363,23654,1.89923,3.78,37701,,,,,,,,,,,,,,,,,,99999,99999,99999,99999,99999,99999,99999,99999,99999,99999,99999,99999
37:07:49,1510890330,2017-11-17T03:45:34,0.756,1683.8,15.57,12.78,17.09,820.890,2071.950,117.166664,26.41,2.4979,363,23654,1.88843,3.78,37696,,,,,,,,,,,,,,,,,,99999,99999,99999,99999,99999,99999,99999,99999,99999,99999,99999,99999
37:08:19,1510890360,2017-11-17T03:46:04,0.762,1684.1,15.57,12.75,17.03,820.830,2071.950,119.983330,25.90,2.4979,363,23655,1.90344,3.78,37691,,,,,,,,,,,,,,,,,,99999,99999,99999,99999,99999,99999,99999,99999,99999,99999,99999,99999
37:08:49,1510890390,2017-11-17T03:46:34,0.756,1684.5,15.57,12.78,17.06,820.810,2071.950,117.866669,25.20,2.4980,363,23655,1.88873,3.78,37686,,,,,,,,,,,,,,,,,,99999,99999,99999,99999,99999,99999,99999,99999,99999,99999,99999,99999
37:09:19,1510890420,2017-11-17T03:47:04,0.761,1684.9,15.58,12.77,17.01,820.750,2071.990,117.916664,25.29,2.4979,363,23654,1.90073,3.78,37681,,,,,,,,,,,,,,,,,,99999,99999,99999,99999,99999,99999,99999,99999,99999,99999,99999,99999
37:09:49,1510890450,2017-11-17T03:47:34,0.762,1685.3,15.60,12.81,17.03,820.740,2072.060,120.383331,25.13,2.4978,363,23655,1.90314,3.78,37675,,,,,,,,,,,,,,,,,,99999,99999,99999,99999,99999,99999,99999,99999,99999,99999,99999,99999
37:10:19,1510890480,2017-11-17T03:48:04,0.762,1685.7,15.63,12.81,17.08,820.740,2072.110,119.233330,25.23,2.4976,363,23657,1.90223,3.78,37670,,,,,,,,,,,,,,,,,,99999,99999,99999,99999,99999,99999,99999,99999,99999,99999,99999,99999
37:10:49,1510890510,2017-11-17T03:48:34,0.757,1686.0,15.66,12.88,17.06,820.730,2072.220,117.283333,25.10,2.4975,363,23657,1.89083,3.78,37665,,,,,,,,,,,,,,,,,,99999,99999,99999,99999,99999,99999,99999,99999,99999,99999,99999,99999
37:11:19,1510890540,2017-11-17T03:49:04,0.761,1686.4,15.71,12.88,17.11,820.720,2072.450,120.416664,25.10,2.4973,363,23659,1.89953,3.78,37660,,,,,,,,,,,,,,,,,,99999,99999,99999,99999,99999,99999,99999,99999,99999,99999,99999,99999
37:11:49,1510890570,2017-11-17T03:49:34,0.757,1686.8,15.75,12.95,17.17,820.700,2072.580,120.800003,24.94,2.4972,363,23659,1.88933,3.78,37655,,,,,,,,,,,,,,,,,,99999,99999,99999,99999,99999,99999,99999,99999,99999,99999,99999,99999
37:12:19,1510890600,2017-11-17T03:50:04,0.757,1687.2,15.81,12.97,17.19,820.720,2072.740,118.750000,25.11,2.4968,363,23663,1.88963,3.78,37650,,,,,,,,,,,,,,,,,,99999,99999,99999,99999,99999,99999,99999,99999,99999,99999,99999,99999
37:12:49,1510890630,2017-11-17T03:50:34,0.757,1687.6,15.88,13.05,17.27,820.590,2073.030,117.250000,25.26,2.4965,363,23661,1.89053,3.78,37645,,,,,,,,,,,,,,,,,,99999,99999,99999,99999,99999,99999,99999,99999,99999,99999,99999,99999
37:13:19,1510890660,2017-11-17T03:51:04,0.763,1687.9,15.95,13.07,17.32,820.660,2073.200,120.733330,25.03,2.4962,363,23663,1.90434,3.78,37640,,,,,,,,,,,,,,,,,,99999,99999,99999,99999,99999,99999,99999,99999,99999,99999,99999,99999
37:13:49,1510890690,2017-11-17T03:51:34,0.761,1688.3,16.04,13.14,17.39,820.580,2073.530,123.933334,24.53,2.4958,363,23665,1.89833,3.78,37635,,,,,,,,,,,,,,,,,,99999,99999,99999,99999,99999,99999,99999,99999,99999,99999,99999,99999
37:14:19,1510890720,2017-11-17T03:52:04,0.759,1688.7,16.12,13.21,17.50,820.570,2073.830,118.900002,24.67,2.4955,363,23667,1.89353,3.78,37630,,,,,,,,,,,,,,,,,,99999,99999,99999,99999,99999,99999,99999,99999,99999,99999,99999,99999
37:14:49,1510890750,2017-11-17T03:52:34,0.759,1689.1,16.22,13.30,17.55,820.570,2074.120,119.616669,24.42,2.4949,363,23668,1.89353,3.78,37625,,,,,,,,,,,,,,,,,,99999,99999,99999,99999,99999,99999,99999,99999,99999,99999,99999,99999
37:15:19,1510890780,2017-11-17T03:53:04,0.764,1689.5,16.30,13.39,17.63,820.630,2074.410,119.849998,24.10,2.4946,363,23672,1.90555,3.78,37620,,,,,,,,,,,,,,,,,,99999,99999,99999,99999,99999,99999,99999,99999,99999,99999,99999,99999
37:15:49,1510890810,2017-11-17T03:53:34,0.759,1689.8,16.41,13.46,17.75,820.680,2074.870,121.916664,24.04,2.4942,363,23674,1.89292,3.78,37615,,,,,,,,,,,,,,,,,,99999,99999,99999,99999,99999,99999,99999,99999,99999,99999,99999,99999
37:16:19,1510890840,2017-11-17T03:54:04,0.764,1690.2,16.50,13.54,17.83,820.600,2075.140,119.816666,24.42,2.4937,363,23676,1.90494,3.78,37610,,,,,,,,,,,,,,,,,,99999,99999,99999,99999,99999,99999,99999,99999,99999,99999,99999,99999
37:16:49,1510890870,2017-11-17T03:54:34,0.766,1690.6,16.61,13.63,17.89,820.580,2075.500,120.599998,23.85,2.4932,363,23680,1.90976,3.78,37605,,,,,,,,,,,,,,,,,,99999,99999,99999,99999,99999,99999,99999,99999,99999,99999,99999,99999
37:17:19,1510890900,2017-11-17T03:55:04,0.768,1691.0,16.71,13.70,18.03,820.560,2075.830,121.616669,23.75,2.4928,363,23683,1.91399,3.78,37600,,,,,,,,,,,,,,,,,,99999,99999,99999,99999,99999,99999,99999,99999,99999,99999,99999,99999
37:17:49,1510890930,2017-11-17T03:55:34,0.767,1691.4,16.79,13.78,18.11,820.580,2076.190,120.516670,23.82,2.4925,363,23687,1.91248,3.78,37595,,,,,,,,,,,,,,,,,,99999,99999,99999,99999,99999,99999,99999,99999,99999,99999,99999,99999
37:18:19,1510890960,2017-11-17T03:56:04,0.771,1691.7,16.88,13.89,18.20,820.600,2076.420,120.949997,23.25,2.4920,363,23686,1.92033,3.78,37590,,,,,,,,,,,,,,,,,,99999,99999,99999,99999,99999,99999,99999,99999,99999,99999,99999,99999
37:18:49,1510890990,2017-11-17T03:56:34,0.770,1692.1,16.99,13.95,18.28,820.670,2076.810,122.516670,23.00,2.4916,363,23688,1.91851,3.78,37584,,,,,,,,,,,,,,,,,,99999,99999,99999,99999,99999,99999,99999,99999,99999,99999,99999,99999
37:19:19,1510891020,2017-11-17T03:57:04,0.768,1692.5,17.09,14.02,18.38,820.640,2077.210,122.166664,23.03,2.4912,363,23692,1.91338,3.78,37579,,,,,,,,,,,,,,,,,,99999,99999,99999,99999,99999,99999,99999,99999,99999,99999,99999,99999
37:19:49,1510891050,2017-11-17T03:57:34,0.770,1692.9,17.17,14.09,18.47,820.550,2077.500,122.166664,22.98,2.4908,363,23694,1.91791,3.78,37574,,,,,,,,,,,,,,,,,,99999,99999,99999,99999,99999,99999,99999,99999,99999,99999,99999,99999
37:20:19,1510891080,2017-11-17T03:58:04,0.769,1693.3,17.28,14.18,18.55,820.570,2077.900,122.983330,22.61,2.4904,363,23694,1.91428,3.78,37569,,,,,,,,,,,,,,,,,,99999,99999,99999,99999,99999,99999,99999,99999,99999,99999,99999,99999
37:20:49,1510891110,2017-11-17T03:58:34,0.770,1693.7,17.38,14.23,18.66,820.520,2078.130,123.150002,22.04,2.4899,363,23700,1.91730,3.78,37564,,,,,,,,,,,,,,,,,,99999,99999,99999,99999,99999,99999,99999,99999,99999,99999,99999,99999
37:21:19,1510891140,2017-11-17T03:59:04,0.766,1694.1,17.47,14.31,18.75,820.580,2078.490,121.800003,21.95,2.4895,363,23700,1.90675,3.78,37559,,,,,,,,,,,,,,,,,,99999,99999,99999,99999,99999,99999,99999,99999,99999,99999,99999,99999
37:21:49,1510891170,2017-11-17T03:59:34,0.765,1694.4,17.59,14.42,18.85,820.580,2078.940,124.816666,21.85,2.4890,363,23702,1.90344,3.78,37554,,,,,,,,,,,,,,,,,,99999,99999,99999,99999,99999,99999,99999,99999,99999,99999,99999,99999
37:22:19,1510891200,2017-11-17T04:00:04,0.767,1694.8,17.68,14.48,18.90,820.610,2079.300,122.983330,21.74,2.4887,363,23706,1.90916,3.77,37549,,,,,,,,,,,,,,,,,,99999,99999,99999,99999,99999,99999,99999,99999,99999,99999,99999,99999
37:22:49,1510891230,2017-11-17T04:00:34,0.773,1695.2,17.78,14.57,19.02,820.580,2079.570,121.050003,22.28,2.4881,363,23711,1.92275,3.77,37544,,,,,,,,,,,,,,,,,,99999,99999,99999,99999,99999,99999,99999,99999,99999,99999,99999,99999
37:23:19,1510891260,2017-11-17T04:01:04,0.771,1695.6,17.88,14.67,19.13,820.590,2079.920,120.683334,22.12,2.4876,363,23710,1.91912,3.77,37539,,,,,,,,,,,,,,,,,,99999,99999,99999,99999,99999,99999,99999,99999,99999,99999,99999,99999
37:23:49,1510891290,2017-11-17T04:01:34,0.774,1696.0,17.99,14.73,19.22,820.560,2080.320,123.083336,21.95,2.4872,363,23713,1.92607,3.77,37533,,,,,,,,,,,,,,,,,,99999,99999,99999,99999,99999,99999,99999,99999,99999,99999,99999,99999
37:24:19,1510891320,2017-11-17T04:02:04,0.770,1696.4,18.07,14.83,19.33,820.540,2080.610,122.883331,21.87,2.4868,363,23717,1.91459,3.77,37528,,,,,,,,,,,,,,,,,,99999,99999,99999,99999,99999,99999,99999,99999,99999,99999,99999,99999
37:24:49,1510891350,2017-11-17T04:02:34,0.774,1696.8,18.16,14.92,19.40,820.600,2080.910,121.833336,22.20,2.4864,363,23718,1.92486,3.77,37523,,,,,,,,,,,,,,,,,,99999,99999,99999,99999,99999,99999,99999,99999,99999,99999,99999,99999
37:25:19,1510891380,2017-11-17T04:03:04,0.777,1697.1,18.24,15.01,19.51,820.650,2081.200,123.783333,21.67,2.4861,363,23723,1.93092,3.77,37518,,,,,,,,,,,,,,,,,,99999,99999,99999,99999,99999,99999,99999,99999,99999,99999,99999,99999
37:25:49,1510891410,2017-11-17T04:03:34,0.777,1697.5,18.32,15.08,19.58,820.610,2081.530,124.716667,21.63,2.4858,363,23724,1.93092,3.77,37513,,,,,,,,,,,,,,,,,,99999,99999,99999,99999,99999,99999,99999,99999,99999,99999,99999,99999
37:26:19,1510891440,2017-11-17T04:04:04,0.775,1697.9,18.38,15.12,19.63,820.780,2081.660,125.083336,21.54,2.4855,363,23726,1.92638,3.77,37508,,,,,,,,,,,,,,,,,,99999,99999,99999,99999,99999,99999,99999,99999,99999,99999,99999,99999
37:26:49,1510891470,2017-11-17T04:04:34,0.773,1698.3,18.44,15.19,19.69,820.740,2081.880,121.800003,21.57,2.4852,363,23729,1.92153,3.77,37503,,,,,,,,,,,,,,,,,,99999,99999,99999,99999,99999,99999,99999,99999,99999,99999,99999,99999
37:27:19,1510891500,2017-11-17T04:05:04,0.776,1698.7,18.49,15.25,19.75,820.780,2082.050,124.766670,21.42,2.4850,363,23728,1.92850,3.77,37497,,,,,,,,,,,,,,,,,,99999,99999,99999,99999,99999,99999,99999,99999,99999,99999,99999,99999
37:27:49,1510891530,2017-11-17T04:05:34,0.774,1699.1,18.52,15.29,19.82,820.640,2082.180,123.816666,21.27,2.4849,363,23731,1.92335,3.77,37492,,,,,,,,,,,,,,,,,,99999,99999,99999,99999,99999,99999,99999,99999,99999,99999,99999,99999
37:28:19,1510891560,2017-11-17T04:06:04,0.778,1699.5,18.55,15.32,19.83,820.610,2082.220,124.050003,21.25,2.4847,363,23732,1.93213,3.77,37487,,,,,,,,,,,,,,,,,,99999,99999,99999,99999,99999,99999,99999,99999,99999,99999,99999,99999
37:28:49,1510891590,2017-11-17T04:06:34,0.778,1699.9,18.57,15.32,19.88,820.630,2082.350,124.849998,21.22,2.4847,363,23734,1.93396,3.77,37482,,,,,,,,,,,,,,,,,,99999,99999,99999,99999,99999,99999,99999,99999,99999,99999,99999,99999
37:29:19,1510891620,2017-11-17T04:07:04,0.773,1700.2,18.60,15.32,19.92,820.540,2082.470,122.250000,21.21,2.4845,363,23736,1.92093,3.77,37477,,,,,,,,,,,,,,,,,,99999,99999,99999,99999,99999,99999,99999,99999,99999,99999,99999,99999
37:29:49,1510891650,2017-11-17T04:07:34,0.777,1700.6,18.61,15.34,19.92,820.490,2082.510,126.099998,21.36,2.4845,363,23733,1.93092,3.77,37472,,,,,,,,,,,,,,,,,,99999,99999,99999,99999,99999,99999,99999,99999,99999,99999,99999,99999
37:30:19,1510891680,2017-11-17T04:08:04,0.774,1701.0,18.60,15.32,19.94,820.620,2082.470,123.766670,21.46,2.4845,363,23734,1.92426,3.77,37466,,,,,,,,,,,,,,,,,,99999,99999,99999,99999,99999,99999,99999,99999,99999,99999,99999,99999
37:30:49,1510891710,2017-11-17T04:08:34,0.778,1701.4,18.58,15.35,19.94,820.550,2082.350,125.116669,21.84,2.4845,363,23734,1.93244,3.77,37461,,,,,,,,,,,,,,,,,,99999,99999,99999,99999,99999,99999,99999,99999,99999,99999,99999,99999
37:31:19,1510891740,2017-11-17T04:09:04,0.773,1701.8,18.56,15.33,19.93,820.440,2082.280,124.599998,21.86,2.4846,363,23737,1.92093,3.77,37456,,,,,,,,,,,,,,,,,,99999,99999,99999,99999,99999,99999,99999,99999,99999,99999,99999,99999
37:31:49,1510891770,2017-11-17T04:09:34,0.774,1702.2,18.54,15.30,19.92,820.530,2082.220,122.233330,22.03,2.4847,363,23733,1.92365,3.77,37451,,,,,,,,,,,,,,,,,,99999,99999,99999,99999,99999,99999,99999,99999,99999,99999,99999,99999
37:32:19,1510891800,2017-11-17T04:10:04,0.777,1702.6,18.51,15.27,19.88,820.560,2082.180,124.466667,21.87,2.4849,363,23732,1.93092,3.77,37446,,,,,,,,,,,,,,,,,,99999,99999,99999,99999,99999,99999,99999,99999,99999,99999,99999,99999
37:32:49,1510891830,2017-11-17T04:10:34,0.772,1703.0,18.46,15.21,19.85,820.530,2081.880,123.316666,21.83,2.4850,363,23729,1.91821,3.77,37441,,,,,,,,,,,,,,,,,,99999,99999,99999,99999,99999,99999,99999,99999,99999,99999,99999,99999
37:33:19,1510891860,2017-11-17T04:11:04,0.772,1703.3,18.40,15.13,19.82,820.510,2081.760,122.483330,21.85,2.4854,363,23729,1.91761,3.77,37435,,,,,,,,,,,,,,,,,,99999,99999,99999,99999,99999,99999,99999,99999,99999,99999,99999,99999
37:33:49,1510891890,2017-11-17T04:11:34,0.774,1703.7,18.35,15.13,19.75,820.680,2081.600,122.599998,21.80,2.4856,363,23729,1.92395,3.77,37430,,,,,,,,,,,,,,,,,,99999,99999,99999,99999,99999,99999,99999,99999,99999,99999,99999,99999
37:34:19,1510891920,2017-11-17T04:12:04,0.773,1704.1,18.31,15.07,19.72,820.640,2081.430,124.866669,21.79,2.4858,363,23727,1.92153,3.77,37425,,,,,,,,,,,,,,,,,,99999,99999,99999,99999,99999,99999,99999,99999,99999,99999,99999,99999
37:34:49,1510891950,2017-11-17T04:12:34,0.771,1704.5,18.24,15.00,19.64,820.470,2081.200,122.316666,21.80,2.4861,363,23725,1.91610,3.77,37420,,,,,,,,,,,,,,,,,,99999,99999,99999,99999,99999,99999,99999,99999,99999,99999,99999,99999
37:35:19,1510891980,2017-11-17T04:13:04,0.772,1704.9,18.19,14.99,19.60,820.530,2081.070,123.750000,21.62,2.4864,363,23725,1.92002,3.77,37415,,,,,,,,,,,,,,,,,,99999,99999,99999,99999,99999,99999,99999,99999,99999,99999,99999,99999
37:35:49,1510892010,2017-11-17T04:13:34,0.772,1705.3,18.13,14.95,19.58,820.500,2080.780,123.066666,22.25,2.4865,363,23722,1.91942,3.77,37410,,,,,,,,,,,,,,,,,,99999,99999,99999,99999,99999,99999,99999,99999,99999,99999,99999,99999
37:36:19,1510892040,2017-11-17T04:14:04,0.773,1705.7,18.07,14.90,19.51,820.510,2080.610,122.966667,21.89,2.4868,363,23723,1.92305,3.77,37404,,,,,,,,,,,,,,,,,,99999,99999,99999,99999,99999,99999,99999,99999,99999,99999,99999,99999
37:36:49,1510892070,2017-11-17T04:14:34,0.770,1706.0,18.00,14.85,19.42,820.580,2080.380,121.500000,21.93,2.4872,363,23720,1.91489,3.77,37399,,,,,,,,,,,,,,,,,,99999,99999,99999,99999,99999,99999,99999,99999,99999,99999,99999,99999
37:37:19,1510892100,2017-11-17T04:15:04,0.768,1706.4,17.95,14.83,19.40,820.570,2080.210,122.483330,21.87,2.4874,363,23718,1.91127,3.77,37394,,,,,,,,,,,,,,,,,,99999,99999,99999,99999,99999,99999,99999,99999,99999,99999,99999,99999
37:37:49,1510892130,2017-11-17T04:15:34,0.772,1706.8,17.90,14.78,19.32,820.630,2079.990,121.699997,21.92,2.4876,363,23717,1.92002,3.77,37389,,,,,,,,,,,,,,,,,,99999,99999,99999,99999,99999,99999,99999,99999,99999,99999,99999,99999
37:38:19,1510892160,2017-11-17T04:16:04,0.773,1707.2,17.84,14.75,19.28,820.650,2079.800,124.199997,21.82,2.4879,363,23715,1.92214,3.77,37384,,,,,,,,,,,,,,,,,,99999,99999,99999,99999,99999,99999,99999,99999,99999,99999,99999,99999
37:38:49,1510892190,2017-11-17T04:16:34,0.774,1707.6,17.78,14.71,19.20,820.550,2079.570,123.183334,22.26,2.4881,363,23716,1.92456,3.77,37379,,,,,,,,,,,,,,,,,,99999,99999,99999,99999,99999,99999,99999,99999,99999,99999,99999,99999
37:39:19,1510892220,2017-11-17T04:17:04,0.769,1708.0,17.75,14.68,19.20,820.670,2079.460,121.316666,22.53,2.4882,363,23712,1.91308,3.77,37373,,,,,,,,,,,,,,,,,,99999,99999,99999,99999,99999,99999,99999,99999,99999,99999,99999,99999
37:39:49,1510892250,2017-11-17T04:17:34,0.773,1708.4,17.70,14.66,19.13,820.660,2079.340,121.666664,22.33,2.4885,363,23711,1.92335,3.77,37368,,,,,,,,,,,,,,,,,,99999,99999,99999,99999,99999,99999,99999,99999,99999,99999,99999,99999
37:40:19,1510892280,2017-11-17T04:18:04,0.770,1708.7,17.67,14.63,19.09,820.690,2079.170,121.183334,22.18,2.4886,363,23715,1.91670,3.77,37363,,,,,,,,,,,,,,,,,,99999,99999,99999,99999,99999,99999,99999,99999,99999,99999,99999,99999
37:40:49,1510892310,2017-11-17T04:18:34,0.770,1709.1,17.64,14.60,19.09,820.620,2079.110,121.316666,22.38,2.4887,363,23714,1.91549,3.77,37358,,,,,,,,,,,,,,,,,,99999,99999,99999,99999,99999,99999,99999,99999,99999,99999,99999,99999
37:41:19,1510892340,2017-11-17T04:19:04,0.770,1709.5,17.61,14.58,19.02,820.670,2079.010,123.566666,22.52,2.4889,363,23710,1.91700,3.77,37353,,,,,,,,,,,,,,,,,,99999,99999,99999,99999,99999,99999,99999,99999,99999,99999,99999,99999
37:41:49,1510892370,2017-11-17T04:19:34,0.773,1709.9,17.58,14.56,19.05,820.580,2078.940,123.333336,23.07,2.4890,363,23709,1.92395,3.77,37348,,,,,,,,,,,,,,,,,,99999,99999,99999,99999,99999,99999,99999,99999,99999,99999,99999,99999
37:42:19,1510892400,2017-11-17T04:20:04,0.767,1710.3,17.55,14.56,18.98,820.610,2078.710,120.866669,22.97,2.4890,363,23709,1.90946,3.77,37343,,,,,,,,,,,,,,,,,,99999,99999,99999,99999,99999,99999,99999,99999,99999,99999,99999,99999
37:42:49,1510892430,2017-11-17T04:20:34,0.769,1710.7,17.53,14.52,18.96,820.540,2078.710,124.716667,22.27,2.4892,363,23707,1.91428,3.77,37338,,,,,,,,,,,,,,,,,,99999,99999,99999,99999,99999,99999,99999,99999,99999,99999,99999,99999
37:43:19,1510892460,2017-11-17T04:21:04,0.770,1711.1,17.50,14.51,18.98,820.540,2078.590,123.733330,22.28,2.4893,363,23708,1.91791,3.77,37332,,,,,,,,,,,,,,,,,,99999,99999,99999,99999,99999,99999,99999,99999,99999,99999,99999,99999
37:43:49,1510892490,2017-11-17T04:21:34,0.769,1711.4,17.48,14.49,18.88,820.490,2078.540,122.416664,22.60,2.4894,363,23706,1.91519,3.77,37327,,,,,,,,,,,,,,,,,,99999,99999,99999,99999,99999,99999,99999,99999,99999,99999,99999,99999
37:44:19,1510892520,2017-11-17T04:22:04,0.771,1711.8,17.45,14.48,18.83,820.450,2078.490,122.516670,22.88,2.4896,363,23708,1.92063,3.77,37322,,,,,,,,,,,,,,,,,,99999,99999,99999,99999,99999,99999,99999,99999,99999,99999,99999,99999
37:44:49,1510892550,2017-11-17T04:22:34,0.766,1712.2,17.44,14.47,18.83,820.560,2078.420,121.800003,23.26,2.4896,363,23708,1.90765,3.77,37317,,,,,,,,,,,,,,,,,,99999,99999,99999,99999,99999,99999,99999,99999,99999,99999,99999,99999
37:45:19,1510892580,2017-11-17T04:23:04,0.767,1712.6,17.41,14.43,18.85,820.510,2078.360,121.033333,23.04,2.4898,363,23705,1.90886,3.77,37312,,,,,,,,,,,,,,,,,,99999,99999,99999,99999,99999,99999,99999,99999,99999,99999,99999,99999
37:45:49,1510892610,2017-11-17T04:23:34,0.769,1713.0,17.39,14.44,18.85,820.540,2078.190,124.199997,22.82,2.4898,363,23706,1.91459,3.77,37307,,,,,,,,,,,,,,,,,,99999,99999,99999,99999,99999,99999,99999,99999,99999,99999,99999,99999
37:46:19,1510892640,2017-11-17T04:24:04,0.769,1713.4,17.35,14.41,18.78,820.530,2078.090,120.400002,23.06,2.4900,363,23704,1.91399,3.77,37302,,,,,,,,,,,,,,,,,,99999,99999,99999,99999,99999,99999,99999,99999,99999,99999,99999,99999
37:46:49,1510892670,2017-11-17T04:24:34,0.771,1713.7,17.33,14.38,18.78,820.580,2078.020,122.983330,22.88,2.4901,363,23706,1.92063,3.77,37296,,,,,,,,,,,,,,,,,,99999,99999,99999,99999,99999,99999,99999,99999,99999,99999,99999,99999
37:47:19,1510892700,2017-11-17T04:25:04,0.771,1714.1,17.30,14.38,18.78,820.460,2077.900,122.533333,22.78,2.4902,363,23704,1.92002,3.77,37291,,,,,,,,,,,,,,,,,,99999,99999,99999,99999,99999,99999,99999,99999,99999,99999,99999,99999
37:47:49,1510892730,2017-11-17T04:25:34,0.769,1714.5,17.27,14.37,18.72,820.570,2077.790,120.449997,23.42,2.4903,363,23702,1.91428,3.77,37286,,,,,,,,,,,,,,,,,,99999,99999,99999,99999,99999,99999,99999,99999,99999,99999,99999,99999
37:48:19,1510892760,2017-11-17T04:26:04,0.771,1714.9,17.25,14.31,18.70,820.550,2077.730,122.266670,23.02,2.4904,363,23700,1.92002,3.77,37281,,,,,,,,,,,,,,,,,,99999,99999,99999,99999,99999,99999,99999,99999,99999,99999,99999,99999
37:48:49,1510892790,2017-11-17T04:26:34,0.771,1715.3,17.23,14.29,18.69,820.610,2077.670,120.349998,22.93,2.4905,363,23702,1.91912,3.77,37276,,,,,,,,,,,,,,,,,,99999,99999,99999,99999,99999,99999,99999,99999,99999,99999,99999,99999
37:49:19,1510892820,2017-11-17T04:27:04,0.771,1715.7,17.21,14.29,18.66,820.560,2077.570,121.666664,23.13,2.4906,363,23698,1.91912,3.77,37271,,,,,,,,,,,,,,,,,,99999,99999,99999,99999,99999,99999,99999,99999,99999,99999,99999,99999
37:49:49,1510892850,2017-11-17T04:27:34,0.765,1716.1,17.17,14.27,18.61,820.520,2077.500,120.533333,23.01,2.4908,363,23700,1.90615,3.77,37266,,,,,,,,,,,,,,,,,,99999,99999,99999,99999,99999,99999,99999,99999,99999,99999,99999,99999
37:50:19,1510892880,2017-11-17T04:28:04,0.767,1716.4,17.16,14.22,18.66,820.550,2077.440,120.783333,23.39,2.4908,363,23700,1.91006,3.77,37261,,,,,,,,,,,,,,,,,,99999,99999,99999,99999,99999,99999,99999,99999,99999,99999,99999,99999
37:50:49,1510892910,2017-11-17T04:28:34,0.765,1716.8,17.13,14.21,18.58,820.450,2077.270,120.916664,23.44,2.4909,363,23699,1.90464,3.77,37256,,,,,,,,,,,,,,,,,,99999,99999,99999,99999,99999,99999,99999,99999,99999,99999,99999,99999
37:51:19,1510892940,2017-11-17T04:29:04,0.770,1717.2,17.11,14.18,18.56,820.450,2077.270,122.333336,23.36,2.4911,363,23697,1.91821,3.77,37250,,,,,,,,,,,,,,,,,,99999,99999,99999,99999,99999,99999,99999,99999,99999,99999,99999,99999
37:51:49,1510892970,2017-11-17T04:29:34,0.769,1717.6,17.08,14.17,18.55,820.460,2077.170,123.000000,23.41,2.4912,363,23698,1.91579,3.77,37245,,,,,,,,,,,,,,,,,,99999,99999,99999,99999,99999,99999,99999,99999,99999,99999,99999,99999
37:52:19,1510893000,2017-11-17T04:30:04,0.764,1718.0,17.06,14.16,18.55,820.330,2077.100,122.750000,23.49,2.4913,363,23696,1.90344,3.77,37240,,,,,,,,,,,,,,,,,,99999,99999,99999,99999,99999,99999,99999,99999,99999,99999,99999,99999
37:52:49,1510893030,2017-11-17T04:30:34,0.767,1718.4,17.04,14.13,18.50,820.470,2077.040,121.483330,23.17,2.4914,363,23699,1.91127,3.77,37235,,,,,,,,,,,,,,,,,,99999,99999,99999,99999,99999,99999,99999,99999,99999,99999,99999,99999
37:53:19,1510893060,2017-11-17T04:31:04,0.767,1718.7,17.01,14.12,18.47,820.510,2076.870,120.016670,23.19,2.4915,363,23697,1.90976,3.77,37230,,,,,,,,,,,,,,,,,,99999,99999,99999,99999,99999,99999,99999,99999,99999,99999,99999,99999
37:53:49,1510893090,2017-11-17T04:31:34,0.765,1719.1,16.98,14.09,18.44,820.490,2076.810,120.616669,23.29,2.4916,363,23696,1.90615,3.77,37225,,,,,,,,,,,,,,,,,,99999,99999,99999,99999,99999,99999,99999,99999,99999,99999,99999,99999
37:54:19,1510893120,2017-11-17T04:32:04,0.767,1719.5,16.97,14.06,18.43,820.520,2076.750,122.150002,23.69,2.4916,363,23694,1.91097,3.77,37220,,,,,,,,,,,,,,,,,,99999,99999,99999,99999,99999,99999,99999,99999,99999,99999,99999,99999
37:54:49,1510893150,2017-11-17T04:32:34,0.765,1719.9,16.94,14.04,18.43,820.470,2076.710,120.133331,23.63,2.4918,363,23694,1.90555,3.77,37215,,,,,,,,,,,,,,,,,,99999,99999,99999,99999,99999,99999,99999,99999,99999,99999,99999,99999
37:55:19,1510893180,2017-11-17T04:33:04,0.766,1720.3,16.93,14.02,18.42,820.470,2076.650,119.633331,23.83,2.4918,363,23696,1.90946,3.77,37210,,,,,,,,,,,,,,,,,,99999,99999,99999,99999,99999,99999,99999,99999,99999,99999,99999,99999
37:55:49,1510893210,2017-11-17T04:33:34,0.769,1720.7,16.92,14.02,18.33,820.550,2076.650,122.900002,23.83,2.4919,363,23693,1.91610,3.77,37204,,,,,,,,,,,,,,,,,,99999,99999,99999,99999,99999,99999,99999,99999,99999,99999,99999,99999
37:56:19,1510893240,2017-11-17T04:34:04,0.764,1721.0,16.90,14.03,18.38,820.420,2076.580,119.733330,23.56,2.4920,363,23691,1.90464,3.77,37199,,,,,,,,,,,,,,,,,,99999,99999,99999,99999,99999,99999,99999,99999,99999,99999,99999,99999
37:56:49,1510893270,2017-11-17T04:34:34,0.768,1721.4,16.90,13.99,18.32,820.420,2076.580,122.366669,23.78,2.4920,363,23692,1.91368,3.77,37194,,,,,,,,,,,,,,,,,,99999,99999,99999,99999,99999,99999,99999,99999,99999,99999,99999,99999
37:57:19,1510893300,2017-11-17T04:35:04,0.766,1721.8,16.87,13.97,18.33,820.360,2076.420,122.550003,23.41,2.4921,363,23691,1.90946,3.77,37189,,,,,,,,,,,,,,,,,,99999,99999,99999,99999,99999,99999,99999,99999,99999,99999,99999,99999
37:57:49,1510893330,2017-11-17T04:35:34,0.767,1722.2,16.87,13.96,18.33,820.360,2076.420,120.866669,23.67,2.4921,363,23691,1.91248,3.77,37184,,,,,,,,,,,,,,,,,,99999,99999,99999,99999,99999,99999,99999,99999,99999,99999,99999,99999
37:58:19,1510893360,2017-11-17T04:36:04,0.768,1722.6,16.84,13.95,18.28,820.360,2076.290,121.966667,23.71,2.4922,363,23691,1.91368,3.77,37179,,,,,,,,,,,,,,,,,,99999,99999,99999,99999,99999,99999,99999,99999,99999,99999,99999,99999
37:58:49,1510893390,2017-11-17T04:36:34,0.767,1723.0,16.83,13.94,18.25,820.200,2076.290,123.433334,23.85,2.4923,363,23692,1.91157,3.77,37174,,,,,,,,,,,,,,,,,,99999,99999,99999,99999,99999,99999,99999,99999,99999,99999,99999,99999
37:59:19,1510893420,2017-11-17T04:37:04,0.767,1723.3,16.81,13.93,18.28,820.210,2076.250,122.483330,24.44,2.4924,363,23689,1.91187,3.77,37169,,,,,,,,,,,,,,,,,,99999,99999,99999,99999,99999,99999,99999,99999,99999,99999,99999,99999
37:59:49,1510893450,2017-11-17T04:37:34,0.765,1723.7,16.79,13.89,18.28,820.340,2076.190,118.816666,24.33,2.4925,363,23689,1.90555,3.77,37164,,,,,,,,,,,,,,,,,,99999,99999,99999,99999,99999,99999,99999,99999,99999,99999,99999,99999
38:00:19,1510893480,2017-11-17T04:38:04,0.768,1724.1,16.78,13.84,18.25,820.500,2076.120,122.266670,24.14,2.4925,363,23689,1.91459,3.77,37159,,,,,,,,,,,,,,,,,,99999,99999,99999,99999,99999,99999,99999,99999,99999,99999,99999,99999
38:00:49,1510893510,2017-11-17T04:38:34,0.765,1724.5,16.74,13.81,18.19,820.340,2075.960,121.750000,24.32,2.4926,363,23688,1.90765,3.77,37153,,,,,,,,,,,,,,,,,,99999,99999,99999,99999,99999,99999,99999,99999,99999,99999,99999,99999
38:01:19,1510893540,2017-11-17T04:39:04,0.767,1724.9,16.73,13.81,18.19,820.340,2075.960,122.300003,24.23,2.4927,363,23688,1.91217,3.77,37148,,,,,,,,,,,,,,,,,,99999,99999,99999,99999,99999,99999,99999,99999,99999,99999,99999,99999
38:01:49,1510893570,2017-11-17T04:39:34,0.765,1725.2,16.69,13.77,18.14,820.420,2075.790,119.900002,24.23,2.4929,363,23687,1.90795,3.77,37143,,,,,,,,,,,,,,,,,,99999,99999,99999,99999,99999,99999,99999,99999,99999,99999,99999,99999
38:02:19,1510893600,2017-11-17T04:40:04,0.765,1725.6,16.67,13.76,18.09,820.450,2075.730,120.883331,24.33,2.4930,363,23687,1.90675,3.77,37138,,,,,,,,,,,,,,,,,,99999,99999,99999,99999,99999,99999,99999,99999,99999,99999,99999,99999
38:02:49,1510893630,2017-11-17T04:40:34,0.763,1726.0,16.65,13.74,18.14,820.430,2075.670,120.266670,24.14,2.4931,363,23685,1.90344,3.77,37133,,,,,,,,,,,,,,,,,,99999,99999,99999,99999,99999,99999,99999,99999,99999,99999,99999,99999
38:03:19,1510893660,2017-11-17T04:41:04,0.767,1726.4,16.62,13.72,18.08,820.440,2075.600,120.816666,24.22,2.4932,363,23687,1.91308,3.77,37128,,,,,,,,,,,,,,,,,,99999,99999,99999,99999,99999,99999,99999,99999,99999,99999,99999,99999
38:03:49,1510893690,2017-11-17T04:41:34,0.763,1726.8,16.59,13.68,18.06,820.450,2075.430,121.233330,24.38,2.4933,363,23686,1.90133,3.77,37123,,,,,,,,,,,,,,,,,,99999,99999,99999,99999,99999,99999,99999,99999,99999,99999,99999,99999
38:04:19,1510893720,2017-11-17T04:42:04,0.764,1727.2,16.57,13.68,18.00,820.540,2075.370,118.433334,24.31,2.4934,363,23682,1.90434,3.77,37118,,,,,,,,,,,,,,,,,,99999,99999,99999,99999,99999,99999,99999,99999,99999,99999,99999,99999
38:04:49,1510893750,2017-11-17T04:42:34,0.767,1727.5,16.54,13.63,17.98,820.510,2075.330,119.883331,24.30,2.4936,363,23682,1.91338,3.77,37113,,,,,,,,,,,,,,,,,,99999,99999,99999,99999,99999,99999,99999,99999,99999,99999,99999,99999
38:05:19,1510893780,2017-11-17T04:43:04,0.763,1727.9,16.51,13.63,18.00,820.420,2075.200,119.783333,24.21,2.4937,363,23685,1.90344,3.77,37108,,,,,,,,,,,,,,,,,,99999,99999,99999,99999,99999,99999,99999,99999,99999,99999,99999,99999
38:05:49,1510893810,2017-11-17T04:43:34,0.764,1728.3,16.49,13.62,17.97,820.550,2075.140,121.733330,24.22,2.4938,363,23681,1.90494,3.77,37102,,,,,,,,,,,,,,,,,,99999,99999,99999,99999,99999,99999,99999,99999,99999,99999,99999,99999
38:06:19,1510893840,2017-11-17T04:44:04,0.762,1728.7,16.49,13.58,17.97,820.500,2075.140,120.949997,24.51,2.4938,363,23681,1.90013,3.77,37097,,,,,,,,,,,,,,,,,,99999,99999,99999,99999,99999,99999,99999,99999,99999,99999,99999,99999
38:06:49,1510893870,2017-11-17T04:44:34,0.763,1729.1,16.48,13.57,17.92,820.260,2075.040,124.666664,24.10,2.4938,363,23681,1.90344,3.77,37092,,,,,,,,,,,,,,,,,,99999,99999,99999,99999,99999,99999,99999,99999,99999,99999,99999,99999
38:07:19,1510893900,2017-11-17T04:45:04,0.766,1729.5,16.47,13.57,17.93,820.350,2074.980,121.483330,24.43,2.4938,363,23682,1.90946,3.77,37087,,,,,,,,,,,,,,,,,,99999,99999,99999,99999,99999,99999,99999,99999,99999,99999,99999,99999
38:07:49,1510893930,2017-11-17T04:45:34,0.761,1729.8,16.47,13.61,17.94,820.350,2074.980,120.316666,24.67,2.4938,363,23679,1.89653,3.77,37082,,,,,,,,,,,,,,,,,,99999,99999,99999,99999,99999,99999,99999,99999,99999,99999,99999,99999
38:08:19,1510893960,2017-11-17T04:46:04,0.766,1730.2,16.46,13.63,17.92,820.430,2074.980,120.000000,24.69,2.4939,363,23680,1.90946,3.77,37077,,,,,,,,,,,,,,,,,,99999,99999,99999,99999,99999,99999,99999,99999,99999,99999,99999,99999
38:08:49,1510893990,2017-11-17T04:46:34,0.766,1730.6,16.47,13.64,17.98,820.460,2074.980,122.266670,24.32,2.4938,363,23681,1.91097,3.77,37072,,,,,,,,,,,,,,,,,,99999,99999,99999,99999,99999,99999,99999,99999,99999,99999,99999,99999
38:09:19,1510894020,2017-11-17T04:47:04,0.766,1731.0,16.49,13.63,17.93,820.550,2075.140,121.150002,24.61,2.4938,363,23679,1.91067,3.77,37067,,,,,,,,,,,,,,,,,,99999,99999,99999,99999,99999,99999,99999,99999,99999,99999,99999,99999
38:09:49,1510894050,2017-11-17T04:47:34,0.765,1731.4,16.49,13.66,17.93,820.440,2075.140,121.133331,24.36,2.4938,363,23679,1.90856,3.77,37062,,,,,,,,,,,,,,,,,,99999,99999,99999,99999,99999,99999,99999,99999,99999,99999,99999,99999
38:10:19,1510894080,2017-11-17T04:48:04,0.765,1731.7,16.49,13.67,17.94,820.370,2075.140,121.066666,24.75,2.4938,363,23683,1.90826,3.77,37057,,,,,,,,,,,,,,,,,,99999,99999,99999,99999,99999,99999,99999,99999,99999,99999,99999,99999
38:10:49,1510894110,2017-11-17T04:48:34,0.767,1732.1,16.51,13.66,17.98,820.390,2075.200,122.099998,24.48,2.4937,363,23681,1.91278,3.77,37052,,,,,,,,,,,,,,,,,,99999,99999,99999,99999,99999,99999,99999,99999,99999,99999,99999,99999
38:11:19,1510894140,2017-11-17T04:49:04,0.769,1732.5,16.52,13.70,17.97,820.410,2075.200,120.099998,24.47,2.4936,363,23685,1.91640,3.77,37047,,,,,,,,,,,,,,,,,,99999,99999,99999,99999,99999,99999,99999,99999,99999,99999,99999,99999
38:11:49,1510894170,2017-11-17T04:49:34,0.763,1732.9,16.52,13.68,17.98,820.410,2075.200,118.916664,24.12,2.4936,363,23682,1.90344,3.77,37041,,,,,,,,,,,,,,,,,,99999,99999,99999,99999,99999,99999,99999,99999,99999,99999,99999,99999
38:12:19,1510894200,2017-11-17T04:50:04,0.767,1733.3,16.55,13.69,17.94,820.330,2075.330,120.566666,24.32,2.4935,363,23683,1.91187,3.76,37036,,,,,,,,,,,,,,,,,,99999,99999,99999,99999,99999,99999,99999,99999,99999,99999,99999,99999
38:12:49,1510894230,2017-11-17T04:50:34,0.762,1733.7,16.55,13.72,18.00,820.380,2075.330,119.199997,24.52,2.4935,363,23683,1.89923,3.77,37031,,,,,,,,,,,,,,,,,,99999,99999,99999,99999,99999,99999,99999,99999,99999,99999,99999,99999
38:13:19,1510894260,2017-11-17T04:51:04,0.767,1734.0,16.57,13.69,17.98,820.240,2075.370,122.550003,24.41,2.4934,363,23685,1.91217,3.76,37026,,,,,,,,,,,,,,,,,,99999,99999,99999,99999,99999,99999,99999,99999,99999,99999,99999,99999
38:13:49,1510894290,2017-11-17T04:51:34,0.762,1734.4,16.57,13.68,18.00,820.240,2075.370,121.050003,24.21,2.4934,363,23684,1.89983,3.77,37021,,,,,,,,,,,,,,,,,,99999,99999,99999,99999,99999,99999,99999,99999,99999,99999,99999,99999
38:14:19,1510894320,2017-11-17T04:52:04,0.768,1734.8,16.60,13.69,18.05,820.280,2075.500,120.849998,24.23,2.4933,363,23682,1.91489,3.76,37016,,,,,,,,,,,,,,,,,,99999,99999,99999,99999,99999,99999,99999,99999,99999,99999,99999,99999
38:14:49,1510894350,2017-11-17T04:52:34,0.768,1735.2,16.62,13.73,18.03,820.090,2075.600,121.416664,24.12,2.4933,363,23687,1.91399,3.77,37011,,,,,,,,,,,,,,,,,,99999,99999,99999,99999,99999,99999,99999,99999,99999,99999,99999,99999
38:15:19,1510894380,2017-11-17T04:53:04,0.761,1735.6,16.67,13.76,18.05,820.110,2075.730,129.600006,23.96,2.4930,363,23681,1.89713,3.76,37006,,,,,,,,,,,,,,,,,,99999,99999,99999,99999,99999,99999,99999,99999,99999,99999,99999,99999
38:15:49,1510894410,2017-11-17T04:53:34,0.767,1736.0,16.73,13.82,18.09,820.180,2075.960,121.099998,24.37,2.4927,363,23685,1.91308,3.76,37001,,,,,,,,,,,,,,,,,,99999,99999,99999,99999,99999,99999,99999,99999,99999,99999,99999,99999
38:16:19,1510894440,2017-11-17T04:54:04,0.768,1736.3,16.80,13.87,18.16,820.240,2076.190,122.349998,23.96,2.4924,363,23689,1.91338,3.76,36996,,,,,,,,,,,,,,,,,,99999,99999,99999,99999,99999,99999,99999,99999,99999,99999,99999,99999
38:16:49,1510894470,2017-11-17T04:54:34,0.768,1736.7,16.87,13.91,18.17,820.360,2076.420,121.066666,24.67,2.4920,363,23692,1.91489,3.76,36991,,,,,,,,,,,,,,,,,,99999,99999,99999,99999,99999,99999,99999,99999,99999,99999,99999,99999
38:17:19,1510894500,2017-11-17T04:55:04,0.764,1737.1,16.95,14.00,18.27,820.300,2076.710,122.816666,23.63,2.4918,363,23690,1.90464,3.76,36985,,,,,,,,,,,,,,,,,,99999,99999,99999,99999,99999,99999,99999,99999,99999,99999,99999,99999
38:17:49,1510894530,2017-11-17T04:55:34,0.768,1737.5,16.99,14.04,18.35,820.110,2076.810,120.233330,24.04,2.4915,363,23695,1.91308,3.76,36980,,,,,,,,,,,,,,,,,,99999,99999,99999,99999,99999,99999,99999,99999,99999,99999,99999,99999
38:18:19,1510894560,2017-11-17T04:56:04,0.764,1737.9,17.05,14.11,18.42,820.100,2077.040,119.716667,23.30,2.4913,363,23695,1.90344,3.76,36975,,,,,,,,,,,,,,,,,,99999,99999,99999,99999,99999,99999,99999,99999,99999,99999,99999,99999
38:18:49,1510894590,2017-11-17T04:56:34,0.769,1738.3,17.10,14.14,18.47,820.140,2077.210,122.116669,23.98,2.4910,363,23696,1.91670,3.76,36970,,,,,,,,,,,,,,,,,,99999,99999,99999,99999,99999,99999,99999,99999,99999,99999,99999,99999
38:19:19,1510894620,2017-11-17T04:57:04,0.771,1738.6,17.15,14.19,18.51,820.130,2077.440,120.916664,23.78,2.4909,363,23698,1.92002,3.76,36965,,,,,,,,,,,,,,,,,,99999,99999,99999,99999,99999,99999,99999,99999,99999,99999,99999,99999
38:19:49,1510894650,2017-11-17T04:57:34,0.770,1739.0,17.18,14.21,18.55,820.140,2077.500,122.900002,23.19,2.4907,363,23698,1.91700,3.76,36960,,,,,,,,,,,,,,,,,,99999,99999,99999,99999,99999,99999,99999,99999,99999,99999,99999,99999
38:20:19,1510894680,2017-11-17T04:58:04,0.767,1739.4,17.25,14.23,18.61,820.100,2077.730,120.433334,23.19,2.4904,363,23700,1.91036,3.76,36955,,,,,,,,,,,,,,,,,,99999,99999,99999,99999,99999,99999,99999,99999,99999,99999,99999,99999
38:20:49,1510894710,2017-11-17T04:58:34,0.765,1739.8,17.29,14.27,18.63,820.280,2077.900,120.150002,23.12,2.4903,363,23699,1.90585,3.76,36950,,,,,,,,,,,,,,,,,,99999,99999,99999,99999,99999,99999,99999,99999,99999,99999,99999,99999
38:21:19,1510894740,2017-11-17T04:59:04,0.767,1740.2,17.33,14.31,18.70,820.240,2078.020,122.000000,23.05,2.4901,363,23702,1.90946,3.76,36945,,,,,,,,,,,,,,,,,,99999,99999,99999,99999,99999,99999,99999,99999,99999,99999,99999,99999
38:21:49,1510894770,2017-11-17T04:59:34,0.771,1740.6,17.39,14.36,18.77,820.280,2078.190,121.016670,22.98,2.4898,363,23705,1.92002,3.76,36939,,,,,,,,,,,,,,,,,,99999,99999,99999,99999,99999,99999,99999,99999,99999,99999,99999,99999
38:22:19,1510894800,2017-11-17T05:00:04,0.772,1740.9,17.44,14.41,18.78,820.320,2078.420,121.683334,22.83,2.4896,363,23706,1.92153,3.76,36934,,,,,,,,,,,,,,,,,,99999,99999,99999,99999,99999,99999,99999,99999,99999,99999,99999,99999
38:22:49,1510894830,2017-11-17T05:00:34,0.769,1741.3,17.49,14.45,18.85,820.310,2078.590,121.633331,22.72,2.4894,363,23706,1.91489,3.76,36929,,,,,,,,,,,,,,,,,,99999,99999,99999,99999,99999,99999,99999,99999,99999,99999,99999,99999
38:23:19,1510894860,2017-11-17T05:01:04,0.771,1741.7,17.54,14.48,18.85,820.270,2078.710,123.599998,22.86,2.4891,363,23705,1.91821,3.76,36924,,,,,,,,,,,,,,,,,,99999,99999,99999,99999,99999,99999,99999,99999,99999,99999,99999,99999
38:23:49,1510894890,2017-11-17T05:01:34,0.769,1742.1,17.59,14.51,18.93,820.290,2078.940,124.083336,22.79,2.4889,363,23709,1.91428,3.76,36919,,,,,,,,,,,,,,,,,,99999,99999,99999,99999,99999,99999,99999,99999,99999,99999,99999,99999
38:24:19,1510894920,2017-11-17T05:02:04,0.773,1742.5,17.62,14.56,18.98,820.300,2079.040,123.550003,22.94,2.4888,363,23709,1.92335,3.76,36914,,,,,,,,,,,,,,,,,,99999,99999,99999,99999,99999,99999,99999,99999,99999,99999,99999,99999
38:24:49,1510894950,2017-11-17T05:02:34,0.769,1742.9,17.66,14.60,19.00,820.350,2079.170,121.550003,23.10,2.4886,363,23709,1.91368,3.76,36909,,,,,,,,,,,,,,,,,,99999,99999,99999,99999,99999,99999,99999,99999,99999,99999,99999,99999
38:25:19,1510894980,2017-11-17T05:03:04,0.771,1743.2,17.68,14.58,19.00,820.210,2079.300,123.199997,22.91,2.4886,363,23710,1.91821,3.76,36904,,,,,,,,,,,,,,,,,,99999,99999,99999,99999,99999,99999,99999,99999,99999,99999,99999,99999
38:25:49,1510895010,2017-11-17T05:03:34,0.772,1743.6,17.69,14.61,19.06,820.180,2079.300,123.566666,22.88,2.4885,363,23711,1.92214,3.76,36898,,,,,,,,,,,,,,,,,,99999,99999,99999,99999,99999,99999,99999,99999,99999,99999,99999,99999
38:26:19,1510895040,2017-11-17T05:04:04,0.772,1744.0,17.71,14.61,19.06,820.150,2079.340,123.766670,22.95,2.4884,363,23711,1.92184,3.76,36893,,,,,,,,,,,,,,,,,,99999,99999,99999,99999,99999,99999,99999,99999,99999,99999,99999,99999
38:26:49,1510895070,2017-11-17T05:04:34,0.771,1744.4,17.71,14.61,19.06,820.180,2079.340,123.166664,22.98,2.4884,363,23708,1.91972,3.76,36888,,,,,,,,,,,,,,,,,,99999,99999,99999,99999,99999,99999,99999,99999,99999,99999,99999,99999
38:27:19,1510895100,2017-11-17T05:05:04,0.770,1744.8,17.71,14.63,19.09,820.260,2079.340,121.766670,22.99,2.4883,363,23710,1.91579,3.76,36883,,,,,,,,,,,,,,,,,,99999,99999,99999,99999,99999,99999,99999,99999,99999,99999,99999,99999
38:27:49,1510895130,2017-11-17T05:05:34,0.773,1745.2,17.71,14.60,19.06,820.180,2079.340,123.983330,23.25,2.4883,363,23711,1.92335,3.76,36878,,,,,,,,,,,,,,,,,,99999,99999,99999,99999,99999,99999,99999,99999,99999,99999,99999,99999
38:28:19,1510895160,2017-11-17T05:06:04,0.771,1745.6,17.70,14.60,19.09,820.260,2079.340,122.150002,23.42,2.4884,363,23710,1.91851,3.76,36873,,,,,,,,,,,,,,,,,,99999,99999,99999,99999,99999,99999,99999,99999,99999,99999,99999,99999
38:28:49,1510895190,2017-11-17T05:06:34,0.773,1745.9,17.68,14.58,19.06,820.260,2079.300,122.883331,23.26,2.4885,363,23711,1.92275,3.76,36868,,,,,,,,,,,,,,,,,,99999,99999,99999,99999,99999,99999,99999,99999,99999,99999,99999,99999
38:29:19,1510895220,2017-11-17T05:07:04,0.770,1746.3,17.65,14.59,19.08,820.240,2079.110,121.449997,23.11,2.4886,363,23710,1.91640,3.76,36862,,,,,,,,,,,,,,,,,,99999,99999,99999,99999,99999,99999,99999,99999,99999,99999,99999,99999
38:29:49,1510895250,2017-11-17T05:07:34,0.770,1746.7,17.63,14.54,19.05,820.330,2079.040,124.166664,23.10,2.4887,363,23710,1.91579,3.76,36857,,,,,,,,,,,,,,,,,,99999,99999,99999,99999,99999,99999,99999,99999,99999,99999,99999,99999
38:30:19,1510895280,2017-11-17T05:08:04,0.768,1747.1,17.60,14.49,19.02,820.360,2079.010,120.650002,23.15,2.4889,363,23708,1.91127,3.76,36852,,,,,,,,,,,,,,,,,,99999,99999,99999,99999,99999,99999,99999,99999,99999,99999,99999,99999
38:30:49,1510895310,2017-11-17T05:08:34,0.772,1747.5,17.57,14.48,18.98,820.370,2078.880,123.650002,23.26,2.4890,363,23705,1.92063,3.76,36847,,,,,,,,,,,,,,,,,,99999,99999,99999,99999,99999,99999,99999,99999,99999,99999,99999,99999
38:31:19,1510895340,2017-11-17T05:09:04,0.773,1747.9,17.54,14.46,18.96,820.400,2078.710,122.750000,23.18,2.4891,363,23706,1.92335,3.76,36842,,,,,,,,,,,,,,,,,,99999,99999,99999,99999,99999,99999,99999,99999,99999,99999,99999,99999
38:31:49,1510895370,2017-11-17T05:09:34,0.772,1748.3,17.49,14.43,18.90,820.390,2078.590,122.366669,23.24,2.4893,363,23705,1.92123,3.76,36837,,,,,,,,,,,,,,,,,,99999,99999,99999,99999,99999,99999,99999,99999,99999,99999,99999,99999
38:32:19,1510895400,2017-11-17T05:10:04,0.767,1748.6,17.45,14.39,18.92,820.430,2078.490,121.366669,23.28,2.4896,363,23704,1.90826,3.76,36832,,,,,,,,,,,,,,,,,,99999,99999,99999,99999,99999,99999,99999,99999,99999,99999,99999,99999
38:32:49,1510895430,2017-11-17T05:10:34,0.772,1749.0,17.42,14.36,18.85,820.410,2078.360,122.500000,23.50,2.4896,363,23702,1.92305,3.76,36826,,,,,,,,,,,,,,,,,,99999,99999,99999,99999,99999,99999,99999,99999,99999,99999,99999,99999
38:33:19,1510895460,2017-11-17T05:11:04,0.767,1749.4,17.38,14.31,18.80,820.390,2078.130,120.033333,23.40,2.4897,363,23702,1.91006,3.76,36821,,,,,,,,,,,,,,,,,,99999,99999,99999,99999,99999,99999,99999,99999,99999,99999,99999,99999
38:33:49,1510895490,2017-11-17T05:11:34,0.771,1749.8,17.34,14.28,18.78,820.450,2078.090,121.766670,23.44,2.4900,363,23703,1.92002,3.76,36816,,,,,,,,,,,,,,,,,,99999,99999,99999,99999,99999,99999,99999,99999,99999,99999,99999,99999
38:34:19,1510895520,2017-11-17T05:12:04,0.770,1750.2,17.28,14.27,18.75,820.330,2077.900,122.833336,23.62,2.4903,363,23698,1.91821,3.76,36811,,,,,,,,,,,,,,,,,,99999,99999,99999,99999,99999,99999,99999,99999,99999,99999,99999,99999
38:34:49,1510895550,2017-11-17T05:12:34,0.765,1750.6,17.24,14.21,18.72,820.370,2077.730,120.833336,23.50,2.4905,363,23700,1.90494,3.76,36806,,,,,,,,,,,,,,,,,,99999,99999,99999,99999,99999,99999,99999,99999,99999,99999,99999,99999
38:35:19,1510895580,2017-11-17T05:13:04,0.766,1750.9,17.20,14.18,18.67,820.430,2077.570,121.699997,23.65,2.4906,363,23697,1.90735,3.76,36801,,,,,,,,,,,,,,,,,,99999,99999,99999,99999,99999,99999,99999,99999,99999,99999,99999,99999
38:35:49,1510895610,2017-11-17T05:13:34,0.766,1751.3,17.16,14.15,18.61,820.360,2077.440,121.366669,23.37,2.4908,363,23698,1.90886,3.76,36796,,,,,,,,,,,,,,,,,,99999,99999,99999,99999,99999,99999,99999,99999,99999,99999,99999,99999
38:36:19,1510895640,2017-11-17T05:14:04,0.767,1751.7,17.12,14.13,18.56,820.370,2077.270,122.266670,23.67,2.4909,363,23698,1.91067,3.76,36791,,,,,,,,,,,,,,,,,,99999,99999,99999,99999,99999,99999,99999,99999,99999,99999,99999,99999
38:36:49,1510895670,2017-11-17T05:14:34,0.770,1752.1,17.07,14.08,18.52,820.300,2077.170,123.000000,23.77,2.4912,363,23694,1.91730,3.76,36785,,,,,,,,,,,,,,,,,,99999,99999,99999,99999,99999,99999,99999,99999,99999,99999,99999,99999
38:37:19,1510895700,2017-11-17T05:15:04,0.764,1752.5,17.04,14.06,18.48,820.310,2077.040,119.900002,23.75,2.4914,363,23695,1.90404,3.76,36780,,,,,,,,,,,,,,,,,,99999,99999,99999,99999,99999,99999,99999,99999,99999,99999,99999,99999
38:37:49,1510895730,2017-11-17T05:15:34,0.765,1752.9,17.01,14.04,18.44,820.270,2076.870,121.433334,23.79,2.4914,363,23692,1.90585,3.76,36775,,,,,,,,,,,,,,,,,,99999,99999,99999,99999,99999,99999,99999,99999,99999,99999,99999,99999
38:38:19,1510895760,2017-11-17T05:16:04,0.764,1753.2,16.98,14.00,18.43,820.300,2076.810,119.783333,24.06,2.4916,363,23691,1.90434,3.76,36770,,,,,,,,,,,,,,,,,,99999,99999,99999,99999,99999,99999,99999,99999,99999,99999,99999,99999
38:38:49,1510895790,2017-11-17T05:16:34,0.765,1753.6,16.93,13.99,18.42,820.310,2076.650,121.066666,23.90,2.4918,363,23693,1.90555,3.76,36765,,,,,,,,,,,,,,,,,,99999,99999,99999,99999,99999,99999,99999,99999,99999,99999,99999,99999
38:39:19,1510895820,2017-11-17T05:17:04,0.765,1754.0,16.91,13.97,18.36,820.400,2076.580,121.966667,23.98,2.4919,363,23690,1.90615,3.76,36760,,,,,,,,,,,,,,,,,,99999,99999,99999,99999,99999,99999,99999,99999,99999,99999,99999,99999
38:39:49,1510895850,2017-11-17T05:17:34,0.769,1754.4,16.88,13.95,18.32,820.280,2076.420,121.383331,24.33,2.4920,363,23694,1.91640,3.76,36755,,,,,,,,,,,,,,,,,,99999,99999,99999,99999,99999,99999,99999,99999,99999,99999,99999,99999
38:40:19,1510895880,2017-11-17T05:18:04,0.768,1754.8,16.83,13.93,18.28,820.260,2076.290,122.033333,24.40,2.4922,363,23692,1.91368,3.76,36750,,,,,,,,,,,,,,,,,,99999,99999,99999,99999,99999,99999,99999,99999,99999,99999,99999,99999
38:40:49,1510895910,2017-11-17T05:18:34,0.769,1755.2,16.81,13.90,18.25,820.340,2076.250,122.300003,24.30,2.4924,363,23690,1.91579,3.76,36744,,,,,,,,,,,,,,,,,,99999,99999,99999,99999,99999,99999,99999,99999,99999,99999,99999,99999
38:41:19,1510895940,2017-11-17T05:19:04,0.766,1755.5,16.79,13.88,18.27,820.320,2076.190,122.516670,24.00,2.4925,363,23690,1.90856,3.76,36739,,,,,,,,,,,,,,,,,,99999,99999,99999,99999,99999,99999,99999,99999,99999,99999,99999,99999
38:41:49,1510895970,2017-11-17T05:19:34,0.762,1755.9,16.78,13.86,18.22,820.240,2076.120,120.199997,24.00,2.4925,363,23689,1.90013,3.76,36734,,,,,,,,,,,,,,,,,,99999,99999,99999,99999,99999,99999,99999,99999,99999,99999,99999,99999
38:42:19,1510896000,2017-11-17T05:20:04,0.769,1756.3,16.76,13.84,18.22,820.250,2076.060,121.466667,24.09,2.4926,363,23687,1.91579,3.76,36729,,,,,,,,,,,,,,,,,,99999,99999,99999,99999,99999,99999,99999,99999,99999,99999,99999,99999
38:42:49,1510896030,2017-11-17T05:20:34,0.767,1756.7,16.74,13.84,18.20,820.150,2075.960,121.616669,24.08,2.4926,363,23686,1.91157,3.76,36724,,,,,,,,,,,,,,,,,,99999,99999,99999,99999,99999,99999,99999,99999,99999,99999,99999,99999
38:43:19,1510896060,2017-11-17T05:21:04,0.764,1757.1,16.73,13.80,18.19,820.150,2075.960,121.466667,24.43,2.4927,363,23686,1.90464,3.76,36719,,,,,,,,,,,,,,,,,,99999,99999,99999,99999,99999,99999,99999,99999,99999,99999,99999,99999
38:43:49,1510896090,2017-11-17T05:21:34,0.767,1757.5,16.71,13.82,18.16,820.130,2075.830,122.349998,24.68,2.4927,363,23687,1.91248,3.76,36714,,,,,,,,,,,,,,,,,,99999,99999,99999,99999,99999,99999,99999,99999,99999,99999,99999,99999
38:44:19,1510896120,2017-11-17T05:22:04,0.763,1757.8,16.69,13.79,18.16,820.130,2075.790,118.883331,24.47,2.4928,363,23687,1.90223,3.76,36709,,,,,,,,,,,,,,,,,,99999,99999,99999,99999,99999,99999,99999,99999,99999,99999,99999,99999
38:44:49,1510896150,2017-11-17T05:22:34,0.763,1758.2,16.67,13.74,18.13,820.110,2075.730,119.366669,24.46,2.4929,363,23683,1.90193,3.76,36704,,,,,,,,,,,,,,,,,,99999,99999,99999,99999,99999,99999,99999,99999,99999,99999,99999,99999
38:45:19,1510896180,2017-11-17T05:23:04,0.767,1758.6,16.65,13.75,18.08,820.220,2075.670,121.816666,24.72,2.4930,363,23686,1.91187,3.76,36698,,,,,,,,,,,,,,,,,,99999,99999,99999,99999,99999,99999,99999,99999,99999,99999,99999,99999
38:45:49,1510896210,2017-11-17T05:23:34,0.764,1759.0,16.64,13.74,18.11,820.250,2075.670,120.266670,24.87,2.4931,363,23684,1.90464,3.76,36693,,,,,,,,,,,,,,,,,,99999,99999,99999,99999,99999,99999,99999,99999,99999,99999,99999,99999
38:46:19,1510896240,2017-11-17T05:24:04,0.768,1759.4,16.63,13.73,18.09,820.280,2075.600,120.683334,24.55,2.4931,363,23684,1.91549,3.76,36688,,,,,,,,,,,,,,,,,,99999,99999,99999,99999,99999,99999,99999,99999,99999,99999,99999,99999
38:46:49,1510896270,2017-11-17T05:24:34,0.768,1759.8,16.62,13.74,18.05,820.230,2075.600,120.766670,24.30,2.4932,363,23684,1.91368,3.76,36683,,,,,,,,,,,,,,,,,,99999,99999,99999,99999,99999,99999,99999,99999,99999,99999,99999,99999
38:47:19,1510896300,2017-11-17T05:25:04,0.763,1760.1,16.59,13.71,18.01,820.270,2075.430,120.150002,24.35,2.4933,363,23685,1.90133,3.76,36678,,,,,,,,,,,,,,,,,,99999,99999,99999,99999,99999,99999,99999,99999,99999,99999,99999,99999
38:47:49,1510896330,2017-11-17T05:25:34,0.767,1760.5,16.59,13.68,18.01,820.160,2075.430,121.016670,24.42,2.4933,363,23683,1.91217,3.76,36673,,,,,,,,,,,,,,,,,,99999,99999,99999,99999,99999,99999,99999,99999,99999,99999,99999,99999
38:48:19,1510896360,2017-11-17T05:26:04,0.767,1760.9,16.59,13.68,18.05,820.130,2075.430,121.349998,24.25,2.4933,363,23684,1.91157,3.76,36668,,,,,,,,,,,,,,,,,,99999,99999,99999,99999,99999,99999,99999,99999,99999,99999,99999,99999
38:48:49,1510896390,2017-11-17T05:26:34,0.762,1761.3,16.59,13.68,18.03,820.110,2075.430,119.383331,24.22,2.4933,363,23682,1.89983,3.76,36663,,,,,,,,,,,,,,,,,,99999,99999,99999,99999,99999,99999,99999,99999,99999,99999,99999,99999
38:49:19,1510896420,2017-11-17T05:27:04,0.763,1761.7,16.59,13.65,18.01,820.160,2075.430,121.349998,24.40,2.4933,363,23680,1.90284,3.76,36658,,,,,,,,,,,,,,,,,,99999,99999,99999,99999,99999,99999,99999,99999,99999,99999,99999,99999
38:49:49,1510896450,2017-11-17T05:27:34,0.767,1762.0,16.59,13.65,18.01,820.130,2075.430,120.750000,24.12,2.4933,363,23683,1.91338,3.76,36652,,,,,,,,,,,,,,,,,,99999,99999,99999,99999,99999,99999,99999,99999,99999,99999,99999,99999
38:50:19,1510896480,2017-11-17T05:28:04,0.763,1762.4,16.59,13.65,18.03,820.080,2075.430,121.000000,24.07,2.4933,363,23684,1.90314,3.76,36647,,,,,,,,,,,,,,,,,,99999,99999,99999,99999,99999,99999,99999,99999,99999,99999,99999,99999
38:50:49,1510896510,2017-11-17T05:28:34,0.761,1762.8,16.58,13.65,18.01,820.030,2075.430,119.283333,24.12,2.4934,363,23682,1.89863,3.76,36642,,,,,,,,,,,,,,,,,,99999,99999,99999,99999,99999,99999,99999,99999,99999,99999,99999,99999
38:51:19,1510896540,2017-11-17T05:29:04,0.767,1763.2,16.59,13.67,18.00,820.130,2075.430,122.383331,24.35,2.4933,363,23682,1.91157,3.76,36637,,,,,,,,,,,,,,,,,,99999,99999,99999,99999,99999,99999,99999,99999,99999,99999,99999,99999
38:51:49,1510896570,2017-11-17T05:29:34,0.762,1763.6,16.60,13.66,18.00,820.180,2075.500,120.050003,24.66,2.4933,363,23681,1.89983,3.76,36632,,,,,,,,,,,,,,,,,,99999,99999,99999,99999,99999,99999,99999,99999,99999,99999,99999,99999
38:52:19,1510896600,2017-11-17T05:30:04,0.764,1764.0,16.59,13.66,18.03,820.160,2075.430,121.733330,24.52,2.4933,363,23682,1.90585,3.76,36627,,,,,,,,,,,,,,,,,,99999,99999,99999,99999,99999,99999,99999,99999,99999,99999,99999,99999
38:52:49,1510896630,2017-11-17T05:30:34,0.764,1764.3,16.59,13.66,18.01,820.160,2075.430,119.083336,24.76,2.4933,363,23686,1.90434,3.76,36622,,,,,,,,,,,,,,,,,,99999,99999,99999,99999,99999,99999,99999,99999,99999,99999,99999,99999
38:53:19,1510896660,2017-11-17T05:31:04,0.767,1764.7,16.61,13.66,18.05,820.180,2075.500,121.449997,24.71,2.4932,363,23683,1.91157,3.76,36617,,,,,,,,,,,,,,,,,,99999,99999,99999,99999,99999,99999,99999,99999,99999,99999,99999,99999
38:53:49,1510896690,2017-11-17T05:31:34,0.764,1765.1,16.59,13.66,18.05,820.110,2075.430,122.633331,24.93,2.4932,363,23681,1.90434,3.76,36612,,,,,,,,,,,,,,,,,,99999,99999,99999,99999,99999,99999,99999,99999,99999,99999,99999,99999
38:54:19,1510896720,2017-11-17T05:32:04,0.766,1765.5,16.60,13.68,18.03,820.180,2075.500,120.916664,24.61,2.4933,363,23683,1.91006,3.76,36606,,,,,,,,,,,,,,,,,,99999,99999,99999,99999,99999,99999,99999,99999,99999,99999,99999,99999
38:54:49,1510896750,2017-11-17T05:32:34,0.764,1765.9,16.58,13.67,18.01,820.240,2075.430,119.216667,24.93,2.4933,363,23679,1.90374,3.76,36601,,,,,,,,,,,,,,,,,,99999,99999,99999,99999,99999,99999,99999,99999,99999,99999,99999,99999
38:55:19,1510896780,2017-11-17T05:33:04,0.767,1766.3,16.59,13.66,18.05,820.160,2075.430,121.516670,25.09,2.4932,363,23681,1.91338,3.76,36596,,,,,,,,,,,,,,,,,,99999,99999,99999,99999,99999,99999,99999,99999,99999,99999,99999,99999
38:55:49,1510896810,2017-11-17T05:33:34,0.764,1766.6,16.58,13.67,18.00,820.110,2075.430,119.599998,25.12,2.4933,363,23680,1.90524,3.76,36591,,,,,,,,,,,,,,,,,,99999,99999,99999,99999,99999,99999,99999,99999,99999,99999,99999,99999
38:56:19,1510896840,2017-11-17T05:34:04,0.767,1767.0,16.56,13.64,18.01,820.060,2075.370,122.583336,25.19,2.4934,363,23683,1.91248,3.76,36586,,,,,,,,,,,,,,,,,,99999,99999,99999,99999,99999,99999,99999,99999,99999,99999,99999,99999
38:56:49,1510896870,2017-11-17T05:34:34,0.761,1767.4,16.53,13.62,17.98,820.090,2075.270,119.949997,25.03,2.4936,363,23679,1.89743,3.76,36581,,,,,,,,,,,,,,,,,,99999,99999,99999,99999,99999,99999,99999,99999,99999,99999,99999,99999
38:57:19,1510896900,2017-11-17T05:35:04,0.765,1767.8,16.52,13.61,17.98,820.060,2075.200,121.466667,25.23,2.4936,363,23679,1.90645,3.76,36576,,,,,,,,,,,,,,,,,,99999,99999,99999,99999,99999,99999,99999,99999,99999,99999,99999,99999
38:57:49,1510896930,2017-11-17T05:35:34,0.765,1768.2,16.50,13.58,17.97,820.070,2075.140,121.733330,24.86,2.4937,363,23677,1.90765,3.76,36571,,,,,,,,,,,,,,,,,,99999,99999,99999,99999,99999,99999,99999,99999,99999,99999,99999,99999
38:58:19,1510896960,2017-11-17T05:36:04,0.761,1768.5,16.47,13.55,17.97,819.950,2074.980,119.716667,25.18,2.4937,363,23677,1.89833,3.76,36566,,,,,,,,,,,,,,,,,,99999,99999,99999,99999,99999,99999,99999,99999,99999,99999,99999,99999
38:58:49,1510896990,2017-11-17T05:36:34,0.766,1768.9,16.44,13.51,17.94,819.800,2074.920,121.866669,24.95,2.4939,363,23678,1.91127,3.76,36560,,,,,,,,,,,,,,,,,,99999,99999,99999,99999,99999,99999,99999,99999,99999,99999,99999,99999
38:59:19,1510897020,2017-11-17T05:37:04,0.765,1769.3,16.43,13.48,17.89,819.820,2074.920,121.566666,24.97,2.4940,363,23680,1.90705,3.76,36555,,,,,,,,,,,,,,,,,,99999,99999,99999,99999,99999,99999,99999,99999,99999,99999,99999,99999
38:59:49,1510897050,2017-11-17T05:37:34,0.765,1769.7,16.39,13.49,17.86,819.940,2074.810,122.083336,24.92,2.4942,363,23678,1.90826,3.76,36550,,,,,,,,,,,,,,,,,,99999,99999,99999,99999,99999,99999,99999,99999,99999,99999,99999,99999
39:00:19,1510897080,2017-11-17T05:38:04,0.766,1770.1,16.38,13.45,17.80,819.810,2074.750,121.250000,25.04,2.4943,363,23676,1.91127,3.76,36545,,,,,,,,,,,,,,,,,,99999,99999,99999,99999,99999,99999,99999,99999,99999,99999,99999,99999
39:00:49,1510897110,2017-11-17T05:38:34,0.761,1770.5,16.35,13.44,17.82,820.000,2074.580,119.699997,24.88,2.4943,363,23676,1.89743,3.76,36540,,,,,,,,,,,,,,,,,,99999,99999,99999,99999,99999,99999,99999,99999,99999,99999,99999,99999
39:01:19,1510897140,2017-11-17T05:39:04,0.766,1770.8,16.32,13.39,17.80,819.930,2074.520,120.433334,24.77,2.4945,363,23675,1.91157,3.76,36535,,,,,,,,,,,,,,,,,,99999,99999,99999,99999,99999,99999,99999,99999,99999,99999,99999,99999
39:01:49,1510897170,2017-11-17T05:39:34,0.765,1771.2,16.30,13.40,17.77,819.860,2074.410,119.033333,25.53,2.4945,363,23673,1.90795,3.76,36530,,,,,,,,,,,,,,,,,,99999,99999,99999,99999,99999,99999,99999,99999,99999,99999,99999,99999
39:02:19,1510897200,2017-11-17T05:40:04,0.764,1771.6,16.29,13.39,17.74,820.070,2074.410,119.316666,24.81,2.4947,363,23675,1.90494,3.75,36525,,,,,,,,,,,,,,,,,,99999,99999,99999,99999,99999,99999,99999,99999,99999,99999,99999,99999
39:02:49,1510897230,2017-11-17T05:40:34,0.764,1772.0,16.28,13.33,17.70,820.020,2074.410,117.400002,24.87,2.4947,363,23672,1.90494,3.75,36520,,,,,,,,,,,,,,,,,,99999,99999,99999,99999,99999,99999,99999,99999,99999,99999,99999,99999
39:03:19,1510897260,2017-11-17T05:41:04,0.766,1772.4,16.26,13.35,17.69,820.050,2074.350,121.416664,24.81,2.4948,363,23671,1.91067,3.75,36514,,,,,,,,,,,,,,,,,,99999,99999,99999,99999,99999,99999,99999,99999,99999,99999,99999,99999
39:03:49,1510897290,2017-11-17T05:41:34,0.765,1772.7,16.24,13.33,17.66,819.920,2074.290,121.383331,24.79,2.4949,363,23674,1.90886,3.75,36509,,,,,,,,,,,,,,,,,,99999,99999,99999,99999,99999,99999,99999,99999,99999,99999,99999,99999
39:04:19,1510897320,2017-11-17T05:42:04,0.760,1773.1,16.24,13.31,17.66,820.080,2074.290,118.400002,25.19,2.4949,363,23674,1.89713,3.75,36504,,,,,,,,,,,,,,,,,,99999,99999,99999,99999,99999,99999,99999,99999,99999,99999,99999,99999
39:04:49,1510897350,2017-11-17T05:42:34,0.762,1773.5,16.23,13.33,17.67,819.980,2074.230,120.949997,25.54,2.4949,363,23673,1.90043,3.75,36499,,,,,,,,,,,,,,,,,,99999,99999,99999,99999,99999,99999,99999,99999,99999,99999,99999,99999
39:05:19,1510897380,2017-11-17T05:43:04,0.765,1773.9,16.21,13.31,17.64,819.930,2074.120,121.433334,25.41,2.4950,363,23673,1.90765,3.75,36494,,,,,,,,,,,,,,,,,,99999,99999,99999,99999,99999,99999,99999,99999,99999,99999,99999,99999
39:05:49,1510897410,2017-11-17T05:43:34,0.766,1774.3,16.21,13.30,17.67,820.010,2074.120,120.949997,25.56,2.4949,363,23671,1.91067,3.75,36489,,,,,,,,,,,,,,,,,,99999,99999,99999,99999,99999,99999,99999,99999,99999,99999,99999,99999
39:06:19,1510897440,2017-11-17T05:44:04,0.765,1774.7,16.21,13.30,17.66,819.880,2074.120,120.900002,25.39,2.4950,363,23672,1.90856,3.75,36484,,,,,,,,,,,,,,,,,,99999,99999,99999,99999,99999,99999,99999,99999,99999,99999,99999,99999
39:06:49,1510897470,2017-11-17T05:44:34,0.764,1775.0,16.20,13.29,17.63,819.980,2074.120,121.099998,25.91,2.4950,363,23670,1.90675,3.75,36479,,,,,,,,,,,,,,,,,,99999,99999,99999,99999,99999,99999,99999,99999,99999,99999,99999,99999
39:07:19,1510897500,2017-11-17T05:45:04,0.763,1775.4,16.18,13.28,17.64,819.880,2074.000,120.033333,25.51,2.4951,363,23671,1.90494,3.75,36474,,,,,,,,,,,,,,,,,,99999,99999,99999,99999,99999,99999,99999,99999,99999,99999,99999,99999
39:07:49,1510897530,2017-11-17T05:45:34,0.760,1775.8,16.16,13.28,17.63,819.810,2073.950,120.116669,25.39,2.4952,363,23669,1.89683,3.75,36469,,,,,,,,,,,,,,,,,,99999,99999,99999,99999,99999,99999,99999,99999,99999,99999,99999,99999
39:08:19,1510897560,2017-11-17T05:46:04,0.759,1776.2,16.16,13.24,17.63,819.860,2073.950,119.466667,25.40,2.4952,363,23669,1.89442,3.75,36463,,,,,,,,,,,,,,,,,,99999,99999,99999,99999,99999,99999,99999,99999,99999,99999,99999,99999
39:08:49,1510897590,2017-11-17T05:46:34,0.762,1776.6,16.15,13.26,17.58,819.790,2073.950,121.283333,25.54,2.4953,363,23667,1.90193,3.75,36458,,,,,,,,,,,,,,,,,,99999,99999,99999,99999,99999,99999,99999,99999,99999,99999,99999,99999
39:09:19,1510897620,2017-11-17T05:47:04,0.761,1776.9,16.14,13.25,17.58,819.920,2073.890,121.250000,25.74,2.4953,363,23670,1.89983,3.75,36453,,,,,,,,,,,,,,,,,,99999,99999,99999,99999,99999,99999,99999,99999,99999,99999,99999,99999
39:09:49,1510897650,2017-11-17T05:47:34,0.759,1777.3,16.13,13.24,17.58,820.090,2073.830,119.533333,25.85,2.4953,363,23666,1.89322,3.75,36448,,,,,,,,,,,,,,,,,,99999,99999,99999,99999,99999,99999,99999,99999,99999,99999,99999,99999
39:10:19,1510897680,2017-11-17T05:48:04,0.764,1777.7,16.12,13.22,17.55,820.010,2073.830,122.033333,26.04,2.4953,363,23669,1.90524,3.75,36443,,,,,,,,,,,,,,,,,,99999,99999,99999,99999,99999,99999,99999,99999,99999,99999,99999,99999
39:10:49,1510897710,2017-11-17T05:48:34,0.757,1778.1,16.11,13.21,17.59,820.060,2073.830,118.716667,25.48,2.4955,363,23668,1.88963,3.75,36438,,,,,,,,,,,,,,,,,,99999,99999,99999,99999,99999,99999,99999,99999,99999,99999,99999,99999
39:11:19,1510897740,2017-11-17T05:49:04,0.762,1778.5,16.09,13.22,17.55,819.990,2073.760,120.566666,25.35,2.4956,363,23667,1.90043,3.75,36433,,,,,,,,,,,,,,,,,,99999,99999,99999,99999,99999,99999,99999,99999,99999,99999,99999,99999
39:11:49,1510897770,2017-11-17T05:49:34,0.764,1778.8,16.09,13.21,17.55,819.960,2073.760,120.000000,25.28,2.4956,363,23667,1.90735,3.75,36428,,,,,,,,,,,,,,,,,,99999,99999,99999,99999,99999,99999,99999,99999,99999,99999,99999,99999
39:12:19,1510897800,2017-11-17T05:50:04,0.763,1779.2,16.09,13.21,17.55,819.990,2073.760,120.416664,25.05,2.4956,363,23665,1.90314,3.75,36423,,,,,,,,,,,,,,,,,,99999,99999,99999,99999,99999,99999,99999,99999,99999,99999,99999,99999
39:12:49,1510897830,2017-11-17T05:50:34,0.763,1779.6,16.09,13.22,17.53,820.070,2073.760,121.383331,25.14,2.4956,363,23667,1.90524,3.75,36418,,,,,,,,,,,,,,,,,,99999,99999,99999,99999,99999,99999,99999,99999,99999,99999,99999,99999
39:13:19,1510897860,2017-11-17T05:51:04,0.759,1780.0,16.09,13.21,17.55,819.960,2073.760,119.099998,25.20,2.4956,363,23668,1.89322,3.75,36413,,,,,,,,,,,,,,,,,,99999,99999,99999,99999,99999,99999,99999,99999,99999,99999,99999,99999
39:13:49,1510897890,2017-11-17T05:51:34,0.760,1780.4,16.09,13.22,17.55,819.910,2073.760,120.116669,25.28,2.4956,363,23664,1.89713,3.75,36407,,,,,,,,,,,,,,,,,,99999,99999,99999,99999,99999,99999,99999,99999,99999,99999,99999,99999
39:14:19,1510897920,2017-11-17T05:52:04,0.759,1780.8,16.10,13.20,17.53,819.830,2073.760,118.233330,24.60,2.4956,363,23667,1.89353,3.75,36402,,,,,,,,,,,,,,,,,,99999,99999,99999,99999,99999,99999,99999,99999,99999,99999,99999,99999
39:14:49,1510897950,2017-11-17T05:52:34,0.765,1781.1,16.12,13.24,17.53,819.960,2073.830,119.400002,24.75,2.4954,363,23666,1.91006,3.75,36397,,,,,,,,,,,,,,,,,,99999,99999,99999,99999,99999,99999,99999,99999,99999,99999,99999,99999
39:15:19,1510897980,2017-11-17T05:53:04,0.763,1781.5,16.14,13.25,17.58,819.950,2073.890,119.716667,24.98,2.4953,363,23667,1.90404,3.75,36392,,,,,,,,,,,,,,,,,,99999,99999,99999,99999,99999,99999,99999,99999,99999,99999,99999,99999
39:15:49,1510898010,2017-11-17T05:53:34,0.761,1781.9,16.16,13.28,17.56,819.830,2073.950,121.400002,25.51,2.4952,363,23669,1.89953,3.75,36387,,,,,,,,,,,,,,,,,,99999,99999,99999,99999,99999,99999,99999,99999,99999,99999,99999,99999
39:16:19,1510898040,2017-11-17T05:54:04,0.766,1782.3,16.22,13.31,17.63,819.880,2074.120,120.616669,25.69,2.4948,363,23671,1.91157,3.75,36382,,,,,,,,,,,,,,,,,,99999,99999,99999,99999,99999,99999,99999,99999,99999,99999,99999,99999
39:16:49,1510898070,2017-11-17T05:54:34,0.761,1782.7,16.30,13.38,17.66,819.810,2074.410,120.199997,25.71,2.4945,363,23672,1.89833,3.75,36377,,,,,,,,,,,,,,,,,,99999,99999,99999,99999,99999,99999,99999,99999,99999,99999,99999,99999
39:17:19,1510898100,2017-11-17T05:55:04,0.760,1783.0,16.38,13.44,17.70,819.780,2074.750,119.533333,25.72,2.4942,363,23673,1.89502,3.75,36372,,,,,,,,,,,,,,,,,,99999,99999,99999,99999,99999,99999,99999,99999,99999,99999,99999,99999
39:17:49,1510898130,2017-11-17T05:55:34,0.762,1783.4,16.46,13.54,17.80,819.870,2074.980,119.316666,25.60,2.4938,363,23676,1.90103,3.75,36367,,,,,,,,,,,,,,,,,,99999,99999,99999,99999,99999,99999,99999,99999,99999,99999,99999,99999
39:18:19,1510898160,2017-11-17T05:56:04,0.767,1783.8,16.58,13.63,17.89,820.080,2075.430,120.983330,25.60,2.4933,363,23678,1.91278,3.75,36362,,,,,,,,,,,,,,,,,,99999,99999,99999,99999,99999,99999,99999,99999,99999,99999,99999,99999
39:18:49,1510898190,2017-11-17T05:56:34,0.762,1784.2,16.67,13.72,18.00,819.980,2075.730,121.050003,25.41,2.4929,363,23681,1.90013,3.75,36356,,,,,,,,,,,,,,,,,,99999,99999,99999,99999,99999,99999,99999,99999,99999,99999,99999,99999
39:19:19,1510898220,2017-11-17T05:57:04,0.767,1784.6,16.78,13.81,18.06,819.970,2076.120,119.233330,25.41,2.4924,363,23686,1.91187,3.75,36351,,,,,,,,,,,,,,,,,,99999,99999,99999,99999,99999,99999,99999,99999,99999,99999,99999,99999
39:19:49,1510898250,2017-11-17T05:57:34,0.768,1784.9,16.88,13.90,18.16,819.930,2076.420,118.983330,25.46,2.4919,363,23690,1.91489,3.75,36346,,,,,,,,,,,,,,,,,,99999,99999,99999,99999,99999,99999,99999,99999,99999,99999,99999,99999
39:20:19,1510898280,2017-11-17T05:58:04,0.768,1785.3,17.00,14.02,18.27,819.980,2076.870,124.699997,24.65,2.4914,363,23693,1.91217,3.75,36341,,,,,,,,,,,,,,,,,,99999,99999,99999,99999,99999,99999,99999,99999,99999,99999,99999,99999
39:20:49,1510898310,2017-11-17T05:58:34,0.766,1785.7,17.09,14.09,18.40,820.000,2077.210,122.166664,24.52,2.4911,363,23694,1.90856,3.75,36336,,,,,,,,,,,,,,,,,,99999,99999,99999,99999,99999,99999,99999,99999,99999,99999,99999,99999
39:21:19,1510898340,2017-11-17T05:59:04,0.768,1786.1,17.21,14.21,18.47,819.980,2077.570,122.816666,24.50,2.4904,363,23697,1.91157,3.75,36331,,,,,,,,,,,,,,,,,,99999,99999,99999,99999,99999,99999,99999,99999,99999,99999,99999,99999
39:21:49,1510898370,2017-11-17T05:59:34,0.770,1786.5,17.33,14.30,18.64,819.920,2078.020,123.383331,24.57,2.4899,363,23697,1.91670,3.75,36326,,,,,,,,,,,,,,,,,,99999,99999,99999,99999,99999,99999,99999,99999,99999,99999,99999,99999
39:22:19,1510898400,2017-11-17T06:00:04,0.770,1786.9,17.45,14.40,18.69,819.840,2078.490,121.133331,24.44,2.4895,363,23704,1.91579,3.75,36321,,,,,,,,,,,,,,,,,,99999,99999,99999,99999,99999,99999,99999,99999,99999,99999,99999,99999
39:22:49,1510898430,2017-11-17T06:00:34,0.776,1787.2,17.56,14.50,18.78,819.810,2078.820,111.633331,25.08,2.4888,363,23706,1.93092,3.75,36315,,,,,,,,,,,,,,,,,,99999,99999,99999,99999,99999,99999,99999,99999,99999,99999,99999,99999
39:23:19,1510898460,2017-11-17T06:01:04,0.774,1787.6,17.67,14.61,18.92,819.670,2079.170,120.566666,24.28,2.4884,363,23709,1.92638,3.75,36310,,,,,,,,,,,,,,,,,,99999,99999,99999,99999,99999,99999,99999,99999,99999,99999,99999,99999
39:23:49,1510898490,2017-11-17T06:01:34,0.772,1788.0,17.79,14.72,19.02,819.700,2079.690,124.516670,24.25,2.4880,363,23710,1.92153,3.75,36305,,,,,,,,,,,,,,,,,,99999,99999,99999,99999,99999,99999,99999,99999,99999,99999,99999,99999
39:24:19,1510898520,2017-11-17T06:02:04,0.769,1788.4,17.93,14.83,19.13,819.590,2080.160,123.199997,23.79,2.4873,363,23716,1.91248,3.75,36300,,,,,,,,,,,,,,,,,,99999,99999,99999,99999,99999,99999,99999,99999,99999,99999,99999,99999
39:24:49,1510898550,2017-11-17T06:02:34,0.771,1788.8,18.05,14.96,19.27,819.640,2080.510,121.483330,23.56,2.4867,363,23718,1.91791,3.75,36295,,,,,,,,,,,,,,,,,,99999,99999,99999,99999,99999,99999,99999,99999,99999,99999,99999,99999
39:25:19,1510898580,2017-11-17T06:03:04,0.771,1789.2,18.18,15.08,19.38,819.730,2080.970,126.233330,23.16,2.4862,363,23721,1.91791,3.75,36290,,,,,,,,,,,,,,,,,,99999,99999,99999,99999,99999,99999,99999,99999,99999,99999,99999,99999
39:25:49,1510898610,2017-11-17T06:03:34,0.771,1789.6,18.30,15.17,19.50,819.600,2081.360,124.366669,22.96,2.4857,363,23724,1.91640,3.75,36284,,,,,,,,,,,,,,,,,,99999,99999,99999,99999,99999,99999,99999,99999,99999,99999,99999,99999
39:26:19,1510898640,2017-11-17T06:04:04,0.775,1790.0,18.41,15.27,19.64,819.650,2081.760,124.683334,22.87,2.4852,363,23726,1.92547,3.75,36279,,,,,,,,,,,,,,,,,,99999,99999,99999,99999,99999,99999,99999,99999,99999,99999,99999,99999
39:26:49,1510898670,2017-11-17T06:04:34,0.772,1790.3,18.53,15.40,19.74,819.650,2082.220,123.250000,22.87,2.4847,363,23734,1.91942,3.75,36274,,,,,,,,,,,,,,,,,,99999,99999,99999,99999,99999,99999,99999,99999,99999,99999,99999,99999
39:27:19,1510898700,2017-11-17T06:05:04,0.776,1790.7,18.64,15.48,19.86,819.650,2082.580,124.483330,22.97,2.4842,363,23735,1.92819,3.75,36269,,,,,,,,,,,,,,,,,,99999,99999,99999,99999,99999,99999,99999,99999,99999,99999,99999,99999
39:27:49,1510898730,2017-11-17T06:05:34,0.775,1791.1,18.76,15.58,20.00,819.510,2083.030,123.783333,22.53,2.4837,363,23737,1.92577,3.75,36264,,,,,,,,,,,,,,,,,,99999,99999,99999,99999,99999,99999,99999,99999,99999,99999,99999,99999
39:28:19,1510898760,2017-11-17T06:06:04,0.775,1791.5,18.85,15.67,20.10,819.470,2083.270,123.500000,22.33,2.4832,363,23742,1.92426,3.75,36258,,,,,,,,,,,,,,,,,,99999,99999,99999,99999,99999,99999,99999,99999,99999,99999,99999,99999
39:28:49,1510898790,2017-11-17T06:06:34,0.778,1791.9,18.96,15.75,20.13,819.440,2083.680,123.583336,22.33,2.4828,363,23741,1.93062,3.75,36253,,,,,,,,,,,,,,,,,,99999,99999,99999,99999,99999,99999,99999,99999,99999,99999,99999,99999
39:29:19,1510898820,2017-11-17T06:07:04,0.781,1792.3,19.04,15.82,20.30,819.470,2083.970,124.016670,22.35,2.4824,363,23745,1.93821,3.75,36248,,,,,,,,,,,,,,,,,,99999,99999,99999,99999,99999,99999,99999,99999,99999,99999,99999,99999
39:29:49,1510898850,2017-11-17T06:07:34,0.778,1792.7,19.12,15.91,20.35,819.450,2084.310,125.183334,22.41,2.4821,363,23746,1.93001,3.75,36243,,,,,,,,,,,,,,,,,,99999,99999,99999,99999,99999,99999,99999,99999,99999,99999,99999,99999
39:30:19,1510898880,2017-11-17T06:08:04,0.778,1793.1,19.20,15.97,20.43,819.540,2084.540,126.566666,22.16,2.4817,363,23750,1.93001,3.75,36238,,,,,,,,,,,,,,,,,,99999,99999,99999,99999,99999,99999,99999,99999,99999,99999,99999,99999
39:30:49,1510898910,2017-11-17T06:08:34,0.779,1793.4,19.27,16.03,20.54,819.550,2084.830,126.916664,22.04,2.4815,363,23749,1.93213,3.75,36232,,,,,,,,,,,,,,,,,,99999,99999,99999,99999,99999,99999,99999,99999,99999,99999,99999,99999
39:31:19,1510898940,2017-11-17T06:09:04,0.780,1793.8,19.33,16.08,20.60,819.480,2085.000,126.666664,21.67,2.4812,363,23754,1.93578,3.75,36227,,,,,,,,,,,,,,,,,,99999,99999,99999,99999,99999,99999,99999,99999,99999,99999,99999,99999
39:31:49,1510898970,2017-11-17T06:09:34,0.781,1794.2,19.39,16.12,20.68,819.570,2085.230,127.516670,21.91,2.4809,363,23754,1.93699,3.75,36222,,,,,,,,,,,,,,,,,,99999,99999,99999,99999,99999,99999,99999,99999,99999,99999,99999,99999
39:32:19,1510899000,2017-11-17T06:10:04,0.781,1794.6,19.44,16.18,20.68,819.510,2085.350,126.433334,21.89,2.4807,363,23754,1.93699,3.75,36217,,,,,,,,,,,,,,,,,,99999,99999,99999,99999,99999,99999,99999,99999,99999,99999,99999,99999
39:32:49,1510899030,2017-11-17T06:10:34,0.780,1795.0,19.47,16.21,20.78,819.450,2085.420,125.050003,21.81,2.4805,363,23757,1.93426,3.75,36211,,,,,,,,,,,,,,,,,,99999,99999,99999,99999,99999,99999,99999,99999,99999,99999,99999,99999
39:33:19,1510899060,2017-11-17T06:11:04,0.779,1795.4,19.53,16.23,20.80,819.560,2085.710,125.783333,21.70,2.4803,363,23756,1.93304,3.75,36206,,,,,,,,,,,,,,,,,,99999,99999,99999,99999,99999,99999,99999,99999,99999,99999,99999,99999
39:33:49,1510899090,2017-11-17T06:11:34,0.782,1795.8,19.56,16.27,20.85,819.530,2085.810,126.250000,21.91,2.4802,363,23758,1.94064,3.75,36201,,,,,,,,,,,,,,,,,,99999,99999,99999,99999,99999,99999,99999,99999,99999,99999,99999,99999
39:34:19,1510899120,2017-11-17T06:12:04,0.781,1796.2,19.60,16.29,20.91,819.580,2085.940,125.916664,21.35,2.4800,363,23760,1.93669,3.75,36196,,,,,,,,,,,,,,,,,,99999,99999,99999,99999,99999,99999,99999,99999,99999,99999,99999,99999
39:34:49,1510899150,2017-11-17T06:12:34,0.782,1796.6,19.62,16.34,20.88,819.540,2086.000,127.366669,21.45,2.4799,363,23760,1.93851,3.75,36190,,,,,,,,,,,,,,,,,,99999,99999,99999,99999,99999,99999,99999,99999,99999,99999,99999,99999
39:35:19,1510899180,2017-11-17T06:13:04,0.782,1797.0,19.66,16.37,20.94,819.500,2086.170,125.866669,21.24,2.4798,363,23766,1.93851,3.75,36185,,,,,,,,,,,,,,,,,,99999,99999,99999,99999,99999,99999,99999,99999,99999,99999,99999,99999
39:35:49,1510899210,2017-11-17T06:13:34,0.782,1797.3,19.69,16.40,21.00,819.530,2086.270,128.100006,21.23,2.4797,363,23763,1.93882,3.75,36180,,,,,,,,,,,,,,,,,,99999,99999,99999,99999,99999,99999,99999,99999,99999,99999,99999,99999
39:36:19,1510899240,2017-11-17T06:14:04,0.781,1797.7,19.73,16.42,21.01,819.540,2086.390,126.066666,21.18,2.4795,363,23763,1.93760,3.75,36175,,,,,,,,,,,,,,,,,,99999,99999,99999,99999,99999,99999,99999,99999,99999,99999,99999,99999
39:36:49,1510899270,2017-11-17T06:14:34,0.779,1798.1,19.76,16.46,21.04,819.510,2086.460,126.166664,21.28,2.4793,363,23767,1.93062,3.75,36169,,,,,,,,,,,,,,,,,,99999,99999,99999,99999,99999,99999,99999,99999,99999,99999,99999,99999
39:37:19,1510899300,2017-11-17T06:15:04,0.781,1798.5,19.79,16.49,21.08,819.470,2086.630,125.266670,21.42,2.4792,363,23767,1.93638,3.75,36164,,,,,,,,,,,,,,,,,,99999,99999,99999,99999,99999,99999,99999,99999,99999,99999,99999,99999
39:37:49,1510899330,2017-11-17T06:15:34,0.782,1798.9,19.83,16.53,21.10,819.440,2086.750,128.083328,21.32,2.4790,363,23771,1.93973,3.75,36159,,,,,,,,,,,,,,,,,,99999,99999,99999,99999,99999,99999,99999,99999,99999,99999,99999,99999
39:38:19,1510899360,2017-11-17T06:16:04,0.783,1799.3,19.85,16.55,21.12,819.490,2086.810,127.083336,21.06,2.4790,363,23769,1.94155,3.75,36154,,,,,,,,,,,,,,,,,,99999,99999,99999,99999,99999,99999,99999,99999,99999,99999,99999,99999
39:38:49,1510899390,2017-11-17T06:16:34,0.773,1799.7,19.88,16.60,21.18,819.620,2086.860,134.300003,20.97,2.4788,363,23767,1.91549,3.75,36148,,,,,,,,,,,,,,,,,,99999,99999,99999,99999,99999,99999,99999,99999,99999,99999,99999,99999
39:39:19,1510899420,2017-11-17T06:17:04,0.783,1800.1,19.90,16.64,21.22,819.500,2086.980,128.116669,20.69,2.4788,363,23770,1.94003,3.75,36143,,,,,,,,,,,,,,,,,,99999,99999,99999,99999,99999,99999,99999,99999,99999,99999,99999,99999
39:39:49,1510899450,2017-11-17T06:17:34,0.783,1800.5,19.94,16.68,21.22,819.520,2087.150,127.033333,20.78,2.4786,363,23770,1.94186,3.75,36138,,,,,,,,,,,,,,,,,,99999,99999,99999,99999,99999,99999,99999,99999,99999,99999,99999,99999
39:40:19,1510899480,2017-11-17T06:18:04,0.782,1800.9,19.99,16.71,21.28,819.510,2087.270,128.000000,20.87,2.4783,363,23774,1.93912,3.75,36133,,,,,,,,,,,,,,,,,,99999,99999,99999,99999,99999,99999,99999,99999,99999,99999,99999,99999
39:40:49,1510899510,2017-11-17T06:18:34,0.777,1801.3,20.03,16.74,21.32,819.260,2087.380,128.016663,21.11,2.4781,363,23774,1.92577,3.75,36127,,,,,,,,,,,,,,,,,,99999,99999,99999,99999,99999,99999,99999,99999,99999,99999,99999,99999
39:41:19,1510899540,2017-11-17T06:19:04,0.782,1801.6,20.06,16.80,21.33,819.410,2087.560,125.316666,20.79,2.4781,363,23774,1.93760,3.75,36122,,,,,,,,,,,,,,,,,,99999,99999,99999,99999,99999,99999,99999,99999,99999,99999,99999,99999
39:41:49,1510899570,2017-11-17T06:19:34,0.782,1802.0,20.10,16.83,21.38,819.420,2087.670,125.849998,20.62,2.4779,363,23777,1.93760,3.75,36117,,,,,,,,,,,,,,,,,,99999,99999,99999,99999,99999,99999,99999,99999,99999,99999,99999,99999
39:42:19,1510899600,2017-11-17T06:20:04,0.784,1802.4,20.14,16.86,21.41,819.390,2087.790,125.116669,20.56,2.4777,363,23778,1.94246,3.75,36111,,,,,,,,,,,,,,,,,,99999,99999,99999,99999,99999,99999,99999,99999,99999,99999,99999,99999
39:42:49,1510899630,2017-11-17T06:20:34,0.786,1802.8,20.19,16.91,21.46,819.480,2088.030,126.083336,20.64,2.4775,363,23780,1.94612,3.75,36106,,,,,,,,,,,,,,,,,,99999,99999,99999,99999,99999,99999,99999,99999,99999,99999,99999,99999
39:43:19,1510899660,2017-11-17T06:21:04,0.782,1803.2,20.22,16.95,21.48,819.530,2088.090,126.750000,20.51,2.4774,363,23781,1.93851,3.75,36101,,,,,,,,,,,,,,,,,,99999,99999,99999,99999,99999,99999,99999,99999,99999,99999,99999,99999
39:43:49,1510899690,2017-11-17T06:21:34,0.781,1803.6,20.26,17.00,21.52,819.410,2088.190,126.016670,20.26,2.4772,363,23783,1.93396,3.74,36096,,,,,,,,,,,,,,,,,,99999,99999,99999,99999,99999,99999,99999,99999,99999,99999,99999,99999
39:44:19,1510899720,2017-11-17T06:22:04,0.781,1804.0,20.30,17.04,21.56,819.410,2088.320,129.616669,20.57,2.4769,363,23782,1.93487,3.74,36090,,,,,,,,,,,,,,,,,,99999,99999,99999,99999,99999,99999,99999,99999,99999,99999,99999,99999
39:44:49,1510899750,2017-11-17T06:22:34,0.783,1804.4,20.34,17.09,21.62,819.440,2088.550,127.816666,20.47,2.4769,363,23785,1.93882,3.74,36085,,,,,,,,,,,,,,,,,,99999,99999,99999,99999,99999,99999,99999,99999,99999,99999,99999,99999
39:45:19,1510899780,2017-11-17T06:23:04,0.782,1804.8,20.37,17.12,21.64,819.520,2088.610,125.166664,20.97,2.4766,363,23784,1.93760,3.74,36080,,,,,,,,,,,,,,,,,,99999,99999,99999,99999,99999,99999,99999,99999,99999,99999,99999,99999
39:45:49,1510899810,2017-11-17T06:23:34,0.782,1805.2,20.41,17.15,21.72,819.460,2088.710,126.933334,20.02,2.4765,363,23786,1.93730,3.74,36074,,,,,,,,,,,,,,,,,,99999,99999,99999,99999,99999,99999,99999,99999,99999,99999,99999,99999
39:46:19,1510899840,2017-11-17T06:24:04,0.782,1805.6,20.47,17.21,21.76,819.550,2088.940,126.583336,20.00,2.4763,363,23789,1.93699,3.74,36069,,,,,,,,,,,,,,,,,,99999,99999,99999,99999,99999,99999,99999,99999,99999,99999,99999,99999
39:46:49,1510899870,2017-11-17T06:24:34,0.783,1806.0,20.50,17.23,21.75,819.570,2089.070,128.833328,19.99,2.4762,363,23789,1.93790,3.74,36064,,,,,,,,,,,,,,,,,,99999,99999,99999,99999,99999,99999,99999,99999,99999,99999,99999,99999
39:47:19,1510899900,2017-11-17T06:25:04,0.786,1806.3,20.53,17.26,21.82,819.530,2089.180,128.000000,20.13,2.4760,363,23790,1.94581,3.74,36059,,,,,,,,,,,,,,,,,,99999,99999,99999,99999,99999,99999,99999,99999,99999,99999,99999,99999
39:47:49,1510899930,2017-11-17T06:25:34,0.785,1806.7,20.56,17.30,21.84,819.550,2089.230,127.783333,20.04,2.4758,363,23791,1.94277,3.74,36053,,,,,,,,,,,,,,,,,,99999,99999,99999,99999,99999,99999,99999,99999,99999,99999,99999,99999
39:48:19,1510899960,2017-11-17T06:26:04,0.786,1807.1,20.60,17.34,21.90,819.490,2089.430,128.383331,20.11,2.4757,363,23793,1.94520,3.74,36048,,,,,,,,,,,,,,,,,,99999,99999,99999,99999,99999,99999,99999,99999,99999,99999,99999,99999
39:48:49,1510899990,2017-11-17T06:26:34,0.783,1807.5,20.64,17.38,21.92,819.480,2089.530,128.966660,20.27,2.4755,363,23793,1.93851,3.74,36043,,,,,,,,,,,,,,,,,,99999,99999,99999,99999,99999,99999,99999,99999,99999,99999,99999,99999
39:49:19,1510900020,2017-11-17T06:27:04,0.787,1807.9,20.67,17.42,21.98,819.500,2089.650,126.000000,20.23,2.4754,363,23795,1.94764,3.74,36037,,,,,,,,,,,,,,,,,,99999,99999,99999,99999,99999,99999,99999,99999,99999,99999,99999,99999
39:49:49,1510900050,2017-11-17T06:27:34,0.784,1808.3,20.70,17.43,22.01,819.460,2089.760,127.650002,19.72,2.4753,363,23795,1.94155,3.74,36032,,,,,,,,,,,,,,,,,,99999,99999,99999,99999,99999,99999,99999,99999,99999,99999,99999,99999
39:50:19,1510900080,2017-11-17T06:28:04,0.788,1808.7,20.72,17.47,22.06,819.430,2089.880,128.233337,19.80,2.4753,363,23796,1.94947,3.74,36027,,,,,,,,,,,,,,,,,,99999,99999,99999,99999,99999,99999,99999,99999,99999,99999,99999,99999
39:50:49,1510900110,2017-11-17T06:28:34,0.782,1809.1,20.75,17.50,22.07,819.480,2089.950,129.783340,19.74,2.4751,363,23796,1.93547,3.74,36021,,,,,,,,,,,,,,,,,,99999,99999,99999,99999,99999,99999,99999,99999,99999,99999,99999,99999
39:51:19,1510900140,2017-11-17T06:29:04,0.786,1809.5,20.79,17.52,22.09,819.470,2090.050,127.550003,19.95,2.4749,363,23797,1.94581,3.74,36016,,,,,,,,,,,,,,,,,,99999,99999,99999,99999,99999,99999,99999,99999,99999,99999,99999,99999
39:51:49,1510900170,2017-11-17T06:29:34,0.785,1809.9,20.82,17.54,22.10,819.570,2090.180,128.166672,19.94,2.4748,363,23796,1.94246,3.74,36011,,,,,,,,,,,,,,,,,,99999,99999,99999,99999,99999,99999,99999,99999,99999,99999,99999,99999
39:52:19,1510900200,2017-11-17T06:30:04,0.784,1810.3,20.84,17.56,22.16,819.430,2090.240,127.583336,20.12,2.4746,363,23800,1.94064,3.74,36006,,,,,,,,,,,,,,,,,,99999,99999,99999,99999,99999,99999,99999,99999,99999,99999,99999,99999
39:52:49,1510900230,2017-11-17T06:30:34,0.786,1810.7,20.86,17.59,22.17,819.430,2090.340,125.599998,19.76,2.4746,363,23801,1.94520,3.74,36000,,,,,,,,,,,,,,,,,,99999,99999,99999,99999,99999,99999,99999,99999,99999,99999,99999,99999
39:53:19,1510900260,2017-11-17T06:31:04,0.784,1811.1,20.88,17.62,22.20,819.500,2090.400,128.850006,19.77,2.4745,363,23800,1.93973,3.74,35995,,,,,,,,,,,,,,,,,,99999,99999,99999,99999,99999,99999,99999,99999,99999,99999,99999,99999
39:53:49,1510900290,2017-11-17T06:31:34,0.788,1811.4,20.89,17.64,22.24,819.470,2090.400,129.100006,20.22,2.4744,363,23802,1.94886,3.74,35990,,,,,,,,,,,,,,,,,,99999,99999,99999,99999,99999,99999,99999,99999,99999,99999,99999,99999
39:54:19,1510900320,2017-11-17T06:32:04,0.785,1811.8,20.92,17.65,22.22,819.490,2090.530,128.100006,19.64,2.4744,363,23803,1.94155,3.74,35984,,,,,,,,,,,,,,,,,,99999,99999,99999,99999,99999,99999,99999,99999,99999,99999,99999,99999
39:54:49,1510900350,2017-11-17T06:32:34,0.788,1812.2,20.92,17.68,22.24,819.600,2090.530,128.466660,19.55,2.4744,363,23803,1.94886,3.74,35979,,,,,,,,,,,,,,,,,,99999,99999,99999,99999,99999,99999,99999,99999,99999,99999,99999,99999
39:55:19,1510900380,2017-11-17T06:33:04,0.785,1812.6,20.95,17.69,22.24,819.670,2090.630,127.166664,19.56,2.4742,363,23803,1.94216,3.74,35974,,,,,,,,,,,,,,,,,,99999,99999,99999,99999,99999,99999,99999,99999,99999,99999,99999,99999
39:55:49,1510900410,2017-11-17T06:33:34,0.787,1813.0,20.98,17.74,22.30,819.610,2090.700,130.233337,19.53,2.4741,363,23804,1.94612,3.74,35968,,,,,,,,,,,,,,,,,,99999,99999,99999,99999,99999,99999,99999,99999,99999,99999,99999,99999
39:56:19,1510900440,2017-11-17T06:34:04,0.786,1813.4,21.00,17.77,22.33,819.580,2090.820,126.133331,19.53,2.4740,363,23807,1.94520,3.74,35963,,,,,,,,,,,,,,,,,,99999,99999,99999,99999,99999,99999,99999,99999,99999,99999,99999,99999
39:56:49,1510900470,2017-11-17T06:34:34,0.789,1813.8,21.03,17.80,22.34,819.570,2090.930,129.916672,19.44,2.4739,363,23808,1.95099,3.74,35958,,,,,,,,,,,,,,,,,,99999,99999,99999,99999,99999,99999,99999,99999,99999,99999,99999,99999
39:57:19,1510900500,2017-11-17T06:35:04,0.786,1814.2,21.06,17.82,22.40,819.590,2090.990,126.650002,19.52,2.4737,363,23809,1.94398,3.74,35952,,,,,,,,,,,,,,,,,,99999,99999,99999,99999,99999,99999,99999,99999,99999,99999,99999,99999
39:57:49,1510900530,2017-11-17T06:35:34,0.787,1814.6,21.08,17.85,22.40,819.480,2091.050,129.000000,19.47,2.4736,363,23809,1.94551,3.74,35947,,,,,,,,,,,,,,,,,,99999,99999,99999,99999,99999,99999,99999,99999,99999,99999,99999,99999
39:58:19,1510900560,2017-11-17T06:36:04,0.785,1815.0,21.11,17.89,22.44,819.500,2091.160,127.983330,19.57,2.4735,363,23809,1.94155,3.74,35942,,,,,,,,,,,,,,,,,,99999,99999,99999,99999,99999,99999,99999,99999,99999,99999,99999,99999
39:58:49,1510900590,2017-11-17T06:36:34,0.785,1815.4,21.12,17.91,22.46,819.410,2091.160,128.500000,19.54,2.4734,363,23808,1.94246,3.74,35936,,,,,,,,,,,,,,,,,,99999,99999,99999,99999,99999,99999,99999,99999,99999,99999,99999,99999
39:59:19,1510900620,2017-11-17T06:37:04,0.788,1815.8,21.15,17.93,22.44,819.440,2091.350,128.433334,19.67,2.4734,363,23810,1.94977,3.74,35931,,,,,,,,,,,,,,,,,,99999,99999,99999,99999,99999,99999,99999,99999,99999,99999,99999,99999
39:59:49,1510900650,2017-11-17T06:37:34,0.789,1816.2,21.17,17.96,22.52,819.380,2091.390,129.133331,19.68,2.4732,363,23812,1.95252,3.74,35926,,,,,,,,,,,,,,,,,,99999,99999,99999,99999,99999,99999,99999,99999,99999,99999,99999,99999
40:00:19,1510900680,2017-11-17T06:38:04,0.785,1816.6,21.18,17.96,22.52,819.450,2091.450,128.066666,19.59,2.4732,363,23811,1.94155,3.74,35920,,,,,,,,,,,,,,,,,,99999,99999,99999,99999,99999,99999,99999,99999,99999,99999,99999,99999
40:00:49,1510900710,2017-11-17T06:38:34,0.788,1817.0,21.18,17.97,22.52,819.370,2091.450,126.616669,19.62,2.4732,363,23812,1.94855,3.74,35915,,,,,,,,,,,,,,,,,,99999,99999,99999,99999,99999,99999,99999,99999,99999,99999,99999,99999
40:01:19,1510900740,2017-11-17T06:39:04,0.788,1817.3,21.19,17.96,22.52,819.350,2091.450,129.883331,19.62,2.4731,363,23812,1.94977,3.74,35910,,,,,,,,,,,,,,,,,,99999,99999,99999,99999,99999,99999,99999,99999,99999,99999,99999,99999
40:01:49,1510900770,2017-11-17T06:39:34,0.789,1817.7,21.19,17.99,22.56,819.380,2091.450,128.399994,19.32,2.4732,363,23812,1.95130,3.74,35904,,,,,,,,,,,,,,,,,,99999,99999,99999,99999,99999,99999,99999,99999,99999,99999,99999,99999
40:02:19,1510900800,2017-11-17T06:40:04,0.785,1818.1,21.20,17.98,22.56,819.450,2091.510,128.649994,19.33,2.4732,363,23812,1.94064,3.74,35899,,,,,,,,,,,,,,,,,,99999,99999,99999,99999,99999,99999,99999,99999,99999,99999,99999,99999
40:02:49,1510900830,2017-11-17T06:40:34,0.785,1818.5,21.22,18.01,22.57,819.310,2091.570,130.066666,19.06,2.4731,363,23814,1.94094,3.74,35894,,,,,,,,,,,,,,,,,,99999,99999,99999,99999,99999,99999,99999,99999,99999,99999,99999,99999
40:03:19,1510900860,2017-11-17T06:41:04,0.791,1818.9,21.24,18.04,22.59,819.390,2091.640,128.649994,19.38,2.4730,363,23816,1.95648,3.74,35888,,,,,,,,,,,,,,,,,,99999,99999,99999,99999,99999,99999,99999,99999,99999,99999,99999,99999
40:03:49,1510900890,2017-11-17T06:41:34,0.788,1819.3,21.24,18.04,22.59,819.300,2091.640,126.533333,19.42,2.4730,363,23815,1.94825,3.74,35883,,,,,,,,,,,,,,,,,,99999,99999,99999,99999,99999,99999,99999,99999,99999,99999,99999,99999
40:04:19,1510900920,2017-11-17T06:42:04,0.787,1819.7,21.25,18.07,22.60,819.440,2091.640,127.566666,19.29,2.4729,363,23815,1.94581,3.74,35878,,,,,,,,,,,,,,,,,,99999,99999,99999,99999,99999,99999,99999,99999,99999,99999,99999,99999
40:04:49,1510900950,2017-11-17T06:42:34,0.789,1820.1,21.28,18.07,22.64,819.540,2091.800,130.033340,19.09,2.4728,363,23814,1.95130,3.74,35872,,,,,,,,,,,,,,,,,,99999,99999,99999,99999,99999,99999,99999,99999,99999,99999,99999,99999
40:05:19,1510900980,2017-11-17T06:43:04,0.792,1820.5,21.28,18.10,22.64,819.400,2091.800,127.699997,19.03,2.4729,363,23813,1.95862,3.74,35867,,,,,,,,,,,,,,,,,,99999,99999,99999,99999,99999,99999,99999,99999,99999,99999,99999,99999
40:05:49,1510901010,2017-11-17T06:43:34,0.786,1820.9,21.31,18.12,22.64,819.610,2091.870,129.100006,19.18,2.4727,363,23815,1.94429,3.74,35861,,,,,,,,,,,,,,,,,,99999,99999,99999,99999,99999,99999,99999,99999,99999,99999,99999,99999
40:06:19,1510901040,2017-11-17T06:44:04,0.786,1821.3,21.33,18.15,22.65,819.530,2091.930,129.516663,19.30,2.4725,363,23814,1.94307,3.74,35856,,,,,,,,,,,,,,,,,,99999,99999,99999,99999,99999,99999,99999,99999,99999,99999,99999,99999
40:06:49,1510901070,2017-11-17T06:44:34,0.786,1821.7,21.35,18.18,22.74,819.620,2092.040,128.133331,19.26,2.4725,363,23818,1.94429,3.74,35851,,,,,,,,,,,,,,,,,,99999,99999,99999,99999,99999,99999,99999,99999,99999,99999,99999,99999
40:07:19,1510901100,2017-11-17T06:45:04,0.789,1822.1,21.37,18.21,22.70,819.510,2092.160,130.516663,19.32,2.4725,363,23818,1.95130,3.74,35845,,,,,,,,,,,,,,,,,,99999,99999,99999,99999,99999,99999,99999,99999,99999,99999,99999,99999
40:07:49,1510901130,2017-11-17T06:45:34,0.791,1822.5,21.40,18.24,22.75,819.620,2092.220,129.766663,19.21,2.4723,363,23819,1.95557,3.74,35840,,,,,,,,,,,,,,,,,,99999,99999,99999,99999,99999,99999,99999,99999,99999,99999,99999,99999
40:08:19,1510901160,2017-11-17T06:46:04,0.791,1822.9,21.41,18.25,22.76,819.690,2092.270,129.216660,19.17,2.4723,363,23821,1.95618,3.74,35835,,,,,,,,,,,,,,,,,,99999,99999,99999,99999,99999,99999,99999,99999,99999,99999,99999,99999
40:08:49,1510901190,2017-11-17T06:46:34,0.788,1823.3,21.45,18.26,22.76,819.660,2092.390,130.733337,19.12,2.4721,363,23819,1.94703,3.74,35829,,,,,,,,,,,,,,,,,,99999,99999,99999,99999,99999,99999,99999,99999,99999,99999,99999,99999
40:09:19,1510901220,2017-11-17T06:47:04,0.789,1823.6,21.46,18.30,22.83,819.660,2092.390,132.583328,19.14,2.4720,363,23821,1.95099,3.74,35824,,,,,,,,,,,,,,,,,,99999,99999,99999,99999,99999,99999,99999,99999,99999,99999,99999,99999
40:09:49,1510901250,2017-11-17T06:47:34,0.785,1824.0,21.48,18.31,22.83,819.700,2092.450,132.000000,18.95,2.4719,363,23820,1.94094,3.74,35819,,,,,,,,,,,,,,,,,,99999,99999,99999,99999,99999,99999,99999,99999,99999,99999,99999,99999
40:10:19,1510901280,2017-11-17T06:48:04,0.789,1824.4,21.51,18.33,22.83,819.750,2092.620,129.750000,19.10,2.4719,363,23822,1.94977,3.74,35813,,,,,,,,,,,,,,,,,,99999,99999,99999,99999,99999,99999,99999,99999,99999,99999,99999,99999
40:10:49,1510901310,2017-11-17T06:48:34,0.789,1824.8,21.52,18.36,22.88,819.720,2092.620,130.533340,18.76,2.4718,363,23822,1.94916,3.74,35808,,,,,,,,,,,,,,,,,,99999,99999,99999,99999,99999,99999,99999,99999,99999,99999,99999,99999
40:11:19,1510901340,2017-11-17T06:49:04,0.791,1825.2,21.54,18.38,22.91,819.710,2092.680,130.466660,19.08,2.4717,363,23823,1.95496,3.74,35802,,,,,,,,,,,,,,,,,,99999,99999,99999,99999,99999,99999,99999,99999,99999,99999,99999,99999
40:11:49,1510901370,2017-11-17T06:49:34,0.790,1825.6,21.55,18.39,22.91,819.550,2092.740,130.449997,18.99,2.4717,363,23822,1.95343,3.74,35797,,,,,,,,,,,,,,,,,,99999,99999,99999,99999,99999,99999,99999,99999,99999,99999,99999,99999
40:12:19,1510901400,2017-11-17T06:50:04,0.785,1826.0,21.57,18.41,22.96,819.710,2092.790,131.333328,18.92,2.4716,363,23824,1.94064,3.74,35792,,,,,,,,,,,,,,,,,,99999,99999,99999,99999,99999,99999,99999,99999,99999,99999,99999,99999
40:12:49,1510901430,2017-11-17T06:50:34,0.792,1826.4,21.58,18.41,22.94,819.650,2092.850,128.933334,18.97,2.4715,363,23826,1.95801,3.74,35786,,,,,,,,,,,,,,,,,,99999,99999,99999,99999,99999,99999,99999,99999,99999,99999,99999,99999
40:13:19,1510901460,2017-11-17T06:51:04,0.788,1826.8,21.60,18.42,22.96,819.320,2092.910,128.350006,18.56,2.4715,363,23826,1.94703,3.74,35781,,,,,,,,,,,,,,,,,,99999,99999,99999,99999,99999,99999,99999,99999,99999,99999,99999,99999
40:13:49,1510901490,2017-11-17T06:51:34,0.787,1827.2,21.60,18.45,22.98,819.510,2092.910,129.033340,18.88,2.4715,363,23825,1.94581,3.74,35776,,,,,,,,,,,,,,,,,,99999,99999,99999,99999,99999,99999,99999,99999,99999,99999,99999,99999
40:14:19,1510901520,2017-11-17T06:52:04,0.792,1827.6,21.62,18.45,22.99,819.560,2092.970,127.949997,18.77,2.4714,363,23828,1.95648,3.74,35770,,,,,,,,,,,,,,,,,,99999,99999,99999,99999,99999,99999,99999,99999,99999,99999,99999,99999
40:14:49,1510901550,2017-11-17T06:52:34,0.791,1828.0,21.64,18.48,22.99,819.640,2093.080,129.533340,18.89,2.4713,363,23826,1.95557,3.74,35765,,,,,,,,,,,,,,,,,,99999,99999,99999,99999,99999,99999,99999,99999,99999,99999,99999,99999
40:15:19,1510901580,2017-11-17T06:53:04,0.791,1828.4,21.66,18.48,23.00,819.580,2093.140,131.600006,18.78,2.4712,363,23828,1.95496,3.74,35760,,,,,,,,,,,,,,,,,,99999,99999,99999,99999,99999,99999,99999,99999,99999,99999,99999,99999
40:15:49,1510901610,2017-11-17T06:53:34,0.792,1828.8,21.67,18.50,23.00,819.570,2093.140,130.800003,18.58,2.4712,363,23828,1.95648,3.74,35754,,,,,,,,,,,,,,,,,,99999,99999,99999,99999,99999,99999,99999,99999,99999,99999,99999,99999
40:16:19,1510901640,2017-11-17T06:54:04,0.788,1829.2,21.68,18.51,23.04,819.550,2093.210,126.949997,18.68,2.4711,363,23829,1.94794,3.74,35749,,,,,,,,,,,,,,,,,,99999,99999,99999,99999,99999,99999,99999,99999,99999,99999,99999,99999
40:16:49,1510901670,2017-11-17T06:54:34,0.792,1829.6,21.69,18.55,23.07,819.540,2093.210,129.066666,18.72,2.4711,363,23828,1.95801,3.74,35743,,,,,,,,,,,,,,,,,,99999,99999,99999,99999,99999,99999,99999,99999,99999,99999,99999,99999
40:17:19,1510901700,2017-11-17T06:55:04,0.786,1830.0,21.70,18.57,23.07,819.520,2093.270,131.216660,18.34,2.4711,363,23826,1.94125,3.74,35738,,,,,,,,,,,,,,,,,,99999,99999,99999,99999,99999,99999,99999,99999,99999,99999,99999,99999
40:17:49,1510901730,2017-11-17T06:55:34,0.788,1830.4,21.73,18.57,23.12,819.560,2093.330,128.899994,18.26,2.4709,363,23830,1.94703,3.74,35733,,,,,,,,,,,,,,,,,,99999,99999,99999,99999,99999,99999,99999,99999,99999,99999,99999,99999
40:18:19,1510901760,2017-11-17T06:56:04,0.791,1830.8,21.75,18.59,23.12,819.500,2093.370,132.466660,18.52,2.4708,363,23831,1.95435,3.74,35727,,,,,,,,,,,,,,,,,,99999,99999,99999,99999,99999,99999,99999,99999,99999,99999,99999,99999
40:18:49,1510901790,2017-11-17T06:56:34,0.789,1831.1,21.76,18.61,23.12,819.560,2093.440,130.399994,18.78,2.4707,363,23831,1.94947,3.74,35722,,,,,,,,,,,,,,,,,,99999,99999,99999,99999,99999,99999,99999,99999,99999,99999,99999,99999
40:19:19,1510901820,2017-11-17T06:57:04,0.791,1831.5,21.78,18.64,23.14,819.450,2093.560,130.216660,18.59,2.4707,363,23832,1.95313,3.74,35717,,,,,,,,,,,,,,,,,,99999,99999,99999,99999,99999,99999,99999,99999,99999,99999,99999,99999
40:19:49,1510901850,2017-11-17T06:57:34,0.789,1831.9,21.81,18.64,23.22,819.570,2093.660,129.149994,18.68,2.4706,363,23833,1.94886,3.74,35711,,,,,,,,,,,,,,,,,,99999,99999,99999,99999,99999,99999,99999,99999,99999,99999,99999,99999
40:20:19,1510901880,2017-11-17T06:58:04,0.792,1832.3,21.82,18.68,23.18,819.670,2093.660,130.116669,18.47,2.4705,363,23833,1.95770,3.74,35706,,,,,,,,,,,,,,,,,,99999,99999,99999,99999,99999,99999,99999,99999,99999,99999,99999,99999
40:20:49,1510901910,2017-11-17T06:58:34,0.790,1832.7,21.85,18.68,23.23,819.640,2093.790,129.066666,18.61,2.4704,363,23833,1.95038,3.74,35700,,,,,,,,,,,,,,,,,,99999,99999,99999,99999,99999,99999,99999,99999,99999,99999,99999,99999
40:21:19,1510901940,2017-11-17T06:59:04,0.789,1833.1,21.86,18.69,23.23,819.590,2093.790,129.149994,18.59,2.4703,363,23836,1.94794,3.74,35695,,,,,,,,,,,,,,,,,,99999,99999,99999,99999,99999,99999,99999,99999,99999,99999,99999,99999
40:21:49,1510901970,2017-11-17T06:59:34,0.791,1833.5,21.86,18.71,23.26,819.610,2093.790,130.116669,18.39,2.4703,363,23835,1.95343,3.74,35690,,,,,,,,,,,,,,,,,,99999,99999,99999,99999,99999,99999,99999,99999,99999,99999,99999,99999
40:22:19,1510902000,2017-11-17T07:00:04,0.790,1833.9,21.86,18.71,23.26,819.560,2093.790,129.449997,18.74,2.4703,363,23835,1.95130,3.74,35684,,,,,,,,,,,,,,,,,,99999,99999,99999,99999,99999,99999,99999,99999,99999,99999,99999,99999
40:22:49,1510902030,2017-11-17T07:00:34,0.788,1834.3,21.88,18.71,23.26,819.680,2093.850,129.883331,18.14,2.4703,363,23836,1.94764,3.74,35679,,,,,,,,,,,,,,,,,,99999,99999,99999,99999,99999,99999,99999,99999,99999,99999,99999,99999
40:23:19,1510902060,2017-11-17T07:01:04,0.789,1834.7,21.88,18.73,23.26,819.600,2093.850,129.283340,18.27,2.4703,363,23836,1.94916,3.74,35674,,,,,,,,,,,,,,,,,,99999,99999,99999,99999,99999,99999,99999,99999,99999,99999,99999,99999
40:23:49,1510902090,2017-11-17T07:01:34,0.793,1835.1,21.89,18.74,23.26,819.550,2093.910,129.966660,18.36,2.4702,363,23837,1.95832,3.74,35668,,,,,,,,,,,,,,,,,,99999,99999,99999,99999,99999,99999,99999,99999,99999,99999,99999,99999
40:24:19,1510902120,2017-11-17T07:02:04,0.791,1835.5,21.90,18.75,23.26,819.630,2093.910,130.733337,18.34,2.4701,363,23835,1.95465,3.74,35663,,,,,,,,,,,,,,,,,,99999,99999,99999,99999,99999,99999,99999,99999,99999,99999,99999,99999
40:24:49,1510902150,2017-11-17T07:02:34,0.792,1835.9,21.90,18.75,23.32,819.630,2093.910,132.083328,18.38,2.4701,363,23839,1.95587,3.74,35657,,,,,,,,,,,,,,,,,,99999,99999,99999,99999,99999,99999,99999,99999,99999,99999,99999,99999
40:25:19,1510902180,2017-11-17T07:03:04,0.779,1836.3,21.93,18.76,23.30,819.540,2094.080,146.533340,18.37,2.4701,363,23838,1.92395,3.74,35652,,,,,,,,,,,,,,,,,,99999,99999,99999,99999,99999,99999,99999,99999,99999,99999,99999,99999
40:25:49,1510902210,2017-11-17T07:03:34,0.786,1836.7,21.92,18.76,23.26,819.680,2094.020,132.966660,18.10,2.4701,363,23837,1.94155,3.73,35647,,,,,,,,,,,,,,,,,,99999,99999,99999,99999,99999,99999,99999,99999,99999,99999,99999,99999
40:26:19,1510902240,2017-11-17T07:04:04,0.785,1837.1,21.91,18.78,23.32,819.570,2094.020,132.683334,18.26,2.4702,363,23836,1.94033,3.74,35641,,,,,,,,,,,,,,,,,,99999,99999,99999,99999,99999,99999,99999,99999,99999,99999,99999,99999
40:26:49,1510902270,2017-11-17T07:04:34,0.791,1837.5,21.93,18.79,23.33,819.760,2094.080,132.449997,18.11,2.4701,363,23838,1.95313,3.74,35636,,,,,,,,,,,,,,,,,,99999,99999,99999,99999,99999,99999,99999,99999,99999,99999,99999,99999
40:27:19,1510902300,2017-11-17T07:05:04,0.793,1837.9,21.94,18.80,23.34,819.690,2094.080,131.216660,18.17,2.4700,363,23838,1.95862,3.74,35630,,,,,,,,,,,,,,,,,,99999,99999,99999,99999,99999,99999,99999,99999,99999,99999,99999,99999
40:27:49,1510902330,2017-11-17T07:05:34,0.790,1838.3,21.95,18.81,23.36,819.690,2094.140,130.016663,18.35,2.4700,363,23838,1.95160,3.74,35625,,,,,,,,,,,,,,,,,,99999,99999,99999,99999,99999,99999,99999,99999,99999,99999,99999,99999
40:28:19,1510902360,2017-11-17T07:06:04,0.790,1838.7,21.96,18.80,23.36,819.580,2094.140,129.449997,18.13,2.4699,363,23836,1.95008,3.74,35620,,,,,,,,,,,,,,,,,,99999,99999,99999,99999,99999,99999,99999,99999,99999,99999,99999,99999
40:28:49,1510902390,2017-11-17T07:06:34,0.791,1839.1,21.95,18.83,23.34,819.590,2094.140,130.066666,18.08,2.4700,363,23836,1.95374,3.74,35614,,,,,,,,,,,,,,,,,,99999,99999,99999,99999,99999,99999,99999,99999,99999,99999,99999,99999
40:29:19,1510902420,2017-11-17T07:07:04,0.787,1839.4,21.97,18.84,23.36,819.610,2094.210,133.899994,18.18,2.4699,363,23838,1.94398,3.74,35609,,,,,,,,,,,,,,,,,,99999,99999,99999,99999,99999,99999,99999,99999,99999,99999,99999,99999
40:29:49,1510902450,2017-11-17T07:07:34,0.789,1839.8,21.97,18.85,23.38,819.610,2094.210,129.933334,18.25,2.4699,363,23839,1.94886,3.74,35603,,,,,,,,,,,,,,,,,,99999,99999,99999,99999,99999,99999,99999,99999,99999,99999,99999,99999
40:30:19,1510902480,2017-11-17T07:08:04,0.789,1840.2,21.98,18.85,23.38,819.550,2094.210,129.199997,18.06,2.4699,363,23840,1.94977,3.73,35598,,,,,,,,,,,,,,,,,,99999,99999,99999,99999,99999,99999,99999,99999,99999,99999,99999,99999
40:30:49,1510902510,2017-11-17T07:08:34,0.791,1840.6,21.98,18.85,23.40,819.550,2094.210,129.416672,18.04,2.4699,363,23839,1.95282,3.73,35593,,,,,,,,,,,,,,,,,,99999,99999,99999,99999,99999,99999,99999,99999,99999,99999,99999,99999
40:31:19,1510902540,2017-11-17T07:09:04,0.790,1841.0,21.99,18.87,23.38,819.500,2094.250,131.149994,18.10,2.4698,363,23843,1.95099,3.73,35587,,,,,,,,,,,,,,,,,,99999,99999,99999,99999,99999,99999,99999,99999,99999,99999,99999,99999
40:31:49,1510902570,2017-11-17T07:09:34,0.793,1841.4,21.99,18.86,23.41,819.550,2094.250,131.233337,18.29,2.4698,363,23838,1.95770,3.73,35582,,,,,,,,,,,,,,,,,,99999,99999,99999,99999,99999,99999,99999,99999,99999,99999,99999,99999
40:32:19,1510902600,2017-11-17T07:10:04,0.791,1841.8,21.99,18.86,23.42,819.550,2094.250,130.250000,18.14,2.4698,363,23840,1.95435,3.73,35577,,,,,,,,,,,,,,,,,,99999,99999,99999,99999,99999,99999,99999,99999,99999,99999,99999,99999
40:32:49,1510902630,2017-11-17T07:10:34,0.790,1842.2,21.98,18.86,23.40,819.530,2094.210,133.199997,18.07,2.4698,363,23842,1.95038,3.73,35571,,,,,,,,,,,,,,,,,,99999,99999,99999,99999,99999,99999,99999,99999,99999,99999,99999,99999
40:33:19,1510902660,2017-11-17T07:11:04,0.791,1842.6,21.99,18.87,23.41,819.610,2094.250,129.183334,18.31,2.4698,363,23838,1.95374,3.73,35566,,,,,,,,,,,,,,,,,,99999,99999,99999,99999,99999,99999,99999,99999,99999,99999,99999,99999
40:33:49,1510902690,2017-11-17T07:11:34,0.791,1843.0,21.99,18.87,23.42,819.690,2094.250,130.816666,18.17,2.4698,363,23842,1.95465,3.73,35560,,,,,,,,,,,,,,,,,,99999,99999,99999,99999,99999,99999,99999,99999,99999,99999,99999,99999
40:34:19,1510902720,2017-11-17T07:12:04,0.790,1843.4,21.99,18.86,23.42,819.580,2094.250,129.766663,18.24,2.4698,363,23838,1.95008,3.73,35555,,,,,,,,,,,,,,,,,,99999,99999,99999,99999,99999,99999,99999,99999,99999,99999,99999,99999
40:34:49,1510902750,2017-11-17T07:12:34,0.794,1843.8,21.98,18.86,23.41,819.710,2094.210,131.733337,18.15,2.4698,363,23839,1.95985,3.73,35550,,,,,,,,,,,,,,,,,,99999,99999,99999,99999,99999,99999,99999,99999,99999,99999,99999,99999
40:35:19,1510902780,2017-11-17T07:13:04,0.793,1844.2,21.98,18.85,23.42,819.660,2094.210,131.516663,18.25,2.4698,363,23838,1.95832,3.73,35544,,,,,,,,,,,,,,,,,,99999,99999,99999,99999,99999,99999,99999,99999,99999,99999,99999,99999
40:35:49,1510902810,2017-11-17T07:13:34,0.793,1844.6,21.97,18.85,23.38,819.690,2094.210,132.233337,18.42,2.4699,363,23838,1.95801,3.73,35539,,,,,,,,,,,,,,,,,,99999,99999,99999,99999,99999,99999,99999,99999,99999,99999,99999,99999
40:36:19,1510902840,2017-11-17T07:14:04,0.790,1845.0,21.96,18.85,23.40,819.660,2094.140,130.183334,18.16,2.4699,363,23837,1.95069,3.73,35533,,,,,,,,,,,,,,,,,,99999,99999,99999,99999,99999,99999,99999,99999,99999,99999,99999,99999
40:36:49,1510902870,2017-11-17T07:14:34,0.792,1845.4,21.96,18.83,23.38,819.580,2094.140,130.333328,18.03,2.4699,363,23839,1.95526,3.73,35528,,,,,,,,,,,,,,,,,,99999,99999,99999,99999,99999,99999,99999,99999,99999,99999,99999,99999
40:37:19,1510902900,2017-11-17T07:15:04,0.790,1845.8,21.95,18.82,23.40,819.670,2094.140,129.516663,18.02,2.4700,363,23838,1.95038,3.73,35523,,,,,,,,,,,,,,,,,,99999,99999,99999,99999,99999,99999,99999,99999,99999,99999,99999,99999
40:37:49,1510902930,2017-11-17T07:15:34,0.793,1846.2,21.94,18.84,23.36,819.530,2094.080,130.850006,18.12,2.4700,363,23837,1.95893,3.73,35517,,,,,,,,,,,,,,,,,,99999,99999,99999,99999,99999,99999,99999,99999,99999,99999,99999,99999
40:38:19,1510902960,2017-11-17T07:16:04,0.789,1846.6,21.93,18.82,23.36,819.510,2094.080,129.750000,17.82,2.4702,363,23839,1.94977,3.73,35512,,,,,,,,,,,,,,,,,,99999,99999,99999,99999,99999,99999,99999,99999,99999,99999,99999,99999
40:38:49,1510902990,2017-11-17T07:16:34,0.792,1847.0,21.93,18.82,23.34,819.510,2094.080,131.250000,18.36,2.4701,363,23837,1.95618,3.73,35506,,,,,,,,,,,,,,,,,,99999,99999,99999,99999,99999,99999,99999,99999,99999,99999,99999,99999
40:39:19,1510903020,2017-11-17T07:17:04,0.791,1847.4,21.92,18.81,23.33,819.460,2094.020,131.550003,18.31,2.4701,363,23837,1.95435,3.73,35501,,,,,,,,,,,,,,,,,,99999,99999,99999,99999,99999,99999,99999,99999,99999,99999,99999,99999
40:39:49,1510903050,2017-11-17T07:17:34,0.788,1847.8,21.91,18.78,23.32,819.550,2094.020,128.816666,18.53,2.4702,363,23832,1.94673,3.73,35496,,,,,,,,,,,,,,,,,,99999,99999,99999,99999,99999,99999,99999,99999,99999,99999,99999,99999
40:40:19,1510903080,2017-11-17T07:18:04,0.791,1848.1,21.90,18.78,23.34,819.490,2093.910,131.166672,18.42,2.4701,363,23836,1.95496,3.73,35490,,,,,,,,,,,,,,,,,,99999,99999,99999,99999,99999,99999,99999,99999,99999,99999,99999,99999
40:40:49,1510903110,2017-11-17T07:18:34,0.793,1848.5,21.89,18.78,23.33,819.520,2093.910,131.149994,18.09,2.4703,363,23839,1.95801,3.73,35485,,,,,,,,,,,,,,,,,,99999,99999,99999,99999,99999,99999,99999,99999,99999,99999,99999,99999
40:41:19,1510903140,2017-11-17T07:19:04,0.790,1848.9,21.87,18.77,23.34,819.450,2093.850,130.883331,18.02,2.4704,363,23836,1.95160,3.73,35479,,,,,,,,,,,,,,,,,,99999,99999,99999,99999,99999,99999,99999,99999,99999,99999,99999,99999
40:41:49,1510903170,2017-11-17T07:19:34,0.791,1849.3,21.87,18.77,23.32,819.450,2093.850,130.866669,18.04,2.4704,363,23835,1.95496,3.73,35474,,,,,,,,,,,,,,,,,,99999,99999,99999,99999,99999,99999,99999,99999,99999,99999,99999,99999
40:42:19,1510903200,2017-11-17T07:20:04,0.790,1849.7,21.85,18.75,23.32,819.480,2093.790,128.316666,18.01,2.4705,363,23835,1.95160,3.73,35469,,,,,,,,,,,,,,,,,,99999,99999,99999,99999,99999,99999,99999,99999,99999,99999,99999,99999
40:42:49,1510903230,2017-11-17T07:20:34,0.793,1850.1,21.84,18.75,23.26,819.430,2093.730,129.383331,18.77,2.4704,363,23834,1.95985,3.73,35463,,,,,,,,,,,,,,,,,,99999,99999,99999,99999,99999,99999,99999,99999,99999,99999,99999,99999
40:43:19,1510903260,2017-11-17T07:21:04,0.790,1850.5,21.83,18.71,23.30,819.400,2093.730,130.050003,17.99,2.4706,363,23836,1.95282,3.73,35458,,,,,,,,,,,,,,,,,,99999,99999,99999,99999,99999,99999,99999,99999,99999,99999,99999,99999
40:43:49,1510903290,2017-11-17T07:21:34,0.790,1850.9,21.82,18.72,23.28,819.460,2093.660,127.716667,18.08,2.4706,363,23834,1.95282,3.73,35453,,,,,,,,,,,,,,,,,,99999,99999,99999,99999,99999,99999,99999,99999,99999,99999,99999,99999
40:44:19,1510903320,2017-11-17T07:22:04,0.792,1851.3,21.81,18.72,23.28,819.380,2093.660,131.533340,18.30,2.4706,363,23835,1.95557,3.73,35447,,,,,,,,,,,,,,,,,,99999,99999,99999,99999,99999,99999,99999,99999,99999,99999,99999,99999
40:44:49,1510903350,2017-11-17T07:22:34,0.793,1851.7,21.81,18.70,23.23,819.510,2093.660,130.283340,17.91,2.4707,363,23835,1.95832,3.73,35442,,,,,,,,,,,,,,,,,,99999,99999,99999,99999,99999,99999,99999,99999,99999,99999,99999,99999
40:45:19,1510903380,2017-11-17T07:23:04,0.789,1852.1,21.78,18.70,23.23,819.420,2093.560,128.800003,18.12,2.4708,363,23835,1.95038,3.73,35436,,,,,,,,,,,,,,,,,,99999,99999,99999,99999,99999,99999,99999,99999,99999,99999,99999,99999
40:45:49,1510903410,2017-11-17T07:23:34,0.788,1852.5,21.79,18.68,23.22,819.520,2093.560,129.883331,18.34,2.4707,363,23833,1.94733,3.73,35431,,,,,,,,,,,,,,,,,,99999,99999,99999,99999,99999,99999,99999,99999,99999,99999,99999,99999
40:46:19,1510903440,2017-11-17T07:24:04,0.791,1852.9,21.77,18.68,23.23,819.500,2093.440,131.483337,18.18,2.4707,363,23833,1.95313,3.73,35426,,,,,,,,,,,,,,,,,,99999,99999,99999,99999,99999,99999,99999,99999,99999,99999,99999,99999
40:46:49,1510903470,2017-11-17T07:24:34,0.788,1853.3,21.77,18.66,23.20,819.530,2093.440,130.616669,17.79,2.4708,363,23832,1.94642,3.73,35420,,,,,,,,,,,,,,,,,,99999,99999,99999,99999,99999,99999,99999,99999,99999,99999,99999,99999
40:47:19,1510903500,2017-11-17T07:25:04,0.791,1853.7,21.76,18.65,23.20,819.370,2093.440,128.000000,17.87,2.4708,363,23835,1.95404,3.73,35415,,,,,,,,,,,,,,,,,,99999,99999,99999,99999,99999,99999,99999,99999,99999,99999,99999,99999
40:47:49,1510903530,2017-11-17T07:25:34,0.790,1854.1,21.76,18.64,23.17,819.530,2093.440,130.933334,18.07,2.4708,363,23834,1.95313,3.73,35409,,,,,,,,,,,,,,,,,,99999,99999,99999,99999,99999,99999,99999,99999,99999,99999,99999,99999
40:48:19,1510903560,2017-11-17T07:26:04,0.787,1854.5,21.76,18.66,23.20,819.530,2093.440,129.116669,18.08,2.4708,363,23836,1.94551,3.73,35404,,,,,,,,,,,,,,,,,,99999,99999,99999,99999,99999,99999,99999,99999,99999,99999,99999,99999
40:48:49,1510903590,2017-11-17T07:26:34,0.789,1854.9,21.76,18.66,23.22,819.450,2093.440,128.716660,18.22,2.4708,363,23837,1.94855,3.73,35399,,,,,,,,,,,,,,,,,,99999,99999,99999,99999,99999,99999,99999,99999,99999,99999,99999,99999
40:49:19,1510903620,2017-11-17T07:27:04,0.791,1855.3,21.76,18.65,23.20,819.340,2093.440,130.250000,18.47,2.4708,363,23833,1.95526,3.73,35393,,,,,,,,,,,,,,,,,,99999,99999,99999,99999,99999,99999,99999,99999,99999,99999,99999,99999
40:49:49,1510903650,2017-11-17T07:27:34,0.790,1855.7,21.75,18.66,23.18,819.370,2093.370,130.283340,17.99,2.4708,363,23831,1.95190,3.73,35388,,,,,,,,,,,,,,,,,,99999,99999,99999,99999,99999,99999,99999,99999,99999,99999,99999,99999
40:50:19,1510903680,2017-11-17T07:28:04,0.788,1856.1,21.76,18.64,23.17,819.450,2093.440,128.533340,17.75,2.4708,363,23833,1.94612,3.73,35383,,,,,,,,,,,,,,,,,,99999,99999,99999,99999,99999,99999,99999,99999,99999,99999,99999,99999
40:50:49,1510903710,2017-11-17T07:28:34,0.787,1856.4,21.76,18.65,23.17,819.370,2093.440,128.266663,17.74,2.4708,363,23833,1.94520,3.73,35377,,,,,,,,,,,,,,,,,,99999,99999,99999,99999,99999,99999,99999,99999,99999,99999,99999,99999
40:51:19,1510903740,2017-11-17T07:29:04,0.789,1856.8,21.77,18.66,23.17,819.370,2093.440,131.583328,17.97,2.4707,363,23835,1.95008,3.73,35372,,,,,,,,,,,,,,,,,,99999,99999,99999,99999,99999,99999,99999,99999,99999,99999,99999,99999
40:51:49,1510903770,2017-11-17T07:29:34,0.789,1857.2,21.77,18.66,23.18,819.280,2093.440,128.166672,17.79,2.4708,363,23835,1.95008,3.73,35366,,,,,,,,,,,,,,,,,,99999,99999,99999,99999,99999,99999,99999,99999,99999,99999,99999,99999
40:52:19,1510903800,2017-11-17T07:30:04,0.792,1857.6,21.77,18.65,23.17,819.340,2093.440,130.250000,17.88,2.4707,363,23835,1.95679,3.73,35361,,,,,,,,,,,,,,,,,,99999,99999,99999,99999,99999,99999,99999,99999,99999,99999,99999,99999
40:52:49,1510903830,2017-11-17T07:30:34,0.788,1858.0,21.77,18.68,23.20,819.310,2093.440,129.949997,17.95,2.4707,363,23834,1.94642,3.73,35356,,,,,,,,,,,,,,,,,,99999,99999,99999,99999,99999,99999,99999,99999,99999,99999,99999,99999
40:53:19,1510903860,2017-11-17T07:31:04,0.792,1858.4,21.78,18.66,23.22,819.280,2093.560,130.366669,17.93,2.4708,363,23835,1.95679,3.73,35350,,,,,,,,,,,,,,,,,,99999,99999,99999,99999,99999,99999,99999,99999,99999,99999,99999,99999
40:53:49,1510903890,2017-11-17T07:31:34,0.790,1858.8,21.78,18.68,23.18,819.280,2093.560,130.816666,18.09,2.4708,363,23834,1.95313,3.73,35345,,,,,,,,,,,,,,,,,,99999,99999,99999,99999,99999,99999,99999,99999,99999,99999,99999,99999
40:54:19,1510903920,2017-11-17T07:32:04,0.787,1859.2,21.79,18.69,23.20,819.280,2093.560,130.183334,17.94,2.4707,363,23834,1.94429,3.73,35340,,,,,,,,,,,,,,,,,,99999,99999,99999,99999,99999,99999,99999,99999,99999,99999,99999,99999
40:54:49,1510903950,2017-11-17T07:32:34,0.789,1859.6,21.79,18.70,23.25,819.380,2093.560,127.966667,18.22,2.4707,363,23834,1.94855,3.73,35334,,,,,,,,,,,,,,,,,,99999,99999,99999,99999,99999,99999,99999,99999,99999,99999,99999,99999
40:55:19,1510903980,2017-11-17T07:33:04,0.791,1860.0,21.80,18.70,23.23,819.330,2093.620,130.116669,17.82,2.4707,363,23834,1.95404,3.73,35329,,,,,,,,,,,,,,,,,,99999,99999,99999,99999,99999,99999,99999,99999,99999,99999,99999,99999
40:55:49,1510904010,2017-11-17T07:33:34,0.787,1860.4,21.80,18.68,23.23,819.330,2093.620,128.883331,17.94,2.4707,363,23836,1.94490,3.73,35323,,,,,,,,,,,,,,,,,,99999,99999,99999,99999,99999,99999,99999,99999,99999,99999,99999,99999
40:56:19,1510904040,2017-11-17T07:34:04,0.791,1860.8,21.79,18.70,23.23,819.410,2093.560,129.366669,17.73,2.4707,363,23834,1.95526,3.73,35318,,,,,,,,,,,,,,,,,,99999,99999,99999,99999,99999,99999,99999,99999,99999,99999,99999,99999
40:56:49,1510904070,2017-11-17T07:34:34,0.791,1861.2,21.82,18.69,23.25,819.250,2093.660,128.800003,17.60,2.4706,363,23836,1.95526,3.73,35313,,,,,,,,,,,,,,,,,,99999,99999,99999,99999,99999,99999,99999,99999,99999,99999,99999,99999
40:57:19,1510904100,2017-11-17T07:35:04,0.791,1861.6,21.82,18.69,23.23,819.220,2093.660,131.083328,17.63,2.4706,363,23835,1.95374,3.73,35307,,,,,,,,,,,,,,,,,,99999,99999,99999,99999,99999,99999,99999,99999,99999,99999,99999,99999
40:57:49,1510904130,2017-11-17T07:35:34,0.790,1862.0,21.83,18.72,23.23,819.270,2093.730,129.500000,17.60,2.4706,363,23836,1.95069,3.73,35302,,,,,,,,,,,,,,,,,,99999,99999,99999,99999,99999,99999,99999,99999,99999,99999,99999,99999
40:58:19,1510904160,2017-11-17T07:36:04,0.790,1862.4,21.83,18.74,23.23,819.160,2093.730,130.116669,17.56,2.4706,363,23835,1.95221,3.73,35296,,,,,,,,,,,,,,,,,,99999,99999,99999,99999,99999,99999,99999,99999,99999,99999,99999,99999
40:58:49,1510904190,2017-11-17T07:36:34,0.790,1862.8,21.84,18.74,23.25,819.110,2093.730,129.683334,17.85,2.4705,363,23835,1.95099,3.73,35291,,,,,,,,,,,,,,,,,,99999,99999,99999,99999,99999,99999,99999,99999,99999,99999,99999,99999
40:59:19,1510904220,2017-11-17T07:37:04,0.789,1863.2,21.85,18.76,23.30,819.100,2093.790,130.399994,17.58,2.4705,363,23836,1.95038,3.73,35286,,,,,,,,,,,,,,,,,,99999,99999,99999,99999,99999,99999,99999,99999,99999,99999,99999,99999
40:59:49,1510904250,2017-11-17T07:37:34,0.788,1863.6,21.87,18.76,23.30,819.180,2093.850,128.949997,17.70,2.4704,363,23834,1.94551,3.73,35280,,,,,,,,,,,,,,,,,,99999,99999,99999,99999,99999,99999,99999,99999,99999,99999,99999,99999
41:00:19,1510904280,2017-11-17T07:38:04,0.788,1864.0,21.87,18.75,23.30,819.180,2093.850,129.316666,17.59,2.4704,363,23839,1.94581,3.73,35275,,,,,,,,,,,,,,,,,,99999,99999,99999,99999,99999,99999,99999,99999,99999,99999,99999,99999
41:00:49,1510904310,2017-11-17T07:38:34,0.788,1864.4,21.89,18.77,23.32,819.230,2093.910,129.233337,17.60,2.4703,363,23835,1.94733,3.73,35270,,,,,,,,,,,,,,,,,,99999,99999,99999,99999,99999,99999,99999,99999,99999,99999,99999,99999
41:01:19,1510904340,2017-11-17T07:39:04,0.792,1864.7,21.89,18.77,23.30,819.200,2093.910,129.683334,17.68,2.4703,363,23833,1.95587,3.73,35264,,,,,,,,,,,,,,,,,,99999,99999,99999,99999,99999,99999,99999,99999,99999,99999,99999,99999
41:01:49,1510904370,2017-11-17T07:39:34,0.791,1865.1,21.89,18.76,23.33,819.200,2093.910,130.733337,17.65,2.4703,363,23837,1.95404,3.73,35259,,,,,,,,,,,,,,,,,,99999,99999,99999,99999,99999,99999,99999,99999,99999,99999,99999,99999
41:02:19,1510904400,2017-11-17T07:40:04,0.789,1865.5,21.89,18.78,23.33,819.150,2093.910,130.666672,17.44,2.4703,363,23835,1.94947,3.73,35253,,,,,,,,,,,,,,,,,,99999,99999,99999,99999,99999,99999,99999,99999,99999,99999,99999,99999
41:02:49,1510904430,2017-11-17T07:40:34,0.788,1865.9,21.89,18.76,23.33,819.150,2093.910,129.350006,17.59,2.4703,363,23836,1.94551,3.73,35248,,,,,,,,,,,,,,,,,,99999,99999,99999,99999,99999,99999,99999,99999,99999,99999,99999,99999
41:03:19,1510904460,2017-11-17T07:41:04,0.791,1866.3,21.89,18.77,23.33,819.120,2093.910,130.683334,17.57,2.4703,363,23838,1.95404,3.73,35243,,,,,,,,,,,,,,,,,,99999,99999,99999,99999,99999,99999,99999,99999,99999,99999,99999,99999
41:03:49,1510904490,2017-11-17T07:41:34,0.791,1866.7,21.88,18.77,23.33,819.090,2093.850,129.733337,17.80,2.4703,363,23836,1.95343,3.73,35237,,,,,,,,,,,,,,,,,,99999,99999,99999,99999,99999,99999,99999,99999,99999,99999,99999,99999
41:04:19,1510904520,2017-11-17T07:42:04,0.792,1867.1,21.89,18.74,23.32,819.200,2093.910,129.833328,18.26,2.4702,363,23836,1.95526,3.73,35232,,,,,,,,,,,,,,,,,,99999,99999,99999,99999,99999,99999,99999,99999,99999,99999,99999,99999
41:04:49,1510904550,2017-11-17T07:42:34,0.792,1867.5,21.87,18.74,23.30,819.180,2093.850,130.250000,18.05,2.4704,363,23837,1.95709,3.73,35226,,,,,,,,,,,,,,,,,,99999,99999,99999,99999,99999,99999,99999,99999,99999,99999,99999,99999
41:05:19,1510904580,2017-11-17T07:43:04,0.787,1867.9,21.85,18.72,23.28,819.070,2093.790,130.383331,17.80,2.4705,363,23834,1.94368,3.73,35221,,,,,,,,,,,,,,,,,,99999,99999,99999,99999,99999,99999,99999,99999,99999,99999,99999,99999
41:05:49,1510904610,2017-11-17T07:43:34,0.789,1868.3,21.83,18.72,23.26,818.970,2093.730,129.133331,17.96,2.4706,363,23834,1.95038,3.73,35216,,,,,,,,,,,,,,,,,,99999,99999,99999,99999,99999,99999,99999,99999,99999,99999,99999,99999
41:06:19,1510904640,2017-11-17T07:44:04,0.787,1868.7,21.80,18.69,23.26,819.060,2093.620,128.766663,17.99,2.4707,363,23835,1.94459,3.73,35210,,,,,,,,,,,,,,,,,,99999,99999,99999,99999,99999,99999,99999,99999,99999,99999,99999,99999
41:06:49,1510904670,2017-11-17T07:44:34,0.788,1869.1,21.79,18.68,23.25,819.010,2093.560,129.199997,17.86,2.4707,363,23833,1.94612,3.73,35205,,,,,,,,,,,,,,,,,,99999,99999,99999,99999,99999,99999,99999,99999,99999,99999,99999,99999
41:07:19,1510904700,2017-11-17T07:45:04,0.790,1869.5,21.76,18.64,23.17,819.070,2093.440,128.983337,18.15,2.4708,363,23833,1.95282,3.73,35199,,,,,,,,,,,,,,,,,,99999,99999,99999,99999,99999,99999,99999,99999,99999,99999,99999,99999
41:07:49,1510904730,2017-11-17T07:45:34,0.788,1869.9,21.73,18.60,23.20,819.050,2093.330,127.449997,18.37,2.4709,363,23833,1.94733,3.73,35194,,,,,,,,,,,,,,,,,,99999,99999,99999,99999,99999,99999,99999,99999,99999,99999,99999,99999
41:08:19,1510904760,2017-11-17T07:46:04,0.789,1870.3,21.71,18.60,23.18,819.080,2093.270,129.666672,18.01,2.4710,363,23832,1.94855,3.73,35189,,,,,,,,,,,,,,,,,,99999,99999,99999,99999,99999,99999,99999,99999,99999,99999,99999,99999
41:08:49,1510904790,2017-11-17T07:46:34,0.788,1870.7,21.69,18.58,23.17,819.030,2093.210,129.266663,18.06,2.4711,363,23831,1.94764,3.73,35183,,,,,,,,,,,,,,,,,,99999,99999,99999,99999,99999,99999,99999,99999,99999,99999,99999,99999
41:09:19,1510904820,2017-11-17T07:47:04,0.787,1871.1,21.66,18.56,23.12,819.070,2093.140,127.466667,17.85,2.4713,363,23831,1.94459,3.73,35178,,,,,,,,,,,,,,,,,,99999,99999,99999,99999,99999,99999,99999,99999,99999,99999,99999,99999
41:09:49,1510904850,2017-11-17T07:47:34,0.790,1871.5,21.65,18.54,23.07,819.130,2093.080,130.483337,18.14,2.4713,363,23831,1.95252,3.73,35173,,,,,,,,,,,,,,,,,,99999,99999,99999,99999,99999,99999,99999,99999,99999,99999,99999,99999
41:10:19,1510904880,2017-11-17T07:48:04,0.787,1871.9,21.62,18.52,23.08,819.130,2092.970,128.250000,18.46,2.4714,363,23828,1.94398,3.73,35167,,,,,,,,,,,,,,,,,,99999,99999,99999,99999,99999,99999,99999,99999,99999,99999,99999,99999
41:10:49,1510904910,2017-11-17T07:48:34,0.789,1872.3,21.60,18.50,23.06,819.080,2092.910,130.033340,18.20,2.4715,363,23829,1.95069,3.73,35162,,,,,,,,,,,,,,,,,,99999,99999,99999,99999,99999,99999,99999,99999,99999,99999,99999,99999
41:11:19,1510904940,2017-11-17T07:49:04,0.786,1872.6,21.58,18.49,23.00,819.060,2092.850,127.750000,18.08,2.4716,363,23826,1.94368,3.73,35156,,,,,,,,,,,,,,,,,,99999,99999,99999,99999,99999,99999,99999,99999,99999,99999,99999,99999
41:11:49,1510904970,2017-11-17T07:49:34,0.786,1873.0,21.56,18.47,23.04,819.040,2092.740,127.016670,17.96,2.4717,363,23829,1.94368,3.73,35151,,,,,,,,,,,,,,,,,,99999,99999,99999,99999,99999,99999,99999,99999,99999,99999,99999,99999
41:12:19,1510905000,2017-11-17T07:50:04,0.789,1873.4,21.55,18.46,22.99,819.100,2092.740,130.266663,18.13,2.4718,363,23828,1.95038,3.73,35146,,,,,,,,,,,,,,,,,,99999,99999,99999,99999,99999,99999,99999,99999,99999,99999,99999,99999
41:12:49,1510905030,2017-11-17T07:50:34,0.790,1873.8,21.54,18.46,22.96,819.070,2092.680,130.399994,17.98,2.4718,363,23828,1.95282,3.73,35140,,,,,,,,,,,,,,,,,,99999,99999,99999,99999,99999,99999,99999,99999,99999,99999,99999,99999
41:13:19,1510905060,2017-11-17T07:51:04,0.789,1874.2,21.53,18.43,22.99,819.070,2092.680,129.183334,18.05,2.4719,363,23826,1.95069,3.73,35135,,,,,,,,,,,,,,,,,,99999,99999,99999,99999,99999,99999,99999,99999,99999,99999,99999,99999
41:13:49,1510905090,2017-11-17T07:51:34,0.789,1874.6,21.51,18.43,22.98,819.000,2092.620,131.183334,17.94,2.4720,363,23824,1.95038,3.73,35130,,,,,,,,,,,,,,,,,,99999,99999,99999,99999,99999,99999,99999,99999,99999,99999,99999,99999
41:14:19,1510905120,2017-11-17T07:52:04,0.790,1875.0,21.51,18.44,22.92,818.970,2092.620,129.883331,18.43,2.4719,363,23826,1.95190,3.73,35124,,,,,,,,,,,,,,,,,,99999,99999,99999,99999,99999,99999,99999,99999,99999,99999,99999,99999
41:14:49,1510905150,2017-11-17T07:52:34,0.786,1875.4,21.50,18.42,22.92,819.080,2092.520,126.500000,18.09,2.4719,363,23828,1.94368,3.73,35119,,,,,,,,,,,,,,,,,,99999,99999,99999,99999,99999,99999,99999,99999,99999,99999,99999,99999
41:15:19,1510905180,2017-11-17T07:53:04,0.789,1875.8,21.49,18.42,22.94,818.980,2092.490,131.366669,18.17,2.4720,363,23825,1.94916,3.73,35113,,,,,,,,,,,,,,,,,,99999,99999,99999,99999,99999,99999,99999,99999,99999,99999,99999,99999
41:15:49,1510905210,2017-11-17T07:53:34,0.785,1876.2,21.48,18.43,22.92,819.010,2092.450,127.366669,18.00,2.4720,363,23826,1.94094,3.73,35108,,,,,,,,,,,,,,,,,,99999,99999,99999,99999,99999,99999,99999,99999,99999,99999,99999,99999
41:16:19,1510905240,2017-11-17T07:54:04,0.789,1876.6,21.48,18.41,22.91,818.930,2092.450,128.716660,18.08,2.4720,363,23827,1.94947,3.72,35103,,,,,,,,,,,,,,,,,,99999,99999,99999,99999,99999,99999,99999,99999,99999,99999,99999,99999
41:16:49,1510905270,2017-11-17T07:54:34,0.785,1877.0,21.47,18.42,22.90,818.930,2092.450,128.216660,18.18,2.4721,363,23829,1.93942,3.72,35097,,,,,,,,,,,,,,,,,,99999,99999,99999,99999,99999,99999,99999,99999,99999,99999,99999,99999
41:17:19,1510905300,2017-11-17T07:55:04,0.785,1877.4,21.48,18.41,22.90,818.870,2092.450,128.583328,17.88,2.4720,363,23825,1.94125,3.72,35092,,,,,,,,,,,,,,,,,,99999,99999,99999,99999,99999,99999,99999,99999,99999,99999,99999,99999
41:17:49,1510905330,2017-11-17T07:55:34,0.786,1877.8,21.46,18.41,22.94,818.930,2092.390,129.716660,18.21,2.4721,363,23825,1.94429,3.72,35087,,,,,,,,,,,,,,,,,,99999,99999,99999,99999,99999,99999,99999,99999,99999,99999,99999,99999
41:18:19,1510905360,2017-11-17T07:56:04,0.790,1878.2,21.47,18.40,22.91,818.960,2092.450,130.066666,18.21,2.4721,363,23826,1.95221,3.72,35081,,,,,,,,,,,,,,,,,,99999,99999,99999,99999,99999,99999,99999,99999,99999,99999,99999,99999
41:18:49,1510905390,2017-11-17T07:56:34,0.785,1878.6,21.48,18.41,22.91,818.900,2092.450,128.933334,17.87,2.4720,363,23828,1.93973,3.72,35076,,,,,,,,,,,,,,,,,,99999,99999,99999,99999,99999,99999,99999,99999,99999,99999,99999,99999
41:19:19,1510905420,2017-11-17T07:57:04,0.788,1878.9,21.47,18.43,22.90,818.880,2092.450,129.816666,18.36,2.4721,363,23826,1.94703,3.72,35070,,,,,,,,,,,,,,,,,,99999,99999,99999,99999,99999,99999,99999,99999,99999,99999,99999,99999
41:19:49,1510905450,2017-11-17T07:57:34,0.789,1879.3,21.49,18.43,22.92,819.010,2092.490,128.383331,18.03,2.4720,363,23827,1.95130,3.72,35065,,,,,,,,,,,,,,,,,,99999,99999,99999,99999,99999,99999,99999,99999,99999,99999,99999,99999
41:20:19,1510905480,2017-11-17T07:58:04,0.789,1879.7,21.49,18.45,22.94,818.900,2092.490,130.866669,18.16,2.4720,363,23826,1.95099,3.72,35060,,,,,,,,,,,,,,,,,,99999,99999,99999,99999,99999,99999,99999,99999,99999,99999,99999,99999
41:20:49,1510905510,2017-11-17T07:58:34,0.789,1880.1,21.50,18.45,22.96,818.920,2092.520,130.399994,18.14,2.4719,363,23825,1.94947,3.72,35054,,,,,,,,,,,,,,,,,,99999,99999,99999,99999,99999,99999,99999,99999,99999,99999,99999,99999
41:21:19,1510905540,2017-11-17T07:59:04,0.784,1880.5,21.51,18.45,22.90,818.810,2092.620,136.433334,18.06,2.4720,363,23828,1.93821,3.72,35049,,,,,,,,,,,,,,,,,,99999,99999,99999,99999,99999,99999,99999,99999,99999,99999,99999,99999
41:21:49,1510905570,2017-11-17T07:59:34,0.782,1880.9,21.51,18.47,22.92,818.860,2092.620,134.566666,18.00,2.4720,363,23829,1.93304,3.72,35044,,,,,,,,,,,,,,,,,,99999,99999,99999,99999,99999,99999,99999,99999,99999,99999,99999,99999
41:22:19,1510905600,2017-11-17T08:00:04,0.789,1881.3,21.52,18.47,22.96,819.020,2092.620,129.449997,18.01,2.4719,363,23829,1.94977,3.72,35038,,,,,,,,,,,,,,,,,,99999,99999,99999,99999,99999,99999,99999,99999,99999,99999,99999,99999
41:22:49,1510905630,2017-11-17T08:00:34,0.785,1881.7,21.53,18.49,22.96,818.970,2092.680,129.266663,17.97,2.4719,363,23829,1.94125,3.72,35033,,,,,,,,,,,,,,,,,,99999,99999,99999,99999,99999,99999,99999,99999,99999,99999,99999,99999
41:23:19,1510905660,2017-11-17T08:01:04,0.789,1882.1,21.54,18.49,22.99,818.930,2092.680,129.366669,17.96,2.4718,363,23826,1.95099,3.72,35027,,,,,,,,,,,,,,,,,,99999,99999,99999,99999,99999,99999,99999,99999,99999,99999,99999,99999
41:23:49,1510905690,2017-11-17T08:01:34,0.789,1882.5,21.55,18.50,22.99,818.930,2092.740,129.199997,17.76,2.4718,363,23832,1.94977,3.72,35022,,,,,,,,,,,,,,,,,,99999,99999,99999,99999,99999,99999,99999,99999,99999,99999,99999,99999
41:24:19,1510905720,2017-11-17T08:02:04,0.790,1882.9,21.56,18.51,22.99,818.960,2092.740,130.283340,17.98,2.4717,363,23827,1.95190,3.72,35017,,,,,,,,,,,,,,,,,,99999,99999,99999,99999,99999,99999,99999,99999,99999,99999,99999,99999
41:24:49,1510905750,2017-11-17T08:02:34,0.787,1883.3,21.57,18.53,23.02,818.930,2092.790,131.066666,18.20,2.4716,363,23828,1.94551,3.72,35011,,,,,,,,,,,,,,,,,,99999,99999,99999,99999,99999,99999,99999,99999,99999,99999,99999,99999
41:25:19,1510905780,2017-11-17T08:03:04,0.788,1883.7,21.58,18.53,23.02,818.870,2092.850,130.750000,17.97,2.4717,363,23829,1.94764,3.72,35006,,,,,,,,,,,,,,,,,,99999,99999,99999,99999,99999,99999,99999,99999,99999,99999,99999,99999
41:25:49,1510905810,2017-11-17T08:03:34,0.790,1884.1,21.59,18.53,22.98,818.790,2092.850,130.233337,18.08,2.4716,363,23830,1.95282,3.72,35001,,,,,,,,,,,,,,,,,,99999,99999,99999,99999,99999,99999,99999,99999,99999,99999,99999,99999
41:26:19,1510905840,2017-11-17T08:04:04,0.789,1884.5,21.59,18.55,23.02,818.870,2092.850,130.850006,18.02,2.4716,363,23829,1.95130,3.72,34995,,,,,,,,,,,,,,,,,,99999,99999,99999,99999,99999,99999,99999,99999,99999,99999,99999,99999
41:26:49,1510905870,2017-11-17T08:04:34,0.789,1884.9,21.59,18.55,23.06,818.770,2092.850,128.500000,18.06,2.4716,363,23833,1.95038,3.72,34990,,,,,,,,,,,,,,,,,,99999,99999,99999,99999,99999,99999,99999,99999,99999,99999,99999,99999
41:27:19,1510905900,2017-11-17T08:05:04,0.786,1885.2,21.59,18.54,23.02,818.790,2092.850,128.966660,18.01,2.4716,363,23829,1.94338,3.72,34984,,,,,,,,,,,,,,,,,,99999,99999,99999,99999,99999,99999,99999,99999,99999,99999,99999,99999
41:27:49,1510905930,2017-11-17T08:05:34,0.786,1885.6,21.59,18.54,23.04,818.740,2092.850,127.500000,17.97,2.4716,363,23830,1.94368,3.72,34979,,,,,,,,,,,,,,,,,,99999,99999,99999,99999,99999,99999,99999,99999,99999,99999,99999,99999
41:28:19,1510905960,2017-11-17T08:06:04,0.790,1886.0,21.59,18.53,23.04,818.770,2092.850,131.633331,17.76,2.4716,363,23829,1.95252,3.72,34974,,,,,,,,,,,,,,,,,,99999,99999,99999,99999,99999,99999,99999,99999,99999,99999,99999,99999
41:28:49,1510905990,2017-11-17T08:06:34,0.787,1886.4,21.59,18.51,23.00,818.820,2092.850,128.449997,18.03,2.4716,363,23830,1.94581,3.72,34968,,,,,,,,,,,,,,,,,,99999,99999,99999,99999,99999,99999,99999,99999,99999,99999,99999,99999
41:29:19,1510906020,2017-11-17T08:07:04,0.788,1886.8,21.58,18.51,23.04,818.870,2092.850,128.933334,17.97,2.4717,363,23830,1.94825,3.72,34963,,,,,,,,,,,,,,,,,,99999,99999,99999,99999,99999,99999,99999,99999,99999,99999,99999,99999
41:29:49,1510906050,2017-11-17T08:07:34,0.790,1887.2,21.58,18.50,23.02,818.850,2092.850,128.949997,17.83,2.4717,363,23831,1.95252,3.72,34958,,,,,,,,,,,,,,,,,,99999,99999,99999,99999,99999,99999,99999,99999,99999,99999,99999,99999
41:30:19,1510906080,2017-11-17T08:08:04,0.791,1887.6,21.56,18.50,23.02,818.880,2092.740,128.800003,17.86,2.4717,363,23833,1.95496,3.72,34952,,,,,,,,,,,,,,,,,,99999,99999,99999,99999,99999,99999,99999,99999,99999,99999,99999,99999
41:30:49,1510906110,2017-11-17T08:08:34,0.788,1888.0,21.56,18.48,23.00,818.960,2092.740,128.800003,17.85,2.4717,363,23828,1.94855,3.72,34947,,,,,,,,,,,,,,,,,,99999,99999,99999,99999,99999,99999,99999,99999,99999,99999,99999,99999
41:31:19,1510906140,2017-11-17T08:09:04,0.791,1888.4,21.55,18.49,22.98,818.960,2092.740,129.350006,18.16,2.4718,363,23829,1.95465,3.72,34941,,,,,,,,,,,,,,,,,,99999,99999,99999,99999,99999,99999,99999,99999,99999,99999,99999,99999
41:31:49,1510906170,2017-11-17T08:09:34,0.786,1888.8,21.54,18.48,22.96,818.830,2092.680,130.050003,17.98,2.4718,363,23829,1.94398,3.72,34936,,,,,,,,,,,,,,,,,,99999,99999,99999,99999,99999,99999,99999,99999,99999,99999,99999,99999
41:32:19,1510906200,2017-11-17T08:10:04,0.788,1889.2,21.54,18.48,22.99,818.850,2092.680,130.050003,17.63,2.4718,363,23831,1.94886,3.72,34931,,,,,,,,,,,,,,,,,,99999,99999,99999,99999,99999,99999,99999,99999,99999,99999,99999,99999
41:32:49,1510906230,2017-11-17T08:10:34,0.790,1889.6,21.54,18.47,22.99,818.830,2092.680,130.300003,17.87,2.4718,363,23829,1.95221,3.72,34925,,,,,,,,,,,,,,,,,,99999,99999,99999,99999,99999,99999,99999,99999,99999,99999,99999,99999
41:33:19,1510906260,2017-11-17T08:11:04,0.785,1890.0,21.54,18.49,22.98,818.830,2092.680,127.433334,17.73,2.4718,363,23826,1.94064,3.72,34920,,,,,,,,,,,,,,,,,,99999,99999,99999,99999,99999,99999,99999,99999,99999,99999,99999,99999
41:33:49,1510906290,2017-11-17T08:11:34,0.786,1890.4,21.54,18.48,23.00,818.750,2092.680,128.350006,17.89,2.4718,363,23829,1.94186,3.72,34914,,,,,,,,,,,,,,,,,,99999,99999,99999,99999,99999,99999,99999,99999,99999,99999,99999,99999
41:34:19,1510906320,2017-11-17T08:12:04,0.790,1890.8,21.55,18.50,22.99,818.850,2092.740,130.183334,17.89,2.4718,363,23827,1.95221,3.72,34909,,,,,,,,,,,,,,,,,,99999,99999,99999,99999,99999,99999,99999,99999,99999,99999,99999,99999
41:34:49,1510906350,2017-11-17T08:12:34,0.789,1891.2,21.56,18.49,22.99,818.820,2092.740,130.316666,17.80,2.4717,363,23829,1.95008,3.72,34904,,,,,,,,,,,,,,,,,,99999,99999,99999,99999,99999,99999,99999,99999,99999,99999,99999,99999
41:35:19,1510906380,2017-11-17T08:13:04,0.789,1891.5,21.55,18.49,22.98,818.770,2092.740,129.666672,17.85,2.4718,363,23828,1.95099,3.72,34898,,,,,,,,,,,,,,,,,,99999,99999,99999,99999,99999,99999,99999,99999,99999,99999,99999,99999
41:35:49,1510906410,2017-11-17T08:13:34,0.787,1891.9,21.56,18.49,22.98,818.850,2092.740,127.066666,17.88,2.4717,363,23832,1.94520,3.72,34893,,,,,,,,,,,,,,,,,,99999,99999,99999,99999,99999,99999,99999,99999,99999,99999,99999,99999
41:36:19,1510906440,2017-11-17T08:14:04,0.789,1892.3,21.56,18.49,22.98,818.850,2092.740,130.600006,17.82,2.4717,363,23828,1.95130,3.72,34888,,,,,,,,,,,,,,,,,,99999,99999,99999,99999,99999,99999,99999,99999,99999,99999,99999,99999
41:36:49,1510906470,2017-11-17T08:14:34,0.783,1892.7,21.57,18.50,23.00,818.850,2092.790,131.416672,18.02,2.4717,363,23830,1.93638,3.72,34882,,,,,,,,,,,,,,,,,,99999,99999,99999,99999,99999,99999,99999,99999,99999,99999,99999,99999
41:37:19,1510906500,2017-11-17T08:15:04,0.787,1893.1,21.57,18.51,22.98,818.820,2092.790,131.699997,17.70,2.4717,363,23827,1.94551,3.72,34877,,,,,,,,,,,,,,,,,,99999,99999,99999,99999,99999,99999,99999,99999,99999,99999,99999,99999
41:37:49,1510906530,2017-11-17T08:15:34,0.787,1893.5,21.57,18.50,22.99,818.800,2092.790,127.883331,18.16,2.4716,363,23829,1.94398,3.72,34871,,,,,,,,,,,,,,,,,,99999,99999,99999,99999,99999,99999,99999,99999,99999,99999,99999,99999
41:38:19,1510906560,2017-11-17T08:16:04,0.787,1893.9,21.58,18.51,22.99,818.790,2092.850,127.983330,17.81,2.4717,363,23830,1.94642,3.72,34866,,,,,,,,,,,,,,,,,,99999,99999,99999,99999,99999,99999,99999,99999,99999,99999,99999,99999
41:38:49,1510906590,2017-11-17T08:16:34,0.785,1894.3,21.59,18.52,23.00,818.770,2092.850,128.500000,18.06,2.4716,363,23832,1.94094,3.72,34861,,,,,,,,,,,,,,,,,,99999,99999,99999,99999,99999,99999,99999,99999,99999,99999,99999,99999
41:39:19,1510906620,2017-11-17T08:17:04,0.789,1894.7,21.60,18.53,23.00,818.680,2092.910,129.766663,17.91,2.4716,363,23829,1.95099,3.72,34855,,,,,,,,,,,,,,,,,,99999,99999,99999,99999,99999,99999,99999,99999,99999,99999,99999,99999
41:39:49,1510906650,2017-11-17T08:17:34,0.789,1895.1,21.60,18.51,23.04,818.730,2092.910,129.199997,17.71,2.4716,363,23829,1.94886,3.72,34850,,,,,,,,,,,,,,,,,,99999,99999,99999,99999,99999,99999,99999,99999,99999,99999,99999,99999
41:40:19,1510906680,2017-11-17T08:18:04,0.786,1895.5,21.60,18.53,23.04,818.730,2092.910,128.866669,17.92,2.4716,363,23830,1.94186,3.72,34844,,,,,,,,,,,,,,,,,,99999,99999,99999,99999,99999,99999,99999,99999,99999,99999,99999,99999
41:40:49,1510906710,2017-11-17T08:18:34,0.789,1895.9,21.60,18.54,23.04,818.730,2092.910,128.399994,17.87,2.4716,363,23827,1.94916,3.72,34839,,,,,,,,,,,,,,,,,,99999,99999,99999,99999,99999,99999,99999,99999,99999,99999,99999,99999
41:41:19,1510906740,2017-11-17T08:19:04,0.790,1896.3,21.62,18.53,23.06,818.680,2092.970,129.916672,18.04,2.4714,363,23831,1.95343,3.72,34834,,,,,,,,,,,,,,,,,,99999,99999,99999,99999,99999,99999,99999,99999,99999,99999,99999,99999
41:41:49,1510906770,2017-11-17T08:19:34,0.789,1896.7,21.61,18.55,23.04,818.680,2092.910,129.166672,17.87,2.4715,363,23830,1.95038,3.72,34828,,,,,,,,,,,,,,,,,,99999,99999,99999,99999,99999,99999,99999,99999,99999,99999,99999,99999
41:42:19,1510906800,2017-11-17T08:20:04,0.786,1897.1,21.62,18.55,23.08,818.680,2092.970,127.849998,17.82,2.4715,363,23829,1.94307,3.72,34823,,,,,,,,,,,,,,,,,,99999,99999,99999,99999,99999,99999,99999,99999,99999,99999,99999,99999
41:42:49,1510906830,2017-11-17T08:20:34,0.789,1897.5,21.62,18.54,23.06,818.650,2092.970,131.333328,17.78,2.4715,363,23832,1.94886,3.72,34818,,,,,,,,,,,,,,,,,,99999,99999,99999,99999,99999,99999,99999,99999,99999,99999,99999,99999
41:43:19,1510906860,2017-11-17T08:21:04,0.790,1897.9,21.63,18.54,23.06,818.650,2092.970,131.966660,17.58,2.4714,363,23832,1.95130,3.72,34812,,,,,,,,,,,,,,,,,,99999,99999,99999,99999,99999,99999,99999,99999,99999,99999,99999,99999
41:43:49,1510906890,2017-11-17T08:21:34,0.784,1898.2,21.63,18.56,23.06,818.650,2092.970,130.800003,17.49,2.4714,363,23830,1.93638,3.72,34807,,,,,,,,,,,,,,,,,,99999,99999,99999,99999,99999,99999,99999,99999,99999,99999,99999,99999
41:44:19,1510906920,2017-11-17T08:22:04,0.788,1898.6,21.64,18.54,23.04,818.730,2093.080,129.133331,17.77,2.4714,363,23833,1.94733,3.72,34801,,,,,,,,,,,,,,,,,,99999,99999,99999,99999,99999,99999,99999,99999,99999,99999,99999,99999
41:44:49,1510906950,2017-11-17T08:22:34,0.790,1899.0,21.64,18.56,23.08,818.730,2093.080,129.383331,17.74,2.4714,363,23830,1.95130,3.72,34796,,,,,,,,,,,,,,,,,,99999,99999,99999,99999,99999,99999,99999,99999,99999,99999,99999,99999
41:45:19,1510906980,2017-11-17T08:23:04,0.787,1899.4,21.65,18.58,23.06,818.700,2093.080,128.666672,17.59,2.4714,363,23830,1.94398,3.72,34791,,,,,,,,,,,,,,,,,,99999,99999,99999,99999,99999,99999,99999,99999,99999,99999,99999,99999
41:45:49,1510907010,2017-11-17T08:23:34,0.791,1899.8,21.66,18.57,23.10,818.660,2093.140,130.633331,17.93,2.4713,363,23831,1.95526,3.72,34785,,,,,,,,,,,,,,,,,,99999,99999,99999,99999,99999,99999,99999,99999,99999,99999,99999,99999
41:46:19,1510907040,2017-11-17T08:24:04,0.789,1900.2,21.66,18.59,23.08,818.690,2093.140,129.199997,17.84,2.4713,363,23833,1.95008,3.72,34780,,,,,,,,,,,,,,,,,,99999,99999,99999,99999,99999,99999,99999,99999,99999,99999,99999,99999
41:46:49,1510907070,2017-11-17T08:24:34,0.786,1900.6,21.68,18.59,23.12,818.610,2093.210,129.483337,17.86,2.4712,363,23829,1.94246,3.72,34774,,,,,,,,,,,,,,,,,,99999,99999,99999,99999,99999,99999,99999,99999,99999,99999,99999,99999
41:47:19,1510907100,2017-11-17T08:25:04,0.789,1901.0,21.68,18.60,23.12,818.710,2093.210,129.983337,17.76,2.4713,363,23830,1.94886,3.72,34769,,,,,,,,,,,,,,,,,,99999,99999,99999,99999,99999,99999,99999,99999,99999,99999,99999,99999
41:47:49,1510907130,2017-11-17T08:25:34,0.790,1901.4,21.68,18.59,23.12,818.790,2093.210,129.933334,17.71,2.4713,363,23830,1.95343,3.72,34764,,,,,,,,,,,,,,,,,,99999,99999,99999,99999,99999,99999,99999,99999,99999,99999,99999,99999
41:48:19,1510907160,2017-11-17T08:26:04,0.790,1901.8,21.69,18.60,23.08,818.740,2093.210,129.266663,17.30,2.4712,363,23835,1.95190,3.72,34758,,,,,,,,,,,,,,,,,,99999,99999,99999,99999,99999,99999,99999,99999,99999,99999,99999,99999
41:48:49,1510907190,2017-11-17T08:26:34,0.785,1902.2,21.69,18.61,23.14,818.740,2093.210,129.899994,17.56,2.4712,363,23832,1.93912,3.72,34753,,,,,,,,,,,,,,,,,,99999,99999,99999,99999,99999,99999,99999,99999,99999,99999,99999,99999
41:49:19,1510907220,2017-11-17T08:27:04,0.790,1902.6,21.70,18.60,23.18,818.710,2093.270,129.850006,17.33,2.4712,363,23833,1.95282,3.72,34747,,,,,,,,,,,,,,,,,,99999,99999,99999,99999,99999,99999,99999,99999,99999,99999,99999,99999
41:49:49,1510907250,2017-11-17T08:27:34,0.786,1903.0,21.70,18.61,23.17,818.680,2093.270,128.933334,17.58,2.4712,363,23833,1.94216,3.72,34742,,,,,,,,,,,,,,,,,,99999,99999,99999,99999,99999,99999,99999,99999,99999,99999,99999,99999
41:50:19,1510907280,2017-11-17T08:28:04,0.790,1903.4,21.71,18.61,23.17,818.650,2093.270,129.066666,17.72,2.4711,363,23833,1.95160,3.72,34737,,,,,,,,,,,,,,,,,,99999,99999,99999,99999,99999,99999,99999,99999,99999,99999,99999,99999
41:50:49,1510907310,2017-11-17T08:28:34,0.790,1903.8,21.71,18.63,23.14,818.680,2093.270,130.500000,17.68,2.4711,363,23832,1.95130,3.72,34731,,,,,,,,,,,,,,,,,,99999,99999,99999,99999,99999,99999,99999,99999,99999,99999,99999,99999
41:51:19,1510907340,2017-11-17T08:29:04,0.787,1904.2,21.72,18.64,23.12,818.630,2093.330,130.016663,17.71,2.4711,363,23831,1.94490,3.72,34726,,,,,,,,,,,,,,,,,,99999,99999,99999,99999,99999,99999,99999,99999,99999,99999,99999,99999
41:51:49,1510907370,2017-11-17T08:29:34,0.787,1904.6,21.73,18.63,23.18,818.650,2093.330,129.833328,17.60,2.4710,363,23832,1.94551,3.71,34720,,,,,,,,,,,,,,,,,,99999,99999,99999,99999,99999,99999,99999,99999,99999,99999,99999,99999
41:52:19,1510907400,2017-11-17T08:30:04,0.787,1904.9,21.74,18.63,23.17,818.650,2093.370,129.016663,17.76,2.4709,363,23834,1.94398,3.72,34715,,,,,,,,,,,,,,,,,,99999,99999,99999,99999,99999,99999,99999,99999,99999,99999,99999,99999
41:52:49,1510907430,2017-11-17T08:30:34,0.788,1905.3,21.73,18.64,23.22,818.700,2093.330,130.199997,17.37,2.4710,363,23832,1.94794,3.72,34710,,,,,,,,,,,,,,,,,,99999,99999,99999,99999,99999,99999,99999,99999,99999,99999,99999,99999
41:53:19,1510907460,2017-11-17T08:31:04,0.787,1905.7,21.73,18.65,23.15,818.620,2093.330,128.449997,17.59,2.4710,363,23833,1.94398,3.72,34704,,,,,,,,,,,,,,,,,,99999,99999,99999,99999,99999,99999,99999,99999,99999,99999,99999,99999
41:53:49,1510907490,2017-11-17T08:31:34,0.789,1906.1,21.73,18.64,23.17,818.570,2093.330,131.350006,17.79,2.4710,363,23833,1.94886,3.72,34699,,,,,,,,,,,,,,,,,,99999,99999,99999,99999,99999,99999,99999,99999,99999,99999,99999,99999
41:54:19,1510907520,2017-11-17T08:32:04,0.789,1906.5,21.74,18.65,23.18,818.620,2093.370,129.166672,17.64,2.4709,363,23833,1.94977,3.71,34693,,,,,,,,,,,,,,,,,,99999,99999,99999,99999,99999,99999,99999,99999,99999,99999,99999,99999
41:54:49,1510907550,2017-11-17T08:32:34,0.787,1906.9,21.74,18.63,23.17,818.620,2093.370,129.666672,17.50,2.4710,363,23832,1.94551,3.72,34688,,,,,,,,,,,,,,,,,,99999,99999,99999,99999,99999,99999,99999,99999,99999,99999,99999,99999
41:55:19,1510907580,2017-11-17T08:33:04,0.791,1907.3,21.73,18.63,23.18,818.570,2093.330,131.133331,17.80,2.4710,363,23834,1.95343,3.71,34683,,,,,,,,,,,,,,,,,,99999,99999,99999,99999,99999,99999,99999,99999,99999,99999,99999,99999
41:55:49,1510907610,2017-11-17T08:33:34,0.789,1907.7,21.73,18.63,23.20,818.620,2093.330,131.050003,17.87,2.4710,363,23834,1.95069,3.71,34677,,,,,,,,,,,,,,,,,,99999,99999,99999,99999,99999,99999,99999,99999,99999,99999,99999,99999
41:56:19,1510907640,2017-11-17T08:34:04,0.788,1908.1,21.72,18.63,23.17,818.570,2093.330,131.199997,17.45,2.4711,363,23831,1.94794,3.71,34672,,,,,,,,,,,,,,,,,,99999,99999,99999,99999,99999,99999,99999,99999,99999,99999,99999,99999
41:56:49,1510907670,2017-11-17T08:34:34,0.786,1908.5,21.72,18.62,23.15,818.600,2093.330,128.283340,17.46,2.4711,363,23832,1.94307,3.71,34666,,,,,,,,,,,,,,,,,,99999,99999,99999,99999,99999,99999,99999,99999,99999,99999,99999,99999
41:57:19,1510907700,2017-11-17T08:35:04,0.788,1908.9,21.72,18.63,23.17,818.630,2093.330,130.666672,17.24,2.4711,363,23832,1.94733,3.71,34661,,,,,,,,,,,,,,,,,,99999,99999,99999,99999,99999,99999,99999,99999,99999,99999,99999,99999
41:57:49,1510907730,2017-11-17T08:35:34,0.790,1909.3,21.72,18.63,23.15,818.570,2093.330,129.233337,17.63,2.4711,363,23834,1.95252,3.71,34656,,,,,,,,,,,,,,,,,,99999,99999,99999,99999,99999,99999,99999,99999,99999,99999,99999,99999
41:58:19,1510907760,2017-11-17T08:36:04,0.790,1909.7,21.72,18.62,23.14,818.600,2093.330,129.449997,17.37,2.4711,363,23832,1.95282,3.71,34650,,,,,,,,,,,,,,,,,,99999,99999,99999,99999,99999,99999,99999,99999,99999,99999,99999,99999
41:58:49,1510907790,2017-11-17T08:36:34,0.789,1910.1,21.73,18.63,23.14,818.620,2093.330,127.849998,17.15,2.4710,363,23832,1.94947,3.71,34645,,,,,,,,,,,,,,,,,,99999,99999,99999,99999,99999,99999,99999,99999,99999,99999,99999,99999
41:59:19,1510907820,2017-11-17T08:37:04,0.790,1910.5,21.73,18.63,23.15,818.510,2093.330,130.516663,17.41,2.4710,363,23833,1.95282,3.71,34639,,,,,,,,,,,,,,,,,,99999,99999,99999,99999,99999,99999,99999,99999,99999,99999,99999,99999
41:59:49,1510907850,2017-11-17T08:37:34,0.787,1910.9,21.75,18.65,23.15,818.560,2093.370,128.399994,17.68,2.4709,363,23835,1.94520,3.71,34634,,,,,,,,,,,,,,,,,,99999,99999,99999,99999,99999,99999,99999,99999,99999,99999,99999,99999
42:00:19,1510907880,2017-11-17T08:38:04,0.789,1911.3,21.75,18.68,23.18,818.620,2093.370,130.266663,17.56,2.4709,363,23831,1.94977,3.71,34629,,,,,,,,,,,,,,,,,,99999,99999,99999,99999,99999,99999,99999,99999,99999,99999,99999,99999
42:00:49,1510907910,2017-11-17T08:38:34,0.788,1911.7,21.76,18.66,23.18,818.670,2093.440,127.683334,17.66,2.4709,363,23835,1.94764,3.71,34623,,,,,,,,,,,,,,,,,,99999,99999,99999,99999,99999,99999,99999,99999,99999,99999,99999,99999
42:01:19,1510907940,2017-11-17T08:39:04,0.789,1912.0,21.77,18.68,23.20,818.720,2093.440,129.350006,17.48,2.4708,363,23833,1.94886,3.71,34618,,,,,,,,,,,,,,,,,,99999,99999,99999,99999,99999,99999,99999,99999,99999,99999,99999,99999
42:01:49,1510907970,2017-11-17T08:39:34,0.789,1912.4,21.78,18.66,23.20,818.530,2093.560,130.133331,17.15,2.4709,363,23833,1.95069,3.71,34612,,,,,,,,,,,,,,,,,,99999,99999,99999,99999,99999,99999,99999,99999,99999,99999,99999,99999
42:02:19,1510908000,2017-11-17T08:40:04,0.789,1912.8,21.80,18.71,23.22,818.660,2093.620,129.050003,17.32,2.4708,363,23834,1.95038,3.71,34607,,,,,,,,,,,,,,,,,,99999,99999,99999,99999,99999,99999,99999,99999,99999,99999,99999,99999
42:02:49,1510908030,2017-11-17T08:40:34,0.788,1913.2,21.81,18.70,23.22,818.570,2093.660,130.800003,17.10,2.4708,363,23835,1.94642,3.71,34601,,,,,,,,,,,,,,,,,,99999,99999,99999,99999,99999,99999,99999,99999,99999,99999,99999,99999
42:03:19,1510908060,2017-11-17T08:41:04,0.787,1913.6,21.81,18.72,23.28,818.520,2093.660,128.800003,17.24,2.4707,363,23837,1.94398,3.71,34596,,,,,,,,,,,,,,,,,,99999,99999,99999,99999,99999,99999,99999,99999,99999,99999,99999,99999
42:03:49,1510908090,2017-11-17T08:41:34,0.789,1914.0,21.83,18.73,23.25,818.520,2093.730,130.083328,17.31,2.4706,363,23835,1.95008,3.71,34591,,,,,,,,,,,,,,,,,,99999,99999,99999,99999,99999,99999,99999,99999,99999,99999,99999,99999
42:04:19,1510908120,2017-11-17T08:42:04,0.791,1914.4,21.83,18.73,23.25,818.570,2093.730,130.500000,17.35,2.4706,363,23836,1.95435,3.71,34585,,,,,,,,,,,,,,,,,,99999,99999,99999,99999,99999,99999,99999,99999,99999,99999,99999,99999
42:04:49,1510908150,2017-11-17T08:42:34,0.789,1914.8,21.84,18.73,23.28,818.520,2093.730,130.533340,16.82,2.4706,363,23836,1.94886,3.71,34580,,,,,,,,,,,,,,,,,,99999,99999,99999,99999,99999,99999,99999,99999,99999,99999,99999,99999
42:05:19,1510908180,2017-11-17T08:43:04,0.789,1915.2,21.85,18.75,23.30,818.590,2093.790,127.933334,17.33,2.4705,363,23833,1.94977,3.71,34574,,,,,,,,,,,,,,,,,,99999,99999,99999,99999,99999,99999,99999,99999,99999,99999,99999,99999
42:05:49,1510908210,2017-11-17T08:43:34,0.788,1915.6,21.86,18.75,23.30,818.620,2093.790,127.916664,17.23,2.4705,363,23838,1.94794,3.71,34569,,,,,,,,,,,,,,,,,,99999,99999,99999,99999,99999,99999,99999,99999,99999,99999,99999,99999
42:06:19,1510908240,2017-11-17T08:44:04,0.788,1916.0,21.86,18.76,23.28,818.670,2093.790,130.699997,17.49,2.4704,363,23837,1.94703,3.71,34563,,,,,,,,,,,,,,,,,,99999,99999,99999,99999,99999,99999,99999,99999,99999,99999,99999,99999
42:06:49,1510908270,2017-11-17T08:44:34,0.790,1916.4,21.86,18.77,23.32,818.620,2093.790,128.933334,17.29,2.4705,363,23836,1.95130,3.71,34558,,,,,,,,,,,,,,,,,,99999,99999,99999,99999,99999,99999,99999,99999,99999,99999,99999,99999
42:07:19,1510908300,2017-11-17T08:45:04,0.787,1916.8,21.87,18.76,23.28,818.620,2093.850,128.983337,16.98,2.4705,363,23837,1.94551,3.71,34553,,,,,,,,,,,,,,,,,,99999,99999,99999,99999,99999,99999,99999,99999,99999,99999,99999,99999
42:07:49,1510908330,2017-11-17T08:45:34,0.789,1917.2,21.88,18.76,23.33,818.610,2093.850,128.416672,16.92,2.4704,363,23838,1.94977,3.71,34547,,,,,,,,,,,,,,,,,,99999,99999,99999,99999,99999,99999,99999,99999,99999,99999,99999,99999
42:08:19,1510908360,2017-11-17T08:46:04,0.787,1917.6,21.88,18.78,23.30,818.610,2093.850,128.716660,17.34,2.4704,363,23839,1.94459,3.71,34542,,,,,,,,,,,,,,,,,,99999,99999,99999,99999,99999,99999,99999,99999,99999,99999,99999,99999
42:08:49,1510908390,2017-11-17T08:46:34,0.788,1918.0,21.89,18.78,23.33,818.640,2093.910,128.850006,17.35,2.4703,363,23839,1.94581,3.71,34536,,,,,,,,,,,,,,,,,,99999,99999,99999,99999,99999,99999,99999,99999,99999,99999,99999,99999
42:09:19,1510908420,2017-11-17T08:47:04,0.789,1918.4,21.88,18.77,23.32,818.580,2093.850,129.433334,17.06,2.4704,363,23839,1.94825,3.71,34531,,,,,,,,,,,,,,,,,,99999,99999,99999,99999,99999,99999,99999,99999,99999,99999,99999,99999
42:09:49,1510908450,2017-11-17T08:47:34,0.790,1918.8,21.89,18.79,23.33,818.560,2093.910,130.516663,17.11,2.4704,363,23836,1.95282,3.71,34525,,,,,,,,,,,,,,,,,,99999,99999,99999,99999,99999,99999,99999,99999,99999,99999,99999,99999
42:10:19,1510908480,2017-11-17T08:48:04,0.788,1919.1,21.91,18.80,23.34,818.580,2094.020,129.466660,16.94,2.4704,363,23840,1.94581,3.71,34520,,,,,,,,,,,,,,,,,,99999,99999,99999,99999,99999,99999,99999,99999,99999,99999,99999,99999
42:10:49,1510908510,2017-11-17T08:48:34,0.787,1919.5,21.90,18.80,23.36,818.470,2093.910,128.483337,17.39,2.4703,363,23840,1.94429,3.71,34515,,,,,,,,,,,,,,,,,,99999,99999,99999,99999,99999,99999,99999,99999,99999,99999,99999,99999
42:11:19,1510908540,2017-11-17T08:49:04,0.791,1919.9,21.90,18.79,23.32,818.390,2093.910,129.883331,17.40,2.4703,363,23837,1.95343,3.71,34509,,,,,,,,,,,,,,,,,,99999,99999,99999,99999,99999,99999,99999,99999,99999,99999,99999,99999
42:11:49,1510908570,2017-11-17T08:49:34,0.790,1920.3,21.91,18.80,23.34,818.450,2094.020,129.466660,17.34,2.4703,363,23837,1.95130,3.71,34504,,,,,,,,,,,,,,,,,,99999,99999,99999,99999,99999,99999,99999,99999,99999,99999,99999,99999
42:12:19,1510908600,2017-11-17T08:50:04,0.789,1920.7,21.90,18.80,23.33,818.580,2093.910,128.899994,17.45,2.4702,363,23839,1.94916,3.71,34498,,,,,,,,,,,,,,,,,,99999,99999,99999,99999,99999,99999,99999,99999,99999,99999,99999,99999
42:12:49,1510908630,2017-11-17T08:50:34,0.791,1921.1,21.89,18.79,23.33,818.500,2093.910,130.166672,17.18,2.4704,363,23839,1.95282,3.71,34493,,,,,,,,,,,,,,,,,,99999,99999,99999,99999,99999,99999,99999,99999,99999,99999,99999,99999
42:13:19,1510908660,2017-11-17T08:51:04,0.787,1921.5,21.90,18.79,23.34,818.550,2093.910,130.183334,16.86,2.4703,363,23837,1.94520,3.71,34488,,,,,,,,,,,,,,,,,,99999,99999,99999,99999,99999,99999,99999,99999,99999,99999,99999,99999
42:13:49,1510908690,2017-11-17T08:51:34,0.788,1921.9,21.89,18.78,23.33,818.530,2093.910,131.649994,17.29,2.4704,363,23837,1.94733,3.71,34482,,,,,,,,,,,,,,,,,,99999,99999,99999,99999,99999,99999,99999,99999,99999,99999,99999,99999
42:14:19,1510908720,2017-11-17T08:52:04,0.785,1922.3,21.88,18.77,23.32,818.500,2093.850,131.483337,17.14,2.4704,363,23836,1.93973,3.71,34477,,,,,,,,,,,,,,,,,,99999,99999,99999,99999,99999,99999,99999,99999,99999,99999,99999,99999
42:14:49,1510908750,2017-11-17T08:52:34,0.787,1922.7,21.88,18.77,23.34,818.580,2093.850,128.466660,17.10,2.4704,363,23834,1.94520,3.71,34471,,,,,,,,,,,,,,,,,,99999,99999,99999,99999,99999,99999,99999,99999,99999,99999,99999,99999
42:15:19,1510908780,2017-11-17T08:53:04,0.790,1923.1,21.87,18.77,23.32,818.530,2093.850,127.800003,16.94,2.4705,363,23838,1.95069,3.71,34466,,,,,,,,,,,,,,,,,,99999,99999,99999,99999,99999,99999,99999,99999,99999,99999,99999,99999
42:15:49,1510908810,2017-11-17T08:53:34,0.788,1923.5,21.87,18.77,23.32,818.620,2093.850,128.066666,17.10,2.4705,363,23838,1.94794,3.71,34460,,,,,,,,,,,,,,,,,,99999,99999,99999,99999,99999,99999,99999,99999,99999,99999,99999,99999
42:16:19,1510908840,2017-11-17T08:54:04,0.787,1923.9,21.87,18.77,23.30,818.620,2093.850,128.633331,17.29,2.4705,363,23836,1.94459,3.71,34455,,,,,,,,,,,,,,,,,,99999,99999,99999,99999,99999,99999,99999,99999,99999,99999,99999,99999
42:16:49,1510908870,2017-11-17T08:54:34,0.786,1924.3,21.87,18.77,23.30,818.480,2093.850,129.066666,17.28,2.4705,363,23839,1.94186,3.71,34450,,,,,,,,,,,,,,,,,,99999,99999,99999,99999,99999,99999,99999,99999,99999,99999,99999,99999
42:17:19,1510908900,2017-11-17T08:55:04,0.787,1924.7,21.87,18.80,23.30,818.530,2093.850,127.783333,17.35,2.4704,363,23838,1.94398,3.71,34444,,,,,,,,,,,,,,,,,,99999,99999,99999,99999,99999,99999,99999,99999,99999,99999,99999,99999
42:17:49,1510908930,2017-11-17T08:55:34,0.787,1925.1,21.87,18.78,23.30,818.510,2093.850,128.716660,17.38,2.4704,363,23837,1.94368,3.71,34439,,,,,,,,,,,,,,,,,,99999,99999,99999,99999,99999,99999,99999,99999,99999,99999,99999,99999
42:18:19,1510908960,2017-11-17T08:56:04,0.788,1925.5,21.88,18.77,23.32,818.640,2093.850,127.966667,17.48,2.4703,363,23837,1.94673,3.71,34433,,,,,,,,,,,,,,,,,,99999,99999,99999,99999,99999,99999,99999,99999,99999,99999,99999,99999
42:18:49,1510908990,2017-11-17T08:56:34,0.786,1925.8,21.87,18.79,23.34,818.560,2093.850,129.216660,17.23,2.4705,363,23838,1.94125,3.71,34428,,,,,,,,,,,,,,,,,,99999,99999,99999,99999,99999,99999,99999,99999,99999,99999,99999,99999
42:19:19,1510909020,2017-11-17T08:57:04,0.786,1926.2,21.87,18.77,23.32,818.290,2093.850,129.600006,16.97,2.4705,363,23838,1.94216,3.71,34422,,,,,,,,,,,,,,,,,,99999,99999,99999,99999,99999,99999,99999,99999,99999,99999,99999,99999
42:19:49,1510909050,2017-11-17T08:57:34,0.786,1926.6,21.87,18.78,23.28,818.510,2093.850,129.683334,17.18,2.4705,363,23837,1.94277,3.71,34417,,,,,,,,,,,,,,,,,,99999,99999,99999,99999,99999,99999,99999,99999,99999,99999,99999,99999
42:20:19,1510909080,2017-11-17T08:58:04,0.787,1927.0,21.86,18.78,23.32,818.460,2093.790,128.566666,17.20,2.4705,363,23836,1.94307,3.71,34412,,,,,,,,,,,,,,,,,,99999,99999,99999,99999,99999,99999,99999,99999,99999,99999,99999,99999
42:20:49,1510909110,2017-11-17T08:58:34,0.787,1927.4,21.86,18.77,23.32,818.460,2093.790,128.833328,17.21,2.4705,363,23838,1.94368,3.71,34406,,,,,,,,,,,,,,,,,,99999,99999,99999,99999,99999,99999,99999,99999,99999,99999,99999,99999
42:21:19,1510909140,2017-11-17T08:59:04,0.791,1927.8,21.86,18.78,23.30,818.380,2093.790,130.933334,17.26,2.4705,363,23839,1.95313,3.71,34401,,,,,,,,,,,,,,,,,,99999,99999,99999,99999,99999,99999,99999,99999,99999,99999,99999,99999
42:21:49,1510909170,2017-11-17T08:59:34,0.787,1928.2,21.86,18.78,23.32,818.410,2093.790,128.699997,16.92,2.4705,363,23836,1.94338,3.71,34395,,,,,,,,,,,,,,,,,,99999,99999,99999,99999,99999,99999,99999,99999,99999,99999,99999,99999
42:22:19,1510909200,2017-11-17T09:00:04,0.788,1928.6,21.87,18.78,23.30,818.400,2093.850,130.533340,17.02,2.4705,363,23834,1.94703,3.71,34390,,,,,,,,,,,,,,,,,,99999,99999,99999,99999,99999,99999,99999,99999,99999,99999,99999,99999
42:22:49,1510909230,2017-11-17T09:00:34,0.790,1929.0,21.87,18.80,23.30,818.400,2093.850,128.899994,17.15,2.4705,363,23837,1.95160,3.71,34385,,,,,,,,,,,,,,,,,,99999,99999,99999,99999,99999,99999,99999,99999,99999,99999,99999,99999
42:23:19,1510909260,2017-11-17T09:01:04,0.788,1929.4,21.88,18.79,23.32,818.400,2093.850,127.050003,17.12,2.4704,363,23838,1.94733,3.71,34379,,,,,,,,,,,,,,,,,,99999,99999,99999,99999,99999,99999,99999,99999,99999,99999,99999,99999
42:23:49,1510909290,2017-11-17T09:01:34,0.788,1929.8,21.89,18.80,23.32,818.370,2093.910,128.433334,17.18,2.4704,363,23836,1.94581,3.71,34374,,,,,,,,,,,,,,,,,,99999,99999,99999,99999,99999,99999,99999,99999,99999,99999,99999,99999
42:24:19,1510909320,2017-11-17T09:02:04,0.787,1930.2,21.89,18.80,23.32,818.320,2093.910,128.466660,17.27,2.4704,363,23839,1.94490,3.71,34368,,,,,,,,,,,,,,,,,,99999,99999,99999,99999,99999,99999,99999,99999,99999,99999,99999,99999
42:24:49,1510909350,2017-11-17T09:02:34,0.787,1930.6,21.90,18.83,23.33,818.290,2093.910,128.750000,17.48,2.4702,363,23839,1.94490,3.71,34363,,,,,,,,,,,,,,,,,,99999,99999,99999,99999,99999,99999,99999,99999,99999,99999,99999,99999
42:25:19,1510909380,2017-11-17T09:03:04,0.789,1931.0,21.90,18.82,23.32,818.310,2093.910,130.533340,17.11,2.4703,363,23838,1.94855,3.71,34357,,,,,,,,,,,,,,,,,,99999,99999,99999,99999,99999,99999,99999,99999,99999,99999,99999,99999
42:25:49,1510909410,2017-11-17T09:03:34,0.793,1931.4,21.89,18.82,23.32,818.320,2093.910,129.516663,17.48,2.4703,363,23838,1.95862,3.71,34352,,,,,,,,,,,,,,,,,,99999,99999,99999,99999,99999,99999,99999,99999,99999,99999,99999,99999
42:26:19,1510909440,2017-11-17T09:04:04,0.790,1931.8,21.88,18.81,23.33,818.450,2093.850,128.016663,17.16,2.4704,363,23839,1.95252,3.71,34347,,,,,,,,,,,,,,,,,,99999,99999,99999,99999,99999,99999,99999,99999,99999,99999,99999,99999
42:26:49,1510909470,2017-11-17T09:04:34,0.789,1932.2,21.89,18.80,23.34,818.450,2093.910,128.649994,17.26,2.4704,363,23839,1.94886,3.71,34341,,,,,,,,,,,,,,,,,,99999,99999,99999,99999,99999,99999,99999,99999,99999,99999,99999,99999
42:27:19,1510909500,2017-11-17T09:05:04,0.789,1932.6,21.88,18.81,23.36,818.400,2093.850,129.366669,17.01,2.4704,363,23839,1.94977,3.71,34336,,,,,,,,,,,,,,,,,,99999,99999,99999,99999,99999,99999,99999,99999,99999,99999,99999,99999
42:27:49,1510909530,2017-11-17T09:05:34,0.787,1932.9,21.88,18.80,23.33,818.450,2093.850,128.983337,17.12,2.4704,363,23838,1.94490,3.71,34330,,,,,,,,,,,,,,,,,,99999,99999,99999,99999,99999,99999,99999,99999,99999,99999,99999,99999
42:28:19,1510909560,2017-11-17T09:06:04,0.790,1933.3,21.87,18.80,23.34,818.480,2093.850,130.333328,17.20,2.4705,363,23838,1.95099,3.71,34325,,,,,,,,,,,,,,,,,,99999,99999,99999,99999,99999,99999,99999,99999,99999,99999,99999,99999
42:28:49,1510909590,2017-11-17T09:06:34,0.786,1933.7,21.88,18.78,23.33,818.400,2093.850,131.166672,17.63,2.4703,363,23837,1.94186,3.71,34319,,,,,,,,,,,,,,,,,,99999,99999,99999,99999,99999,99999,99999,99999,99999,99999,99999,99999
42:29:19,1510909620,2017-11-17T09:07:04,0.786,1934.1,21.86,18.77,23.32,818.380,2093.790,135.133331,17.11,2.4705,363,23836,1.94125,3.71,34314,,,,,,,,,,,,,,,,,,99999,99999,99999,99999,99999,99999,99999,99999,99999,99999,99999,99999
42:29:49,1510909650,2017-11-17T09:07:34,0.791,1934.5,21.86,18.77,23.32,818.320,2093.790,130.483337,17.45,2.4704,363,23838,1.95343,3.71,34309,,,,,,,,,,,,,,,,,,99999,99999,99999,99999,99999,99999,99999,99999,99999,99999,99999,99999
42:30:19,1510909680,2017-11-17T09:08:04,0.791,1934.9,21.85,18.77,23.32,818.560,2093.790,129.033340,17.32,2.4705,363,23837,1.95526,3.71,34303,,,,,,,,,,,,,,,,,,99999,99999,99999,99999,99999,99999,99999,99999,99999,99999,99999,99999
42:30:49,1510909710,2017-11-17T09:08:34,0.789,1935.3,21.84,18.77,23.32,818.540,2093.730,127.750000,17.16,2.4706,363,23838,1.94977,3.71,34298,,,,,,,,,,,,,,,,,,99999,99999,99999,99999,99999,99999,99999,99999,99999,99999,99999,99999
42:31:19,1510909740,2017-11-17T09:09:04,0.788,1935.7,21.84,18.76,23.28,818.490,2093.730,128.350006,17.30,2.4706,363,23838,1.94733,3.71,34292,,,,,,,,,,,,,,,,,,99999,99999,99999,99999,99999,99999,99999,99999,99999,99999,99999,99999
42:31:49,1510909770,2017-11-17T09:09:34,0.792,1936.1,21.85,18.76,23.32,818.510,2093.790,129.316666,17.12,2.4706,363,23838,1.95679,3.71,34287,,,,,,,,,,,,,,,,,,99999,99999,99999,99999,99999,99999,99999,99999,99999,99999,99999,99999
42:32:19,1510909800,2017-11-17T09:10:04,0.788,1936.5,21.84,18.76,23.26,818.540,2093.730,128.466660,17.18,2.4706,363,23838,1.94642,3.71,34282,,,,,,,,,,,,,,,,,,99999,99999,99999,99999,99999,99999,99999,99999,99999,99999,99999,99999
42:32:49,1510909830,2017-11-17T09:10:34,0.791,1936.9,21.85,18.77,23.30,818.540,2093.790,129.883331,17.15,2.4706,363,23834,1.95465,3.70,34276,,,,,,,,,,,,,,,,,,99999,99999,99999,99999,99999,99999,99999,99999,99999,99999,99999,99999
42:33:19,1510909860,2017-11-17T09:11:04,0.790,1937.3,21.85,18.76,23.32,818.560,2093.790,129.383331,17.29,2.4705,363,23838,1.95130,3.70,34271,,,,,,,,,,,,,,,,,,99999,99999,99999,99999,99999,99999,99999,99999,99999,99999,99999,99999
42:33:49,1510909890,2017-11-17T09:11:34,0.787,1937.7,21.85,18.78,23.28,818.540,2093.790,128.850006,17.38,2.4705,363,23837,1.94368,3.70,34265,,,,,,,,,,,,,,,,,,99999,99999,99999,99999,99999,99999,99999,99999,99999,99999,99999,99999
42:34:19,1510909920,2017-11-17T09:12:04,0.788,1938.1,21.86,18.78,23.30,818.490,2093.790,127.949997,17.25,2.4705,363,23836,1.94794,3.70,34260,,,,,,,,,,,,,,,,,,99999,99999,99999,99999,99999,99999,99999,99999,99999,99999,99999,99999
42:34:49,1510909950,2017-11-17T09:12:34,0.790,1938.5,21.85,18.77,23.30,818.460,2093.790,130.500000,17.12,2.4706,363,23840,1.95282,3.70,34254,,,,,,,,,,,,,,,,,,99999,99999,99999,99999,99999,99999,99999,99999,99999,99999,99999,99999
42:35:19,1510909980,2017-11-17T09:13:04,0.791,1938.9,21.86,18.78,23.28,818.510,2093.790,128.649994,17.39,2.4705,363,23838,1.95526,3.70,34249,,,,,,,,,,,,,,,,,,99999,99999,99999,99999,99999,99999,99999,99999,99999,99999,99999,99999
42:35:49,1510910010,2017-11-17T09:13:34,0.791,1939.3,21.86,18.78,23.30,818.490,2093.790,131.216660,17.24,2.4705,363,23837,1.95343,3.70,34244,,,,,,,,,,,,,,,,,,99999,99999,99999,99999,99999,99999,99999,99999,99999,99999,99999,99999
42:36:19,1510910040,2017-11-17T09:14:04,0.788,1939.7,21.86,18.77,23.25,818.380,2093.790,127.566666,17.72,2.4704,363,23839,1.94612,3.70,34238,,,,,,,,,,,,,,,,,,99999,99999,99999,99999,99999,99999,99999,99999,99999,99999,99999,99999
42:36:49,1510910070,2017-11-17T09:14:34,0.787,1940.0,21.85,18.77,23.28,818.540,2093.790,129.616669,17.09,2.4706,363,23838,1.94338,3.70,34233,,,,,,,,,,,,,,,,,,99999,99999,99999,99999,99999,99999,99999,99999,99999,99999,99999,99999
42:37:19,1510910100,2017-11-17T09:15:04,0.789,1940.4,21.85,18.77,23.28,818.480,2093.790,131.016663,17.35,2.4705,363,23840,1.95038,3.70,34227,,,,,,,,,,,,,,,,,,99999,99999,99999,99999,99999,99999,99999,99999,99999,99999,99999,99999
42:37:49,1510910130,2017-11-17T09:15:34,0.790,1940.8,21.84,18.77,23.30,818.380,2093.730,131.066666,17.15,2.4706,363,23837,1.95190,3.70,34222,,,,,,,,,,,,,,,,,,99999,99999,99999,99999,99999,99999,99999,99999,99999,99999,99999,99999
42:38:19,1510910160,2017-11-17T09:16:04,0.785,1941.2,21.83,18.76,23.26,818.330,2093.730,136.666672,17.11,2.4707,363,23837,1.94003,3.70,34216,,,,,,,,,,,,,,,,,,99999,99999,99999,99999,99999,99999,99999,99999,99999,99999,99999,99999
42:38:49,1510910190,2017-11-17T09:16:34,0.788,1941.6,21.81,18.75,23.28,818.410,2093.660,129.866669,17.09,2.4708,363,23836,1.94642,3.70,34211,,,,,,,,,,,,,,,,,,99999,99999,99999,99999,99999,99999,99999,99999,99999,99999,99999,99999
42:39:19,1510910220,2017-11-17T09:17:04,0.785,1942.0,21.82,18.74,23.26,818.410,2093.660,130.449997,17.21,2.4707,363,23835,1.93942,3.70,34206,,,,,,,,,,,,,,,,,,99999,99999,99999,99999,99999,99999,99999,99999,99999,99999,99999,99999
42:39:49,1510910250,2017-11-17T09:17:34,0.788,1942.4,21.82,18.74,23.20,818.470,2093.660,127.566666,17.26,2.4707,363,23838,1.94733,3.70,34200,,,,,,,,,,,,,,,,,,99999,99999,99999,99999,99999,99999,99999,99999,99999,99999,99999,99999
42:40:19,1510910280,2017-11-17T09:18:04,0.789,1942.8,21.80,18.74,23.22,818.310,2093.620,128.016663,17.16,2.4708,363,23835,1.94825,3.70,34195,,,,,,,,,,,,,,,,,,99999,99999,99999,99999,99999,99999,99999,99999,99999,99999,99999,99999
42:40:49,1510910310,2017-11-17T09:18:34,0.787,1943.2,21.81,18.73,23.26,818.440,2093.660,129.216660,17.25,2.4707,363,23835,1.94338,3.70,34189,,,,,,,,,,,,,,,,,,99999,99999,99999,99999,99999,99999,99999,99999,99999,99999,99999,99999
42:41:19,1510910340,2017-11-17T09:19:04,0.791,1943.6,21.81,18.73,23.22,818.360,2093.660,129.133331,17.16,2.4708,363,23838,1.95404,3.70,34184,,,,,,,,,,,,,,,,,,99999,99999,99999,99999,99999,99999,99999,99999,99999,99999,99999,99999
42:41:49,1510910370,2017-11-17T09:19:34,0.786,1944.0,21.82,18.74,23.28,818.520,2093.660,127.349998,17.05,2.4707,363,23835,1.94277,3.70,34178,,,,,,,,,,,,,,,,,,99999,99999,99999,99999,99999,99999,99999,99999,99999,99999,99999,99999
42:42:19,1510910400,2017-11-17T09:20:04,0.786,1944.4,21.81,18.75,23.25,818.440,2093.660,128.866669,17.38,2.4707,363,23836,1.94246,3.70,34173,,,,,,,,,,,,,,,,,,99999,99999,99999,99999,99999,99999,99999,99999,99999,99999,99999,99999
42:42:49,1510910430,2017-11-17T09:20:34,0.786,1944.8,21.82,18.75,23.23,818.360,2093.660,131.866669,17.11,2.4707,363,23837,1.94155,3.70,34168,,,,,,,,,,,,,,,,,,99999,99999,99999,99999,99999,99999,99999,99999,99999,99999,99999,99999
42:43:19,1510910460,2017-11-17T09:21:04,0.789,1945.2,21.82,18.75,23.25,818.440,2093.660,129.933334,17.54,2.4706,363,23834,1.95008,3.70,34162,,,,,,,,,,,,,,,,,,99999,99999,99999,99999,99999,99999,99999,99999,99999,99999,99999,99999
42:43:49,1510910490,2017-11-17T09:21:34,0.789,1945.6,21.82,18.75,23.26,818.410,2093.660,129.816666,17.18,2.4707,363,23836,1.94855,3.70,34157,,,,,,,,,,,,,,,,,,99999,99999,99999,99999,99999,99999,99999,99999,99999,99999,99999,99999
42:44:19,1510910520,2017-11-17T09:22:04,0.789,1946.0,21.83,18.75,23.22,818.330,2093.730,128.199997,17.08,2.4707,363,23837,1.94916,3.70,34151,,,,,,,,,,,,,,,,,,99999,99999,99999,99999,99999,99999,99999,99999,99999,99999,99999,99999
42:44:49,1510910550,2017-11-17T09:22:34,0.791,1946.4,21.82,18.76,23.25,818.410,2093.660,129.933334,17.20,2.4707,363,23837,1.95313,3.70,34146,,,,,,,,,,,,,,,,,,99999,99999,99999,99999,99999,99999,99999,99999,99999,99999,99999,99999
42:45:19,1510910580,2017-11-17T09:23:04,0.791,1946.8,21.84,18.77,23.26,818.460,2093.730,130.616669,17.15,2.4706,363,23837,1.95343,3.70,34140,,,,,,,,,,,,,,,,,,99999,99999,99999,99999,99999,99999,99999,99999,99999,99999,99999,99999
42:45:49,1510910610,2017-11-17T09:23:34,0.790,1947.2,21.84,18.76,23.26,818.440,2093.730,130.516663,17.28,2.4706,363,23836,1.95130,3.70,34135,,,,,,,,,,,,,,,,,,99999,99999,99999,99999,99999,99999,99999,99999,99999,99999,99999,99999
42:46:19,1510910640,2017-11-17T09:24:04,0.790,1947.5,21.84,18.76,23.30,818.460,2093.730,129.699997,17.50,2.4705,363,23837,1.95252,3.70,34130,,,,,,,,,,,,,,,,,,99999,99999,99999,99999,99999,99999,99999,99999,99999,99999,99999,99999
42:46:49,1510910670,2017-11-17T09:24:34,0.787,1947.9,21.84,18.75,23.26,818.440,2093.730,128.449997,17.12,2.4706,363,23838,1.94398,3.70,34124,,,,,,,,,,,,,,,,,,99999,99999,99999,99999,99999,99999,99999,99999,99999,99999,99999,99999
42:47:19,1510910700,2017-11-17T09:25:04,0.790,1948.3,21.83,18.75,23.28,818.250,2093.730,132.166672,17.52,2.4706,363,23839,1.95099,3.70,34119,,,,,,,,,,,,,,,,,,99999,99999,99999,99999,99999,99999,99999,99999,99999,99999,99999,99999
42:47:49,1510910730,2017-11-17T09:25:34,0.788,1948.7,21.84,18.76,23.28,818.220,2093.730,131.716660,17.42,2.4705,363,23839,1.94733,3.70,34113,,,,,,,,,,,,,,,,,,99999,99999,99999,99999,99999,99999,99999,99999,99999,99999,99999,99999
42:48:19,1510910760,2017-11-17T09:26:04,0.784,1949.1,21.83,18.74,23.28,818.170,2093.730,137.116669,17.11,2.4707,363,23836,1.93578,3.70,34108,,,,,,,,,,,,,,,,,,99999,99999,99999,99999,99999,99999,99999,99999,99999,99999,99999,99999
42:48:49,1510910790,2017-11-17T09:26:34,0.786,1949.5,21.83,18.75,23.26,818.330,2093.730,133.766663,17.22,2.4707,363,23835,1.94094,3.70,34102,,,,,,,,,,,,,,,,,,99999,99999,99999,99999,99999,99999,99999,99999,99999,99999,99999,99999
42:49:19,1510910820,2017-11-17T09:27:04,0.787,1949.9,21.82,18.75,23.26,818.280,2093.660,127.300003,17.28,2.4707,363,23835,1.94551,3.70,34097,,,,,,,,,,,,,,,,,,99999,99999,99999,99999,99999,99999,99999,99999,99999,99999,99999,99999
42:49:49,1510910850,2017-11-17T09:27:34,0.790,1950.3,21.81,18.74,23.25,818.280,2093.660,130.250000,17.27,2.4707,363,23834,1.95130,3.70,34092,,,,,,,,,,,,,,,,,,99999,99999,99999,99999,99999,99999,99999,99999,99999,99999,99999,99999
42:50:19,1510910880,2017-11-17T09:28:04,0.787,1950.7,21.81,18.74,23.23,818.300,2093.660,129.250000,17.42,2.4707,363,23836,1.94459,3.70,34086,,,,,,,,,,,,,,,,,,99999,99999,99999,99999,99999,99999,99999,99999,99999,99999,99999,99999
42:50:49,1510910910,2017-11-17T09:28:34,0.786,1951.1,21.81,18.74,23.22,818.360,2093.660,127.949997,17.51,2.4707,363,23836,1.94246,3.70,34081,,,,,,,,,,,,,,,,,,99999,99999,99999,99999,99999,99999,99999,99999,99999,99999,99999,99999
42:51:19,1510910940,2017-11-17T09:29:04,0.790,1951.5,21.81,18.74,23.23,818.380,2093.660,130.550003,17.18,2.4707,363,23833,1.95099,3.70,34075,,,,,,,,,,,,,,,,,,99999,99999,99999,99999,99999,99999,99999,99999,99999,99999,99999,99999
42:51:49,1510910970,2017-11-17T09:29:34,0.786,1951.9,21.81,18.73,23.25,818.300,2093.660,129.383331,17.37,2.4707,363,23835,1.94307,3.70,34070,,,,,,,,,,,,,,,,,,99999,99999,99999,99999,99999,99999,99999,99999,99999,99999,99999,99999
42:52:19,1510911000,2017-11-17T09:30:04,0.791,1952.3,21.82,18.72,23.23,818.280,2093.660,129.333328,17.07,2.4707,363,23838,1.95435,3.70,34064,,,,,,,,,,,,,,,,,,99999,99999,99999,99999,99999,99999,99999,99999,99999,99999,99999,99999
42:52:49,1510911030,2017-11-17T09:30:34,0.791,1952.7,21.80,18.74,23.23,818.280,2093.620,130.566666,17.17,2.4708,363,23833,1.95374,3.70,34059,,,,,,,,,,,,,,,,,,99999,99999,99999,99999,99999,99999,99999,99999,99999,99999,99999,99999
42:53:19,1510911060,2017-11-17T09:31:04,0.791,1953.1,21.81,18.76,23.25,818.360,2093.660,129.350006,17.16,2.4708,363,23835,1.95557,3.70,34054,,,,,,,,,,,,,,,,,,99999,99999,99999,99999,99999,99999,99999,99999,99999,99999,99999,99999
42:53:49,1510911090,2017-11-17T09:31:34,0.788,1953.5,21.81,18.75,23.20,818.280,2093.660,129.366669,17.26,2.4707,363,23839,1.94764,3.70,34048,,,,,,,,,,,,,,,,,,99999,99999,99999,99999,99999,99999,99999,99999,99999,99999,99999,99999
42:54:19,1510911120,2017-11-17T09:32:04,0.787,1953.9,21.81,18.76,23.25,818.300,2093.660,129.966660,17.46,2.4707,363,23836,1.94398,3.70,34043,,,,,,,,,,,,,,,,,,99999,99999,99999,99999,99999,99999,99999,99999,99999,99999,99999,99999
42:54:49,1510911150,2017-11-17T09:32:34,0.788,1954.2,21.81,18.74,23.22,818.280,2093.660,129.016663,17.43,2.4707,363,23837,1.94581,3.70,34037,,,,,,,,,,,,,,,,,,99999,99999,99999,99999,99999,99999,99999,99999,99999,99999,99999,99999
42:55:19,1510911180,2017-11-17T09:33:04,0.789,1954.6,21.80,18.74,23.25,818.260,2093.620,128.116669,17.15,2.4708,363,23836,1.94886,3.70,34032,,,,,,,,,,,,,,,,,,99999,99999,99999,99999,99999,99999,99999,99999,99999,99999,99999,99999
42:55:49,1510911210,2017-11-17T09:33:34,0.790,1955.0,21.81,18.75,23.28,818.250,2093.660,130.683334,17.36,2.4707,363,23836,1.95069,3.70,34026,,,,,,,,,,,,,,,,,,99999,99999,99999,99999,99999,99999,99999,99999,99999,99999,99999,99999
42:56:19,1510911240,2017-11-17T09:34:04,0.788,1955.4,21.81,18.75,23.26,818.200,2093.660,130.449997,17.26,2.4707,363,23834,1.94581,3.70,34021,,,,,,,,,,,,,,,,,,99999,99999,99999,99999,99999,99999,99999,99999,99999,99999,99999,99999
42:56:49,1510911270,2017-11-17T09:34:34,0.789,1955.8,21.80,18.75,23.26,818.230,2093.620,128.649994,17.10,2.4708,363,23836,1.95038,3.70,34015,,,,,,,,,,,,,,,,,,99999,99999,99999,99999,99999,99999,99999,99999,99999,99999,99999,99999
42:57:19,1510911300,2017-11-17T09:35:04,0.786,1956.2,21.80,18.75,23.26,818.200,2093.620,129.199997,17.25,2.4708,363,23836,1.94307,3.70,34010,,,,,,,,,,,,,,,,,,99999,99999,99999,99999,99999,99999,99999,99999,99999,99999,99999,99999
42:57:49,1510911330,2017-11-17T09:35:34,0.789,1956.6,21.81,18.74,23.22,818.220,2093.660,129.633331,17.35,2.4707,363,23835,1.94977,3.70,34005,,,,,,,,,,,,,,,,,,99999,99999,99999,99999,99999,99999,99999,99999,99999,99999,99999,99999
42:58:19,1510911360,2017-11-17T09:36:04,0.791,1957.0,21.81,18.74,23.25,818.250,2093.660,129.533340,17.30,2.4707,363,23836,1.95313,3.70,33999,,,,,,,,,,,,,,,,,,99999,99999,99999,99999,99999,99999,99999,99999,99999,99999,99999,99999
42:58:49,1510911390,2017-11-17T09:36:34,0.786,1957.4,21.80,18.75,23.25,818.230,2093.620,128.483337,17.28,2.4708,363,23838,1.94307,3.70,33994,,,,,,,,,,,,,,,,,,99999,99999,99999,99999,99999,99999,99999,99999,99999,99999,99999,99999
42:59:19,1510911420,2017-11-17T09:37:04,0.787,1957.8,21.80,18.74,23.25,818.310,2093.620,132.333328,17.17,2.4708,363,23835,1.94520,3.70,33988,,,,,,,,,,,,,,,,,,99999,99999,99999,99999,99999,99999,99999,99999,99999,99999,99999,99999
42:59:49,1510911450,2017-11-17T09:37:34,0.785,1958.2,21.80,18.75,23.25,818.230,2093.620,130.949997,17.42,2.4708,363,23839,1.93912,3.70,33983,,,,,,,,,,,,,,,,,,99999,99999,99999,99999,99999,99999,99999,99999,99999,99999,99999,99999
43:00:19,1510911480,2017-11-17T09:38:04,0.791,1958.6,21.80,18.74,23.26,818.280,2093.620,129.899994,17.35,2.4708,363,23838,1.95374,3.70,33977,,,,,,,,,,,,,,,,,,99999,99999,99999,99999,99999,99999,99999,99999,99999,99999,99999,99999
43:00:49,1510911510,2017-11-17T09:38:34,0.787,1959.0,21.80,18.74,23.22,818.390,2093.620,128.616669,17.29,2.4708,363,23836,1.94398,3.70,33972,,,,,,,,,,,,,,,,,,99999,99999,99999,99999,99999,99999,99999,99999,99999,99999,99999,99999
43:01:19,1510911540,2017-11-17T09:39:04,0.789,1959.4,21.80,18.74,23.23,818.420,2093.620,128.383331,17.26,2.4708,363,23837,1.95038,3.70,33967,,,,,,,,,,,,,,,,,,99999,99999,99999,99999,99999,99999,99999,99999,99999,99999,99999,99999
43:01:49,1510911570,2017-11-17T09:39:34,0.786,1959.8,21.80,18.73,23.22,818.200,2093.620,128.833328,17.06,2.4708,363,23835,1.94216,3.70,33961,,,,,,,,,,,,,,,,,,99999,99999,99999,99999,99999,99999,99999,99999,99999,99999,99999,99999
43:02:19,1510911600,2017-11-17T09:40:04,0.789,1960.2,21.80,18.73,23.25,818.260,2093.620,129.600006,17.28,2.4708,363,23836,1.94886,3.70,33956,,,,,,,,,,,,,,,,,,99999,99999,99999,99999,99999,99999,99999,99999,99999,99999,99999,99999
43:02:49,1510911630,2017-11-17T09:40:34,0.790,1960.6,21.80,18.75,23.23,818.310,2093.620,130.166672,17.61,2.4707,363,23835,1.95252,3.70,33950,,,,,,,,,,,,,,,,,,99999,99999,99999,99999,99999,99999,99999,99999,99999,99999,99999,99999
43:03:19,1510911660,2017-11-17T09:41:04,0.789,1960.9,21.81,18.74,23.22,818.280,2093.660,127.900002,17.33,2.4707,363,23836,1.95008,3.70,33945,,,,,,,,,,,,,,,,,,99999,99999,99999,99999,99999,99999,99999,99999,99999,99999,99999,99999
43:03:49,1510911690,2017-11-17T09:41:34,0.787,1961.3,21.80,18.75,23.18,818.310,2093.620,128.116669,17.30,2.4708,363,23836,1.94398,3.70,33939,,,,,,,,,,,,,,,,,,99999,99999,99999,99999,99999,99999,99999,99999,99999,99999,99999,99999
43:04:19,1510911720,2017-11-17T09:42:04,0.788,1961.7,21.79,18.74,23.23,818.230,2093.560,129.683334,17.22,2.4708,363,23836,1.94673,3.70,33934,,,,,,,,,,,,,,,,,,99999,99999,99999,99999,99999,99999,99999,99999,99999,99999,99999,99999
43:04:49,1510911750,2017-11-17T09:42:34,0.787,1962.1,21.79,18.74,23.23,818.340,2093.560,126.733330,17.36,2.4708,363,23837,1.94459,3.70,33928,,,,,,,,,,,,,,,,,,99999,99999,99999,99999,99999,99999,99999,99999,99999,99999,99999,99999
43:05:19,1510911780,2017-11-17T09:43:04,0.791,1962.5,21.78,18.73,23.22,818.320,2093.560,129.300003,17.53,2.4708,363,23835,1.95496,3.70,33923,,,,,,,,,,,,,,,,,,99999,99999,99999,99999,99999,99999,99999,99999,99999,99999,99999,99999
43:05:49,1510911810,2017-11-17T09:43:34,0.789,1962.9,21.79,18.72,23.23,818.280,2093.560,128.949997,17.32,2.4708,363,23836,1.94855,3.70,33918,,,,,,,,,,,,,,,,,,99999,99999,99999,99999,99999,99999,99999,99999,99999,99999,99999,99999
43:06:19,1510911840,2017-11-17T09:44:04,0.786,1963.3,21.78,18.71,23.23,818.270,2093.560,128.666672,17.30,2.4709,363,23836,1.94307,3.70,33912,,,,,,,,,,,,,,,,,,99999,99999,99999,99999,99999,99999,99999,99999,99999,99999,99999,99999
43:06:49,1510911870,2017-11-17T09:44:34,0.786,1963.7,21.77,18.70,23.22,818.350,2093.440,129.066666,17.26,2.4708,363,23837,1.94246,3.70,33907,,,,,,,,,,,,,,,,,,99999,99999,99999,99999,99999,99999,99999,99999,99999,99999,99999,99999
43:07:19,1510911900,2017-11-17T09:45:04,0.789,1964.1,21.78,18.69,23.22,818.290,2093.560,128.300003,17.15,2.4709,363,23837,1.95069,3.70,33901,,,,,,,,,,,,,,,,,,99999,99999,99999,99999,99999,99999,99999,99999,99999,99999,99999,99999
43:07:49,1510911930,2017-11-17T09:45:34,0.787,1964.5,21.76,18.70,23.23,818.320,2093.440,129.233337,17.25,2.4709,363,23838,1.94429,3.70,33896,,,,,,,,,,,,,,,,,,99999,99999,99999,99999,99999,99999,99999,99999,99999,99999,99999,99999
43:08:19,1510911960,2017-11-17T09:46:04,0.789,1964.9,21.75,18.69,23.22,818.400,2093.370,129.283340,17.27,2.4709,363,23837,1.95008,3.70,33890,,,,,,,,,,,,,,,,,,99999,99999,99999,99999,99999,99999,99999,99999,99999,99999,99999,99999
43:08:49,1510911990,2017-11-17T09:46:34,0.789,1965.3,21.75,18.68,23.17,818.400,2093.370,129.283340,17.23,2.4709,363,23835,1.95069,3.70,33885,,,,,,,,,,,,,,,,,,99999,99999,99999,99999,99999,99999,99999,99999,99999,99999,99999,99999
43:09:19,1510912020,2017-11-17T09:47:04,0.786,1965.7,21.73,18.65,23.15,818.410,2093.330,128.383331,17.21,2.4710,363,23836,1.94338,3.70,33880,,,,,,,,,,,,,,,,,,99999,99999,99999,99999,99999,99999,99999,99999,99999,99999,99999,99999
43:09:49,1510912050,2017-11-17T09:47:34,0.789,1966.1,21.72,18.64,23.18,818.330,2093.330,130.350006,17.34,2.4711,363,23834,1.94977,3.70,33874,,,,,,,,,,,,,,,,,,99999,99999,99999,99999,99999,99999,99999,99999,99999,99999,99999,99999
43:10:19,1510912080,2017-11-17T09:48:04,0.790,1966.5,21.72,18.62,23.15,818.330,2093.330,129.550003,17.51,2.4711,363,23833,1.95190,3.70,33869,,,,,,,,,,,,,,,,,,99999,99999,99999,99999,99999,99999,99999,99999,99999,99999,99999,99999
43:10:49,1510912110,2017-11-17T09:48:34,0.791,1966.9,21.70,18.62,23.15,818.360,2093.270,129.283340,17.51,2.4712,363,23832,1.95435,3.70,33863,,,,,,,,,,,,,,,,,,99999,99999,99999,99999,99999,99999,99999,99999,99999,99999,99999,99999
43:11:19,1510912140,2017-11-17T09:49:04,0.785,1967.3,21.69,18.61,23.15,818.360,2093.210,129.383331,17.43,2.4712,363,23832,1.93912,3.69,33858,,,,,,,,,,,,,,,,,,99999,99999,99999,99999,99999,99999,99999,99999,99999,99999,99999,99999
43:11:49,1510912170,2017-11-17T09:49:34,0.789,1967.6,21.68,18.60,23.14,818.310,2093.210,129.733337,17.34,2.4713,363,23831,1.94977,3.69,33852,,,,,,,,,,,,,,,,,,99999,99999,99999,99999,99999,99999,99999,99999,99999,99999,99999,99999
43:12:19,1510912200,2017-11-17T09:50:04,0.788,1968.0,21.67,18.58,23.12,818.340,2093.140,127.866669,16.99,2.4713,363,23830,1.94855,3.69,33847,,,,,,,,,,,,,,,,,,99999,99999,99999,99999,99999,99999,99999,99999,99999,99999,99999,99999
43:12:49,1510912230,2017-11-17T09:50:34,0.785,1968.4,21.64,18.57,23.10,818.240,2093.080,128.316666,17.43,2.4715,363,23832,1.94094,3.69,33842,,,,,,,,,,,,,,,,,,99999,99999,99999,99999,99999,99999,99999,99999,99999,99999,99999,99999
43:13:19,1510912260,2017-11-17T09:51:04,0.789,1968.8,21.64,18.55,23.08,818.270,2093.080,130.533340,17.39,2.4715,363,23831,1.95069,3.69,33836,,,,,,,,,,,,,,,,,,99999,99999,99999,99999,99999,99999,99999,99999,99999,99999,99999,99999
43:13:49,1510912290,2017-11-17T09:51:34,0.789,1969.2,21.62,18.55,23.08,818.220,2092.970,129.416672,17.26,2.4715,363,23833,1.94947,3.69,33831,,,,,,,,,,,,,,,,,,99999,99999,99999,99999,99999,99999,99999,99999,99999,99999,99999,99999
43:14:19,1510912320,2017-11-17T09:52:04,0.789,1969.6,21.61,18.55,23.07,818.170,2092.910,129.083328,17.35,2.4715,363,23832,1.95008,3.69,33825,,,,,,,,,,,,,,,,,,99999,99999,99999,99999,99999,99999,99999,99999,99999,99999,99999,99999
43:14:49,1510912350,2017-11-17T09:52:34,0.788,1970.0,21.61,18.53,23.07,818.200,2092.910,128.750000,17.60,2.4715,363,23830,1.94703,3.69,33820,,,,,,,,,,,,,,,,,,99999,99999,99999,99999,99999,99999,99999,99999,99999,99999,99999,99999
43:15:19,1510912380,2017-11-17T09:53:04,0.790,1970.4,21.59,18.50,23.06,818.280,2092.850,128.300003,17.80,2.4716,363,23833,1.95221,3.69,33814,,,,,,,,,,,,,,,,,,99999,99999,99999,99999,99999,99999,99999,99999,99999,99999,99999,99999
43:15:49,1510912410,2017-11-17T09:53:34,0.785,1970.8,21.58,18.50,23.02,818.340,2092.850,127.500000,17.45,2.4717,363,23831,1.93973,3.69,33809,,,,,,,,,,,,,,,,,,99999,99999,99999,99999,99999,99999,99999,99999,99999,99999,99999,99999
43:16:19,1510912440,2017-11-17T09:54:04,0.786,1971.2,21.56,18.47,23.00,818.340,2092.740,128.166672,17.35,2.4718,363,23829,1.94338,3.69,33804,,,,,,,,,,,,,,,,,,99999,99999,99999,99999,99999,99999,99999,99999,99999,99999,99999,99999
43:16:49,1510912470,2017-11-17T09:54:34,0.787,1971.6,21.55,18.47,23.02,818.290,2092.740,129.283340,17.35,2.4719,363,23826,1.94490,3.69,33798,,,,,,,,,,,,,,,,,,99999,99999,99999,99999,99999,99999,99999,99999,99999,99999,99999,99999
43:17:19,1510912500,2017-11-17T09:55:04,0.789,1972.0,21.53,18.46,22.98,818.240,2092.680,130.766663,17.46,2.4719,363,23827,1.94947,3.69,33793,,,,,,,,,,,,,,,,,,99999,99999,99999,99999,99999,99999,99999,99999,99999,99999,99999,99999
43:17:49,1510912530,2017-11-17T09:55:34,0.786,1972.4,21.52,18.44,22.98,818.270,2092.620,127.500000,17.54,2.4719,363,23829,1.94216,3.69,33787,,,,,,,,,,,,,,,,,,99999,99999,99999,99999,99999,99999,99999,99999,99999,99999,99999,99999
43:18:19,1510912560,2017-11-17T09:56:04,0.787,1972.8,21.50,18.43,22.98,818.160,2092.520,129.333328,17.52,2.4720,363,23830,1.94612,3.69,33782,,,,,,,,,,,,,,,,,,99999,99999,99999,99999,99999,99999,99999,99999,99999,99999,99999,99999
43:18:49,1510912590,2017-11-17T09:56:34,0.784,1973.2,21.50,18.40,22.96,818.270,2092.520,128.750000,17.42,2.4720,363,23827,1.93821,3.69,33776,,,,,,,,,,,,,,,,,,99999,99999,99999,99999,99999,99999,99999,99999,99999,99999,99999,99999
43:19:19,1510912620,2017-11-17T09:57:04,0.790,1973.6,21.48,18.41,22.96,818.230,2092.450,128.833328,17.37,2.4721,363,23824,1.95221,3.69,33771,,,,,,,,,,,,,,,,,,99999,99999,99999,99999,99999,99999,99999,99999,99999,99999,99999,99999
43:19:49,1510912650,2017-11-17T09:57:34,0.786,1973.9,21.48,18.39,22.92,818.230,2092.450,128.350006,17.20,2.4721,363,23827,1.94368,3.69,33766,,,,,,,,,,,,,,,,,,99999,99999,99999,99999,99999,99999,99999,99999,99999,99999,99999,99999
43:20:19,1510912680,2017-11-17T09:58:04,0.787,1974.3,21.47,18.39,22.88,818.180,2092.450,130.500000,17.30,2.4722,363,23825,1.94673,3.69,33760,,,,,,,,,,,,,,,,,,99999,99999,99999,99999,99999,99999,99999,99999,99999,99999,99999,99999
43:20:49,1510912710,2017-11-17T09:58:34,0.788,1974.7,21.47,18.39,22.91,818.260,2092.450,130.166672,17.47,2.4722,363,23826,1.94916,3.69,33755,,,,,,,,,,,,,,,,,,99999,99999,99999,99999,99999,99999,99999,99999,99999,99999,99999,99999
43:21:19,1510912740,2017-11-17T09:59:04,0.786,1975.1,21.47,18.40,22.90,818.290,2092.450,130.550003,17.33,2.4722,363,23825,1.94429,3.69,33749,,,,,,,,,,,,,,,,,,99999,99999,99999,99999,99999,99999,99999,99999,99999,99999,99999,99999
43:21:49,1510912770,2017-11-17T09:59:34,0.786,1975.5,21.47,18.39,22.91,818.340,2092.450,129.966660,17.37,2.4722,363,23827,1.94368,3.69,33744,,,,,,,,,,,,,,,,,,99999,99999,99999,99999,99999,99999,99999,99999,99999,99999,99999,99999
43:22:19,1510912800,2017-11-17T10:00:04,0.788,1975.9,21.47,18.40,22.92,818.290,2092.450,130.850006,17.37,2.4722,363,23827,1.94794,3.69,33738,,,,,,,,,,,,,,,,,,99999,99999,99999,99999,99999,99999,99999,99999,99999,99999,99999,99999
43:22:49,1510912830,2017-11-17T10:00:34,0.788,1976.3,21.47,18.39,22.91,818.340,2092.450,130.583328,17.69,2.4722,363,23825,1.94764,3.69,33733,,,,,,,,,,,,,,,,,,99999,99999,99999,99999,99999,99999,99999,99999,99999,99999,99999,99999
43:23:19,1510912860,2017-11-17T10:01:04,0.787,1976.7,21.47,18.39,22.90,818.310,2092.450,129.733337,17.41,2.4722,363,23828,1.94581,3.69,33728,,,,,,,,,,,,,,,,,,99999,99999,99999,99999,99999,99999,99999,99999,99999,99999,99999,99999
43:23:49,1510912890,2017-11-17T10:01:34,0.785,1977.1,21.46,18.39,22.90,818.290,2092.390,129.683334,17.20,2.4722,363,23829,1.94003,3.69,33722,,,,,,,,,,,,,,,,,,99999,99999,99999,99999,99999,99999,99999,99999,99999,99999,99999,99999
43:24:19,1510912920,2017-11-17T10:02:04,0.786,1977.5,21.47,18.40,22.91,818.340,2092.450,127.583336,17.50,2.4722,363,23828,1.94246,3.69,33717,,,,,,,,,,,,,,,,,,99999,99999,99999,99999,99999,99999,99999,99999,99999,99999,99999,99999
43:24:49,1510912950,2017-11-17T10:02:34,0.788,1977.9,21.47,18.39,22.86,818.310,2092.450,129.983337,17.85,2.4721,363,23829,1.94916,3.69,33711,,,,,,,,,,,,,,,,,,99999,99999,99999,99999,99999,99999,99999,99999,99999,99999,99999,99999
43:25:19,1510912980,2017-11-17T10:03:04,0.785,1978.3,21.48,18.38,22.90,818.230,2092.450,128.866669,17.31,2.4721,363,23824,1.94003,3.69,33706,,,,,,,,,,,,,,,,,,99999,99999,99999,99999,99999,99999,99999,99999,99999,99999,99999,99999
43:25:49,1510913010,2017-11-17T10:03:34,0.787,1978.7,21.48,18.39,22.92,818.170,2092.450,130.266663,17.13,2.4721,363,23824,1.94642,3.69,33700,,,,,,,,,,,,,,,,,,99999,99999,99999,99999,99999,99999,99999,99999,99999,99999,99999,99999
43:26:19,1510913040,2017-11-17T10:04:04,0.784,1979.1,21.48,18.40,22.91,818.170,2092.450,128.033340,17.44,2.4721,363,23826,1.93699,3.69,33695,,,,,,,,,,,,,,,,,,99999,99999,99999,99999,99999,99999,99999,99999,99999,99999,99999,99999
43:26:49,1510913070,2017-11-17T10:04:34,0.786,1979.4,21.47,18.40,22.91,818.180,2092.450,127.650002,17.48,2.4722,363,23828,1.94307,3.69,33690,,,,,,,,,,,,,,,,,,99999,99999,99999,99999,99999,99999,99999,99999,99999,99999,99999,99999
43:27:19,1510913100,2017-11-17T10:05:04,0.787,1979.8,21.48,18.40,22.91,818.200,2092.450,128.333328,17.66,2.4721,363,23826,1.94673,3.69,33684,,,,,,,,,,,,,,,,,,99999,99999,99999,99999,99999,99999,99999,99999,99999,99999,99999,99999
43:27:49,1510913130,2017-11-17T10:05:34,0.784,1980.2,21.48,18.39,22.91,818.200,2092.450,135.100006,17.64,2.4721,363,23826,1.93882,3.69,33679,,,,,,,,,,,,,,,,,,99999,99999,99999,99999,99999,99999,99999,99999,99999,99999,99999,99999
43:28:19,1510913160,2017-11-17T10:06:04,0.786,1980.6,21.49,18.39,22.94,818.170,2092.490,128.100006,17.36,2.4721,363,23826,1.94216,3.69,33673,,,,,,,,,,,,,,,,,,99999,99999,99999,99999,99999,99999,99999,99999,99999,99999,99999,99999
43:28:49,1510913190,2017-11-17T10:06:34,0.785,1981.0,21.49,18.38,22.91,818.280,2092.490,127.383331,17.36,2.4721,363,23828,1.93942,3.69,33668,,,,,,,,,,,,,,,,,,99999,99999,99999,99999,99999,99999,99999,99999,99999,99999,99999,99999
43:29:19,1510913220,2017-11-17T10:07:04,0.785,1981.4,21.49,18.39,22.88,818.310,2092.490,126.833336,17.29,2.4721,363,23825,1.94125,3.69,33662,,,,,,,,,,,,,,,,,,99999,99999,99999,99999,99999,99999,99999,99999,99999,99999,99999,99999
43:29:49,1510913250,2017-11-17T10:07:34,0.788,1981.8,21.49,18.39,22.91,818.200,2092.490,127.633331,17.26,2.4721,363,23823,1.94794,3.69,33657,,,,,,,,,,,,,,,,,,99999,99999,99999,99999,99999,99999,99999,99999,99999,99999,99999,99999
43:30:19,1510913280,2017-11-17T10:08:04,0.787,1982.2,21.49,18.41,22.92,818.280,2092.490,129.399994,17.14,2.4721,363,23828,1.94612,3.69,33652,,,,,,,,,,,,,,,,,,99999,99999,99999,99999,99999,99999,99999,99999,99999,99999,99999,99999
43:30:49,1510913310,2017-11-17T10:08:34,0.787,1982.6,21.49,18.39,22.91,818.310,2092.490,132.183334,17.50,2.4721,363,23824,1.94459,3.69,33646,,,,,,,,,,,,,,,,,,99999,99999,99999,99999,99999,99999,99999,99999,99999,99999,99999,99999
43:31:19,1510913340,2017-11-17T10:09:04,0.785,1983.0,21.50,18.39,22.92,818.430,2092.520,128.100006,17.43,2.4720,363,23827,1.93942,3.69,33641,,,,,,,,,,,,,,,,,,99999,99999,99999,99999,99999,99999,99999,99999,99999,99999,99999,99999
43:31:49,1510913370,2017-11-17T10:09:34,0.786,1983.4,21.50,18.40,22.91,818.430,2092.520,127.783333,17.28,2.4720,363,23826,1.94186,3.69,33635,,,,,,,,,,,,,,,,,,99999,99999,99999,99999,99999,99999,99999,99999,99999,99999,99999,99999
43:32:19,1510913400,2017-11-17T10:10:04,0.787,1983.8,21.50,18.38,22.92,818.300,2092.520,126.716667,17.31,2.4720,363,23826,1.94581,3.69,33630,,,,,,,,,,,,,,,,,,99999,99999,99999,99999,99999,99999,99999,99999,99999,99999,99999,99999
43:32:49,1510913430,2017-11-17T10:10:34,0.786,1984.2,21.50,18.40,22.94,818.270,2092.520,129.116669,17.35,2.4720,363,23826,1.94186,3.69,33625,,,,,,,,,,,,,,,,,,99999,99999,99999,99999,99999,99999,99999,99999,99999,99999,99999,99999
43:33:19,1510913460,2017-11-17T10:11:04,0.789,1984.6,21.51,18.39,22.94,818.330,2092.620,129.283340,17.56,2.4720,363,23827,1.95069,3.69,33619,,,,,,,,,,,,,,,,,,99999,99999,99999,99999,99999,99999,99999,99999,99999,99999,99999,99999
43:33:49,1510913490,2017-11-17T10:11:34,0.785,1985.0,21.50,18.40,22.96,818.380,2092.520,126.650002,17.49,2.4720,363,23827,1.94064,3.69,33614,,,,,,,,,,,,,,,,,,99999,99999,99999,99999,99999,99999,99999,99999,99999,99999,99999,99999
43:34:19,1510913520,2017-11-17T10:12:04,0.788,1985.3,21.51,18.39,22.92,818.350,2092.620,129.616669,17.48,2.4720,363,23825,1.94794,3.69,33608,,,,,,,,,,,,,,,,,,99999,99999,99999,99999,99999,99999,99999,99999,99999,99999,99999,99999
43:34:49,1510913550,2017-11-17T10:12:34,0.790,1985.7,21.50,18.40,22.94,818.330,2092.520,130.083328,17.38,2.4720,363,23826,1.95190,3.69,33603,,,,,,,,,,,,,,,,,,99999,99999,99999,99999,99999,99999,99999,99999,99999,99999,99999,99999
43:35:19,1510913580,2017-11-17T10:13:04,0.790,1986.1,21.50,18.39,22.92,818.330,2092.520,127.016670,17.35,2.4720,363,23826,1.95190,3.69,33597,,,,,,,,,,,,,,,,,,99999,99999,99999,99999,99999,99999,99999,99999,99999,99999,99999,99999
43:35:49,1510913610,2017-11-17T10:13:34,0.788,1986.5,21.49,18.38,22.92,818.260,2092.490,128.683334,17.56,2.4720,363,23826,1.94886,3.69,33592,,,,,,,,,,,,,,,,,,99999,99999,99999,99999,99999,99999,99999,99999,99999,99999,99999,99999
43:36:19,1510913640,2017-11-17T10:14:04,0.788,1986.9,21.49,18.39,22.90,818.280,2092.490,130.350006,17.36,2.4721,363,23827,1.94855,3.69,33587,,,,,,,,,,,,,,,,,,99999,99999,99999,99999,99999,99999,99999,99999,99999,99999,99999,99999
43:36:49,1510913670,2017-11-17T10:14:34,0.785,1987.3,21.48,18.37,22.91,818.360,2092.450,127.800003,17.41,2.4721,363,23827,1.94125,3.69,33581,,,,,,,,,,,,,,,,,,99999,99999,99999,99999,99999,99999,99999,99999,99999,99999,99999,99999
43:37:19,1510913700,2017-11-17T10:15:04,0.778,1987.7,21.47,18.36,22.92,818.290,2092.450,137.149994,17.18,2.4722,363,23827,1.92426,3.69,33576,,,,,,,,,,,,,,,,,,99999,99999,99999,99999,99999,99999,99999,99999,99999,99999,99999,99999
43:37:49,1510913730,2017-11-17T10:15:34,0.788,1988.1,21.47,18.36,22.90,818.260,2092.450,128.566666,17.49,2.4722,363,23825,1.94855,3.69,33570,,,,,,,,,,,,,,,,,,99999,99999,99999,99999,99999,99999,99999,99999,99999,99999,99999,99999
43:38:19,1510913760,2017-11-17T10:16:04,0.788,1988.5,21.47,18.35,22.91,818.230,2092.450,128.850006,17.50,2.4722,363,23826,1.94916,3.69,33565,,,,,,,,,,,,,,,,,,99999,99999,99999,99999,99999,99999,99999,99999,99999,99999,99999,99999
43:38:49,1510913790,2017-11-17T10:16:34,0.786,1988.9,21.47,18.36,22.90,818.230,2092.450,129.433334,17.36,2.4722,363,23823,1.94368,3.69,33559,,,,,,,,,,,,,,,,,,99999,99999,99999,99999,99999,99999,99999,99999,99999,99999,99999,99999
43:39:19,1510913820,2017-11-17T10:17:04,0.787,1989.3,21.46,18.33,22.91,818.240,2092.390,129.916672,17.42,2.4722,363,23823,1.94581,3.69,33554,,,,,,,,,,,,,,,,,,99999,99999,99999,99999,99999,99999,99999,99999,99999,99999,99999,99999
43:39:49,1510913850,2017-11-17T10:17:34,0.785,1989.7,21.46,18.33,22.90,818.240,2092.390,127.916664,17.21,2.4722,363,23822,1.94125,3.69,33549,,,,,,,,,,,,,,,,,,99999,99999,99999,99999,99999,99999,99999,99999,99999,99999,99999,99999
43:40:19,1510913880,2017-11-17T10:18:04,0.788,1990.1,21.45,18.33,22.84,818.130,2092.390,128.166672,17.38,2.4723,363,23823,1.94825,3.69,33543,,,,,,,,,,,,,,,,,,99999,99999,99999,99999,99999,99999,99999,99999,99999,99999,99999,99999
43:40:49,1510913910,2017-11-17T10:18:34,0.788,1990.5,21.45,18.32,22.90,818.130,2092.390,129.816666,17.48,2.4723,363,23826,1.94703,3.69,33538,,,,,,,,,,,,,,,,,,99999,99999,99999,99999,99999,99999,99999,99999,99999,99999,99999,99999
43:41:19,1510913940,2017-11-17T10:19:04,0.785,1990.9,21.44,18.32,22.84,818.080,2092.330,128.233337,17.40,2.4723,363,23824,1.94064,3.69,33532,,,,,,,,,,,,,,,,,,99999,99999,99999,99999,99999,99999,99999,99999,99999,99999,99999,99999
43:41:49,1510913970,2017-11-17T10:19:34,0.788,1991.2,21.43,18.32,22.83,818.130,2092.330,131.083328,17.34,2.4724,363,23824,1.94703,3.69,33527,,,,,,,,,,,,,,,,,,99999,99999,99999,99999,99999,99999,99999,99999,99999,99999,99999,99999
43:42:19,1510914000,2017-11-17T10:20:04,0.789,1991.6,21.42,18.29,22.86,818.060,2092.270,128.649994,17.37,2.4724,363,23822,1.95069,3.69,33521,,,,,,,,,,,,,,,,,,99999,99999,99999,99999,99999,99999,99999,99999,99999,99999,99999,99999
43:42:49,1510914030,2017-11-17T10:20:34,0.783,1992.0,21.42,18.29,22.88,818.140,2092.270,128.516663,17.51,2.4724,363,23824,1.93638,3.69,33516,,,,,,,,,,,,,,,,,,99999,99999,99999,99999,99999,99999,99999,99999,99999,99999,99999,99999
43:43:19,1510914060,2017-11-17T10:21:04,0.788,1992.4,21.41,18.31,22.84,818.080,2092.270,130.383331,17.60,2.4725,363,23824,1.94825,3.69,33511,,,,,,,,,,,,,,,,,,99999,99999,99999,99999,99999,99999,99999,99999,99999,99999,99999,99999
43:43:49,1510914090,2017-11-17T10:21:34,0.787,1992.8,21.39,18.29,22.83,818.060,2092.220,128.716660,17.46,2.4726,363,23821,1.94673,3.69,33505,,,,,,,,,,,,,,,,,,99999,99999,99999,99999,99999,99999,99999,99999,99999,99999,99999,99999
43:44:19,1510914120,2017-11-17T10:22:04,0.788,1993.2,21.38,18.27,22.82,818.040,2092.160,129.283340,17.55,2.4726,363,23822,1.94886,3.69,33500,,,,,,,,,,,,,,,,,,99999,99999,99999,99999,99999,99999,99999,99999,99999,99999,99999,99999
43:44:49,1510914150,2017-11-17T10:22:34,0.784,1993.6,21.37,18.25,22.80,818.040,2092.160,128.583328,17.42,2.4727,363,23822,1.93973,3.69,33494,,,,,,,,,,,,,,,,,,99999,99999,99999,99999,99999,99999,99999,99999,99999,99999,99999,99999
43:45:19,1510914180,2017-11-17T10:23:04,0.789,1994.0,21.37,18.24,22.80,818.090,2092.160,128.833328,17.43,2.4727,363,23822,1.95038,3.68,33489,,,,,,,,,,,,,,,,,,99999,99999,99999,99999,99999,99999,99999,99999,99999,99999,99999,99999
43:45:49,1510914210,2017-11-17T10:23:34,0.788,1994.4,21.34,18.22,22.80,818.000,2091.970,128.466660,17.79,2.4727,363,23820,1.94794,3.69,33484,,,,,,,,,,,,,,,,,,99999,99999,99999,99999,99999,99999,99999,99999,99999,99999,99999,99999
43:46:19,1510914240,2017-11-17T10:24:04,0.787,1994.8,21.34,18.21,22.78,818.100,2091.970,129.550003,17.68,2.4727,363,23820,1.94612,3.69,33478,,,,,,,,,,,,,,,,,,99999,99999,99999,99999,99999,99999,99999,99999,99999,99999,99999,99999
43:46:49,1510914270,2017-11-17T10:24:34,0.784,1995.2,21.32,18.21,22.75,817.920,2091.930,128.133331,17.52,2.4728,363,23819,1.93790,3.68,33473,,,,,,,,,,,,,,,,,,99999,99999,99999,99999,99999,99999,99999,99999,99999,99999,99999,99999
43:47:19,1510914300,2017-11-17T10:25:04,0.786,1995.6,21.32,18.18,22.80,818.000,2091.930,128.316666,17.69,2.4728,363,23818,1.94429,3.68,33467,,,,,,,,,,,,,,,,,,99999,99999,99999,99999,99999,99999,99999,99999,99999,99999,99999,99999
43:47:49,1510914330,2017-11-17T10:25:34,0.784,1996.0,21.30,18.17,22.76,817.820,2091.870,127.366669,17.76,2.4729,363,23821,1.93790,3.68,33462,,,,,,,,,,,,,,,,,,99999,99999,99999,99999,99999,99999,99999,99999,99999,99999,99999,99999
43:48:19,1510914360,2017-11-17T10:26:04,0.782,1996.4,21.29,18.15,22.68,817.900,2091.800,128.333328,17.69,2.4729,363,23816,1.93396,3.68,33456,,,,,,,,,,,,,,,,,,99999,99999,99999,99999,99999,99999,99999,99999,99999,99999,99999,99999
43:48:49,1510914390,2017-11-17T10:26:34,0.787,1996.7,21.27,18.15,22.70,817.950,2091.740,130.250000,17.64,2.4730,363,23819,1.94642,3.68,33451,,,,,,,,,,,,,,,,,,99999,99999,99999,99999,99999,99999,99999,99999,99999,99999,99999,99999
43:49:19,1510914420,2017-11-17T10:27:04,0.786,1997.1,21.25,18.12,22.68,817.880,2091.640,126.616669,17.75,2.4731,363,23820,1.94277,3.68,33446,,,,,,,,,,,,,,,,,,99999,99999,99999,99999,99999,99999,99999,99999,99999,99999,99999,99999
43:49:49,1510914450,2017-11-17T10:27:34,0.786,1997.5,21.23,18.09,22.67,818.000,2091.570,128.800003,17.77,2.4731,363,23816,1.94490,3.68,33440,,,,,,,,,,,,,,,,,,99999,99999,99999,99999,99999,99999,99999,99999,99999,99999,99999,99999
43:50:19,1510914480,2017-11-17T10:28:04,0.783,1997.9,21.21,18.11,22.68,818.000,2091.510,128.766663,17.97,2.4732,363,23817,1.93699,3.68,33435,,,,,,,,,,,,,,,,,,99999,99999,99999,99999,99999,99999,99999,99999,99999,99999,99999,99999
43:50:49,1510914510,2017-11-17T10:28:34,0.787,1998.3,21.20,18.08,22.65,817.760,2091.510,131.199997,17.61,2.4734,363,23817,1.94581,3.68,33429,,,,,,,,,,,,,,,,,,99999,99999,99999,99999,99999,99999,99999,99999,99999,99999,99999,99999
43:51:19,1510914540,2017-11-17T10:29:04,0.785,1998.7,21.19,18.08,22.62,817.850,2091.450,129.733337,17.55,2.4734,363,23817,1.94186,3.68,33424,,,,,,,,,,,,,,,,,,99999,99999,99999,99999,99999,99999,99999,99999,99999,99999,99999,99999
43:51:49,1510914570,2017-11-17T10:29:34,0.787,1999.1,21.18,18.07,22.59,818.060,2091.450,127.566666,17.85,2.4734,363,23816,1.94551,3.68,33418,,,,,,,,,,,,,,,,,,99999,99999,99999,99999,99999,99999,99999,99999,99999,99999,99999,99999
43:52:19,1510914600,2017-11-17T10:30:04,0.784,1999.5,21.18,18.08,22.57,817.980,2091.450,125.316666,18.04,2.4734,363,23817,1.94033,3.68,33413,,,,,,,,,,,,,,,,,,99999,99999,99999,99999,99999,99999,99999,99999,99999,99999,99999,99999
43:52:49,1510914630,2017-11-17T10:30:34,0.783,1999.9,21.18,18.08,22.60,817.900,2091.450,127.366669,17.82,2.4734,363,23815,1.93790,3.68,33408,,,,,,,,,,,,,,,,,,99999,99999,99999,99999,99999,99999,99999,99999,99999,99999,99999,99999
43:53:19,1510914660,2017-11-17T10:31:04,0.785,2000.3,21.18,18.08,22.62,817.930,2091.450,129.800003,17.84,2.4734,363,23813,1.94216,3.68,33402,,,,,,,,,,,,,,,,,,99999,99999,99999,99999,99999,99999,99999,99999,99999,99999,99999,99999
43:53:49,1510914690,2017-11-17T10:31:34,0.783,2000.7,21.18,18.08,22.62,817.900,2091.450,126.500000,18.02,2.4734,363,23817,1.93608,3.68,33397,,,,,,,,,,,,,,,,,,99999,99999,99999,99999,99999,99999,99999,99999,99999,99999,99999,99999
43:54:19,1510914720,2017-11-17T10:32:04,0.786,2001.1,21.17,18.08,22.60,817.880,2091.390,128.283340,17.87,2.4734,363,23816,1.94307,3.68,33391,,,,,,,,,,,,,,,,,,99999,99999,99999,99999,99999,99999,99999,99999,99999,99999,99999,99999
43:54:49,1510914750,2017-11-17T10:32:34,0.786,2001.4,21.19,18.08,22.60,817.980,2091.450,127.800003,17.69,2.4734,363,23819,1.94459,3.68,33386,,,,,,,,,,,,,,,,,,99999,99999,99999,99999,99999,99999,99999,99999,99999,99999,99999,99999
43:55:19,1510914780,2017-11-17T10:33:04,0.786,2001.8,21.19,18.10,22.64,817.930,2091.450,127.916664,18.07,2.4733,363,23817,1.94398,3.68,33380,,,,,,,,,,,,,,,,,,99999,99999,99999,99999,99999,99999,99999,99999,99999,99999,99999,99999
43:55:49,1510914810,2017-11-17T10:33:34,0.782,2002.2,21.20,18.10,22.59,817.820,2091.510,130.466660,17.90,2.4733,363,23818,1.93426,3.68,33375,,,,,,,,,,,,,,,,,,99999,99999,99999,99999,99999,99999,99999,99999,99999,99999,99999,99999
43:56:19,1510914840,2017-11-17T10:34:04,0.782,2002.6,21.19,18.08,22.64,817.870,2091.450,128.266663,18.00,2.4733,363,23816,1.93335,3.68,33370,,,,,,,,,,,,,,,,,,99999,99999,99999,99999,99999,99999,99999,99999,99999,99999,99999,99999
43:56:49,1510914870,2017-11-17T10:34:34,0.787,2003.0,21.19,18.09,22.59,817.820,2091.450,127.250000,18.00,2.4733,363,23819,1.94673,3.68,33364,,,,,,,,,,,,,,,,,,99999,99999,99999,99999,99999,99999,99999,99999,99999,99999,99999,99999
43:57:19,1510914900,2017-11-17T10:35:04,0.784,2003.4,21.19,18.10,22.65,817.930,2091.450,128.783340,17.75,2.4733,363,23817,1.93942,3.68,33359,,,,,,,,,,,,,,,,,,99999,99999,99999,99999,99999,99999,99999,99999,99999,99999,99999,99999
43:57:49,1510914930,2017-11-17T10:35:34,0.786,2003.8,21.19,18.10,22.62,817.770,2091.450,131.016663,17.82,2.4733,363,23816,1.94368,3.68,33353,,,,,,,,,,,,,,,,,,99999,99999,99999,99999,99999,99999,99999,99999,99999,99999,99999,99999
43:58:19,1510914960,2017-11-17T10:36:04,0.784,2004.2,21.20,18.09,22.60,817.840,2091.510,129.550003,17.79,2.4733,363,23814,1.93973,3.68,33348,,,,,,,,,,,,,,,,,,99999,99999,99999,99999,99999,99999,99999,99999,99999,99999,99999,99999
43:58:49,1510914990,2017-11-17T10:36:34,0.787,2004.6,21.21,18.08,22.62,817.820,2091.510,129.149994,18.07,2.4732,363,23818,1.94581,3.68,33342,,,,,,,,,,,,,,,,,,99999,99999,99999,99999,99999,99999,99999,99999,99999,99999,99999,99999
43:59:19,1510915020,2017-11-17T10:37:04,0.786,2005.0,21.20,18.09,22.68,817.950,2091.510,130.433334,18.05,2.4733,363,23816,1.94520,3.68,33337,,,,,,,,,,,,,,,,,,99999,99999,99999,99999,99999,99999,99999,99999,99999,99999,99999,99999
43:59:49,1510915050,2017-11-17T10:37:34,0.783,2005.4,21.20,18.08,22.62,817.920,2091.510,126.416664,17.91,2.4733,363,23818,1.93638,3.68,33332,,,,,,,,,,,,,,,,,,99999,99999,99999,99999,99999,99999,99999,99999,99999,99999,99999,99999
44:00:19,1510915080,2017-11-17T10:38:04,0.786,2005.8,21.19,18.09,22.62,817.900,2091.450,128.966660,17.96,2.4733,363,23819,1.94429,3.68,33326,,,,,,,,,,,,,,,,,,99999,99999,99999,99999,99999,99999,99999,99999,99999,99999,99999,99999
44:00:49,1510915110,2017-11-17T10:38:34,0.782,2006.1,21.18,18.06,22.62,817.870,2091.450,127.616669,17.98,2.4734,363,23817,1.93335,3.68,33321,,,,,,,,,,,,,,,,,,99999,99999,99999,99999,99999,99999,99999,99999,99999,99999,99999,99999
44:01:19,1510915140,2017-11-17T10:39:04,0.782,2006.5,21.17,18.05,22.60,817.930,2091.390,126.583336,17.99,2.4734,363,23816,1.93487,3.68,33315,,,,,,,,,,,,,,,,,,99999,99999,99999,99999,99999,99999,99999,99999,99999,99999,99999,99999
44:01:49,1510915170,2017-11-17T10:39:34,0.785,2006.9,21.16,18.03,22.60,817.880,2091.390,126.949997,17.98,2.4735,363,23815,1.94277,3.68,33310,,,,,,,,,,,,,,,,,,99999,99999,99999,99999,99999,99999,99999,99999,99999,99999,99999,99999
44:02:19,1510915200,2017-11-17T10:40:04,0.783,2007.3,21.13,18.01,22.60,817.890,2091.280,126.433334,17.95,2.4736,363,23814,1.93638,3.68,33304,,,,,,,,,,,,,,,,,,99999,99999,99999,99999,99999,99999,99999,99999,99999,99999,99999,99999
44:02:49,1510915230,2017-11-17T10:40:34,0.786,2007.7,21.13,18.00,22.59,818.020,2091.280,128.600006,18.25,2.4736,363,23815,1.94520,3.68,33299,,,,,,,,,,,,,,,,,,99999,99999,99999,99999,99999,99999,99999,99999,99999,99999,99999,99999
44:03:19,1510915260,2017-11-17T10:41:04,0.783,2008.1,21.11,18.00,22.56,817.940,2091.160,126.916664,18.00,2.4737,363,23813,1.93760,3.68,33294,,,,,,,,,,,,,,,,,,99999,99999,99999,99999,99999,99999,99999,99999,99999,99999,99999,99999
44:03:49,1510915290,2017-11-17T10:41:34,0.786,2008.5,21.10,17.97,22.54,818.000,2091.120,127.199997,18.22,2.4737,363,23814,1.94429,3.68,33288,,,,,,,,,,,,,,,,,,99999,99999,99999,99999,99999,99999,99999,99999,99999,99999,99999,99999
44:04:19,1510915320,2017-11-17T10:42:04,0.783,2008.9,21.08,17.95,22.52,817.950,2091.050,125.949997,17.99,2.4738,363,23812,1.93699,3.68,33283,,,,,,,,,,,,,,,,,,99999,99999,99999,99999,99999,99999,99999,99999,99999,99999,99999,99999
44:04:49,1510915350,2017-11-17T10:42:34,0.786,2009.3,21.07,17.95,22.52,817.950,2091.050,128.050003,17.97,2.4739,363,23812,1.94520,3.68,33277,,,,,,,,,,,,,,,,,,99999,99999,99999,99999,99999,99999,99999,99999,99999,99999,99999,99999
44:05:19,1510915380,2017-11-17T10:43:04,0.785,2009.7,21.05,17.94,22.50,817.880,2090.990,127.366669,18.06,2.4740,363,23810,1.94155,3.68,33272,,,,,,,,,,,,,,,,,,99999,99999,99999,99999,99999,99999,99999,99999,99999,99999,99999,99999
44:05:49,1510915410,2017-11-17T10:43:34,0.786,2010.1,21.03,17.91,22.52,817.990,2090.930,128.683334,18.11,2.4741,363,23809,1.94490,3.68,33266,,,,,,,,,,,,,,,,,,99999,99999,99999,99999,99999,99999,99999,99999,99999,99999,99999,99999
44:06:19,1510915440,2017-11-17T10:44:04,0.781,2010.5,21.03,17.90,22.48,818.020,2090.930,128.433334,18.02,2.4741,363,23810,1.93304,3.68,33261,,,,,,,,,,,,,,,,,,99999,99999,99999,99999,99999,99999,99999,99999,99999,99999,99999,99999
44:06:49,1510915470,2017-11-17T10:44:34,0.785,2010.9,20.99,17.88,22.46,818.000,2090.820,129.699997,18.55,2.4742,363,23809,1.94216,3.68,33256,,,,,,,,,,,,,,,,,,99999,99999,99999,99999,99999,99999,99999,99999,99999,99999,99999,99999
44:07:19,1510915500,2017-11-17T10:45:04,0.780,2011.2,20.98,17.88,22.44,818.060,2090.700,128.600006,18.08,2.4742,363,23809,1.93001,3.68,33250,,,,,,,,,,,,,,,,,,99999,99999,99999,99999,99999,99999,99999,99999,99999,99999,99999,99999
44:07:49,1510915530,2017-11-17T10:45:34,0.785,2011.6,20.98,17.86,22.41,818.140,2090.700,128.583328,18.06,2.4742,363,23811,1.94307,3.68,33245,,,,,,,,,,,,,,,,,,99999,99999,99999,99999,99999,99999,99999,99999,99999,99999,99999,99999
44:08:19,1510915560,2017-11-17T10:46:04,0.782,2012.0,20.98,17.86,22.40,818.090,2090.700,126.366669,18.14,2.4742,363,23810,1.93517,3.68,33239,,,,,,,,,,,,,,,,,,99999,99999,99999,99999,99999,99999,99999,99999,99999,99999,99999,99999
44:08:49,1510915590,2017-11-17T10:46:34,0.784,2012.4,20.97,17.85,22.41,818.030,2090.700,129.366669,18.16,2.4743,363,23811,1.93882,3.68,33234,,,,,,,,,,,,,,,,,,99999,99999,99999,99999,99999,99999,99999,99999,99999,99999,99999,99999
44:09:19,1510915620,2017-11-17T10:47:04,0.784,2012.8,20.97,17.86,22.38,818.030,2090.700,126.900002,18.08,2.4743,363,23811,1.93912,3.68,33228,,,,,,,,,,,,,,,,,,99999,99999,99999,99999,99999,99999,99999,99999,99999,99999,99999,99999
44:09:49,1510915650,2017-11-17T10:47:34,0.785,2013.2,20.98,17.86,22.42,818.060,2090.700,128.050003,18.34,2.4742,363,23811,1.94277,3.68,33223,,,,,,,,,,,,,,,,,,99999,99999,99999,99999,99999,99999,99999,99999,99999,99999,99999,99999
44:10:19,1510915680,2017-11-17T10:48:04,0.783,2013.6,20.97,17.86,22.40,818.000,2090.700,126.866669,18.26,2.4743,363,23811,1.93821,3.68,33218,,,,,,,,,,,,,,,,,,99999,99999,99999,99999,99999,99999,99999,99999,99999,99999,99999,99999
44:10:49,1510915710,2017-11-17T10:48:34,0.784,2014.0,20.98,17.87,22.42,817.980,2090.700,131.533340,18.09,2.4742,363,23812,1.94033,3.68,33212,,,,,,,,,,,,,,,,,,99999,99999,99999,99999,99999,99999,99999,99999,99999,99999,99999,99999
44:11:19,1510915740,2017-11-17T10:49:04,0.782,2014.4,21.00,17.87,22.41,817.970,2090.820,126.583336,18.23,2.4742,363,23814,1.93517,3.68,33207,,,,,,,,,,,,,,,,,,99999,99999,99999,99999,99999,99999,99999,99999,99999,99999,99999,99999
44:11:49,1510915770,2017-11-17T10:49:34,0.783,2014.8,21.01,17.89,22.42,817.970,2090.870,126.283333,18.38,2.4741,363,23813,1.93638,3.68,33201,,,,,,,,,,,,,,,,,,99999,99999,99999,99999,99999,99999,99999,99999,99999,99999,99999,99999
44:12:19,1510915800,2017-11-17T10:50:04,0.781,2015.2,21.02,17.90,22.48,817.890,2090.870,127.716667,18.08,2.4741,363,23811,1.93213,3.68,33196,,,,,,,,,,,,,,,,,,99999,99999,99999,99999,99999,99999,99999,99999,99999,99999,99999,99999
44:12:49,1510915830,2017-11-17T10:50:34,0.785,2015.6,21.03,17.91,22.41,818.020,2090.930,128.416672,18.14,2.4741,363,23810,1.94094,3.68,33191,,,,,,,,,,,,,,,,,,99999,99999,99999,99999,99999,99999,99999,99999,99999,99999,99999,99999
44:13:19,1510915860,2017-11-17T10:51:04,0.781,2015.9,21.03,17.93,22.48,817.990,2090.930,127.733330,18.10,2.4741,363,23812,1.93274,3.68,33185,,,,,,,,,,,,,,,,,,99999,99999,99999,99999,99999,99999,99999,99999,99999,99999,99999,99999
44:13:49,1510915890,2017-11-17T10:51:34,0.782,2016.3,21.04,17.94,22.46,817.970,2090.930,126.866669,18.46,2.4739,363,23812,1.93578,3.68,33180,,,,,,,,,,,,,,,,,,99999,99999,99999,99999,99999,99999,99999,99999,99999,99999,99999,99999
44:14:19,1510915920,2017-11-17T10:52:04,0.783,2016.7,21.06,17.94,22.46,817.950,2090.990,130.066666,18.39,2.4738,363,23809,1.93699,3.68,33174,,,,,,,,,,,,,,,,,,99999,99999,99999,99999,99999,99999,99999,99999,99999,99999,99999,99999
44:14:49,1510915950,2017-11-17T10:52:34,0.783,2017.1,21.07,17.94,22.48,817.980,2091.050,128.183334,18.13,2.4739,363,23813,1.93730,3.68,33169,,,,,,,,,,,,,,,,,,99999,99999,99999,99999,99999,99999,99999,99999,99999,99999,99999,99999
44:15:19,1510915980,2017-11-17T10:53:04,0.783,2017.5,21.08,17.94,22.49,817.840,2091.050,127.566666,18.11,2.4738,363,23813,1.93730,3.68,33163,,,,,,,,,,,,,,,,,,99999,99999,99999,99999,99999,99999,99999,99999,99999,99999,99999,99999
44:15:49,1510916010,2017-11-17T10:53:34,0.782,2017.9,21.08,17.96,22.49,817.840,2091.050,127.183334,18.14,2.4738,363,23812,1.93365,3.68,33158,,,,,,,,,,,,,,,,,,99999,99999,99999,99999,99999,99999,99999,99999,99999,99999,99999,99999
44:16:19,1510916040,2017-11-17T10:54:04,0.786,2018.3,21.10,17.96,22.52,817.920,2091.120,128.449997,17.98,2.4737,363,23813,1.94551,3.68,33153,,,,,,,,,,,,,,,,,,99999,99999,99999,99999,99999,99999,99999,99999,99999,99999,99999,99999
44:16:49,1510916070,2017-11-17T10:54:34,0.785,2018.7,21.10,17.97,22.49,817.810,2091.120,128.216660,18.01,2.4737,363,23812,1.94216,3.68,33147,,,,,,,,,,,,,,,,,,99999,99999,99999,99999,99999,99999,99999,99999,99999,99999,99999,99999
44:17:19,1510916100,2017-11-17T10:55:04,0.782,2019.1,21.10,17.96,22.56,817.840,2091.120,127.000000,18.21,2.4737,363,23814,1.93456,3.68,33142,,,,,,,,,,,,,,,,,,99999,99999,99999,99999,99999,99999,99999,99999,99999,99999,99999,99999
44:17:49,1510916130,2017-11-17T10:55:34,0.786,2019.5,21.11,17.98,22.56,817.940,2091.160,128.483337,18.28,2.4736,363,23814,1.94490,3.68,33136,,,,,,,,,,,,,,,,,,99999,99999,99999,99999,99999,99999,99999,99999,99999,99999,99999,99999
44:18:19,1510916160,2017-11-17T10:56:04,0.787,2019.9,21.11,17.99,22.54,817.940,2091.160,127.983330,18.19,2.4736,363,23813,1.94642,3.68,33131,,,,,,,,,,,,,,,,,,99999,99999,99999,99999,99999,99999,99999,99999,99999,99999,99999,99999
44:18:49,1510916190,2017-11-17T10:56:34,0.784,2020.3,21.12,17.99,22.54,817.940,2091.160,128.983337,18.29,2.4735,363,23811,1.94033,3.68,33125,,,,,,,,,,,,,,,,,,99999,99999,99999,99999,99999,99999,99999,99999,99999,99999,99999,99999
44:19:19,1510916220,2017-11-17T10:57:04,0.783,2020.6,21.13,18.01,22.54,817.990,2091.280,128.449997,18.29,2.4736,363,23813,1.93699,3.68,33120,,,,,,,,,,,,,,,,,,99999,99999,99999,99999,99999,99999,99999,99999,99999,99999,99999,99999
44:19:49,1510916250,2017-11-17T10:57:34,0.784,2021.0,21.13,18.00,22.54,817.890,2091.280,128.816666,18.13,2.4736,363,23817,1.93912,3.68,33115,,,,,,,,,,,,,,,,,,99999,99999,99999,99999,99999,99999,99999,99999,99999,99999,99999,99999
44:20:19,1510916280,2017-11-17T10:58:04,0.786,2021.4,21.14,18.00,22.54,817.910,2091.350,129.149994,18.06,2.4736,363,23813,1.94520,3.68,33109,,,,,,,,,,,,,,,,,,99999,99999,99999,99999,99999,99999,99999,99999,99999,99999,99999,99999
44:20:49,1510916310,2017-11-17T10:58:34,0.784,2021.8,21.14,18.01,22.54,817.910,2091.350,126.699997,18.20,2.4736,363,23813,1.93821,3.68,33104,,,,,,,,,,,,,,,,,,99999,99999,99999,99999,99999,99999,99999,99999,99999,99999,99999,99999
44:21:19,1510916340,2017-11-17T10:59:04,0.783,2022.2,21.13,18.01,22.56,817.940,2091.280,127.300003,18.34,2.4736,363,23815,1.93699,3.68,33098,,,,,,,,,,,,,,,,,,99999,99999,99999,99999,99999,99999,99999,99999,99999,99999,99999,99999
44:21:49,1510916370,2017-11-17T10:59:34,0.785,2022.6,21.13,18.01,22.57,817.890,2091.280,128.216660,18.17,2.4736,363,23816,1.94277,3.67,33093,,,,,,,,,,,,,,,,,,99999,99999,99999,99999,99999,99999,99999,99999,99999,99999,99999,99999
44:22:19,1510916400,2017-11-17T11:00:04,0.783,2023.0,21.14,18.01,22.52,817.990,2091.350,126.500000,18.41,2.4736,363,23812,1.93578,3.67,33087,,,,,,,,,,,,,,,,,,99999,99999,99999,99999,99999,99999,99999,99999,99999,99999,99999,99999
44:22:49,1510916430,2017-11-17T11:00:34,0.785,2023.4,21.14,18.01,22.56,817.990,2091.350,126.966667,18.43,2.4736,363,23815,1.94216,3.67,33082,,,,,,,,,,,,,,,,,,99999,99999,99999,99999,99999,99999,99999,99999,99999,99999,99999,99999
44:23:19,1510916460,2017-11-17T11:01:04,0.783,2023.8,21.12,17.99,22.56,817.910,2091.160,128.399994,18.18,2.4736,363,23815,1.93790,3.67,33077,,,,,,,,,,,,,,,,,,99999,99999,99999,99999,99999,99999,99999,99999,99999,99999,99999,99999
44:23:49,1510916490,2017-11-17T11:01:34,0.787,2024.2,21.12,17.99,22.52,817.970,2091.160,128.433334,18.21,2.4735,363,23812,1.94673,3.67,33071,,,,,,,,,,,,,,,,,,99999,99999,99999,99999,99999,99999,99999,99999,99999,99999,99999,99999
44:24:19,1510916520,2017-11-17T11:02:04,0.785,2024.6,21.10,17.98,22.54,817.970,2091.120,127.266670,18.28,2.4737,363,23812,1.94125,3.67,33066,,,,,,,,,,,,,,,,,,99999,99999,99999,99999,99999,99999,99999,99999,99999,99999,99999,99999
44:24:49,1510916550,2017-11-17T11:02:34,0.782,2025.0,21.11,17.97,22.54,817.970,2091.160,126.366669,18.34,2.4736,363,23812,1.93547,3.67,33060,,,,,,,,,,,,,,,,,,99999,99999,99999,99999,99999,99999,99999,99999,99999,99999,99999,99999
44:25:19,1510916580,2017-11-17T11:03:04,0.782,2025.4,21.10,17.97,22.52,817.920,2091.120,128.816666,17.99,2.4737,363,23811,1.93547,3.67,33055,,,,,,,,,,,,,,,,,,99999,99999,99999,99999,99999,99999,99999,99999,99999,99999,99999,99999
44:25:49,1510916610,2017-11-17T11:03:34,0.787,2025.7,21.11,17.97,22.52,817.970,2091.160,127.250000,18.52,2.4736,363,23811,1.94673,3.67,33050,,,,,,,,,,,,,,,,,,99999,99999,99999,99999,99999,99999,99999,99999,99999,99999,99999,99999
44:26:19,1510916640,2017-11-17T11:04:04,0.783,2026.1,21.11,17.96,22.52,818.000,2091.160,126.333336,18.30,2.4736,363,23810,1.93760,3.67,33044,,,,,,,,,,,,,,,,,,99999,99999,99999,99999,99999,99999,99999,99999,99999,99999,99999,99999
44:26:49,1510916670,2017-11-17T11:04:34,0.782,2026.5,21.10,17.97,22.54,817.940,2091.120,127.516670,17.93,2.4737,363,23813,1.93456,3.67,33039,,,,,,,,,,,,,,,,,,99999,99999,99999,99999,99999,99999,99999,99999,99999,99999,99999,99999
44:27:19,1510916700,2017-11-17T11:05:04,0.787,2026.9,21.11,17.97,22.54,818.000,2091.160,129.066666,18.04,2.4737,363,23808,1.94581,3.67,33033,,,,,,,,,,,,,,,,,,99999,99999,99999,99999,99999,99999,99999,99999,99999,99999,99999,99999
44:27:49,1510916730,2017-11-17T11:05:34,0.784,2027.3,21.10,17.97,22.49,817.920,2091.120,126.750000,18.05,2.4737,363,23815,1.94003,3.67,33028,,,,,,,,,,,,,,,,,,99999,99999,99999,99999,99999,99999,99999,99999,99999,99999,99999,99999
44:28:19,1510916760,2017-11-17T11:06:04,0.785,2027.7,21.11,17.98,22.50,817.940,2091.160,130.000000,18.09,2.4736,363,23811,1.94216,3.67,33022,,,,,,,,,,,,,,,,,,99999,99999,99999,99999,99999,99999,99999,99999,99999,99999,99999,99999
44:28:49,1510916790,2017-11-17T11:06:34,0.785,2028.1,21.11,17.98,22.54,817.940,2091.160,127.833336,18.05,2.4737,363,23814,1.94277,3.67,33017,,,,,,,,,,,,,,,,,,99999,99999,99999,99999,99999,99999,99999,99999,99999,99999,99999,99999
44:29:19,1510916820,2017-11-17T11:07:04,0.786,2028.5,21.12,17.99,22.54,817.940,2091.160,129.250000,18.37,2.4735,363,23815,1.94490,3.67,33012,,,,,,,,,,,,,,,,,,99999,99999,99999,99999,99999,99999,99999,99999,99999,99999,99999,99999
44:29:49,1510916850,2017-11-17T11:07:34,0.787,2028.9,21.13,17.99,22.52,817.970,2091.280,127.800003,18.39,2.4736,363,23813,1.94764,3.67,33006,,,,,,,,,,,,,,,,,,99999,99999,99999,99999,99999,99999,99999,99999,99999,99999,99999,99999
44:30:19,1510916880,2017-11-17T11:08:04,0.783,2029.3,21.13,17.99,22.50,817.940,2091.280,127.900002,18.10,2.4736,363,23812,1.93578,3.67,33001,,,,,,,,,,,,,,,,,,99999,99999,99999,99999,99999,99999,99999,99999,99999,99999,99999,99999
44:30:49,1510916910,2017-11-17T11:08:34,0.784,2029.7,21.13,17.99,22.56,817.970,2091.280,128.500000,18.29,2.4736,363,23815,1.93821,3.67,32995,,,,,,,,,,,,,,,,,,99999,99999,99999,99999,99999,99999,99999,99999,99999,99999,99999,99999
44:31:19,1510916940,2017-11-17T11:09:04,0.787,2030.1,21.14,18.00,22.56,818.020,2091.350,128.533340,18.39,2.4736,363,23812,1.94703,3.67,32990,,,,,,,,,,,,,,,,,,99999,99999,99999,99999,99999,99999,99999,99999,99999,99999,99999,99999
44:31:49,1510916970,2017-11-17T11:09:34,0.783,2030.4,21.13,17.99,22.57,818.020,2091.280,127.349998,18.15,2.4736,363,23816,1.93669,3.67,32984,,,,,,,,,,,,,,,,,,99999,99999,99999,99999,99999,99999,99999,99999,99999,99999,99999,99999
44:32:19,1510917000,2017-11-17T11:10:04,0.783,2030.8,21.12,17.98,22.56,818.020,2091.160,128.233337,17.93,2.4736,363,23811,1.93608,3.67,32979,,,,,,,,,,,,,,,,,,99999,99999,99999,99999,99999,99999,99999,99999,99999,99999,99999,99999
44:32:49,1510917030,2017-11-17T11:10:34,0.784,2031.2,21.13,17.98,22.56,817.990,2091.280,128.550003,18.09,2.4736,363,23813,1.93851,3.67,32974,,,,,,,,,,,,,,,,,,99999,99999,99999,99999,99999,99999,99999,99999,99999,99999,99999,99999
44:33:19,1510917060,2017-11-17T11:11:04,0.783,2031.6,21.13,17.98,22.56,818.020,2091.280,126.233330,18.17,2.4736,363,23813,1.93638,3.67,32968,,,,,,,,,,,,,,,,,,99999,99999,99999,99999,99999,99999,99999,99999,99999,99999,99999,99999
44:33:49,1510917090,2017-11-17T11:11:34,0.788,2032.0,21.12,17.98,22.52,817.940,2091.160,128.383331,18.46,2.4735,363,23814,1.94794,3.67,32963,,,,,,,,,,,,,,,,,,99999,99999,99999,99999,99999,99999,99999,99999,99999,99999,99999,99999
44:34:19,1510917120,2017-11-17T11:12:04,0.782,2032.4,21.12,17.97,22.52,817.970,2091.160,127.366669,17.96,2.4736,363,23815,1.93456,3.67,32957,,,,,,,,,,,,,,,,,,99999,99999,99999,99999,99999,99999,99999,99999,99999,99999,99999,99999
44:34:49,1510917150,2017-11-17T11:12:34,0.786,2032.8,21.12,17.97,22.56,818.070,2091.160,129.683334,18.17,2.4736,363,23812,1.94490,3.67,32952,,,,,,,,,,,,,,,,,,99999,99999,99999,99999,99999,99999,99999,99999,99999,99999,99999,99999
44:35:19,1510917180,2017-11-17T11:13:04,0.783,2033.2,21.11,17.96,22.52,818.020,2091.160,128.550003,18.22,2.4736,363,23812,1.93669,3.67,32946,,,,,,,,,,,,,,,,,,99999,99999,99999,99999,99999,99999,99999,99999,99999,99999,99999,99999
44:35:49,1510917210,2017-11-17T11:13:34,0.783,2033.6,21.10,17.98,22.56,818.000,2091.120,126.949997,17.84,2.4737,363,23813,1.93638,3.67,32941,,,,,,,,,,,,,,,,,,99999,99999,99999,99999,99999,99999,99999,99999,99999,99999,99999,99999
44:36:19,1510917240,2017-11-17T11:14:04,0.783,2034.0,21.10,17.96,22.54,818.130,2091.120,127.750000,18.02,2.4737,363,23813,1.93699,3.67,32936,,,,,,,,,,,,,,,,,,99999,99999,99999,99999,99999,99999,99999,99999,99999,99999,99999,99999
44:36:49,1510917270,2017-11-17T11:14:34,0.783,2034.4,21.09,17.98,22.50,817.970,2091.100,126.866669,18.10,2.4737,363,23811,1.93638,3.67,32930,,,,,,,,,,,,,,,,,,99999,99999,99999,99999,99999,99999,99999,99999,99999,99999,99999,99999
44:37:19,1510917300,2017-11-17T11:15:04,0.783,2034.8,21.10,17.97,22.56,818.050,2091.120,128.183334,18.36,2.4737,363,23812,1.93669,3.67,32925,,,,,,,,,,,,,,,,,,99999,99999,99999,99999,99999,99999,99999,99999,99999,99999,99999,99999
44:37:49,1510917330,2017-11-17T11:15:34,0.782,2035.1,21.10,17.97,22.49,818.080,2091.120,133.016663,18.10,2.4737,363,23812,1.93547,3.67,32919,,,,,,,,,,,,,,,,,,99999,99999,99999,99999,99999,99999,99999,99999,99999,99999,99999,99999
44:38:19,1510917360,2017-11-17T11:16:04,0.784,2035.5,21.10,17.96,22.50,818.080,2091.120,128.399994,18.12,2.4737,363,23811,1.94003,3.67,32914,,,,,,,,,,,,,,,,,,99999,99999,99999,99999,99999,99999,99999,99999,99999,99999,99999,99999
44:38:49,1510917390,2017-11-17T11:16:34,0.784,2035.9,21.11,17.97,22.50,817.920,2091.160,128.416672,18.15,2.4736,363,23813,1.93821,3.67,32908,,,,,,,,,,,,,,,,,,99999,99999,99999,99999,99999,99999,99999,99999,99999,99999,99999,99999
44:39:19,1510917420,2017-11-17T11:17:04,0.784,2036.3,21.12,17.98,22.54,817.990,2091.160,128.383331,18.28,2.4735,363,23814,1.93912,3.67,32903,,,,,,,,,,,,,,,,,,99999,99999,99999,99999,99999,99999,99999,99999,99999,99999,99999,99999
44:39:49,1510917450,2017-11-17T11:17:34,0.786,2036.7,21.12,17.99,22.50,818.050,2091.160,128.083328,18.24,2.4735,363,23813,1.94398,3.67,32898,,,,,,,,,,,,,,,,,,99999,99999,99999,99999,99999,99999,99999,99999,99999,99999,99999,99999
44:40:19,1510917480,2017-11-17T11:18:04,0.785,2037.1,21.12,17.99,22.54,818.100,2091.160,126.533333,18.26,2.4735,363,23816,1.94186,3.67,32892,,,,,,,,,,,,,,,,,,99999,99999,99999,99999,99999,99999,99999,99999,99999,99999,99999,99999
44:40:49,1510917510,2017-11-17T11:18:34,0.785,2037.5,21.14,17.99,22.54,818.040,2091.350,127.533333,17.93,2.4736,363,23812,1.94094,3.67,32887,,,,,,,,,,,,,,,,,,99999,99999,99999,99999,99999,99999,99999,99999,99999,99999,99999,99999
44:41:19,1510917540,2017-11-17T11:19:04,0.785,2037.9,21.14,18.01,22.54,818.120,2091.350,130.883331,18.02,2.4736,363,23814,1.94246,3.67,32881,,,,,,,,,,,,,,,,,,99999,99999,99999,99999,99999,99999,99999,99999,99999,99999,99999,99999
44:41:49,1510917570,2017-11-17T11:19:34,0.784,2038.3,21.15,18.03,22.52,818.020,2091.350,129.350006,18.21,2.4735,363,23812,1.93912,3.67,32876,,,,,,,,,,,,,,,,,,99999,99999,99999,99999,99999,99999,99999,99999,99999,99999,99999,99999
44:42:19,1510917600,2017-11-17T11:20:04,0.784,2038.7,21.16,18.03,22.57,818.170,2091.390,130.183334,18.03,2.4735,363,23812,1.93821,3.67,32870,,,,,,,,,,,,,,,,,,99999,99999,99999,99999,99999,99999,99999,99999,99999,99999,99999,99999
44:42:49,1510917630,2017-11-17T11:20:34,0.786,2039.1,21.17,18.04,22.62,818.010,2091.390,128.333328,18.28,2.4734,363,23816,1.94307,3.67,32865,,,,,,,,,,,,,,,,,,99999,99999,99999,99999,99999,99999,99999,99999,99999,99999,99999,99999
44:43:19,1510917660,2017-11-17T11:21:04,0.787,2039.5,21.19,18.06,22.57,817.980,2091.450,129.483337,18.06,2.4733,363,23816,1.94642,3.67,32860,,,,,,,,,,,,,,,,,,99999,99999,99999,99999,99999,99999,99999,99999,99999,99999,99999,99999
44:43:49,1510917690,2017-11-17T11:21:34,0.786,2039.9,21.19,18.06,22.59,817.960,2091.450,129.216660,18.08,2.4733,363,23815,1.94429,3.67,32854,,,,,,,,,,,,,,,,,,99999,99999,99999,99999,99999,99999,99999,99999,99999,99999,99999,99999
44:44:19,1510917720,2017-11-17T11:22:04,0.787,2040.2,21.19,18.06,22.60,818.010,2091.450,129.116669,18.24,2.4733,363,23816,1.94673,3.67,32849,,,,,,,,,,,,,,,,,,99999,99999,99999,99999,99999,99999,99999,99999,99999,99999,99999,99999
44:44:49,1510917750,2017-11-17T11:22:34,0.788,2040.6,21.20,18.09,22.62,818.060,2091.510,127.066666,18.53,2.4732,363,23817,1.95008,3.67,32843,,,,,,,,,,,,,,,,,,99999,99999,99999,99999,99999,99999,99999,99999,99999,99999,99999,99999
44:45:19,1510917780,2017-11-17T11:23:04,0.786,2041.0,21.20,18.08,22.60,818.030,2091.510,129.633331,18.51,2.4732,363,23816,1.94368,3.67,32838,,,,,,,,,,,,,,,,,,99999,99999,99999,99999,99999,99999,99999,99999,99999,99999,99999,99999
44:45:49,1510917810,2017-11-17T11:23:34,0.787,2041.4,21.20,18.07,22.62,818.000,2091.510,127.783333,18.05,2.4733,363,23816,1.94703,3.67,32832,,,,,,,,,,,,,,,,,,99999,99999,99999,99999,99999,99999,99999,99999,99999,99999,99999,99999
44:46:19,1510917840,2017-11-17T11:24:04,0.787,2041.8,21.21,18.09,22.60,818.000,2091.510,128.383331,18.15,2.4732,363,23816,1.94764,3.67,32827,,,,,,,,,,,,,,,,,,99999,99999,99999,99999,99999,99999,99999,99999,99999,99999,99999,99999
44:46:49,1510917870,2017-11-17T11:24:34,0.787,2042.2,21.20,18.08,22.64,818.030,2091.510,130.800003,18.19,2.4733,363,23814,1.94581,3.67,32822,,,,,,,,,,,,,,,,,,99999,99999,99999,99999,99999,99999,99999,99999,99999,99999,99999,99999
44:47:19,1510917900,2017-11-17T11:25:04,0.782,2042.6,21.21,18.09,22.64,818.080,2091.510,136.149994,18.14,2.4732,363,23815,1.93304,3.67,32816,,,,,,,,,,,,,,,,,,99999,99999,99999,99999,99999,99999,99999,99999,99999,99999,99999,99999
44:47:49,1510917930,2017-11-17T11:25:34,0.787,2043.0,21.21,18.09,22.64,817.980,2091.510,128.949997,18.14,2.4732,363,23817,1.94703,3.67,32811,,,,,,,,,,,,,,,,,,99999,99999,99999,99999,99999,99999,99999,99999,99999,99999,99999,99999
44:48:19,1510917960,2017-11-17T11:26:04,0.785,2043.4,21.21,18.08,22.64,818.140,2091.510,127.633331,18.24,2.4732,363,23818,1.94216,3.67,32805,,,,,,,,,,,,,,,,,,99999,99999,99999,99999,99999,99999,99999,99999,99999,99999,99999,99999
44:48:49,1510917990,2017-11-17T11:26:34,0.783,2043.8,21.21,18.09,22.62,818.030,2091.510,131.750000,18.22,2.4732,363,23816,1.93669,3.67,32800,,,,,,,,,,,,,,,,,,99999,99999,99999,99999,99999,99999,99999,99999,99999,99999,99999,99999
44:49:19,1510918020,2017-11-17T11:27:04,0.785,2044.2,21.22,18.09,22.62,817.990,2091.570,130.933334,18.17,2.4732,363,23815,1.94216,3.67,32794,,,,,,,,,,,,,,,,,,99999,99999,99999,99999,99999,99999,99999,99999,99999,99999,99999,99999
44:49:49,1510918050,2017-11-17T11:27:34,0.783,2044.6,21.23,18.10,22.64,818.080,2091.570,126.949997,18.27,2.4731,363,23815,1.93730,3.67,32789,,,,,,,,,,,,,,,,,,99999,99999,99999,99999,99999,99999,99999,99999,99999,99999,99999,99999
44:50:19,1510918080,2017-11-17T11:28:04,0.785,2044.9,21.24,18.12,22.64,817.880,2091.640,127.816666,18.22,2.4731,363,23814,1.94094,3.67,32783,,,,,,,,,,,,,,,,,,99999,99999,99999,99999,99999,99999,99999,99999,99999,99999,99999,99999
44:50:49,1510918110,2017-11-17T11:28:34,0.785,2045.3,21.25,18.13,22.67,817.960,2091.640,127.783333,18.41,2.4730,363,23816,1.94064,3.67,32778,,,,,,,,,,,,,,,,,,99999,99999,99999,99999,99999,99999,99999,99999,99999,99999,99999,99999
44:51:19,1510918140,2017-11-17T11:29:04,0.785,2045.7,21.27,18.15,22.64,817.950,2091.740,129.683334,18.42,2.4729,363,23817,1.94246,3.67,32773,,,,,,,,,,,,,,,,,,99999,99999,99999,99999,99999,99999,99999,99999,99999,99999,99999,99999
44:51:49,1510918170,2017-11-17T11:29:34,0.786,2046.1,21.27,18.13,22.70,817.850,2091.740,127.683334,18.28,2.4730,363,23819,1.94459,3.67,32767,,,,,,,,,,,,,,,,,,99999,99999,99999,99999,99999,99999,99999,99999,99999,99999,99999,99999
44:52:19,1510918200,2017-11-17T11:30:04,0.786,2046.5,21.28,18.16,22.67,817.960,2091.800,128.850006,18.31,2.4729,363,23817,1.94459,3.67,32762,,,,,,,,,,,,,,,,,,99999,99999,99999,99999,99999,99999,99999,99999,99999,99999,99999,99999
44:52:49,1510918230,2017-11-17T11:30:34,0.784,2046.9,21.29,18.17,22.68,818.060,2091.800,127.000000,18.40,2.4728,363,23817,1.93760,3.67,32756,,,,,,,,,,,,,,,,,,99999,99999,99999,99999,99999,99999,99999,99999,99999,99999,99999,99999
44:53:19,1510918260,2017-11-17T11:31:04,0.788,2047.3,21.31,18.16,22.70,817.970,2091.870,128.933334,18.68,2.4727,363,23819,1.94855,3.67,32751,,,,,,,,,,,,,,,,,,99999,99999,99999,99999,99999,99999,99999,99999,99999,99999,99999,99999
44:53:49,1510918290,2017-11-17T11:31:34,0.788,2047.7,21.31,18.15,22.70,818.050,2091.870,128.466660,18.49,2.4727,363,23820,1.94916,3.67,32745,,,,,,,,,,,,,,,,,,99999,99999,99999,99999,99999,99999,99999,99999,99999,99999,99999,99999
44:54:19,1510918320,2017-11-17T11:32:04,0.784,2048.1,21.31,18.17,22.70,818.160,2091.870,128.566666,18.64,2.4727,363,23820,1.93912,3.67,32740,,,,,,,,,,,,,,,,,,99999,99999,99999,99999,99999,99999,99999,99999,99999,99999,99999,99999
44:54:49,1510918350,2017-11-17T11:32:34,0.785,2048.5,21.29,18.16,22.70,818.030,2091.800,129.766663,18.53,2.4728,363,23818,1.94186,3.67,32734,,,,,,,,,,,,,,,,,,99999,99999,99999,99999,99999,99999,99999,99999,99999,99999,99999,99999
44:55:19,1510918380,2017-11-17T11:33:04,0.784,2048.9,21.29,18.16,22.68,818.030,2091.800,126.616669,18.62,2.4728,363,23817,1.93912,3.67,32729,,,,,,,,,,,,,,,,,,99999,99999,99999,99999,99999,99999,99999,99999,99999,99999,99999,99999
44:55:49,1510918410,2017-11-17T11:33:34,0.787,2049.3,21.30,18.15,22.70,818.110,2091.870,130.550003,18.21,2.4729,363,23817,1.94612,3.67,32724,,,,,,,,,,,,,,,,,,99999,99999,99999,99999,99999,99999,99999,99999,99999,99999,99999,99999
44:56:19,1510918440,2017-11-17T11:34:04,0.783,2049.7,21.28,18.15,22.65,818.090,2091.800,127.416664,18.31,2.4729,363,23818,1.93669,3.67,32718,,,,,,,,,,,,,,,,,,99999,99999,99999,99999,99999,99999,99999,99999,99999,99999,99999,99999
44:56:49,1510918470,2017-11-17T11:34:34,0.787,2050.1,21.28,18.15,22.70,818.200,2091.800,129.133331,18.59,2.4729,363,23819,1.94733,3.67,32713,,,,,,,,,,,,,,,,,,99999,99999,99999,99999,99999,99999,99999,99999,99999,99999,99999,99999
44:57:19,1510918500,2017-11-17T11:35:04,0.788,2050.5,21.27,18.15,22.70,818.200,2091.740,128.616669,18.69,2.4729,363,23818,1.94825,3.67,32707,,,,,,,,,,,,,,,,,,99999,99999,99999,99999,99999,99999,99999,99999,99999,99999,99999,99999
44:57:49,1510918530,2017-11-17T11:35:34,0.786,2050.8,21.27,18.16,22.67,818.090,2091.740,129.583328,18.46,2.4729,363,23816,1.94459,3.67,32702,,,,,,,,,,,,,,,,,,99999,99999,99999,99999,99999,99999,99999,99999,99999,99999,99999,99999
44:58:19,1510918560,2017-11-17T11:36:04,0.786,2051.2,21.27,18.13,22.65,818.060,2091.740,129.533340,18.63,2.4729,363,23816,1.94429,3.66,32696,,,,,,,,,,,,,,,,,,99999,99999,99999,99999,99999,99999,99999,99999,99999,99999,99999,99999
44:58:49,1510918590,2017-11-17T11:36:34,0.785,2051.6,21.27,18.14,22.68,818.090,2091.740,126.750000,18.40,2.4729,363,23818,1.94003,3.67,32691,,,,,,,,,,,,,,,,,,99999,99999,99999,99999,99999,99999,99999,99999,99999,99999,99999,99999
44:59:19,1510918620,2017-11-17T11:37:04,0.788,2052.0,21.26,18.12,22.72,818.010,2091.740,127.966667,18.33,2.4730,363,23814,1.94977,3.67,32686,,,,,,,,,,,,,,,,,,99999,99999,99999,99999,99999,99999,99999,99999,99999,99999,99999,99999
44:59:49,1510918650,2017-11-17T11:37:34,0.784,2052.4,21.25,18.12,22.65,818.100,2091.640,126.783333,18.83,2.4729,363,23817,1.93942,3.67,32680,,,,,,,,,,,,,,,,,,99999,99999,99999,99999,99999,99999,99999,99999,99999,99999,99999,99999
45:00:19,1510918680,2017-11-17T11:38:04,0.786,2052.8,21.24,18.12,22.64,818.070,2091.640,128.133331,18.58,2.4731,363,23817,1.94398,3.66,32675,,,,,,,,,,,,,,,,,,99999,99999,99999,99999,99999,99999,99999,99999,99999,99999,99999,99999
45:00:49,1510918710,2017-11-17T11:38:34,0.785,2053.2,21.23,18.11,22.62,818.020,2091.570,128.066666,18.49,2.4731,363,23815,1.94155,3.66,32669,,,,,,,,,,,,,,,,,,99999,99999,99999,99999,99999,99999,99999,99999,99999,99999,99999,99999
45:01:19,1510918740,2017-11-17T11:39:04,0.786,2053.6,21.22,18.10,22.64,818.180,2091.570,130.283340,18.63,2.4731,363,23820,1.94459,3.66,32664,,,,,,,,,,,,,,,,,,99999,99999,99999,99999,99999,99999,99999,99999,99999,99999,99999,99999
45:01:49,1510918770,2017-11-17T11:39:34,0.784,2054.0,21.21,18.09,22.64,818.110,2091.510,125.650002,18.70,2.4731,363,23818,1.93821,3.66,32658,,,,,,,,,,,,,,,,,,99999,99999,99999,99999,99999,99999,99999,99999,99999,99999,99999,99999
45:02:19,1510918800,2017-11-17T11:40:04,0.785,2054.4,21.20,18.08,22.62,818.140,2091.510,129.899994,18.75,2.4732,363,23814,1.94186,3.66,32653,,,,,,,,,,,,,,,,,,99999,99999,99999,99999,99999,99999,99999,99999,99999,99999,99999,99999
45:02:49,1510918830,2017-11-17T11:40:34,0.786,2054.8,21.19,18.05,22.65,818.120,2091.450,128.616669,18.62,2.4733,363,23815,1.94277,3.66,32647,,,,,,,,,,,,,,,,,,99999,99999,99999,99999,99999,99999,99999,99999,99999,99999,99999,99999
45:03:19,1510918860,2017-11-17T11:41:04,0.782,2055.2,21.18,18.05,22.59,818.090,2091.450,129.233337,18.91,2.4733,363,23813,1.93517,3.66,32642,,,,,,,,,,,,,,,,,,99999,99999,99999,99999,99999,99999,99999,99999,99999,99999,99999,99999
45:03:49,1510918890,2017-11-17T11:41:34,0.787,2055.6,21.16,18.05,22.59,818.120,2091.390,128.766663,18.70,2.4734,363,23814,1.94581,3.66,32637,,,,,,,,,,,,,,,,,,99999,99999,99999,99999,99999,99999,99999,99999,99999,99999,99999,99999
45:04:19,1510918920,2017-11-17T11:42:04,0.784,2056.0,21.15,18.02,22.59,818.200,2091.350,127.883331,18.92,2.4734,363,23814,1.93942,3.66,32631,,,,,,,,,,,,,,,,,,99999,99999,99999,99999,99999,99999,99999,99999,99999,99999,99999,99999
45:04:49,1510918950,2017-11-17T11:42:34,0.787,2056.4,21.13,18.01,22.54,818.180,2091.280,127.599998,19.00,2.4735,363,23813,1.94581,3.66,32626,,,,,,,,,,,,,,,,,,99999,99999,99999,99999,99999,99999,99999,99999,99999,99999,99999,99999
45:05:19,1510918980,2017-11-17T11:43:04,0.788,2056.7,21.13,18.01,22.52,818.050,2091.280,127.633331,18.91,2.4735,363,23814,1.94977,3.66,32620,,,,,,,,,,,,,,,,,,99999,99999,99999,99999,99999,99999,99999,99999,99999,99999,99999,99999
45:05:49,1510919010,2017-11-17T11:43:34,0.786,2057.1,21.11,18.00,22.54,818.190,2091.160,128.733337,18.92,2.4736,363,23809,1.94368,3.66,32615,,,,,,,,,,,,,,,,,,99999,99999,99999,99999,99999,99999,99999,99999,99999,99999,99999,99999
45:06:19,1510919040,2017-11-17T11:44:04,0.784,2057.5,21.10,17.99,22.49,818.240,2091.120,126.966667,19.18,2.4736,363,23813,1.93942,3.66,32609,,,,,,,,,,,,,,,,,,99999,99999,99999,99999,99999,99999,99999,99999,99999,99999,99999,99999
45:06:49,1510919070,2017-11-17T11:44:34,0.787,2057.9,21.07,17.97,22.49,818.190,2091.050,128.149994,19.00,2.4738,363,23810,1.94673,3.66,32604,,,,,,,,,,,,,,,,,,99999,99999,99999,99999,99999,99999,99999,99999,99999,99999,99999,99999
45:07:19,1510919100,2017-11-17T11:45:04,0.781,2058.3,21.06,17.96,22.52,818.140,2090.990,128.516663,18.95,2.4738,363,23812,1.93123,3.66,32598,,,,,,,,,,,,,,,,,,99999,99999,99999,99999,99999,99999,99999,99999,99999,99999,99999,99999
45:07:49,1510919130,2017-11-17T11:45:34,0.783,2058.7,21.05,17.96,22.49,818.120,2090.990,129.483337,19.22,2.4738,363,23810,1.93760,3.66,32593,,,,,,,,,,,,,,,,,,99999,99999,99999,99999,99999,99999,99999,99999,99999,99999,99999,99999
45:08:19,1510919160,2017-11-17T11:46:04,0.782,2059.1,21.05,17.96,22.49,818.120,2090.990,126.816666,19.33,2.4738,363,23813,1.93426,3.66,32588,,,,,,,,,,,,,,,,,,99999,99999,99999,99999,99999,99999,99999,99999,99999,99999,99999,99999
45:08:49,1510919190,2017-11-17T11:46:34,0.780,2059.5,21.03,17.94,22.46,818.130,2090.930,129.183334,19.09,2.4739,363,23810,1.93032,3.66,32582,,,,,,,,,,,,,,,,,,99999,99999,99999,99999,99999,99999,99999,99999,99999,99999,99999,99999
45:09:19,1510919220,2017-11-17T11:47:04,0.782,2059.9,21.02,17.94,22.46,818.050,2090.870,127.250000,19.41,2.4739,363,23811,1.93456,3.66,32577,,,,,,,,,,,,,,,,,,99999,99999,99999,99999,99999,99999,99999,99999,99999,99999,99999,99999
45:09:49,1510919250,2017-11-17T11:47:34,0.783,2060.3,21.01,17.94,22.50,818.080,2090.870,125.416664,19.09,2.4740,363,23813,1.93790,3.66,32571,,,,,,,,,,,,,,,,,,99999,99999,99999,99999,99999,99999,99999,99999,99999,99999,99999,99999
45:10:19,1510919280,2017-11-17T11:48:04,0.785,2060.7,21.02,17.92,22.41,818.080,2090.870,129.466660,19.12,2.4740,363,23811,1.94216,3.66,32566,,,,,,,,,,,,,,,,,,99999,99999,99999,99999,99999,99999,99999,99999,99999,99999,99999,99999
45:10:49,1510919310,2017-11-17T11:48:34,0.782,2061.1,21.01,17.92,22.46,818.100,2090.870,125.949997,19.29,2.4740,363,23812,1.93578,3.66,32560,,,,,,,,,,,,,,,,,,99999,99999,99999,99999,99999,99999,99999,99999,99999,99999,99999,99999
45:11:19,1510919340,2017-11-17T11:49:04,0.783,2061.5,21.00,17.94,22.48,818.110,2090.820,129.283340,19.30,2.4741,363,23809,1.93638,3.66,32555,,,,,,,,,,,,,,,,,,99999,99999,99999,99999,99999,99999,99999,99999,99999,99999,99999,99999
45:11:49,1510919370,2017-11-17T11:49:34,0.784,2061.8,21.00,17.92,22.44,818.110,2090.820,127.616669,19.50,2.4740,363,23809,1.93942,3.66,32550,,,,,,,,,,,,,,,,,,99999,99999,99999,99999,99999,99999,99999,99999,99999,99999,99999,99999
45:12:19,1510919400,2017-11-17T11:50:04,0.783,2062.2,21.00,17.91,22.42,818.110,2090.820,128.699997,19.65,2.4740,363,23808,1.93790,3.66,32544,,,,,,,,,,,,,,,,,,99999,99999,99999,99999,99999,99999,99999,99999,99999,99999,99999,99999
45:12:49,1510919430,2017-11-17T11:50:34,0.786,2062.6,20.99,17.91,22.44,818.110,2090.820,129.750000,19.55,2.4741,363,23810,1.94429,3.66,32539,,,,,,,,,,,,,,,,,,99999,99999,99999,99999,99999,99999,99999,99999,99999,99999,99999,99999
45:13:19,1510919460,2017-11-17T11:51:04,0.785,2063.0,20.99,17.90,22.44,818.130,2090.820,129.550003,19.42,2.4741,363,23808,1.94277,3.66,32533,,,,,,,,,,,,,,,,,,99999,99999,99999,99999,99999,99999,99999,99999,99999,99999,99999,99999
45:13:49,1510919490,2017-11-17T11:51:34,0.782,2063.4,20.97,17.90,22.42,818.140,2090.700,127.000000,19.50,2.4741,363,23811,1.93365,3.66,32528,,,,,,,,,,,,,,,,,,99999,99999,99999,99999,99999,99999,99999,99999,99999,99999,99999,99999
45:14:19,1510919520,2017-11-17T11:52:04,0.782,2063.8,20.97,17.87,22.41,818.160,2090.700,126.699997,19.43,2.4742,363,23809,1.93365,3.66,32522,,,,,,,,,,,,,,,,,,99999,99999,99999,99999,99999,99999,99999,99999,99999,99999,99999,99999
45:14:49,1510919550,2017-11-17T11:52:34,0.784,2064.2,20.95,17.87,22.41,818.090,2090.630,129.083328,19.43,2.4742,363,23808,1.94033,3.66,32517,,,,,,,,,,,,,,,,,,99999,99999,99999,99999,99999,99999,99999,99999,99999,99999,99999,99999
45:15:19,1510919580,2017-11-17T11:53:04,0.782,2064.6,20.94,17.86,22.38,818.150,2090.570,127.433334,19.82,2.4742,363,23811,1.93517,3.66,32511,,,,,,,,,,,,,,,,,,99999,99999,99999,99999,99999,99999,99999,99999,99999,99999,99999,99999
45:15:49,1510919610,2017-11-17T11:53:34,0.785,2065.0,20.93,17.84,22.38,818.150,2090.570,129.399994,19.68,2.4743,363,23808,1.94277,3.66,32506,,,,,,,,,,,,,,,,,,99999,99999,99999,99999,99999,99999,99999,99999,99999,99999,99999,99999
45:16:19,1510919640,2017-11-17T11:54:04,0.784,2065.4,20.90,17.82,22.34,818.160,2090.470,127.699997,19.68,2.4744,363,23809,1.94094,3.66,32501,,,,,,,,,,,,,,,,,,99999,99999,99999,99999,99999,99999,99999,99999,99999,99999,99999,99999
45:16:49,1510919670,2017-11-17T11:54:34,0.780,2065.8,20.89,17.80,22.32,818.130,2090.400,127.900002,19.63,2.4745,363,23809,1.93001,3.66,32495,,,,,,,,,,,,,,,,,,99999,99999,99999,99999,99999,99999,99999,99999,99999,99999,99999,99999
45:17:19,1510919700,2017-11-17T11:55:04,0.781,2066.2,20.86,17.78,22.30,818.140,2090.340,127.016670,19.73,2.4746,363,23809,1.93304,3.66,32490,,,,,,,,,,,,,,,,,,99999,99999,99999,99999,99999,99999,99999,99999,99999,99999,99999,99999
45:17:49,1510919730,2017-11-17T11:55:34,0.784,2066.5,20.84,17.77,22.32,818.200,2090.240,129.500000,19.77,2.4747,363,23807,1.94125,3.66,32484,,,,,,,,,,,,,,,,,,99999,99999,99999,99999,99999,99999,99999,99999,99999,99999,99999,99999
45:18:19,1510919760,2017-11-17T11:56:04,0.783,2066.9,20.82,17.74,22.26,818.200,2090.180,128.683334,19.73,2.4748,363,23807,1.93669,3.66,32479,,,,,,,,,,,,,,,,,,99999,99999,99999,99999,99999,99999,99999,99999,99999,99999,99999,99999
45:18:49,1510919790,2017-11-17T11:56:34,0.785,2067.3,20.80,17.74,22.25,818.230,2090.120,128.016663,19.85,2.4749,363,23805,1.94277,3.66,32473,,,,,,,,,,,,,,,,,,99999,99999,99999,99999,99999,99999,99999,99999,99999,99999,99999,99999
45:19:19,1510919820,2017-11-17T11:57:04,0.782,2067.7,20.79,17.69,22.24,818.180,2090.050,127.000000,19.81,2.4749,363,23805,1.93638,3.66,32468,,,,,,,,,,,,,,,,,,99999,99999,99999,99999,99999,99999,99999,99999,99999,99999,99999,99999
45:19:49,1510919850,2017-11-17T11:57:34,0.780,2068.1,20.75,17.71,22.24,818.170,2089.950,127.083336,20.06,2.4751,363,23805,1.93092,3.66,32462,,,,,,,,,,,,,,,,,,99999,99999,99999,99999,99999,99999,99999,99999,99999,99999,99999,99999
45:20:19,1510919880,2017-11-17T11:58:04,0.782,2068.5,20.74,17.68,22.20,818.040,2089.950,125.016670,20.09,2.4752,363,23806,1.93487,3.66,32457,,,,,,,,,,,,,,,,,,99999,99999,99999,99999,99999,99999,99999,99999,99999,99999,99999,99999
45:20:49,1510919910,2017-11-17T11:58:34,0.782,2068.9,20.73,17.67,22.18,818.200,2089.880,127.233330,19.98,2.4752,363,23807,1.93547,3.66,32452,,,,,,,,,,,,,,,,,,99999,99999,99999,99999,99999,99999,99999,99999,99999,99999,99999,99999
45:21:19,1510919940,2017-11-17T11:59:04,0.781,2069.3,20.72,17.67,22.18,818.250,2089.880,124.800003,19.98,2.4753,363,23803,1.93396,3.66,32446,,,,,,,,,,,,,,,,,,99999,99999,99999,99999,99999,99999,99999,99999,99999,99999,99999,99999
45:21:49,1510919970,2017-11-17T11:59:34,0.781,2069.7,20.70,17.65,22.17,818.230,2089.760,127.283333,19.84,2.4753,363,23804,1.93335,3.66,32441,,,,,,,,,,,,,,,,,,99999,99999,99999,99999,99999,99999,99999,99999,99999,99999,99999,99999
45:22:19,1510920000,2017-11-17T12:00:04,0.785,2070.1,20.69,17.62,22.14,818.340,2089.720,127.733330,19.93,2.4753,363,23802,1.94368,3.66,32435,,,,,,,,,,,,,,,,,,99999,99999,99999,99999,99999,99999,99999,99999,99999,99999,99999,99999
45:22:49,1510920030,2017-11-17T12:00:34,0.785,2070.5,20.69,17.64,22.14,818.340,2089.720,128.500000,20.07,2.4753,363,23802,1.94216,3.66,32430,,,,,,,,,,,,,,,,,,99999,99999,99999,99999,99999,99999,99999,99999,99999,99999,99999,99999
45:23:19,1510920060,2017-11-17T12:01:04,0.782,2070.8,20.69,17.62,22.14,818.370,2089.720,126.533333,20.09,2.4753,363,23804,1.93669,3.66,32424,,,,,,,,,,,,,,,,,,99999,99999,99999,99999,99999,99999,99999,99999,99999,99999,99999,99999
45:23:49,1510920090,2017-11-17T12:01:34,0.780,2071.2,20.68,17.62,22.14,818.340,2089.650,128.316666,20.18,2.4753,363,23800,1.93001,3.66,32419,,,,,,,,,,,,,,,,,,99999,99999,99999,99999,99999,99999,99999,99999,99999,99999,99999,99999
45:24:19,1510920120,2017-11-17T12:02:04,0.782,2071.6,20.68,17.62,22.10,818.420,2089.650,125.466667,20.23,2.4753,363,23804,1.93578,3.66,32414,,,,,,,,,,,,,,,,,,99999,99999,99999,99999,99999,99999,99999,99999,99999,99999,99999,99999
45:24:49,1510920150,2017-11-17T12:02:34,0.783,2072.0,20.67,17.61,22.12,818.370,2089.650,128.383331,20.30,2.4754,363,23803,1.93912,3.66,32408,,,,,,,,,,,,,,,,,,99999,99999,99999,99999,99999,99999,99999,99999,99999,99999,99999,99999
45:25:19,1510920180,2017-11-17T12:03:04,0.780,2072.4,20.68,17.62,22.10,818.370,2089.650,127.483330,20.50,2.4753,363,23802,1.93001,3.66,32403,,,,,,,,,,,,,,,,,,99999,99999,99999,99999,99999,99999,99999,99999,99999,99999,99999,99999
45:25:49,1510920210,2017-11-17T12:03:34,0.781,2072.8,20.66,17.61,22.14,818.380,2089.590,126.800003,20.28,2.4754,363,23802,1.93244,3.66,32397,,,,,,,,,,,,,,,,,,99999,99999,99999,99999,99999,99999,99999,99999,99999,99999,99999,99999
45:26:19,1510920240,2017-11-17T12:04:04,0.780,2073.2,20.65,17.61,22.10,818.430,2089.590,125.849998,20.39,2.4755,363,23803,1.93153,3.66,32392,,,,,,,,,,,,,,,,,,99999,99999,99999,99999,99999,99999,99999,99999,99999,99999,99999,99999
45:26:49,1510920270,2017-11-17T12:04:33,0.784,2073.6,20.65,17.58,22.09,818.300,2089.590,128.333328,20.37,2.4755,363,23801,1.94125,3.66,32386,,,,,,,,,,,,,,,,,,99999,99999,99999,99999,99999,99999,99999,99999,99999,99999,99999,99999
45:27:19,1510920300,2017-11-17T12:05:03,0.780,2074.0,20.64,17.59,22.09,818.410,2089.530,127.333336,20.60,2.4755,363,23803,1.92971,3.66,32381,,,,,,,,,,,,,,,,,,99999,99999,99999,99999,99999,99999,99999,99999,99999,99999,99999,99999
45:27:49,1510920330,2017-11-17T12:05:33,0.783,2074.4,20.63,17.59,22.10,818.350,2089.530,127.650002,20.54,2.4756,363,23801,1.93760,3.66,32376,,,,,,,,,,,,,,,,,,99999,99999,99999,99999,99999,99999,99999,99999,99999,99999,99999,99999
45:28:19,1510920360,2017-11-17T12:06:03,0.784,2074.7,20.64,17.59,22.09,818.430,2089.530,128.683334,20.52,2.4755,363,23801,1.94064,3.66,32370,,,,,,,,,,,,,,,,,,99999,99999,99999,99999,99999,99999,99999,99999,99999,99999,99999,99999
45:28:49,1510920390,2017-11-17T12:06:33,0.783,2075.1,20.63,17.59,22.07,818.300,2089.530,129.383331,20.60,2.4755,363,23800,1.93760,3.66,32365,,,,,,,,,,,,,,,,,,99999,99999,99999,99999,99999,99999,99999,99999,99999,99999,99999,99999
45:29:19,1510920420,2017-11-17T12:07:03,0.783,2075.5,20.63,17.57,22.07,818.410,2089.530,128.316666,20.53,2.4756,363,23800,1.93790,3.66,32359,,,,,,,,,,,,,,,,,,99999,99999,99999,99999,99999,99999,99999,99999,99999,99999,99999,99999
45:29:49,1510920450,2017-11-17T12:07:33,0.779,2075.9,20.62,17.56,22.06,818.260,2089.470,126.599998,20.92,2.4755,363,23799,1.92880,3.66,32354,,,,,,,,,,,,,,,,,,99999,99999,99999,99999,99999,99999,99999,99999,99999,99999,99999,99999
45:30:19,1510920480,2017-11-17T12:08:03,0.784,2076.3,20.63,17.57,22.04,818.350,2089.530,127.716667,20.64,2.4755,363,23799,1.94003,3.66,32348,,,,,,,,,,,,,,,,,,99999,99999,99999,99999,99999,99999,99999,99999,99999,99999,99999,99999
45:30:49,1510920510,2017-11-17T12:08:33,0.782,2076.7,20.62,17.57,22.04,818.360,2089.470,126.966667,20.82,2.4755,363,23801,1.93547,3.66,32343,,,,,,,,,,,,,,,,,,99999,99999,99999,99999,99999,99999,99999,99999,99999,99999,99999,99999
45:31:19,1510920540,2017-11-17T12:09:03,0.780,2077.1,20.61,17.57,22.04,818.420,2089.470,126.416664,20.89,2.4756,363,23802,1.93062,3.66,32337,,,,,,,,,,,,,,,,,,99999,99999,99999,99999,99999,99999,99999,99999,99999,99999,99999,99999
45:31:49,1510920570,2017-11-17T12:09:33,0.782,2077.5,20.60,17.56,22.07,818.340,2089.430,127.016670,20.80,2.4757,363,23801,1.93547,3.66,32332,,,,,,,,,,,,,,,,,,99999,99999,99999,99999,99999,99999,99999,99999,99999,99999,99999,99999
45:32:19,1510920600,2017-11-17T12:10:03,0.782,2077.9,20.60,17.53,22.06,818.390,2089.430,126.983330,20.83,2.4757,363,23800,1.93699,3.66,32327,,,,,,,,,,,,,,,,,,99999,99999,99999,99999,99999,99999,99999,99999,99999,99999,99999,99999
45:32:49,1510920630,2017-11-17T12:10:33,0.780,2078.2,20.59,17.54,22.04,818.500,2089.430,128.766663,20.79,2.4757,363,23799,1.93032,3.66,32321,,,,,,,,,,,,,,,,,,99999,99999,99999,99999,99999,99999,99999,99999,99999,99999,99999,99999
45:33:19,1510920660,2017-11-17T12:11:03,0.782,2078.6,20.59,17.53,22.02,818.340,2089.430,127.816666,20.91,2.4757,363,23797,1.93578,3.66,32316,,,,,,,,,,,,,,,,,,99999,99999,99999,99999,99999,99999,99999,99999,99999,99999,99999,99999
45:33:49,1510920690,2017-11-17T12:11:33,0.781,2079.0,20.57,17.51,22.01,818.450,2089.300,125.050003,20.76,2.4758,363,23798,1.93304,3.66,32310,,,,,,,,,,,,,,,,,,99999,99999,99999,99999,99999,99999,99999,99999,99999,99999,99999,99999
45:34:19,1510920720,2017-11-17T12:12:03,0.778,2079.4,20.57,17.50,21.98,818.610,2089.300,128.750000,20.88,2.4758,363,23799,1.92607,3.66,32305,,,,,,,,,,,,,,,,,,99999,99999,99999,99999,99999,99999,99999,99999,99999,99999,99999,99999
45:34:49,1510920750,2017-11-17T12:12:33,0.780,2079.8,20.55,17.49,22.02,818.460,2089.230,126.466667,20.83,2.4758,363,23799,1.93213,3.66,32299,,,,,,,,,,,,,,,,,,99999,99999,99999,99999,99999,99999,99999,99999,99999,99999,99999,99999
45:35:19,1510920780,2017-11-17T12:13:03,0.780,2080.2,20.55,17.47,22.01,818.540,2089.230,126.000000,20.94,2.4758,363,23798,1.93062,3.66,32294,,,,,,,,,,,,,,,,,,99999,99999,99999,99999,99999,99999,99999,99999,99999,99999,99999,99999
45:35:49,1510920810,2017-11-17T12:13:33,0.781,2080.6,20.54,17.49,21.96,818.570,2089.200,127.466667,20.98,2.4759,363,23798,1.93487,3.66,32289,,,,,,,,,,,,,,,,,,99999,99999,99999,99999,99999,99999,99999,99999,99999,99999,99999,99999
45:36:19,1510920840,2017-11-17T12:14:03,0.781,2081.0,20.55,17.47,22.02,818.540,2089.230,126.433334,20.96,2.4758,363,23799,1.93396,3.66,32283,,,,,,,,,,,,,,,,,,99999,99999,99999,99999,99999,99999,99999,99999,99999,99999,99999,99999
45:36:49,1510920870,2017-11-17T12:14:33,0.783,2081.4,20.53,17.49,21.98,818.430,2089.180,127.599998,21.02,2.4759,363,23798,1.93942,3.66,32278,,,,,,,,,,,,,,,,,,99999,99999,99999,99999,99999,99999,99999,99999,99999,99999,99999,99999
45:37:19,1510920900,2017-11-17T12:15:03,0.780,2081.7,20.53,17.48,21.96,818.540,2089.180,126.400002,21.11,2.4759,363,23797,1.93092,3.66,32272,,,,,,,,,,,,,,,,,,99999,99999,99999,99999,99999,99999,99999,99999,99999,99999,99999,99999
45:37:49,1510920930,2017-11-17T12:15:33,0.782,2082.1,20.52,17.47,21.98,818.600,2089.130,128.766663,21.32,2.4759,363,23797,1.93669,3.66,32267,,,,,,,,,,,,,,,,,,99999,99999,99999,99999,99999,99999,99999,99999,99999,99999,99999,99999
45:38:19,1510920960,2017-11-17T12:16:03,0.779,2082.5,20.53,17.48,21.98,818.620,2089.180,127.666664,21.12,2.4759,363,23797,1.92850,3.66,32261,,,,,,,,,,,,,,,,,,99999,99999,99999,99999,99999,99999,99999,99999,99999,99999,99999,99999
45:38:49,1510920990,2017-11-17T12:16:33,0.779,2082.9,20.53,17.48,21.96,818.510,2089.180,127.333336,21.14,2.4759,363,23799,1.92880,3.65,32256,,,,,,,,,,,,,,,,,,99999,99999,99999,99999,99999,99999,99999,99999,99999,99999,99999,99999
45:39:19,1510921020,2017-11-17T12:17:03,0.780,2083.3,20.53,17.47,21.96,818.650,2089.180,126.066666,21.16,2.4759,363,23797,1.93092,3.65,32251,,,,,,,,,,,,,,,,,,99999,99999,99999,99999,99999,99999,99999,99999,99999,99999,99999,99999
45:39:49,1510921050,2017-11-17T12:17:33,0.782,2083.7,20.53,17.48,21.96,818.650,2089.180,131.466660,21.26,2.4759,363,23797,1.93730,3.65,32245,,,,,,,,,,,,,,,,,,99999,99999,99999,99999,99999,99999,99999,99999,99999,99999,99999,99999
45:40:19,1510921080,2017-11-17T12:18:03,0.780,2084.1,20.53,17.49,21.99,818.650,2089.180,126.816666,21.17,2.4759,363,23797,1.93244,3.65,32240,,,,,,,,,,,,,,,,,,99999,99999,99999,99999,99999,99999,99999,99999,99999,99999,99999,99999
45:40:49,1510921110,2017-11-17T12:18:33,0.784,2084.5,20.53,17.49,21.96,818.700,2089.180,126.400002,21.33,2.4759,363,23797,1.94186,3.65,32234,,,,,,,,,,,,,,,,,,99999,99999,99999,99999,99999,99999,99999,99999,99999,99999,99999,99999
45:41:19,1510921140,2017-11-17T12:19:03,0.783,2084.9,20.54,17.48,21.99,818.590,2089.200,129.399994,21.44,2.4758,363,23798,1.93760,3.65,32229,,,,,,,,,,,,,,,,,,99999,99999,99999,99999,99999,99999,99999,99999,99999,99999,99999,99999
45:41:49,1510921170,2017-11-17T12:19:33,0.783,2085.3,20.54,17.48,21.98,818.670,2089.200,127.133331,21.31,2.4758,363,23800,1.93912,3.65,32223,,,,,,,,,,,,,,,,,,99999,99999,99999,99999,99999,99999,99999,99999,99999,99999,99999,99999
45:42:19,1510921200,2017-11-17T12:20:03,0.780,2085.6,20.53,17.48,21.96,818.590,2089.180,126.633331,21.37,2.4759,363,23797,1.93032,3.65,32218,,,,,,,,,,,,,,,,,,99999,99999,99999,99999,99999,99999,99999,99999,99999,99999,99999,99999
45:42:49,1510921230,2017-11-17T12:20:33,0.782,2086.0,20.54,17.49,21.99,818.540,2089.200,129.516663,21.46,2.4758,363,23797,1.93517,3.65,32213,,,,,,,,,,,,,,,,,,99999,99999,99999,99999,99999,99999,99999,99999,99999,99999,99999,99999
45:43:19,1510921260,2017-11-17T12:21:03,0.783,2086.4,20.53,17.46,21.99,818.590,2089.180,127.250000,21.47,2.4759,363,23799,1.93821,3.65,32207,,,,,,,,,,,,,,,,,,99999,99999,99999,99999,99999,99999,99999,99999,99999,99999,99999,99999
45:43:49,1510921290,2017-11-17T12:21:33,0.780,2086.8,20.52,17.47,21.98,818.460,2089.130,126.050003,21.68,2.4759,363,23798,1.93062,3.65,32202,,,,,,,,,,,,,,,,,,99999,99999,99999,99999,99999,99999,99999,99999,99999,99999,99999,99999
45:44:19,1510921320,2017-11-17T12:22:03,0.781,2087.2,20.51,17.46,21.94,818.520,2089.130,127.000000,21.59,2.4760,363,23797,1.93396,3.65,32196,,,,,,,,,,,,,,,,,,99999,99999,99999,99999,99999,99999,99999,99999,99999,99999,99999,99999
45:44:49,1510921350,2017-11-17T12:22:33,0.783,2087.6,20.51,17.46,21.96,818.600,2089.130,127.883331,21.39,2.4760,363,23796,1.93882,3.65,32191,,,,,,,,,,,,,,,,,,99999,99999,99999,99999,99999,99999,99999,99999,99999,99999,99999,99999
45:45:19,1510921380,2017-11-17T12:23:03,0.785,2088.0,20.51,17.46,21.96,818.540,2089.130,127.150002,21.42,2.4760,363,23796,1.94459,3.65,32185,,,,,,,,,,,,,,,,,,99999,99999,99999,99999,99999,99999,99999,99999,99999,99999,99999,99999
45:45:49,1510921410,2017-11-17T12:23:33,0.781,2088.4,20.49,17.44,21.96,818.600,2089.070,129.300003,21.47,2.4761,363,23796,1.93456,3.65,32180,,,,,,,,,,,,,,,,,,99999,99999,99999,99999,99999,99999,99999,99999,99999,99999,99999,99999
45:46:19,1510921440,2017-11-17T12:24:03,0.781,2088.8,20.47,17.42,21.94,818.530,2088.940,125.750000,21.49,2.4761,363,23796,1.93456,3.65,32175,,,,,,,,,,,,,,,,,,99999,99999,99999,99999,99999,99999,99999,99999,99999,99999,99999,99999
45:46:49,1510921470,2017-11-17T12:24:33,0.782,2089.1,20.48,17.42,21.94,818.530,2089.010,128.633331,21.63,2.4761,363,23796,1.93730,3.65,32169,,,,,,,,,,,,,,,,,,99999,99999,99999,99999,99999,99999,99999,99999,99999,99999,99999,99999
45:47:19,1510921500,2017-11-17T12:25:03,0.780,2089.5,20.47,17.43,21.92,818.610,2088.940,127.466667,21.58,2.4761,363,23795,1.93153,3.65,32164,,,,,,,,,,,,,,,,,,99999,99999,99999,99999,99999,99999,99999,99999,99999,99999,99999,99999
45:47:49,1510921530,2017-11-17T12:25:33,0.779,2089.9,20.46,17.41,21.90,818.590,2088.840,127.099998,21.70,2.4761,363,23796,1.92910,3.65,32158,,,,,,,,,,,,,,,,,,99999,99999,99999,99999,99999,99999,99999,99999,99999,99999,99999,99999
45:48:19,1510921560,2017-11-17T12:26:03,0.781,2090.3,20.46,17.41,21.91,818.590,2088.840,127.933334,21.79,2.4761,363,23799,1.93274,3.65,32153,,,,,,,,,,,,,,,,,,99999,99999,99999,99999,99999,99999,99999,99999,99999,99999,99999,99999
45:48:49,1510921590,2017-11-17T12:26:33,0.781,2090.7,20.45,17.39,21.91,818.570,2088.840,129.149994,21.67,2.4762,363,23793,1.93487,3.65,32147,,,,,,,,,,,,,,,,,,99999,99999,99999,99999,99999,99999,99999,99999,99999,99999,99999,99999
45:49:19,1510921620,2017-11-17T12:27:03,0.780,2091.1,20.43,17.39,21.88,818.600,2088.780,125.416664,21.89,2.4762,363,23796,1.93092,3.65,32142,,,,,,,,,,,,,,,,,,99999,99999,99999,99999,99999,99999,99999,99999,99999,99999,99999,99999
45:49:49,1510921650,2017-11-17T12:27:33,0.781,2091.5,20.43,17.41,21.88,818.650,2088.780,128.483337,21.80,2.4762,363,23797,1.93365,3.65,32136,,,,,,,,,,,,,,,,,,99999,99999,99999,99999,99999,99999,99999,99999,99999,99999,99999,99999
45:50:19,1510921680,2017-11-17T12:28:03,0.779,2091.9,20.42,17.38,21.90,818.650,2088.780,130.149994,21.91,2.4763,363,23794,1.92910,3.65,32131,,,,,,,,,,,,,,,,,,99999,99999,99999,99999,99999,99999,99999,99999,99999,99999,99999,99999
45:50:49,1510921710,2017-11-17T12:28:33,0.781,2092.3,20.41,17.36,21.86,818.630,2088.710,125.650002,21.49,2.4764,363,23793,1.93335,3.65,32126,,,,,,,,,,,,,,,,,,99999,99999,99999,99999,99999,99999,99999,99999,99999,99999,99999,99999
45:51:19,1510921740,2017-11-17T12:29:03,0.781,2092.6,20.41,17.37,21.86,818.760,2088.710,127.550003,21.85,2.4763,363,23793,1.93517,3.65,32120,,,,,,,,,,,,,,,,,,99999,99999,99999,99999,99999,99999,99999,99999,99999,99999,99999,99999
45:51:49,1510921770,2017-11-17T12:29:33,0.784,2093.0,20.40,17.35,21.83,818.680,2088.710,127.966667,21.88,2.4764,363,23794,1.94033,3.65,32115,,,,,,,,,,,,,,,,,,99999,99999,99999,99999,99999,99999,99999,99999,99999,99999,99999,99999
45:52:19,1510921800,2017-11-17T12:30:03,0.784,2093.4,20.40,17.35,21.86,818.680,2088.710,128.766663,21.86,2.4764,363,23795,1.94064,3.65,32109,,,,,,,,,,,,,,,,,,99999,99999,99999,99999,99999,99999,99999,99999,99999,99999,99999,99999
45:52:49,1510921830,2017-11-17T12:30:33,0.781,2093.8,20.39,17.35,21.82,818.760,2088.650,128.449997,21.99,2.4764,363,23792,1.93304,3.65,32104,,,,,,,,,,,,,,,,,,99999,99999,99999,99999,99999,99999,99999,99999,99999,99999,99999,99999
45:53:19,1510921860,2017-11-17T12:31:03,0.779,2094.2,20.39,17.34,21.83,818.710,2088.650,127.033333,21.98,2.4764,363,23793,1.92880,3.65,32098,,,,,,,,,,,,,,,,,,99999,99999,99999,99999,99999,99999,99999,99999,99999,99999,99999,99999
45:53:49,1510921890,2017-11-17T12:31:33,0.783,2094.6,20.37,17.34,21.83,818.640,2088.610,128.916672,22.05,2.4765,363,23794,1.93973,3.65,32093,,,,,,,,,,,,,,,,,,99999,99999,99999,99999,99999,99999,99999,99999,99999,99999,99999,99999
45:54:19,1510921920,2017-11-17T12:32:03,0.781,2095.0,20.36,17.31,21.80,818.660,2088.610,125.333336,22.06,2.4766,363,23793,1.93365,3.65,32088,,,,,,,,,,,,,,,,,,99999,99999,99999,99999,99999,99999,99999,99999,99999,99999,99999,99999
45:54:49,1510921950,2017-11-17T12:32:33,0.780,2095.4,20.36,17.32,21.84,818.770,2088.610,125.816666,22.14,2.4766,363,23794,1.93274,3.65,32082,,,,,,,,,,,,,,,,,,99999,99999,99999,99999,99999,99999,99999,99999,99999,99999,99999,99999
45:55:19,1510921980,2017-11-17T12:33:03,0.783,2095.8,20.34,17.31,21.78,818.720,2088.550,126.866669,22.09,2.4767,363,23791,1.94003,3.65,32077,,,,,,,,,,,,,,,,,,99999,99999,99999,99999,99999,99999,99999,99999,99999,99999,99999,99999
45:55:49,1510922010,2017-11-17T12:33:33,0.785,2096.1,20.34,17.30,21.78,818.770,2088.550,125.150002,21.98,2.4767,363,23794,1.94429,3.65,32071,,,,,,,,,,,,,,,,,,99999,99999,99999,99999,99999,99999,99999,99999,99999,99999,99999,99999
45:56:19,1510922040,2017-11-17T12:34:03,0.778,2096.5,20.33,17.29,21.80,818.590,2088.480,125.166664,21.99,2.4767,363,23792,1.92789,3.65,32066,,,,,,,,,,,,,,,,,,99999,99999,99999,99999,99999,99999,99999,99999,99999,99999,99999,99999
45:56:49,1510922070,2017-11-17T12:34:33,0.783,2096.9,20.32,17.29,21.75,818.730,2088.480,128.600006,22.14,2.4768,363,23793,1.94003,3.65,32060,,,,,,,,,,,,,,,,,,99999,99999,99999,99999,99999,99999,99999,99999,99999,99999,99999,99999
45:57:19,1510922100,2017-11-17T12:35:03,0.781,2097.3,20.31,17.28,21.76,818.710,2088.380,126.733330,22.19,2.4768,363,23790,1.93547,3.65,32055,,,,,,,,,,,,,,,,,,99999,99999,99999,99999,99999,99999,99999,99999,99999,99999,99999,99999
45:57:49,1510922130,2017-11-17T12:35:33,0.780,2097.7,20.30,17.27,21.75,818.680,2088.320,125.216667,22.33,2.4768,363,23790,1.93153,3.65,32050,,,,,,,,,,,,,,,,,,99999,99999,99999,99999,99999,99999,99999,99999,99999,99999,99999,99999
45:58:19,1510922160,2017-11-17T12:36:03,0.782,2098.1,20.29,17.26,21.75,818.660,2088.320,126.316666,22.36,2.4768,363,23792,1.93730,3.65,32044,,,,,,,,,,,,,,,,,,99999,99999,99999,99999,99999,99999,99999,99999,99999,99999,99999,99999
45:58:49,1510922190,2017-11-17T12:36:33,0.782,2098.5,20.28,17.25,21.76,818.790,2088.320,128.466660,22.36,2.4769,363,23788,1.93730,3.65,32039,,,,,,,,,,,,,,,,,,99999,99999,99999,99999,99999,99999,99999,99999,99999,99999,99999,99999
45:59:19,1510922220,2017-11-17T12:37:03,0.781,2098.9,20.27,17.23,21.72,818.630,2088.260,126.883331,22.36,2.4769,363,23789,1.93456,3.65,32033,,,,,,,,,,,,,,,,,,99999,99999,99999,99999,99999,99999,99999,99999,99999,99999,99999,99999
45:59:49,1510922250,2017-11-17T12:37:33,0.779,2099.3,20.26,17.22,21.72,818.660,2088.190,127.183334,22.35,2.4769,363,23789,1.92880,3.65,32028,,,,,,,,,,,,,,,,,,99999,99999,99999,99999,99999,99999,99999,99999,99999,99999,99999,99999
46:00:19,1510922280,2017-11-17T12:38:03,0.778,2099.6,20.25,17.22,21.70,818.720,2088.190,128.333328,22.42,2.4770,363,23791,1.92729,3.65,32022,,,,,,,,,,,,,,,,,,99999,99999,99999,99999,99999,99999,99999,99999,99999,99999,99999,99999
46:00:49,1510922310,2017-11-17T12:38:33,0.778,2100.0,20.25,17.20,21.70,818.690,2088.190,126.383331,22.56,2.4770,363,23791,1.92759,3.65,32017,,,,,,,,,,,,,,,,,,99999,99999,99999,99999,99999,99999,99999,99999,99999,99999,99999,99999
46:01:19,1510922340,2017-11-17T12:39:03,0.780,2100.4,20.23,17.21,21.68,818.700,2088.130,126.050003,22.48,2.4771,363,23790,1.93304,3.65,32012,,,,,,,,,,,,,,,,,,99999,99999,99999,99999,99999,99999,99999,99999,99999,99999,99999,99999
46:01:49,1510922370,2017-11-17T12:39:33,0.779,2100.8,20.23,17.21,21.64,818.700,2088.130,133.000000,22.51,2.4771,363,23791,1.93062,3.65,32006,,,,,,,,,,,,,,,,,,99999,99999,99999,99999,99999,99999,99999,99999,99999,99999,99999,99999
46:02:19,1510922400,2017-11-17T12:40:03,0.779,2101.2,20.21,17.18,21.67,818.700,2088.030,126.199997,22.63,2.4771,363,23790,1.92941,3.65,32001,,,,,,,,,,,,,,,,,,99999,99999,99999,99999,99999,99999,99999,99999,99999,99999,99999,99999
46:02:49,1510922430,2017-11-17T12:40:33,0.781,2101.6,20.21,17.17,21.64,818.680,2088.030,127.466667,22.82,2.4771,363,23788,1.93547,3.65,31995,,,,,,,,,,,,,,,,,,99999,99999,99999,99999,99999,99999,99999,99999,99999,99999,99999,99999
46:03:19,1510922460,2017-11-17T12:41:03,0.779,2102.0,20.19,17.17,21.60,818.840,2088.030,124.133331,22.69,2.4773,363,23787,1.93001,3.65,31990,,,,,,,,,,,,,,,,,,99999,99999,99999,99999,99999,99999,99999,99999,99999,99999,99999,99999
46:03:49,1510922490,2017-11-17T12:41:33,0.781,2102.4,20.18,17.16,21.62,818.740,2087.900,129.183334,22.84,2.4772,363,23787,1.93547,3.65,31984,,,,,,,,,,,,,,,,,,99999,99999,99999,99999,99999,99999,99999,99999,99999,99999,99999,99999
46:04:19,1510922520,2017-11-17T12:42:03,0.780,2102.8,20.18,17.16,21.64,818.660,2087.900,124.533333,22.90,2.4772,363,23789,1.93213,3.65,31979,,,,,,,,,,,,,,,,,,99999,99999,99999,99999,99999,99999,99999,99999,99999,99999,99999,99999
46:04:49,1510922550,2017-11-17T12:42:33,0.778,2103.1,20.16,17.15,21.62,818.690,2087.860,131.266663,22.91,2.4773,363,23787,1.92759,3.65,31974,,,,,,,,,,,,,,,,,,99999,99999,99999,99999,99999,99999,99999,99999,99999,99999,99999,99999
46:05:19,1510922580,2017-11-17T12:43:03,0.774,2103.5,20.15,17.14,21.62,818.640,2087.860,129.449997,22.95,2.4774,363,23787,1.91821,3.65,31968,,,,,,,,,,,,,,,,,,99999,99999,99999,99999,99999,99999,99999,99999,99999,99999,99999,99999
46:05:49,1510922610,2017-11-17T12:43:33,0.779,2103.9,20.16,17.13,21.58,818.580,2087.860,127.383331,22.95,2.4773,363,23787,1.92910,3.65,31963,,,,,,,,,,,,,,,,,,99999,99999,99999,99999,99999,99999,99999,99999,99999,99999,99999,99999
46:06:19,1510922640,2017-11-17T12:44:03,0.777,2104.3,20.14,17.13,21.60,818.670,2087.790,126.666664,23.10,2.4774,363,23787,1.92547,3.65,31957,,,,,,,,,,,,,,,,,,99999,99999,99999,99999,99999,99999,99999,99999,99999,99999,99999,99999
46:06:49,1510922670,2017-11-17T12:44:33,0.777,2104.7,20.14,17.13,21.59,818.560,2087.790,127.500000,23.13,2.4774,363,23785,1.92395,3.65,31952,,,,,,,,,,,,,,,,,,99999,99999,99999,99999,99999,99999,99999,99999,99999,99999,99999,99999
46:07:19,1510922700,2017-11-17T12:45:03,0.779,2105.1,20.13,17.12,21.60,818.590,2087.730,126.133331,23.07,2.4774,363,23786,1.92910,3.65,31946,,,,,,,,,,,,,,,,,,99999,99999,99999,99999,99999,99999,99999,99999,99999,99999,99999,99999
46:07:49,1510922730,2017-11-17T12:45:33,0.781,2105.5,20.12,17.11,21.59,818.670,2087.730,122.550003,23.11,2.4775,363,23785,1.93487,3.65,31941,,,,,,,,,,,,,,,,,,99999,99999,99999,99999,99999,99999,99999,99999,99999,99999,99999,99999
46:08:19,1510922760,2017-11-17T12:46:03,0.779,2105.9,20.11,17.10,21.56,818.620,2087.730,126.900002,23.15,2.4776,363,23785,1.92941,3.65,31936,,,,,,,,,,,,,,,,,,99999,99999,99999,99999,99999,99999,99999,99999,99999,99999,99999,99999
46:08:49,1510922790,2017-11-17T12:46:33,0.782,2106.2,20.11,17.09,21.59,818.640,2087.730,128.633331,23.13,2.4776,363,23785,1.93638,3.65,31930,,,,,,,,,,,,,,,,,,99999,99999,99999,99999,99999,99999,99999,99999,99999,99999,99999,99999
46:09:19,1510922820,2017-11-17T12:47:03,0.773,2106.6,20.11,17.10,21.56,818.620,2087.730,132.516663,23.24,2.4776,363,23789,1.91640,3.65,31925,,,,,,,,,,,,,,,,,,99999,99999,99999,99999,99999,99999,99999,99999,99999,99999,99999,99999
46:09:49,1510922850,2017-11-17T12:47:33,0.777,2107.0,20.10,17.10,21.56,818.540,2087.670,127.500000,23.23,2.4776,363,23786,1.92456,3.65,31919,,,,,,,,,,,,,,,,,,99999,99999,99999,99999,99999,99999,99999,99999,99999,99999,99999,99999
46:10:19,1510922880,2017-11-17T12:48:03,0.778,2107.4,20.08,17.08,21.54,818.520,2087.610,126.366669,23.23,2.4777,363,23783,1.92729,3.65,31914,,,,,,,,,,,,,,,,,,99999,99999,99999,99999,99999,99999,99999,99999,99999,99999,99999,99999
46:10:49,1510922910,2017-11-17T12:48:33,0.778,2107.8,20.08,17.08,21.54,818.650,2087.610,129.083328,23.30,2.4777,363,23784,1.92850,3.65,31908,,,,,,,,,,,,,,,,,,99999,99999,99999,99999,99999,99999,99999,99999,99999,99999,99999,99999
46:11:19,1510922940,2017-11-17T12:49:03,0.784,2108.2,20.08,17.08,21.52,818.600,2087.610,125.266670,23.37,2.4777,363,23781,1.94277,3.65,31903,,,,,,,,,,,,,,,,,,99999,99999,99999,99999,99999,99999,99999,99999,99999,99999,99999,99999
46:11:49,1510922970,2017-11-17T12:49:33,0.778,2108.6,20.07,17.07,21.54,818.660,2087.610,125.349998,23.35,2.4778,363,23783,1.92789,3.65,31898,,,,,,,,,,,,,,,,,,99999,99999,99999,99999,99999,99999,99999,99999,99999,99999,99999,99999
46:12:19,1510923000,2017-11-17T12:50:03,0.779,2109.0,20.08,17.07,21.54,818.680,2087.610,131.533340,23.25,2.4777,363,23784,1.93062,3.65,31892,,,,,,,,,,,,,,,,,,99999,99999,99999,99999,99999,99999,99999,99999,99999,99999,99999,99999
46:12:49,1510923030,2017-11-17T12:50:33,0.781,2109.4,20.08,17.05,21.54,818.600,2087.610,128.766663,23.34,2.4777,363,23785,1.93396,3.65,31887,,,,,,,,,,,,,,,,,,99999,99999,99999,99999,99999,99999,99999,99999,99999,99999,99999,99999
46:13:19,1510923060,2017-11-17T12:51:03,0.782,2109.7,20.07,17.06,21.54,818.710,2087.610,128.816666,23.49,2.4778,363,23785,1.93790,3.65,31881,,,,,,,,,,,,,,,,,,99999,99999,99999,99999,99999,99999,99999,99999,99999,99999,99999,99999
46:13:49,1510923090,2017-11-17T12:51:33,0.781,2110.1,20.07,17.05,21.58,818.680,2087.610,124.516670,23.43,2.4778,363,23783,1.93608,3.65,31876,,,,,,,,,,,,,,,,,,99999,99999,99999,99999,99999,99999,99999,99999,99999,99999,99999,99999
46:14:19,1510923120,2017-11-17T12:52:03,0.777,2110.5,20.07,17.05,21.54,818.660,2087.610,126.849998,23.50,2.4778,363,23783,1.92486,3.65,31870,,,,,,,,,,,,,,,,,,99999,99999,99999,99999,99999,99999,99999,99999,99999,99999,99999,99999
46:14:49,1510923150,2017-11-17T12:52:33,0.780,2110.9,20.07,17.05,21.52,818.630,2087.610,126.366669,23.42,2.4778,363,23783,1.93213,3.65,31865,,,,,,,,,,,,,,,,,,99999,99999,99999,99999,99999,99999,99999,99999,99999,99999,99999,99999
46:15:19,1510923180,2017-11-17T12:53:03,0.782,2111.3,20.05,17.04,21.51,818.610,2087.440,128.883331,23.47,2.4777,363,23783,1.93638,3.65,31859,,,,,,,,,,,,,,,,,,99999,99999,99999,99999,99999,99999,99999,99999,99999,99999,99999,99999
46:15:49,1510923210,2017-11-17T12:53:33,0.773,2111.7,20.05,17.04,21.51,818.610,2087.440,134.550003,23.55,2.4777,363,23781,1.91428,3.65,31854,,,,,,,,,,,,,,,,,,99999,99999,99999,99999,99999,99999,99999,99999,99999,99999,99999,99999
46:16:19,1510923240,2017-11-17T12:54:03,0.782,2112.1,20.05,17.02,21.54,818.560,2087.440,126.316666,23.67,2.4777,363,23783,1.93699,3.65,31849,,,,,,,,,,,,,,,,,,99999,99999,99999,99999,99999,99999,99999,99999,99999,99999,99999,99999
46:16:49,1510923270,2017-11-17T12:54:33,0.782,2112.5,20.05,17.02,21.52,818.670,2087.440,127.433334,23.89,2.4777,363,23782,1.93669,3.65,31843,,,,,,,,,,,,,,,,,,99999,99999,99999,99999,99999,99999,99999,99999,99999,99999,99999,99999
46:17:19,1510923300,2017-11-17T12:55:03,0.767,2112.8,20.05,17.02,21.49,818.640,2087.440,140.216660,23.63,2.4777,363,23781,1.90163,3.65,31838,,,,,,,,,,,,,,,,,,99999,99999,99999,99999,99999,99999,99999,99999,99999,99999,99999,99999
46:17:49,1510923330,2017-11-17T12:55:33,0.781,2113.2,20.03,17.03,21.48,818.720,2087.380,128.550003,23.66,2.4778,363,23779,1.93426,3.65,31832,,,,,,,,,,,,,,,,,,99999,99999,99999,99999,99999,99999,99999,99999,99999,99999,99999,99999
46:18:19,1510923360,2017-11-17T12:56:03,0.781,2113.6,20.03,17.01,21.48,818.590,2087.380,127.516670,23.70,2.4778,363,23781,1.93517,3.65,31827,,,,,,,,,,,,,,,,,,99999,99999,99999,99999,99999,99999,99999,99999,99999,99999,99999,99999
46:18:49,1510923390,2017-11-17T12:56:33,0.779,2114.0,20.03,16.99,21.51,818.700,2087.380,130.816666,23.82,2.4778,363,23778,1.93032,3.65,31821,,,,,,,,,,,,,,,,,,99999,99999,99999,99999,99999,99999,99999,99999,99999,99999,99999,99999
46:19:19,1510923420,2017-11-17T12:57:03,0.782,2114.4,20.01,16.99,21.46,818.730,2087.340,128.083328,23.98,2.4779,363,23780,1.93730,3.65,31816,,,,,,,,,,,,,,,,,,99999,99999,99999,99999,99999,99999,99999,99999,99999,99999,99999,99999
46:19:49,1510923450,2017-11-17T12:57:33,0.780,2114.8,20.00,16.99,21.48,818.670,2087.310,127.000000,23.99,2.4780,363,23779,1.93213,3.64,31811,,,,,,,,,,,,,,,,,,99999,99999,99999,99999,99999,99999,99999,99999,99999,99999,99999,99999
46:20:19,1510923480,2017-11-17T12:58:03,0.773,2115.2,19.99,16.98,21.49,818.680,2087.270,132.466660,23.88,2.4780,363,23780,1.91610,3.64,31805,,,,,,,,,,,,,,,,,,99999,99999,99999,99999,99999,99999,99999,99999,99999,99999,99999,99999
46:20:49,1510923510,2017-11-17T12:58:33,0.778,2115.6,19.99,16.96,21.46,818.600,2087.270,133.016663,23.89,2.4780,363,23782,1.92729,3.64,31800,,,,,,,,,,,,,,,,,,99999,99999,99999,99999,99999,99999,99999,99999,99999,99999,99999,99999
46:21:19,1510923540,2017-11-17T12:59:03,0.767,2115.9,19.98,16.96,21.46,818.620,2087.270,144.266663,23.90,2.4781,363,23778,1.90043,3.64,31794,,,,,,,,,,,,,,,,,,99999,99999,99999,99999,99999,99999,99999,99999,99999,99999,99999,99999
46:21:49,1510923570,2017-11-17T12:59:33,0.781,2116.3,19.98,16.97,21.46,818.570,2087.270,128.649994,24.04,2.4781,363,23780,1.93578,3.64,31789,,,,,,,,,,,,,,,,,,99999,99999,99999,99999,99999,99999,99999,99999,99999,99999,99999,99999
46:22:19,1510923600,2017-11-17T13:00:03,0.779,2116.7,19.97,16.96,21.43,818.570,2087.210,129.149994,24.10,2.4781,363,23779,1.93123,3.64,31783,,,,,,,,,,,,,,,,,,99999,99999,99999,99999,99999,99999,99999,99999,99999,99999,99999,99999
46:22:49,1510923630,2017-11-17T13:00:33,0.777,2117.1,19.96,16.94,21.41,818.660,2087.150,127.849998,24.04,2.4781,363,23779,1.92577,3.64,31778,,,,,,,,,,,,,,,,,,99999,99999,99999,99999,99999,99999,99999,99999,99999,99999,99999,99999
46:23:19,1510923660,2017-11-17T13:01:03,0.780,2117.5,19.96,16.93,21.44,818.580,2087.150,128.166672,24.40,2.4781,363,23780,1.93213,3.64,31773,,,,,,,,,,,,,,,,,,99999,99999,99999,99999,99999,99999,99999,99999,99999,99999,99999,99999
46:23:49,1510923690,2017-11-17T13:01:33,0.777,2117.9,19.96,16.94,21.43,818.740,2087.150,124.900002,24.12,2.4781,363,23779,1.92668,3.64,31767,,,,,,,,,,,,,,,,,,99999,99999,99999,99999,99999,99999,99999,99999,99999,99999,99999,99999
46:24:19,1510923720,2017-11-17T13:02:03,0.780,2118.3,19.93,16.93,21.40,818.660,2087.090,128.433334,24.11,2.4783,363,23779,1.93274,3.64,31762,,,,,,,,,,,,,,,,,,99999,99999,99999,99999,99999,99999,99999,99999,99999,99999,99999,99999
46:24:49,1510923750,2017-11-17T13:02:33,0.777,2118.7,19.93,16.92,21.38,818.660,2087.090,126.383331,24.13,2.4783,363,23779,1.92517,3.64,31756,,,,,,,,,,,,,,,,,,99999,99999,99999,99999,99999,99999,99999,99999,99999,99999,99999,99999
46:25:19,1510923780,2017-11-17T13:03:03,0.781,2119.1,19.92,16.93,21.40,818.640,2087.090,125.983330,24.27,2.4784,363,23780,1.93547,3.64,31751,,,,,,,,,,,,,,,,,,99999,99999,99999,99999,99999,99999,99999,99999,99999,99999,99999,99999
46:25:49,1510923810,2017-11-17T13:03:33,0.780,2119.4,19.92,16.93,21.40,818.610,2087.090,123.983330,24.16,2.4784,363,23777,1.93274,3.64,31745,,,,,,,,,,,,,,,,,,99999,99999,99999,99999,99999,99999,99999,99999,99999,99999,99999,99999
46:26:19,1510923840,2017-11-17T13:04:03,0.779,2119.8,19.90,16.93,21.40,818.590,2086.980,128.833328,24.28,2.4784,363,23779,1.93183,3.64,31740,,,,,,,,,,,,,,,,,,99999,99999,99999,99999,99999,99999,99999,99999,99999,99999,99999,99999
46:26:49,1510923870,2017-11-17T13:04:33,0.775,2120.2,19.90,16.92,21.36,818.560,2086.980,127.766670,24.28,2.4784,363,23779,1.92063,3.64,31735,,,,,,,,,,,,,,,,,,99999,99999,99999,99999,99999,99999,99999,99999,99999,99999,99999,99999
46:27:19,1510923900,2017-11-17T13:05:03,0.781,2120.6,19.91,16.90,21.38,818.720,2086.980,127.000000,24.29,2.4783,363,23777,1.93638,3.64,31729,,,,,,,,,,,,,,,,,,99999,99999,99999,99999,99999,99999,99999,99999,99999,99999,99999,99999
46:27:49,1510923930,2017-11-17T13:05:33,0.779,2121.0,19.89,16.90,21.36,818.590,2086.920,125.333336,24.34,2.4784,363,23778,1.93001,3.64,31724,,,,,,,,,,,,,,,,,,99999,99999,99999,99999,99999,99999,99999,99999,99999,99999,99999,99999
46:28:19,1510923960,2017-11-17T13:06:03,0.778,2121.4,19.88,16.90,21.40,818.570,2086.860,125.366669,24.38,2.4784,363,23775,1.92819,3.64,31718,,,,,,,,,,,,,,,,,,99999,99999,99999,99999,99999,99999,99999,99999,99999,99999,99999,99999
46:28:49,1510923990,2017-11-17T13:06:33,0.780,2121.8,19.88,16.89,21.34,818.550,2086.860,127.316666,24.46,2.4784,363,23779,1.93426,3.64,31713,,,,,,,,,,,,,,,,,,99999,99999,99999,99999,99999,99999,99999,99999,99999,99999,99999,99999
46:29:19,1510924020,2017-11-17T13:07:03,0.778,2122.2,19.87,16.90,21.36,818.600,2086.860,127.633331,24.51,2.4785,363,23778,1.92910,3.64,31707,,,,,,,,,,,,,,,,,,99999,99999,99999,99999,99999,99999,99999,99999,99999,99999,99999,99999
46:29:49,1510924050,2017-11-17T13:07:33,0.780,2122.5,19.86,16.88,21.34,818.680,2086.810,125.949997,24.49,2.4785,363,23776,1.93396,3.64,31702,,,,,,,,,,,,,,,,,,99999,99999,99999,99999,99999,99999,99999,99999,99999,99999,99999,99999
46:30:19,1510924080,2017-11-17T13:08:03,0.777,2122.9,19.86,16.87,21.36,818.580,2086.810,128.116669,24.58,2.4785,363,23775,1.92607,3.64,31697,,,,,,,,,,,,,,,,,,99999,99999,99999,99999,99999,99999,99999,99999,99999,99999,99999,99999
46:30:49,1510924110,2017-11-17T13:08:33,0.780,2123.3,19.86,16.89,21.32,818.500,2086.810,126.183334,24.65,2.4785,363,23778,1.93304,3.64,31691,,,,,,,,,,,,,,,,,,99999,99999,99999,99999,99999,99999,99999,99999,99999,99999,99999,99999
46:31:19,1510924140,2017-11-17T13:09:03,0.778,2123.7,19.86,16.88,21.33,818.580,2086.810,124.616669,24.62,2.4785,363,23776,1.92880,3.64,31686,,,,,,,,,,,,,,,,,,99999,99999,99999,99999,99999,99999,99999,99999,99999,99999,99999,99999
46:31:49,1510924170,2017-11-17T13:09:33,0.781,2124.1,19.84,16.84,21.33,818.530,2086.750,127.949997,24.70,2.4786,363,23777,1.93456,3.64,31680,,,,,,,,,,,,,,,,,,99999,99999,99999,99999,99999,99999,99999,99999,99999,99999,99999,99999
46:32:19,1510924200,2017-11-17T13:10:03,0.773,2124.5,19.84,16.85,21.32,818.500,2086.750,137.383331,24.60,2.4786,363,23777,1.91519,3.64,31675,,,,,,,,,,,,,,,,,,99999,99999,99999,99999,99999,99999,99999,99999,99999,99999,99999,99999
46:32:49,1510924230,2017-11-17T13:10:33,0.783,2124.9,19.83,16.86,21.32,818.390,2086.750,125.949997,24.69,2.4787,363,23777,1.93973,3.64,31670,,,,,,,,,,,,,,,,,,99999,99999,99999,99999,99999,99999,99999,99999,99999,99999,99999,99999
46:33:19,1510924260,2017-11-17T13:11:03,0.777,2125.3,19.83,16.84,21.26,818.530,2086.750,135.149994,24.60,2.4787,363,23772,1.92547,3.64,31664,,,,,,,,,,,,,,,,,,99999,99999,99999,99999,99999,99999,99999,99999,99999,99999,99999,99999
46:33:49,1510924290,2017-11-17T13:11:33,0.778,2125.7,19.82,16.83,21.28,818.690,2086.690,127.650002,24.77,2.4787,363,23777,1.92910,3.64,31659,,,,,,,,,,,,,,,,,,99999,99999,99999,99999,99999,99999,99999,99999,99999,99999,99999,99999
46:34:19,1510924320,2017-11-17T13:12:03,0.779,2126.0,19.81,16.84,21.30,818.450,2086.690,126.333336,24.81,2.4788,363,23778,1.93123,3.64,31653,,,,,,,,,,,,,,,,,,99999,99999,99999,99999,99999,99999,99999,99999,99999,99999,99999,99999
46:34:49,1510924350,2017-11-17T13:12:33,0.778,2126.4,19.81,16.82,21.26,818.510,2086.690,127.966667,24.86,2.4788,363,23775,1.92819,3.64,31648,,,,,,,,,,,,,,,,,,99999,99999,99999,99999,99999,99999,99999,99999,99999,99999,99999,99999
46:35:19,1510924380,2017-11-17T13:13:03,0.778,2126.8,19.80,16.80,21.28,818.590,2086.630,130.366669,24.76,2.4788,363,23777,1.92941,3.64,31642,,,,,,,,,,,,,,,,,,99999,99999,99999,99999,99999,99999,99999,99999,99999,99999,99999,99999
46:35:49,1510924410,2017-11-17T13:13:33,0.781,2127.2,19.79,16.80,21.26,818.540,2086.630,126.699997,24.75,2.4789,363,23774,1.93517,3.64,31637,,,,,,,,,,,,,,,,,,99999,99999,99999,99999,99999,99999,99999,99999,99999,99999,99999,99999
46:36:19,1510924440,2017-11-17T13:14:03,0.768,2127.6,19.80,16.80,21.26,818.370,2086.630,138.983337,24.70,2.4788,363,23776,1.90404,3.64,31632,,,,,,,,,,,,,,,,,,99999,99999,99999,99999,99999,99999,99999,99999,99999,99999,99999,99999
46:36:49,1510924470,2017-11-17T13:14:33,0.780,2128.0,19.78,16.80,21.25,818.570,2086.520,126.750000,25.06,2.4788,363,23773,1.93274,3.64,31626,,,,,,,,,,,,,,,,,,99999,99999,99999,99999,99999,99999,99999,99999,99999,99999,99999,99999
46:37:19,1510924500,2017-11-17T13:15:03,0.774,2128.4,19.78,16.81,21.30,818.490,2086.520,135.783340,24.78,2.4788,363,23774,1.91791,3.64,31621,,,,,,,,,,,,,,,,,,99999,99999,99999,99999,99999,99999,99999,99999,99999,99999,99999,99999
46:37:49,1510924530,2017-11-17T13:15:33,0.777,2128.8,19.78,16.79,21.24,818.510,2086.520,130.966660,24.93,2.4788,363,23776,1.92486,3.64,31615,,,,,,,,,,,,,,,,,,99999,99999,99999,99999,99999,99999,99999,99999,99999,99999,99999,99999
46:38:19,1510924560,2017-11-17T13:16:03,0.778,2129.1,19.76,16.79,21.26,818.440,2086.460,130.000000,24.97,2.4789,363,23774,1.92971,3.64,31610,,,,,,,,,,,,,,,,,,99999,99999,99999,99999,99999,99999,99999,99999,99999,99999,99999,99999
46:38:49,1510924590,2017-11-17T13:16:33,0.765,2129.5,19.76,16.78,21.24,818.550,2086.460,139.883331,24.95,2.4789,363,23775,1.89563,3.64,31604,,,,,,,,,,,,,,,,,,99999,99999,99999,99999,99999,99999,99999,99999,99999,99999,99999,99999
46:39:19,1510924620,2017-11-17T13:17:03,0.776,2129.9,19.76,16.79,21.25,818.520,2086.460,125.250000,24.93,2.4789,363,23775,1.92426,3.64,31599,,,,,,,,,,,,,,,,,,99999,99999,99999,99999,99999,99999,99999,99999,99999,99999,99999,99999
46:39:49,1510924650,2017-11-17T13:17:33,0.776,2130.3,19.75,16.77,21.22,818.470,2086.460,131.699997,24.78,2.4790,363,23774,1.92486,3.64,31594,,,,,,,,,,,,,,,,,,99999,99999,99999,99999,99999,99999,99999,99999,99999,99999,99999,99999
46:40:19,1510924680,2017-11-17T13:18:03,0.781,2130.7,19.74,16.75,21.20,818.580,2086.390,126.800003,24.96,2.4790,363,23773,1.93487,3.64,31588,,,,,,,,,,,,,,,,,,99999,99999,99999,99999,99999,99999,99999,99999,99999,99999,99999,99999
46:40:49,1510924710,2017-11-17T13:18:33,0.781,2131.1,19.74,16.75,21.26,818.500,2086.390,126.750000,25.03,2.4790,363,23772,1.93547,3.64,31583,,,,,,,,,,,,,,,,,,99999,99999,99999,99999,99999,99999,99999,99999,99999,99999,99999,99999
46:41:19,1510924740,2017-11-17T13:19:03,0.778,2131.5,19.74,16.74,21.25,818.550,2086.390,122.500000,25.00,2.4790,363,23776,1.92819,3.64,31577,,,,,,,,,,,,,,,,,,99999,99999,99999,99999,99999,99999,99999,99999,99999,99999,99999,99999
46:41:49,1510924770,2017-11-17T13:19:33,0.777,2131.9,19.73,16.75,21.20,818.470,2086.390,127.283333,25.01,2.4791,363,23773,1.92577,3.64,31572,,,,,,,,,,,,,,,,,,99999,99999,99999,99999,99999,99999,99999,99999,99999,99999,99999,99999
46:42:19,1510924800,2017-11-17T13:20:03,0.777,2132.2,19.72,16.75,21.18,818.450,2086.340,130.149994,25.02,2.4791,363,23776,1.92638,3.64,31566,,,,,,,,,,,,,,,,,,99999,99999,99999,99999,99999,99999,99999,99999,99999,99999,99999,99999
46:42:49,1510924830,2017-11-17T13:20:33,0.779,2132.6,19.72,16.74,21.24,818.400,2086.340,127.966667,24.92,2.4791,363,23770,1.93213,3.64,31561,,,,,,,,,,,,,,,,,,99999,99999,99999,99999,99999,99999,99999,99999,99999,99999,99999,99999
46:43:19,1510924860,2017-11-17T13:21:03,0.775,2133.0,19.71,16.72,21.18,818.510,2086.270,126.099998,25.00,2.4791,363,23771,1.92033,3.64,31556,,,,,,,,,,,,,,,,,,99999,99999,99999,99999,99999,99999,99999,99999,99999,99999,99999,99999
46:43:49,1510924890,2017-11-17T13:21:33,0.777,2133.4,19.69,16.73,21.18,818.410,2086.270,129.833328,24.66,2.4793,363,23773,1.92638,3.64,31550,,,,,,,,,,,,,,,,,,99999,99999,99999,99999,99999,99999,99999,99999,99999,99999,99999,99999
46:44:19,1510924920,2017-11-17T13:22:03,0.780,2133.8,19.69,16.72,21.17,818.510,2086.270,126.983330,24.79,2.4793,363,23770,1.93335,3.64,31545,,,,,,,,,,,,,,,,,,99999,99999,99999,99999,99999,99999,99999,99999,99999,99999,99999,99999
46:44:49,1510924950,2017-11-17T13:22:33,0.769,2134.2,19.70,16.71,21.18,818.610,2086.270,132.000000,24.92,2.4792,363,23771,1.90675,3.64,31539,,,,,,,,,,,,,,,,,,99999,99999,99999,99999,99999,99999,99999,99999,99999,99999,99999,99999
46:45:19,1510924980,2017-11-17T13:23:03,0.775,2134.6,19.68,16.69,21.16,818.560,2086.230,133.483337,24.66,2.4794,363,23772,1.92123,3.64,31534,,,,,,,,,,,,,,,,,,99999,99999,99999,99999,99999,99999,99999,99999,99999,99999,99999,99999
46:45:49,1510925010,2017-11-17T13:23:33,0.781,2135.0,19.68,16.71,21.16,818.510,2086.230,124.983330,24.83,2.4793,363,23769,1.93669,3.64,31528,,,,,,,,,,,,,,,,,,99999,99999,99999,99999,99999,99999,99999,99999,99999,99999,99999,99999
46:46:19,1510925040,2017-11-17T13:24:03,0.778,2135.4,19.67,16.71,21.16,818.600,2086.230,127.300003,24.80,2.4794,363,23771,1.92789,3.64,31523,,,,,,,,,,,,,,,,,,99999,99999,99999,99999,99999,99999,99999,99999,99999,99999,99999,99999
46:46:49,1510925070,2017-11-17T13:24:33,0.775,2135.7,19.67,16.69,21.17,818.570,2086.230,125.966667,24.70,2.4794,363,23771,1.92153,3.64,31518,,,,,,,,,,,,,,,,,,99999,99999,99999,99999,99999,99999,99999,99999,99999,99999,99999,99999
46:47:19,1510925100,2017-11-17T13:25:03,0.776,2136.1,19.67,16.69,21.16,818.650,2086.230,124.566666,24.77,2.4794,363,23772,1.92517,3.64,31512,,,,,,,,,,,,,,,,,,99999,99999,99999,99999,99999,99999,99999,99999,99999,99999,99999,99999
46:47:49,1510925130,2017-11-17T13:25:33,0.779,2136.5,19.66,16.69,21.14,818.650,2086.170,125.800003,24.91,2.4794,363,23773,1.93244,3.64,31507,,,,,,,,,,,,,,,,,,99999,99999,99999,99999,99999,99999,99999,99999,99999,99999,99999,99999
46:48:19,1510925160,2017-11-17T13:26:03,0.779,2136.9,19.65,16.68,21.17,818.760,2086.040,126.083336,24.95,2.4794,363,23770,1.93092,3.64,31501,,,,,,,,,,,,,,,,,,99999,99999,99999,99999,99999,99999,99999,99999,99999,99999,99999,99999
46:48:49,1510925190,2017-11-17T13:26:33,0.773,2137.3,19.64,16.68,21.17,818.730,2086.040,129.766663,24.95,2.4794,363,23770,1.91761,3.64,31496,,,,,,,,,,,,,,,,,,99999,99999,99999,99999,99999,99999,99999,99999,99999,99999,99999,99999
46:49:19,1510925220,2017-11-17T13:27:03,0.776,2137.7,19.64,16.68,21.12,818.680,2086.040,124.516670,24.99,2.4794,363,23772,1.92517,3.64,31490,,,,,,,,,,,,,,,,,,99999,99999,99999,99999,99999,99999,99999,99999,99999,99999,99999,99999
46:49:49,1510925250,2017-11-17T13:27:33,0.775,2138.1,19.64,16.67,21.09,818.710,2086.040,125.116669,25.05,2.4794,363,23770,1.92123,3.64,31485,,,,,,,,,,,,,,,,,,99999,99999,99999,99999,99999,99999,99999,99999,99999,99999,99999,99999
46:50:19,1510925280,2017-11-17T13:28:03,0.780,2138.5,19.63,16.66,21.14,818.630,2086.000,126.500000,25.08,2.4795,363,23769,1.93365,3.64,31480,,,,,,,,,,,,,,,,,,99999,99999,99999,99999,99999,99999,99999,99999,99999,99999,99999,99999
46:50:49,1510925310,2017-11-17T13:28:33,0.777,2138.8,19.63,16.66,21.10,818.660,2086.000,125.150002,25.10,2.4795,363,23769,1.92607,3.64,31474,,,,,,,,,,,,,,,,,,99999,99999,99999,99999,99999,99999,99999,99999,99999,99999,99999,99999
46:51:19,1510925340,2017-11-17T13:29:03,0.774,2139.2,19.62,16.65,21.10,818.760,2086.000,126.500000,25.02,2.4796,363,23769,1.92002,3.64,31469,,,,,,,,,,,,,,,,,,99999,99999,99999,99999,99999,99999,99999,99999,99999,99999,99999,99999
46:51:49,1510925370,2017-11-17T13:29:33,0.778,2139.6,19.60,16.61,21.08,818.670,2085.940,125.099998,25.01,2.4797,363,23772,1.92850,3.64,31463,,,,,,,,,,,,,,,,,,99999,99999,99999,99999,99999,99999,99999,99999,99999,99999,99999,99999
46:52:19,1510925400,2017-11-17T13:30:03,0.776,2140.0,19.59,16.64,21.06,818.880,2085.870,126.900002,25.08,2.4797,363,23766,1.92365,3.64,31458,,,,,,,,,,,,,,,,,,99999,99999,99999,99999,99999,99999,99999,99999,99999,99999,99999,99999
46:52:49,1510925430,2017-11-17T13:30:33,0.776,2140.4,19.58,16.61,21.04,818.780,2085.870,125.116669,25.08,2.4798,363,23768,1.92486,3.64,31453,,,,,,,,,,,,,,,,,,99999,99999,99999,99999,99999,99999,99999,99999,99999,99999,99999,99999
46:53:19,1510925460,2017-11-17T13:31:03,0.775,2140.8,19.57,16.60,21.06,818.670,2085.810,126.400002,25.11,2.4798,363,23769,1.92305,3.64,31447,,,,,,,,,,,,,,,,,,99999,99999,99999,99999,99999,99999,99999,99999,99999,99999,99999,99999
46:53:49,1510925490,2017-11-17T13:31:33,0.779,2141.2,19.55,16.59,21.04,818.680,2085.750,128.050003,25.17,2.4799,363,23769,1.93092,3.64,31442,,,,,,,,,,,,,,,,,,99999,99999,99999,99999,99999,99999,99999,99999,99999,99999,99999,99999
46:54:19,1510925520,2017-11-17T13:32:03,0.775,2141.6,19.55,16.57,21.02,818.680,2085.750,124.333336,25.01,2.4799,363,23770,1.92123,3.64,31436,,,,,,,,,,,,,,,,,,99999,99999,99999,99999,99999,99999,99999,99999,99999,99999,99999,99999
46:54:49,1510925550,2017-11-17T13:32:33,0.779,2142.0,19.53,16.58,21.06,818.660,2085.710,127.633331,25.12,2.4800,363,23768,1.93183,3.64,31431,,,,,,,,,,,,,,,,,,99999,99999,99999,99999,99999,99999,99999,99999,99999,99999,99999,99999
46:55:19,1510925580,2017-11-17T13:33:03,0.775,2142.3,19.52,16.54,21.01,818.690,2085.710,125.000000,25.21,2.4801,363,23770,1.92153,3.64,31425,,,,,,,,,,,,,,,,,,99999,99999,99999,99999,99999,99999,99999,99999,99999,99999,99999,99999
46:55:49,1510925610,2017-11-17T13:33:33,0.774,2142.7,19.53,16.55,21.00,818.760,2085.710,132.733337,25.24,2.4800,363,23767,1.92063,3.64,31420,,,,,,,,,,,,,,,,,,99999,99999,99999,99999,99999,99999,99999,99999,99999,99999,99999,99999
46:56:19,1510925640,2017-11-17T13:34:03,0.775,2143.1,19.50,16.54,20.98,818.610,2085.580,125.516670,25.20,2.4801,363,23766,1.92275,3.64,31415,,,,,,,,,,,,,,,,,,99999,99999,99999,99999,99999,99999,99999,99999,99999,99999,99999,99999
46:56:49,1510925670,2017-11-17T13:34:33,0.779,2143.5,19.51,16.54,21.00,818.690,2085.580,126.183334,25.19,2.4800,363,23769,1.93274,3.64,31409,,,,,,,,,,,,,,,,,,99999,99999,99999,99999,99999,99999,99999,99999,99999,99999,99999,99999
46:57:19,1510925700,2017-11-17T13:35:03,0.777,2143.9,19.50,16.53,21.00,818.740,2085.580,126.766670,25.24,2.4801,363,23766,1.92789,3.64,31404,,,,,,,,,,,,,,,,,,99999,99999,99999,99999,99999,99999,99999,99999,99999,99999,99999,99999
46:57:49,1510925730,2017-11-17T13:35:33,0.775,2144.3,19.49,16.52,20.98,818.770,2085.520,126.516670,25.14,2.4801,363,23768,1.92123,3.64,31398,,,,,,,,,,,,,,,,,,99999,99999,99999,99999,99999,99999,99999,99999,99999,99999,99999,99999
46:58:19,1510925760,2017-11-17T13:36:03,0.776,2144.7,19.48,16.53,20.94,818.480,2085.520,123.050003,25.21,2.4802,363,23770,1.92486,3.64,31393,,,,,,,,,,,,,,,,,,99999,99999,99999,99999,99999,99999,99999,99999,99999,99999,99999,99999
46:58:49,1510925790,2017-11-17T13:36:33,0.778,2145.1,19.48,16.54,20.98,818.720,2085.520,126.866669,25.25,2.4802,363,23768,1.92850,3.64,31387,,,,,,,,,,,,,,,,,,99999,99999,99999,99999,99999,99999,99999,99999,99999,99999,99999,99999
46:59:19,1510925820,2017-11-17T13:37:03,0.780,2145.4,19.47,16.53,20.96,818.680,2085.420,126.433334,25.03,2.4802,363,23768,1.93426,3.64,31382,,,,,,,,,,,,,,,,,,99999,99999,99999,99999,99999,99999,99999,99999,99999,99999,99999,99999
46:59:49,1510925850,2017-11-17T13:37:33,0.778,2145.8,19.47,16.54,20.94,818.760,2085.420,127.216667,25.32,2.4801,363,23767,1.92910,3.64,31377,,,,,,,,,,,,,,,,,,99999,99999,99999,99999,99999,99999,99999,99999,99999,99999,99999,99999
47:00:19,1510925880,2017-11-17T13:38:03,0.780,2146.2,19.47,16.54,20.94,818.840,2085.420,125.383331,25.42,2.4801,363,23764,1.93396,3.64,31371,,,,,,,,,,,,,,,,,,99999,99999,99999,99999,99999,99999,99999,99999,99999,99999,99999,99999
47:00:49,1510925910,2017-11-17T13:38:33,0.779,2146.6,19.45,16.54,20.94,818.730,2085.420,126.266670,25.40,2.4803,363,23767,1.93274,3.64,31366,,,,,,,,,,,,,,,,,,99999,99999,99999,99999,99999,99999,99999,99999,99999,99999,99999,99999
47:01:19,1510925940,2017-11-17T13:39:03,0.779,2147.0,19.45,16.53,20.91,818.760,2085.420,125.633331,25.44,2.4803,363,23767,1.93335,3.64,31360,,,,,,,,,,,,,,,,,,99999,99999,99999,99999,99999,99999,99999,99999,99999,99999,99999,99999
47:01:49,1510925970,2017-11-17T13:39:33,0.779,2147.4,19.44,16.54,20.91,818.810,2085.350,127.650002,25.42,2.4803,363,23767,1.93244,3.64,31355,,,,,,,,,,,,,,,,,,99999,99999,99999,99999,99999,99999,99999,99999,99999,99999,99999,99999
47:02:19,1510926000,2017-11-17T13:40:03,0.778,2147.8,19.43,16.54,20.93,818.810,2085.350,128.116669,25.55,2.4804,363,23765,1.93062,3.64,31349,,,,,,,,,,,,,,,,,,99999,99999,99999,99999,99999,99999,99999,99999,99999,99999,99999,99999
47:02:49,1510926030,2017-11-17T13:40:33,0.774,2148.2,19.42,16.52,20.91,818.760,2085.290,127.650002,25.68,2.4804,363,23764,1.91972,3.64,31344,,,,,,,,,,,,,,,,,,99999,99999,99999,99999,99999,99999,99999,99999,99999,99999,99999,99999
47:03:19,1510926060,2017-11-17T13:41:03,0.778,2148.6,19.41,16.49,20.85,818.740,2085.290,126.349998,25.66,2.4805,363,23766,1.93062,3.64,31339,,,,,,,,,,,,,,,,,,99999,99999,99999,99999,99999,99999,99999,99999,99999,99999,99999,99999
47:03:49,1510926090,2017-11-17T13:41:33,0.778,2148.9,19.40,16.50,20.88,818.740,2085.250,123.900002,25.51,2.4805,363,23763,1.93032,3.64,31333,,,,,,,,,,,,,,,,,,99999,99999,99999,99999,99999,99999,99999,99999,99999,99999,99999,99999
47:04:19,1510926120,2017-11-17T13:42:03,0.777,2149.3,19.39,16.48,20.88,818.660,2085.230,126.716667,25.38,2.4806,363,23766,1.92759,3.64,31328,,,,,,,,,,,,,,,,,,99999,99999,99999,99999,99999,99999,99999,99999,99999,99999,99999,99999
47:04:49,1510926150,2017-11-17T13:42:33,0.779,2149.7,19.38,16.46,20.85,818.800,2085.120,126.900002,25.47,2.4805,363,23764,1.93244,3.64,31322,,,,,,,,,,,,,,,,,,99999,99999,99999,99999,99999,99999,99999,99999,99999,99999,99999,99999
47:05:19,1510926180,2017-11-17T13:43:03,0.778,2150.1,19.37,16.46,20.86,818.690,2085.120,128.766663,25.48,2.4806,363,23764,1.92941,3.64,31317,,,,,,,,,,,,,,,,,,99999,99999,99999,99999,99999,99999,99999,99999,99999,99999,99999,99999
47:05:49,1510926210,2017-11-17T13:43:33,0.779,2150.5,19.36,16.44,20.88,818.750,2085.060,127.116669,25.67,2.4806,363,23764,1.93213,3.63,31312,,,,,,,,,,,,,,,,,,99999,99999,99999,99999,99999,99999,99999,99999,99999,99999,99999,99999
47:06:19,1510926240,2017-11-17T13:44:03,0.774,2150.9,19.35,16.45,20.82,818.800,2085.060,124.883331,25.56,2.4807,363,23764,1.92093,3.64,31306,,,,,,,,,,,,,,,,,,99999,99999,99999,99999,99999,99999,99999,99999,99999,99999,99999,99999
47:06:49,1510926270,2017-11-17T13:44:33,0.776,2151.3,19.34,16.43,20.83,818.700,2085.000,127.150002,25.82,2.4807,363,23763,1.92426,3.64,31301,,,,,,,,,,,,,,,,,,99999,99999,99999,99999,99999,99999,99999,99999,99999,99999,99999,99999
47:07:19,1510926300,2017-11-17T13:45:03,0.774,2151.7,19.34,16.42,20.80,818.780,2085.000,125.849998,25.56,2.4807,363,23763,1.92063,3.64,31295,,,,,,,,,,,,,,,,,,99999,99999,99999,99999,99999,99999,99999,99999,99999,99999,99999,99999
47:07:49,1510926330,2017-11-17T13:45:33,0.775,2152.0,19.33,16.39,20.80,818.820,2085.000,125.316666,25.68,2.4808,363,23763,1.92365,3.64,31290,,,,,,,,,,,,,,,,,,99999,99999,99999,99999,99999,99999,99999,99999,99999,99999,99999,99999
47:08:19,1510926360,2017-11-17T13:46:03,0.775,2152.4,19.33,16.41,20.78,818.760,2085.000,130.616669,25.59,2.4808,363,23763,1.92365,3.64,31285,,,,,,,,,,,,,,,,,,99999,99999,99999,99999,99999,99999,99999,99999,99999,99999,99999,99999
47:08:49,1510926390,2017-11-17T13:46:33,0.778,2152.8,19.33,16.39,20.76,818.710,2085.000,126.599998,25.59,2.4808,363,23762,1.93062,3.64,31279,,,,,,,,,,,,,,,,,,99999,99999,99999,99999,99999,99999,99999,99999,99999,99999,99999,99999
47:09:19,1510926420,2017-11-17T13:47:03,0.775,2153.2,19.32,16.38,20.78,818.760,2084.950,123.483330,25.69,2.4808,363,23763,1.92365,3.63,31274,,,,,,,,,,,,,,,,,,99999,99999,99999,99999,99999,99999,99999,99999,99999,99999,99999,99999
47:09:49,1510926450,2017-11-17T13:47:33,0.772,2153.6,19.32,16.39,20.78,818.760,2084.950,126.883331,25.78,2.4808,363,23764,1.91549,3.63,31268,,,,,,,,,,,,,,,,,,99999,99999,99999,99999,99999,99999,99999,99999,99999,99999,99999,99999
47:10:19,1510926480,2017-11-17T13:48:03,0.775,2154.0,19.32,16.40,20.75,818.920,2084.950,129.250000,25.71,2.4808,363,23763,1.92275,3.63,31263,,,,,,,,,,,,,,,,,,99999,99999,99999,99999,99999,99999,99999,99999,99999,99999,99999,99999
47:10:49,1510926510,2017-11-17T13:48:33,0.775,2154.4,19.32,16.39,20.75,818.740,2084.950,124.500000,25.71,2.4808,363,23764,1.92153,3.63,31257,,,,,,,,,,,,,,,,,,99999,99999,99999,99999,99999,99999,99999,99999,99999,99999,99999,99999
47:11:19,1510926540,2017-11-17T13:49:03,0.776,2154.8,19.33,16.40,20.78,818.760,2085.000,125.883331,25.83,2.4808,363,23763,1.92577,3.63,31252,,,,,,,,,,,,,,,,,,99999,99999,99999,99999,99999,99999,99999,99999,99999,99999,99999,99999
47:11:49,1510926570,2017-11-17T13:49:33,0.777,2155.2,19.32,16.40,20.82,818.710,2084.950,126.199997,25.93,2.4808,363,23764,1.92880,3.63,31247,,,,,,,,,,,,,,,,,,99999,99999,99999,99999,99999,99999,99999,99999,99999,99999,99999,99999
47:12:19,1510926600,2017-11-17T13:50:03,0.773,2155.5,19.33,16.41,20.80,818.680,2085.000,128.133331,25.71,2.4808,363,23763,1.91821,3.63,31241,,,,,,,,,,,,,,,,,,99999,99999,99999,99999,99999,99999,99999,99999,99999,99999,99999,99999
47:12:49,1510926630,2017-11-17T13:50:33,0.775,2155.9,19.32,16.42,20.78,818.900,2084.950,123.900002,25.91,2.4808,363,23763,1.92335,3.63,31236,,,,,,,,,,,,,,,,,,99999,99999,99999,99999,99999,99999,99999,99999,99999,99999,99999,99999
47:13:19,1510926660,2017-11-17T13:51:03,0.776,2156.3,19.32,16.40,20.76,818.760,2084.950,124.449997,25.70,2.4808,363,23764,1.92577,3.63,31230,,,,,,,,,,,,,,,,,,99999,99999,99999,99999,99999,99999,99999,99999,99999,99999,99999,99999
47:13:49,1510926690,2017-11-17T13:51:33,0.774,2156.7,19.32,16.43,20.76,818.840,2084.950,124.500000,25.69,2.4808,363,23765,1.91972,3.63,31225,,,,,,,,,,,,,,,,,,99999,99999,99999,99999,99999,99999,99999,99999,99999,99999,99999,99999
47:14:19,1510926720,2017-11-17T13:52:03,0.776,2157.1,19.33,16.42,20.78,818.790,2085.000,127.533333,25.97,2.4808,363,23765,1.92607,3.63,31220,,,,,,,,,,,,,,,,,,99999,99999,99999,99999,99999,99999,99999,99999,99999,99999,99999,99999
47:14:49,1510926750,2017-11-17T13:52:33,0.777,2157.5,19.34,16.43,20.78,818.830,2085.000,123.633331,25.75,2.4807,363,23766,1.92638,3.63,31214,,,,,,,,,,,,,,,,,,99999,99999,99999,99999,99999,99999,99999,99999,99999,99999,99999,99999
47:15:19,1510926780,2017-11-17T13:53:03,0.776,2157.9,19.33,16.46,20.83,818.820,2085.000,125.300003,25.87,2.4808,363,23767,1.92577,3.63,31209,,,,,,,,,,,,,,,,,,99999,99999,99999,99999,99999,99999,99999,99999,99999,99999,99999,99999
47:15:49,1510926810,2017-11-17T13:53:33,0.777,2158.3,19.34,16.47,20.78,818.890,2085.000,124.033333,26.10,2.4807,363,23767,1.92668,3.63,31203,,,,,,,,,,,,,,,,,,99999,99999,99999,99999,99999,99999,99999,99999,99999,99999,99999,99999
47:16:19,1510926840,2017-11-17T13:54:03,0.776,2158.6,19.34,16.44,20.80,818.750,2085.000,123.716667,25.91,2.4807,363,23768,1.92577,3.63,31198,,,,,,,,,,,,,,,,,,99999,99999,99999,99999,99999,99999,99999,99999,99999,99999,99999,99999
47:16:49,1510926870,2017-11-17T13:54:33,0.775,2159.0,19.32,16.46,20.78,818.820,2084.950,124.883331,25.87,2.4808,363,23766,1.92153,3.63,31193,,,,,,,,,,,,,,,,,,99999,99999,99999,99999,99999,99999,99999,99999,99999,99999,99999,99999
47:17:19,1510926900,2017-11-17T13:55:03,0.777,2159.4,19.33,16.46,20.80,818.790,2085.000,125.583336,25.93,2.4808,363,23767,1.92729,3.63,31187,,,,,,,,,,,,,,,,,,99999,99999,99999,99999,99999,99999,99999,99999,99999,99999,99999,99999
47:17:49,1510926930,2017-11-17T13:55:33,0.779,2159.8,19.31,16.47,20.80,818.630,2084.950,127.550003,26.01,2.4809,363,23767,1.93274,3.63,31182,,,,,,,,,,,,,,,,,,99999,99999,99999,99999,99999,99999,99999,99999,99999,99999,99999,99999
47:18:19,1510926960,2017-11-17T13:56:03,0.775,2160.2,19.31,16.46,20.76,818.790,2084.950,125.500000,25.87,2.4809,363,23769,1.92365,3.63,31176,,,,,,,,,,,,,,,,,,99999,99999,99999,99999,99999,99999,99999,99999,99999,99999,99999,99999
47:18:49,1510926990,2017-11-17T13:56:33,0.778,2160.6,19.30,16.46,20.78,818.770,2084.890,124.583336,25.98,2.4809,363,23768,1.92941,3.63,31171,,,,,,,,,,,,,,,,,,99999,99999,99999,99999,99999,99999,99999,99999,99999,99999,99999,99999
47:19:19,1510927020,2017-11-17T13:57:03,0.775,2161.0,19.31,16.46,20.75,818.740,2084.950,128.666672,25.76,2.4809,363,23763,1.92335,3.63,31166,,,,,,,,,,,,,,,,,,99999,99999,99999,99999,99999,99999,99999,99999,99999,99999,99999,99999
47:19:49,1510927050,2017-11-17T13:57:33,0.776,2161.4,19.29,16.46,20.75,818.820,2084.890,124.866669,25.94,2.4810,363,23764,1.92607,3.63,31160,,,,,,,,,,,,,,,,,,99999,99999,99999,99999,99999,99999,99999,99999,99999,99999,99999,99999
47:20:19,1510927080,2017-11-17T13:58:03,0.778,2161.7,19.29,16.44,20.76,818.690,2084.890,126.766670,25.98,2.4810,363,23764,1.93092,3.63,31155,,,,,,,,,,,,,,,,,,99999,99999,99999,99999,99999,99999,99999,99999,99999,99999,99999,99999
47:20:49,1510927110,2017-11-17T13:58:33,0.777,2162.1,19.29,16.45,20.75,818.720,2084.890,125.199997,26.09,2.4810,363,23765,1.92668,3.63,31150,,,,,,,,,,,,,,,,,,99999,99999,99999,99999,99999,99999,99999,99999,99999,99999,99999,99999
47:21:19,1510927140,2017-11-17T13:59:03,0.777,2162.5,19.28,16.45,20.74,818.770,2084.830,124.266670,26.11,2.4810,363,23767,1.92668,3.63,31144,,,,,,,,,,,,,,,,,,99999,99999,99999,99999,99999,99999,99999,99999,99999,99999,99999,99999
47:21:49,1510927170,2017-11-17T13:59:33,0.777,2162.9,19.27,16.45,20.74,818.780,2084.830,125.199997,26.18,2.4811,363,23766,1.92699,3.63,31139,,,,,,,,,,,,,,,,,,99999,99999,99999,99999,99999,99999,99999,99999,99999,99999,99999,99999
47:22:19,1510927200,2017-11-17T14:00:03,0.776,2163.3,19.26,16.41,20.75,818.800,2084.770,126.466667,26.08,2.4811,363,23767,1.92426,3.63,31134,,,,,,,,,,,,,,,,,,99999,99999,99999,99999,99999,99999,99999,99999,99999,99999,99999,99999
47:22:49,1510927230,2017-11-17T14:00:33,0.778,2163.7,19.25,16.40,20.72,818.830,2084.670,125.599998,26.18,2.4811,363,23767,1.93001,3.63,31129,,,,,,,,,,,,,,,,,,99999,99999,99999,99999,99999,99999,99999,99999,99999,99999,99999,99999
47:23:19,1510927260,2017-11-17T14:01:03,0.776,2164.1,19.23,16.40,20.74,818.840,2084.600,124.833336,26.21,2.4811,363,23766,1.92547,3.63,31123,,,,,,,,,,,,,,,,,,99999,99999,99999,99999,99999,99999,99999,99999,99999,99999,99999,99999
47:23:49,1510927290,2017-11-17T14:01:33,0.777,2164.5,19.22,16.40,20.72,818.730,2084.540,126.449997,26.04,2.4812,363,23764,1.92880,3.63,31118,,,,,,,,,,,,,,,,,,99999,99999,99999,99999,99999,99999,99999,99999,99999,99999,99999,99999
47:24:19,1510927320,2017-11-17T14:02:03,0.777,2164.9,19.22,16.38,20.67,818.790,2084.540,126.233330,26.18,2.4812,363,23763,1.92759,3.63,31113,,,,,,,,,,,,,,,,,,99999,99999,99999,99999,99999,99999,99999,99999,99999,99999,99999,99999
47:24:49,1510927350,2017-11-17T14:02:33,0.778,2165.2,19.21,16.37,20.68,818.790,2084.540,126.900002,26.33,2.4812,363,23765,1.92941,3.63,31107,,,,,,,,,,,,,,,,,,99999,99999,99999,99999,99999,99999,99999,99999,99999,99999,99999,99999
47:25:19,1510927380,2017-11-17T14:03:03,0.779,2165.6,19.19,16.37,20.68,818.820,2084.470,126.366669,26.27,2.4813,363,23764,1.93244,3.63,31102,,,,,,,,,,,,,,,,,,99999,99999,99999,99999,99999,99999,99999,99999,99999,99999,99999,99999
47:25:49,1510927410,2017-11-17T14:03:33,0.774,2166.0,19.18,16.35,20.67,818.740,2084.470,126.266670,26.41,2.4814,363,23762,1.92093,3.63,31097,,,,,,,,,,,,,,,,,,99999,99999,99999,99999,99999,99999,99999,99999,99999,99999,99999,99999
47:26:19,1510927440,2017-11-17T14:04:03,0.773,2166.4,19.18,16.36,20.66,818.820,2084.470,125.900002,26.26,2.4814,363,23763,1.91700,3.63,31092,,,,,,,,,,,,,,,,,,99999,99999,99999,99999,99999,99999,99999,99999,99999,99999,99999,99999
47:26:49,1510927470,2017-11-17T14:04:33,0.776,2166.8,19.17,16.35,20.64,818.770,2084.430,127.800003,26.33,2.4815,363,23762,1.92607,3.63,31086,,,,,,,,,,,,,,,,,,99999,99999,99999,99999,99999,99999,99999,99999,99999,99999,99999,99999
47:27:19,1510927500,2017-11-17T14:05:03,0.777,2167.2,19.17,16.34,20.66,818.720,2084.430,127.033333,26.37,2.4814,363,23762,1.92880,3.63,31081,,,,,,,,,,,,,,,,,,99999,99999,99999,99999,99999,99999,99999,99999,99999,99999,99999,99999
47:27:49,1510927530,2017-11-17T14:05:33,0.778,2167.6,19.16,16.34,20.60,818.670,2084.430,127.983330,26.45,2.4815,363,23763,1.93123,3.63,31076,,,,,,,,,,,,,,,,,,99999,99999,99999,99999,99999,99999,99999,99999,99999,99999,99999,99999
47:28:19,1510927560,2017-11-17T14:06:03,0.774,2168.0,19.15,16.34,20.64,818.590,2084.370,126.416664,26.62,2.4815,363,23763,1.92063,3.63,31071,,,,,,,,,,,,,,,,,,99999,99999,99999,99999,99999,99999,99999,99999,99999,99999,99999,99999
47:28:49,1510927590,2017-11-17T14:06:33,0.779,2168.3,19.14,16.34,20.67,818.620,2084.370,125.233330,26.50,2.4816,363,23764,1.93213,3.63,31066,,,,,,,,,,,,,,,,,,99999,99999,99999,99999,99999,99999,99999,99999,99999,99999,99999,99999
47:29:19,1510927620,2017-11-17T14:07:03,0.778,2168.7,19.15,16.34,20.66,818.720,2084.370,126.216667,26.70,2.4815,363,23763,1.93092,3.63,31060,,,,,,,,,,,,,,,,,,99999,99999,99999,99999,99999,99999,99999,99999,99999,99999,99999,99999
47:29:49,1510927650,2017-11-17T14:07:33,0.774,2169.1,19.13,16.33,20.60,818.630,2084.310,124.433334,26.66,2.4816,363,23761,1.92033,3.63,31055,,,,,,,,,,,,,,,,,,99999,99999,99999,99999,99999,99999,99999,99999,99999,99999,99999,99999
47:30:19,1510927680,2017-11-17T14:08:03,0.777,2169.5,19.13,16.33,20.62,818.570,2084.310,124.066666,26.57,2.4816,363,23763,1.92819,3.63,31050,,,,,,,,,,,,,,,,,,99999,99999,99999,99999,99999,99999,99999,99999,99999,99999,99999,99999
47:30:49,1510927710,2017-11-17T14:08:33,0.779,2169.9,19.12,16.33,20.62,818.520,2084.310,127.166664,26.35,2.4817,363,23763,1.93213,3.63,31045,,,,,,,,,,,,,,,,,,99999,99999,99999,99999,99999,99999,99999,99999,99999,99999,99999,99999
47:31:19,1510927740,2017-11-17T14:09:03,0.778,2170.3,19.12,16.32,20.62,818.600,2084.310,125.933334,26.58,2.4817,363,23761,1.92971,3.63,31040,,,,,,,,,,,,,,,,,,99999,99999,99999,99999,99999,99999,99999,99999,99999,99999,99999,99999
47:31:49,1510927770,2017-11-17T14:09:33,0.777,2170.7,19.10,16.31,20.59,818.600,2084.200,126.066666,26.63,2.4818,363,23761,1.92941,3.63,31034,,,,,,,,,,,,,,,,,,99999,99999,99999,99999,99999,99999,99999,99999,99999,99999,99999,99999
47:32:19,1510927800,2017-11-17T14:10:03,0.774,2171.1,19.10,16.31,20.62,818.630,2084.200,123.599998,26.57,2.4818,363,23763,1.92153,3.63,31029,,,,,,,,,,,,,,,,,,99999,99999,99999,99999,99999,99999,99999,99999,99999,99999,99999,99999
47:32:49,1510927830,2017-11-17T14:10:33,0.775,2171.5,19.10,16.31,20.58,818.580,2084.200,127.000000,26.72,2.4817,363,23763,1.92365,3.63,31024,,,,,,,,,,,,,,,,,,99999,99999,99999,99999,99999,99999,99999,99999,99999,99999,99999,99999
47:33:19,1510927860,2017-11-17T14:11:03,0.777,2171.8,19.09,16.31,20.58,818.600,2084.140,125.883331,26.71,2.4818,363,23761,1.92789,3.63,31019,,,,,,,,,,,,,,,,,,99999,99999,99999,99999,99999,99999,99999,99999,99999,99999,99999,99999
47:33:49,1510927890,2017-11-17T14:11:33,0.774,2172.2,19.09,16.30,20.59,818.550,2084.140,125.383331,26.67,2.4818,363,23760,1.92063,3.63,31014,,,,,,,,,,,,,,,,,,99999,99999,99999,99999,99999,99999,99999,99999,99999,99999,99999,99999
47:34:19,1510927920,2017-11-17T14:12:03,0.778,2172.6,19.09,16.29,20.56,818.580,2084.140,125.283333,26.73,2.4818,363,23760,1.92971,3.63,31009,,,,,,,,,,,,,,,,,,99999,99999,99999,99999,99999,99999,99999,99999,99999,99999,99999,99999
47:34:49,1510927950,2017-11-17T14:12:33,0.774,2173.0,19.08,16.29,20.56,818.580,2084.140,125.266670,26.77,2.4818,363,23761,1.92002,3.63,31004,,,,,,,,,,,,,,,,,,99999,99999,99999,99999,99999,99999,99999,99999,99999,99999,99999,99999
47:35:19,1510927980,2017-11-17T14:13:03,0.777,2173.4,19.08,16.29,20.59,818.580,2084.140,127.300003,26.73,2.4818,363,23760,1.92880,3.63,30999,,,,,,,,,,,,,,,,,,99999,99999,99999,99999,99999,99999,99999,99999,99999,99999,99999,99999
47:35:49,1510928010,2017-11-17T14:13:33,0.776,2173.8,19.08,16.30,20.54,818.610,2084.140,126.083336,26.63,2.4819,363,23760,1.92486,3.63,30994,,,,,,,,,,,,,,,,,,99999,99999,99999,99999,99999,99999,99999,99999,99999,99999,99999,99999
47:36:19,1510928040,2017-11-17T14:14:03,0.773,2174.2,19.07,16.29,20.56,818.550,2084.080,123.550003,26.77,2.4819,363,23760,1.91912,3.63,30989,,,,,,,,,,,,,,,,,,99999,99999,99999,99999,99999,99999,99999,99999,99999,99999,99999,99999
47:36:49,1510928070,2017-11-17T14:14:33,0.773,2174.6,19.06,16.29,20.56,818.530,2084.020,127.500000,26.59,2.4819,363,23762,1.91912,3.63,30984,,,,,,,,,,,,,,,,,,99999,99999,99999,99999,99999,99999,99999,99999,99999,99999,99999,99999
47:37:19,1510928100,2017-11-17T14:15:03,0.775,2174.9,19.07,16.30,20.54,818.550,2084.080,123.983330,26.73,2.4819,363,23760,1.92335,3.63,30979,,,,,,,,,,,,,,,,,,99999,99999,99999,99999,99999,99999,99999,99999,99999,99999,99999,99999
47:37:49,1510928130,2017-11-17T14:15:33,0.776,2175.3,19.07,16.27,20.58,818.420,2084.080,125.116669,26.77,2.4819,363,23762,1.92486,3.63,30974,,,,,,,,,,,,,,,,,,99999,99999,99999,99999,99999,99999,99999,99999,99999,99999,99999,99999
47:38:19,1510928160,2017-11-17T14:16:03,0.772,2175.7,19.05,16.29,20.56,818.570,2083.970,127.416664,26.57,2.4819,363,23760,1.91610,3.63,30969,,,,,,,,,,,,,,,,,,99999,99999,99999,99999,99999,99999,99999,99999,99999,99999,99999,99999
47:38:49,1510928190,2017-11-17T14:16:33,0.776,2176.1,19.06,16.28,20.52,818.580,2084.020,124.750000,26.78,2.4819,363,23760,1.92547,3.63,30964,,,,,,,,,,,,,,,,,,99999,99999,99999,99999,99999,99999,99999,99999,99999,99999,99999,99999
47:39:19,1510928220,2017-11-17T14:17:03,0.776,2176.5,19.06,16.28,20.56,818.530,2084.020,123.766670,26.58,2.4819,363,23759,1.92638,3.63,30960,,,,,,,,,,,,,,,,,,99999,99999,99999,99999,99999,99999,99999,99999,99999,99999,99999,99999
47:39:49,1510928250,2017-11-17T14:17:33,0.773,2176.9,19.07,16.28,20.56,818.550,2084.080,123.599998,26.55,2.4819,363,23758,1.91912,3.63,30955,,,,,,,,,,,,,,,,,,99999,99999,99999,99999,99999,99999,99999,99999,99999,99999,99999,99999
47:40:19,1510928280,2017-11-17T14:18:03,0.775,2177.3,19.07,16.29,20.58,818.530,2084.080,124.066666,26.74,2.4819,363,23762,1.92426,3.63,30950,,,,,,,,,,,,,,,,,,99999,99999,99999,99999,99999,99999,99999,99999,99999,99999,99999,99999
47:40:49,1510928310,2017-11-17T14:18:33,0.776,2177.7,19.06,16.28,20.56,818.500,2084.020,125.500000,27.30,2.4818,363,23761,1.92607,3.63,30945,,,,,,,,,,,,,,,,,,99999,99999,99999,99999,99999,99999,99999,99999,99999,99999,99999,99999
47:41:19,1510928340,2017-11-17T14:19:03,0.773,2178.0,19.07,16.29,20.58,818.530,2084.080,124.283333,26.81,2.4819,363,23762,1.91851,3.63,30940,,,,,,,,,,,,,,,,,,99999,99999,99999,99999,99999,99999,99999,99999,99999,99999,99999,99999
47:41:49,1510928370,2017-11-17T14:19:33,0.777,2178.4,19.07,16.29,20.56,818.550,2084.080,126.699997,26.69,2.4819,363,23764,1.92729,3.63,30935,,,,,,,,,,,,,,,,,,99999,99999,99999,99999,99999,99999,99999,99999,99999,99999,99999,99999
47:42:19,1510928400,2017-11-17T14:20:03,0.777,2178.8,19.08,16.30,20.58,818.530,2084.140,126.416664,26.68,2.4819,363,23760,1.92789,3.64,30931,,,,,,,,,,,,,,,,,,99999,99999,99999,99999,99999,99999,99999,99999,99999,99999,99999,99999
47:42:49,1510928430,2017-11-17T14:20:33,0.774,2179.2,19.08,16.30,20.59,818.550,2084.140,123.616669,26.69,2.4818,363,23763,1.91972,3.64,30926,,,,,,,,,,,,,,,,,,99999,99999,99999,99999,99999,99999,99999,99999,99999,99999,99999,99999
47:43:19,1510928460,2017-11-17T14:21:03,0.777,2179.6,19.08,16.29,20.60,818.630,2084.140,125.016670,26.72,2.4818,363,23761,1.92729,3.63,30922,,,,,,,,,,,,,,,,,,99999,99999,99999,99999,99999,99999,99999,99999,99999,99999,99999,99999
47:43:49,1510928490,2017-11-17T14:21:33,0.774,2180.0,19.09,16.31,20.58,818.660,2084.140,122.650002,26.75,2.4818,363,23761,1.92184,3.63,30916,,,,,,,,,,,,,,,,,,99999,99999,99999,99999,99999,99999,99999,99999,99999,99999,99999,99999
47:44:19,1510928520,2017-11-17T14:22:03,0.772,2180.4,19.09,16.34,20.58,818.600,2084.140,125.150002,26.70,2.4818,363,23763,1.91489,3.63,30911,,,,,,,,,,,,,,,,,,99999,99999,99999,99999,99999,99999,99999,99999,99999,99999,99999,99999
47:44:49,1510928550,2017-11-17T14:22:33,0.777,2180.8,19.09,16.35,20.62,818.600,2084.140,124.833336,26.71,2.4818,363,23761,1.92880,3.63,30905,,,,,,,,,,,,,,,,,,99999,99999,99999,99999,99999,99999,99999,99999,99999,99999,99999,99999
47:45:19,1510928580,2017-11-17T14:23:04,0.775,2181.2,19.11,16.36,20.60,818.650,2084.200,123.766670,26.75,2.4817,363,23766,1.92395,3.63,30900,10.296931,85.147802,120.236477,0.988650,1.447598,0.561058,3.469842,1.890729,-53.823837,0.007456,0.002569,0.002050,0.002131,0.515838,0.786948,-0.113765,-0.197073,99999,99999,99999,99999,99999,99999,99999,99999,99999,99999,99999,99999
47:45:49,1510928610,2017-11-17T14:23:34,0.776,2181.5,19.12,16.39,20.64,818.650,2084.310,124.349998,26.68,2.4816,363,23765,1.92577,3.63,30894,10.166340,85.067580,120.321861,0.988650,0.799563,0.653435,16.894581,-2.105371,-53.823837,0.009525,0.003669,0.002063,0.002144,0.489716,0.650758,-0.113765,-0.197073,99999,99999,99999,99999,99999,99999,99999,99999,99999,99999,99999,99999
47:46:19,1510928640,2017-11-17T14:24:04,0.775,2181.9,19.14,16.42,20.66,818.730,2084.370,127.300003,26.76,2.4816,363,23769,1.92275,3.63,30889,10.038807,84.987397,120.407311,0.988650,0.825316,0.718887,7.640445,1.169771,-53.823837,0.012881,0.005631,0.002069,0.002163,0.458308,0.573075,-0.113775,-0.197093,99999,99999,99999,99999,99999,99999,99999,99999,99999,99999,99999,99999
47:46:49,1510928670,2017-11-17T14:24:34,0.776,2182.3,19.15,16.45,20.66,818.700,2084.430,124.933334,26.73,2.4815,363,23770,1.92517,3.68,30890,9.914232,84.907252,120.492849,0.988650,0.821291,0.725718,0.773932,-5.361753,-53.823837,0.014588,0.006944,0.002069,0.002163,0.449213,0.547753,-0.113771,-0.197085,99999,99999,99999,99999,99999,99999,99999,99999,99999,99999,99999,99999
47:47:19,1510928700,2017-11-17T14:25:04,0.776,2182.7,19.17,16.50,20.70,818.670,2084.430,129.783340,26.48,2.4814,363,23772,1.92577,3.69,30890,9.792521,84.827144,120.578456,0.988650,0.815336,0.727209,4.374745,-7.331022,-53.823837,0.016481,0.007338,0.002081,0.002175,0.440371,0.546888,-0.113767,-0.197078,99999,99999,99999,99999,99999,99999,99999,99999,99999,99999,99999,99999
47:47:49,1510928730,2017-11-17T14:25:34,0.779,2183.1,19.20,16.55,20.72,818.790,2084.540,125.583336,26.64,2.4813,363,23773,1.93304,3.69,30892,9.673559,84.747058,120.664151,0.988650,0.810336,0.727220,11.200472,4.465279,-53.823837,0.017375,0.007981,0.002075,0.002163,0.439644,0.541838,-0.113782,-0.197107,99999,99999,99999,99999,99999,99999,99999,99999,99999,99999,99999,99999
47:48:19,1510928760,2017-11-17T14:26:04,0.777,2183.5,19.25,16.61,20.76,818.830,2084.670,126.333336,26.14,2.4811,363,23776,1.92668,3.69,30893,9.557286,84.667009,120.749948,0.988650,0.805219,0.729491,2.076606,2.282542,-53.823837,0.017519,0.007769,0.002075,0.002175,0.444156,0.552922,-0.113787,-0.197117,99999,99999,99999,99999,99999,99999,99999,99999,99999,99999,99999,99999
47:48:49,1510928790,2017-11-17T14:26:34,0.775,2183.9,19.28,16.68,20.83,818.770,2084.830,123.383331,26.20,2.4810,363,23778,1.92305,3.69,30895,9.443638,84.587012,120.835811,0.988650,0.802912,0.729008,-0.972944,-4.455060,-53.823837,0.018738,0.008594,0.002075,0.002181,0.441523,0.545361,-0.113780,-0.197102,99999,99999,99999,99999,99999,99999,99999,99999,99999,99999,99999,99999
47:49:19,1510928820,2017-11-17T14:27:04,0.778,2184.3,19.33,16.72,20.86,818.790,2085.000,125.283333,26.17,2.4808,363,23781,1.93092,3.69,30896,9.332517,84.507056,120.921754,0.988650,0.800284,0.728712,49.712376,-21.777609,-53.823837,0.023294,0.012913,0.002081,0.002163,0.420785,0.496742,-0.113782,-0.197107,99999,99999,99999,99999,99999,99999,99999,99999,99999,99999,99999,99999
47:49:49,1510928850,2017-11-17T14:27:34,0.777,2184.6,19.37,16.79,20.96,818.670,2085.120,126.949997,26.47,2.4805,363,23782,1.92729,3.69,30898,9.223868,84.427157,121.007778,0.988650,0.800463,0.728576,4.058667,-5.982296,-53.823837,0.036856,0.026819,0.003744,0.002188,0.371963,0.412624,0.630045,-0.197078,99999,99999,99999,99999,99999,99999,99999,99999,99999,99999,99999,99999
47:50:19,1510928880,2017-11-17T14:28:04,0.776,2185.0,19.43,16.85,21.00,818.710,2085.350,127.183334,26.16,2.4803,363,23783,1.92456,3.69,30900,9.117584,84.347291,121.093870,0.988650,0.797977,0.728699,26.218596,-13.943732,-53.823837,0.064925,0.057231,0.009800,0.002188,0.311305,0.329602,0.461004,-0.197088,99999,99999,99999,99999,99999,99999,99999,99999,99999,99999,99999,99999
47:50:49,1510928910,2017-11-17T14:28:34,0.780,2185.4,19.50,16.88,21.10,818.660,2085.520,125.849998,25.99,2.4801,363,23785,1.93517,3.69,30901,9.013623,84.267480,121.180072,0.988650,0.797949,0.728902,-1.318321,-3.392780,-53.823837,0.109831,0.107650,0.022419,0.005594,0.255101,0.261720,0.358628,0.431748,99999,99999,99999,99999,99999,99999,99999,99999,99999,99999,99999,99999
47:51:19,1510928940,2017-11-17T14:29:04,0.776,2185.8,19.55,16.95,21.18,818.600,2085.750,127.083336,25.91,2.4798,363,23789,1.92426,3.69,30903,8.911908,84.187720,121.266344,0.988649,0.795577,0.728628,4.760196,-4.678657,-53.823837,0.171981,0.180075,0.043163,0.013069,0.206994,0.206526,0.284661,0.307184,99999,99999,99999,99999,99999,99999,99999,99999,99999,99999,99999,99999
47:51:49,1510928970,2017-11-17T14:29:34,0.779,2186.2,19.63,17.01,21.24,818.680,2086.000,130.216660,25.70,2.4794,363,23787,1.93092,3.69,30905,8.812378,84.108015,121.352668,0.988649,0.795020,0.729622,32.103653,-23.080416,-53.823837,0.247331,0.271588,0.073394,0.024044,0.167785,0.162246,0.226368,0.233388,99999,99999,99999,99999,99999,99999,99999,99999,99999,99999,99999,99999
47:52:19,1510929000,2017-11-17T14:30:04,0.779,2186.6,19.69,17.05,21.32,818.620,2086.270,128.250000,25.68,2.4792,363,23787,1.93213,3.69,30906,8.714940,84.028343,121.439101,0.988649,0.795342,0.729368,14.121357,5.038834,-53.823837,0.337956,0.384338,0.114313,0.038713,0.133699,0.124434,0.178043,0.179160,99999,99999,99999,99999,99999,99999,99999,99999,99999,99999,99999,99999
47:52:49,1510929030,2017-11-17T14:30:34,0.782,2187.0,19.76,17.11,21.41,818.600,2086.460,127.650002,25.70,2.4788,363,23794,1.93851,3.69,30908,8.619546,83.948713,121.525604,0.988649,0.795753,0.729470,0.877105,0.130273,-53.823837,0.442269,0.516800,0.165994,0.057600,0.103928,0.091773,0.137277,0.134905,99999,99999,99999,99999,99999,99999,99999,99999,99999,99999,99999,99999
47:53:19,1510929060,2017-11-17T14:31:04,0.779,2187.4,19.85,17.17,21.48,818.680,2086.810,127.566666,25.79,2.4785,363,23793,1.93001,3.69,30910,8.526113,83.869107,121.612200,0.988649,0.794138,0.727560,16.282518,6.532153,-53.823837,0.550025,0.652263,0.224088,0.078769,0.079512,0.065852,0.104405,0.100539,99999,99999,99999,99999,99999,99999,99999,99999,99999,99999,99999,99999
47:53:49,1510929090,2017-11-17T14:31:34,0.779,2187.8,19.93,17.23,21.59,818.690,2087.090,127.183334,25.92,2.4781,363,23798,1.92941,3.69,30912,8.434654,83.789584,121.698909,0.988649,0.794372,0.728281,5.430012,-2.709185,-53.823837,0.659356,0.791138,0.288300,0.102781,0.058936,0.044091,0.076629,0.071405,99999,99999,99999,99999,99999,99999,99999,99999,99999,99999,99999,99999
47:54:19,1510929120,2017-11-17T14:32:04,0.779,2188.1,20.00,17.27,21.70,818.700,2087.310,127.849998,25.50,2.4778,363,23798,1.92941,3.69,30914,8.345079,83.710117,121.785676,0.988649,0.793872,0.728815,19.582630,-32.003746,-53.823837,0.766069,0.914381,0.352425,0.126875,0.041672,0.027646,0.054434,0.048540,99999,99999,99999,99999,99999,99999,99999,99999,99999,99999,99999,99999
47:54:49,1510929150,2017-11-17T14:32:34,0.782,2188.5,20.08,17.34,21.78,818.650,2087.610,128.483337,25.32,2.4775,363,23798,1.93699,3.70,30916,8.257326,83.630696,121.872537,0.988649,0.793872,0.727734,10.707112,-0.324559,-53.823837,0.866463,1.013487,0.413019,0.150056,0.027295,0.015922,0.036900,0.030503,99999,99999,99999,99999,99999,99999,99999,99999,99999,99999,99999,99999
47:55:19,1510929180,2017-11-17T14:33:04,0.782,2188.9,20.15,17.39,21.84,818.580,2087.860,128.750000,25.26,2.4772,363,23800,1.93669,3.69,30918,8.171379,83.551358,121.959453,0.988649,0.793782,0.727873,3.219669,-34.578125,-53.823837,0.915438,1.050875,0.448681,0.164794,0.020970,0.012117,0.028304,0.021282,99999,99999,99999,99999,99999,99999,99999,99999,99999,99999,99999,99999
47:55:49,1510929210,2017-11-17T14:33:34,0.782,2189.3,20.22,17.45,21.92,818.400,2088.130,124.849998,25.14,2.4768,363,23805,1.93608,3.69,30920,8.087155,83.472071,122.046487,0.988649,0.794341,0.726818,20.633736,-0.640721,-53.823837,0.915819,1.034513,0.458613,0.169619,0.021271,0.014657,0.027085,0.019982,99999,99999,99999,99999,99999,99999,99999,99999,99999,99999,99999,99999
47:56:19,1510929240,2017-11-17T14:34:04,0.785,2189.7,20.30,17.48,21.98,818.580,2088.320,127.983330,25.06,2.4765,363,23803,1.94429,3.69,30921,8.004556,83.392787,122.133585,0.988649,0.793840,0.726569,63.303154,-42.925987,-53.823837,0.965013,1.076044,0.489719,0.181763,0.015066,0.010332,0.020279,0.013427,99999,99999,99999,99999,99999,99999,99999,99999,99999,99999,99999,99999
47:56:49,1510929270,2017-11-17T14:34:34,0.786,2190.1,20.36,17.53,22.09,818.610,2088.610,128.300003,25.29,2.4763,363,23807,1.94612,3.70,30923,7.923599,83.313567,122.220791,0.988649,0.794310,0.727010,0.987116,-5.100960,-53.823837,0.985575,1.094294,0.504613,0.187631,0.012682,0.008763,0.017846,0.011511,99999,99999,99999,99999,99999,99999,99999,99999,99999,99999,99999,99999
47:57:19,1510929300,2017-11-17T14:35:04,0.783,2190.5,20.44,17.57,22.16,818.650,2088.840,127.433334,25.16,2.4759,363,23806,1.93973,3.69,30925,7.844244,83.234415,122.308082,0.988649,0.795105,0.725662,1.767396,-9.205969,-53.823837,0.955400,1.062631,0.492044,0.184013,0.016911,0.013050,0.022403,0.016124,99999,99999,99999,99999,99999,99999,99999,99999,99999,99999,99999,99999
47:57:49,1510929330,2017-11-17T14:35:34,0.782,2190.9,20.50,17.62,22.25,818.580,2089.070,128.250000,24.92,2.4756,363,23806,1.93669,3.69,30927,7.766452,83.155339,122.395435,0.988649,0.795134,0.726208,2.094085,-2.454464,-53.823837,0.931419,1.042113,0.488006,0.184094,0.020489,0.016145,0.024841,0.018219,99999,99999,99999,99999,99999,99999,99999,99999,99999,99999,99999,99999
47:58:19,1510929360,2017-11-17T14:36:04,0.781,2191.3,20.56,17.64,22.34,818.590,2089.230,127.849998,24.46,2.4754,363,23810,1.93396,3.70,30929,7.690153,83.076309,122.482890,0.988648,0.795606,0.726396,4.503762,-5.379008,-53.823837,0.986906,1.097531,0.516506,0.196731,0.013275,0.009993,0.018801,0.011616,99999,99999,99999,99999,99999,99999,99999,99999,99999,99999,99999,99999
47:58:49,1510929390,2017-11-17T14:36:34,0.782,2191.7,20.63,17.69,22.40,818.540,2089.470,127.933334,24.42,2.4751,363,23810,1.93487,3.70,30932,7.615319,82.997338,122.570429,0.988648,0.794663,0.726492,3.058411,-11.829212,-53.823837,0.991975,1.101781,0.527338,0.202269,0.012856,0.010022,0.017373,0.009991,99999,99999,99999,99999,99999,99999,99999,99999,99999,99999,99999,99999
47:59:19,1510929420,2017-11-17T14:37:04,0.783,2192.0,20.70,17.74,22.46,818.550,2089.760,129.466660,24.59,2.4748,363,23814,1.93699,3.70,30934,7.541886,82.918401,122.658055,0.988648,0.794868,0.725873,11.326748,-17.984159,-53.823837,0.945569,1.048869,0.512650,0.200300,0.019472,0.017091,0.022410,0.013317,99999,99999,99999,99999,99999,99999,99999,99999,99999,99999,99999,99999
47:59:49,1510929450,2017-11-17T14:37:34,0.787,2192.4,20.75,17.81,22.52,818.540,2089.950,129.300003,24.30,2.4746,363,23815,1.94733,3.70,30937,7.469830,82.839512,122.745778,0.988648,0.794278,0.725530,25.534687,-1.210971,-53.823837,0.877025,0.972850,0.485069,0.192863,0.029881,0.027779,0.031162,0.020472,99999,99999,99999,99999,99999,99999,99999,99999,99999,99999,99999,99999
48:00:19,1510929480,2017-11-17T14:38:04,0.784,2192.8,20.83,17.86,22.59,818.500,2090.180,127.633331,24.01,2.4742,363,23817,1.93912,3.70,30939,7.399172,82.760734,122.833566,0.988648,0.793924,0.725426,5.414330,-2.567400,-53.823837,0.802163,0.892438,0.454125,0.183225,0.042378,0.040158,0.041502,0.029571,99999,99999,99999,99999,99999,99999,99999,99999,99999,99999,99999,99999
48:00:49,1510929510,2017-11-17T14:38:34,0.785,2193.2,20.89,17.93,22.68,818.560,2090.400,127.316666,24.03,2.4740,363,23818,1.94246,3.70,30942,7.329815,82.682001,122.921452,0.988648,0.794337,0.724486,4.945571,-3.622612,-53.823837,0.719769,0.801406,0.416069,0.169863,0.057728,0.055674,0.054967,0.042166,99999,99999,99999,99999,99999,99999,99999,99999,99999,99999,99999,99999
48:01:19,1510929540,2017-11-17T14:39:04,0.784,2193.6,20.96,17.97,22.74,818.570,2090.630,128.433334,24.32,2.4736,363,23822,1.93821,3.70,30944,7.261755,82.603347,123.009409,0.988648,0.794749,0.725140,33.686394,-3.002742,-53.823837,0.622612,0.692231,0.369781,0.151988,0.078424,0.076839,0.072882,0.059935,99999,99999,99999,99999,99999,99999,99999,99999,99999,99999,99999,99999
48:01:49,1510929570,2017-11-17T14:39:34,0.785,2194.0,21.02,18.00,22.83,818.580,2090.870,127.866669,24.24,2.4734,363,23821,1.94125,3.70,30946,7.194946,82.524757,123.097438,0.988648,0.794602,0.724982,6.012335,-5.570861,-53.823837,0.505856,0.556369,0.307581,0.127713,0.108249,0.108443,0.100383,0.086902,99999,99999,99999,99999,99999,99999,99999,99999,99999,99999,99999,99999
48:02:19,1510929600,2017-11-17T14:40:04,0.792,2194.4,21.10,18.06,22.90,818.690,2091.100,126.883331,24.17,2.4731,363,23822,1.95770,3.70,30948,7.129334,82.446208,123.185590,0.988648,0.794749,0.724054,29.477221,-21.915852,-53.823837,0.426512,0.457625,0.265169,0.110556,0.133408,0.137373,0.123318,0.110114,99999,99999,99999,99999,99999,99999,99999,99999,99999,99999,99999,99999
48:02:49,1510929630,2017-11-17T14:40:34,0.790,2194.8,21.14,18.08,22.96,818.580,2091.350,129.600006,23.77,2.4730,363,23822,1.95374,3.70,30950,7.064904,82.367716,123.273859,0.988648,0.794867,0.724161,17.806286,-17.828339,-53.823837,0.359375,0.367519,0.225413,0.094181,0.159125,0.170245,0.148699,0.136145,99999,99999,99999,99999,99999,99999,99999,99999,99999,99999,99999,99999
48:03:19,1510929660,2017-11-17T14:41:04,0.786,2195.2,21.21,18.13,23.00,818.570,2091.510,129.516663,23.84,2.4726,363,23825,1.94246,3.70,30952,7.001641,82.289300,123.362216,0.988648,0.795724,0.723937,3.239050,0.003151,-53.823837,0.283081,0.268156,0.178444,0.074606,0.195002,0.217530,0.184823,0.173355,99999,99999,99999,99999,99999,99999,99999,99999,99999,99999,99999,99999
48:03:49,1510929690,2017-11-17T14:41:34,0.789,2195.6,21.27,18.16,23.08,818.600,2091.740,132.316666,23.50,2.4724,363,23829,1.95038,3.70,30955,6.939512,82.210958,123.450636,0.988648,0.794512,0.724576,2.097860,-5.162587,-53.823837,0.204356,0.179600,0.131019,0.055088,0.244264,0.278238,0.232678,0.221967,99999,99999,99999,99999,99999,99999,99999,99999,99999,99999,99999,99999
48:04:19,1510929720,2017-11-17T14:42:04,0.788,2196.0,21.33,18.22,23.17,818.610,2091.930,129.283340,23.54,2.4721,363,23829,1.94764,3.70,30958,6.878492,82.132693,123.539140,0.988648,0.795428,0.723342,1.292222,-4.665023,-53.823837,0.125612,0.098213,0.082538,0.034794,0.318313,0.370388,0.304428,0.296139,99999,99999,99999,99999,99999,99999,99999,99999,99999,99999,99999,99999
48:04:49,1510929750,2017-11-17T14:42:34,0.787,2196.4,21.39,18.27,23.22,818.520,2092.220,129.466660,23.39,2.4719,363,23831,1.94459,3.70,30961,6.818541,82.054490,123.627763,0.988648,0.795280,0.722917,10.234432,-12.976227,-53.823837,0.068463,0.047163,0.045406,0.018600,0.412484,0.485388,0.399160,0.401451,99999,99999,99999,99999,99999,99999,99999,99999,99999,99999,99999,99999
48:05:19,1510929780,2017-11-17T14:43:04,0.790,2196.8,21.45,18.32,23.30,818.580,2092.390,130.050003,23.62,2.4715,363,23832,1.95160,3.71,30963,6.759627,81.976341,123.716461,0.988647,0.796492,0.722241,37.450977,-32.206764,-53.823837,0.034769,0.020663,0.020950,0.007631,0.521379,0.621917,0.527344,0.571056,99999,99999,99999,99999,99999,99999,99999,99999,99999,99999,99999,99999
48:05:49,1510929810,2017-11-17T14:43:34,0.787,2197.2,21.51,18.37,23.34,818.540,2092.620,129.149994,23.57,2.4713,363,23833,1.94581,3.71,30966,6.701740,81.898268,123.805229,0.988647,0.795842,0.722654,12.392827,-14.476276,-53.823837,0.021888,0.011644,0.008644,0.002250,0.601253,0.728093,0.693024,-0.197047,99999,99999,99999,99999,99999,99999,99999,99999,99999,99999,99999,99999
48:06:19,1510929840,2017-11-17T14:44:04,0.787,2197.6,21.56,18.43,23.40,818.610,2092.740,128.983337,23.26,2.4711,363,23832,1.94581,3.71,30969,6.644841,81.820252,123.894088,0.988647,0.796345,0.723147,3.595945,-23.036491,-53.823837,0.018606,0.009431,0.004169,0.002181,0.634023,0.775124,0.881064,-0.197064,99999,99999,99999,99999,99999,99999,99999,99999,99999,99999,99999,99999
48:06:49,1510929870,2017-11-17T14:44:34,0.788,2198.0,21.62,18.49,23.46,818.570,2092.970,129.716660,23.02,2.4709,363,23837,1.94825,3.71,30973,6.588927,81.742322,123.983037,0.988647,0.796729,0.722722,22.439499,10.892455,-53.823837,0.017900,0.008494,0.003306,0.002181,0.646211,0.803311,0.980110,-0.197054,99999,99999,99999,99999,99999,99999,99999,99999,99999,99999,99999,99999
48:07:19,1510929900,2017-11-17T14:45:04,0.788,2198.4,21.68,18.55,23.52,818.610,2093.210,130.649994,22.67,2.4707,363,23838,1.94794,3.71,30976,6.533965,81.664466,124.072087,0.988647,0.796907,0.722363,3.674140,-18.820616,-53.823837,0.017650,0.007981,0.003063,0.002175,0.654217,0.823549,1.029460,-0.197064,99999,99999,99999,99999,99999,99999,99999,99999,99999,99999,99999,99999
48:07:49,1510929930,2017-11-17T14:45:34,0.786,2198.8,21.73,18.58,23.62,818.570,2093.330,131.050003,22.84,2.4704,363,23840,1.94246,3.71,30979,6.479924,81.586671,124.161243,0.988647,0.797972,0.721552,1.824740,-3.037724,-53.823837,0.017438,0.007569,0.002888,0.002175,0.661923,0.842316,1.076432,-0.197054,99999,99999,99999,99999,99999,99999,99999,99999,99999,99999,99999,99999
48:08:19,1510929960,2017-11-17T14:46:04,0.793,2199.2,21.79,18.64,23.67,818.550,2093.560,131.383331,23.13,2.4702,363,23843,1.95770,3.71,30982,6.426788,81.508948,124.250483,0.988647,0.797292,0.721672,17.959736,-18.071424,-53.823837,0.017094,0.006944,0.002731,0.002175,0.671063,0.869099,1.130024,-0.197049,99999,99999,99999,99999,99999,99999,99999,99999,99999,99999,99999,99999
48:08:49,1510929990,2017-11-17T14:46:34,0.787,2199.6,21.84,18.68,23.73,818.440,2093.730,132.716660,22.60,2.4699,363,23842,1.94459,3.71,30985,6.374546,81.431309,124.339812,0.988647,0.797025,0.721938,1.148399,-17.160767,-53.823837,0.017038,0.006869,0.002650,0.002181,0.677263,0.879117,1.169240,-0.197023,99999,99999,99999,99999,99999,99999,99999,99999,99999,99999,99999,99999
48:09:19,1510930020,2017-11-17T14:47:04,0.788,2200.0,21.89,18.74,23.76,818.560,2093.910,130.683334,22.32,2.4698,363,23844,1.94551,3.71,30989,6.323145,81.353710,124.429251,0.988647,0.797262,0.720834,22.661856,-23.426098,-53.823837,0.016613,0.006394,0.002456,0.002169,0.687482,0.903783,1.284409,-0.197052,99999,99999,99999,99999,99999,99999,99999,99999,99999,99999,99999,99999
48:09:49,1510930050,2017-11-17T14:47:34,0.789,2200.3,21.93,18.79,23.82,818.470,2094.080,130.550003,22.68,2.4696,363,23849,1.94794,3.71,30992,6.272607,81.276214,124.518764,0.988647,0.797795,0.721087,3.316231,-0.479632,-53.823837,0.016275,0.006025,0.002325,0.002188,0.696915,0.926284,1.456958,-0.197030,99999,99999,99999,99999,99999,99999,99999,99999,99999,99999,99999,99999
48:10:19,1510930080,2017-11-17T14:48:05,0.789,2200.7,21.98,18.84,23.86,818.590,2094.210,130.433334,22.69,2.4693,363,23849,1.94855,3.71,30995,6.221235,81.196187,124.611366,0.988647,0.797561,0.721014,13.901278,11.113539,-53.823837,0.015663,0.005606,0.002181,0.002169,0.709950,0.953194,-0.113758,-0.197059,99999,99999,99999,99999,99999,99999,99999,99999,99999,99999,99999,99999
48:10:49,1510930110,2017-11-17T14:48:36,0.794,2201.1,22.03,18.90,23.88,818.580,2094.380,131.266663,22.67,2.4691,363,23850,1.96168,3.71,30999,6.170729,81.116251,124.704070,0.988647,0.797383,0.721628,11.731770,-15.455780,-53.823837,0.015762,0.005500,0.002181,0.002188,0.714661,0.966573,-0.113757,-0.197057,99999,99999,99999,99999,99999,99999,99999,99999,99999,99999,99999,99999
48:11:19,1510930140,2017-11-17T14:49:06,0.793,2201.5,22.10,18.95,23.96,818.640,2094.610,131.600006,22.51,2.4689,363,23850,1.95709,3.71,31002,6.122646,81.038960,124.793885,0.988647,0.798891,0.720556,5.378399,-4.348294,-53.823837,0.015406,0.005125,0.002056,0.002181,0.724735,0.994535,-0.113764,-0.197071,99999,99999,99999,99999,99999,99999,99999,99999,99999,99999,99999,99999
48:11:49,1510930170,2017-11-17T14:49:36,0.791,2201.9,22.14,19.01,24.06,818.660,2094.790,135.016663,22.07,2.4687,363,23853,1.95221,3.71,31006,6.075324,80.961731,124.883812,0.988646,0.799010,0.719877,12.873204,-15.201419,-53.823837,0.015106,0.004800,0.002044,0.002169,0.734275,1.022372,-0.113766,-0.197076,99999,99999,99999,99999,99999,99999,99999,99999,99999,99999,99999,99999
48:12:19,1510930200,2017-11-17T14:50:06,0.791,2202.3,22.18,19.06,24.07,818.590,2094.960,129.333328,22.34,2.4685,363,23854,1.95221,3.71,31010,6.028761,80.884588,124.973826,0.988646,0.799780,0.719837,5.351283,-1.200688,-53.823837,0.014994,0.004538,0.002063,0.002188,0.741503,1.048633,-0.113758,-0.197059,99999,99999,99999,99999,99999,99999,99999,99999,99999,99999,99999,99999
48:12:49,1510930230,2017-11-17T14:50:36,0.792,2202.7,22.23,19.11,24.14,818.660,2095.080,132.800003,22.61,2.4682,363,23858,1.95587,3.72,31014,5.982937,80.807532,125.063907,0.988646,0.798980,0.720637,18.969969,4.704138,-53.823837,0.014363,0.004156,0.002063,0.002175,0.755770,1.087476,-0.113766,-0.197076,99999,99999,99999,99999,99999,99999,99999,99999,99999,99999,99999,99999
48:13:19,1510930260,2017-11-17T14:51:06,0.795,2203.1,22.29,19.15,24.20,818.620,2095.310,133.066666,22.56,2.4680,363,23858,1.96107,3.72,31017,5.937835,80.730557,125.154097,0.988646,0.798685,0.720597,1.655418,-2.208740,-53.823837,0.014056,0.003837,0.002063,0.002163,0.765920,1.126891,-0.113761,-0.197066,99999,99999,99999,99999,99999,99999,99999,99999,99999,99999,99999,99999
48:13:49,1510930290,2017-11-17T14:51:36,0.793,2203.5,22.34,19.22,24.23,818.610,2095.480,130.866669,22.85,2.4677,363,23861,1.95709,3.72,31021,5.893434,80.653659,125.244356,0.988646,0.798152,0.721385,11.596612,-13.330318,-53.823837,0.013656,0.003556,0.002056,0.002169,0.777634,1.168803,-0.113760,-0.197064,99999,99999,99999,99999,99999,99999,99999,99999,99999,99999,99999,99999
48:14:19,1510930320,2017-11-17T14:52:06,0.791,2203.9,22.40,19.27,24.31,818.640,2095.670,131.250000,22.49,2.4675,363,23862,1.95252,3.72,31025,5.849720,80.576836,125.334735,0.988646,0.797530,0.720225,-0.237212,-3.347708,-53.823837,0.013306,0.003219,0.002050,0.002181,0.788867,1.228966,-0.113764,-0.197071,99999,99999,99999,99999,99999,99999,99999,99999,99999,99999,99999,99999
48:14:49,1510930350,2017-11-17T14:52:36,0.792,2204.3,22.44,19.33,24.38,818.530,2095.780,128.899994,22.37,2.4673,363,23864,1.95526,3.72,31029,5.806685,80.500104,125.425223,0.988646,0.797501,0.720452,40.258503,-15.379763,-53.823837,0.012913,0.002944,0.002044,0.002169,0.801054,1.295910,-0.113751,-0.197045,99999,99999,99999,99999,99999,99999,99999,99999,99999,99999,99999,99999
